<?xml version="1.0" encoding="UTF-8"?>
<gpx version="1.0" creator="GPSBabel - https://www.gpsbabel.org" xmlns="http://www.topografix.com/GPX/1/0">
  <time>2021-11-22T04:10:54.583Z</time>
  <bounds minlat="16.963230330" minlon="-96.720335760" maxlat="17.150615370" maxlon="-96.410859273"/>
  <wpt lat="17.144563313" lon="-96.410859273">
    <ele>0.000</ele>
    <name>Llano Grande</name>
    <cmt>Llano Grande</cmt>
    <desc>Llano Grande</desc>
  </wpt>
  <trk>
    <name>Llano Grande Oaxaca DriveOut.2017-01-13</name>
    <trkseg>
      <trkpt lat="17.148759950" lon="-96.412173820">
        <ele>3091.000</ele>
        <time>2017-01-13T21:18:14Z</time>
        <name>WPT</name>
      </trkpt>
      <trkpt lat="17.148828670" lon="-96.412192290">
        <ele>3101.000</ele>
        <time>2017-01-13T21:18:15Z</time>
        <name>WPT.1</name>
      </trkpt>
      <trkpt lat="17.148892130" lon="-96.412245350">
        <ele>3102.000</ele>
        <time>2017-01-13T21:18:16Z</time>
        <name>WPT.2</name>
      </trkpt>
      <trkpt lat="17.148846930" lon="-96.412339010">
        <ele>3101.000</ele>
        <time>2017-01-13T21:18:17Z</time>
        <name>WPT.3</name>
      </trkpt>
      <trkpt lat="17.148954690" lon="-96.412378230">
        <ele>3096.000</ele>
        <time>2017-01-13T21:18:18Z</time>
        <name>WPT.4</name>
      </trkpt>
      <trkpt lat="17.149066350" lon="-96.412526130">
        <ele>3089.000</ele>
        <time>2017-01-13T21:18:19Z</time>
        <name>WPT.5</name>
      </trkpt>
      <trkpt lat="17.149024910" lon="-96.412671250">
        <ele>3103.000</ele>
        <time>2017-01-13T21:18:20Z</time>
        <name>WPT.6</name>
      </trkpt>
      <trkpt lat="17.149012260" lon="-96.412826300">
        <ele>3119.000</ele>
        <time>2017-01-13T21:18:21Z</time>
        <name>WPT.7</name>
      </trkpt>
      <trkpt lat="17.149050560" lon="-96.412951260">
        <ele>3117.000</ele>
        <time>2017-01-13T21:18:22Z</time>
        <name>WPT.8</name>
      </trkpt>
      <trkpt lat="17.149143100" lon="-96.412966310">
        <ele>3107.000</ele>
        <time>2017-01-13T21:18:23Z</time>
        <name>WPT.9</name>
      </trkpt>
      <trkpt lat="17.149129080" lon="-96.413015330">
        <ele>3138.000</ele>
        <time>2017-01-13T21:18:24Z</time>
        <name>WPT.10</name>
      </trkpt>
      <trkpt lat="17.149092100" lon="-96.413025070">
        <ele>3132.000</ele>
        <time>2017-01-13T21:18:25Z</time>
        <name>WPT.11</name>
      </trkpt>
      <trkpt lat="17.149056370" lon="-96.413186380">
        <ele>3125.000</ele>
        <time>2017-01-13T21:18:26Z</time>
        <name>WPT.12</name>
      </trkpt>
      <trkpt lat="17.149206230" lon="-96.413194670">
        <ele>3095.000</ele>
        <time>2017-01-13T21:18:27Z</time>
        <name>WPT.13</name>
      </trkpt>
      <trkpt lat="17.149249220" lon="-96.413341700">
        <ele>3106.000</ele>
        <time>2017-01-13T21:18:28Z</time>
        <name>WPT.14</name>
      </trkpt>
      <trkpt lat="17.149357500" lon="-96.413441140">
        <ele>3105.000</ele>
        <time>2017-01-13T21:18:29Z</time>
        <name>WPT.15</name>
      </trkpt>
      <trkpt lat="17.149411340" lon="-96.413416010">
        <ele>3069.000</ele>
        <time>2017-01-13T21:18:30Z</time>
        <name>WPT.16</name>
      </trkpt>
      <trkpt lat="17.149282870" lon="-96.413543570">
        <ele>3066.000</ele>
        <time>2017-01-13T21:18:31Z</time>
        <name>WPT.17</name>
      </trkpt>
      <trkpt lat="17.149282460" lon="-96.413675400">
        <ele>3086.000</ele>
        <time>2017-01-13T21:18:32Z</time>
        <name>WPT.18</name>
      </trkpt>
      <trkpt lat="17.149309620" lon="-96.413840960">
        <ele>3098.000</ele>
        <time>2017-01-13T21:18:33Z</time>
        <name>WPT.19</name>
      </trkpt>
      <trkpt lat="17.149378800" lon="-96.413965810">
        <ele>3096.000</ele>
        <time>2017-01-13T21:18:34Z</time>
        <name>WPT.20</name>
      </trkpt>
      <trkpt lat="17.149378790" lon="-96.414087110">
        <ele>3096.000</ele>
        <time>2017-01-13T21:18:35Z</time>
        <name>WPT.21</name>
      </trkpt>
      <trkpt lat="17.149393720" lon="-96.414188950">
        <ele>3096.000</ele>
        <time>2017-01-13T21:18:36Z</time>
        <name>WPT.22</name>
      </trkpt>
      <trkpt lat="17.149526840" lon="-96.414195220">
        <ele>3084.000</ele>
        <time>2017-01-13T21:18:37Z</time>
        <name>WPT.23</name>
      </trkpt>
      <trkpt lat="17.149603960" lon="-96.414295850">
        <ele>3083.000</ele>
        <time>2017-01-13T21:18:38Z</time>
        <name>WPT.24</name>
      </trkpt>
      <trkpt lat="17.149641780" lon="-96.414369100">
        <ele>3080.000</ele>
        <time>2017-01-13T21:18:39Z</time>
        <name>WPT.25</name>
      </trkpt>
      <trkpt lat="17.149702430" lon="-96.414427240">
        <ele>3079.000</ele>
        <time>2017-01-13T21:18:40Z</time>
        <name>WPT.26</name>
      </trkpt>
      <trkpt lat="17.149759690" lon="-96.414490390">
        <ele>3078.000</ele>
        <time>2017-01-13T21:18:41Z</time>
        <name>WPT.27</name>
      </trkpt>
      <trkpt lat="17.149829660" lon="-96.414554070">
        <ele>3078.000</ele>
        <time>2017-01-13T21:18:42Z</time>
        <name>WPT.28</name>
      </trkpt>
      <trkpt lat="17.149907230" lon="-96.414590320">
        <ele>3081.000</ele>
        <time>2017-01-13T21:18:43Z</time>
        <name>WPT.29</name>
      </trkpt>
      <trkpt lat="17.149938860" lon="-96.414655210">
        <ele>3080.000</ele>
        <time>2017-01-13T21:18:44Z</time>
        <name>WPT.30</name>
      </trkpt>
      <trkpt lat="17.150001010" lon="-96.414692130">
        <ele>3077.000</ele>
        <time>2017-01-13T21:18:45Z</time>
        <name>WPT.31</name>
      </trkpt>
      <trkpt lat="17.150039640" lon="-96.414748080">
        <ele>3073.000</ele>
        <time>2017-01-13T21:18:46Z</time>
        <name>WPT.32</name>
      </trkpt>
      <trkpt lat="17.150089770" lon="-96.414789470">
        <ele>3071.000</ele>
        <time>2017-01-13T21:18:47Z</time>
        <name>WPT.33</name>
      </trkpt>
      <trkpt lat="17.150152190" lon="-96.414795810">
        <ele>3066.000</ele>
        <time>2017-01-13T21:18:48Z</time>
        <name>WPT.34</name>
      </trkpt>
      <trkpt lat="17.150147850" lon="-96.414864450">
        <ele>3065.000</ele>
        <time>2017-01-13T21:18:49Z</time>
        <name>WPT.35</name>
      </trkpt>
      <trkpt lat="17.150092930" lon="-96.414930900">
        <ele>3060.000</ele>
        <time>2017-01-13T21:18:50Z</time>
        <name>WPT.36</name>
      </trkpt>
      <trkpt lat="17.150041940" lon="-96.414989310">
        <ele>3059.000</ele>
        <time>2017-01-13T21:18:51Z</time>
        <name>WPT.37</name>
      </trkpt>
      <trkpt lat="17.149969880" lon="-96.415020860">
        <ele>3060.000</ele>
        <time>2017-01-13T21:18:52Z</time>
        <name>WPT.38</name>
      </trkpt>
      <trkpt lat="17.149902740" lon="-96.415031490">
        <ele>3060.000</ele>
        <time>2017-01-13T21:18:53Z</time>
        <name>WPT.39</name>
      </trkpt>
      <trkpt lat="17.149814000" lon="-96.415004480">
        <ele>3059.000</ele>
        <time>2017-01-13T21:18:54Z</time>
        <name>WPT.40</name>
      </trkpt>
      <trkpt lat="17.149746510" lon="-96.415064130">
        <ele>3061.000</ele>
        <time>2017-01-13T21:18:55Z</time>
        <name>WPT.41</name>
      </trkpt>
      <trkpt lat="17.149670280" lon="-96.415049090">
        <ele>3059.000</ele>
        <time>2017-01-13T21:18:56Z</time>
        <name>WPT.42</name>
      </trkpt>
      <trkpt lat="17.149602390" lon="-96.415114320">
        <ele>3061.000</ele>
        <time>2017-01-13T21:18:57Z</time>
        <name>WPT.43</name>
      </trkpt>
      <trkpt lat="17.149544130" lon="-96.415196510">
        <ele>3061.000</ele>
        <time>2017-01-13T21:18:58Z</time>
        <name>WPT.44</name>
      </trkpt>
      <trkpt lat="17.149485690" lon="-96.415290570">
        <ele>3062.000</ele>
        <time>2017-01-13T21:18:59Z</time>
        <name>WPT.45</name>
      </trkpt>
      <trkpt lat="17.149449920" lon="-96.415387970">
        <ele>3064.000</ele>
        <time>2017-01-13T21:19:00Z</time>
        <name>WPT.46</name>
      </trkpt>
      <trkpt lat="17.149349110" lon="-96.415426740">
        <ele>3062.000</ele>
        <time>2017-01-13T21:19:01Z</time>
        <name>WPT.47</name>
      </trkpt>
      <trkpt lat="17.149275590" lon="-96.415483580">
        <ele>3063.000</ele>
        <time>2017-01-13T21:19:02Z</time>
        <name>WPT.48</name>
      </trkpt>
      <trkpt lat="17.149255050" lon="-96.415552950">
        <ele>3061.000</ele>
        <time>2017-01-13T21:19:03Z</time>
        <name>WPT.49</name>
      </trkpt>
      <trkpt lat="17.149218490" lon="-96.415658150">
        <ele>3061.000</ele>
        <time>2017-01-13T21:19:04Z</time>
        <name>WPT.50</name>
      </trkpt>
      <trkpt lat="17.149160780" lon="-96.415687870">
        <ele>3060.000</ele>
        <time>2017-01-13T21:19:05Z</time>
        <name>WPT.51</name>
      </trkpt>
      <trkpt lat="17.149105830" lon="-96.415792090">
        <ele>3061.000</ele>
        <time>2017-01-13T21:19:06Z</time>
        <name>WPT.52</name>
      </trkpt>
      <trkpt lat="17.149074700" lon="-96.415956090">
        <ele>3061.000</ele>
        <time>2017-01-13T21:19:07Z</time>
        <name>WPT.53</name>
      </trkpt>
      <trkpt lat="17.149056710" lon="-96.416000580">
        <ele>3061.000</ele>
        <time>2017-01-13T21:19:08Z</time>
        <name>WPT.54</name>
      </trkpt>
      <trkpt lat="17.149021400" lon="-96.416120620">
        <ele>3061.000</ele>
        <time>2017-01-13T21:19:09Z</time>
        <name>WPT.55</name>
      </trkpt>
      <trkpt lat="17.148954680" lon="-96.416278230">
        <ele>3063.000</ele>
        <time>2017-01-13T21:19:10Z</time>
        <name>WPT.56</name>
      </trkpt>
      <trkpt lat="17.148910650" lon="-96.416417990">
        <ele>3064.000</ele>
        <time>2017-01-13T21:19:11Z</time>
        <name>WPT.57</name>
      </trkpt>
      <trkpt lat="17.148834520" lon="-96.416539120">
        <ele>3065.000</ele>
        <time>2017-01-13T21:19:12Z</time>
        <name>WPT.58</name>
      </trkpt>
      <trkpt lat="17.148820720" lon="-96.416627350">
        <ele>3065.000</ele>
        <time>2017-01-13T21:19:13Z</time>
        <name>WPT.59</name>
      </trkpt>
      <trkpt lat="17.148844480" lon="-96.416713110">
        <ele>3064.000</ele>
        <time>2017-01-13T21:19:14Z</time>
        <name>WPT.60</name>
      </trkpt>
      <trkpt lat="17.148851320" lon="-96.416762700">
        <ele>3065.000</ele>
        <time>2017-01-13T21:19:15Z</time>
        <name>WPT.61</name>
      </trkpt>
      <trkpt lat="17.148780080" lon="-96.416870300">
        <ele>3065.000</ele>
        <time>2017-01-13T21:19:16Z</time>
        <name>WPT.62</name>
      </trkpt>
      <trkpt lat="17.148833680" lon="-96.416921260">
        <ele>3064.000</ele>
        <time>2017-01-13T21:19:17Z</time>
        <name>WPT.63</name>
      </trkpt>
      <trkpt lat="17.148759020" lon="-96.417015740">
        <ele>3065.000</ele>
        <time>2017-01-13T21:19:18Z</time>
        <name>WPT.64</name>
      </trkpt>
      <trkpt lat="17.148683160" lon="-96.417068610">
        <ele>3065.000</ele>
        <time>2017-01-13T21:19:19Z</time>
        <name>WPT.65</name>
      </trkpt>
      <trkpt lat="17.148691130" lon="-96.417141410">
        <ele>3065.000</ele>
        <time>2017-01-13T21:19:20Z</time>
        <name>WPT.66</name>
      </trkpt>
      <trkpt lat="17.148624620" lon="-96.417230020">
        <ele>3066.000</ele>
        <time>2017-01-13T21:19:21Z</time>
        <name>WPT.67</name>
      </trkpt>
      <trkpt lat="17.148567090" lon="-96.417334310">
        <ele>3065.000</ele>
        <time>2017-01-13T21:19:22Z</time>
        <name>WPT.68</name>
      </trkpt>
      <trkpt lat="17.148522040" lon="-96.417419280">
        <ele>3065.000</ele>
        <time>2017-01-13T21:19:23Z</time>
        <name>WPT.69</name>
      </trkpt>
      <trkpt lat="17.148531440" lon="-96.417472470">
        <ele>3066.000</ele>
        <time>2017-01-13T21:19:24Z</time>
        <name>WPT.70</name>
      </trkpt>
      <trkpt lat="17.148499210" lon="-96.417626870">
        <ele>3066.000</ele>
        <time>2017-01-13T21:19:25Z</time>
        <name>WPT.71</name>
      </trkpt>
      <trkpt lat="17.148458630" lon="-96.417725500">
        <ele>3066.000</ele>
        <time>2017-01-13T21:19:26Z</time>
        <name>WPT.72</name>
      </trkpt>
      <trkpt lat="17.148469910" lon="-96.417800370">
        <ele>3068.000</ele>
        <time>2017-01-13T21:19:27Z</time>
        <name>WPT.73</name>
      </trkpt>
      <trkpt lat="17.148432570" lon="-96.417919110">
        <ele>3069.000</ele>
        <time>2017-01-13T21:19:28Z</time>
        <name>WPT.74</name>
      </trkpt>
      <trkpt lat="17.148433810" lon="-96.418004140">
        <ele>3068.000</ele>
        <time>2017-01-13T21:19:29Z</time>
        <name>WPT.75</name>
      </trkpt>
      <trkpt lat="17.148397060" lon="-96.418115870">
        <ele>3065.000</ele>
        <time>2017-01-13T21:19:30Z</time>
        <name>WPT.76</name>
      </trkpt>
      <trkpt lat="17.148397010" lon="-96.418221010">
        <ele>3067.000</ele>
        <time>2017-01-13T21:19:31Z</time>
        <name>WPT.77</name>
      </trkpt>
      <trkpt lat="17.148374990" lon="-96.418332480">
        <ele>3067.000</ele>
        <time>2017-01-13T21:19:32Z</time>
        <name>WPT.78</name>
      </trkpt>
      <trkpt lat="17.148374910" lon="-96.418434410">
        <ele>3066.000</ele>
        <time>2017-01-13T21:19:33Z</time>
        <name>WPT.79</name>
      </trkpt>
      <trkpt lat="17.148384220" lon="-96.418524840">
        <ele>3066.000</ele>
        <time>2017-01-13T21:19:34Z</time>
        <name>WPT.80</name>
      </trkpt>
      <trkpt lat="17.148394150" lon="-96.418582000">
        <ele>3065.000</ele>
        <time>2017-01-13T21:19:35Z</time>
        <name>WPT.81</name>
      </trkpt>
      <trkpt lat="17.148413830" lon="-96.418654500">
        <ele>3066.000</ele>
        <time>2017-01-13T21:19:36Z</time>
        <name>WPT.82</name>
      </trkpt>
      <trkpt lat="17.148405820" lon="-96.418701240">
        <ele>3064.000</ele>
        <time>2017-01-13T21:19:37Z</time>
        <name>WPT.83</name>
      </trkpt>
      <trkpt lat="17.148413620" lon="-96.418751520">
        <ele>3065.000</ele>
        <time>2017-01-13T21:19:38Z</time>
        <name>WPT.84</name>
      </trkpt>
      <trkpt lat="17.148406540" lon="-96.418806820">
        <ele>3065.000</ele>
        <time>2017-01-13T21:19:39Z</time>
        <name>WPT.85</name>
      </trkpt>
      <trkpt lat="17.148396230" lon="-96.418862200">
        <ele>3066.000</ele>
        <time>2017-01-13T21:19:40Z</time>
        <name>WPT.86</name>
      </trkpt>
      <trkpt lat="17.148388560" lon="-96.418907230">
        <ele>3066.000</ele>
        <time>2017-01-13T21:19:41Z</time>
        <name>WPT.87</name>
      </trkpt>
      <trkpt lat="17.148429990" lon="-96.418984040">
        <ele>3065.000</ele>
        <time>2017-01-13T21:19:42Z</time>
        <name>WPT.88</name>
      </trkpt>
      <trkpt lat="17.148497460" lon="-96.419035790">
        <ele>3066.000</ele>
        <time>2017-01-13T21:19:43Z</time>
        <name>WPT.89</name>
      </trkpt>
      <trkpt lat="17.148527170" lon="-96.419094180">
        <ele>3064.000</ele>
        <time>2017-01-13T21:19:44Z</time>
        <name>WPT.90</name>
      </trkpt>
      <trkpt lat="17.148587440" lon="-96.419117000">
        <ele>3062.000</ele>
        <time>2017-01-13T21:19:45Z</time>
        <name>WPT.91</name>
      </trkpt>
      <trkpt lat="17.148612410" lon="-96.419154720">
        <ele>3062.000</ele>
        <time>2017-01-13T21:19:46Z</time>
        <name>WPT.92</name>
      </trkpt>
      <trkpt lat="17.148626310" lon="-96.419202050">
        <ele>3061.000</ele>
        <time>2017-01-13T21:19:47Z</time>
        <name>WPT.93</name>
      </trkpt>
      <trkpt lat="17.148584900" lon="-96.419293730">
        <ele>3060.000</ele>
        <time>2017-01-13T21:19:48Z</time>
        <name>WPT.94</name>
      </trkpt>
      <trkpt lat="17.148565060" lon="-96.419368000">
        <ele>3060.000</ele>
        <time>2017-01-13T21:19:49Z</time>
        <name>WPT.95</name>
      </trkpt>
      <trkpt lat="17.148552110" lon="-96.419421550">
        <ele>3060.000</ele>
        <time>2017-01-13T21:19:50Z</time>
        <name>WPT.96</name>
      </trkpt>
      <trkpt lat="17.148442580" lon="-96.419493050">
        <ele>3060.000</ele>
        <time>2017-01-13T21:19:51Z</time>
        <name>WPT.97</name>
      </trkpt>
      <trkpt lat="17.148402670" lon="-96.419541160">
        <ele>3060.000</ele>
        <time>2017-01-13T21:19:52Z</time>
        <name>WPT.98</name>
      </trkpt>
      <trkpt lat="17.148387750" lon="-96.419586340">
        <ele>3060.000</ele>
        <time>2017-01-13T21:19:53Z</time>
        <name>WPT.99</name>
      </trkpt>
      <trkpt lat="17.148322170" lon="-96.419608530">
        <ele>3059.000</ele>
        <time>2017-01-13T21:19:54Z</time>
        <name>WPT.100</name>
      </trkpt>
      <trkpt lat="17.148272180" lon="-96.419676630">
        <ele>3060.000</ele>
        <time>2017-01-13T21:19:55Z</time>
        <name>WPT.101</name>
      </trkpt>
      <trkpt lat="17.148249110" lon="-96.419750810">
        <ele>3062.000</ele>
        <time>2017-01-13T21:19:56Z</time>
        <name>WPT.102</name>
      </trkpt>
      <trkpt lat="17.148175910" lon="-96.419798080">
        <ele>3062.000</ele>
        <time>2017-01-13T21:19:57Z</time>
        <name>WPT.103</name>
      </trkpt>
      <trkpt lat="17.148124840" lon="-96.419865230">
        <ele>3064.000</ele>
        <time>2017-01-13T21:19:58Z</time>
        <name>WPT.104</name>
      </trkpt>
      <trkpt lat="17.148053140" lon="-96.419905450">
        <ele>3064.000</ele>
        <time>2017-01-13T21:19:59Z</time>
        <name>WPT.105</name>
      </trkpt>
      <trkpt lat="17.147993640" lon="-96.419941580">
        <ele>3061.000</ele>
        <time>2017-01-13T21:20:00Z</time>
        <name>WPT.106</name>
      </trkpt>
      <trkpt lat="17.147921910" lon="-96.420000050">
        <ele>3062.000</ele>
        <time>2017-01-13T21:20:01Z</time>
        <name>WPT.107</name>
      </trkpt>
      <trkpt lat="17.147848880" lon="-96.420056070">
        <ele>3062.000</ele>
        <time>2017-01-13T21:20:02Z</time>
        <name>WPT.108</name>
      </trkpt>
      <trkpt lat="17.147770970" lon="-96.420139280">
        <ele>3062.000</ele>
        <time>2017-01-13T21:20:03Z</time>
        <name>WPT.109</name>
      </trkpt>
      <trkpt lat="17.147688660" lon="-96.420206020">
        <ele>3062.000</ele>
        <time>2017-01-13T21:20:04Z</time>
        <name>WPT.110</name>
      </trkpt>
      <trkpt lat="17.147622490" lon="-96.420298650">
        <ele>3062.000</ele>
        <time>2017-01-13T21:20:05Z</time>
        <name>WPT.111</name>
      </trkpt>
      <trkpt lat="17.147582550" lon="-96.420364180">
        <ele>3063.000</ele>
        <time>2017-01-13T21:20:06Z</time>
        <name>WPT.112</name>
      </trkpt>
      <trkpt lat="17.147549020" lon="-96.420454400">
        <ele>3064.000</ele>
        <time>2017-01-13T21:20:07Z</time>
        <name>WPT.113</name>
      </trkpt>
      <trkpt lat="17.147484890" lon="-96.420558720">
        <ele>3063.000</ele>
        <time>2017-01-13T21:20:08Z</time>
        <name>WPT.114</name>
      </trkpt>
      <trkpt lat="17.147569150" lon="-96.420631270">
        <ele>3062.000</ele>
        <time>2017-01-13T21:20:09Z</time>
        <name>WPT.115</name>
      </trkpt>
      <trkpt lat="17.147625970" lon="-96.420727730">
        <ele>3062.000</ele>
        <time>2017-01-13T21:20:10Z</time>
        <name>WPT.116</name>
      </trkpt>
      <trkpt lat="17.147663800" lon="-96.420818610">
        <ele>3062.000</ele>
        <time>2017-01-13T21:20:11Z</time>
        <name>WPT.117</name>
      </trkpt>
      <trkpt lat="17.147694530" lon="-96.420897160">
        <ele>3062.000</ele>
        <time>2017-01-13T21:20:12Z</time>
        <name>WPT.118</name>
      </trkpt>
      <trkpt lat="17.147722940" lon="-96.421004860">
        <ele>3060.000</ele>
        <time>2017-01-13T21:20:13Z</time>
        <name>WPT.119</name>
      </trkpt>
      <trkpt lat="17.147786870" lon="-96.421075600">
        <ele>3058.000</ele>
        <time>2017-01-13T21:20:14Z</time>
        <name>WPT.120</name>
      </trkpt>
      <trkpt lat="17.147816150" lon="-96.421150540">
        <ele>3057.000</ele>
        <time>2017-01-13T21:20:15Z</time>
        <name>WPT.121</name>
      </trkpt>
      <trkpt lat="17.147831280" lon="-96.421234830">
        <ele>3058.000</ele>
        <time>2017-01-13T21:20:16Z</time>
        <name>WPT.122</name>
      </trkpt>
      <trkpt lat="17.147813540" lon="-96.421322850">
        <ele>3059.000</ele>
        <time>2017-01-13T21:20:17Z</time>
        <name>WPT.123</name>
      </trkpt>
      <trkpt lat="17.147771390" lon="-96.421440980">
        <ele>3059.000</ele>
        <time>2017-01-13T21:20:18Z</time>
        <name>WPT.124</name>
      </trkpt>
      <trkpt lat="17.147679400" lon="-96.421580430">
        <ele>3061.000</ele>
        <time>2017-01-13T21:20:19Z</time>
        <name>WPT.125</name>
      </trkpt>
      <trkpt lat="17.147604390" lon="-96.421643690">
        <ele>3061.000</ele>
        <time>2017-01-13T21:20:20Z</time>
        <name>WPT.126</name>
      </trkpt>
      <trkpt lat="17.147532650" lon="-96.421742660">
        <ele>3061.000</ele>
        <time>2017-01-13T21:20:21Z</time>
        <name>WPT.127</name>
      </trkpt>
      <trkpt lat="17.147505700" lon="-96.421814340">
        <ele>3061.000</ele>
        <time>2017-01-13T21:20:22Z</time>
        <name>WPT.128</name>
      </trkpt>
      <trkpt lat="17.147429640" lon="-96.421943190">
        <ele>3062.000</ele>
        <time>2017-01-13T21:20:23Z</time>
        <name>WPT.129</name>
      </trkpt>
      <trkpt lat="17.147361910" lon="-96.421964040">
        <ele>3062.000</ele>
        <time>2017-01-13T21:20:24Z</time>
        <name>WPT.130</name>
      </trkpt>
      <trkpt lat="17.147354900" lon="-96.422112250">
        <ele>3060.000</ele>
        <time>2017-01-13T21:20:25Z</time>
        <name>WPT.131</name>
      </trkpt>
      <trkpt lat="17.147286690" lon="-96.422164620">
        <ele>3059.000</ele>
        <time>2017-01-13T21:20:26Z</time>
        <name>WPT.132</name>
      </trkpt>
      <trkpt lat="17.147292240" lon="-96.422218110">
        <ele>3059.000</ele>
        <time>2017-01-13T21:20:27Z</time>
        <name>WPT.133</name>
      </trkpt>
      <trkpt lat="17.147312010" lon="-96.422277580">
        <ele>3059.000</ele>
        <time>2017-01-13T21:20:28Z</time>
        <name>WPT.134</name>
      </trkpt>
      <trkpt lat="17.147365170" lon="-96.422426630">
        <ele>3059.000</ele>
        <time>2017-01-13T21:20:30Z</time>
        <name>WPT.135</name>
      </trkpt>
      <trkpt lat="17.147336740" lon="-96.422495560">
        <ele>3059.000</ele>
        <time>2017-01-13T21:20:31Z</time>
        <name>WPT.136</name>
      </trkpt>
      <trkpt lat="17.147335640" lon="-96.422595440">
        <ele>3061.000</ele>
        <time>2017-01-13T21:20:32Z</time>
        <name>WPT.137</name>
      </trkpt>
      <trkpt lat="17.147349160" lon="-96.422713410">
        <ele>3060.000</ele>
        <time>2017-01-13T21:20:33Z</time>
        <name>WPT.138</name>
      </trkpt>
      <trkpt lat="17.147259730" lon="-96.422850380">
        <ele>3064.000</ele>
        <time>2017-01-13T21:20:34Z</time>
        <name>WPT.139</name>
      </trkpt>
      <trkpt lat="17.147220830" lon="-96.422956550">
        <ele>3064.000</ele>
        <time>2017-01-13T21:20:35Z</time>
        <name>WPT.140</name>
      </trkpt>
      <trkpt lat="17.147173170" lon="-96.423068320">
        <ele>3067.000</ele>
        <time>2017-01-13T21:20:36Z</time>
        <name>WPT.141</name>
      </trkpt>
      <trkpt lat="17.147163710" lon="-96.423142360">
        <ele>3067.000</ele>
        <time>2017-01-13T21:20:37Z</time>
        <name>WPT.142</name>
      </trkpt>
      <trkpt lat="17.147125080" lon="-96.423200980">
        <ele>3065.000</ele>
        <time>2017-01-13T21:20:38Z</time>
        <name>WPT.143</name>
      </trkpt>
      <trkpt lat="17.147182480" lon="-96.423189610">
        <ele>3066.000</ele>
        <time>2017-01-13T21:20:39Z</time>
        <name>WPT.144</name>
      </trkpt>
      <trkpt lat="17.147207950" lon="-96.423237760">
        <ele>3066.000</ele>
        <time>2017-01-13T21:20:40Z</time>
        <name>WPT.145</name>
      </trkpt>
      <trkpt lat="17.147225800" lon="-96.423285270">
        <ele>3065.000</ele>
        <time>2017-01-13T21:20:41Z</time>
        <name>WPT.146</name>
      </trkpt>
      <trkpt lat="17.147281370" lon="-96.423337620">
        <ele>3066.000</ele>
        <time>2017-01-13T21:20:42Z</time>
        <name>WPT.147</name>
      </trkpt>
      <trkpt lat="17.147349150" lon="-96.423381220">
        <ele>3065.000</ele>
        <time>2017-01-13T21:20:43Z</time>
        <name>WPT.148</name>
      </trkpt>
      <trkpt lat="17.147380160" lon="-96.423415730">
        <ele>3065.000</ele>
        <time>2017-01-13T21:20:44Z</time>
        <name>WPT.149</name>
      </trkpt>
      <trkpt lat="17.147461190" lon="-96.423454680">
        <ele>3066.000</ele>
        <time>2017-01-13T21:20:45Z</time>
        <name>WPT.150</name>
      </trkpt>
      <trkpt lat="17.147480710" lon="-96.423495710">
        <ele>3064.000</ele>
        <time>2017-01-13T21:20:46Z</time>
        <name>WPT.151</name>
      </trkpt>
      <trkpt lat="17.147503520" lon="-96.423546560">
        <ele>3063.000</ele>
        <time>2017-01-13T21:20:47Z</time>
        <name>WPT.152</name>
      </trkpt>
      <trkpt lat="17.147537020" lon="-96.423585340">
        <ele>3063.000</ele>
        <time>2017-01-13T21:20:48Z</time>
        <name>WPT.153</name>
      </trkpt>
      <trkpt lat="17.147530350" lon="-96.423648800">
        <ele>3062.000</ele>
        <time>2017-01-13T21:20:49Z</time>
        <name>WPT.154</name>
      </trkpt>
      <trkpt lat="17.147509620" lon="-96.423688720">
        <ele>3063.000</ele>
        <time>2017-01-13T21:20:50Z</time>
        <name>WPT.155</name>
      </trkpt>
      <trkpt lat="17.147486970" lon="-96.423731560">
        <ele>3063.000</ele>
        <time>2017-01-13T21:20:51Z</time>
        <name>WPT.156</name>
      </trkpt>
      <trkpt lat="17.147441940" lon="-96.423791370">
        <ele>3062.000</ele>
        <time>2017-01-13T21:20:52Z</time>
        <name>WPT.157</name>
      </trkpt>
      <trkpt lat="17.147409490" lon="-96.423836530">
        <ele>3063.000</ele>
        <time>2017-01-13T21:20:53Z</time>
        <name>WPT.158</name>
      </trkpt>
      <trkpt lat="17.147360100" lon="-96.423889760">
        <ele>3064.000</ele>
        <time>2017-01-13T21:20:54Z</time>
        <name>WPT.159</name>
      </trkpt>
      <trkpt lat="17.147319150" lon="-96.423953790">
        <ele>3064.000</ele>
        <time>2017-01-13T21:20:55Z</time>
        <name>WPT.160</name>
      </trkpt>
      <trkpt lat="17.147280180" lon="-96.424080240">
        <ele>3062.000</ele>
        <time>2017-01-13T21:20:56Z</time>
        <name>WPT.161</name>
      </trkpt>
      <trkpt lat="17.147222330" lon="-96.424154460">
        <ele>3062.000</ele>
        <time>2017-01-13T21:20:57Z</time>
        <name>WPT.162</name>
      </trkpt>
      <trkpt lat="17.147145940" lon="-96.424227160">
        <ele>3061.000</ele>
        <time>2017-01-13T21:20:58Z</time>
        <name>WPT.163</name>
      </trkpt>
      <trkpt lat="17.147079040" lon="-96.424280300">
        <ele>3062.000</ele>
        <time>2017-01-13T21:20:59Z</time>
        <name>WPT.164</name>
      </trkpt>
      <trkpt lat="17.146984120" lon="-96.424317230">
        <ele>3062.000</ele>
        <time>2017-01-13T21:21:00Z</time>
        <name>WPT.165</name>
      </trkpt>
      <trkpt lat="17.146924220" lon="-96.424326800">
        <ele>3061.000</ele>
        <time>2017-01-13T21:21:01Z</time>
        <name>WPT.166</name>
      </trkpt>
      <trkpt lat="17.146812950" lon="-96.424390670">
        <ele>3062.000</ele>
        <time>2017-01-13T21:21:02Z</time>
        <name>WPT.167</name>
      </trkpt>
      <trkpt lat="17.146750720" lon="-96.424424960">
        <ele>3062.000</ele>
        <time>2017-01-13T21:21:03Z</time>
        <name>WPT.168</name>
      </trkpt>
      <trkpt lat="17.146692470" lon="-96.424484740">
        <ele>3061.000</ele>
        <time>2017-01-13T21:21:04Z</time>
        <name>WPT.169</name>
      </trkpt>
      <trkpt lat="17.146632340" lon="-96.424548710">
        <ele>3062.000</ele>
        <time>2017-01-13T21:21:05Z</time>
        <name>WPT.170</name>
      </trkpt>
      <trkpt lat="17.146553590" lon="-96.424586870">
        <ele>3063.000</ele>
        <time>2017-01-13T21:21:06Z</time>
        <name>WPT.171</name>
      </trkpt>
      <trkpt lat="17.146618210" lon="-96.424726780">
        <ele>3063.000</ele>
        <time>2017-01-13T21:21:07Z</time>
        <name>WPT.172</name>
      </trkpt>
      <trkpt lat="17.146660020" lon="-96.424817880">
        <ele>3061.000</ele>
        <time>2017-01-13T21:21:08Z</time>
        <name>WPT.173</name>
      </trkpt>
      <trkpt lat="17.146694680" lon="-96.424900350">
        <ele>3062.000</ele>
        <time>2017-01-13T21:21:09Z</time>
        <name>WPT.174</name>
      </trkpt>
      <trkpt lat="17.146724540" lon="-96.425006960">
        <ele>3062.000</ele>
        <time>2017-01-13T21:21:10Z</time>
        <name>WPT.175</name>
      </trkpt>
      <trkpt lat="17.146763470" lon="-96.425109450">
        <ele>3062.000</ele>
        <time>2017-01-13T21:21:11Z</time>
        <name>WPT.176</name>
      </trkpt>
      <trkpt lat="17.146799830" lon="-96.425190040">
        <ele>3063.000</ele>
        <time>2017-01-13T21:21:12Z</time>
        <name>WPT.177</name>
      </trkpt>
      <trkpt lat="17.146882270" lon="-96.425306280">
        <ele>3062.000</ele>
        <time>2017-01-13T21:21:13Z</time>
        <name>WPT.178</name>
      </trkpt>
      <trkpt lat="17.146939140" lon="-96.425401700">
        <ele>3062.000</ele>
        <time>2017-01-13T21:21:14Z</time>
        <name>WPT.179</name>
      </trkpt>
      <trkpt lat="17.147010990" lon="-96.425501790">
        <ele>3062.000</ele>
        <time>2017-01-13T21:21:15Z</time>
        <name>WPT.180</name>
      </trkpt>
      <trkpt lat="17.147072440" lon="-96.425598090">
        <ele>3062.000</ele>
        <time>2017-01-13T21:21:16Z</time>
        <name>WPT.181</name>
      </trkpt>
      <trkpt lat="17.147148570" lon="-96.425678230">
        <ele>3062.000</ele>
        <time>2017-01-13T21:21:17Z</time>
        <name>WPT.182</name>
      </trkpt>
      <trkpt lat="17.147227900" lon="-96.425781570">
        <ele>3063.000</ele>
        <time>2017-01-13T21:21:18Z</time>
        <name>WPT.183</name>
      </trkpt>
      <trkpt lat="17.147294600" lon="-96.425861280">
        <ele>3064.000</ele>
        <time>2017-01-13T21:21:19Z</time>
        <name>WPT.184</name>
      </trkpt>
      <trkpt lat="17.147362500" lon="-96.425910080">
        <ele>3062.000</ele>
        <time>2017-01-13T21:21:20Z</time>
        <name>WPT.185</name>
      </trkpt>
      <trkpt lat="17.147349650" lon="-96.426028810">
        <ele>3062.000</ele>
        <time>2017-01-13T21:21:21Z</time>
        <name>WPT.186</name>
      </trkpt>
      <trkpt lat="17.147319200" lon="-96.426169360">
        <ele>3061.000</ele>
        <time>2017-01-13T21:21:22Z</time>
        <name>WPT.187</name>
      </trkpt>
      <trkpt lat="17.147371460" lon="-96.426245780">
        <ele>3060.000</ele>
        <time>2017-01-13T21:21:23Z</time>
        <name>WPT.188</name>
      </trkpt>
      <trkpt lat="17.147453250" lon="-96.426314900">
        <ele>3059.000</ele>
        <time>2017-01-13T21:21:24Z</time>
        <name>WPT.189</name>
      </trkpt>
      <trkpt lat="17.147510720" lon="-96.426378150">
        <ele>3059.000</ele>
        <time>2017-01-13T21:21:25Z</time>
        <name>WPT.190</name>
      </trkpt>
      <trkpt lat="17.147572540" lon="-96.426456710">
        <ele>3058.000</ele>
        <time>2017-01-13T21:21:26Z</time>
        <name>WPT.191</name>
      </trkpt>
      <trkpt lat="17.147613360" lon="-96.426520140">
        <ele>3058.000</ele>
        <time>2017-01-13T21:21:27Z</time>
        <name>WPT.192</name>
      </trkpt>
      <trkpt lat="17.147644640" lon="-96.426590090">
        <ele>3058.000</ele>
        <time>2017-01-13T21:21:28Z</time>
        <name>WPT.193</name>
      </trkpt>
      <trkpt lat="17.147643420" lon="-96.426686800">
        <ele>3057.000</ele>
        <time>2017-01-13T21:21:29Z</time>
        <name>WPT.194</name>
      </trkpt>
      <trkpt lat="17.147662150" lon="-96.426781650">
        <ele>3056.000</ele>
        <time>2017-01-13T21:21:30Z</time>
        <name>WPT.195</name>
      </trkpt>
      <trkpt lat="17.147668710" lon="-96.426859390">
        <ele>3056.000</ele>
        <time>2017-01-13T21:21:31Z</time>
        <name>WPT.196</name>
      </trkpt>
      <trkpt lat="17.147713290" lon="-96.426943310">
        <ele>3055.000</ele>
        <time>2017-01-13T21:21:32Z</time>
        <name>WPT.197</name>
      </trkpt>
      <trkpt lat="17.147766760" lon="-96.427020610">
        <ele>3052.000</ele>
        <time>2017-01-13T21:21:33Z</time>
        <name>WPT.198</name>
      </trkpt>
      <trkpt lat="17.147817520" lon="-96.427065120">
        <ele>3052.000</ele>
        <time>2017-01-13T21:21:34Z</time>
        <name>WPT.199</name>
      </trkpt>
      <trkpt lat="17.147853020" lon="-96.427046490">
        <ele>3051.000</ele>
        <time>2017-01-13T21:21:35Z</time>
        <name>WPT.200</name>
      </trkpt>
      <trkpt lat="17.147889210" lon="-96.427072280">
        <ele>3053.000</ele>
        <time>2017-01-13T21:21:36Z</time>
        <name>WPT.201</name>
      </trkpt>
      <trkpt lat="17.147929590" lon="-96.427081910">
        <ele>3053.000</ele>
        <time>2017-01-13T21:21:37Z</time>
        <name>WPT.202</name>
      </trkpt>
      <trkpt lat="17.147968920" lon="-96.427093220">
        <ele>3055.000</ele>
        <time>2017-01-13T21:21:40Z</time>
        <name>WPT.203</name>
      </trkpt>
      <trkpt lat="17.148034010" lon="-96.427114190">
        <ele>3056.000</ele>
        <time>2017-01-13T21:21:42Z</time>
        <name>WPT.204</name>
      </trkpt>
      <trkpt lat="17.148063600" lon="-96.427146330">
        <ele>3056.000</ele>
        <time>2017-01-13T21:21:43Z</time>
        <name>WPT.205</name>
      </trkpt>
      <trkpt lat="17.148081790" lon="-96.427186470">
        <ele>3057.000</ele>
        <time>2017-01-13T21:21:44Z</time>
        <name>WPT.206</name>
      </trkpt>
      <trkpt lat="17.148106170" lon="-96.427241200">
        <ele>3058.000</ele>
        <time>2017-01-13T21:21:45Z</time>
        <name>WPT.207</name>
      </trkpt>
      <trkpt lat="17.148122070" lon="-96.427313230">
        <ele>3058.000</ele>
        <time>2017-01-13T21:21:46Z</time>
        <name>WPT.208</name>
      </trkpt>
      <trkpt lat="17.148135210" lon="-96.427384990">
        <ele>3056.000</ele>
        <time>2017-01-13T21:21:47Z</time>
        <name>WPT.209</name>
      </trkpt>
      <trkpt lat="17.148157790" lon="-96.427456010">
        <ele>3056.000</ele>
        <time>2017-01-13T21:21:48Z</time>
        <name>WPT.210</name>
      </trkpt>
      <trkpt lat="17.148194100" lon="-96.427569050">
        <ele>3058.000</ele>
        <time>2017-01-13T21:21:49Z</time>
        <name>WPT.211</name>
      </trkpt>
      <trkpt lat="17.148226580" lon="-96.427643620">
        <ele>3058.000</ele>
        <time>2017-01-13T21:21:50Z</time>
        <name>WPT.212</name>
      </trkpt>
      <trkpt lat="17.148230970" lon="-96.427729160">
        <ele>3057.000</ele>
        <time>2017-01-13T21:21:51Z</time>
        <name>WPT.213</name>
      </trkpt>
      <trkpt lat="17.148254730" lon="-96.427843980">
        <ele>3055.000</ele>
        <time>2017-01-13T21:21:52Z</time>
        <name>WPT.214</name>
      </trkpt>
      <trkpt lat="17.148255480" lon="-96.427936860">
        <ele>3056.000</ele>
        <time>2017-01-13T21:21:53Z</time>
        <name>WPT.215</name>
      </trkpt>
      <trkpt lat="17.148291200" lon="-96.428042090">
        <ele>3055.000</ele>
        <time>2017-01-13T21:21:54Z</time>
        <name>WPT.216</name>
      </trkpt>
      <trkpt lat="17.148312710" lon="-96.428160100">
        <ele>3055.000</ele>
        <time>2017-01-13T21:21:55Z</time>
        <name>WPT.217</name>
      </trkpt>
      <trkpt lat="17.148330010" lon="-96.428316340">
        <ele>3054.000</ele>
        <time>2017-01-13T21:21:56Z</time>
        <name>WPT.218</name>
      </trkpt>
      <trkpt lat="17.148365950" lon="-96.428431460">
        <ele>3055.000</ele>
        <time>2017-01-13T21:21:57Z</time>
        <name>WPT.219</name>
      </trkpt>
      <trkpt lat="17.148434710" lon="-96.428518670">
        <ele>3055.000</ele>
        <time>2017-01-13T21:21:58Z</time>
        <name>WPT.220</name>
      </trkpt>
      <trkpt lat="17.148494940" lon="-96.428595050">
        <ele>3053.000</ele>
        <time>2017-01-13T21:21:59Z</time>
        <name>WPT.221</name>
      </trkpt>
      <trkpt lat="17.148560440" lon="-96.428693680">
        <ele>3052.000</ele>
        <time>2017-01-13T21:22:00Z</time>
        <name>WPT.222</name>
      </trkpt>
      <trkpt lat="17.148629970" lon="-96.428771750">
        <ele>3054.000</ele>
        <time>2017-01-13T21:22:01Z</time>
        <name>WPT.223</name>
      </trkpt>
      <trkpt lat="17.148683220" lon="-96.428871620">
        <ele>3053.000</ele>
        <time>2017-01-13T21:22:02Z</time>
        <name>WPT.224</name>
      </trkpt>
      <trkpt lat="17.148758060" lon="-96.428961660">
        <ele>3053.000</ele>
        <time>2017-01-13T21:22:03Z</time>
        <name>WPT.225</name>
      </trkpt>
      <trkpt lat="17.148827230" lon="-96.429038180">
        <ele>3054.000</ele>
        <time>2017-01-13T21:22:04Z</time>
        <name>WPT.226</name>
      </trkpt>
      <trkpt lat="17.148885090" lon="-96.429084990">
        <ele>3054.000</ele>
        <time>2017-01-13T21:22:05Z</time>
        <name>WPT.227</name>
      </trkpt>
      <trkpt lat="17.148960580" lon="-96.429140380">
        <ele>3055.000</ele>
        <time>2017-01-13T21:22:06Z</time>
        <name>WPT.228</name>
      </trkpt>
      <trkpt lat="17.149062470" lon="-96.429193620">
        <ele>3057.000</ele>
        <time>2017-01-13T21:22:07Z</time>
        <name>WPT.229</name>
      </trkpt>
      <trkpt lat="17.149161910" lon="-96.429246310">
        <ele>3057.000</ele>
        <time>2017-01-13T21:22:08Z</time>
        <name>WPT.230</name>
      </trkpt>
      <trkpt lat="17.149258960" lon="-96.429243240">
        <ele>3056.000</ele>
        <time>2017-01-13T21:22:09Z</time>
        <name>WPT.231</name>
      </trkpt>
      <trkpt lat="17.149355070" lon="-96.429276070">
        <ele>3054.000</ele>
        <time>2017-01-13T21:22:10Z</time>
        <name>WPT.232</name>
      </trkpt>
      <trkpt lat="17.149450280" lon="-96.429282260">
        <ele>3054.000</ele>
        <time>2017-01-13T21:22:11Z</time>
        <name>WPT.233</name>
      </trkpt>
      <trkpt lat="17.149548060" lon="-96.429309840">
        <ele>3054.000</ele>
        <time>2017-01-13T21:22:12Z</time>
        <name>WPT.234</name>
      </trkpt>
      <trkpt lat="17.149654810" lon="-96.429377170">
        <ele>3055.000</ele>
        <time>2017-01-13T21:22:13Z</time>
        <name>WPT.235</name>
      </trkpt>
      <trkpt lat="17.149617380" lon="-96.429424810">
        <ele>3055.000</ele>
        <time>2017-01-13T21:22:14Z</time>
        <name>WPT.236</name>
      </trkpt>
      <trkpt lat="17.149624850" lon="-96.429498410">
        <ele>3054.000</ele>
        <time>2017-01-13T21:22:15Z</time>
        <name>WPT.237</name>
      </trkpt>
      <trkpt lat="17.149661140" lon="-96.429548480">
        <ele>3053.000</ele>
        <time>2017-01-13T21:22:16Z</time>
        <name>WPT.238</name>
      </trkpt>
      <trkpt lat="17.149681360" lon="-96.429634450">
        <ele>3054.000</ele>
        <time>2017-01-13T21:22:17Z</time>
        <name>WPT.239</name>
      </trkpt>
      <trkpt lat="17.149732430" lon="-96.429705930">
        <ele>3053.000</ele>
        <time>2017-01-13T21:22:18Z</time>
        <name>WPT.240</name>
      </trkpt>
      <trkpt lat="17.149784790" lon="-96.429785060">
        <ele>3053.000</ele>
        <time>2017-01-13T21:22:19Z</time>
        <name>WPT.241</name>
      </trkpt>
      <trkpt lat="17.149865590" lon="-96.429857990">
        <ele>3053.000</ele>
        <time>2017-01-13T21:22:20Z</time>
        <name>WPT.242</name>
      </trkpt>
      <trkpt lat="17.149945270" lon="-96.429910550">
        <ele>3053.000</ele>
        <time>2017-01-13T21:22:21Z</time>
        <name>WPT.243</name>
      </trkpt>
      <trkpt lat="17.150038240" lon="-96.429947280">
        <ele>3054.000</ele>
        <time>2017-01-13T21:22:22Z</time>
        <name>WPT.244</name>
      </trkpt>
      <trkpt lat="17.150105560" lon="-96.429993920">
        <ele>3054.000</ele>
        <time>2017-01-13T21:22:23Z</time>
        <name>WPT.245</name>
      </trkpt>
      <trkpt lat="17.150170800" lon="-96.430056440">
        <ele>3051.000</ele>
        <time>2017-01-13T21:22:24Z</time>
        <name>WPT.246</name>
      </trkpt>
      <trkpt lat="17.150214980" lon="-96.430068440">
        <ele>3051.000</ele>
        <time>2017-01-13T21:22:25Z</time>
        <name>WPT.247</name>
      </trkpt>
      <trkpt lat="17.150259910" lon="-96.430174820">
        <ele>3052.000</ele>
        <time>2017-01-13T21:22:26Z</time>
        <name>WPT.248</name>
      </trkpt>
      <trkpt lat="17.150333270" lon="-96.430245940">
        <ele>3052.000</ele>
        <time>2017-01-13T21:22:27Z</time>
        <name>WPT.249</name>
      </trkpt>
      <trkpt lat="17.150366210" lon="-96.430304790">
        <ele>3051.000</ele>
        <time>2017-01-13T21:22:28Z</time>
        <name>WPT.250</name>
      </trkpt>
      <trkpt lat="17.150403850" lon="-96.430418700">
        <ele>3051.000</ele>
        <time>2017-01-13T21:22:29Z</time>
        <name>WPT.251</name>
      </trkpt>
      <trkpt lat="17.150423220" lon="-96.430479310">
        <ele>3049.000</ele>
        <time>2017-01-13T21:22:30Z</time>
        <name>WPT.252</name>
      </trkpt>
      <trkpt lat="17.150421390" lon="-96.430575170">
        <ele>3047.000</ele>
        <time>2017-01-13T21:22:31Z</time>
        <name>WPT.253</name>
      </trkpt>
      <trkpt lat="17.150505670" lon="-96.430677120">
        <ele>3047.000</ele>
        <time>2017-01-13T21:22:32Z</time>
        <name>WPT.254</name>
      </trkpt>
      <trkpt lat="17.150523030" lon="-96.430777070">
        <ele>3047.000</ele>
        <time>2017-01-13T21:22:33Z</time>
        <name>WPT.255</name>
      </trkpt>
      <trkpt lat="17.150558680" lon="-96.430903350">
        <ele>3045.000</ele>
        <time>2017-01-13T21:22:34Z</time>
        <name>WPT.256</name>
      </trkpt>
      <trkpt lat="17.150615370" lon="-96.430980760">
        <ele>3044.000</ele>
        <time>2017-01-13T21:22:35Z</time>
        <name>WPT.257</name>
      </trkpt>
      <trkpt lat="17.150578180" lon="-96.431099400">
        <ele>3043.000</ele>
        <time>2017-01-13T21:22:36Z</time>
        <name>WPT.258</name>
      </trkpt>
      <trkpt lat="17.150597780" lon="-96.431165360">
        <ele>3041.000</ele>
        <time>2017-01-13T21:22:37Z</time>
        <name>WPT.259</name>
      </trkpt>
      <trkpt lat="17.150583030" lon="-96.431243100">
        <ele>3041.000</ele>
        <time>2017-01-13T21:22:38Z</time>
        <name>WPT.260</name>
      </trkpt>
      <trkpt lat="17.150584490" lon="-96.431293200">
        <ele>3039.000</ele>
        <time>2017-01-13T21:22:39Z</time>
        <name>WPT.261</name>
      </trkpt>
      <trkpt lat="17.150557070" lon="-96.431343570">
        <ele>3040.000</ele>
        <time>2017-01-13T21:22:40Z</time>
        <name>WPT.262</name>
      </trkpt>
      <trkpt lat="17.150546750" lon="-96.431395240">
        <ele>3040.000</ele>
        <time>2017-01-13T21:22:41Z</time>
        <name>WPT.263</name>
      </trkpt>
      <trkpt lat="17.150516730" lon="-96.431469130">
        <ele>3040.000</ele>
        <time>2017-01-13T21:22:42Z</time>
        <name>WPT.264</name>
      </trkpt>
      <trkpt lat="17.150484620" lon="-96.431532900">
        <ele>3041.000</ele>
        <time>2017-01-13T21:22:43Z</time>
        <name>WPT.265</name>
      </trkpt>
      <trkpt lat="17.150462670" lon="-96.431572430">
        <ele>3044.000</ele>
        <time>2017-01-13T21:22:44Z</time>
        <name>WPT.266</name>
      </trkpt>
      <trkpt lat="17.150385550" lon="-96.431588940">
        <ele>3044.000</ele>
        <time>2017-01-13T21:22:45Z</time>
        <name>WPT.267</name>
      </trkpt>
      <trkpt lat="17.150318650" lon="-96.431590810">
        <ele>3044.000</ele>
        <time>2017-01-13T21:22:46Z</time>
        <name>WPT.268</name>
      </trkpt>
      <trkpt lat="17.150270940" lon="-96.431615210">
        <ele>3044.000</ele>
        <time>2017-01-13T21:22:47Z</time>
        <name>WPT.269</name>
      </trkpt>
      <trkpt lat="17.150206930" lon="-96.431629850">
        <ele>3045.000</ele>
        <time>2017-01-13T21:22:48Z</time>
        <name>WPT.270</name>
      </trkpt>
      <trkpt lat="17.150139990" lon="-96.431613050">
        <ele>3046.000</ele>
        <time>2017-01-13T21:22:49Z</time>
        <name>WPT.271</name>
      </trkpt>
      <trkpt lat="17.150061910" lon="-96.431609530">
        <ele>3047.000</ele>
        <time>2017-01-13T21:22:50Z</time>
        <name>WPT.272</name>
      </trkpt>
      <trkpt lat="17.149980320" lon="-96.431633200">
        <ele>3047.000</ele>
        <time>2017-01-13T21:22:51Z</time>
        <name>WPT.273</name>
      </trkpt>
      <trkpt lat="17.149903690" lon="-96.431648660">
        <ele>3048.000</ele>
        <time>2017-01-13T21:22:52Z</time>
        <name>WPT.274</name>
      </trkpt>
      <trkpt lat="17.149823420" lon="-96.431603450">
        <ele>3049.000</ele>
        <time>2017-01-13T21:22:53Z</time>
        <name>WPT.275</name>
      </trkpt>
      <trkpt lat="17.149755630" lon="-96.431560790">
        <ele>3050.000</ele>
        <time>2017-01-13T21:22:54Z</time>
        <name>WPT.276</name>
      </trkpt>
      <trkpt lat="17.149694210" lon="-96.431550580">
        <ele>3051.000</ele>
        <time>2017-01-13T21:22:55Z</time>
        <name>WPT.277</name>
      </trkpt>
      <trkpt lat="17.149649670" lon="-96.431536920">
        <ele>3052.000</ele>
        <time>2017-01-13T21:22:56Z</time>
        <name>WPT.278</name>
      </trkpt>
      <trkpt lat="17.149592030" lon="-96.431518270">
        <ele>3053.000</ele>
        <time>2017-01-13T21:22:57Z</time>
        <name>WPT.279</name>
      </trkpt>
      <trkpt lat="17.149601980" lon="-96.431587170">
        <ele>3052.000</ele>
        <time>2017-01-13T21:22:58Z</time>
        <name>WPT.280</name>
      </trkpt>
      <trkpt lat="17.149531070" lon="-96.431611360">
        <ele>3050.000</ele>
        <time>2017-01-13T21:23:00Z</time>
        <name>WPT.281</name>
      </trkpt>
      <trkpt lat="17.149481310" lon="-96.431631880">
        <ele>3048.000</ele>
        <time>2017-01-13T21:23:01Z</time>
        <name>WPT.282</name>
      </trkpt>
      <trkpt lat="17.149433490" lon="-96.431693430">
        <ele>3049.000</ele>
        <time>2017-01-13T21:23:02Z</time>
        <name>WPT.283</name>
      </trkpt>
      <trkpt lat="17.149367960" lon="-96.431703100">
        <ele>3050.000</ele>
        <time>2017-01-13T21:23:03Z</time>
        <name>WPT.284</name>
      </trkpt>
      <trkpt lat="17.149323860" lon="-96.431732070">
        <ele>3050.000</ele>
        <time>2017-01-13T21:23:04Z</time>
        <name>WPT.285</name>
      </trkpt>
      <trkpt lat="17.149275060" lon="-96.431761760">
        <ele>3049.000</ele>
        <time>2017-01-13T21:23:05Z</time>
        <name>WPT.286</name>
      </trkpt>
      <trkpt lat="17.149224390" lon="-96.431830740">
        <ele>3048.000</ele>
        <time>2017-01-13T21:23:06Z</time>
        <name>WPT.287</name>
      </trkpt>
      <trkpt lat="17.149265040" lon="-96.431954060">
        <ele>3049.000</ele>
        <time>2017-01-13T21:23:07Z</time>
        <name>WPT.288</name>
      </trkpt>
      <trkpt lat="17.149316790" lon="-96.432076220">
        <ele>3050.000</ele>
        <time>2017-01-13T21:23:08Z</time>
        <name>WPT.289</name>
      </trkpt>
      <trkpt lat="17.149359680" lon="-96.432180240">
        <ele>3050.000</ele>
        <time>2017-01-13T21:23:09Z</time>
        <name>WPT.290</name>
      </trkpt>
      <trkpt lat="17.149390630" lon="-96.432244650">
        <ele>3049.000</ele>
        <time>2017-01-13T21:23:10Z</time>
        <name>WPT.291</name>
      </trkpt>
      <trkpt lat="17.149417990" lon="-96.432335830">
        <ele>3049.000</ele>
        <time>2017-01-13T21:23:11Z</time>
        <name>WPT.292</name>
      </trkpt>
      <trkpt lat="17.149439430" lon="-96.432412290">
        <ele>3050.000</ele>
        <time>2017-01-13T21:23:12Z</time>
        <name>WPT.293</name>
      </trkpt>
      <trkpt lat="17.149476160" lon="-96.432504690">
        <ele>3050.000</ele>
        <time>2017-01-13T21:23:13Z</time>
        <name>WPT.294</name>
      </trkpt>
      <trkpt lat="17.149539890" lon="-96.432577110">
        <ele>3049.000</ele>
        <time>2017-01-13T21:23:14Z</time>
        <name>WPT.295</name>
      </trkpt>
      <trkpt lat="17.149585580" lon="-96.432624010">
        <ele>3049.000</ele>
        <time>2017-01-13T21:23:15Z</time>
        <name>WPT.296</name>
      </trkpt>
      <trkpt lat="17.149612760" lon="-96.432670190">
        <ele>3049.000</ele>
        <time>2017-01-13T21:23:16Z</time>
        <name>WPT.297</name>
      </trkpt>
      <trkpt lat="17.149638390" lon="-96.432698680">
        <ele>3049.000</ele>
        <time>2017-01-13T21:23:17Z</time>
        <name>WPT.298</name>
      </trkpt>
      <trkpt lat="17.149694010" lon="-96.432773200">
        <ele>3048.000</ele>
        <time>2017-01-13T21:23:19Z</time>
        <name>WPT.299</name>
      </trkpt>
      <trkpt lat="17.149725710" lon="-96.432817130">
        <ele>3049.000</ele>
        <time>2017-01-13T21:23:20Z</time>
        <name>WPT.300</name>
      </trkpt>
      <trkpt lat="17.149740740" lon="-96.432854020">
        <ele>3049.000</ele>
        <time>2017-01-13T21:23:21Z</time>
        <name>WPT.301</name>
      </trkpt>
      <trkpt lat="17.149768470" lon="-96.432890560">
        <ele>3050.000</ele>
        <time>2017-01-13T21:23:22Z</time>
        <name>WPT.302</name>
      </trkpt>
      <trkpt lat="17.149802440" lon="-96.432947380">
        <ele>3049.000</ele>
        <time>2017-01-13T21:23:24Z</time>
        <name>WPT.303</name>
      </trkpt>
      <trkpt lat="17.149813020" lon="-96.432993420">
        <ele>3050.000</ele>
        <time>2017-01-13T21:23:25Z</time>
        <name>WPT.304</name>
      </trkpt>
      <trkpt lat="17.149840190" lon="-96.433042410">
        <ele>3051.000</ele>
        <time>2017-01-13T21:23:26Z</time>
        <name>WPT.305</name>
      </trkpt>
      <trkpt lat="17.149860260" lon="-96.433123350">
        <ele>3051.000</ele>
        <time>2017-01-13T21:23:28Z</time>
        <name>WPT.306</name>
      </trkpt>
      <trkpt lat="17.149859370" lon="-96.433212080">
        <ele>3053.000</ele>
        <time>2017-01-13T21:23:30Z</time>
        <name>WPT.307</name>
      </trkpt>
      <trkpt lat="17.149857580" lon="-96.433281350">
        <ele>3054.000</ele>
        <time>2017-01-13T21:23:31Z</time>
        <name>WPT.308</name>
      </trkpt>
      <trkpt lat="17.149833440" lon="-96.433355390">
        <ele>3054.000</ele>
        <time>2017-01-13T21:23:32Z</time>
        <name>WPT.309</name>
      </trkpt>
      <trkpt lat="17.149777460" lon="-96.433437980">
        <ele>3051.000</ele>
        <time>2017-01-13T21:23:33Z</time>
        <name>WPT.310</name>
      </trkpt>
      <trkpt lat="17.149738200" lon="-96.433503920">
        <ele>3052.000</ele>
        <time>2017-01-13T21:23:34Z</time>
        <name>WPT.311</name>
      </trkpt>
      <trkpt lat="17.149697120" lon="-96.433596940">
        <ele>3050.000</ele>
        <time>2017-01-13T21:23:35Z</time>
        <name>WPT.312</name>
      </trkpt>
      <trkpt lat="17.149634750" lon="-96.433675330">
        <ele>3050.000</ele>
        <time>2017-01-13T21:23:36Z</time>
        <name>WPT.313</name>
      </trkpt>
      <trkpt lat="17.149593700" lon="-96.433793680">
        <ele>3051.000</ele>
        <time>2017-01-13T21:23:37Z</time>
        <name>WPT.314</name>
      </trkpt>
      <trkpt lat="17.149565410" lon="-96.433873250">
        <ele>3053.000</ele>
        <time>2017-01-13T21:23:38Z</time>
        <name>WPT.315</name>
      </trkpt>
      <trkpt lat="17.149568170" lon="-96.433935510">
        <ele>3052.000</ele>
        <time>2017-01-13T21:23:39Z</time>
        <name>WPT.316</name>
      </trkpt>
      <trkpt lat="17.149595100" lon="-96.434051330">
        <ele>3053.000</ele>
        <time>2017-01-13T21:23:40Z</time>
        <name>WPT.317</name>
      </trkpt>
      <trkpt lat="17.149591270" lon="-96.434133310">
        <ele>3055.000</ele>
        <time>2017-01-13T21:23:41Z</time>
        <name>WPT.318</name>
      </trkpt>
      <trkpt lat="17.149608580" lon="-96.434244490">
        <ele>3054.000</ele>
        <time>2017-01-13T21:23:42Z</time>
        <name>WPT.319</name>
      </trkpt>
      <trkpt lat="17.149623720" lon="-96.434336560">
        <ele>3053.000</ele>
        <time>2017-01-13T21:23:43Z</time>
        <name>WPT.320</name>
      </trkpt>
      <trkpt lat="17.149610050" lon="-96.434378730">
        <ele>3054.000</ele>
        <time>2017-01-13T21:23:44Z</time>
        <name>WPT.321</name>
      </trkpt>
      <trkpt lat="17.149631280" lon="-96.434458740">
        <ele>3054.000</ele>
        <time>2017-01-13T21:23:45Z</time>
        <name>WPT.322</name>
      </trkpt>
      <trkpt lat="17.149636060" lon="-96.434514490">
        <ele>3054.000</ele>
        <time>2017-01-13T21:23:46Z</time>
        <name>WPT.323</name>
      </trkpt>
      <trkpt lat="17.149651060" lon="-96.434588750">
        <ele>3056.000</ele>
        <time>2017-01-13T21:23:48Z</time>
        <name>WPT.324</name>
      </trkpt>
      <trkpt lat="17.149649550" lon="-96.434666360">
        <ele>3055.000</ele>
        <time>2017-01-13T21:23:52Z</time>
        <name>WPT.325</name>
      </trkpt>
      <trkpt lat="17.149634310" lon="-96.434701360">
        <ele>3055.000</ele>
        <time>2017-01-13T21:23:54Z</time>
        <name>WPT.326</name>
      </trkpt>
      <trkpt lat="17.149657510" lon="-96.434735680">
        <ele>3055.000</ele>
        <time>2017-01-13T21:23:56Z</time>
        <name>WPT.327</name>
      </trkpt>
      <trkpt lat="17.149667920" lon="-96.434789250">
        <ele>3054.000</ele>
        <time>2017-01-13T21:23:58Z</time>
        <name>WPT.328</name>
      </trkpt>
      <trkpt lat="17.149711970" lon="-96.434813630">
        <ele>3053.000</ele>
        <time>2017-01-13T21:23:59Z</time>
        <name>WPT.329</name>
      </trkpt>
      <trkpt lat="17.149733370" lon="-96.434878180">
        <ele>3053.000</ele>
        <time>2017-01-13T21:24:01Z</time>
        <name>WPT.330</name>
      </trkpt>
      <trkpt lat="17.149771240" lon="-96.434944290">
        <ele>3054.000</ele>
        <time>2017-01-13T21:24:03Z</time>
        <name>WPT.331</name>
      </trkpt>
      <trkpt lat="17.149764910" lon="-96.435005650">
        <ele>3055.000</ele>
        <time>2017-01-13T21:24:04Z</time>
        <name>WPT.332</name>
      </trkpt>
      <trkpt lat="17.149825880" lon="-96.435007440">
        <ele>3053.000</ele>
        <time>2017-01-13T21:24:05Z</time>
        <name>WPT.333</name>
      </trkpt>
      <trkpt lat="17.149822610" lon="-96.435071630">
        <ele>3053.000</ele>
        <time>2017-01-13T21:24:06Z</time>
        <name>WPT.334</name>
      </trkpt>
      <trkpt lat="17.149805090" lon="-96.435132770">
        <ele>3051.000</ele>
        <time>2017-01-13T21:24:07Z</time>
        <name>WPT.335</name>
      </trkpt>
      <trkpt lat="17.149780200" lon="-96.435186360">
        <ele>3054.000</ele>
        <time>2017-01-13T21:24:08Z</time>
        <name>WPT.336</name>
      </trkpt>
      <trkpt lat="17.149736480" lon="-96.435254000">
        <ele>3054.000</ele>
        <time>2017-01-13T21:24:09Z</time>
        <name>WPT.337</name>
      </trkpt>
      <trkpt lat="17.149674000" lon="-96.435248850">
        <ele>3053.000</ele>
        <time>2017-01-13T21:24:10Z</time>
        <name>WPT.338</name>
      </trkpt>
      <trkpt lat="17.149626660" lon="-96.435273730">
        <ele>3055.000</ele>
        <time>2017-01-13T21:24:11Z</time>
        <name>WPT.339</name>
      </trkpt>
      <trkpt lat="17.149570870" lon="-96.435321860">
        <ele>3054.000</ele>
        <time>2017-01-13T21:24:13Z</time>
        <name>WPT.340</name>
      </trkpt>
      <trkpt lat="17.149524960" lon="-96.435319320">
        <ele>3054.000</ele>
        <time>2017-01-13T21:24:14Z</time>
        <name>WPT.341</name>
      </trkpt>
      <trkpt lat="17.149465490" lon="-96.435319660">
        <ele>3054.000</ele>
        <time>2017-01-13T21:24:15Z</time>
        <name>WPT.342</name>
      </trkpt>
      <trkpt lat="17.149414060" lon="-96.435330130">
        <ele>3054.000</ele>
        <time>2017-01-13T21:24:16Z</time>
        <name>WPT.343</name>
      </trkpt>
      <trkpt lat="17.149363520" lon="-96.435321660">
        <ele>3055.000</ele>
        <time>2017-01-13T21:24:17Z</time>
        <name>WPT.344</name>
      </trkpt>
      <trkpt lat="17.149299790" lon="-96.435335590">
        <ele>3054.000</ele>
        <time>2017-01-13T21:24:18Z</time>
        <name>WPT.345</name>
      </trkpt>
      <trkpt lat="17.149252100" lon="-96.435360130">
        <ele>3055.000</ele>
        <time>2017-01-13T21:24:19Z</time>
        <name>WPT.346</name>
      </trkpt>
      <trkpt lat="17.149198760" lon="-96.435406720">
        <ele>3052.000</ele>
        <time>2017-01-13T21:24:20Z</time>
        <name>WPT.347</name>
      </trkpt>
      <trkpt lat="17.149136010" lon="-96.435427280">
        <ele>3055.000</ele>
        <time>2017-01-13T21:24:21Z</time>
        <name>WPT.348</name>
      </trkpt>
      <trkpt lat="17.149098900" lon="-96.435453430">
        <ele>3055.000</ele>
        <time>2017-01-13T21:24:22Z</time>
        <name>WPT.349</name>
      </trkpt>
      <trkpt lat="17.149018550" lon="-96.435472850">
        <ele>3058.000</ele>
        <time>2017-01-13T21:24:24Z</time>
        <name>WPT.350</name>
      </trkpt>
      <trkpt lat="17.148951170" lon="-96.435502340">
        <ele>3059.000</ele>
        <time>2017-01-13T21:24:25Z</time>
        <name>WPT.351</name>
      </trkpt>
      <trkpt lat="17.148905350" lon="-96.435523570">
        <ele>3059.000</ele>
        <time>2017-01-13T21:24:26Z</time>
        <name>WPT.352</name>
      </trkpt>
      <trkpt lat="17.148872630" lon="-96.435599440">
        <ele>3058.000</ele>
        <time>2017-01-13T21:24:27Z</time>
        <name>WPT.353</name>
      </trkpt>
      <trkpt lat="17.148764050" lon="-96.435681140">
        <ele>3057.000</ele>
        <time>2017-01-13T21:24:29Z</time>
        <name>WPT.354</name>
      </trkpt>
      <trkpt lat="17.148710350" lon="-96.435708100">
        <ele>3057.000</ele>
        <time>2017-01-13T21:24:30Z</time>
        <name>WPT.355</name>
      </trkpt>
      <trkpt lat="17.148656280" lon="-96.435759500">
        <ele>3056.000</ele>
        <time>2017-01-13T21:24:31Z</time>
        <name>WPT.356</name>
      </trkpt>
      <trkpt lat="17.148601610" lon="-96.435805170">
        <ele>3056.000</ele>
        <time>2017-01-13T21:24:32Z</time>
        <name>WPT.357</name>
      </trkpt>
      <trkpt lat="17.148520790" lon="-96.435863050">
        <ele>3055.000</ele>
        <time>2017-01-13T21:24:33Z</time>
        <name>WPT.358</name>
      </trkpt>
      <trkpt lat="17.148442450" lon="-96.435931810">
        <ele>3054.000</ele>
        <time>2017-01-13T21:24:34Z</time>
        <name>WPT.359</name>
      </trkpt>
      <trkpt lat="17.148408030" lon="-96.435991790">
        <ele>3057.000</ele>
        <time>2017-01-13T21:24:36Z</time>
        <name>WPT.360</name>
      </trkpt>
      <trkpt lat="17.148356500" lon="-96.436035170">
        <ele>3056.000</ele>
        <time>2017-01-13T21:24:37Z</time>
        <name>WPT.361</name>
      </trkpt>
      <trkpt lat="17.148297900" lon="-96.436009460">
        <ele>3057.000</ele>
        <time>2017-01-13T21:24:38Z</time>
        <name>WPT.362</name>
      </trkpt>
      <trkpt lat="17.148225550" lon="-96.436050760">
        <ele>3056.000</ele>
        <time>2017-01-13T21:24:39Z</time>
        <name>WPT.363</name>
      </trkpt>
      <trkpt lat="17.148136570" lon="-96.436179630">
        <ele>3057.000</ele>
        <time>2017-01-13T21:24:41Z</time>
        <name>WPT.364</name>
      </trkpt>
      <trkpt lat="17.148096140" lon="-96.436370350">
        <ele>3057.000</ele>
        <time>2017-01-13T21:24:42Z</time>
        <name>WPT.365</name>
      </trkpt>
      <trkpt lat="17.148044430" lon="-96.436432130">
        <ele>3057.000</ele>
        <time>2017-01-13T21:24:43Z</time>
        <name>WPT.366</name>
      </trkpt>
      <trkpt lat="17.147988590" lon="-96.436468470">
        <ele>3058.000</ele>
        <time>2017-01-13T21:24:44Z</time>
        <name>WPT.367</name>
      </trkpt>
      <trkpt lat="17.147995770" lon="-96.436413260">
        <ele>3058.000</ele>
        <time>2017-01-13T21:24:45Z</time>
        <name>WPT.368</name>
      </trkpt>
      <trkpt lat="17.148045640" lon="-96.436565600">
        <ele>3059.000</ele>
        <time>2017-01-13T21:24:46Z</time>
        <name>WPT.369</name>
      </trkpt>
      <trkpt lat="17.147997800" lon="-96.436517900">
        <ele>3059.000</ele>
        <time>2017-01-13T21:24:48Z</time>
        <name>WPT.370</name>
      </trkpt>
      <trkpt lat="17.147956770" lon="-96.436465590">
        <ele>3058.000</ele>
        <time>2017-01-13T21:24:49Z</time>
        <name>WPT.371</name>
      </trkpt>
      <trkpt lat="17.147921890" lon="-96.436455290">
        <ele>3059.000</ele>
        <time>2017-01-13T21:24:50Z</time>
        <name>WPT.372</name>
      </trkpt>
      <trkpt lat="17.147871140" lon="-96.436454360">
        <ele>3058.000</ele>
        <time>2017-01-13T21:24:51Z</time>
        <name>WPT.373</name>
      </trkpt>
      <trkpt lat="17.147854010" lon="-96.436420360">
        <ele>3058.000</ele>
        <time>2017-01-13T21:24:52Z</time>
        <name>WPT.374</name>
      </trkpt>
      <trkpt lat="17.147833780" lon="-96.436380270">
        <ele>3060.000</ele>
        <time>2017-01-13T21:24:53Z</time>
        <name>WPT.375</name>
      </trkpt>
      <trkpt lat="17.147814880" lon="-96.436323490">
        <ele>3059.000</ele>
        <time>2017-01-13T21:24:54Z</time>
        <name>WPT.376</name>
      </trkpt>
      <trkpt lat="17.147794960" lon="-96.436258610">
        <ele>3059.000</ele>
        <time>2017-01-13T21:24:55Z</time>
        <name>WPT.377</name>
      </trkpt>
      <trkpt lat="17.147778700" lon="-96.436189280">
        <ele>3059.000</ele>
        <time>2017-01-13T21:24:56Z</time>
        <name>WPT.378</name>
      </trkpt>
      <trkpt lat="17.147761900" lon="-96.436115270">
        <ele>3060.000</ele>
        <time>2017-01-13T21:24:57Z</time>
        <name>WPT.379</name>
      </trkpt>
      <trkpt lat="17.147733510" lon="-96.436033790">
        <ele>3060.000</ele>
        <time>2017-01-13T21:24:59Z</time>
        <name>WPT.380</name>
      </trkpt>
      <trkpt lat="17.147663540" lon="-96.435924790">
        <ele>3059.000</ele>
        <time>2017-01-13T21:25:00Z</time>
        <name>WPT.381</name>
      </trkpt>
      <trkpt lat="17.147635240" lon="-96.435860360">
        <ele>3057.000</ele>
        <time>2017-01-13T21:25:01Z</time>
        <name>WPT.382</name>
      </trkpt>
      <trkpt lat="17.147609920" lon="-96.435782890">
        <ele>3057.000</ele>
        <time>2017-01-13T21:25:02Z</time>
        <name>WPT.383</name>
      </trkpt>
      <trkpt lat="17.147576920" lon="-96.435720780">
        <ele>3054.000</ele>
        <time>2017-01-13T21:25:03Z</time>
        <name>WPT.384</name>
      </trkpt>
      <trkpt lat="17.147558070" lon="-96.435661840">
        <ele>3053.000</ele>
        <time>2017-01-13T21:25:04Z</time>
        <name>WPT.385</name>
      </trkpt>
      <trkpt lat="17.147530630" lon="-96.435591100">
        <ele>3054.000</ele>
        <time>2017-01-13T21:25:05Z</time>
        <name>WPT.386</name>
      </trkpt>
      <trkpt lat="17.147472250" lon="-96.435526060">
        <ele>3053.000</ele>
        <time>2017-01-13T21:25:06Z</time>
        <name>WPT.387</name>
      </trkpt>
      <trkpt lat="17.147391200" lon="-96.435436430">
        <ele>3052.000</ele>
        <time>2017-01-13T21:25:07Z</time>
        <name>WPT.388</name>
      </trkpt>
      <trkpt lat="17.147345140" lon="-96.435385170">
        <ele>3053.000</ele>
        <time>2017-01-13T21:25:08Z</time>
        <name>WPT.389</name>
      </trkpt>
      <trkpt lat="17.147274640" lon="-96.435366000">
        <ele>3052.000</ele>
        <time>2017-01-13T21:25:09Z</time>
        <name>WPT.390</name>
      </trkpt>
      <trkpt lat="17.147181340" lon="-96.435315210">
        <ele>3050.000</ele>
        <time>2017-01-13T21:25:10Z</time>
        <name>WPT.391</name>
      </trkpt>
      <trkpt lat="17.147139950" lon="-96.435247550">
        <ele>3050.000</ele>
        <time>2017-01-13T21:25:11Z</time>
        <name>WPT.392</name>
      </trkpt>
      <trkpt lat="17.147123000" lon="-96.435174410">
        <ele>3053.000</ele>
        <time>2017-01-13T21:25:12Z</time>
        <name>WPT.393</name>
      </trkpt>
      <trkpt lat="17.147086810" lon="-96.435106130">
        <ele>3053.000</ele>
        <time>2017-01-13T21:25:13Z</time>
        <name>WPT.394</name>
      </trkpt>
      <trkpt lat="17.147065320" lon="-96.435012740">
        <ele>3052.000</ele>
        <time>2017-01-13T21:25:14Z</time>
        <name>WPT.395</name>
      </trkpt>
      <trkpt lat="17.147017410" lon="-96.434930600">
        <ele>3049.000</ele>
        <time>2017-01-13T21:25:15Z</time>
        <name>WPT.396</name>
      </trkpt>
      <trkpt lat="17.147006570" lon="-96.434846220">
        <ele>3051.000</ele>
        <time>2017-01-13T21:25:16Z</time>
        <name>WPT.397</name>
      </trkpt>
      <trkpt lat="17.146979590" lon="-96.434777810">
        <ele>3050.000</ele>
        <time>2017-01-13T21:25:17Z</time>
        <name>WPT.398</name>
      </trkpt>
      <trkpt lat="17.146967890" lon="-96.434676110">
        <ele>3050.000</ele>
        <time>2017-01-13T21:25:18Z</time>
        <name>WPT.399</name>
      </trkpt>
      <trkpt lat="17.146926810" lon="-96.434592400">
        <ele>3050.000</ele>
        <time>2017-01-13T21:25:19Z</time>
        <name>WPT.400</name>
      </trkpt>
      <trkpt lat="17.146870710" lon="-96.434521190">
        <ele>3049.000</ele>
        <time>2017-01-13T21:25:20Z</time>
        <name>WPT.401</name>
      </trkpt>
      <trkpt lat="17.146780000" lon="-96.434449330">
        <ele>3050.000</ele>
        <time>2017-01-13T21:25:21Z</time>
        <name>WPT.402</name>
      </trkpt>
      <trkpt lat="17.146742080" lon="-96.434365100">
        <ele>3050.000</ele>
        <time>2017-01-13T21:25:22Z</time>
        <name>WPT.403</name>
      </trkpt>
      <trkpt lat="17.146661920" lon="-96.434282940">
        <ele>3053.000</ele>
        <time>2017-01-13T21:25:23Z</time>
        <name>WPT.404</name>
      </trkpt>
      <trkpt lat="17.146609650" lon="-96.434200650">
        <ele>3053.000</ele>
        <time>2017-01-13T21:25:24Z</time>
        <name>WPT.405</name>
      </trkpt>
      <trkpt lat="17.146524760" lon="-96.434112950">
        <ele>3053.000</ele>
        <time>2017-01-13T21:25:25Z</time>
        <name>WPT.406</name>
      </trkpt>
      <trkpt lat="17.146455680" lon="-96.434026260">
        <ele>3055.000</ele>
        <time>2017-01-13T21:25:26Z</time>
        <name>WPT.407</name>
      </trkpt>
      <trkpt lat="17.146364020" lon="-96.433935500">
        <ele>3054.000</ele>
        <time>2017-01-13T21:25:27Z</time>
        <name>WPT.408</name>
      </trkpt>
      <trkpt lat="17.146302420" lon="-96.433842470">
        <ele>3058.000</ele>
        <time>2017-01-13T21:25:28Z</time>
        <name>WPT.409</name>
      </trkpt>
      <trkpt lat="17.146214130" lon="-96.433771900">
        <ele>3057.000</ele>
        <time>2017-01-13T21:25:29Z</time>
        <name>WPT.410</name>
      </trkpt>
      <trkpt lat="17.146109100" lon="-96.433689210">
        <ele>3057.000</ele>
        <time>2017-01-13T21:25:30Z</time>
        <name>WPT.411</name>
      </trkpt>
      <trkpt lat="17.145999440" lon="-96.433614130">
        <ele>3059.000</ele>
        <time>2017-01-13T21:25:31Z</time>
        <name>WPT.412</name>
      </trkpt>
      <trkpt lat="17.145900270" lon="-96.433531190">
        <ele>3061.000</ele>
        <time>2017-01-13T21:25:32Z</time>
        <name>WPT.413</name>
      </trkpt>
      <trkpt lat="17.145781060" lon="-96.433484460">
        <ele>3061.000</ele>
        <time>2017-01-13T21:25:33Z</time>
        <name>WPT.414</name>
      </trkpt>
      <trkpt lat="17.145695810" lon="-96.433387950">
        <ele>3062.000</ele>
        <time>2017-01-13T21:25:34Z</time>
        <name>WPT.415</name>
      </trkpt>
      <trkpt lat="17.145611330" lon="-96.433305500">
        <ele>3063.000</ele>
        <time>2017-01-13T21:25:35Z</time>
        <name>WPT.416</name>
      </trkpt>
      <trkpt lat="17.145498060" lon="-96.433244070">
        <ele>3063.000</ele>
        <time>2017-01-13T21:25:36Z</time>
        <name>WPT.417</name>
      </trkpt>
      <trkpt lat="17.145378740" lon="-96.433118810">
        <ele>3064.000</ele>
        <time>2017-01-13T21:25:37Z</time>
        <name>WPT.418</name>
      </trkpt>
      <trkpt lat="17.145274730" lon="-96.433033420">
        <ele>3063.000</ele>
        <time>2017-01-13T21:25:38Z</time>
        <name>WPT.419</name>
      </trkpt>
      <trkpt lat="17.145178870" lon="-96.432967750">
        <ele>3063.000</ele>
        <time>2017-01-13T21:25:39Z</time>
        <name>WPT.420</name>
      </trkpt>
      <trkpt lat="17.145087050" lon="-96.432914280">
        <ele>3063.000</ele>
        <time>2017-01-13T21:25:40Z</time>
        <name>WPT.421</name>
      </trkpt>
      <trkpt lat="17.144994480" lon="-96.432854490">
        <ele>3063.000</ele>
        <time>2017-01-13T21:25:41Z</time>
        <name>WPT.422</name>
      </trkpt>
      <trkpt lat="17.144901880" lon="-96.432860570">
        <ele>3062.000</ele>
        <time>2017-01-13T21:25:42Z</time>
        <name>WPT.423</name>
      </trkpt>
      <trkpt lat="17.144823310" lon="-96.432843340">
        <ele>3063.000</ele>
        <time>2017-01-13T21:25:43Z</time>
        <name>WPT.424</name>
      </trkpt>
      <trkpt lat="17.144742730" lon="-96.432861500">
        <ele>3062.000</ele>
        <time>2017-01-13T21:25:44Z</time>
        <name>WPT.425</name>
      </trkpt>
      <trkpt lat="17.144646660" lon="-96.432909740">
        <ele>3063.000</ele>
        <time>2017-01-13T21:25:45Z</time>
        <name>WPT.426</name>
      </trkpt>
      <trkpt lat="17.144572740" lon="-96.432942570">
        <ele>3062.000</ele>
        <time>2017-01-13T21:25:46Z</time>
        <name>WPT.427</name>
      </trkpt>
      <trkpt lat="17.144567560" lon="-96.433120180">
        <ele>3061.000</ele>
        <time>2017-01-13T21:25:47Z</time>
        <name>WPT.428</name>
      </trkpt>
      <trkpt lat="17.144549780" lon="-96.433202500">
        <ele>3061.000</ele>
        <time>2017-01-13T21:25:48Z</time>
        <name>WPT.429</name>
      </trkpt>
      <trkpt lat="17.144516460" lon="-96.433260890">
        <ele>3061.000</ele>
        <time>2017-01-13T21:25:49Z</time>
        <name>WPT.430</name>
      </trkpt>
      <trkpt lat="17.144470260" lon="-96.433358400">
        <ele>3061.000</ele>
        <time>2017-01-13T21:25:50Z</time>
        <name>WPT.431</name>
      </trkpt>
      <trkpt lat="17.144424210" lon="-96.433430740">
        <ele>3063.000</ele>
        <time>2017-01-13T21:25:51Z</time>
        <name>WPT.432</name>
      </trkpt>
      <trkpt lat="17.144353230" lon="-96.433519590">
        <ele>3064.000</ele>
        <time>2017-01-13T21:25:52Z</time>
        <name>WPT.433</name>
      </trkpt>
      <trkpt lat="17.144296500" lon="-96.433611050">
        <ele>3066.000</ele>
        <time>2017-01-13T21:25:53Z</time>
        <name>WPT.434</name>
      </trkpt>
      <trkpt lat="17.144238170" lon="-96.433697960">
        <ele>3067.000</ele>
        <time>2017-01-13T21:25:54Z</time>
        <name>WPT.435</name>
      </trkpt>
      <trkpt lat="17.144197460" lon="-96.433742510">
        <ele>3067.000</ele>
        <time>2017-01-13T21:25:55Z</time>
        <name>WPT.436</name>
      </trkpt>
      <trkpt lat="17.144156860" lon="-96.433798560">
        <ele>3069.000</ele>
        <time>2017-01-13T21:25:56Z</time>
        <name>WPT.437</name>
      </trkpt>
      <trkpt lat="17.144127330" lon="-96.433848740">
        <ele>3069.000</ele>
        <time>2017-01-13T21:25:57Z</time>
        <name>WPT.438</name>
      </trkpt>
      <trkpt lat="17.144093330" lon="-96.433871950">
        <ele>3069.000</ele>
        <time>2017-01-13T21:25:58Z</time>
        <name>WPT.439</name>
      </trkpt>
      <trkpt lat="17.144066510" lon="-96.433903650">
        <ele>3069.000</ele>
        <time>2017-01-13T21:25:59Z</time>
        <name>WPT.440</name>
      </trkpt>
      <trkpt lat="17.144032260" lon="-96.433968230">
        <ele>3068.000</ele>
        <time>2017-01-13T21:26:00Z</time>
        <name>WPT.441</name>
      </trkpt>
      <trkpt lat="17.143989580" lon="-96.434002940">
        <ele>3068.000</ele>
        <time>2017-01-13T21:26:01Z</time>
        <name>WPT.442</name>
      </trkpt>
      <trkpt lat="17.143949800" lon="-96.434063340">
        <ele>3067.000</ele>
        <time>2017-01-13T21:26:02Z</time>
        <name>WPT.443</name>
      </trkpt>
      <trkpt lat="17.143916850" lon="-96.434150530">
        <ele>3067.000</ele>
        <time>2017-01-13T21:26:03Z</time>
        <name>WPT.444</name>
      </trkpt>
      <trkpt lat="17.143900050" lon="-96.434201520">
        <ele>3068.000</ele>
        <time>2017-01-13T21:26:04Z</time>
        <name>WPT.445</name>
      </trkpt>
      <trkpt lat="17.143891750" lon="-96.434287690">
        <ele>3068.000</ele>
        <time>2017-01-13T21:26:05Z</time>
        <name>WPT.446</name>
      </trkpt>
      <trkpt lat="17.143934430" lon="-96.434389990">
        <ele>3068.000</ele>
        <time>2017-01-13T21:26:06Z</time>
        <name>WPT.447</name>
      </trkpt>
      <trkpt lat="17.143986120" lon="-96.434560670">
        <ele>3065.000</ele>
        <time>2017-01-13T21:26:07Z</time>
        <name>WPT.448</name>
      </trkpt>
      <trkpt lat="17.144040460" lon="-96.434619770">
        <ele>3066.000</ele>
        <time>2017-01-13T21:26:08Z</time>
        <name>WPT.449</name>
      </trkpt>
      <trkpt lat="17.144150630" lon="-96.434672180">
        <ele>3068.000</ele>
        <time>2017-01-13T21:26:09Z</time>
        <name>WPT.450</name>
      </trkpt>
      <trkpt lat="17.144202290" lon="-96.434757570">
        <ele>3068.000</ele>
        <time>2017-01-13T21:26:10Z</time>
        <name>WPT.451</name>
      </trkpt>
      <trkpt lat="17.144278070" lon="-96.434845240">
        <ele>3068.000</ele>
        <time>2017-01-13T21:26:11Z</time>
        <name>WPT.452</name>
      </trkpt>
      <trkpt lat="17.144314350" lon="-96.434973110">
        <ele>3068.000</ele>
        <time>2017-01-13T21:26:12Z</time>
        <name>WPT.453</name>
      </trkpt>
      <trkpt lat="17.144390590" lon="-96.435067810">
        <ele>3070.000</ele>
        <time>2017-01-13T21:26:13Z</time>
        <name>WPT.454</name>
      </trkpt>
      <trkpt lat="17.144442990" lon="-96.435174150">
        <ele>3069.000</ele>
        <time>2017-01-13T21:26:14Z</time>
        <name>WPT.455</name>
      </trkpt>
      <trkpt lat="17.144484180" lon="-96.435289500">
        <ele>3069.000</ele>
        <time>2017-01-13T21:26:15Z</time>
        <name>WPT.456</name>
      </trkpt>
      <trkpt lat="17.144554200" lon="-96.435425760">
        <ele>3069.000</ele>
        <time>2017-01-13T21:26:16Z</time>
        <name>WPT.457</name>
      </trkpt>
      <trkpt lat="17.144520960" lon="-96.435598170">
        <ele>3071.000</ele>
        <time>2017-01-13T21:26:17Z</time>
        <name>WPT.458</name>
      </trkpt>
      <trkpt lat="17.144541730" lon="-96.435729990">
        <ele>3071.000</ele>
        <time>2017-01-13T21:26:18Z</time>
        <name>WPT.459</name>
      </trkpt>
      <trkpt lat="17.144561550" lon="-96.435831430">
        <ele>3070.000</ele>
        <time>2017-01-13T21:26:19Z</time>
        <name>WPT.460</name>
      </trkpt>
      <trkpt lat="17.144558370" lon="-96.435932410">
        <ele>3071.000</ele>
        <time>2017-01-13T21:26:20Z</time>
        <name>WPT.461</name>
      </trkpt>
      <trkpt lat="17.144575900" lon="-96.436055740">
        <ele>3071.000</ele>
        <time>2017-01-13T21:26:21Z</time>
        <name>WPT.462</name>
      </trkpt>
      <trkpt lat="17.144606390" lon="-96.436153410">
        <ele>3071.000</ele>
        <time>2017-01-13T21:26:22Z</time>
        <name>WPT.463</name>
      </trkpt>
      <trkpt lat="17.144668230" lon="-96.436274170">
        <ele>3071.000</ele>
        <time>2017-01-13T21:26:23Z</time>
        <name>WPT.464</name>
      </trkpt>
      <trkpt lat="17.144725750" lon="-96.436383260">
        <ele>3071.000</ele>
        <time>2017-01-13T21:26:24Z</time>
        <name>WPT.465</name>
      </trkpt>
      <trkpt lat="17.144761500" lon="-96.436464480">
        <ele>3071.000</ele>
        <time>2017-01-13T21:26:25Z</time>
        <name>WPT.466</name>
      </trkpt>
      <trkpt lat="17.144839430" lon="-96.436554230">
        <ele>3070.000</ele>
        <time>2017-01-13T21:26:26Z</time>
        <name>WPT.467</name>
      </trkpt>
      <trkpt lat="17.144888990" lon="-96.436708080">
        <ele>3071.000</ele>
        <time>2017-01-13T21:26:27Z</time>
        <name>WPT.468</name>
      </trkpt>
      <trkpt lat="17.144960680" lon="-96.436771900">
        <ele>3070.000</ele>
        <time>2017-01-13T21:26:28Z</time>
        <name>WPT.469</name>
      </trkpt>
      <trkpt lat="17.145017050" lon="-96.436872610">
        <ele>3071.000</ele>
        <time>2017-01-13T21:26:29Z</time>
        <name>WPT.470</name>
      </trkpt>
      <trkpt lat="17.145081580" lon="-96.436963650">
        <ele>3072.000</ele>
        <time>2017-01-13T21:26:30Z</time>
        <name>WPT.471</name>
      </trkpt>
      <trkpt lat="17.145157050" lon="-96.437065660">
        <ele>3072.000</ele>
        <time>2017-01-13T21:26:31Z</time>
        <name>WPT.472</name>
      </trkpt>
      <trkpt lat="17.145236240" lon="-96.437144190">
        <ele>3073.000</ele>
        <time>2017-01-13T21:26:32Z</time>
        <name>WPT.473</name>
      </trkpt>
      <trkpt lat="17.145315170" lon="-96.437227920">
        <ele>3073.000</ele>
        <time>2017-01-13T21:26:33Z</time>
        <name>WPT.474</name>
      </trkpt>
      <trkpt lat="17.145371470" lon="-96.437316570">
        <ele>3073.000</ele>
        <time>2017-01-13T21:26:34Z</time>
        <name>WPT.475</name>
      </trkpt>
      <trkpt lat="17.145355740" lon="-96.437422090">
        <ele>3070.000</ele>
        <time>2017-01-13T21:26:35Z</time>
        <name>WPT.476</name>
      </trkpt>
      <trkpt lat="17.145385730" lon="-96.437508760">
        <ele>3068.000</ele>
        <time>2017-01-13T21:26:36Z</time>
        <name>WPT.477</name>
      </trkpt>
      <trkpt lat="17.145398500" lon="-96.437601620">
        <ele>3067.000</ele>
        <time>2017-01-13T21:26:37Z</time>
        <name>WPT.478</name>
      </trkpt>
      <trkpt lat="17.145400780" lon="-96.437704260">
        <ele>3066.000</ele>
        <time>2017-01-13T21:26:38Z</time>
        <name>WPT.479</name>
      </trkpt>
      <trkpt lat="17.145425790" lon="-96.437807580">
        <ele>3066.000</ele>
        <time>2017-01-13T21:26:39Z</time>
        <name>WPT.480</name>
      </trkpt>
      <trkpt lat="17.145441810" lon="-96.437908670">
        <ele>3067.000</ele>
        <time>2017-01-13T21:26:40Z</time>
        <name>WPT.481</name>
      </trkpt>
      <trkpt lat="17.145460390" lon="-96.438054320">
        <ele>3065.000</ele>
        <time>2017-01-13T21:26:41Z</time>
        <name>WPT.482</name>
      </trkpt>
      <trkpt lat="17.145467340" lon="-96.438179840">
        <ele>3064.000</ele>
        <time>2017-01-13T21:26:42Z</time>
        <name>WPT.483</name>
      </trkpt>
      <trkpt lat="17.145454440" lon="-96.438333340">
        <ele>3065.000</ele>
        <time>2017-01-13T21:26:43Z</time>
        <name>WPT.484</name>
      </trkpt>
      <trkpt lat="17.145464200" lon="-96.438472690">
        <ele>3063.000</ele>
        <time>2017-01-13T21:26:44Z</time>
        <name>WPT.485</name>
      </trkpt>
      <trkpt lat="17.145445750" lon="-96.438615460">
        <ele>3061.000</ele>
        <time>2017-01-13T21:26:45Z</time>
        <name>WPT.486</name>
      </trkpt>
      <trkpt lat="17.145467370" lon="-96.438741890">
        <ele>3061.000</ele>
        <time>2017-01-13T21:26:46Z</time>
        <name>WPT.487</name>
      </trkpt>
      <trkpt lat="17.145418710" lon="-96.438834550">
        <ele>3062.000</ele>
        <time>2017-01-13T21:26:47Z</time>
        <name>WPT.488</name>
      </trkpt>
      <trkpt lat="17.145364810" lon="-96.438996900">
        <ele>3065.000</ele>
        <time>2017-01-13T21:26:48Z</time>
        <name>WPT.489</name>
      </trkpt>
      <trkpt lat="17.145360820" lon="-96.439101820">
        <ele>3062.000</ele>
        <time>2017-01-13T21:26:49Z</time>
        <name>WPT.490</name>
      </trkpt>
      <trkpt lat="17.145340300" lon="-96.439227840">
        <ele>3063.000</ele>
        <time>2017-01-13T21:26:50Z</time>
        <name>WPT.491</name>
      </trkpt>
      <trkpt lat="17.145292250" lon="-96.439356520">
        <ele>3063.000</ele>
        <time>2017-01-13T21:26:51Z</time>
        <name>WPT.492</name>
      </trkpt>
      <trkpt lat="17.145300750" lon="-96.439436900">
        <ele>3062.000</ele>
        <time>2017-01-13T21:26:52Z</time>
        <name>WPT.493</name>
      </trkpt>
      <trkpt lat="17.145262460" lon="-96.439579450">
        <ele>3061.000</ele>
        <time>2017-01-13T21:26:53Z</time>
        <name>WPT.494</name>
      </trkpt>
      <trkpt lat="17.145262580" lon="-96.439724910">
        <ele>3061.000</ele>
        <time>2017-01-13T21:26:54Z</time>
        <name>WPT.495</name>
      </trkpt>
      <trkpt lat="17.145258210" lon="-96.439830240">
        <ele>3057.000</ele>
        <time>2017-01-13T21:26:55Z</time>
        <name>WPT.496</name>
      </trkpt>
      <trkpt lat="17.145211410" lon="-96.439977240">
        <ele>3056.000</ele>
        <time>2017-01-13T21:26:56Z</time>
        <name>WPT.497</name>
      </trkpt>
      <trkpt lat="17.145209360" lon="-96.440128050">
        <ele>3056.000</ele>
        <time>2017-01-13T21:26:57Z</time>
        <name>WPT.498</name>
      </trkpt>
      <trkpt lat="17.145222070" lon="-96.440267400">
        <ele>3056.000</ele>
        <time>2017-01-13T21:26:58Z</time>
        <name>WPT.499</name>
      </trkpt>
      <trkpt lat="17.145194260" lon="-96.440359070">
        <ele>3057.000</ele>
        <time>2017-01-13T21:26:59Z</time>
        <name>WPT.500</name>
      </trkpt>
      <trkpt lat="17.145196300" lon="-96.440466840">
        <ele>3057.000</ele>
        <time>2017-01-13T21:27:00Z</time>
        <name>WPT.501</name>
      </trkpt>
      <trkpt lat="17.145163090" lon="-96.440581250">
        <ele>3056.000</ele>
        <time>2017-01-13T21:27:01Z</time>
        <name>WPT.502</name>
      </trkpt>
      <trkpt lat="17.145147050" lon="-96.440653560">
        <ele>3056.000</ele>
        <time>2017-01-13T21:27:02Z</time>
        <name>WPT.503</name>
      </trkpt>
      <trkpt lat="17.145106240" lon="-96.440692570">
        <ele>3054.000</ele>
        <time>2017-01-13T21:27:03Z</time>
        <name>WPT.504</name>
      </trkpt>
      <trkpt lat="17.145047540" lon="-96.440751880">
        <ele>3051.000</ele>
        <time>2017-01-13T21:27:04Z</time>
        <name>WPT.505</name>
      </trkpt>
      <trkpt lat="17.145017300" lon="-96.440829050">
        <ele>3051.000</ele>
        <time>2017-01-13T21:27:05Z</time>
        <name>WPT.506</name>
      </trkpt>
      <trkpt lat="17.144940940" lon="-96.440900420">
        <ele>3050.000</ele>
        <time>2017-01-13T21:27:06Z</time>
        <name>WPT.507</name>
      </trkpt>
      <trkpt lat="17.144863570" lon="-96.440952180">
        <ele>3051.000</ele>
        <time>2017-01-13T21:27:07Z</time>
        <name>WPT.508</name>
      </trkpt>
      <trkpt lat="17.144824830" lon="-96.440996760">
        <ele>3053.000</ele>
        <time>2017-01-13T21:27:08Z</time>
        <name>WPT.509</name>
      </trkpt>
      <trkpt lat="17.144813820" lon="-96.441048560">
        <ele>3054.000</ele>
        <time>2017-01-13T21:27:09Z</time>
        <name>WPT.510</name>
      </trkpt>
      <trkpt lat="17.144742110" lon="-96.440922870">
        <ele>3056.000</ele>
        <time>2017-01-13T21:27:10Z</time>
        <name>WPT.511</name>
      </trkpt>
      <trkpt lat="17.144720490" lon="-96.440827780">
        <ele>3055.000</ele>
        <time>2017-01-13T21:27:11Z</time>
        <name>WPT.512</name>
      </trkpt>
      <trkpt lat="17.144675020" lon="-96.440867890">
        <ele>3054.000</ele>
        <time>2017-01-13T21:27:14Z</time>
        <name>WPT.513</name>
      </trkpt>
      <trkpt lat="17.144593410" lon="-96.440857790">
        <ele>3053.000</ele>
        <time>2017-01-13T21:27:16Z</time>
        <name>WPT.514</name>
      </trkpt>
      <trkpt lat="17.144537170" lon="-96.440903920">
        <ele>3053.000</ele>
        <time>2017-01-13T21:27:17Z</time>
        <name>WPT.515</name>
      </trkpt>
      <trkpt lat="17.144465660" lon="-96.440952450">
        <ele>3052.000</ele>
        <time>2017-01-13T21:27:18Z</time>
        <name>WPT.516</name>
      </trkpt>
      <trkpt lat="17.144381930" lon="-96.440909340">
        <ele>3051.000</ele>
        <time>2017-01-13T21:27:19Z</time>
        <name>WPT.517</name>
      </trkpt>
      <trkpt lat="17.144311840" lon="-96.440943100">
        <ele>3053.000</ele>
        <time>2017-01-13T21:27:20Z</time>
        <name>WPT.518</name>
      </trkpt>
      <trkpt lat="17.144250410" lon="-96.440957840">
        <ele>3053.000</ele>
        <time>2017-01-13T21:27:21Z</time>
        <name>WPT.519</name>
      </trkpt>
      <trkpt lat="17.144185410" lon="-96.440966660">
        <ele>3053.000</ele>
        <time>2017-01-13T21:27:22Z</time>
        <name>WPT.520</name>
      </trkpt>
      <trkpt lat="17.144086230" lon="-96.440983580">
        <ele>3052.000</ele>
        <time>2017-01-13T21:27:23Z</time>
        <name>WPT.521</name>
      </trkpt>
      <trkpt lat="17.144019820" lon="-96.441025010">
        <ele>3051.000</ele>
        <time>2017-01-13T21:27:24Z</time>
        <name>WPT.522</name>
      </trkpt>
      <trkpt lat="17.143926510" lon="-96.441027700">
        <ele>3049.000</ele>
        <time>2017-01-13T21:27:25Z</time>
        <name>WPT.523</name>
      </trkpt>
      <trkpt lat="17.143851840" lon="-96.441089580">
        <ele>3050.000</ele>
        <time>2017-01-13T21:27:26Z</time>
        <name>WPT.524</name>
      </trkpt>
      <trkpt lat="17.143781840" lon="-96.441102880">
        <ele>3049.000</ele>
        <time>2017-01-13T21:27:27Z</time>
        <name>WPT.525</name>
      </trkpt>
      <trkpt lat="17.143708530" lon="-96.441248280">
        <ele>3047.000</ele>
        <time>2017-01-13T21:27:28Z</time>
        <name>WPT.526</name>
      </trkpt>
      <trkpt lat="17.143732490" lon="-96.441354910">
        <ele>3046.000</ele>
        <time>2017-01-13T21:27:30Z</time>
        <name>WPT.527</name>
      </trkpt>
      <trkpt lat="17.143663000" lon="-96.441365710">
        <ele>3045.000</ele>
        <time>2017-01-13T21:27:31Z</time>
        <name>WPT.528</name>
      </trkpt>
      <trkpt lat="17.143553370" lon="-96.441316560">
        <ele>3047.000</ele>
        <time>2017-01-13T21:27:32Z</time>
        <name>WPT.529</name>
      </trkpt>
      <trkpt lat="17.143501770" lon="-96.441370240">
        <ele>3046.000</ele>
        <time>2017-01-13T21:27:33Z</time>
        <name>WPT.530</name>
      </trkpt>
      <trkpt lat="17.143433680" lon="-96.441472450">
        <ele>3047.000</ele>
        <time>2017-01-13T21:27:34Z</time>
        <name>WPT.531</name>
      </trkpt>
      <trkpt lat="17.143408540" lon="-96.441557980">
        <ele>3046.000</ele>
        <time>2017-01-13T21:27:35Z</time>
        <name>WPT.532</name>
      </trkpt>
      <trkpt lat="17.143432220" lon="-96.441714360">
        <ele>3047.000</ele>
        <time>2017-01-13T21:27:36Z</time>
        <name>WPT.533</name>
      </trkpt>
      <trkpt lat="17.143310510" lon="-96.441721720">
        <ele>3048.000</ele>
        <time>2017-01-13T21:27:37Z</time>
        <name>WPT.534</name>
      </trkpt>
      <trkpt lat="17.143180040" lon="-96.441711800">
        <ele>3047.000</ele>
        <time>2017-01-13T21:27:38Z</time>
        <name>WPT.535</name>
      </trkpt>
      <trkpt lat="17.143023300" lon="-96.441756990">
        <ele>3046.000</ele>
        <time>2017-01-13T21:27:39Z</time>
        <name>WPT.536</name>
      </trkpt>
      <trkpt lat="17.142910270" lon="-96.441806870">
        <ele>3046.000</ele>
        <time>2017-01-13T21:27:40Z</time>
        <name>WPT.537</name>
      </trkpt>
      <trkpt lat="17.142803170" lon="-96.441848740">
        <ele>3047.000</ele>
        <time>2017-01-13T21:27:41Z</time>
        <name>WPT.538</name>
      </trkpt>
      <trkpt lat="17.142681990" lon="-96.441827360">
        <ele>3047.000</ele>
        <time>2017-01-13T21:27:42Z</time>
        <name>WPT.539</name>
      </trkpt>
      <trkpt lat="17.142563850" lon="-96.441833300">
        <ele>3048.000</ele>
        <time>2017-01-13T21:27:43Z</time>
        <name>WPT.540</name>
      </trkpt>
      <trkpt lat="17.142462410" lon="-96.441823260">
        <ele>3049.000</ele>
        <time>2017-01-13T21:27:44Z</time>
        <name>WPT.541</name>
      </trkpt>
      <trkpt lat="17.142352720" lon="-96.441763250">
        <ele>3049.000</ele>
        <time>2017-01-13T21:27:45Z</time>
        <name>WPT.542</name>
      </trkpt>
      <trkpt lat="17.142230030" lon="-96.441760170">
        <ele>3050.000</ele>
        <time>2017-01-13T21:27:46Z</time>
        <name>WPT.543</name>
      </trkpt>
      <trkpt lat="17.142127710" lon="-96.441745060">
        <ele>3050.000</ele>
        <time>2017-01-13T21:27:47Z</time>
        <name>WPT.544</name>
      </trkpt>
      <trkpt lat="17.142001200" lon="-96.441708350">
        <ele>3049.000</ele>
        <time>2017-01-13T21:27:48Z</time>
        <name>WPT.545</name>
      </trkpt>
      <trkpt lat="17.141889350" lon="-96.441662590">
        <ele>3052.000</ele>
        <time>2017-01-13T21:27:49Z</time>
        <name>WPT.546</name>
      </trkpt>
      <trkpt lat="17.141753150" lon="-96.441595280">
        <ele>3055.000</ele>
        <time>2017-01-13T21:27:50Z</time>
        <name>WPT.547</name>
      </trkpt>
      <trkpt lat="17.141656540" lon="-96.441549500">
        <ele>3053.000</ele>
        <time>2017-01-13T21:27:51Z</time>
        <name>WPT.548</name>
      </trkpt>
      <trkpt lat="17.141569680" lon="-96.441511510">
        <ele>3052.000</ele>
        <time>2017-01-13T21:27:52Z</time>
        <name>WPT.549</name>
      </trkpt>
      <trkpt lat="17.141479810" lon="-96.441438920">
        <ele>3052.000</ele>
        <time>2017-01-13T21:27:53Z</time>
        <name>WPT.550</name>
      </trkpt>
      <trkpt lat="17.141380950" lon="-96.441369140">
        <ele>3052.000</ele>
        <time>2017-01-13T21:27:54Z</time>
        <name>WPT.551</name>
      </trkpt>
      <trkpt lat="17.141301730" lon="-96.441280710">
        <ele>3053.000</ele>
        <time>2017-01-13T21:27:55Z</time>
        <name>WPT.552</name>
      </trkpt>
      <trkpt lat="17.141202580" lon="-96.441206790">
        <ele>3054.000</ele>
        <time>2017-01-13T21:27:56Z</time>
        <name>WPT.553</name>
      </trkpt>
      <trkpt lat="17.141087260" lon="-96.441184110">
        <ele>3056.000</ele>
        <time>2017-01-13T21:27:57Z</time>
        <name>WPT.554</name>
      </trkpt>
      <trkpt lat="17.140969690" lon="-96.441204870">
        <ele>3055.000</ele>
        <time>2017-01-13T21:27:58Z</time>
        <name>WPT.555</name>
      </trkpt>
      <trkpt lat="17.140848050" lon="-96.441182210">
        <ele>3055.000</ele>
        <time>2017-01-13T21:27:59Z</time>
        <name>WPT.556</name>
      </trkpt>
      <trkpt lat="17.140734500" lon="-96.441194320">
        <ele>3055.000</ele>
        <time>2017-01-13T21:28:00Z</time>
        <name>WPT.557</name>
      </trkpt>
      <trkpt lat="17.140622840" lon="-96.441225670">
        <ele>3055.000</ele>
        <time>2017-01-13T21:28:01Z</time>
        <name>WPT.558</name>
      </trkpt>
      <trkpt lat="17.140530480" lon="-96.441241430">
        <ele>3054.000</ele>
        <time>2017-01-13T21:28:02Z</time>
        <name>WPT.559</name>
      </trkpt>
      <trkpt lat="17.140414740" lon="-96.441218790">
        <ele>3057.000</ele>
        <time>2017-01-13T21:28:03Z</time>
        <name>WPT.560</name>
      </trkpt>
      <trkpt lat="17.140332730" lon="-96.441270470">
        <ele>3059.000</ele>
        <time>2017-01-13T21:28:04Z</time>
        <name>WPT.561</name>
      </trkpt>
      <trkpt lat="17.140259180" lon="-96.441247330">
        <ele>3061.000</ele>
        <time>2017-01-13T21:28:05Z</time>
        <name>WPT.562</name>
      </trkpt>
      <trkpt lat="17.140225150" lon="-96.441139890">
        <ele>3061.000</ele>
        <time>2017-01-13T21:28:06Z</time>
        <name>WPT.563</name>
      </trkpt>
      <trkpt lat="17.140159780" lon="-96.441090220">
        <ele>3061.000</ele>
        <time>2017-01-13T21:28:07Z</time>
        <name>WPT.564</name>
      </trkpt>
      <trkpt lat="17.140100200" lon="-96.441072060">
        <ele>3061.000</ele>
        <time>2017-01-13T21:28:08Z</time>
        <name>WPT.565</name>
      </trkpt>
      <trkpt lat="17.140030360" lon="-96.441008770">
        <ele>3061.000</ele>
        <time>2017-01-13T21:28:09Z</time>
        <name>WPT.566</name>
      </trkpt>
      <trkpt lat="17.139962730" lon="-96.440969120">
        <ele>3061.000</ele>
        <time>2017-01-13T21:28:10Z</time>
        <name>WPT.567</name>
      </trkpt>
      <trkpt lat="17.139924680" lon="-96.440926840">
        <ele>3060.000</ele>
        <time>2017-01-13T21:28:11Z</time>
        <name>WPT.568</name>
      </trkpt>
      <trkpt lat="17.139863740" lon="-96.440910010">
        <ele>3060.000</ele>
        <time>2017-01-13T21:28:12Z</time>
        <name>WPT.569</name>
      </trkpt>
      <trkpt lat="17.139793100" lon="-96.440896140">
        <ele>3060.000</ele>
        <time>2017-01-13T21:28:13Z</time>
        <name>WPT.570</name>
      </trkpt>
      <trkpt lat="17.139710270" lon="-96.440896430">
        <ele>3060.000</ele>
        <time>2017-01-13T21:28:14Z</time>
        <name>WPT.571</name>
      </trkpt>
      <trkpt lat="17.139646230" lon="-96.440962000">
        <ele>3060.000</ele>
        <time>2017-01-13T21:28:15Z</time>
        <name>WPT.572</name>
      </trkpt>
      <trkpt lat="17.139645120" lon="-96.441023770">
        <ele>3060.000</ele>
        <time>2017-01-13T21:28:16Z</time>
        <name>WPT.573</name>
      </trkpt>
      <trkpt lat="17.139507240" lon="-96.441013300">
        <ele>3061.000</ele>
        <time>2017-01-13T21:28:17Z</time>
        <name>WPT.574</name>
      </trkpt>
      <trkpt lat="17.139394970" lon="-96.440913640">
        <ele>3061.000</ele>
        <time>2017-01-13T21:28:18Z</time>
        <name>WPT.575</name>
      </trkpt>
      <trkpt lat="17.139344480" lon="-96.440718060">
        <ele>3061.000</ele>
        <time>2017-01-13T21:28:19Z</time>
        <name>WPT.576</name>
      </trkpt>
      <trkpt lat="17.139267200" lon="-96.440715350">
        <ele>3064.000</ele>
        <time>2017-01-13T21:28:21Z</time>
        <name>WPT.577</name>
      </trkpt>
      <trkpt lat="17.139209720" lon="-96.440672130">
        <ele>3063.000</ele>
        <time>2017-01-13T21:28:22Z</time>
        <name>WPT.578</name>
      </trkpt>
      <trkpt lat="17.139150690" lon="-96.440615960">
        <ele>3065.000</ele>
        <time>2017-01-13T21:28:25Z</time>
        <name>WPT.579</name>
      </trkpt>
      <trkpt lat="17.139108050" lon="-96.440597390">
        <ele>3065.000</ele>
        <time>2017-01-13T21:28:26Z</time>
        <name>WPT.580</name>
      </trkpt>
      <trkpt lat="17.139078030" lon="-96.440568750">
        <ele>3065.000</ele>
        <time>2017-01-13T21:28:27Z</time>
        <name>WPT.581</name>
      </trkpt>
      <trkpt lat="17.138990940" lon="-96.440589330">
        <ele>3066.000</ele>
        <time>2017-01-13T21:28:28Z</time>
        <name>WPT.582</name>
      </trkpt>
      <trkpt lat="17.138925760" lon="-96.440575530">
        <ele>3065.000</ele>
        <time>2017-01-13T21:28:29Z</time>
        <name>WPT.583</name>
      </trkpt>
      <trkpt lat="17.138878170" lon="-96.440522210">
        <ele>3064.000</ele>
        <time>2017-01-13T21:28:30Z</time>
        <name>WPT.584</name>
      </trkpt>
      <trkpt lat="17.138839540" lon="-96.440520300">
        <ele>3064.000</ele>
        <time>2017-01-13T21:28:31Z</time>
        <name>WPT.585</name>
      </trkpt>
      <trkpt lat="17.138807430" lon="-96.440493410">
        <ele>3064.000</ele>
        <time>2017-01-13T21:28:32Z</time>
        <name>WPT.586</name>
      </trkpt>
      <trkpt lat="17.138666230" lon="-96.440486470">
        <ele>3063.000</ele>
        <time>2017-01-13T21:28:33Z</time>
        <name>WPT.587</name>
      </trkpt>
      <trkpt lat="17.138594890" lon="-96.440486630">
        <ele>3064.000</ele>
        <time>2017-01-13T21:28:34Z</time>
        <name>WPT.588</name>
      </trkpt>
      <trkpt lat="17.138539490" lon="-96.440477070">
        <ele>3066.000</ele>
        <time>2017-01-13T21:28:35Z</time>
        <name>WPT.589</name>
      </trkpt>
      <trkpt lat="17.138470960" lon="-96.440503510">
        <ele>3070.000</ele>
        <time>2017-01-13T21:28:36Z</time>
        <name>WPT.590</name>
      </trkpt>
      <trkpt lat="17.138447880" lon="-96.440409600">
        <ele>3068.000</ele>
        <time>2017-01-13T21:28:37Z</time>
        <name>WPT.591</name>
      </trkpt>
      <trkpt lat="17.138365890" lon="-96.440406560">
        <ele>3070.000</ele>
        <time>2017-01-13T21:28:38Z</time>
        <name>WPT.592</name>
      </trkpt>
      <trkpt lat="17.138299210" lon="-96.440318780">
        <ele>3072.000</ele>
        <time>2017-01-13T21:28:39Z</time>
        <name>WPT.593</name>
      </trkpt>
      <trkpt lat="17.138212750" lon="-96.440272280">
        <ele>3076.000</ele>
        <time>2017-01-13T21:28:40Z</time>
        <name>WPT.594</name>
      </trkpt>
      <trkpt lat="17.138130110" lon="-96.440212360">
        <ele>3076.000</ele>
        <time>2017-01-13T21:28:41Z</time>
        <name>WPT.595</name>
      </trkpt>
      <trkpt lat="17.138061080" lon="-96.440132740">
        <ele>3076.000</ele>
        <time>2017-01-13T21:28:42Z</time>
        <name>WPT.596</name>
      </trkpt>
      <trkpt lat="17.137993170" lon="-96.440050770">
        <ele>3078.000</ele>
        <time>2017-01-13T21:28:43Z</time>
        <name>WPT.597</name>
      </trkpt>
      <trkpt lat="17.137949950" lon="-96.440026680">
        <ele>3079.000</ele>
        <time>2017-01-13T21:28:44Z</time>
        <name>WPT.598</name>
      </trkpt>
      <trkpt lat="17.137910940" lon="-96.439936330">
        <ele>3079.000</ele>
        <time>2017-01-13T21:28:45Z</time>
        <name>WPT.599</name>
      </trkpt>
      <trkpt lat="17.137812700" lon="-96.439977430">
        <ele>3080.000</ele>
        <time>2017-01-13T21:28:46Z</time>
        <name>WPT.600</name>
      </trkpt>
      <trkpt lat="17.137705470" lon="-96.439932510">
        <ele>3082.000</ele>
        <time>2017-01-13T21:28:47Z</time>
        <name>WPT.601</name>
      </trkpt>
      <trkpt lat="17.137632330" lon="-96.439924900">
        <ele>3082.000</ele>
        <time>2017-01-13T21:28:48Z</time>
        <name>WPT.602</name>
      </trkpt>
      <trkpt lat="17.137501330" lon="-96.439990790">
        <ele>3083.000</ele>
        <time>2017-01-13T21:28:49Z</time>
        <name>WPT.603</name>
      </trkpt>
      <trkpt lat="17.137421280" lon="-96.440004560">
        <ele>3083.000</ele>
        <time>2017-01-13T21:28:50Z</time>
        <name>WPT.604</name>
      </trkpt>
      <trkpt lat="17.137319220" lon="-96.440019350">
        <ele>3085.000</ele>
        <time>2017-01-13T21:28:51Z</time>
        <name>WPT.605</name>
      </trkpt>
      <trkpt lat="17.137204220" lon="-96.440038930">
        <ele>3086.000</ele>
        <time>2017-01-13T21:28:52Z</time>
        <name>WPT.606</name>
      </trkpt>
      <trkpt lat="17.137078690" lon="-96.440026590">
        <ele>3087.000</ele>
        <time>2017-01-13T21:28:53Z</time>
        <name>WPT.607</name>
      </trkpt>
      <trkpt lat="17.136965530" lon="-96.439972230">
        <ele>3087.000</ele>
        <time>2017-01-13T21:28:54Z</time>
        <name>WPT.608</name>
      </trkpt>
      <trkpt lat="17.136855900" lon="-96.439923840">
        <ele>3088.000</ele>
        <time>2017-01-13T21:28:55Z</time>
        <name>WPT.609</name>
      </trkpt>
      <trkpt lat="17.136738480" lon="-96.439893650">
        <ele>3088.000</ele>
        <time>2017-01-13T21:28:56Z</time>
        <name>WPT.610</name>
      </trkpt>
      <trkpt lat="17.136619320" lon="-96.439798910">
        <ele>3092.000</ele>
        <time>2017-01-13T21:28:57Z</time>
        <name>WPT.611</name>
      </trkpt>
      <trkpt lat="17.136504930" lon="-96.439771510">
        <ele>3092.000</ele>
        <time>2017-01-13T21:28:58Z</time>
        <name>WPT.612</name>
      </trkpt>
      <trkpt lat="17.136399990" lon="-96.439633430">
        <ele>3095.000</ele>
        <time>2017-01-13T21:28:59Z</time>
        <name>WPT.613</name>
      </trkpt>
      <trkpt lat="17.136329840" lon="-96.439562680">
        <ele>3095.000</ele>
        <time>2017-01-13T21:29:00Z</time>
        <name>WPT.614</name>
      </trkpt>
      <trkpt lat="17.136268120" lon="-96.439470920">
        <ele>3095.000</ele>
        <time>2017-01-13T21:29:01Z</time>
        <name>WPT.615</name>
      </trkpt>
      <trkpt lat="17.136175740" lon="-96.439422150">
        <ele>3096.000</ele>
        <time>2017-01-13T21:29:02Z</time>
        <name>WPT.616</name>
      </trkpt>
      <trkpt lat="17.136058260" lon="-96.439366780">
        <ele>3098.000</ele>
        <time>2017-01-13T21:29:03Z</time>
        <name>WPT.617</name>
      </trkpt>
      <trkpt lat="17.135961440" lon="-96.439280600">
        <ele>3098.000</ele>
        <time>2017-01-13T21:29:04Z</time>
        <name>WPT.618</name>
      </trkpt>
      <trkpt lat="17.135838960" lon="-96.439236890">
        <ele>3099.000</ele>
        <time>2017-01-13T21:29:05Z</time>
        <name>WPT.619</name>
      </trkpt>
      <trkpt lat="17.135759900" lon="-96.439206810">
        <ele>3095.000</ele>
        <time>2017-01-13T21:29:06Z</time>
        <name>WPT.620</name>
      </trkpt>
      <trkpt lat="17.135626830" lon="-96.439142390">
        <ele>3097.000</ele>
        <time>2017-01-13T21:29:07Z</time>
        <name>WPT.621</name>
      </trkpt>
      <trkpt lat="17.135513350" lon="-96.439098210">
        <ele>3098.000</ele>
        <time>2017-01-13T21:29:08Z</time>
        <name>WPT.622</name>
      </trkpt>
      <trkpt lat="17.135391500" lon="-96.439084120">
        <ele>3099.000</ele>
        <time>2017-01-13T21:29:09Z</time>
        <name>WPT.623</name>
      </trkpt>
      <trkpt lat="17.135290910" lon="-96.439063090">
        <ele>3099.000</ele>
        <time>2017-01-13T21:29:10Z</time>
        <name>WPT.624</name>
      </trkpt>
      <trkpt lat="17.135195690" lon="-96.439121780">
        <ele>3099.000</ele>
        <time>2017-01-13T21:29:11Z</time>
        <name>WPT.625</name>
      </trkpt>
      <trkpt lat="17.135106810" lon="-96.439142130">
        <ele>3098.000</ele>
        <time>2017-01-13T21:29:12Z</time>
        <name>WPT.626</name>
      </trkpt>
      <trkpt lat="17.135008650" lon="-96.439171450">
        <ele>3097.000</ele>
        <time>2017-01-13T21:29:13Z</time>
        <name>WPT.627</name>
      </trkpt>
      <trkpt lat="17.134940050" lon="-96.439177580">
        <ele>3097.000</ele>
        <time>2017-01-13T21:29:14Z</time>
        <name>WPT.628</name>
      </trkpt>
      <trkpt lat="17.134855530" lon="-96.439182450">
        <ele>3097.000</ele>
        <time>2017-01-13T21:29:15Z</time>
        <name>WPT.629</name>
      </trkpt>
      <trkpt lat="17.134787740" lon="-96.439260820">
        <ele>3097.000</ele>
        <time>2017-01-13T21:29:16Z</time>
        <name>WPT.630</name>
      </trkpt>
      <trkpt lat="17.134759290" lon="-96.439447120">
        <ele>3095.000</ele>
        <time>2017-01-13T21:29:17Z</time>
        <name>WPT.631</name>
      </trkpt>
      <trkpt lat="17.134715430" lon="-96.439551450">
        <ele>3095.000</ele>
        <time>2017-01-13T21:29:18Z</time>
        <name>WPT.632</name>
      </trkpt>
      <trkpt lat="17.134680610" lon="-96.439691240">
        <ele>3095.000</ele>
        <time>2017-01-13T21:29:19Z</time>
        <name>WPT.633</name>
      </trkpt>
      <trkpt lat="17.134654810" lon="-96.439831870">
        <ele>3095.000</ele>
        <time>2017-01-13T21:29:20Z</time>
        <name>WPT.634</name>
      </trkpt>
      <trkpt lat="17.134641790" lon="-96.440035960">
        <ele>3095.000</ele>
        <time>2017-01-13T21:29:21Z</time>
        <name>WPT.635</name>
      </trkpt>
      <trkpt lat="17.134601900" lon="-96.440165850">
        <ele>3094.000</ele>
        <time>2017-01-13T21:29:22Z</time>
        <name>WPT.636</name>
      </trkpt>
      <trkpt lat="17.134613820" lon="-96.440260390">
        <ele>3095.000</ele>
        <time>2017-01-13T21:29:23Z</time>
        <name>WPT.637</name>
      </trkpt>
      <trkpt lat="17.134761330" lon="-96.440312020">
        <ele>3095.000</ele>
        <time>2017-01-13T21:29:24Z</time>
        <name>WPT.638</name>
      </trkpt>
      <trkpt lat="17.134771450" lon="-96.440402470">
        <ele>3095.000</ele>
        <time>2017-01-13T21:29:25Z</time>
        <name>WPT.639</name>
      </trkpt>
      <trkpt lat="17.134832140" lon="-96.440446360">
        <ele>3094.000</ele>
        <time>2017-01-13T21:29:26Z</time>
        <name>WPT.640</name>
      </trkpt>
      <trkpt lat="17.134856470" lon="-96.440520660">
        <ele>3094.000</ele>
        <time>2017-01-13T21:29:27Z</time>
        <name>WPT.641</name>
      </trkpt>
      <trkpt lat="17.134826510" lon="-96.440621310">
        <ele>3095.000</ele>
        <time>2017-01-13T21:29:28Z</time>
        <name>WPT.642</name>
      </trkpt>
      <trkpt lat="17.134856910" lon="-96.440710200">
        <ele>3095.000</ele>
        <time>2017-01-13T21:29:29Z</time>
        <name>WPT.643</name>
      </trkpt>
      <trkpt lat="17.134860970" lon="-96.440811010">
        <ele>3096.000</ele>
        <time>2017-01-13T21:29:30Z</time>
        <name>WPT.644</name>
      </trkpt>
      <trkpt lat="17.134880890" lon="-96.440906680">
        <ele>3095.000</ele>
        <time>2017-01-13T21:29:31Z</time>
        <name>WPT.645</name>
      </trkpt>
      <trkpt lat="17.134968490" lon="-96.441008570">
        <ele>3095.000</ele>
        <time>2017-01-13T21:29:32Z</time>
        <name>WPT.646</name>
      </trkpt>
      <trkpt lat="17.134989570" lon="-96.441197480">
        <ele>3097.000</ele>
        <time>2017-01-13T21:29:33Z</time>
        <name>WPT.647</name>
      </trkpt>
      <trkpt lat="17.135010840" lon="-96.441331220">
        <ele>3097.000</ele>
        <time>2017-01-13T21:29:34Z</time>
        <name>WPT.648</name>
      </trkpt>
      <trkpt lat="17.135024620" lon="-96.441454430">
        <ele>3097.000</ele>
        <time>2017-01-13T21:29:35Z</time>
        <name>WPT.649</name>
      </trkpt>
      <trkpt lat="17.135065730" lon="-96.441552410">
        <ele>3097.000</ele>
        <time>2017-01-13T21:29:36Z</time>
        <name>WPT.650</name>
      </trkpt>
      <trkpt lat="17.135081890" lon="-96.441665050">
        <ele>3096.000</ele>
        <time>2017-01-13T21:29:37Z</time>
        <name>WPT.651</name>
      </trkpt>
      <trkpt lat="17.135134080" lon="-96.441798860">
        <ele>3096.000</ele>
        <time>2017-01-13T21:29:38Z</time>
        <name>WPT.652</name>
      </trkpt>
      <trkpt lat="17.135167150" lon="-96.441894050">
        <ele>3095.000</ele>
        <time>2017-01-13T21:29:39Z</time>
        <name>WPT.653</name>
      </trkpt>
      <trkpt lat="17.135205700" lon="-96.442039870">
        <ele>3096.000</ele>
        <time>2017-01-13T21:29:40Z</time>
        <name>WPT.654</name>
      </trkpt>
      <trkpt lat="17.135261520" lon="-96.442163640">
        <ele>3096.000</ele>
        <time>2017-01-13T21:29:41Z</time>
        <name>WPT.655</name>
      </trkpt>
      <trkpt lat="17.135381920" lon="-96.442386980">
        <ele>3097.000</ele>
        <time>2017-01-13T21:29:43Z</time>
        <name>WPT.656</name>
      </trkpt>
      <trkpt lat="17.135459360" lon="-96.442461900">
        <ele>3098.000</ele>
        <time>2017-01-13T21:29:44Z</time>
        <name>WPT.657</name>
      </trkpt>
      <trkpt lat="17.135559640" lon="-96.442555480">
        <ele>3101.000</ele>
        <time>2017-01-13T21:29:45Z</time>
        <name>WPT.658</name>
      </trkpt>
      <trkpt lat="17.135588470" lon="-96.442632400">
        <ele>3101.000</ele>
        <time>2017-01-13T21:29:46Z</time>
        <name>WPT.659</name>
      </trkpt>
      <trkpt lat="17.135633680" lon="-96.442716340">
        <ele>3101.000</ele>
        <time>2017-01-13T21:29:47Z</time>
        <name>WPT.660</name>
      </trkpt>
      <trkpt lat="17.135683350" lon="-96.442818890">
        <ele>3101.000</ele>
        <time>2017-01-13T21:29:48Z</time>
        <name>WPT.661</name>
      </trkpt>
      <trkpt lat="17.135745280" lon="-96.442935330">
        <ele>3102.000</ele>
        <time>2017-01-13T21:29:49Z</time>
        <name>WPT.662</name>
      </trkpt>
      <trkpt lat="17.135805380" lon="-96.443038370">
        <ele>3103.000</ele>
        <time>2017-01-13T21:29:50Z</time>
        <name>WPT.663</name>
      </trkpt>
      <trkpt lat="17.135885820" lon="-96.443103730">
        <ele>3104.000</ele>
        <time>2017-01-13T21:29:51Z</time>
        <name>WPT.664</name>
      </trkpt>
      <trkpt lat="17.135912120" lon="-96.443192910">
        <ele>3103.000</ele>
        <time>2017-01-13T21:29:52Z</time>
        <name>WPT.665</name>
      </trkpt>
      <trkpt lat="17.136017100" lon="-96.443283020">
        <ele>3102.000</ele>
        <time>2017-01-13T21:29:53Z</time>
        <name>WPT.666</name>
      </trkpt>
      <trkpt lat="17.136090820" lon="-96.443393720">
        <ele>3102.000</ele>
        <time>2017-01-13T21:29:54Z</time>
        <name>WPT.667</name>
      </trkpt>
      <trkpt lat="17.136120160" lon="-96.443471420">
        <ele>3102.000</ele>
        <time>2017-01-13T21:29:55Z</time>
        <name>WPT.668</name>
      </trkpt>
      <trkpt lat="17.136140610" lon="-96.443557320">
        <ele>3100.000</ele>
        <time>2017-01-13T21:29:56Z</time>
        <name>WPT.669</name>
      </trkpt>
      <trkpt lat="17.136117900" lon="-96.443642340">
        <ele>3101.000</ele>
        <time>2017-01-13T21:29:57Z</time>
        <name>WPT.670</name>
      </trkpt>
      <trkpt lat="17.136099830" lon="-96.443721050">
        <ele>3101.000</ele>
        <time>2017-01-13T21:29:58Z</time>
        <name>WPT.671</name>
      </trkpt>
      <trkpt lat="17.136093960" lon="-96.443805140">
        <ele>3101.000</ele>
        <time>2017-01-13T21:29:59Z</time>
        <name>WPT.672</name>
      </trkpt>
      <trkpt lat="17.136105170" lon="-96.443871460">
        <ele>3099.000</ele>
        <time>2017-01-13T21:30:00Z</time>
        <name>WPT.673</name>
      </trkpt>
      <trkpt lat="17.136020910" lon="-96.443942790">
        <ele>3099.000</ele>
        <time>2017-01-13T21:30:01Z</time>
        <name>WPT.674</name>
      </trkpt>
      <trkpt lat="17.135973040" lon="-96.443988520">
        <ele>3097.000</ele>
        <time>2017-01-13T21:30:02Z</time>
        <name>WPT.675</name>
      </trkpt>
      <trkpt lat="17.136016360" lon="-96.444015870">
        <ele>3097.000</ele>
        <time>2017-01-13T21:30:03Z</time>
        <name>WPT.676</name>
      </trkpt>
      <trkpt lat="17.135918410" lon="-96.444074450">
        <ele>3097.000</ele>
        <time>2017-01-13T21:30:04Z</time>
        <name>WPT.677</name>
      </trkpt>
      <trkpt lat="17.135820330" lon="-96.444184940">
        <ele>3099.000</ele>
        <time>2017-01-13T21:30:05Z</time>
        <name>WPT.678</name>
      </trkpt>
      <trkpt lat="17.135771600" lon="-96.444242250">
        <ele>3102.000</ele>
        <time>2017-01-13T21:30:06Z</time>
        <name>WPT.679</name>
      </trkpt>
      <trkpt lat="17.135694120" lon="-96.444251710">
        <ele>3104.000</ele>
        <time>2017-01-13T21:30:07Z</time>
        <name>WPT.680</name>
      </trkpt>
      <trkpt lat="17.135600780" lon="-96.444208240">
        <ele>3102.000</ele>
        <time>2017-01-13T21:30:08Z</time>
        <name>WPT.681</name>
      </trkpt>
      <trkpt lat="17.135509480" lon="-96.444167900">
        <ele>3104.000</ele>
        <time>2017-01-13T21:30:09Z</time>
        <name>WPT.682</name>
      </trkpt>
      <trkpt lat="17.135442700" lon="-96.444168940">
        <ele>3106.000</ele>
        <time>2017-01-13T21:30:10Z</time>
        <name>WPT.683</name>
      </trkpt>
      <trkpt lat="17.135386090" lon="-96.444182640">
        <ele>3108.000</ele>
        <time>2017-01-13T21:30:11Z</time>
        <name>WPT.684</name>
      </trkpt>
      <trkpt lat="17.135296280" lon="-96.444133540">
        <ele>3109.000</ele>
        <time>2017-01-13T21:30:12Z</time>
        <name>WPT.685</name>
      </trkpt>
      <trkpt lat="17.135252150" lon="-96.444039620">
        <ele>3109.000</ele>
        <time>2017-01-13T21:30:13Z</time>
        <name>WPT.686</name>
      </trkpt>
      <trkpt lat="17.135202920" lon="-96.443977230">
        <ele>3111.000</ele>
        <time>2017-01-13T21:30:14Z</time>
        <name>WPT.687</name>
      </trkpt>
      <trkpt lat="17.135134440" lon="-96.443916310">
        <ele>3111.000</ele>
        <time>2017-01-13T21:30:15Z</time>
        <name>WPT.688</name>
      </trkpt>
      <trkpt lat="17.135052050" lon="-96.443907360">
        <ele>3112.000</ele>
        <time>2017-01-13T21:30:16Z</time>
        <name>WPT.689</name>
      </trkpt>
      <trkpt lat="17.134970940" lon="-96.443865710">
        <ele>3111.000</ele>
        <time>2017-01-13T21:30:17Z</time>
        <name>WPT.690</name>
      </trkpt>
      <trkpt lat="17.134865550" lon="-96.443834920">
        <ele>3113.000</ele>
        <time>2017-01-13T21:30:18Z</time>
        <name>WPT.691</name>
      </trkpt>
      <trkpt lat="17.134770440" lon="-96.443781920">
        <ele>3113.000</ele>
        <time>2017-01-13T21:30:19Z</time>
        <name>WPT.692</name>
      </trkpt>
      <trkpt lat="17.134686400" lon="-96.443741570">
        <ele>3114.000</ele>
        <time>2017-01-13T21:30:20Z</time>
        <name>WPT.693</name>
      </trkpt>
      <trkpt lat="17.134601350" lon="-96.443681640">
        <ele>3113.000</ele>
        <time>2017-01-13T21:30:21Z</time>
        <name>WPT.694</name>
      </trkpt>
      <trkpt lat="17.134532920" lon="-96.443613380">
        <ele>3113.000</ele>
        <time>2017-01-13T21:30:22Z</time>
        <name>WPT.695</name>
      </trkpt>
      <trkpt lat="17.134450160" lon="-96.443535490">
        <ele>3114.000</ele>
        <time>2017-01-13T21:30:23Z</time>
        <name>WPT.696</name>
      </trkpt>
      <trkpt lat="17.134379690" lon="-96.443460690">
        <ele>3112.000</ele>
        <time>2017-01-13T21:30:24Z</time>
        <name>WPT.697</name>
      </trkpt>
      <trkpt lat="17.134336590" lon="-96.443398720">
        <ele>3108.000</ele>
        <time>2017-01-13T21:30:25Z</time>
        <name>WPT.698</name>
      </trkpt>
      <trkpt lat="17.134256770" lon="-96.443297860">
        <ele>3108.000</ele>
        <time>2017-01-13T21:30:26Z</time>
        <name>WPT.699</name>
      </trkpt>
      <trkpt lat="17.134245590" lon="-96.443239730">
        <ele>3107.000</ele>
        <time>2017-01-13T21:30:32Z</time>
        <name>WPT.700</name>
      </trkpt>
      <trkpt lat="17.134213460" lon="-96.443197950">
        <ele>3104.000</ele>
        <time>2017-01-13T21:30:34Z</time>
        <name>WPT.701</name>
      </trkpt>
      <trkpt lat="17.134194040" lon="-96.443160440">
        <ele>3105.000</ele>
        <time>2017-01-13T21:30:35Z</time>
        <name>WPT.702</name>
      </trkpt>
      <trkpt lat="17.134159700" lon="-96.443125580">
        <ele>3106.000</ele>
        <time>2017-01-13T21:30:36Z</time>
        <name>WPT.703</name>
      </trkpt>
      <trkpt lat="17.134143880" lon="-96.443077250">
        <ele>3108.000</ele>
        <time>2017-01-13T21:30:38Z</time>
        <name>WPT.704</name>
      </trkpt>
      <trkpt lat="17.134087950" lon="-96.442998920">
        <ele>3107.000</ele>
        <time>2017-01-13T21:30:39Z</time>
        <name>WPT.705</name>
      </trkpt>
      <trkpt lat="17.134016300" lon="-96.442957090">
        <ele>3107.000</ele>
        <time>2017-01-13T21:30:40Z</time>
        <name>WPT.706</name>
      </trkpt>
      <trkpt lat="17.133977970" lon="-96.442892030">
        <ele>3111.000</ele>
        <time>2017-01-13T21:30:41Z</time>
        <name>WPT.707</name>
      </trkpt>
      <trkpt lat="17.133915960" lon="-96.442810860">
        <ele>3113.000</ele>
        <time>2017-01-13T21:30:42Z</time>
        <name>WPT.708</name>
      </trkpt>
      <trkpt lat="17.133819140" lon="-96.442774220">
        <ele>3112.000</ele>
        <time>2017-01-13T21:30:43Z</time>
        <name>WPT.709</name>
      </trkpt>
      <trkpt lat="17.133698260" lon="-96.442784930">
        <ele>3111.000</ele>
        <time>2017-01-13T21:30:44Z</time>
        <name>WPT.710</name>
      </trkpt>
      <trkpt lat="17.133586990" lon="-96.442850380">
        <ele>3114.000</ele>
        <time>2017-01-13T21:30:45Z</time>
        <name>WPT.711</name>
      </trkpt>
      <trkpt lat="17.133488720" lon="-96.442832290">
        <ele>3116.000</ele>
        <time>2017-01-13T21:30:46Z</time>
        <name>WPT.712</name>
      </trkpt>
      <trkpt lat="17.133392070" lon="-96.442857520">
        <ele>3115.000</ele>
        <time>2017-01-13T21:30:47Z</time>
        <name>WPT.713</name>
      </trkpt>
      <trkpt lat="17.133362450" lon="-96.442820070">
        <ele>3115.000</ele>
        <time>2017-01-13T21:30:48Z</time>
        <name>WPT.714</name>
      </trkpt>
      <trkpt lat="17.133337900" lon="-96.442764770">
        <ele>3113.000</ele>
        <time>2017-01-13T21:30:50Z</time>
        <name>WPT.715</name>
      </trkpt>
      <trkpt lat="17.133304160" lon="-96.442785910">
        <ele>3112.000</ele>
        <time>2017-01-13T21:30:52Z</time>
        <name>WPT.716</name>
      </trkpt>
      <trkpt lat="17.133236710" lon="-96.442754540">
        <ele>3113.000</ele>
        <time>2017-01-13T21:30:54Z</time>
        <name>WPT.717</name>
      </trkpt>
      <trkpt lat="17.133200360" lon="-96.442717210">
        <ele>3114.000</ele>
        <time>2017-01-13T21:30:56Z</time>
        <name>WPT.718</name>
      </trkpt>
      <trkpt lat="17.133162860" lon="-96.442709050">
        <ele>3115.000</ele>
        <time>2017-01-13T21:30:58Z</time>
        <name>WPT.719</name>
      </trkpt>
      <trkpt lat="17.133109670" lon="-96.442717280">
        <ele>3114.000</ele>
        <time>2017-01-13T21:31:00Z</time>
        <name>WPT.720</name>
      </trkpt>
      <trkpt lat="17.133054730" lon="-96.442690460">
        <ele>3115.000</ele>
        <time>2017-01-13T21:31:01Z</time>
        <name>WPT.721</name>
      </trkpt>
      <trkpt lat="17.133006960" lon="-96.442670200">
        <ele>3115.000</ele>
        <time>2017-01-13T21:31:02Z</time>
        <name>WPT.722</name>
      </trkpt>
      <trkpt lat="17.132960580" lon="-96.442634950">
        <ele>3113.000</ele>
        <time>2017-01-13T21:31:03Z</time>
        <name>WPT.723</name>
      </trkpt>
      <trkpt lat="17.132890600" lon="-96.442620810">
        <ele>3113.000</ele>
        <time>2017-01-13T21:31:04Z</time>
        <name>WPT.724</name>
      </trkpt>
      <trkpt lat="17.132820710" lon="-96.442608250">
        <ele>3113.000</ele>
        <time>2017-01-13T21:31:05Z</time>
        <name>WPT.725</name>
      </trkpt>
      <trkpt lat="17.132717640" lon="-96.442586250">
        <ele>3112.000</ele>
        <time>2017-01-13T21:31:06Z</time>
        <name>WPT.726</name>
      </trkpt>
      <trkpt lat="17.132659760" lon="-96.442555370">
        <ele>3112.000</ele>
        <time>2017-01-13T21:31:07Z</time>
        <name>WPT.727</name>
      </trkpt>
      <trkpt lat="17.132600280" lon="-96.442551880">
        <ele>3113.000</ele>
        <time>2017-01-13T21:31:08Z</time>
        <name>WPT.728</name>
      </trkpt>
      <trkpt lat="17.132544830" lon="-96.442476060">
        <ele>3113.000</ele>
        <time>2017-01-13T21:31:09Z</time>
        <name>WPT.729</name>
      </trkpt>
      <trkpt lat="17.132492890" lon="-96.442437080">
        <ele>3112.000</ele>
        <time>2017-01-13T21:31:10Z</time>
        <name>WPT.730</name>
      </trkpt>
      <trkpt lat="17.132428090" lon="-96.442425240">
        <ele>3113.000</ele>
        <time>2017-01-13T21:31:11Z</time>
        <name>WPT.731</name>
      </trkpt>
      <trkpt lat="17.132346640" lon="-96.442427350">
        <ele>3111.000</ele>
        <time>2017-01-13T21:31:13Z</time>
        <name>WPT.732</name>
      </trkpt>
      <trkpt lat="17.132300450" lon="-96.442406950">
        <ele>3111.000</ele>
        <time>2017-01-13T21:31:14Z</time>
        <name>WPT.733</name>
      </trkpt>
      <trkpt lat="17.132254650" lon="-96.442359300">
        <ele>3110.000</ele>
        <time>2017-01-13T21:31:15Z</time>
        <name>WPT.734</name>
      </trkpt>
      <trkpt lat="17.132236890" lon="-96.442310480">
        <ele>3111.000</ele>
        <time>2017-01-13T21:31:18Z</time>
        <name>WPT.735</name>
      </trkpt>
      <trkpt lat="17.132195950" lon="-96.442296660">
        <ele>3112.000</ele>
        <time>2017-01-13T21:31:20Z</time>
        <name>WPT.736</name>
      </trkpt>
      <trkpt lat="17.132163090" lon="-96.442262790">
        <ele>3114.000</ele>
        <time>2017-01-13T21:31:23Z</time>
        <name>WPT.737</name>
      </trkpt>
      <trkpt lat="17.132120120" lon="-96.442235020">
        <ele>3111.000</ele>
        <time>2017-01-13T21:31:26Z</time>
        <name>WPT.738</name>
      </trkpt>
      <trkpt lat="17.132046860" lon="-96.442162700">
        <ele>3111.000</ele>
        <time>2017-01-13T21:31:27Z</time>
        <name>WPT.739</name>
      </trkpt>
      <trkpt lat="17.131960720" lon="-96.442111840">
        <ele>3110.000</ele>
        <time>2017-01-13T21:31:28Z</time>
        <name>WPT.740</name>
      </trkpt>
      <trkpt lat="17.131887420" lon="-96.442083990">
        <ele>3109.000</ele>
        <time>2017-01-13T21:31:29Z</time>
        <name>WPT.741</name>
      </trkpt>
      <trkpt lat="17.131790570" lon="-96.441999410">
        <ele>3108.000</ele>
        <time>2017-01-13T21:31:30Z</time>
        <name>WPT.742</name>
      </trkpt>
      <trkpt lat="17.131721390" lon="-96.441981320">
        <ele>3107.000</ele>
        <time>2017-01-13T21:31:31Z</time>
        <name>WPT.743</name>
      </trkpt>
      <trkpt lat="17.131654080" lon="-96.441952310">
        <ele>3107.000</ele>
        <time>2017-01-13T21:31:32Z</time>
        <name>WPT.744</name>
      </trkpt>
      <trkpt lat="17.131571020" lon="-96.441931100">
        <ele>3107.000</ele>
        <time>2017-01-13T21:31:33Z</time>
        <name>WPT.745</name>
      </trkpt>
      <trkpt lat="17.131486890" lon="-96.441888530">
        <ele>3106.000</ele>
        <time>2017-01-13T21:31:34Z</time>
        <name>WPT.746</name>
      </trkpt>
      <trkpt lat="17.131418550" lon="-96.441886550">
        <ele>3106.000</ele>
        <time>2017-01-13T21:31:35Z</time>
        <name>WPT.747</name>
      </trkpt>
      <trkpt lat="17.131355190" lon="-96.441883020">
        <ele>3105.000</ele>
        <time>2017-01-13T21:31:36Z</time>
        <name>WPT.748</name>
      </trkpt>
      <trkpt lat="17.131276710" lon="-96.441891460">
        <ele>3105.000</ele>
        <time>2017-01-13T21:31:37Z</time>
        <name>WPT.749</name>
      </trkpt>
      <trkpt lat="17.131191230" lon="-96.441895860">
        <ele>3105.000</ele>
        <time>2017-01-13T21:31:38Z</time>
        <name>WPT.750</name>
      </trkpt>
      <trkpt lat="17.131106750" lon="-96.441906270">
        <ele>3106.000</ele>
        <time>2017-01-13T21:31:39Z</time>
        <name>WPT.751</name>
      </trkpt>
      <trkpt lat="17.131034400" lon="-96.441901680">
        <ele>3105.000</ele>
        <time>2017-01-13T21:31:40Z</time>
        <name>WPT.752</name>
      </trkpt>
      <trkpt lat="17.130949950" lon="-96.441902190">
        <ele>3106.000</ele>
        <time>2017-01-13T21:31:41Z</time>
        <name>WPT.753</name>
      </trkpt>
      <trkpt lat="17.130846220" lon="-96.441912480">
        <ele>3103.000</ele>
        <time>2017-01-13T21:31:42Z</time>
        <name>WPT.754</name>
      </trkpt>
      <trkpt lat="17.130773210" lon="-96.441946400">
        <ele>3102.000</ele>
        <time>2017-01-13T21:31:43Z</time>
        <name>WPT.755</name>
      </trkpt>
      <trkpt lat="17.130688060" lon="-96.441988470">
        <ele>3103.000</ele>
        <time>2017-01-13T21:31:44Z</time>
        <name>WPT.756</name>
      </trkpt>
      <trkpt lat="17.130702000" lon="-96.442064690">
        <ele>3101.000</ele>
        <time>2017-01-13T21:31:46Z</time>
        <name>WPT.757</name>
      </trkpt>
      <trkpt lat="17.130565270" lon="-96.442054970">
        <ele>3101.000</ele>
        <time>2017-01-13T21:31:47Z</time>
        <name>WPT.758</name>
      </trkpt>
      <trkpt lat="17.130532310" lon="-96.442154700">
        <ele>3102.000</ele>
        <time>2017-01-13T21:31:48Z</time>
        <name>WPT.759</name>
      </trkpt>
      <trkpt lat="17.130446750" lon="-96.442052890">
        <ele>3102.000</ele>
        <time>2017-01-13T21:31:49Z</time>
        <name>WPT.760</name>
      </trkpt>
      <trkpt lat="17.130434840" lon="-96.442090090">
        <ele>3103.000</ele>
        <time>2017-01-13T21:31:50Z</time>
        <name>WPT.761</name>
      </trkpt>
      <trkpt lat="17.130407000" lon="-96.442131660">
        <ele>3102.000</ele>
        <time>2017-01-13T21:31:51Z</time>
        <name>WPT.762</name>
      </trkpt>
      <trkpt lat="17.130321920" lon="-96.442140920">
        <ele>3100.000</ele>
        <time>2017-01-13T21:31:53Z</time>
        <name>WPT.763</name>
      </trkpt>
      <trkpt lat="17.130275580" lon="-96.442143640">
        <ele>3099.000</ele>
        <time>2017-01-13T21:31:54Z</time>
        <name>WPT.764</name>
      </trkpt>
      <trkpt lat="17.130186720" lon="-96.442116210">
        <ele>3101.000</ele>
        <time>2017-01-13T21:31:55Z</time>
        <name>WPT.765</name>
      </trkpt>
      <trkpt lat="17.130099280" lon="-96.442096320">
        <ele>3102.000</ele>
        <time>2017-01-13T21:31:56Z</time>
        <name>WPT.766</name>
      </trkpt>
      <trkpt lat="17.130003320" lon="-96.442040110">
        <ele>3104.000</ele>
        <time>2017-01-13T21:31:57Z</time>
        <name>WPT.767</name>
      </trkpt>
      <trkpt lat="17.129934260" lon="-96.442031790">
        <ele>3103.000</ele>
        <time>2017-01-13T21:31:58Z</time>
        <name>WPT.768</name>
      </trkpt>
      <trkpt lat="17.129856610" lon="-96.442016670">
        <ele>3101.000</ele>
        <time>2017-01-13T21:31:59Z</time>
        <name>WPT.769</name>
      </trkpt>
      <trkpt lat="17.129769100" lon="-96.442026050">
        <ele>3102.000</ele>
        <time>2017-01-13T21:32:00Z</time>
        <name>WPT.770</name>
      </trkpt>
      <trkpt lat="17.129690160" lon="-96.442001780">
        <ele>3103.000</ele>
        <time>2017-01-13T21:32:01Z</time>
        <name>WPT.771</name>
      </trkpt>
      <trkpt lat="17.129613740" lon="-96.442005650">
        <ele>3102.000</ele>
        <time>2017-01-13T21:32:02Z</time>
        <name>WPT.772</name>
      </trkpt>
      <trkpt lat="17.129537840" lon="-96.442024260">
        <ele>3102.000</ele>
        <time>2017-01-13T21:32:03Z</time>
        <name>WPT.773</name>
      </trkpt>
      <trkpt lat="17.129513750" lon="-96.442094240">
        <ele>3102.000</ele>
        <time>2017-01-13T21:32:04Z</time>
        <name>WPT.774</name>
      </trkpt>
      <trkpt lat="17.129497200" lon="-96.442197330">
        <ele>3103.000</ele>
        <time>2017-01-13T21:32:05Z</time>
        <name>WPT.775</name>
      </trkpt>
      <trkpt lat="17.129544170" lon="-96.442429280">
        <ele>3103.000</ele>
        <time>2017-01-13T21:32:06Z</time>
        <name>WPT.776</name>
      </trkpt>
      <trkpt lat="17.129531610" lon="-96.442546310">
        <ele>3104.000</ele>
        <time>2017-01-13T21:32:07Z</time>
        <name>WPT.777</name>
      </trkpt>
      <trkpt lat="17.129512970" lon="-96.442679830">
        <ele>3104.000</ele>
        <time>2017-01-13T21:32:08Z</time>
        <name>WPT.778</name>
      </trkpt>
      <trkpt lat="17.129567740" lon="-96.442804340">
        <ele>3104.000</ele>
        <time>2017-01-13T21:32:09Z</time>
        <name>WPT.779</name>
      </trkpt>
      <trkpt lat="17.129600110" lon="-96.442942090">
        <ele>3104.000</ele>
        <time>2017-01-13T21:32:10Z</time>
        <name>WPT.780</name>
      </trkpt>
      <trkpt lat="17.129617150" lon="-96.443082380">
        <ele>3103.000</ele>
        <time>2017-01-13T21:32:11Z</time>
        <name>WPT.781</name>
      </trkpt>
      <trkpt lat="17.129632630" lon="-96.443203820">
        <ele>3103.000</ele>
        <time>2017-01-13T21:32:12Z</time>
        <name>WPT.782</name>
      </trkpt>
      <trkpt lat="17.129675830" lon="-96.443325280">
        <ele>3103.000</ele>
        <time>2017-01-13T21:32:13Z</time>
        <name>WPT.783</name>
      </trkpt>
      <trkpt lat="17.129699110" lon="-96.443414430">
        <ele>3104.000</ele>
        <time>2017-01-13T21:32:14Z</time>
        <name>WPT.784</name>
      </trkpt>
      <trkpt lat="17.129733120" lon="-96.443526170">
        <ele>3104.000</ele>
        <time>2017-01-13T21:32:15Z</time>
        <name>WPT.785</name>
      </trkpt>
      <trkpt lat="17.129753390" lon="-96.443625360">
        <ele>3104.000</ele>
        <time>2017-01-13T21:32:16Z</time>
        <name>WPT.786</name>
      </trkpt>
      <trkpt lat="17.129809820" lon="-96.443727250">
        <ele>3105.000</ele>
        <time>2017-01-13T21:32:17Z</time>
        <name>WPT.787</name>
      </trkpt>
      <trkpt lat="17.129876120" lon="-96.443779980">
        <ele>3106.000</ele>
        <time>2017-01-13T21:32:18Z</time>
        <name>WPT.788</name>
      </trkpt>
      <trkpt lat="17.129914040" lon="-96.443828890">
        <ele>3106.000</ele>
        <time>2017-01-13T21:32:19Z</time>
        <name>WPT.789</name>
      </trkpt>
      <trkpt lat="17.129937600" lon="-96.443874650">
        <ele>3106.000</ele>
        <time>2017-01-13T21:32:20Z</time>
        <name>WPT.790</name>
      </trkpt>
      <trkpt lat="17.129961200" lon="-96.443916920">
        <ele>3106.000</ele>
        <time>2017-01-13T21:32:21Z</time>
        <name>WPT.791</name>
      </trkpt>
      <trkpt lat="17.129981330" lon="-96.443949800">
        <ele>3106.000</ele>
        <time>2017-01-13T21:32:22Z</time>
        <name>WPT.792</name>
      </trkpt>
      <trkpt lat="17.129957200" lon="-96.443994200">
        <ele>3105.000</ele>
        <time>2017-01-13T21:32:24Z</time>
        <name>WPT.793</name>
      </trkpt>
      <trkpt lat="17.129975530" lon="-96.444047690">
        <ele>3104.000</ele>
        <time>2017-01-13T21:32:25Z</time>
        <name>WPT.794</name>
      </trkpt>
      <trkpt lat="17.130019020" lon="-96.444152750">
        <ele>3106.000</ele>
        <time>2017-01-13T21:32:27Z</time>
        <name>WPT.795</name>
      </trkpt>
      <trkpt lat="17.130085420" lon="-96.444209810">
        <ele>3106.000</ele>
        <time>2017-01-13T21:32:28Z</time>
        <name>WPT.796</name>
      </trkpt>
      <trkpt lat="17.130114830" lon="-96.444277530">
        <ele>3107.000</ele>
        <time>2017-01-13T21:32:29Z</time>
        <name>WPT.797</name>
      </trkpt>
      <trkpt lat="17.130100260" lon="-96.444316630">
        <ele>3107.000</ele>
        <time>2017-01-13T21:32:30Z</time>
        <name>WPT.798</name>
      </trkpt>
      <trkpt lat="17.130113530" lon="-96.444403210">
        <ele>3109.000</ele>
        <time>2017-01-13T21:32:31Z</time>
        <name>WPT.799</name>
      </trkpt>
      <trkpt lat="17.130157550" lon="-96.444440600">
        <ele>3109.000</ele>
        <time>2017-01-13T21:32:32Z</time>
        <name>WPT.800</name>
      </trkpt>
      <trkpt lat="17.130182160" lon="-96.444477660">
        <ele>3108.000</ele>
        <time>2017-01-13T21:32:33Z</time>
        <name>WPT.801</name>
      </trkpt>
      <trkpt lat="17.130195090" lon="-96.444527320">
        <ele>3108.000</ele>
        <time>2017-01-13T21:32:34Z</time>
        <name>WPT.802</name>
      </trkpt>
      <trkpt lat="17.130196320" lon="-96.444570070">
        <ele>3108.000</ele>
        <time>2017-01-13T21:32:35Z</time>
        <name>WPT.803</name>
      </trkpt>
      <trkpt lat="17.130153910" lon="-96.444608760">
        <ele>3110.000</ele>
        <time>2017-01-13T21:32:36Z</time>
        <name>WPT.804</name>
      </trkpt>
      <trkpt lat="17.130098790" lon="-96.444656940">
        <ele>3110.000</ele>
        <time>2017-01-13T21:32:37Z</time>
        <name>WPT.805</name>
      </trkpt>
      <trkpt lat="17.130040990" lon="-96.444599470">
        <ele>3109.000</ele>
        <time>2017-01-13T21:32:38Z</time>
        <name>WPT.806</name>
      </trkpt>
      <trkpt lat="17.129978870" lon="-96.444627030">
        <ele>3109.000</ele>
        <time>2017-01-13T21:32:39Z</time>
        <name>WPT.807</name>
      </trkpt>
      <trkpt lat="17.129919540" lon="-96.444633010">
        <ele>3109.000</ele>
        <time>2017-01-13T21:32:40Z</time>
        <name>WPT.808</name>
      </trkpt>
      <trkpt lat="17.129887760" lon="-96.444596230">
        <ele>3109.000</ele>
        <time>2017-01-13T21:32:41Z</time>
        <name>WPT.809</name>
      </trkpt>
      <trkpt lat="17.129841280" lon="-96.444588680">
        <ele>3111.000</ele>
        <time>2017-01-13T21:32:42Z</time>
        <name>WPT.810</name>
      </trkpt>
      <trkpt lat="17.129799060" lon="-96.444523460">
        <ele>3111.000</ele>
        <time>2017-01-13T21:32:43Z</time>
        <name>WPT.811</name>
      </trkpt>
      <trkpt lat="17.129762440" lon="-96.444480010">
        <ele>3111.000</ele>
        <time>2017-01-13T21:32:44Z</time>
        <name>WPT.812</name>
      </trkpt>
      <trkpt lat="17.129719680" lon="-96.444466120">
        <ele>3112.000</ele>
        <time>2017-01-13T21:32:45Z</time>
        <name>WPT.813</name>
      </trkpt>
      <trkpt lat="17.129684230" lon="-96.444430380">
        <ele>3111.000</ele>
        <time>2017-01-13T21:32:46Z</time>
        <name>WPT.814</name>
      </trkpt>
      <trkpt lat="17.129644810" lon="-96.444401430">
        <ele>3110.000</ele>
        <time>2017-01-13T21:32:47Z</time>
        <name>WPT.815</name>
      </trkpt>
      <trkpt lat="17.129606020" lon="-96.444377890">
        <ele>3111.000</ele>
        <time>2017-01-13T21:32:48Z</time>
        <name>WPT.816</name>
      </trkpt>
      <trkpt lat="17.129558250" lon="-96.444356140">
        <ele>3111.000</ele>
        <time>2017-01-13T21:32:49Z</time>
        <name>WPT.817</name>
      </trkpt>
      <trkpt lat="17.129507410" lon="-96.444337080">
        <ele>3111.000</ele>
        <time>2017-01-13T21:32:50Z</time>
        <name>WPT.818</name>
      </trkpt>
      <trkpt lat="17.129457170" lon="-96.444307260">
        <ele>3112.000</ele>
        <time>2017-01-13T21:32:51Z</time>
        <name>WPT.819</name>
      </trkpt>
      <trkpt lat="17.129418060" lon="-96.444262570">
        <ele>3112.000</ele>
        <time>2017-01-13T21:32:52Z</time>
        <name>WPT.820</name>
      </trkpt>
      <trkpt lat="17.129369190" lon="-96.444221140">
        <ele>3111.000</ele>
        <time>2017-01-13T21:32:53Z</time>
        <name>WPT.821</name>
      </trkpt>
      <trkpt lat="17.129313620" lon="-96.444187660">
        <ele>3111.000</ele>
        <time>2017-01-13T21:32:54Z</time>
        <name>WPT.822</name>
      </trkpt>
      <trkpt lat="17.129254280" lon="-96.444145640">
        <ele>3111.000</ele>
        <time>2017-01-13T21:32:55Z</time>
        <name>WPT.823</name>
      </trkpt>
      <trkpt lat="17.129157560" lon="-96.444097970">
        <ele>3111.000</ele>
        <time>2017-01-13T21:32:56Z</time>
        <name>WPT.824</name>
      </trkpt>
      <trkpt lat="17.129077720" lon="-96.444033390">
        <ele>3113.000</ele>
        <time>2017-01-13T21:32:57Z</time>
        <name>WPT.825</name>
      </trkpt>
      <trkpt lat="17.128997020" lon="-96.444012080">
        <ele>3113.000</ele>
        <time>2017-01-13T21:32:58Z</time>
        <name>WPT.826</name>
      </trkpt>
      <trkpt lat="17.128883060" lon="-96.443966320">
        <ele>3113.000</ele>
        <time>2017-01-13T21:32:59Z</time>
        <name>WPT.827</name>
      </trkpt>
      <trkpt lat="17.128810590" lon="-96.443919490">
        <ele>3113.000</ele>
        <time>2017-01-13T21:33:00Z</time>
        <name>WPT.828</name>
      </trkpt>
      <trkpt lat="17.128756480" lon="-96.443872260">
        <ele>3113.000</ele>
        <time>2017-01-13T21:33:01Z</time>
        <name>WPT.829</name>
      </trkpt>
      <trkpt lat="17.128686090" lon="-96.443829700">
        <ele>3112.000</ele>
        <time>2017-01-13T21:33:02Z</time>
        <name>WPT.830</name>
      </trkpt>
      <trkpt lat="17.128554740" lon="-96.443775020">
        <ele>3111.000</ele>
        <time>2017-01-13T21:33:03Z</time>
        <name>WPT.831</name>
      </trkpt>
      <trkpt lat="17.128449850" lon="-96.443764040">
        <ele>3111.000</ele>
        <time>2017-01-13T21:33:04Z</time>
        <name>WPT.832</name>
      </trkpt>
      <trkpt lat="17.128398680" lon="-96.443723500">
        <ele>3112.000</ele>
        <time>2017-01-13T21:33:05Z</time>
        <name>WPT.833</name>
      </trkpt>
      <trkpt lat="17.128289030" lon="-96.443692140">
        <ele>3110.000</ele>
        <time>2017-01-13T21:33:06Z</time>
        <name>WPT.834</name>
      </trkpt>
      <trkpt lat="17.128186990" lon="-96.443661760">
        <ele>3110.000</ele>
        <time>2017-01-13T21:33:07Z</time>
        <name>WPT.835</name>
      </trkpt>
      <trkpt lat="17.128098720" lon="-96.443606180">
        <ele>3110.000</ele>
        <time>2017-01-13T21:33:08Z</time>
        <name>WPT.836</name>
      </trkpt>
      <trkpt lat="17.128052870" lon="-96.443584160">
        <ele>3109.000</ele>
        <time>2017-01-13T21:33:09Z</time>
        <name>WPT.837</name>
      </trkpt>
      <trkpt lat="17.127994580" lon="-96.443538200">
        <ele>3109.000</ele>
        <time>2017-01-13T21:33:10Z</time>
        <name>WPT.838</name>
      </trkpt>
      <trkpt lat="17.127950120" lon="-96.443501190">
        <ele>3109.000</ele>
        <time>2017-01-13T21:33:11Z</time>
        <name>WPT.839</name>
      </trkpt>
      <trkpt lat="17.127859230" lon="-96.443611600">
        <ele>3107.000</ele>
        <time>2017-01-13T21:33:12Z</time>
        <name>WPT.840</name>
      </trkpt>
      <trkpt lat="17.127817070" lon="-96.443674380">
        <ele>3104.000</ele>
        <time>2017-01-13T21:33:13Z</time>
        <name>WPT.841</name>
      </trkpt>
      <trkpt lat="17.127782040" lon="-96.443805490">
        <ele>3103.000</ele>
        <time>2017-01-13T21:33:14Z</time>
        <name>WPT.842</name>
      </trkpt>
      <trkpt lat="17.127740380" lon="-96.443873840">
        <ele>3103.000</ele>
        <time>2017-01-13T21:33:15Z</time>
        <name>WPT.843</name>
      </trkpt>
      <trkpt lat="17.127640740" lon="-96.444123190">
        <ele>3102.000</ele>
        <time>2017-01-13T21:33:16Z</time>
        <name>WPT.844</name>
      </trkpt>
      <trkpt lat="17.127658890" lon="-96.444203250">
        <ele>3103.000</ele>
        <time>2017-01-13T21:33:17Z</time>
        <name>WPT.845</name>
      </trkpt>
      <trkpt lat="17.127583370" lon="-96.444340720">
        <ele>3103.000</ele>
        <time>2017-01-13T21:33:18Z</time>
        <name>WPT.846</name>
      </trkpt>
      <trkpt lat="17.127494230" lon="-96.444472730">
        <ele>3105.000</ele>
        <time>2017-01-13T21:33:19Z</time>
        <name>WPT.847</name>
      </trkpt>
      <trkpt lat="17.127427910" lon="-96.444636540">
        <ele>3106.000</ele>
        <time>2017-01-13T21:33:20Z</time>
        <name>WPT.848</name>
      </trkpt>
      <trkpt lat="17.127307230" lon="-96.444666870">
        <ele>3105.000</ele>
        <time>2017-01-13T21:33:21Z</time>
        <name>WPT.849</name>
      </trkpt>
      <trkpt lat="17.127178840" lon="-96.444710470">
        <ele>3105.000</ele>
        <time>2017-01-13T21:33:22Z</time>
        <name>WPT.850</name>
      </trkpt>
      <trkpt lat="17.127087700" lon="-96.444781740">
        <ele>3105.000</ele>
        <time>2017-01-13T21:33:23Z</time>
        <name>WPT.851</name>
      </trkpt>
      <trkpt lat="17.126979490" lon="-96.444824320">
        <ele>3106.000</ele>
        <time>2017-01-13T21:33:24Z</time>
        <name>WPT.852</name>
      </trkpt>
      <trkpt lat="17.126904840" lon="-96.444845820">
        <ele>3109.000</ele>
        <time>2017-01-13T21:33:25Z</time>
        <name>WPT.853</name>
      </trkpt>
      <trkpt lat="17.126813930" lon="-96.444820470">
        <ele>3111.000</ele>
        <time>2017-01-13T21:33:26Z</time>
        <name>WPT.854</name>
      </trkpt>
      <trkpt lat="17.126732180" lon="-96.444768880">
        <ele>3110.000</ele>
        <time>2017-01-13T21:33:27Z</time>
        <name>WPT.855</name>
      </trkpt>
      <trkpt lat="17.126654140" lon="-96.444714320">
        <ele>3112.000</ele>
        <time>2017-01-13T21:33:28Z</time>
        <name>WPT.856</name>
      </trkpt>
      <trkpt lat="17.126604410" lon="-96.444641040">
        <ele>3111.000</ele>
        <time>2017-01-13T21:33:29Z</time>
        <name>WPT.857</name>
      </trkpt>
      <trkpt lat="17.126521210" lon="-96.444552400">
        <ele>3112.000</ele>
        <time>2017-01-13T21:33:30Z</time>
        <name>WPT.858</name>
      </trkpt>
      <trkpt lat="17.126451000" lon="-96.444473700">
        <ele>3112.000</ele>
        <time>2017-01-13T21:33:31Z</time>
        <name>WPT.859</name>
      </trkpt>
      <trkpt lat="17.126400510" lon="-96.444409510">
        <ele>3111.000</ele>
        <time>2017-01-13T21:33:32Z</time>
        <name>WPT.860</name>
      </trkpt>
      <trkpt lat="17.126271540" lon="-96.444328120">
        <ele>3111.000</ele>
        <time>2017-01-13T21:33:33Z</time>
        <name>WPT.861</name>
      </trkpt>
      <trkpt lat="17.126186750" lon="-96.444259540">
        <ele>3113.000</ele>
        <time>2017-01-13T21:33:34Z</time>
        <name>WPT.862</name>
      </trkpt>
      <trkpt lat="17.126092630" lon="-96.444211290">
        <ele>3114.000</ele>
        <time>2017-01-13T21:33:35Z</time>
        <name>WPT.863</name>
      </trkpt>
      <trkpt lat="17.125990540" lon="-96.444218030">
        <ele>3114.000</ele>
        <time>2017-01-13T21:33:36Z</time>
        <name>WPT.864</name>
      </trkpt>
      <trkpt lat="17.125876220" lon="-96.444256170">
        <ele>3117.000</ele>
        <time>2017-01-13T21:33:37Z</time>
        <name>WPT.865</name>
      </trkpt>
      <trkpt lat="17.125766060" lon="-96.444227820">
        <ele>3119.000</ele>
        <time>2017-01-13T21:33:38Z</time>
        <name>WPT.866</name>
      </trkpt>
      <trkpt lat="17.125647370" lon="-96.444178710">
        <ele>3124.000</ele>
        <time>2017-01-13T21:33:39Z</time>
        <name>WPT.867</name>
      </trkpt>
      <trkpt lat="17.125574210" lon="-96.444219210">
        <ele>3124.000</ele>
        <time>2017-01-13T21:33:40Z</time>
        <name>WPT.868</name>
      </trkpt>
      <trkpt lat="17.125455500" lon="-96.444201540">
        <ele>3125.000</ele>
        <time>2017-01-13T21:33:41Z</time>
        <name>WPT.869</name>
      </trkpt>
      <trkpt lat="17.125328270" lon="-96.444207460">
        <ele>3126.000</ele>
        <time>2017-01-13T21:33:42Z</time>
        <name>WPT.870</name>
      </trkpt>
      <trkpt lat="17.125191020" lon="-96.444275560">
        <ele>3127.000</ele>
        <time>2017-01-13T21:33:43Z</time>
        <name>WPT.871</name>
      </trkpt>
      <trkpt lat="17.125074590" lon="-96.444396200">
        <ele>3129.000</ele>
        <time>2017-01-13T21:33:44Z</time>
        <name>WPT.872</name>
      </trkpt>
      <trkpt lat="17.124945500" lon="-96.444478640">
        <ele>3129.000</ele>
        <time>2017-01-13T21:33:45Z</time>
        <name>WPT.873</name>
      </trkpt>
      <trkpt lat="17.124810850" lon="-96.444537820">
        <ele>3130.000</ele>
        <time>2017-01-13T21:33:46Z</time>
        <name>WPT.874</name>
      </trkpt>
      <trkpt lat="17.124646090" lon="-96.444598860">
        <ele>3131.000</ele>
        <time>2017-01-13T21:33:47Z</time>
        <name>WPT.875</name>
      </trkpt>
      <trkpt lat="17.124519780" lon="-96.444654760">
        <ele>3133.000</ele>
        <time>2017-01-13T21:33:48Z</time>
        <name>WPT.876</name>
      </trkpt>
      <trkpt lat="17.124377200" lon="-96.444706000">
        <ele>3133.000</ele>
        <time>2017-01-13T21:33:49Z</time>
        <name>WPT.877</name>
      </trkpt>
      <trkpt lat="17.124262500" lon="-96.444762210">
        <ele>3132.000</ele>
        <time>2017-01-13T21:33:50Z</time>
        <name>WPT.878</name>
      </trkpt>
      <trkpt lat="17.124146930" lon="-96.444837570">
        <ele>3134.000</ele>
        <time>2017-01-13T21:33:51Z</time>
        <name>WPT.879</name>
      </trkpt>
      <trkpt lat="17.124034960" lon="-96.444889010">
        <ele>3135.000</ele>
        <time>2017-01-13T21:33:52Z</time>
        <name>WPT.880</name>
      </trkpt>
      <trkpt lat="17.123935350" lon="-96.444958850">
        <ele>3135.000</ele>
        <time>2017-01-13T21:33:53Z</time>
        <name>WPT.881</name>
      </trkpt>
      <trkpt lat="17.123858700" lon="-96.444987360">
        <ele>3136.000</ele>
        <time>2017-01-13T21:33:54Z</time>
        <name>WPT.882</name>
      </trkpt>
      <trkpt lat="17.123791550" lon="-96.445008760">
        <ele>3137.000</ele>
        <time>2017-01-13T21:33:55Z</time>
        <name>WPT.883</name>
      </trkpt>
      <trkpt lat="17.123737960" lon="-96.445017750">
        <ele>3137.000</ele>
        <time>2017-01-13T21:33:56Z</time>
        <name>WPT.884</name>
      </trkpt>
      <trkpt lat="17.123713990" lon="-96.445089430">
        <ele>3133.000</ele>
        <time>2017-01-13T21:33:57Z</time>
        <name>WPT.885</name>
      </trkpt>
      <trkpt lat="17.123678600" lon="-96.445140980">
        <ele>3133.000</ele>
        <time>2017-01-13T21:33:59Z</time>
        <name>WPT.886</name>
      </trkpt>
      <trkpt lat="17.123624630" lon="-96.445162970">
        <ele>3133.000</ele>
        <time>2017-01-13T21:34:01Z</time>
        <name>WPT.887</name>
      </trkpt>
      <trkpt lat="17.123594690" lon="-96.445196090">
        <ele>3133.000</ele>
        <time>2017-01-13T21:34:02Z</time>
        <name>WPT.888</name>
      </trkpt>
      <trkpt lat="17.123557860" lon="-96.445185520">
        <ele>3134.000</ele>
        <time>2017-01-13T21:34:04Z</time>
        <name>WPT.889</name>
      </trkpt>
      <trkpt lat="17.123531650" lon="-96.445214540">
        <ele>3134.000</ele>
        <time>2017-01-13T21:34:05Z</time>
        <name>WPT.890</name>
      </trkpt>
      <trkpt lat="17.123495720" lon="-96.445261110">
        <ele>3135.000</ele>
        <time>2017-01-13T21:34:07Z</time>
        <name>WPT.891</name>
      </trkpt>
      <trkpt lat="17.123442020" lon="-96.445268610">
        <ele>3135.000</ele>
        <time>2017-01-13T21:34:09Z</time>
        <name>WPT.892</name>
      </trkpt>
      <trkpt lat="17.123399610" lon="-96.445292740">
        <ele>3136.000</ele>
        <time>2017-01-13T21:34:10Z</time>
        <name>WPT.893</name>
      </trkpt>
      <trkpt lat="17.123412220" lon="-96.445222090">
        <ele>3135.000</ele>
        <time>2017-01-13T21:34:11Z</time>
        <name>WPT.894</name>
      </trkpt>
      <trkpt lat="17.123361930" lon="-96.445216860">
        <ele>3135.000</ele>
        <time>2017-01-13T21:34:12Z</time>
        <name>WPT.895</name>
      </trkpt>
      <trkpt lat="17.123321420" lon="-96.445248710">
        <ele>3136.000</ele>
        <time>2017-01-13T21:34:13Z</time>
        <name>WPT.896</name>
      </trkpt>
      <trkpt lat="17.123320990" lon="-96.445185750">
        <ele>3135.000</ele>
        <time>2017-01-13T21:34:14Z</time>
        <name>WPT.897</name>
      </trkpt>
      <trkpt lat="17.123306390" lon="-96.445246230">
        <ele>3137.000</ele>
        <time>2017-01-13T21:34:15Z</time>
        <name>WPT.898</name>
      </trkpt>
      <trkpt lat="17.123288280" lon="-96.445289930">
        <ele>3139.000</ele>
        <time>2017-01-13T21:34:16Z</time>
        <name>WPT.899</name>
      </trkpt>
      <trkpt lat="17.123239720" lon="-96.445348190">
        <ele>3138.000</ele>
        <time>2017-01-13T21:34:17Z</time>
        <name>WPT.900</name>
      </trkpt>
      <trkpt lat="17.123176530" lon="-96.445394360">
        <ele>3136.000</ele>
        <time>2017-01-13T21:34:19Z</time>
        <name>WPT.901</name>
      </trkpt>
      <trkpt lat="17.123111290" lon="-96.445449340">
        <ele>3137.000</ele>
        <time>2017-01-13T21:34:20Z</time>
        <name>WPT.902</name>
      </trkpt>
      <trkpt lat="17.123045790" lon="-96.445495910">
        <ele>3136.000</ele>
        <time>2017-01-13T21:34:21Z</time>
        <name>WPT.903</name>
      </trkpt>
      <trkpt lat="17.122960160" lon="-96.445525450">
        <ele>3137.000</ele>
        <time>2017-01-13T21:34:22Z</time>
        <name>WPT.904</name>
      </trkpt>
      <trkpt lat="17.122881000" lon="-96.445565680">
        <ele>3138.000</ele>
        <time>2017-01-13T21:34:23Z</time>
        <name>WPT.905</name>
      </trkpt>
      <trkpt lat="17.122789940" lon="-96.445585420">
        <ele>3137.000</ele>
        <time>2017-01-13T21:34:24Z</time>
        <name>WPT.906</name>
      </trkpt>
      <trkpt lat="17.122704120" lon="-96.445603620">
        <ele>3137.000</ele>
        <time>2017-01-13T21:34:25Z</time>
        <name>WPT.907</name>
      </trkpt>
      <trkpt lat="17.122625860" lon="-96.445625280">
        <ele>3137.000</ele>
        <time>2017-01-13T21:34:26Z</time>
        <name>WPT.908</name>
      </trkpt>
      <trkpt lat="17.122540050" lon="-96.445655090">
        <ele>3136.000</ele>
        <time>2017-01-13T21:34:27Z</time>
        <name>WPT.909</name>
      </trkpt>
      <trkpt lat="17.122450230" lon="-96.445721160">
        <ele>3137.000</ele>
        <time>2017-01-13T21:34:28Z</time>
        <name>WPT.910</name>
      </trkpt>
      <trkpt lat="17.122359450" lon="-96.445749720">
        <ele>3137.000</ele>
        <time>2017-01-13T21:34:29Z</time>
        <name>WPT.911</name>
      </trkpt>
      <trkpt lat="17.122270620" lon="-96.445798680">
        <ele>3136.000</ele>
        <time>2017-01-13T21:34:30Z</time>
        <name>WPT.912</name>
      </trkpt>
      <trkpt lat="17.122165760" lon="-96.445822450">
        <ele>3136.000</ele>
        <time>2017-01-13T21:34:31Z</time>
        <name>WPT.913</name>
      </trkpt>
      <trkpt lat="17.122069650" lon="-96.445829140">
        <ele>3136.000</ele>
        <time>2017-01-13T21:34:32Z</time>
        <name>WPT.914</name>
      </trkpt>
      <trkpt lat="17.121950640" lon="-96.445851820">
        <ele>3137.000</ele>
        <time>2017-01-13T21:34:33Z</time>
        <name>WPT.915</name>
      </trkpt>
      <trkpt lat="17.121833870" lon="-96.445876210">
        <ele>3136.000</ele>
        <time>2017-01-13T21:34:34Z</time>
        <name>WPT.916</name>
      </trkpt>
      <trkpt lat="17.121731350" lon="-96.445900600">
        <ele>3135.000</ele>
        <time>2017-01-13T21:34:35Z</time>
        <name>WPT.917</name>
      </trkpt>
      <trkpt lat="17.121593120" lon="-96.445940360">
        <ele>3135.000</ele>
        <time>2017-01-13T21:34:36Z</time>
        <name>WPT.918</name>
      </trkpt>
      <trkpt lat="17.121483090" lon="-96.446004190">
        <ele>3134.000</ele>
        <time>2017-01-13T21:34:37Z</time>
        <name>WPT.919</name>
      </trkpt>
      <trkpt lat="17.121347670" lon="-96.446004740">
        <ele>3134.000</ele>
        <time>2017-01-13T21:34:38Z</time>
        <name>WPT.920</name>
      </trkpt>
      <trkpt lat="17.121221180" lon="-96.446075320">
        <ele>3134.000</ele>
        <time>2017-01-13T21:34:39Z</time>
        <name>WPT.921</name>
      </trkpt>
      <trkpt lat="17.121091440" lon="-96.446014990">
        <ele>3134.000</ele>
        <time>2017-01-13T21:34:40Z</time>
        <name>WPT.922</name>
      </trkpt>
      <trkpt lat="17.120968040" lon="-96.446120210">
        <ele>3133.000</ele>
        <time>2017-01-13T21:34:41Z</time>
        <name>WPT.923</name>
      </trkpt>
      <trkpt lat="17.120844410" lon="-96.446125780">
        <ele>3132.000</ele>
        <time>2017-01-13T21:34:42Z</time>
        <name>WPT.924</name>
      </trkpt>
      <trkpt lat="17.120731330" lon="-96.446221600">
        <ele>3133.000</ele>
        <time>2017-01-13T21:34:43Z</time>
        <name>WPT.925</name>
      </trkpt>
      <trkpt lat="17.120660020" lon="-96.446341060">
        <ele>3135.000</ele>
        <time>2017-01-13T21:34:44Z</time>
        <name>WPT.926</name>
      </trkpt>
      <trkpt lat="17.120546510" lon="-96.446469780">
        <ele>3135.000</ele>
        <time>2017-01-13T21:34:45Z</time>
        <name>WPT.927</name>
      </trkpt>
      <trkpt lat="17.120471480" lon="-96.446486760">
        <ele>3135.000</ele>
        <time>2017-01-13T21:34:46Z</time>
        <name>WPT.928</name>
      </trkpt>
      <trkpt lat="17.120352380" lon="-96.446571010">
        <ele>3135.000</ele>
        <time>2017-01-13T21:34:47Z</time>
        <name>WPT.929</name>
      </trkpt>
      <trkpt lat="17.120440340" lon="-96.446751740">
        <ele>3134.000</ele>
        <time>2017-01-13T21:34:48Z</time>
        <name>WPT.930</name>
      </trkpt>
      <trkpt lat="17.120394660" lon="-96.446857870">
        <ele>3134.000</ele>
        <time>2017-01-13T21:34:49Z</time>
        <name>WPT.931</name>
      </trkpt>
      <trkpt lat="17.120348140" lon="-96.446995710">
        <ele>3133.000</ele>
        <time>2017-01-13T21:34:50Z</time>
        <name>WPT.932</name>
      </trkpt>
      <trkpt lat="17.120375570" lon="-96.447136080">
        <ele>3134.000</ele>
        <time>2017-01-13T21:34:51Z</time>
        <name>WPT.933</name>
      </trkpt>
      <trkpt lat="17.120454300" lon="-96.447259470">
        <ele>3136.000</ele>
        <time>2017-01-13T21:34:52Z</time>
        <name>WPT.934</name>
      </trkpt>
      <trkpt lat="17.120455410" lon="-96.447366950">
        <ele>3137.000</ele>
        <time>2017-01-13T21:34:53Z</time>
        <name>WPT.935</name>
      </trkpt>
      <trkpt lat="17.120493040" lon="-96.447466800">
        <ele>3139.000</ele>
        <time>2017-01-13T21:34:54Z</time>
        <name>WPT.936</name>
      </trkpt>
      <trkpt lat="17.120507360" lon="-96.447563560">
        <ele>3141.000</ele>
        <time>2017-01-13T21:34:55Z</time>
        <name>WPT.937</name>
      </trkpt>
      <trkpt lat="17.120582950" lon="-96.447639090">
        <ele>3142.000</ele>
        <time>2017-01-13T21:34:56Z</time>
        <name>WPT.938</name>
      </trkpt>
      <trkpt lat="17.120599530" lon="-96.447700580">
        <ele>3141.000</ele>
        <time>2017-01-13T21:34:57Z</time>
        <name>WPT.939</name>
      </trkpt>
      <trkpt lat="17.120616570" lon="-96.447755280">
        <ele>3140.000</ele>
        <time>2017-01-13T21:34:58Z</time>
        <name>WPT.940</name>
      </trkpt>
      <trkpt lat="17.120635150" lon="-96.447844340">
        <ele>3143.000</ele>
        <time>2017-01-13T21:34:59Z</time>
        <name>WPT.941</name>
      </trkpt>
      <trkpt lat="17.120614890" lon="-96.447882560">
        <ele>3143.000</ele>
        <time>2017-01-13T21:35:00Z</time>
        <name>WPT.942</name>
      </trkpt>
      <trkpt lat="17.120571970" lon="-96.447947360">
        <ele>3144.000</ele>
        <time>2017-01-13T21:35:01Z</time>
        <name>WPT.943</name>
      </trkpt>
      <trkpt lat="17.120518170" lon="-96.448028870">
        <ele>3145.000</ele>
        <time>2017-01-13T21:35:02Z</time>
        <name>WPT.944</name>
      </trkpt>
      <trkpt lat="17.120431620" lon="-96.448054960">
        <ele>3147.000</ele>
        <time>2017-01-13T21:35:03Z</time>
        <name>WPT.945</name>
      </trkpt>
      <trkpt lat="17.120393570" lon="-96.448119650">
        <ele>3147.000</ele>
        <time>2017-01-13T21:35:04Z</time>
        <name>WPT.946</name>
      </trkpt>
      <trkpt lat="17.120339120" lon="-96.448162710">
        <ele>3150.000</ele>
        <time>2017-01-13T21:35:05Z</time>
        <name>WPT.947</name>
      </trkpt>
      <trkpt lat="17.120303710" lon="-96.448235580">
        <ele>3149.000</ele>
        <time>2017-01-13T21:35:06Z</time>
        <name>WPT.948</name>
      </trkpt>
      <trkpt lat="17.120251680" lon="-96.448221320">
        <ele>3150.000</ele>
        <time>2017-01-13T21:35:07Z</time>
        <name>WPT.949</name>
      </trkpt>
      <trkpt lat="17.120247900" lon="-96.448272750">
        <ele>3152.000</ele>
        <time>2017-01-13T21:35:08Z</time>
        <name>WPT.950</name>
      </trkpt>
      <trkpt lat="17.120179300" lon="-96.448370710">
        <ele>3152.000</ele>
        <time>2017-01-13T21:35:09Z</time>
        <name>WPT.951</name>
      </trkpt>
      <trkpt lat="17.120172500" lon="-96.448440750">
        <ele>3151.000</ele>
        <time>2017-01-13T21:35:10Z</time>
        <name>WPT.952</name>
      </trkpt>
      <trkpt lat="17.120253530" lon="-96.448509040">
        <ele>3153.000</ele>
        <time>2017-01-13T21:35:11Z</time>
        <name>WPT.953</name>
      </trkpt>
      <trkpt lat="17.120225790" lon="-96.448564480">
        <ele>3153.000</ele>
        <time>2017-01-13T21:35:12Z</time>
        <name>WPT.954</name>
      </trkpt>
      <trkpt lat="17.120230870" lon="-96.448659680">
        <ele>3153.000</ele>
        <time>2017-01-13T21:35:13Z</time>
        <name>WPT.955</name>
      </trkpt>
      <trkpt lat="17.120252730" lon="-96.448771930">
        <ele>3154.000</ele>
        <time>2017-01-13T21:35:14Z</time>
        <name>WPT.956</name>
      </trkpt>
      <trkpt lat="17.120309850" lon="-96.448847050">
        <ele>3154.000</ele>
        <time>2017-01-13T21:35:15Z</time>
        <name>WPT.957</name>
      </trkpt>
      <trkpt lat="17.120291670" lon="-96.448953570">
        <ele>3154.000</ele>
        <time>2017-01-13T21:35:16Z</time>
        <name>WPT.958</name>
      </trkpt>
      <trkpt lat="17.120306540" lon="-96.448994460">
        <ele>3154.000</ele>
        <time>2017-01-13T21:35:17Z</time>
        <name>WPT.959</name>
      </trkpt>
      <trkpt lat="17.120312830" lon="-96.449043520">
        <ele>3153.000</ele>
        <time>2017-01-13T21:35:18Z</time>
        <name>WPT.960</name>
      </trkpt>
      <trkpt lat="17.120356170" lon="-96.449026910">
        <ele>3152.000</ele>
        <time>2017-01-13T21:35:19Z</time>
        <name>WPT.961</name>
      </trkpt>
      <trkpt lat="17.120383860" lon="-96.449054070">
        <ele>3150.000</ele>
        <time>2017-01-13T21:35:21Z</time>
        <name>WPT.962</name>
      </trkpt>
      <trkpt lat="17.120369920" lon="-96.449114720">
        <ele>3151.000</ele>
        <time>2017-01-13T21:35:23Z</time>
        <name>WPT.963</name>
      </trkpt>
      <trkpt lat="17.120317760" lon="-96.449141780">
        <ele>3153.000</ele>
        <time>2017-01-13T21:35:24Z</time>
        <name>WPT.964</name>
      </trkpt>
      <trkpt lat="17.120272870" lon="-96.449191070">
        <ele>3154.000</ele>
        <time>2017-01-13T21:35:25Z</time>
        <name>WPT.965</name>
      </trkpt>
      <trkpt lat="17.120306860" lon="-96.449259640">
        <ele>3155.000</ele>
        <time>2017-01-13T21:35:27Z</time>
        <name>WPT.966</name>
      </trkpt>
      <trkpt lat="17.120274400" lon="-96.449304160">
        <ele>3157.000</ele>
        <time>2017-01-13T21:35:28Z</time>
        <name>WPT.967</name>
      </trkpt>
      <trkpt lat="17.120235110" lon="-96.449357680">
        <ele>3159.000</ele>
        <time>2017-01-13T21:35:29Z</time>
        <name>WPT.968</name>
      </trkpt>
      <trkpt lat="17.120151620" lon="-96.449332000">
        <ele>3158.000</ele>
        <time>2017-01-13T21:35:30Z</time>
        <name>WPT.969</name>
      </trkpt>
      <trkpt lat="17.120103470" lon="-96.449342970">
        <ele>3158.000</ele>
        <time>2017-01-13T21:35:31Z</time>
        <name>WPT.970</name>
      </trkpt>
      <trkpt lat="17.120060770" lon="-96.449362230">
        <ele>3159.000</ele>
        <time>2017-01-13T21:35:32Z</time>
        <name>WPT.971</name>
      </trkpt>
      <trkpt lat="17.120012590" lon="-96.449389160">
        <ele>3157.000</ele>
        <time>2017-01-13T21:35:33Z</time>
        <name>WPT.972</name>
      </trkpt>
      <trkpt lat="17.119996790" lon="-96.449433050">
        <ele>3155.000</ele>
        <time>2017-01-13T21:35:34Z</time>
        <name>WPT.973</name>
      </trkpt>
      <trkpt lat="17.120004410" lon="-96.449502260">
        <ele>3156.000</ele>
        <time>2017-01-13T21:35:35Z</time>
        <name>WPT.974</name>
      </trkpt>
      <trkpt lat="17.120007340" lon="-96.449574690">
        <ele>3155.000</ele>
        <time>2017-01-13T21:35:36Z</time>
        <name>WPT.975</name>
      </trkpt>
      <trkpt lat="17.119988580" lon="-96.449634590">
        <ele>3156.000</ele>
        <time>2017-01-13T21:35:37Z</time>
        <name>WPT.976</name>
      </trkpt>
      <trkpt lat="17.119984920" lon="-96.449701410">
        <ele>3154.000</ele>
        <time>2017-01-13T21:35:38Z</time>
        <name>WPT.977</name>
      </trkpt>
      <trkpt lat="17.119976650" lon="-96.449754740">
        <ele>3155.000</ele>
        <time>2017-01-13T21:35:39Z</time>
        <name>WPT.978</name>
      </trkpt>
      <trkpt lat="17.119952120" lon="-96.449804420">
        <ele>3155.000</ele>
        <time>2017-01-13T21:35:40Z</time>
        <name>WPT.979</name>
      </trkpt>
      <trkpt lat="17.119981340" lon="-96.449855250">
        <ele>3154.000</ele>
        <time>2017-01-13T21:35:41Z</time>
        <name>WPT.980</name>
      </trkpt>
      <trkpt lat="17.119936980" lon="-96.449850190">
        <ele>3154.000</ele>
        <time>2017-01-13T21:35:42Z</time>
        <name>WPT.981</name>
      </trkpt>
      <trkpt lat="17.119979690" lon="-96.449872330">
        <ele>3152.000</ele>
        <time>2017-01-13T21:35:43Z</time>
        <name>WPT.982</name>
      </trkpt>
      <trkpt lat="17.120024190" lon="-96.449910850">
        <ele>3151.000</ele>
        <time>2017-01-13T21:35:45Z</time>
        <name>WPT.983</name>
      </trkpt>
      <trkpt lat="17.119959090" lon="-96.449946240">
        <ele>3152.000</ele>
        <time>2017-01-13T21:35:46Z</time>
        <name>WPT.984</name>
      </trkpt>
      <trkpt lat="17.119946450" lon="-96.449996710">
        <ele>3151.000</ele>
        <time>2017-01-13T21:35:47Z</time>
        <name>WPT.985</name>
      </trkpt>
      <trkpt lat="17.119912080" lon="-96.450082410">
        <ele>3151.000</ele>
        <time>2017-01-13T21:35:48Z</time>
        <name>WPT.986</name>
      </trkpt>
      <trkpt lat="17.119881260" lon="-96.450144780">
        <ele>3149.000</ele>
        <time>2017-01-13T21:35:49Z</time>
        <name>WPT.987</name>
      </trkpt>
      <trkpt lat="17.119835420" lon="-96.450206370">
        <ele>3150.000</ele>
        <time>2017-01-13T21:35:50Z</time>
        <name>WPT.988</name>
      </trkpt>
      <trkpt lat="17.119830750" lon="-96.450288690">
        <ele>3150.000</ele>
        <time>2017-01-13T21:35:51Z</time>
        <name>WPT.989</name>
      </trkpt>
      <trkpt lat="17.119797320" lon="-96.450356090">
        <ele>3150.000</ele>
        <time>2017-01-13T21:35:52Z</time>
        <name>WPT.990</name>
      </trkpt>
      <trkpt lat="17.119810690" lon="-96.450460990">
        <ele>3151.000</ele>
        <time>2017-01-13T21:35:53Z</time>
        <name>WPT.991</name>
      </trkpt>
      <trkpt lat="17.119782080" lon="-96.450497470">
        <ele>3149.000</ele>
        <time>2017-01-13T21:35:54Z</time>
        <name>WPT.992</name>
      </trkpt>
      <trkpt lat="17.119734070" lon="-96.450575230">
        <ele>3151.000</ele>
        <time>2017-01-13T21:35:55Z</time>
        <name>WPT.993</name>
      </trkpt>
      <trkpt lat="17.119764690" lon="-96.450596360">
        <ele>3152.000</ele>
        <time>2017-01-13T21:35:56Z</time>
        <name>WPT.994</name>
      </trkpt>
      <trkpt lat="17.119755400" lon="-96.450519110">
        <ele>3150.000</ele>
        <time>2017-01-13T21:35:57Z</time>
        <name>WPT.995</name>
      </trkpt>
      <trkpt lat="17.119764990" lon="-96.450569330">
        <ele>3150.000</ele>
        <time>2017-01-13T21:35:59Z</time>
        <name>WPT.996</name>
      </trkpt>
      <trkpt lat="17.119709140" lon="-96.450557160">
        <ele>3151.000</ele>
        <time>2017-01-13T21:36:00Z</time>
        <name>WPT.997</name>
      </trkpt>
      <trkpt lat="17.119676310" lon="-96.450611270">
        <ele>3150.000</ele>
        <time>2017-01-13T21:36:01Z</time>
        <name>WPT.998</name>
      </trkpt>
      <trkpt lat="17.119677850" lon="-96.450654660">
        <ele>3150.000</ele>
        <time>2017-01-13T21:36:02Z</time>
        <name>WPT.999</name>
      </trkpt>
      <trkpt lat="17.119658340" lon="-96.450727670">
        <ele>3150.000</ele>
        <time>2017-01-13T21:36:04Z</time>
        <name>WPT.1000</name>
      </trkpt>
      <trkpt lat="17.119620880" lon="-96.450844750">
        <ele>3153.000</ele>
        <time>2017-01-13T21:36:06Z</time>
        <name>WPT.1001</name>
      </trkpt>
      <trkpt lat="17.119558340" lon="-96.450899400">
        <ele>3151.000</ele>
        <time>2017-01-13T21:36:07Z</time>
        <name>WPT.1002</name>
      </trkpt>
      <trkpt lat="17.119511740" lon="-96.450950070">
        <ele>3149.000</ele>
        <time>2017-01-13T21:36:08Z</time>
        <name>WPT.1003</name>
      </trkpt>
      <trkpt lat="17.119478930" lon="-96.451038710">
        <ele>3150.000</ele>
        <time>2017-01-13T21:36:09Z</time>
        <name>WPT.1004</name>
      </trkpt>
      <trkpt lat="17.119521620" lon="-96.451017940">
        <ele>3149.000</ele>
        <time>2017-01-13T21:36:10Z</time>
        <name>WPT.1005</name>
      </trkpt>
      <trkpt lat="17.119556070" lon="-96.451058060">
        <ele>3148.000</ele>
        <time>2017-01-13T21:36:12Z</time>
        <name>WPT.1006</name>
      </trkpt>
      <trkpt lat="17.119489460" lon="-96.451151250">
        <ele>3149.000</ele>
        <time>2017-01-13T21:36:15Z</time>
        <name>WPT.1007</name>
      </trkpt>
      <trkpt lat="17.119469850" lon="-96.451194490">
        <ele>3148.000</ele>
        <time>2017-01-13T21:36:16Z</time>
        <name>WPT.1008</name>
      </trkpt>
      <trkpt lat="17.119396460" lon="-96.451262640">
        <ele>3148.000</ele>
        <time>2017-01-13T21:36:18Z</time>
        <name>WPT.1009</name>
      </trkpt>
      <trkpt lat="17.119369700" lon="-96.451295120">
        <ele>3146.000</ele>
        <time>2017-01-13T21:36:19Z</time>
        <name>WPT.1010</name>
      </trkpt>
      <trkpt lat="17.119329680" lon="-96.451346370">
        <ele>3147.000</ele>
        <time>2017-01-13T21:36:20Z</time>
        <name>WPT.1011</name>
      </trkpt>
      <trkpt lat="17.119335800" lon="-96.451419950">
        <ele>3149.000</ele>
        <time>2017-01-13T21:36:21Z</time>
        <name>WPT.1012</name>
      </trkpt>
      <trkpt lat="17.119275840" lon="-96.451468700">
        <ele>3148.000</ele>
        <time>2017-01-13T21:36:22Z</time>
        <name>WPT.1013</name>
      </trkpt>
      <trkpt lat="17.119341310" lon="-96.451548290">
        <ele>3149.000</ele>
        <time>2017-01-13T21:36:23Z</time>
        <name>WPT.1014</name>
      </trkpt>
      <trkpt lat="17.119298140" lon="-96.451579580">
        <ele>3150.000</ele>
        <time>2017-01-13T21:36:24Z</time>
        <name>WPT.1015</name>
      </trkpt>
      <trkpt lat="17.119238630" lon="-96.451626660">
        <ele>3152.000</ele>
        <time>2017-01-13T21:36:25Z</time>
        <name>WPT.1016</name>
      </trkpt>
      <trkpt lat="17.119187010" lon="-96.451687750">
        <ele>3151.000</ele>
        <time>2017-01-13T21:36:26Z</time>
        <name>WPT.1017</name>
      </trkpt>
      <trkpt lat="17.119113580" lon="-96.451774860">
        <ele>3150.000</ele>
        <time>2017-01-13T21:36:27Z</time>
        <name>WPT.1018</name>
      </trkpt>
      <trkpt lat="17.119033960" lon="-96.451848020">
        <ele>3151.000</ele>
        <time>2017-01-13T21:36:28Z</time>
        <name>WPT.1019</name>
      </trkpt>
      <trkpt lat="17.119037450" lon="-96.451885850">
        <ele>3149.000</ele>
        <time>2017-01-13T21:36:29Z</time>
        <name>WPT.1020</name>
      </trkpt>
      <trkpt lat="17.118998940" lon="-96.451931830">
        <ele>3150.000</ele>
        <time>2017-01-13T21:36:30Z</time>
        <name>WPT.1021</name>
      </trkpt>
      <trkpt lat="17.118916830" lon="-96.451986370">
        <ele>3150.000</ele>
        <time>2017-01-13T21:36:31Z</time>
        <name>WPT.1022</name>
      </trkpt>
      <trkpt lat="17.118878900" lon="-96.452017580">
        <ele>3152.000</ele>
        <time>2017-01-13T21:36:32Z</time>
        <name>WPT.1023</name>
      </trkpt>
      <trkpt lat="17.118836420" lon="-96.452026850">
        <ele>3151.000</ele>
        <time>2017-01-13T21:36:33Z</time>
        <name>WPT.1024</name>
      </trkpt>
      <trkpt lat="17.118817810" lon="-96.452075800">
        <ele>3155.000</ele>
        <time>2017-01-13T21:36:35Z</time>
        <name>WPT.1025</name>
      </trkpt>
      <trkpt lat="17.118850770" lon="-96.452099020">
        <ele>3156.000</ele>
        <time>2017-01-13T21:36:37Z</time>
        <name>WPT.1026</name>
      </trkpt>
      <trkpt lat="17.118910370" lon="-96.452118630">
        <ele>3156.000</ele>
        <time>2017-01-13T21:36:38Z</time>
        <name>WPT.1027</name>
      </trkpt>
      <trkpt lat="17.119074960" lon="-96.452192520">
        <ele>3155.000</ele>
        <time>2017-01-13T21:36:40Z</time>
        <name>WPT.1028</name>
      </trkpt>
      <trkpt lat="17.119047470" lon="-96.452238740">
        <ele>3155.000</ele>
        <time>2017-01-13T21:36:41Z</time>
        <name>WPT.1029</name>
      </trkpt>
      <trkpt lat="17.118976710" lon="-96.452280810">
        <ele>3155.000</ele>
        <time>2017-01-13T21:36:42Z</time>
        <name>WPT.1030</name>
      </trkpt>
      <trkpt lat="17.118934550" lon="-96.452353750">
        <ele>3153.000</ele>
        <time>2017-01-13T21:36:43Z</time>
        <name>WPT.1031</name>
      </trkpt>
      <trkpt lat="17.118915490" lon="-96.452450370">
        <ele>3153.000</ele>
        <time>2017-01-13T21:36:44Z</time>
        <name>WPT.1032</name>
      </trkpt>
      <trkpt lat="17.118880060" lon="-96.452522550">
        <ele>3153.000</ele>
        <time>2017-01-13T21:36:45Z</time>
        <name>WPT.1033</name>
      </trkpt>
      <trkpt lat="17.118849850" lon="-96.452589350">
        <ele>3153.000</ele>
        <time>2017-01-13T21:36:46Z</time>
        <name>WPT.1034</name>
      </trkpt>
      <trkpt lat="17.118837260" lon="-96.452649180">
        <ele>3153.000</ele>
        <time>2017-01-13T21:36:47Z</time>
        <name>WPT.1035</name>
      </trkpt>
      <trkpt lat="17.118771450" lon="-96.452709930">
        <ele>3153.000</ele>
        <time>2017-01-13T21:36:48Z</time>
        <name>WPT.1036</name>
      </trkpt>
      <trkpt lat="17.118712240" lon="-96.452771780">
        <ele>3153.000</ele>
        <time>2017-01-13T21:36:49Z</time>
        <name>WPT.1037</name>
      </trkpt>
      <trkpt lat="17.118643680" lon="-96.452854540">
        <ele>3153.000</ele>
        <time>2017-01-13T21:36:50Z</time>
        <name>WPT.1038</name>
      </trkpt>
      <trkpt lat="17.118622390" lon="-96.452809070">
        <ele>3151.000</ele>
        <time>2017-01-13T21:36:51Z</time>
        <name>WPT.1039</name>
      </trkpt>
      <trkpt lat="17.118670720" lon="-96.452820940">
        <ele>3150.000</ele>
        <time>2017-01-13T21:36:52Z</time>
        <name>WPT.1040</name>
      </trkpt>
      <trkpt lat="17.118613910" lon="-96.452875110">
        <ele>3151.000</ele>
        <time>2017-01-13T21:36:53Z</time>
        <name>WPT.1041</name>
      </trkpt>
      <trkpt lat="17.118650590" lon="-96.452919780">
        <ele>3151.000</ele>
        <time>2017-01-13T21:36:54Z</time>
        <name>WPT.1042</name>
      </trkpt>
      <trkpt lat="17.118599330" lon="-96.452911280">
        <ele>3151.000</ele>
        <time>2017-01-13T21:36:55Z</time>
        <name>WPT.1043</name>
      </trkpt>
      <trkpt lat="17.118611090" lon="-96.452950790">
        <ele>3152.000</ele>
        <time>2017-01-13T21:36:57Z</time>
        <name>WPT.1044</name>
      </trkpt>
      <trkpt lat="17.118604170" lon="-96.453014060">
        <ele>3152.000</ele>
        <time>2017-01-13T21:36:59Z</time>
        <name>WPT.1045</name>
      </trkpt>
      <trkpt lat="17.118599760" lon="-96.452968500">
        <ele>3151.000</ele>
        <time>2017-01-13T21:37:00Z</time>
        <name>WPT.1046</name>
      </trkpt>
      <trkpt lat="17.118577230" lon="-96.453010410">
        <ele>3152.000</ele>
        <time>2017-01-13T21:37:02Z</time>
        <name>WPT.1047</name>
      </trkpt>
      <trkpt lat="17.118475990" lon="-96.453018520">
        <ele>3152.000</ele>
        <time>2017-01-13T21:37:03Z</time>
        <name>WPT.1048</name>
      </trkpt>
      <trkpt lat="17.118486360" lon="-96.453075680">
        <ele>3152.000</ele>
        <time>2017-01-13T21:37:05Z</time>
        <name>WPT.1049</name>
      </trkpt>
      <trkpt lat="17.118431500" lon="-96.453151910">
        <ele>3154.000</ele>
        <time>2017-01-13T21:37:07Z</time>
        <name>WPT.1050</name>
      </trkpt>
      <trkpt lat="17.118374280" lon="-96.453185940">
        <ele>3155.000</ele>
        <time>2017-01-13T21:37:08Z</time>
        <name>WPT.1051</name>
      </trkpt>
      <trkpt lat="17.118336340" lon="-96.453223710">
        <ele>3157.000</ele>
        <time>2017-01-13T21:37:09Z</time>
        <name>WPT.1052</name>
      </trkpt>
      <trkpt lat="17.118276400" lon="-96.453244950">
        <ele>3156.000</ele>
        <time>2017-01-13T21:37:10Z</time>
        <name>WPT.1053</name>
      </trkpt>
      <trkpt lat="17.118254180" lon="-96.453294970">
        <ele>3156.000</ele>
        <time>2017-01-13T21:37:11Z</time>
        <name>WPT.1054</name>
      </trkpt>
      <trkpt lat="17.118246080" lon="-96.453342440">
        <ele>3158.000</ele>
        <time>2017-01-13T21:37:14Z</time>
        <name>WPT.1055</name>
      </trkpt>
      <trkpt lat="17.118222420" lon="-96.453381210">
        <ele>3156.000</ele>
        <time>2017-01-13T21:37:16Z</time>
        <name>WPT.1056</name>
      </trkpt>
      <trkpt lat="17.118212200" lon="-96.453421180">
        <ele>3153.000</ele>
        <time>2017-01-13T21:37:18Z</time>
        <name>WPT.1057</name>
      </trkpt>
      <trkpt lat="17.118199980" lon="-96.453460380">
        <ele>3153.000</ele>
        <time>2017-01-13T21:37:19Z</time>
        <name>WPT.1058</name>
      </trkpt>
      <trkpt lat="17.118167790" lon="-96.453485700">
        <ele>3152.000</ele>
        <time>2017-01-13T21:37:20Z</time>
        <name>WPT.1059</name>
      </trkpt>
      <trkpt lat="17.118170750" lon="-96.453527720">
        <ele>3152.000</ele>
        <time>2017-01-13T21:37:21Z</time>
        <name>WPT.1060</name>
      </trkpt>
      <trkpt lat="17.118218510" lon="-96.453566510">
        <ele>3155.000</ele>
        <time>2017-01-13T21:37:22Z</time>
        <name>WPT.1061</name>
      </trkpt>
      <trkpt lat="17.118269030" lon="-96.453585760">
        <ele>3154.000</ele>
        <time>2017-01-13T21:37:24Z</time>
        <name>WPT.1062</name>
      </trkpt>
      <trkpt lat="17.118273270" lon="-96.453640130">
        <ele>3154.000</ele>
        <time>2017-01-13T21:37:26Z</time>
        <name>WPT.1063</name>
      </trkpt>
      <trkpt lat="17.118225320" lon="-96.453682520">
        <ele>3156.000</ele>
        <time>2017-01-13T21:37:27Z</time>
        <name>WPT.1064</name>
      </trkpt>
      <trkpt lat="17.118245140" lon="-96.453725190">
        <ele>3154.000</ele>
        <time>2017-01-13T21:37:28Z</time>
        <name>WPT.1065</name>
      </trkpt>
      <trkpt lat="17.118284360" lon="-96.453810700">
        <ele>3153.000</ele>
        <time>2017-01-13T21:37:30Z</time>
        <name>WPT.1066</name>
      </trkpt>
      <trkpt lat="17.118295980" lon="-96.453875260">
        <ele>3153.000</ele>
        <time>2017-01-13T21:37:31Z</time>
        <name>WPT.1067</name>
      </trkpt>
      <trkpt lat="17.118298150" lon="-96.453937080">
        <ele>3152.000</ele>
        <time>2017-01-13T21:37:32Z</time>
        <name>WPT.1068</name>
      </trkpt>
      <trkpt lat="17.118301300" lon="-96.453979000">
        <ele>3152.000</ele>
        <time>2017-01-13T21:37:33Z</time>
        <name>WPT.1069</name>
      </trkpt>
      <trkpt lat="17.118292140" lon="-96.454020800">
        <ele>3152.000</ele>
        <time>2017-01-13T21:37:36Z</time>
        <name>WPT.1070</name>
      </trkpt>
      <trkpt lat="17.118290230" lon="-96.454058740">
        <ele>3154.000</ele>
        <time>2017-01-13T21:37:38Z</time>
        <name>WPT.1071</name>
      </trkpt>
      <trkpt lat="17.118199490" lon="-96.454094540">
        <ele>3152.000</ele>
        <time>2017-01-13T21:37:40Z</time>
        <name>WPT.1072</name>
      </trkpt>
      <trkpt lat="17.118158060" lon="-96.454101860">
        <ele>3152.000</ele>
        <time>2017-01-13T21:37:41Z</time>
        <name>WPT.1073</name>
      </trkpt>
      <trkpt lat="17.118098060" lon="-96.454114330">
        <ele>3154.000</ele>
        <time>2017-01-13T21:37:42Z</time>
        <name>WPT.1074</name>
      </trkpt>
      <trkpt lat="17.118056080" lon="-96.454108910">
        <ele>3155.000</ele>
        <time>2017-01-13T21:37:43Z</time>
        <name>WPT.1075</name>
      </trkpt>
      <trkpt lat="17.118005310" lon="-96.454102720">
        <ele>3155.000</ele>
        <time>2017-01-13T21:37:44Z</time>
        <name>WPT.1076</name>
      </trkpt>
      <trkpt lat="17.117959350" lon="-96.454099140">
        <ele>3155.000</ele>
        <time>2017-01-13T21:37:45Z</time>
        <name>WPT.1077</name>
      </trkpt>
      <trkpt lat="17.117922050" lon="-96.454113380">
        <ele>3157.000</ele>
        <time>2017-01-13T21:37:46Z</time>
        <name>WPT.1078</name>
      </trkpt>
      <trkpt lat="17.117873040" lon="-96.454129410">
        <ele>3158.000</ele>
        <time>2017-01-13T21:37:50Z</time>
        <name>WPT.1079</name>
      </trkpt>
      <trkpt lat="17.117823710" lon="-96.454132800">
        <ele>3159.000</ele>
        <time>2017-01-13T21:37:51Z</time>
        <name>WPT.1080</name>
      </trkpt>
      <trkpt lat="17.117781970" lon="-96.454132370">
        <ele>3161.000</ele>
        <time>2017-01-13T21:37:52Z</time>
        <name>WPT.1081</name>
      </trkpt>
      <trkpt lat="17.117740760" lon="-96.454133650">
        <ele>3160.000</ele>
        <time>2017-01-13T21:37:53Z</time>
        <name>WPT.1082</name>
      </trkpt>
      <trkpt lat="17.117686370" lon="-96.454130160">
        <ele>3159.000</ele>
        <time>2017-01-13T21:37:54Z</time>
        <name>WPT.1083</name>
      </trkpt>
      <trkpt lat="17.117632680" lon="-96.454131480">
        <ele>3159.000</ele>
        <time>2017-01-13T21:37:55Z</time>
        <name>WPT.1084</name>
      </trkpt>
      <trkpt lat="17.117576580" lon="-96.454121970">
        <ele>3159.000</ele>
        <time>2017-01-13T21:37:56Z</time>
        <name>WPT.1085</name>
      </trkpt>
      <trkpt lat="17.117532350" lon="-96.454119270">
        <ele>3159.000</ele>
        <time>2017-01-13T21:37:57Z</time>
        <name>WPT.1086</name>
      </trkpt>
      <trkpt lat="17.117490380" lon="-96.454130160">
        <ele>3159.000</ele>
        <time>2017-01-13T21:37:58Z</time>
        <name>WPT.1087</name>
      </trkpt>
      <trkpt lat="17.117464320" lon="-96.454164280">
        <ele>3161.000</ele>
        <time>2017-01-13T21:38:02Z</time>
        <name>WPT.1088</name>
      </trkpt>
      <trkpt lat="17.117401770" lon="-96.454184780">
        <ele>3163.000</ele>
        <time>2017-01-13T21:38:04Z</time>
        <name>WPT.1089</name>
      </trkpt>
      <trkpt lat="17.117342180" lon="-96.454242500">
        <ele>3164.000</ele>
        <time>2017-01-13T21:38:06Z</time>
        <name>WPT.1090</name>
      </trkpt>
      <trkpt lat="17.117316720" lon="-96.454274250">
        <ele>3164.000</ele>
        <time>2017-01-13T21:38:07Z</time>
        <name>WPT.1091</name>
      </trkpt>
      <trkpt lat="17.117280720" lon="-96.454299680">
        <ele>3162.000</ele>
        <time>2017-01-13T21:38:08Z</time>
        <name>WPT.1092</name>
      </trkpt>
      <trkpt lat="17.117240480" lon="-96.454323230">
        <ele>3163.000</ele>
        <time>2017-01-13T21:38:09Z</time>
        <name>WPT.1093</name>
      </trkpt>
      <trkpt lat="17.117207320" lon="-96.454368450">
        <ele>3163.000</ele>
        <time>2017-01-13T21:38:10Z</time>
        <name>WPT.1094</name>
      </trkpt>
      <trkpt lat="17.117193140" lon="-96.454416440">
        <ele>3163.000</ele>
        <time>2017-01-13T21:38:11Z</time>
        <name>WPT.1095</name>
      </trkpt>
      <trkpt lat="17.117168640" lon="-96.454453980">
        <ele>3163.000</ele>
        <time>2017-01-13T21:38:12Z</time>
        <name>WPT.1096</name>
      </trkpt>
      <trkpt lat="17.117137540" lon="-96.454506270">
        <ele>3163.000</ele>
        <time>2017-01-13T21:38:14Z</time>
        <name>WPT.1097</name>
      </trkpt>
      <trkpt lat="17.117174480" lon="-96.454538540">
        <ele>3163.000</ele>
        <time>2017-01-13T21:38:17Z</time>
        <name>WPT.1098</name>
      </trkpt>
      <trkpt lat="17.117211280" lon="-96.454687690">
        <ele>3162.000</ele>
        <time>2017-01-13T21:38:19Z</time>
        <name>WPT.1099</name>
      </trkpt>
      <trkpt lat="17.117221560" lon="-96.454617610">
        <ele>3164.000</ele>
        <time>2017-01-13T21:38:20Z</time>
        <name>WPT.1100</name>
      </trkpt>
      <trkpt lat="17.117190510" lon="-96.454669640">
        <ele>3163.000</ele>
        <time>2017-01-13T21:38:21Z</time>
        <name>WPT.1101</name>
      </trkpt>
      <trkpt lat="17.117184770" lon="-96.454751670">
        <ele>3164.000</ele>
        <time>2017-01-13T21:38:22Z</time>
        <name>WPT.1102</name>
      </trkpt>
      <trkpt lat="17.117061040" lon="-96.454660180">
        <ele>3158.000</ele>
        <time>2017-01-13T21:38:23Z</time>
        <name>WPT.1103</name>
      </trkpt>
      <trkpt lat="17.117100870" lon="-96.454706000">
        <ele>3159.000</ele>
        <time>2017-01-13T21:38:24Z</time>
        <name>WPT.1104</name>
      </trkpt>
      <trkpt lat="17.117046560" lon="-96.454739480">
        <ele>3163.000</ele>
        <time>2017-01-13T21:38:25Z</time>
        <name>WPT.1105</name>
      </trkpt>
      <trkpt lat="17.116980230" lon="-96.454753490">
        <ele>3161.000</ele>
        <time>2017-01-13T21:38:27Z</time>
        <name>WPT.1106</name>
      </trkpt>
      <trkpt lat="17.116944060" lon="-96.454756900">
        <ele>3160.000</ele>
        <time>2017-01-13T21:38:28Z</time>
        <name>WPT.1107</name>
      </trkpt>
      <trkpt lat="17.116894240" lon="-96.454771480">
        <ele>3160.000</ele>
        <time>2017-01-13T21:38:29Z</time>
        <name>WPT.1108</name>
      </trkpt>
      <trkpt lat="17.116850960" lon="-96.454788550">
        <ele>3160.000</ele>
        <time>2017-01-13T21:38:31Z</time>
        <name>WPT.1109</name>
      </trkpt>
      <trkpt lat="17.116811810" lon="-96.454833190">
        <ele>3160.000</ele>
        <time>2017-01-13T21:38:32Z</time>
        <name>WPT.1110</name>
      </trkpt>
      <trkpt lat="17.116759730" lon="-96.454831710">
        <ele>3161.000</ele>
        <time>2017-01-13T21:38:33Z</time>
        <name>WPT.1111</name>
      </trkpt>
      <trkpt lat="17.116793450" lon="-96.454852760">
        <ele>3162.000</ele>
        <time>2017-01-13T21:38:36Z</time>
        <name>WPT.1112</name>
      </trkpt>
      <trkpt lat="17.116786190" lon="-96.454895900">
        <ele>3160.000</ele>
        <time>2017-01-13T21:38:38Z</time>
        <name>WPT.1113</name>
      </trkpt>
      <trkpt lat="17.116757150" lon="-96.454944180">
        <ele>3161.000</ele>
        <time>2017-01-13T21:38:39Z</time>
        <name>WPT.1114</name>
      </trkpt>
      <trkpt lat="17.116716900" lon="-96.454994470">
        <ele>3162.000</ele>
        <time>2017-01-13T21:38:41Z</time>
        <name>WPT.1115</name>
      </trkpt>
      <trkpt lat="17.116647600" lon="-96.455016350">
        <ele>3163.000</ele>
        <time>2017-01-13T21:38:43Z</time>
        <name>WPT.1116</name>
      </trkpt>
      <trkpt lat="17.116599610" lon="-96.455077460">
        <ele>3161.000</ele>
        <time>2017-01-13T21:38:45Z</time>
        <name>WPT.1117</name>
      </trkpt>
      <trkpt lat="17.116598510" lon="-96.455176890">
        <ele>3158.000</ele>
        <time>2017-01-13T21:38:46Z</time>
        <name>WPT.1118</name>
      </trkpt>
      <trkpt lat="17.116565660" lon="-96.455212220">
        <ele>3158.000</ele>
        <time>2017-01-13T21:38:47Z</time>
        <name>WPT.1119</name>
      </trkpt>
      <trkpt lat="17.116521490" lon="-96.455249850">
        <ele>3158.000</ele>
        <time>2017-01-13T21:38:48Z</time>
        <name>WPT.1120</name>
      </trkpt>
      <trkpt lat="17.116480200" lon="-96.455290670">
        <ele>3160.000</ele>
        <time>2017-01-13T21:38:49Z</time>
        <name>WPT.1121</name>
      </trkpt>
      <trkpt lat="17.116439500" lon="-96.455338940">
        <ele>3160.000</ele>
        <time>2017-01-13T21:38:50Z</time>
        <name>WPT.1122</name>
      </trkpt>
      <trkpt lat="17.116406090" lon="-96.455386150">
        <ele>3159.000</ele>
        <time>2017-01-13T21:38:51Z</time>
        <name>WPT.1123</name>
      </trkpt>
      <trkpt lat="17.116368130" lon="-96.455453060">
        <ele>3157.000</ele>
        <time>2017-01-13T21:38:52Z</time>
        <name>WPT.1124</name>
      </trkpt>
      <trkpt lat="17.116316150" lon="-96.455490910">
        <ele>3156.000</ele>
        <time>2017-01-13T21:38:53Z</time>
        <name>WPT.1125</name>
      </trkpt>
      <trkpt lat="17.116317930" lon="-96.455533390">
        <ele>3155.000</ele>
        <time>2017-01-13T21:38:54Z</time>
        <name>WPT.1126</name>
      </trkpt>
      <trkpt lat="17.116298300" lon="-96.455578840">
        <ele>3154.000</ele>
        <time>2017-01-13T21:38:55Z</time>
        <name>WPT.1127</name>
      </trkpt>
      <trkpt lat="17.116242460" lon="-96.455643800">
        <ele>3155.000</ele>
        <time>2017-01-13T21:38:57Z</time>
        <name>WPT.1128</name>
      </trkpt>
      <trkpt lat="17.116195340" lon="-96.455699840">
        <ele>3157.000</ele>
        <time>2017-01-13T21:38:58Z</time>
        <name>WPT.1129</name>
      </trkpt>
      <trkpt lat="17.116159220" lon="-96.455751010">
        <ele>3155.000</ele>
        <time>2017-01-13T21:38:59Z</time>
        <name>WPT.1130</name>
      </trkpt>
      <trkpt lat="17.116129830" lon="-96.455797210">
        <ele>3157.000</ele>
        <time>2017-01-13T21:39:00Z</time>
        <name>WPT.1131</name>
      </trkpt>
      <trkpt lat="17.116105410" lon="-96.455838540">
        <ele>3156.000</ele>
        <time>2017-01-13T21:39:01Z</time>
        <name>WPT.1132</name>
      </trkpt>
      <trkpt lat="17.116080400" lon="-96.455879880">
        <ele>3155.000</ele>
        <time>2017-01-13T21:39:02Z</time>
        <name>WPT.1133</name>
      </trkpt>
      <trkpt lat="17.116042460" lon="-96.455902990">
        <ele>3157.000</ele>
        <time>2017-01-13T21:39:03Z</time>
        <name>WPT.1134</name>
      </trkpt>
      <trkpt lat="17.116023880" lon="-96.455938320">
        <ele>3157.000</ele>
        <time>2017-01-13T21:39:05Z</time>
        <name>WPT.1135</name>
      </trkpt>
      <trkpt lat="17.116000050" lon="-96.455974620">
        <ele>3155.000</ele>
        <time>2017-01-13T21:39:08Z</time>
        <name>WPT.1136</name>
      </trkpt>
      <trkpt lat="17.115948230" lon="-96.456030770">
        <ele>3154.000</ele>
        <time>2017-01-13T21:39:10Z</time>
        <name>WPT.1137</name>
      </trkpt>
      <trkpt lat="17.115936360" lon="-96.456080280">
        <ele>3154.000</ele>
        <time>2017-01-13T21:39:11Z</time>
        <name>WPT.1138</name>
      </trkpt>
      <trkpt lat="17.115883490" lon="-96.456146780">
        <ele>3156.000</ele>
        <time>2017-01-13T21:39:13Z</time>
        <name>WPT.1139</name>
      </trkpt>
      <trkpt lat="17.115874840" lon="-96.456184920">
        <ele>3156.000</ele>
        <time>2017-01-13T21:39:14Z</time>
        <name>WPT.1140</name>
      </trkpt>
      <trkpt lat="17.115838440" lon="-96.456246220">
        <ele>3157.000</ele>
        <time>2017-01-13T21:39:15Z</time>
        <name>WPT.1141</name>
      </trkpt>
      <trkpt lat="17.115780490" lon="-96.456316290">
        <ele>3158.000</ele>
        <time>2017-01-13T21:39:16Z</time>
        <name>WPT.1142</name>
      </trkpt>
      <trkpt lat="17.115754430" lon="-96.456373010">
        <ele>3158.000</ele>
        <time>2017-01-13T21:39:17Z</time>
        <name>WPT.1143</name>
      </trkpt>
      <trkpt lat="17.115684280" lon="-96.456440790">
        <ele>3156.000</ele>
        <time>2017-01-13T21:39:19Z</time>
        <name>WPT.1144</name>
      </trkpt>
      <trkpt lat="17.115640440" lon="-96.456477020">
        <ele>3156.000</ele>
        <time>2017-01-13T21:39:20Z</time>
        <name>WPT.1145</name>
      </trkpt>
      <trkpt lat="17.115601420" lon="-96.456542660">
        <ele>3156.000</ele>
        <time>2017-01-13T21:39:21Z</time>
        <name>WPT.1146</name>
      </trkpt>
      <trkpt lat="17.115605950" lon="-96.456627470">
        <ele>3156.000</ele>
        <time>2017-01-13T21:39:22Z</time>
        <name>WPT.1147</name>
      </trkpt>
      <trkpt lat="17.115557670" lon="-96.456631170">
        <ele>3156.000</ele>
        <time>2017-01-13T21:39:23Z</time>
        <name>WPT.1148</name>
      </trkpt>
      <trkpt lat="17.115544380" lon="-96.456680630">
        <ele>3157.000</ele>
        <time>2017-01-13T21:39:24Z</time>
        <name>WPT.1149</name>
      </trkpt>
      <trkpt lat="17.115538060" lon="-96.456733090">
        <ele>3157.000</ele>
        <time>2017-01-13T21:39:25Z</time>
        <name>WPT.1150</name>
      </trkpt>
      <trkpt lat="17.115495320" lon="-96.456794470">
        <ele>3157.000</ele>
        <time>2017-01-13T21:39:27Z</time>
        <name>WPT.1151</name>
      </trkpt>
      <trkpt lat="17.115434770" lon="-96.456832480">
        <ele>3157.000</ele>
        <time>2017-01-13T21:39:29Z</time>
        <name>WPT.1152</name>
      </trkpt>
      <trkpt lat="17.115400500" lon="-96.456865900">
        <ele>3157.000</ele>
        <time>2017-01-13T21:39:30Z</time>
        <name>WPT.1153</name>
      </trkpt>
      <trkpt lat="17.115380070" lon="-96.456905100">
        <ele>3157.000</ele>
        <time>2017-01-13T21:39:31Z</time>
        <name>WPT.1154</name>
      </trkpt>
      <trkpt lat="17.115345860" lon="-96.456929090">
        <ele>3157.000</ele>
        <time>2017-01-13T21:39:32Z</time>
        <name>WPT.1155</name>
      </trkpt>
      <trkpt lat="17.115302880" lon="-96.456950450">
        <ele>3156.000</ele>
        <time>2017-01-13T21:39:33Z</time>
        <name>WPT.1156</name>
      </trkpt>
      <trkpt lat="17.115213630" lon="-96.457019850">
        <ele>3159.000</ele>
        <time>2017-01-13T21:39:35Z</time>
        <name>WPT.1157</name>
      </trkpt>
      <trkpt lat="17.115194490" lon="-96.457063450">
        <ele>3160.000</ele>
        <time>2017-01-13T21:39:37Z</time>
        <name>WPT.1158</name>
      </trkpt>
      <trkpt lat="17.115145140" lon="-96.457077540">
        <ele>3158.000</ele>
        <time>2017-01-13T21:39:40Z</time>
        <name>WPT.1159</name>
      </trkpt>
      <trkpt lat="17.115116070" lon="-96.457125570">
        <ele>3157.000</ele>
        <time>2017-01-13T21:39:41Z</time>
        <name>WPT.1160</name>
      </trkpt>
      <trkpt lat="17.115116530" lon="-96.457178900">
        <ele>3159.000</ele>
        <time>2017-01-13T21:39:44Z</time>
        <name>WPT.1161</name>
      </trkpt>
      <trkpt lat="17.115089700" lon="-96.457205310">
        <ele>3159.000</ele>
        <time>2017-01-13T21:39:45Z</time>
        <name>WPT.1162</name>
      </trkpt>
      <trkpt lat="17.115053810" lon="-96.457246450">
        <ele>3159.000</ele>
        <time>2017-01-13T21:39:47Z</time>
        <name>WPT.1163</name>
      </trkpt>
      <trkpt lat="17.115027810" lon="-96.457291280">
        <ele>3161.000</ele>
        <time>2017-01-13T21:39:48Z</time>
        <name>WPT.1164</name>
      </trkpt>
      <trkpt lat="17.114998570" lon="-96.457321840">
        <ele>3161.000</ele>
        <time>2017-01-13T21:39:49Z</time>
        <name>WPT.1165</name>
      </trkpt>
      <trkpt lat="17.114969680" lon="-96.457393970">
        <ele>3160.000</ele>
        <time>2017-01-13T21:39:50Z</time>
        <name>WPT.1166</name>
      </trkpt>
      <trkpt lat="17.114939320" lon="-96.457456750">
        <ele>3161.000</ele>
        <time>2017-01-13T21:39:51Z</time>
        <name>WPT.1167</name>
      </trkpt>
      <trkpt lat="17.114886980" lon="-96.457516790">
        <ele>3160.000</ele>
        <time>2017-01-13T21:39:52Z</time>
        <name>WPT.1168</name>
      </trkpt>
      <trkpt lat="17.114846440" lon="-96.457573740">
        <ele>3159.000</ele>
        <time>2017-01-13T21:39:53Z</time>
        <name>WPT.1169</name>
      </trkpt>
      <trkpt lat="17.114810720" lon="-96.457626640">
        <ele>3159.000</ele>
        <time>2017-01-13T21:39:54Z</time>
        <name>WPT.1170</name>
      </trkpt>
      <trkpt lat="17.114754400" lon="-96.457707340">
        <ele>3161.000</ele>
        <time>2017-01-13T21:39:55Z</time>
        <name>WPT.1171</name>
      </trkpt>
      <trkpt lat="17.114716040" lon="-96.457743900">
        <ele>3158.000</ele>
        <time>2017-01-13T21:39:56Z</time>
        <name>WPT.1172</name>
      </trkpt>
      <trkpt lat="17.114668070" lon="-96.457839230">
        <ele>3158.000</ele>
        <time>2017-01-13T21:39:57Z</time>
        <name>WPT.1173</name>
      </trkpt>
      <trkpt lat="17.114600940" lon="-96.457912070">
        <ele>3159.000</ele>
        <time>2017-01-13T21:39:58Z</time>
        <name>WPT.1174</name>
      </trkpt>
      <trkpt lat="17.114533220" lon="-96.457949980">
        <ele>3159.000</ele>
        <time>2017-01-13T21:39:59Z</time>
        <name>WPT.1175</name>
      </trkpt>
      <trkpt lat="17.114446360" lon="-96.458034070">
        <ele>3161.000</ele>
        <time>2017-01-13T21:40:00Z</time>
        <name>WPT.1176</name>
      </trkpt>
      <trkpt lat="17.114346050" lon="-96.458061060">
        <ele>3162.000</ele>
        <time>2017-01-13T21:40:01Z</time>
        <name>WPT.1177</name>
      </trkpt>
      <trkpt lat="17.114294200" lon="-96.458144920">
        <ele>3162.000</ele>
        <time>2017-01-13T21:40:02Z</time>
        <name>WPT.1178</name>
      </trkpt>
      <trkpt lat="17.114201900" lon="-96.458166300">
        <ele>3163.000</ele>
        <time>2017-01-13T21:40:03Z</time>
        <name>WPT.1179</name>
      </trkpt>
      <trkpt lat="17.114124600" lon="-96.458217140">
        <ele>3165.000</ele>
        <time>2017-01-13T21:40:04Z</time>
        <name>WPT.1180</name>
      </trkpt>
      <trkpt lat="17.114068580" lon="-96.458226030">
        <ele>3165.000</ele>
        <time>2017-01-13T21:40:05Z</time>
        <name>WPT.1181</name>
      </trkpt>
      <trkpt lat="17.114009550" lon="-96.458280920">
        <ele>3165.000</ele>
        <time>2017-01-13T21:40:06Z</time>
        <name>WPT.1182</name>
      </trkpt>
      <trkpt lat="17.113907620" lon="-96.458316600">
        <ele>3165.000</ele>
        <time>2017-01-13T21:40:07Z</time>
        <name>WPT.1183</name>
      </trkpt>
      <trkpt lat="17.113911700" lon="-96.458435740">
        <ele>3164.000</ele>
        <time>2017-01-13T21:40:10Z</time>
        <name>WPT.1184</name>
      </trkpt>
      <trkpt lat="17.113861820" lon="-96.458392340">
        <ele>3162.000</ele>
        <time>2017-01-13T21:40:12Z</time>
        <name>WPT.1185</name>
      </trkpt>
      <trkpt lat="17.113881660" lon="-96.458458130">
        <ele>3160.000</ele>
        <time>2017-01-13T21:40:13Z</time>
        <name>WPT.1186</name>
      </trkpt>
      <trkpt lat="17.113841200" lon="-96.458476900">
        <ele>3159.000</ele>
        <time>2017-01-13T21:40:14Z</time>
        <name>WPT.1187</name>
      </trkpt>
      <trkpt lat="17.113815620" lon="-96.458556550">
        <ele>3158.000</ele>
        <time>2017-01-13T21:40:15Z</time>
        <name>WPT.1188</name>
      </trkpt>
      <trkpt lat="17.113782080" lon="-96.458599600">
        <ele>3158.000</ele>
        <time>2017-01-13T21:40:16Z</time>
        <name>WPT.1189</name>
      </trkpt>
      <trkpt lat="17.113745190" lon="-96.458632990">
        <ele>3161.000</ele>
        <time>2017-01-13T21:40:18Z</time>
        <name>WPT.1190</name>
      </trkpt>
      <trkpt lat="17.113720890" lon="-96.458563650">
        <ele>3163.000</ele>
        <time>2017-01-13T21:40:19Z</time>
        <name>WPT.1191</name>
      </trkpt>
      <trkpt lat="17.113731150" lon="-96.458677930">
        <ele>3164.000</ele>
        <time>2017-01-13T21:40:21Z</time>
        <name>WPT.1192</name>
      </trkpt>
      <trkpt lat="17.113740640" lon="-96.458721630">
        <ele>3166.000</ele>
        <time>2017-01-13T21:40:22Z</time>
        <name>WPT.1193</name>
      </trkpt>
      <trkpt lat="17.113707110" lon="-96.458751570">
        <ele>3164.000</ele>
        <time>2017-01-13T21:40:23Z</time>
        <name>WPT.1194</name>
      </trkpt>
      <trkpt lat="17.113679930" lon="-96.458791000">
        <ele>3164.000</ele>
        <time>2017-01-13T21:40:24Z</time>
        <name>WPT.1195</name>
      </trkpt>
      <trkpt lat="17.113639480" lon="-96.458798030">
        <ele>3166.000</ele>
        <time>2017-01-13T21:40:25Z</time>
        <name>WPT.1196</name>
      </trkpt>
      <trkpt lat="17.113599630" lon="-96.458806190">
        <ele>3169.000</ele>
        <time>2017-01-13T21:40:26Z</time>
        <name>WPT.1197</name>
      </trkpt>
      <trkpt lat="17.113560150" lon="-96.458790220">
        <ele>3169.000</ele>
        <time>2017-01-13T21:40:27Z</time>
        <name>WPT.1198</name>
      </trkpt>
      <trkpt lat="17.113518770" lon="-96.458777100">
        <ele>3172.000</ele>
        <time>2017-01-13T21:40:28Z</time>
        <name>WPT.1199</name>
      </trkpt>
      <trkpt lat="17.113493240" lon="-96.458745140">
        <ele>3171.000</ele>
        <time>2017-01-13T21:40:29Z</time>
        <name>WPT.1200</name>
      </trkpt>
      <trkpt lat="17.113450330" lon="-96.458723020">
        <ele>3174.000</ele>
        <time>2017-01-13T21:40:31Z</time>
        <name>WPT.1201</name>
      </trkpt>
      <trkpt lat="17.113394060" lon="-96.458722350">
        <ele>3175.000</ele>
        <time>2017-01-13T21:40:34Z</time>
        <name>WPT.1202</name>
      </trkpt>
      <trkpt lat="17.113341850" lon="-96.458719320">
        <ele>3175.000</ele>
        <time>2017-01-13T21:40:36Z</time>
        <name>WPT.1203</name>
      </trkpt>
      <trkpt lat="17.113274880" lon="-96.458712720">
        <ele>3176.000</ele>
        <time>2017-01-13T21:40:38Z</time>
        <name>WPT.1204</name>
      </trkpt>
      <trkpt lat="17.113217810" lon="-96.458707620">
        <ele>3178.000</ele>
        <time>2017-01-13T21:40:39Z</time>
        <name>WPT.1205</name>
      </trkpt>
      <trkpt lat="17.113159620" lon="-96.458702960">
        <ele>3178.000</ele>
        <time>2017-01-13T21:40:40Z</time>
        <name>WPT.1206</name>
      </trkpt>
      <trkpt lat="17.113088540" lon="-96.458697190">
        <ele>3179.000</ele>
        <time>2017-01-13T21:40:41Z</time>
        <name>WPT.1207</name>
      </trkpt>
      <trkpt lat="17.113011640" lon="-96.458693570">
        <ele>3179.000</ele>
        <time>2017-01-13T21:40:42Z</time>
        <name>WPT.1208</name>
      </trkpt>
      <trkpt lat="17.112935670" lon="-96.458678930">
        <ele>3180.000</ele>
        <time>2017-01-13T21:40:43Z</time>
        <name>WPT.1209</name>
      </trkpt>
      <trkpt lat="17.112845670" lon="-96.458668550">
        <ele>3181.000</ele>
        <time>2017-01-13T21:40:44Z</time>
        <name>WPT.1210</name>
      </trkpt>
      <trkpt lat="17.112766090" lon="-96.458655870">
        <ele>3180.000</ele>
        <time>2017-01-13T21:40:45Z</time>
        <name>WPT.1211</name>
      </trkpt>
      <trkpt lat="17.112652280" lon="-96.458642640">
        <ele>3180.000</ele>
        <time>2017-01-13T21:40:46Z</time>
        <name>WPT.1212</name>
      </trkpt>
      <trkpt lat="17.112551640" lon="-96.458580330">
        <ele>3179.000</ele>
        <time>2017-01-13T21:40:47Z</time>
        <name>WPT.1213</name>
      </trkpt>
      <trkpt lat="17.112447630" lon="-96.458551270">
        <ele>3180.000</ele>
        <time>2017-01-13T21:40:48Z</time>
        <name>WPT.1214</name>
      </trkpt>
      <trkpt lat="17.112347290" lon="-96.458490990">
        <ele>3180.000</ele>
        <time>2017-01-13T21:40:49Z</time>
        <name>WPT.1215</name>
      </trkpt>
      <trkpt lat="17.112258980" lon="-96.458457610">
        <ele>3178.000</ele>
        <time>2017-01-13T21:40:50Z</time>
        <name>WPT.1216</name>
      </trkpt>
      <trkpt lat="17.112143440" lon="-96.458379140">
        <ele>3178.000</ele>
        <time>2017-01-13T21:40:51Z</time>
        <name>WPT.1217</name>
      </trkpt>
      <trkpt lat="17.112035210" lon="-96.458316620">
        <ele>3178.000</ele>
        <time>2017-01-13T21:40:52Z</time>
        <name>WPT.1218</name>
      </trkpt>
      <trkpt lat="17.111941290" lon="-96.458248640">
        <ele>3177.000</ele>
        <time>2017-01-13T21:40:53Z</time>
        <name>WPT.1219</name>
      </trkpt>
      <trkpt lat="17.111838970" lon="-96.458174550">
        <ele>3178.000</ele>
        <time>2017-01-13T21:40:54Z</time>
        <name>WPT.1220</name>
      </trkpt>
      <trkpt lat="17.111784820" lon="-96.458075730">
        <ele>3177.000</ele>
        <time>2017-01-13T21:40:55Z</time>
        <name>WPT.1221</name>
      </trkpt>
      <trkpt lat="17.111719460" lon="-96.457997110">
        <ele>3176.000</ele>
        <time>2017-01-13T21:40:56Z</time>
        <name>WPT.1222</name>
      </trkpt>
      <trkpt lat="17.111681880" lon="-96.457884360">
        <ele>3175.000</ele>
        <time>2017-01-13T21:40:57Z</time>
        <name>WPT.1223</name>
      </trkpt>
      <trkpt lat="17.111620720" lon="-96.457801610">
        <ele>3176.000</ele>
        <time>2017-01-13T21:40:58Z</time>
        <name>WPT.1224</name>
      </trkpt>
      <trkpt lat="17.111610600" lon="-96.457735630">
        <ele>3175.000</ele>
        <time>2017-01-13T21:40:59Z</time>
        <name>WPT.1225</name>
      </trkpt>
      <trkpt lat="17.111574790" lon="-96.457683470">
        <ele>3176.000</ele>
        <time>2017-01-13T21:41:00Z</time>
        <name>WPT.1226</name>
      </trkpt>
      <trkpt lat="17.111557520" lon="-96.457626740">
        <ele>3176.000</ele>
        <time>2017-01-13T21:41:01Z</time>
        <name>WPT.1227</name>
      </trkpt>
      <trkpt lat="17.111530300" lon="-96.457594820">
        <ele>3176.000</ele>
        <time>2017-01-13T21:41:02Z</time>
        <name>WPT.1228</name>
      </trkpt>
      <trkpt lat="17.111496380" lon="-96.457555440">
        <ele>3176.000</ele>
        <time>2017-01-13T21:41:03Z</time>
        <name>WPT.1229</name>
      </trkpt>
      <trkpt lat="17.111485920" lon="-96.457498400">
        <ele>3177.000</ele>
        <time>2017-01-13T21:41:04Z</time>
        <name>WPT.1230</name>
      </trkpt>
      <trkpt lat="17.111435520" lon="-96.457428030">
        <ele>3176.000</ele>
        <time>2017-01-13T21:41:05Z</time>
        <name>WPT.1231</name>
      </trkpt>
      <trkpt lat="17.111415060" lon="-96.457530540">
        <ele>3176.000</ele>
        <time>2017-01-13T21:41:06Z</time>
        <name>WPT.1232</name>
      </trkpt>
      <trkpt lat="17.111403780" lon="-96.457629570">
        <ele>3177.000</ele>
        <time>2017-01-13T21:41:07Z</time>
        <name>WPT.1233</name>
      </trkpt>
      <trkpt lat="17.111414710" lon="-96.457686180">
        <ele>3175.000</ele>
        <time>2017-01-13T21:41:08Z</time>
        <name>WPT.1234</name>
      </trkpt>
      <trkpt lat="17.111395290" lon="-96.457741450">
        <ele>3175.000</ele>
        <time>2017-01-13T21:41:09Z</time>
        <name>WPT.1235</name>
      </trkpt>
      <trkpt lat="17.111393450" lon="-96.457828700">
        <ele>3176.000</ele>
        <time>2017-01-13T21:41:10Z</time>
        <name>WPT.1236</name>
      </trkpt>
      <trkpt lat="17.111415590" lon="-96.457933720">
        <ele>3176.000</ele>
        <time>2017-01-13T21:41:11Z</time>
        <name>WPT.1237</name>
      </trkpt>
      <trkpt lat="17.111430520" lon="-96.458061990">
        <ele>3177.000</ele>
        <time>2017-01-13T21:41:12Z</time>
        <name>WPT.1238</name>
      </trkpt>
      <trkpt lat="17.111463090" lon="-96.458172270">
        <ele>3175.000</ele>
        <time>2017-01-13T21:41:13Z</time>
        <name>WPT.1239</name>
      </trkpt>
      <trkpt lat="17.111488340" lon="-96.458271690">
        <ele>3176.000</ele>
        <time>2017-01-13T21:41:14Z</time>
        <name>WPT.1240</name>
      </trkpt>
      <trkpt lat="17.111526760" lon="-96.458380370">
        <ele>3177.000</ele>
        <time>2017-01-13T21:41:15Z</time>
        <name>WPT.1241</name>
      </trkpt>
      <trkpt lat="17.111579740" lon="-96.458480010">
        <ele>3176.000</ele>
        <time>2017-01-13T21:41:16Z</time>
        <name>WPT.1242</name>
      </trkpt>
      <trkpt lat="17.111645360" lon="-96.458584820">
        <ele>3175.000</ele>
        <time>2017-01-13T21:41:17Z</time>
        <name>WPT.1243</name>
      </trkpt>
      <trkpt lat="17.111702140" lon="-96.458675010">
        <ele>3173.000</ele>
        <time>2017-01-13T21:41:18Z</time>
        <name>WPT.1244</name>
      </trkpt>
      <trkpt lat="17.111784770" lon="-96.458763460">
        <ele>3171.000</ele>
        <time>2017-01-13T21:41:19Z</time>
        <name>WPT.1245</name>
      </trkpt>
      <trkpt lat="17.111872460" lon="-96.458843460">
        <ele>3170.000</ele>
        <time>2017-01-13T21:41:20Z</time>
        <name>WPT.1246</name>
      </trkpt>
      <trkpt lat="17.111932540" lon="-96.458960050">
        <ele>3168.000</ele>
        <time>2017-01-13T21:41:21Z</time>
        <name>WPT.1247</name>
      </trkpt>
      <trkpt lat="17.112043330" lon="-96.459036700">
        <ele>3167.000</ele>
        <time>2017-01-13T21:41:22Z</time>
        <name>WPT.1248</name>
      </trkpt>
      <trkpt lat="17.112163100" lon="-96.459145590">
        <ele>3166.000</ele>
        <time>2017-01-13T21:41:23Z</time>
        <name>WPT.1249</name>
      </trkpt>
      <trkpt lat="17.112234700" lon="-96.459191970">
        <ele>3165.000</ele>
        <time>2017-01-13T21:41:24Z</time>
        <name>WPT.1250</name>
      </trkpt>
      <trkpt lat="17.112274870" lon="-96.459322880">
        <ele>3164.000</ele>
        <time>2017-01-13T21:41:25Z</time>
        <name>WPT.1251</name>
      </trkpt>
      <trkpt lat="17.112327270" lon="-96.459416760">
        <ele>3163.000</ele>
        <time>2017-01-13T21:41:26Z</time>
        <name>WPT.1252</name>
      </trkpt>
      <trkpt lat="17.112372660" lon="-96.459521790">
        <ele>3164.000</ele>
        <time>2017-01-13T21:41:27Z</time>
        <name>WPT.1253</name>
      </trkpt>
      <trkpt lat="17.112402820" lon="-96.459648310">
        <ele>3164.000</ele>
        <time>2017-01-13T21:41:28Z</time>
        <name>WPT.1254</name>
      </trkpt>
      <trkpt lat="17.112441820" lon="-96.459787200">
        <ele>3164.000</ele>
        <time>2017-01-13T21:41:29Z</time>
        <name>WPT.1255</name>
      </trkpt>
      <trkpt lat="17.112468560" lon="-96.459912290">
        <ele>3163.000</ele>
        <time>2017-01-13T21:41:30Z</time>
        <name>WPT.1256</name>
      </trkpt>
      <trkpt lat="17.112493500" lon="-96.460040920">
        <ele>3163.000</ele>
        <time>2017-01-13T21:41:31Z</time>
        <name>WPT.1257</name>
      </trkpt>
      <trkpt lat="17.112528170" lon="-96.460171730">
        <ele>3162.000</ele>
        <time>2017-01-13T21:41:32Z</time>
        <name>WPT.1258</name>
      </trkpt>
      <trkpt lat="17.112587930" lon="-96.460297970">
        <ele>3162.000</ele>
        <time>2017-01-13T21:41:33Z</time>
        <name>WPT.1259</name>
      </trkpt>
      <trkpt lat="17.112647910" lon="-96.460407880">
        <ele>3160.000</ele>
        <time>2017-01-13T21:41:34Z</time>
        <name>WPT.1260</name>
      </trkpt>
      <trkpt lat="17.112685770" lon="-96.460534640">
        <ele>3160.000</ele>
        <time>2017-01-13T21:41:35Z</time>
        <name>WPT.1261</name>
      </trkpt>
      <trkpt lat="17.112671650" lon="-96.460654300">
        <ele>3158.000</ele>
        <time>2017-01-13T21:41:36Z</time>
        <name>WPT.1262</name>
      </trkpt>
      <trkpt lat="17.112634190" lon="-96.460803650">
        <ele>3156.000</ele>
        <time>2017-01-13T21:41:37Z</time>
        <name>WPT.1263</name>
      </trkpt>
      <trkpt lat="17.112655180" lon="-96.460860110">
        <ele>3153.000</ele>
        <time>2017-01-13T21:41:38Z</time>
        <name>WPT.1264</name>
      </trkpt>
      <trkpt lat="17.112691150" lon="-96.460956680">
        <ele>3151.000</ele>
        <time>2017-01-13T21:41:39Z</time>
        <name>WPT.1265</name>
      </trkpt>
      <trkpt lat="17.112687880" lon="-96.461034520">
        <ele>3150.000</ele>
        <time>2017-01-13T21:41:40Z</time>
        <name>WPT.1266</name>
      </trkpt>
      <trkpt lat="17.112581710" lon="-96.461123140">
        <ele>3151.000</ele>
        <time>2017-01-13T21:41:41Z</time>
        <name>WPT.1267</name>
      </trkpt>
      <trkpt lat="17.112450150" lon="-96.461148090">
        <ele>3149.000</ele>
        <time>2017-01-13T21:41:42Z</time>
        <name>WPT.1268</name>
      </trkpt>
      <trkpt lat="17.112293780" lon="-96.461130240">
        <ele>3147.000</ele>
        <time>2017-01-13T21:41:43Z</time>
        <name>WPT.1269</name>
      </trkpt>
      <trkpt lat="17.112186300" lon="-96.461171610">
        <ele>3148.000</ele>
        <time>2017-01-13T21:41:44Z</time>
        <name>WPT.1270</name>
      </trkpt>
      <trkpt lat="17.112035970" lon="-96.461170870">
        <ele>3146.000</ele>
        <time>2017-01-13T21:41:45Z</time>
        <name>WPT.1271</name>
      </trkpt>
      <trkpt lat="17.111933000" lon="-96.461221860">
        <ele>3144.000</ele>
        <time>2017-01-13T21:41:46Z</time>
        <name>WPT.1272</name>
      </trkpt>
      <trkpt lat="17.111816400" lon="-96.461266730">
        <ele>3144.000</ele>
        <time>2017-01-13T21:41:47Z</time>
        <name>WPT.1273</name>
      </trkpt>
      <trkpt lat="17.111712080" lon="-96.461330360">
        <ele>3144.000</ele>
        <time>2017-01-13T21:41:48Z</time>
        <name>WPT.1274</name>
      </trkpt>
      <trkpt lat="17.111604590" lon="-96.461381910">
        <ele>3143.000</ele>
        <time>2017-01-13T21:41:49Z</time>
        <name>WPT.1275</name>
      </trkpt>
      <trkpt lat="17.111482580" lon="-96.461442730">
        <ele>3143.000</ele>
        <time>2017-01-13T21:41:50Z</time>
        <name>WPT.1276</name>
      </trkpt>
      <trkpt lat="17.111348860" lon="-96.461461270">
        <ele>3141.000</ele>
        <time>2017-01-13T21:41:51Z</time>
        <name>WPT.1277</name>
      </trkpt>
      <trkpt lat="17.111236880" lon="-96.461523210">
        <ele>3140.000</ele>
        <time>2017-01-13T21:41:52Z</time>
        <name>WPT.1278</name>
      </trkpt>
      <trkpt lat="17.111141060" lon="-96.461568900">
        <ele>3141.000</ele>
        <time>2017-01-13T21:41:53Z</time>
        <name>WPT.1279</name>
      </trkpt>
      <trkpt lat="17.111035800" lon="-96.461664640">
        <ele>3138.000</ele>
        <time>2017-01-13T21:41:54Z</time>
        <name>WPT.1280</name>
      </trkpt>
      <trkpt lat="17.110951730" lon="-96.461794980">
        <ele>3135.000</ele>
        <time>2017-01-13T21:41:55Z</time>
        <name>WPT.1281</name>
      </trkpt>
      <trkpt lat="17.110871180" lon="-96.461896610">
        <ele>3135.000</ele>
        <time>2017-01-13T21:41:56Z</time>
        <name>WPT.1282</name>
      </trkpt>
      <trkpt lat="17.110810120" lon="-96.462009210">
        <ele>3137.000</ele>
        <time>2017-01-13T21:41:57Z</time>
        <name>WPT.1283</name>
      </trkpt>
      <trkpt lat="17.110750030" lon="-96.462101440">
        <ele>3138.000</ele>
        <time>2017-01-13T21:41:58Z</time>
        <name>WPT.1284</name>
      </trkpt>
      <trkpt lat="17.110672500" lon="-96.462205470">
        <ele>3137.000</ele>
        <time>2017-01-13T21:41:59Z</time>
        <name>WPT.1285</name>
      </trkpt>
      <trkpt lat="17.110589800" lon="-96.462290310">
        <ele>3137.000</ele>
        <time>2017-01-13T21:42:00Z</time>
        <name>WPT.1286</name>
      </trkpt>
      <trkpt lat="17.110473200" lon="-96.462330890">
        <ele>3136.000</ele>
        <time>2017-01-13T21:42:01Z</time>
        <name>WPT.1287</name>
      </trkpt>
      <trkpt lat="17.110304060" lon="-96.462260060">
        <ele>3130.000</ele>
        <time>2017-01-13T21:42:02Z</time>
        <name>WPT.1288</name>
      </trkpt>
      <trkpt lat="17.110264720" lon="-96.462297480">
        <ele>3129.000</ele>
        <time>2017-01-13T21:42:03Z</time>
        <name>WPT.1289</name>
      </trkpt>
      <trkpt lat="17.110163620" lon="-96.462322280">
        <ele>3128.000</ele>
        <time>2017-01-13T21:42:04Z</time>
        <name>WPT.1290</name>
      </trkpt>
      <trkpt lat="17.110043480" lon="-96.462340950">
        <ele>3128.000</ele>
        <time>2017-01-13T21:42:05Z</time>
        <name>WPT.1291</name>
      </trkpt>
      <trkpt lat="17.109939170" lon="-96.462367750">
        <ele>3126.000</ele>
        <time>2017-01-13T21:42:06Z</time>
        <name>WPT.1292</name>
      </trkpt>
      <trkpt lat="17.109836450" lon="-96.462391450">
        <ele>3124.000</ele>
        <time>2017-01-13T21:42:07Z</time>
        <name>WPT.1293</name>
      </trkpt>
      <trkpt lat="17.109714980" lon="-96.462409330">
        <ele>3121.000</ele>
        <time>2017-01-13T21:42:08Z</time>
        <name>WPT.1294</name>
      </trkpt>
      <trkpt lat="17.109618120" lon="-96.462449100">
        <ele>3121.000</ele>
        <time>2017-01-13T21:42:09Z</time>
        <name>WPT.1295</name>
      </trkpt>
      <trkpt lat="17.109496520" lon="-96.462521640">
        <ele>3121.000</ele>
        <time>2017-01-13T21:42:10Z</time>
        <name>WPT.1296</name>
      </trkpt>
      <trkpt lat="17.109406050" lon="-96.462578520">
        <ele>3120.000</ele>
        <time>2017-01-13T21:42:11Z</time>
        <name>WPT.1297</name>
      </trkpt>
      <trkpt lat="17.109313940" lon="-96.462618640">
        <ele>3120.000</ele>
        <time>2017-01-13T21:42:12Z</time>
        <name>WPT.1298</name>
      </trkpt>
      <trkpt lat="17.109217150" lon="-96.462645550">
        <ele>3120.000</ele>
        <time>2017-01-13T21:42:13Z</time>
        <name>WPT.1299</name>
      </trkpt>
      <trkpt lat="17.109117640" lon="-96.462634480">
        <ele>3118.000</ele>
        <time>2017-01-13T21:42:14Z</time>
        <name>WPT.1300</name>
      </trkpt>
      <trkpt lat="17.108967250" lon="-96.462645140">
        <ele>3115.000</ele>
        <time>2017-01-13T21:42:15Z</time>
        <name>WPT.1301</name>
      </trkpt>
      <trkpt lat="17.108872260" lon="-96.462655590">
        <ele>3116.000</ele>
        <time>2017-01-13T21:42:16Z</time>
        <name>WPT.1302</name>
      </trkpt>
      <trkpt lat="17.108722190" lon="-96.462634070">
        <ele>3116.000</ele>
        <time>2017-01-13T21:42:17Z</time>
        <name>WPT.1303</name>
      </trkpt>
      <trkpt lat="17.108588560" lon="-96.462592030">
        <ele>3116.000</ele>
        <time>2017-01-13T21:42:18Z</time>
        <name>WPT.1304</name>
      </trkpt>
      <trkpt lat="17.108471020" lon="-96.462560450">
        <ele>3116.000</ele>
        <time>2017-01-13T21:42:19Z</time>
        <name>WPT.1305</name>
      </trkpt>
      <trkpt lat="17.108356440" lon="-96.462507640">
        <ele>3115.000</ele>
        <time>2017-01-13T21:42:20Z</time>
        <name>WPT.1306</name>
      </trkpt>
      <trkpt lat="17.108275960" lon="-96.462506070">
        <ele>3111.000</ele>
        <time>2017-01-13T21:42:21Z</time>
        <name>WPT.1307</name>
      </trkpt>
      <trkpt lat="17.108193440" lon="-96.462449860">
        <ele>3108.000</ele>
        <time>2017-01-13T21:42:22Z</time>
        <name>WPT.1308</name>
      </trkpt>
      <trkpt lat="17.108087850" lon="-96.462445790">
        <ele>3109.000</ele>
        <time>2017-01-13T21:42:23Z</time>
        <name>WPT.1309</name>
      </trkpt>
      <trkpt lat="17.107962780" lon="-96.462474520">
        <ele>3108.000</ele>
        <time>2017-01-13T21:42:24Z</time>
        <name>WPT.1310</name>
      </trkpt>
      <trkpt lat="17.107813940" lon="-96.462587650">
        <ele>3104.000</ele>
        <time>2017-01-13T21:42:25Z</time>
        <name>WPT.1311</name>
      </trkpt>
      <trkpt lat="17.107714740" lon="-96.462617220">
        <ele>3105.000</ele>
        <time>2017-01-13T21:42:26Z</time>
        <name>WPT.1312</name>
      </trkpt>
      <trkpt lat="17.107594450" lon="-96.462654580">
        <ele>3105.000</ele>
        <time>2017-01-13T21:42:27Z</time>
        <name>WPT.1313</name>
      </trkpt>
      <trkpt lat="17.107589990" lon="-96.462758590">
        <ele>3104.000</ele>
        <time>2017-01-13T21:42:28Z</time>
        <name>WPT.1314</name>
      </trkpt>
      <trkpt lat="17.107513430" lon="-96.462838650">
        <ele>3104.000</ele>
        <time>2017-01-13T21:42:29Z</time>
        <name>WPT.1315</name>
      </trkpt>
      <trkpt lat="17.107510650" lon="-96.462931760">
        <ele>3102.000</ele>
        <time>2017-01-13T21:42:30Z</time>
        <name>WPT.1316</name>
      </trkpt>
      <trkpt lat="17.107407620" lon="-96.462983620">
        <ele>3101.000</ele>
        <time>2017-01-13T21:42:31Z</time>
        <name>WPT.1317</name>
      </trkpt>
      <trkpt lat="17.107309720" lon="-96.463023180">
        <ele>3099.000</ele>
        <time>2017-01-13T21:42:32Z</time>
        <name>WPT.1318</name>
      </trkpt>
      <trkpt lat="17.107201230" lon="-96.463037410">
        <ele>3098.000</ele>
        <time>2017-01-13T21:42:33Z</time>
        <name>WPT.1319</name>
      </trkpt>
      <trkpt lat="17.107100830" lon="-96.463054380">
        <ele>3096.000</ele>
        <time>2017-01-13T21:42:34Z</time>
        <name>WPT.1320</name>
      </trkpt>
      <trkpt lat="17.107001890" lon="-96.463132600">
        <ele>3096.000</ele>
        <time>2017-01-13T21:42:35Z</time>
        <name>WPT.1321</name>
      </trkpt>
      <trkpt lat="17.106908330" lon="-96.463177440">
        <ele>3095.000</ele>
        <time>2017-01-13T21:42:36Z</time>
        <name>WPT.1322</name>
      </trkpt>
      <trkpt lat="17.106827210" lon="-96.463296670">
        <ele>3094.000</ele>
        <time>2017-01-13T21:42:37Z</time>
        <name>WPT.1323</name>
      </trkpt>
      <trkpt lat="17.106733320" lon="-96.463397980">
        <ele>3093.000</ele>
        <time>2017-01-13T21:42:38Z</time>
        <name>WPT.1324</name>
      </trkpt>
      <trkpt lat="17.106654310" lon="-96.463507870">
        <ele>3091.000</ele>
        <time>2017-01-13T21:42:39Z</time>
        <name>WPT.1325</name>
      </trkpt>
      <trkpt lat="17.106600760" lon="-96.463644130">
        <ele>3090.000</ele>
        <time>2017-01-13T21:42:40Z</time>
        <name>WPT.1326</name>
      </trkpt>
      <trkpt lat="17.106501330" lon="-96.463796230">
        <ele>3089.000</ele>
        <time>2017-01-13T21:42:41Z</time>
        <name>WPT.1327</name>
      </trkpt>
      <trkpt lat="17.106421350" lon="-96.463912550">
        <ele>3087.000</ele>
        <time>2017-01-13T21:42:42Z</time>
        <name>WPT.1328</name>
      </trkpt>
      <trkpt lat="17.106326530" lon="-96.464064810">
        <ele>3086.000</ele>
        <time>2017-01-13T21:42:43Z</time>
        <name>WPT.1329</name>
      </trkpt>
      <trkpt lat="17.106247930" lon="-96.464184890">
        <ele>3086.000</ele>
        <time>2017-01-13T21:42:44Z</time>
        <name>WPT.1330</name>
      </trkpt>
      <trkpt lat="17.106159440" lon="-96.464319260">
        <ele>3085.000</ele>
        <time>2017-01-13T21:42:45Z</time>
        <name>WPT.1331</name>
      </trkpt>
      <trkpt lat="17.106069350" lon="-96.464444620">
        <ele>3085.000</ele>
        <time>2017-01-13T21:42:46Z</time>
        <name>WPT.1332</name>
      </trkpt>
      <trkpt lat="17.106009840" lon="-96.464568850">
        <ele>3085.000</ele>
        <time>2017-01-13T21:42:47Z</time>
        <name>WPT.1333</name>
      </trkpt>
      <trkpt lat="17.105921240" lon="-96.464636990">
        <ele>3082.000</ele>
        <time>2017-01-13T21:42:48Z</time>
        <name>WPT.1334</name>
      </trkpt>
      <trkpt lat="17.105849300" lon="-96.464736070">
        <ele>3081.000</ele>
        <time>2017-01-13T21:42:49Z</time>
        <name>WPT.1335</name>
      </trkpt>
      <trkpt lat="17.105830300" lon="-96.464832960">
        <ele>3079.000</ele>
        <time>2017-01-13T21:42:50Z</time>
        <name>WPT.1336</name>
      </trkpt>
      <trkpt lat="17.105781930" lon="-96.464905090">
        <ele>3077.000</ele>
        <time>2017-01-13T21:42:51Z</time>
        <name>WPT.1337</name>
      </trkpt>
      <trkpt lat="17.105765180" lon="-96.464995170">
        <ele>3075.000</ele>
        <time>2017-01-13T21:42:52Z</time>
        <name>WPT.1338</name>
      </trkpt>
      <trkpt lat="17.105812740" lon="-96.465108410">
        <ele>3074.000</ele>
        <time>2017-01-13T21:42:53Z</time>
        <name>WPT.1339</name>
      </trkpt>
      <trkpt lat="17.105818900" lon="-96.465213390">
        <ele>3074.000</ele>
        <time>2017-01-13T21:42:54Z</time>
        <name>WPT.1340</name>
      </trkpt>
      <trkpt lat="17.105850020" lon="-96.465324150">
        <ele>3073.000</ele>
        <time>2017-01-13T21:42:55Z</time>
        <name>WPT.1341</name>
      </trkpt>
      <trkpt lat="17.105896440" lon="-96.465437070">
        <ele>3072.000</ele>
        <time>2017-01-13T21:42:56Z</time>
        <name>WPT.1342</name>
      </trkpt>
      <trkpt lat="17.105949350" lon="-96.465541760">
        <ele>3073.000</ele>
        <time>2017-01-13T21:42:57Z</time>
        <name>WPT.1343</name>
      </trkpt>
      <trkpt lat="17.106016510" lon="-96.465647450">
        <ele>3073.000</ele>
        <time>2017-01-13T21:42:58Z</time>
        <name>WPT.1344</name>
      </trkpt>
      <trkpt lat="17.106064860" lon="-96.465751620">
        <ele>3073.000</ele>
        <time>2017-01-13T21:42:59Z</time>
        <name>WPT.1345</name>
      </trkpt>
      <trkpt lat="17.106076160" lon="-96.465869870">
        <ele>3074.000</ele>
        <time>2017-01-13T21:43:00Z</time>
        <name>WPT.1346</name>
      </trkpt>
      <trkpt lat="17.106039720" lon="-96.465969200">
        <ele>3073.000</ele>
        <time>2017-01-13T21:43:01Z</time>
        <name>WPT.1347</name>
      </trkpt>
      <trkpt lat="17.105961280" lon="-96.465987750">
        <ele>3070.000</ele>
        <time>2017-01-13T21:43:02Z</time>
        <name>WPT.1348</name>
      </trkpt>
      <trkpt lat="17.105858140" lon="-96.466004850">
        <ele>3067.000</ele>
        <time>2017-01-13T21:43:03Z</time>
        <name>WPT.1349</name>
      </trkpt>
      <trkpt lat="17.105792460" lon="-96.466018150">
        <ele>3065.000</ele>
        <time>2017-01-13T21:43:04Z</time>
        <name>WPT.1350</name>
      </trkpt>
      <trkpt lat="17.105701140" lon="-96.466067820">
        <ele>3064.000</ele>
        <time>2017-01-13T21:43:05Z</time>
        <name>WPT.1351</name>
      </trkpt>
      <trkpt lat="17.105562990" lon="-96.466064580">
        <ele>3065.000</ele>
        <time>2017-01-13T21:43:06Z</time>
        <name>WPT.1352</name>
      </trkpt>
      <trkpt lat="17.105424850" lon="-96.466104850">
        <ele>3064.000</ele>
        <time>2017-01-13T21:43:07Z</time>
        <name>WPT.1353</name>
      </trkpt>
      <trkpt lat="17.105294010" lon="-96.466120200">
        <ele>3063.000</ele>
        <time>2017-01-13T21:43:08Z</time>
        <name>WPT.1354</name>
      </trkpt>
      <trkpt lat="17.105161310" lon="-96.466166570">
        <ele>3063.000</ele>
        <time>2017-01-13T21:43:09Z</time>
        <name>WPT.1355</name>
      </trkpt>
      <trkpt lat="17.105030310" lon="-96.466215940">
        <ele>3062.000</ele>
        <time>2017-01-13T21:43:10Z</time>
        <name>WPT.1356</name>
      </trkpt>
      <trkpt lat="17.104927610" lon="-96.466264240">
        <ele>3061.000</ele>
        <time>2017-01-13T21:43:11Z</time>
        <name>WPT.1357</name>
      </trkpt>
      <trkpt lat="17.104853010" lon="-96.466302060">
        <ele>3060.000</ele>
        <time>2017-01-13T21:43:12Z</time>
        <name>WPT.1358</name>
      </trkpt>
      <trkpt lat="17.104799470" lon="-96.466342560">
        <ele>3060.000</ele>
        <time>2017-01-13T21:43:13Z</time>
        <name>WPT.1359</name>
      </trkpt>
      <trkpt lat="17.104743080" lon="-96.466400590">
        <ele>3059.000</ele>
        <time>2017-01-13T21:43:14Z</time>
        <name>WPT.1360</name>
      </trkpt>
      <trkpt lat="17.104717550" lon="-96.466489730">
        <ele>3058.000</ele>
        <time>2017-01-13T21:43:15Z</time>
        <name>WPT.1361</name>
      </trkpt>
      <trkpt lat="17.104765580" lon="-96.466687840">
        <ele>3055.000</ele>
        <time>2017-01-13T21:43:16Z</time>
        <name>WPT.1362</name>
      </trkpt>
      <trkpt lat="17.104732450" lon="-96.466785720">
        <ele>3055.000</ele>
        <time>2017-01-13T21:43:17Z</time>
        <name>WPT.1363</name>
      </trkpt>
      <trkpt lat="17.104686130" lon="-96.466846530">
        <ele>3053.000</ele>
        <time>2017-01-13T21:43:18Z</time>
        <name>WPT.1364</name>
      </trkpt>
      <trkpt lat="17.104594900" lon="-96.466810550">
        <ele>3050.000</ele>
        <time>2017-01-13T21:43:19Z</time>
        <name>WPT.1365</name>
      </trkpt>
      <trkpt lat="17.104495360" lon="-96.466808830">
        <ele>3049.000</ele>
        <time>2017-01-13T21:43:20Z</time>
        <name>WPT.1366</name>
      </trkpt>
      <trkpt lat="17.104392170" lon="-96.466832340">
        <ele>3048.000</ele>
        <time>2017-01-13T21:43:21Z</time>
        <name>WPT.1367</name>
      </trkpt>
      <trkpt lat="17.104265340" lon="-96.466849040">
        <ele>3047.000</ele>
        <time>2017-01-13T21:43:22Z</time>
        <name>WPT.1368</name>
      </trkpt>
      <trkpt lat="17.104165650" lon="-96.466875410">
        <ele>3043.000</ele>
        <time>2017-01-13T21:43:23Z</time>
        <name>WPT.1369</name>
      </trkpt>
      <trkpt lat="17.104040890" lon="-96.466913950">
        <ele>3044.000</ele>
        <time>2017-01-13T21:43:24Z</time>
        <name>WPT.1370</name>
      </trkpt>
      <trkpt lat="17.103916690" lon="-96.466939800">
        <ele>3043.000</ele>
        <time>2017-01-13T21:43:25Z</time>
        <name>WPT.1371</name>
      </trkpt>
      <trkpt lat="17.103810050" lon="-96.466988330">
        <ele>3042.000</ele>
        <time>2017-01-13T21:43:26Z</time>
        <name>WPT.1372</name>
      </trkpt>
      <trkpt lat="17.103704690" lon="-96.467024130">
        <ele>3041.000</ele>
        <time>2017-01-13T21:43:27Z</time>
        <name>WPT.1373</name>
      </trkpt>
      <trkpt lat="17.103620610" lon="-96.467059480">
        <ele>3040.000</ele>
        <time>2017-01-13T21:43:28Z</time>
        <name>WPT.1374</name>
      </trkpt>
      <trkpt lat="17.103480730" lon="-96.467131170">
        <ele>3038.000</ele>
        <time>2017-01-13T21:43:29Z</time>
        <name>WPT.1375</name>
      </trkpt>
      <trkpt lat="17.103334660" lon="-96.467164360">
        <ele>3038.000</ele>
        <time>2017-01-13T21:43:30Z</time>
        <name>WPT.1376</name>
      </trkpt>
      <trkpt lat="17.103276270" lon="-96.467260920">
        <ele>3031.000</ele>
        <time>2017-01-13T21:43:31Z</time>
        <name>WPT.1377</name>
      </trkpt>
      <trkpt lat="17.103138220" lon="-96.467319190">
        <ele>3030.000</ele>
        <time>2017-01-13T21:43:32Z</time>
        <name>WPT.1378</name>
      </trkpt>
      <trkpt lat="17.103011770" lon="-96.467349870">
        <ele>3029.000</ele>
        <time>2017-01-13T21:43:33Z</time>
        <name>WPT.1379</name>
      </trkpt>
      <trkpt lat="17.102896250" lon="-96.467397330">
        <ele>3028.000</ele>
        <time>2017-01-13T21:43:34Z</time>
        <name>WPT.1380</name>
      </trkpt>
      <trkpt lat="17.102766280" lon="-96.467449950">
        <ele>3029.000</ele>
        <time>2017-01-13T21:43:35Z</time>
        <name>WPT.1381</name>
      </trkpt>
      <trkpt lat="17.102646730" lon="-96.467469700">
        <ele>3028.000</ele>
        <time>2017-01-13T21:43:36Z</time>
        <name>WPT.1382</name>
      </trkpt>
      <trkpt lat="17.102521720" lon="-96.467475290">
        <ele>3029.000</ele>
        <time>2017-01-13T21:43:37Z</time>
        <name>WPT.1383</name>
      </trkpt>
      <trkpt lat="17.102404430" lon="-96.467504660">
        <ele>3028.000</ele>
        <time>2017-01-13T21:43:38Z</time>
        <name>WPT.1384</name>
      </trkpt>
      <trkpt lat="17.102313560" lon="-96.467512820">
        <ele>3028.000</ele>
        <time>2017-01-13T21:43:39Z</time>
        <name>WPT.1385</name>
      </trkpt>
      <trkpt lat="17.102291550" lon="-96.467655390">
        <ele>3022.000</ele>
        <time>2017-01-13T21:43:40Z</time>
        <name>WPT.1386</name>
      </trkpt>
      <trkpt lat="17.102227970" lon="-96.467806770">
        <ele>3017.000</ele>
        <time>2017-01-13T21:43:41Z</time>
        <name>WPT.1387</name>
      </trkpt>
      <trkpt lat="17.102173110" lon="-96.467880920">
        <ele>3017.000</ele>
        <time>2017-01-13T21:43:42Z</time>
        <name>WPT.1388</name>
      </trkpt>
      <trkpt lat="17.102186600" lon="-96.467997680">
        <ele>3017.000</ele>
        <time>2017-01-13T21:43:43Z</time>
        <name>WPT.1389</name>
      </trkpt>
      <trkpt lat="17.102194130" lon="-96.468085930">
        <ele>3016.000</ele>
        <time>2017-01-13T21:43:44Z</time>
        <name>WPT.1390</name>
      </trkpt>
      <trkpt lat="17.102238240" lon="-96.468181360">
        <ele>3016.000</ele>
        <time>2017-01-13T21:43:45Z</time>
        <name>WPT.1391</name>
      </trkpt>
      <trkpt lat="17.102270800" lon="-96.468266340">
        <ele>3016.000</ele>
        <time>2017-01-13T21:43:46Z</time>
        <name>WPT.1392</name>
      </trkpt>
      <trkpt lat="17.102284930" lon="-96.468355340">
        <ele>3015.000</ele>
        <time>2017-01-13T21:43:47Z</time>
        <name>WPT.1393</name>
      </trkpt>
      <trkpt lat="17.102269020" lon="-96.468437060">
        <ele>3015.000</ele>
        <time>2017-01-13T21:43:48Z</time>
        <name>WPT.1394</name>
      </trkpt>
      <trkpt lat="17.102231350" lon="-96.468532110">
        <ele>3015.000</ele>
        <time>2017-01-13T21:43:49Z</time>
        <name>WPT.1395</name>
      </trkpt>
      <trkpt lat="17.102200330" lon="-96.468600720">
        <ele>3014.000</ele>
        <time>2017-01-13T21:43:50Z</time>
        <name>WPT.1396</name>
      </trkpt>
      <trkpt lat="17.102149710" lon="-96.468668130">
        <ele>3013.000</ele>
        <time>2017-01-13T21:43:51Z</time>
        <name>WPT.1397</name>
      </trkpt>
      <trkpt lat="17.102050050" lon="-96.468724500">
        <ele>3013.000</ele>
        <time>2017-01-13T21:43:52Z</time>
        <name>WPT.1398</name>
      </trkpt>
      <trkpt lat="17.101980090" lon="-96.468796340">
        <ele>3013.000</ele>
        <time>2017-01-13T21:43:53Z</time>
        <name>WPT.1399</name>
      </trkpt>
      <trkpt lat="17.101792710" lon="-96.468814840">
        <ele>3012.000</ele>
        <time>2017-01-13T21:43:54Z</time>
        <name>WPT.1400</name>
      </trkpt>
      <trkpt lat="17.101679450" lon="-96.468866610">
        <ele>3012.000</ele>
        <time>2017-01-13T21:43:55Z</time>
        <name>WPT.1401</name>
      </trkpt>
      <trkpt lat="17.101569630" lon="-96.468881680">
        <ele>3008.000</ele>
        <time>2017-01-13T21:43:56Z</time>
        <name>WPT.1402</name>
      </trkpt>
      <trkpt lat="17.101420860" lon="-96.468917290">
        <ele>3006.000</ele>
        <time>2017-01-13T21:43:57Z</time>
        <name>WPT.1403</name>
      </trkpt>
      <trkpt lat="17.101246490" lon="-96.468949140">
        <ele>3003.000</ele>
        <time>2017-01-13T21:43:58Z</time>
        <name>WPT.1404</name>
      </trkpt>
      <trkpt lat="17.101099560" lon="-96.469007120">
        <ele>3000.000</ele>
        <time>2017-01-13T21:43:59Z</time>
        <name>WPT.1405</name>
      </trkpt>
      <trkpt lat="17.100968360" lon="-96.469026010">
        <ele>2999.000</ele>
        <time>2017-01-13T21:44:00Z</time>
        <name>WPT.1406</name>
      </trkpt>
      <trkpt lat="17.100834900" lon="-96.469054500">
        <ele>2999.000</ele>
        <time>2017-01-13T21:44:01Z</time>
        <name>WPT.1407</name>
      </trkpt>
      <trkpt lat="17.100701790" lon="-96.469027320">
        <ele>2999.000</ele>
        <time>2017-01-13T21:44:02Z</time>
        <name>WPT.1408</name>
      </trkpt>
      <trkpt lat="17.100559860" lon="-96.469036880">
        <ele>2998.000</ele>
        <time>2017-01-13T21:44:03Z</time>
        <name>WPT.1409</name>
      </trkpt>
      <trkpt lat="17.100412790" lon="-96.469017390">
        <ele>2997.000</ele>
        <time>2017-01-13T21:44:04Z</time>
        <name>WPT.1410</name>
      </trkpt>
      <trkpt lat="17.100348140" lon="-96.468860100">
        <ele>2994.000</ele>
        <time>2017-01-13T21:44:05Z</time>
        <name>WPT.1411</name>
      </trkpt>
      <trkpt lat="17.100232880" lon="-96.468776370">
        <ele>2992.000</ele>
        <time>2017-01-13T21:44:06Z</time>
        <name>WPT.1412</name>
      </trkpt>
      <trkpt lat="17.100130260" lon="-96.468694410">
        <ele>2992.000</ele>
        <time>2017-01-13T21:44:07Z</time>
        <name>WPT.1413</name>
      </trkpt>
      <trkpt lat="17.100009280" lon="-96.468625800">
        <ele>2990.000</ele>
        <time>2017-01-13T21:44:08Z</time>
        <name>WPT.1414</name>
      </trkpt>
      <trkpt lat="17.099847630" lon="-96.468590860">
        <ele>2990.000</ele>
        <time>2017-01-13T21:44:09Z</time>
        <name>WPT.1415</name>
      </trkpt>
      <trkpt lat="17.099745430" lon="-96.468606570">
        <ele>2987.000</ele>
        <time>2017-01-13T21:44:10Z</time>
        <name>WPT.1416</name>
      </trkpt>
      <trkpt lat="17.099605040" lon="-96.468629210">
        <ele>2987.000</ele>
        <time>2017-01-13T21:44:11Z</time>
        <name>WPT.1417</name>
      </trkpt>
      <trkpt lat="17.099497010" lon="-96.468661390">
        <ele>2983.000</ele>
        <time>2017-01-13T21:44:12Z</time>
        <name>WPT.1418</name>
      </trkpt>
      <trkpt lat="17.099349650" lon="-96.468704160">
        <ele>2983.000</ele>
        <time>2017-01-13T21:44:13Z</time>
        <name>WPT.1419</name>
      </trkpt>
      <trkpt lat="17.099203140" lon="-96.468705750">
        <ele>2984.000</ele>
        <time>2017-01-13T21:44:14Z</time>
        <name>WPT.1420</name>
      </trkpt>
      <trkpt lat="17.099075290" lon="-96.468735970">
        <ele>2982.000</ele>
        <time>2017-01-13T21:44:15Z</time>
        <name>WPT.1421</name>
      </trkpt>
      <trkpt lat="17.098945940" lon="-96.468766670">
        <ele>2981.000</ele>
        <time>2017-01-13T21:44:16Z</time>
        <name>WPT.1422</name>
      </trkpt>
      <trkpt lat="17.098828980" lon="-96.468788030">
        <ele>2983.000</ele>
        <time>2017-01-13T21:44:17Z</time>
        <name>WPT.1423</name>
      </trkpt>
      <trkpt lat="17.098687670" lon="-96.468768380">
        <ele>2982.000</ele>
        <time>2017-01-13T21:44:18Z</time>
        <name>WPT.1424</name>
      </trkpt>
      <trkpt lat="17.098575160" lon="-96.468808720">
        <ele>2979.000</ele>
        <time>2017-01-13T21:44:19Z</time>
        <name>WPT.1425</name>
      </trkpt>
      <trkpt lat="17.098449720" lon="-96.468816000">
        <ele>2979.000</ele>
        <time>2017-01-13T21:44:20Z</time>
        <name>WPT.1426</name>
      </trkpt>
      <trkpt lat="17.098367300" lon="-96.468885090">
        <ele>2978.000</ele>
        <time>2017-01-13T21:44:21Z</time>
        <name>WPT.1427</name>
      </trkpt>
      <trkpt lat="17.098282170" lon="-96.468910590">
        <ele>2977.000</ele>
        <time>2017-01-13T21:44:22Z</time>
        <name>WPT.1428</name>
      </trkpt>
      <trkpt lat="17.098189530" lon="-96.468938670">
        <ele>2977.000</ele>
        <time>2017-01-13T21:44:23Z</time>
        <name>WPT.1429</name>
      </trkpt>
      <trkpt lat="17.098123610" lon="-96.469030780">
        <ele>2976.000</ele>
        <time>2017-01-13T21:44:24Z</time>
        <name>WPT.1430</name>
      </trkpt>
      <trkpt lat="17.098089080" lon="-96.469169190">
        <ele>2975.000</ele>
        <time>2017-01-13T21:44:25Z</time>
        <name>WPT.1431</name>
      </trkpt>
      <trkpt lat="17.098066590" lon="-96.469407660">
        <ele>2971.000</ele>
        <time>2017-01-13T21:44:26Z</time>
        <name>WPT.1432</name>
      </trkpt>
      <trkpt lat="17.098056320" lon="-96.469517970">
        <ele>2970.000</ele>
        <time>2017-01-13T21:44:27Z</time>
        <name>WPT.1433</name>
      </trkpt>
      <trkpt lat="17.098134960" lon="-96.469615630">
        <ele>2971.000</ele>
        <time>2017-01-13T21:44:28Z</time>
        <name>WPT.1434</name>
      </trkpt>
      <trkpt lat="17.098135140" lon="-96.469691380">
        <ele>2969.000</ele>
        <time>2017-01-13T21:44:29Z</time>
        <name>WPT.1435</name>
      </trkpt>
      <trkpt lat="17.098211290" lon="-96.469745890">
        <ele>2968.000</ele>
        <time>2017-01-13T21:44:30Z</time>
        <name>WPT.1436</name>
      </trkpt>
      <trkpt lat="17.098302660" lon="-96.469785590">
        <ele>2967.000</ele>
        <time>2017-01-13T21:44:31Z</time>
        <name>WPT.1437</name>
      </trkpt>
      <trkpt lat="17.098450970" lon="-96.469818920">
        <ele>2968.000</ele>
        <time>2017-01-13T21:44:32Z</time>
        <name>WPT.1438</name>
      </trkpt>
      <trkpt lat="17.098642370" lon="-96.469808410">
        <ele>2964.000</ele>
        <time>2017-01-13T21:44:33Z</time>
        <name>WPT.1439</name>
      </trkpt>
      <trkpt lat="17.098749800" lon="-96.469816270">
        <ele>2963.000</ele>
        <time>2017-01-13T21:44:34Z</time>
        <name>WPT.1440</name>
      </trkpt>
      <trkpt lat="17.098887290" lon="-96.469822680">
        <ele>2961.000</ele>
        <time>2017-01-13T21:44:35Z</time>
        <name>WPT.1441</name>
      </trkpt>
      <trkpt lat="17.098990810" lon="-96.469904680">
        <ele>2961.000</ele>
        <time>2017-01-13T21:44:36Z</time>
        <name>WPT.1442</name>
      </trkpt>
      <trkpt lat="17.099125080" lon="-96.469970220">
        <ele>2960.000</ele>
        <time>2017-01-13T21:44:37Z</time>
        <name>WPT.1443</name>
      </trkpt>
      <trkpt lat="17.099240470" lon="-96.470050580">
        <ele>2959.000</ele>
        <time>2017-01-13T21:44:38Z</time>
        <name>WPT.1444</name>
      </trkpt>
      <trkpt lat="17.099353420" lon="-96.470110360">
        <ele>2959.000</ele>
        <time>2017-01-13T21:44:39Z</time>
        <name>WPT.1445</name>
      </trkpt>
      <trkpt lat="17.099440070" lon="-96.470197650">
        <ele>2956.000</ele>
        <time>2017-01-13T21:44:40Z</time>
        <name>WPT.1446</name>
      </trkpt>
      <trkpt lat="17.099534600" lon="-96.470305690">
        <ele>2955.000</ele>
        <time>2017-01-13T21:44:41Z</time>
        <name>WPT.1447</name>
      </trkpt>
      <trkpt lat="17.099607480" lon="-96.470316800">
        <ele>2953.000</ele>
        <time>2017-01-13T21:44:42Z</time>
        <name>WPT.1448</name>
      </trkpt>
      <trkpt lat="17.099674510" lon="-96.470435590">
        <ele>2952.000</ele>
        <time>2017-01-13T21:44:43Z</time>
        <name>WPT.1449</name>
      </trkpt>
      <trkpt lat="17.099740230" lon="-96.470487360">
        <ele>2951.000</ele>
        <time>2017-01-13T21:44:44Z</time>
        <name>WPT.1450</name>
      </trkpt>
      <trkpt lat="17.099801700" lon="-96.470628660">
        <ele>2951.000</ele>
        <time>2017-01-13T21:44:46Z</time>
        <name>WPT.1451</name>
      </trkpt>
      <trkpt lat="17.099808980" lon="-96.470674570">
        <ele>2949.000</ele>
        <time>2017-01-13T21:44:47Z</time>
        <name>WPT.1452</name>
      </trkpt>
      <trkpt lat="17.099830060" lon="-96.470747940">
        <ele>2947.000</ele>
        <time>2017-01-13T21:44:48Z</time>
        <name>WPT.1453</name>
      </trkpt>
      <trkpt lat="17.099750780" lon="-96.470788210">
        <ele>2941.000</ele>
        <time>2017-01-13T21:44:50Z</time>
        <name>WPT.1454</name>
      </trkpt>
      <trkpt lat="17.099643400" lon="-96.470770600">
        <ele>2938.000</ele>
        <time>2017-01-13T21:44:51Z</time>
        <name>WPT.1455</name>
      </trkpt>
      <trkpt lat="17.099575240" lon="-96.470760750">
        <ele>2938.000</ele>
        <time>2017-01-13T21:44:52Z</time>
        <name>WPT.1456</name>
      </trkpt>
      <trkpt lat="17.099497500" lon="-96.470714580">
        <ele>2938.000</ele>
        <time>2017-01-13T21:44:53Z</time>
        <name>WPT.1457</name>
      </trkpt>
      <trkpt lat="17.099421450" lon="-96.470644030">
        <ele>2938.000</ele>
        <time>2017-01-13T21:44:54Z</time>
        <name>WPT.1458</name>
      </trkpt>
      <trkpt lat="17.099334140" lon="-96.470578030">
        <ele>2936.000</ele>
        <time>2017-01-13T21:44:55Z</time>
        <name>WPT.1459</name>
      </trkpt>
      <trkpt lat="17.099268360" lon="-96.470477840">
        <ele>2936.000</ele>
        <time>2017-01-13T21:44:56Z</time>
        <name>WPT.1460</name>
      </trkpt>
      <trkpt lat="17.099190640" lon="-96.470365870">
        <ele>2934.000</ele>
        <time>2017-01-13T21:44:57Z</time>
        <name>WPT.1461</name>
      </trkpt>
      <trkpt lat="17.099115620" lon="-96.470273590">
        <ele>2935.000</ele>
        <time>2017-01-13T21:44:58Z</time>
        <name>WPT.1462</name>
      </trkpt>
      <trkpt lat="17.099043400" lon="-96.470199430">
        <ele>2934.000</ele>
        <time>2017-01-13T21:44:59Z</time>
        <name>WPT.1463</name>
      </trkpt>
      <trkpt lat="17.098887070" lon="-96.470131400">
        <ele>2935.000</ele>
        <time>2017-01-13T21:45:00Z</time>
        <name>WPT.1464</name>
      </trkpt>
      <trkpt lat="17.098803360" lon="-96.470111400">
        <ele>2932.000</ele>
        <time>2017-01-13T21:45:01Z</time>
        <name>WPT.1465</name>
      </trkpt>
      <trkpt lat="17.098684810" lon="-96.470094190">
        <ele>2932.000</ele>
        <time>2017-01-13T21:45:02Z</time>
        <name>WPT.1466</name>
      </trkpt>
      <trkpt lat="17.098573990" lon="-96.470068640">
        <ele>2931.000</ele>
        <time>2017-01-13T21:45:03Z</time>
        <name>WPT.1467</name>
      </trkpt>
      <trkpt lat="17.098448950" lon="-96.470076060">
        <ele>2931.000</ele>
        <time>2017-01-13T21:45:04Z</time>
        <name>WPT.1468</name>
      </trkpt>
      <trkpt lat="17.098317540" lon="-96.470105490">
        <ele>2930.000</ele>
        <time>2017-01-13T21:45:05Z</time>
        <name>WPT.1469</name>
      </trkpt>
      <trkpt lat="17.098190900" lon="-96.470117270">
        <ele>2930.000</ele>
        <time>2017-01-13T21:45:06Z</time>
        <name>WPT.1470</name>
      </trkpt>
      <trkpt lat="17.098068650" lon="-96.470130150">
        <ele>2930.000</ele>
        <time>2017-01-13T21:45:07Z</time>
        <name>WPT.1471</name>
      </trkpt>
      <trkpt lat="17.097963430" lon="-96.470076510">
        <ele>2930.000</ele>
        <time>2017-01-13T21:45:08Z</time>
        <name>WPT.1472</name>
      </trkpt>
      <trkpt lat="17.097733570" lon="-96.470073930">
        <ele>2927.000</ele>
        <time>2017-01-13T21:45:09Z</time>
        <name>WPT.1473</name>
      </trkpt>
      <trkpt lat="17.097542490" lon="-96.470082510">
        <ele>2924.000</ele>
        <time>2017-01-13T21:45:10Z</time>
        <name>WPT.1474</name>
      </trkpt>
      <trkpt lat="17.097372110" lon="-96.470077730">
        <ele>2922.000</ele>
        <time>2017-01-13T21:45:11Z</time>
        <name>WPT.1475</name>
      </trkpt>
      <trkpt lat="17.097215590" lon="-96.470099730">
        <ele>2922.000</ele>
        <time>2017-01-13T21:45:12Z</time>
        <name>WPT.1476</name>
      </trkpt>
      <trkpt lat="17.097072460" lon="-96.470073600">
        <ele>2922.000</ele>
        <time>2017-01-13T21:45:13Z</time>
        <name>WPT.1477</name>
      </trkpt>
      <trkpt lat="17.096966490" lon="-96.470190500">
        <ele>2918.000</ele>
        <time>2017-01-13T21:45:14Z</time>
        <name>WPT.1478</name>
      </trkpt>
      <trkpt lat="17.097012590" lon="-96.469945490">
        <ele>2910.000</ele>
        <time>2017-01-13T21:45:15Z</time>
        <name>WPT.1479</name>
      </trkpt>
      <trkpt lat="17.096974410" lon="-96.469793560">
        <ele>2912.000</ele>
        <time>2017-01-13T21:45:17Z</time>
        <name>WPT.1480</name>
      </trkpt>
      <trkpt lat="17.096898360" lon="-96.469730110">
        <ele>2911.000</ele>
        <time>2017-01-13T21:45:18Z</time>
        <name>WPT.1481</name>
      </trkpt>
      <trkpt lat="17.096811490" lon="-96.469709770">
        <ele>2910.000</ele>
        <time>2017-01-13T21:45:19Z</time>
        <name>WPT.1482</name>
      </trkpt>
      <trkpt lat="17.096710760" lon="-96.469733590">
        <ele>2909.000</ele>
        <time>2017-01-13T21:45:20Z</time>
        <name>WPT.1483</name>
      </trkpt>
      <trkpt lat="17.096620920" lon="-96.469769410">
        <ele>2908.000</ele>
        <time>2017-01-13T21:45:21Z</time>
        <name>WPT.1484</name>
      </trkpt>
      <trkpt lat="17.096537970" lon="-96.469798520">
        <ele>2908.000</ele>
        <time>2017-01-13T21:45:22Z</time>
        <name>WPT.1485</name>
      </trkpt>
      <trkpt lat="17.096437030" lon="-96.469836430">
        <ele>2908.000</ele>
        <time>2017-01-13T21:45:23Z</time>
        <name>WPT.1486</name>
      </trkpt>
      <trkpt lat="17.096352900" lon="-96.469872570">
        <ele>2908.000</ele>
        <time>2017-01-13T21:45:24Z</time>
        <name>WPT.1487</name>
      </trkpt>
      <trkpt lat="17.096227680" lon="-96.469942510">
        <ele>2908.000</ele>
        <time>2017-01-13T21:45:25Z</time>
        <name>WPT.1488</name>
      </trkpt>
      <trkpt lat="17.096148820" lon="-96.469981410">
        <ele>2908.000</ele>
        <time>2017-01-13T21:45:26Z</time>
        <name>WPT.1489</name>
      </trkpt>
      <trkpt lat="17.096016940" lon="-96.469996070">
        <ele>2907.000</ele>
        <time>2017-01-13T21:45:27Z</time>
        <name>WPT.1490</name>
      </trkpt>
      <trkpt lat="17.095925230" lon="-96.469977850">
        <ele>2906.000</ele>
        <time>2017-01-13T21:45:28Z</time>
        <name>WPT.1491</name>
      </trkpt>
      <trkpt lat="17.095754800" lon="-96.470063280">
        <ele>2905.000</ele>
        <time>2017-01-13T21:45:29Z</time>
        <name>WPT.1492</name>
      </trkpt>
      <trkpt lat="17.095639070" lon="-96.470088280">
        <ele>2904.000</ele>
        <time>2017-01-13T21:45:30Z</time>
        <name>WPT.1493</name>
      </trkpt>
      <trkpt lat="17.095518420" lon="-96.470148750">
        <ele>2905.000</ele>
        <time>2017-01-13T21:45:31Z</time>
        <name>WPT.1494</name>
      </trkpt>
      <trkpt lat="17.095442920" lon="-96.470115980">
        <ele>2905.000</ele>
        <time>2017-01-13T21:45:32Z</time>
        <name>WPT.1495</name>
      </trkpt>
      <trkpt lat="17.095431310" lon="-96.469870510">
        <ele>2903.000</ele>
        <time>2017-01-13T21:45:33Z</time>
        <name>WPT.1496</name>
      </trkpt>
      <trkpt lat="17.095423930" lon="-96.469757240">
        <ele>2901.000</ele>
        <time>2017-01-13T21:45:34Z</time>
        <name>WPT.1497</name>
      </trkpt>
      <trkpt lat="17.095410940" lon="-96.469677920">
        <ele>2901.000</ele>
        <time>2017-01-13T21:45:35Z</time>
        <name>WPT.1498</name>
      </trkpt>
      <trkpt lat="17.095368690" lon="-96.469593520">
        <ele>2902.000</ele>
        <time>2017-01-13T21:45:36Z</time>
        <name>WPT.1499</name>
      </trkpt>
      <trkpt lat="17.095355890" lon="-96.469495610">
        <ele>2900.000</ele>
        <time>2017-01-13T21:45:37Z</time>
        <name>WPT.1500</name>
      </trkpt>
      <trkpt lat="17.095250510" lon="-96.469407270">
        <ele>2899.000</ele>
        <time>2017-01-13T21:45:38Z</time>
        <name>WPT.1501</name>
      </trkpt>
      <trkpt lat="17.095145920" lon="-96.469393250">
        <ele>2898.000</ele>
        <time>2017-01-13T21:45:39Z</time>
        <name>WPT.1502</name>
      </trkpt>
      <trkpt lat="17.095072450" lon="-96.469526030">
        <ele>2893.000</ele>
        <time>2017-01-13T21:45:40Z</time>
        <name>WPT.1503</name>
      </trkpt>
      <trkpt lat="17.095001130" lon="-96.469554100">
        <ele>2891.000</ele>
        <time>2017-01-13T21:45:41Z</time>
        <name>WPT.1504</name>
      </trkpt>
      <trkpt lat="17.094913970" lon="-96.469636960">
        <ele>2890.000</ele>
        <time>2017-01-13T21:45:42Z</time>
        <name>WPT.1505</name>
      </trkpt>
      <trkpt lat="17.094878210" lon="-96.469767020">
        <ele>2886.000</ele>
        <time>2017-01-13T21:45:43Z</time>
        <name>WPT.1506</name>
      </trkpt>
      <trkpt lat="17.094807250" lon="-96.469847490">
        <ele>2886.000</ele>
        <time>2017-01-13T21:45:44Z</time>
        <name>WPT.1507</name>
      </trkpt>
      <trkpt lat="17.094739670" lon="-96.470005010">
        <ele>2881.000</ele>
        <time>2017-01-13T21:45:45Z</time>
        <name>WPT.1508</name>
      </trkpt>
      <trkpt lat="17.094668170" lon="-96.470093200">
        <ele>2880.000</ele>
        <time>2017-01-13T21:45:46Z</time>
        <name>WPT.1509</name>
      </trkpt>
      <trkpt lat="17.094582700" lon="-96.470161420">
        <ele>2879.000</ele>
        <time>2017-01-13T21:45:47Z</time>
        <name>WPT.1510</name>
      </trkpt>
      <trkpt lat="17.094509320" lon="-96.470208780">
        <ele>2878.000</ele>
        <time>2017-01-13T21:45:48Z</time>
        <name>WPT.1511</name>
      </trkpt>
      <trkpt lat="17.094403910" lon="-96.470265990">
        <ele>2878.000</ele>
        <time>2017-01-13T21:45:49Z</time>
        <name>WPT.1512</name>
      </trkpt>
      <trkpt lat="17.094290940" lon="-96.470299050">
        <ele>2878.000</ele>
        <time>2017-01-13T21:45:50Z</time>
        <name>WPT.1513</name>
      </trkpt>
      <trkpt lat="17.094137800" lon="-96.470361210">
        <ele>2877.000</ele>
        <time>2017-01-13T21:45:51Z</time>
        <name>WPT.1514</name>
      </trkpt>
      <trkpt lat="17.094061460" lon="-96.470397480">
        <ele>2874.000</ele>
        <time>2017-01-13T21:45:52Z</time>
        <name>WPT.1515</name>
      </trkpt>
      <trkpt lat="17.093918510" lon="-96.470405860">
        <ele>2875.000</ele>
        <time>2017-01-13T21:45:53Z</time>
        <name>WPT.1516</name>
      </trkpt>
      <trkpt lat="17.093799800" lon="-96.470439150">
        <ele>2875.000</ele>
        <time>2017-01-13T21:45:54Z</time>
        <name>WPT.1517</name>
      </trkpt>
      <trkpt lat="17.093679890" lon="-96.470477190">
        <ele>2874.000</ele>
        <time>2017-01-13T21:45:55Z</time>
        <name>WPT.1518</name>
      </trkpt>
      <trkpt lat="17.093559720" lon="-96.470514570">
        <ele>2874.000</ele>
        <time>2017-01-13T21:45:56Z</time>
        <name>WPT.1519</name>
      </trkpt>
      <trkpt lat="17.093458680" lon="-96.470569030">
        <ele>2874.000</ele>
        <time>2017-01-13T21:45:57Z</time>
        <name>WPT.1520</name>
      </trkpt>
      <trkpt lat="17.093341270" lon="-96.470612220">
        <ele>2874.000</ele>
        <time>2017-01-13T21:45:58Z</time>
        <name>WPT.1521</name>
      </trkpt>
      <trkpt lat="17.093216930" lon="-96.470664210">
        <ele>2875.000</ele>
        <time>2017-01-13T21:45:59Z</time>
        <name>WPT.1522</name>
      </trkpt>
      <trkpt lat="17.093128370" lon="-96.470725050">
        <ele>2874.000</ele>
        <time>2017-01-13T21:46:00Z</time>
        <name>WPT.1523</name>
      </trkpt>
      <trkpt lat="17.093009550" lon="-96.470755580">
        <ele>2874.000</ele>
        <time>2017-01-13T21:46:01Z</time>
        <name>WPT.1524</name>
      </trkpt>
      <trkpt lat="17.092893080" lon="-96.470805620">
        <ele>2875.000</ele>
        <time>2017-01-13T21:46:02Z</time>
        <name>WPT.1525</name>
      </trkpt>
      <trkpt lat="17.092773170" lon="-96.470831920">
        <ele>2874.000</ele>
        <time>2017-01-13T21:46:03Z</time>
        <name>WPT.1526</name>
      </trkpt>
      <trkpt lat="17.092660030" lon="-96.470862620">
        <ele>2874.000</ele>
        <time>2017-01-13T21:46:04Z</time>
        <name>WPT.1527</name>
      </trkpt>
      <trkpt lat="17.092518760" lon="-96.470825990">
        <ele>2874.000</ele>
        <time>2017-01-13T21:46:05Z</time>
        <name>WPT.1528</name>
      </trkpt>
      <trkpt lat="17.092464900" lon="-96.470897830">
        <ele>2874.000</ele>
        <time>2017-01-13T21:46:06Z</time>
        <name>WPT.1529</name>
      </trkpt>
      <trkpt lat="17.092446270" lon="-96.471027880">
        <ele>2873.000</ele>
        <time>2017-01-13T21:46:07Z</time>
        <name>WPT.1530</name>
      </trkpt>
      <trkpt lat="17.092259470" lon="-96.470881320">
        <ele>2870.000</ele>
        <time>2017-01-13T21:46:08Z</time>
        <name>WPT.1531</name>
      </trkpt>
      <trkpt lat="17.092029040" lon="-96.470989710">
        <ele>2856.000</ele>
        <time>2017-01-13T21:46:09Z</time>
        <name>WPT.1532</name>
      </trkpt>
      <trkpt lat="17.091939150" lon="-96.471015770">
        <ele>2851.000</ele>
        <time>2017-01-13T21:46:10Z</time>
        <name>WPT.1533</name>
      </trkpt>
      <trkpt lat="17.091818750" lon="-96.470976560">
        <ele>2850.000</ele>
        <time>2017-01-13T21:46:11Z</time>
        <name>WPT.1534</name>
      </trkpt>
      <trkpt lat="17.091680350" lon="-96.470908180">
        <ele>2850.000</ele>
        <time>2017-01-13T21:46:12Z</time>
        <name>WPT.1535</name>
      </trkpt>
      <trkpt lat="17.091569450" lon="-96.470787960">
        <ele>2850.000</ele>
        <time>2017-01-13T21:46:13Z</time>
        <name>WPT.1536</name>
      </trkpt>
      <trkpt lat="17.091452890" lon="-96.470699060">
        <ele>2849.000</ele>
        <time>2017-01-13T21:46:14Z</time>
        <name>WPT.1537</name>
      </trkpt>
      <trkpt lat="17.091336600" lon="-96.470616580">
        <ele>2849.000</ele>
        <time>2017-01-13T21:46:15Z</time>
        <name>WPT.1538</name>
      </trkpt>
      <trkpt lat="17.091231690" lon="-96.470514980">
        <ele>2849.000</ele>
        <time>2017-01-13T21:46:16Z</time>
        <name>WPT.1539</name>
      </trkpt>
      <trkpt lat="17.091159150" lon="-96.470427780">
        <ele>2849.000</ele>
        <time>2017-01-13T21:46:17Z</time>
        <name>WPT.1540</name>
      </trkpt>
      <trkpt lat="17.091073270" lon="-96.470326790">
        <ele>2851.000</ele>
        <time>2017-01-13T21:46:18Z</time>
        <name>WPT.1541</name>
      </trkpt>
      <trkpt lat="17.090971490" lon="-96.470234830">
        <ele>2851.000</ele>
        <time>2017-01-13T21:46:19Z</time>
        <name>WPT.1542</name>
      </trkpt>
      <trkpt lat="17.090802490" lon="-96.470163890">
        <ele>2851.000</ele>
        <time>2017-01-13T21:46:20Z</time>
        <name>WPT.1543</name>
      </trkpt>
      <trkpt lat="17.090669420" lon="-96.470090320">
        <ele>2851.000</ele>
        <time>2017-01-13T21:46:21Z</time>
        <name>WPT.1544</name>
      </trkpt>
      <trkpt lat="17.090537040" lon="-96.470027830">
        <ele>2849.000</ele>
        <time>2017-01-13T21:46:22Z</time>
        <name>WPT.1545</name>
      </trkpt>
      <trkpt lat="17.090404000" lon="-96.469959670">
        <ele>2848.000</ele>
        <time>2017-01-13T21:46:23Z</time>
        <name>WPT.1546</name>
      </trkpt>
      <trkpt lat="17.090277730" lon="-96.469867150">
        <ele>2847.000</ele>
        <time>2017-01-13T21:46:24Z</time>
        <name>WPT.1547</name>
      </trkpt>
      <trkpt lat="17.090119080" lon="-96.469781540">
        <ele>2847.000</ele>
        <time>2017-01-13T21:46:25Z</time>
        <name>WPT.1548</name>
      </trkpt>
      <trkpt lat="17.089971570" lon="-96.469699250">
        <ele>2846.000</ele>
        <time>2017-01-13T21:46:26Z</time>
        <name>WPT.1549</name>
      </trkpt>
      <trkpt lat="17.089811350" lon="-96.469640440">
        <ele>2846.000</ele>
        <time>2017-01-13T21:46:27Z</time>
        <name>WPT.1550</name>
      </trkpt>
      <trkpt lat="17.089669240" lon="-96.469548380">
        <ele>2846.000</ele>
        <time>2017-01-13T21:46:28Z</time>
        <name>WPT.1551</name>
      </trkpt>
      <trkpt lat="17.089529160" lon="-96.469455560">
        <ele>2845.000</ele>
        <time>2017-01-13T21:46:29Z</time>
        <name>WPT.1552</name>
      </trkpt>
      <trkpt lat="17.089383710" lon="-96.469375760">
        <ele>2845.000</ele>
        <time>2017-01-13T21:46:30Z</time>
        <name>WPT.1553</name>
      </trkpt>
      <trkpt lat="17.089210280" lon="-96.469268580">
        <ele>2845.000</ele>
        <time>2017-01-13T21:46:31Z</time>
        <name>WPT.1554</name>
      </trkpt>
      <trkpt lat="17.089089480" lon="-96.469192730">
        <ele>2845.000</ele>
        <time>2017-01-13T21:46:32Z</time>
        <name>WPT.1555</name>
      </trkpt>
      <trkpt lat="17.088942630" lon="-96.469111120">
        <ele>2844.000</ele>
        <time>2017-01-13T21:46:33Z</time>
        <name>WPT.1556</name>
      </trkpt>
      <trkpt lat="17.088791460" lon="-96.469056680">
        <ele>2843.000</ele>
        <time>2017-01-13T21:46:34Z</time>
        <name>WPT.1557</name>
      </trkpt>
      <trkpt lat="17.088630390" lon="-96.469007840">
        <ele>2841.000</ele>
        <time>2017-01-13T21:46:35Z</time>
        <name>WPT.1558</name>
      </trkpt>
      <trkpt lat="17.088482210" lon="-96.469030920">
        <ele>2835.000</ele>
        <time>2017-01-13T21:46:36Z</time>
        <name>WPT.1559</name>
      </trkpt>
      <trkpt lat="17.088341130" lon="-96.469003910">
        <ele>2832.000</ele>
        <time>2017-01-13T21:46:37Z</time>
        <name>WPT.1560</name>
      </trkpt>
      <trkpt lat="17.088159710" lon="-96.468976000">
        <ele>2832.000</ele>
        <time>2017-01-13T21:46:38Z</time>
        <name>WPT.1561</name>
      </trkpt>
      <trkpt lat="17.088006950" lon="-96.468980150">
        <ele>2829.000</ele>
        <time>2017-01-13T21:46:39Z</time>
        <name>WPT.1562</name>
      </trkpt>
      <trkpt lat="17.087853710" lon="-96.468887570">
        <ele>2829.000</ele>
        <time>2017-01-13T21:46:40Z</time>
        <name>WPT.1563</name>
      </trkpt>
      <trkpt lat="17.087690970" lon="-96.468806370">
        <ele>2829.000</ele>
        <time>2017-01-13T21:46:41Z</time>
        <name>WPT.1564</name>
      </trkpt>
      <trkpt lat="17.087520030" lon="-96.468785140">
        <ele>2827.000</ele>
        <time>2017-01-13T21:46:42Z</time>
        <name>WPT.1565</name>
      </trkpt>
      <trkpt lat="17.087355690" lon="-96.468694160">
        <ele>2827.000</ele>
        <time>2017-01-13T21:46:43Z</time>
        <name>WPT.1566</name>
      </trkpt>
      <trkpt lat="17.087192040" lon="-96.468630240">
        <ele>2826.000</ele>
        <time>2017-01-13T21:46:44Z</time>
        <name>WPT.1567</name>
      </trkpt>
      <trkpt lat="17.087030700" lon="-96.468590570">
        <ele>2825.000</ele>
        <time>2017-01-13T21:46:45Z</time>
        <name>WPT.1568</name>
      </trkpt>
      <trkpt lat="17.086867000" lon="-96.468494960">
        <ele>2821.000</ele>
        <time>2017-01-13T21:46:46Z</time>
        <name>WPT.1569</name>
      </trkpt>
      <trkpt lat="17.086720390" lon="-96.468442510">
        <ele>2821.000</ele>
        <time>2017-01-13T21:46:47Z</time>
        <name>WPT.1570</name>
      </trkpt>
      <trkpt lat="17.086579080" lon="-96.468395560">
        <ele>2822.000</ele>
        <time>2017-01-13T21:46:48Z</time>
        <name>WPT.1571</name>
      </trkpt>
      <trkpt lat="17.086429140" lon="-96.468310660">
        <ele>2821.000</ele>
        <time>2017-01-13T21:46:49Z</time>
        <name>WPT.1572</name>
      </trkpt>
      <trkpt lat="17.086313560" lon="-96.468225060">
        <ele>2821.000</ele>
        <time>2017-01-13T21:46:50Z</time>
        <name>WPT.1573</name>
      </trkpt>
      <trkpt lat="17.086193600" lon="-96.468122130">
        <ele>2821.000</ele>
        <time>2017-01-13T21:46:51Z</time>
        <name>WPT.1574</name>
      </trkpt>
      <trkpt lat="17.086074990" lon="-96.467997210">
        <ele>2821.000</ele>
        <time>2017-01-13T21:46:52Z</time>
        <name>WPT.1575</name>
      </trkpt>
      <trkpt lat="17.085946180" lon="-96.467829240">
        <ele>2821.000</ele>
        <time>2017-01-13T21:46:53Z</time>
        <name>WPT.1576</name>
      </trkpt>
      <trkpt lat="17.085865180" lon="-96.467644560">
        <ele>2820.000</ele>
        <time>2017-01-13T21:46:54Z</time>
        <name>WPT.1577</name>
      </trkpt>
      <trkpt lat="17.085744960" lon="-96.467548100">
        <ele>2820.000</ele>
        <time>2017-01-13T21:46:55Z</time>
        <name>WPT.1578</name>
      </trkpt>
      <trkpt lat="17.085691480" lon="-96.467477470">
        <ele>2820.000</ele>
        <time>2017-01-13T21:46:56Z</time>
        <name>WPT.1579</name>
      </trkpt>
      <trkpt lat="17.085597130" lon="-96.467347540">
        <ele>2820.000</ele>
        <time>2017-01-13T21:46:57Z</time>
        <name>WPT.1580</name>
      </trkpt>
      <trkpt lat="17.085515110" lon="-96.467230940">
        <ele>2819.000</ele>
        <time>2017-01-13T21:46:58Z</time>
        <name>WPT.1581</name>
      </trkpt>
      <trkpt lat="17.085461840" lon="-96.467144560">
        <ele>2816.000</ele>
        <time>2017-01-13T21:46:59Z</time>
        <name>WPT.1582</name>
      </trkpt>
      <trkpt lat="17.085367250" lon="-96.467062670">
        <ele>2814.000</ele>
        <time>2017-01-13T21:47:00Z</time>
        <name>WPT.1583</name>
      </trkpt>
      <trkpt lat="17.085276690" lon="-96.466941690">
        <ele>2816.000</ele>
        <time>2017-01-13T21:47:01Z</time>
        <name>WPT.1584</name>
      </trkpt>
      <trkpt lat="17.085220370" lon="-96.466831910">
        <ele>2813.000</ele>
        <time>2017-01-13T21:47:02Z</time>
        <name>WPT.1585</name>
      </trkpt>
      <trkpt lat="17.085147560" lon="-96.466717010">
        <ele>2811.000</ele>
        <time>2017-01-13T21:47:03Z</time>
        <name>WPT.1586</name>
      </trkpt>
      <trkpt lat="17.085086140" lon="-96.466623880">
        <ele>2810.000</ele>
        <time>2017-01-13T21:47:04Z</time>
        <name>WPT.1587</name>
      </trkpt>
      <trkpt lat="17.085016230" lon="-96.466510770">
        <ele>2808.000</ele>
        <time>2017-01-13T21:47:05Z</time>
        <name>WPT.1588</name>
      </trkpt>
      <trkpt lat="17.084928340" lon="-96.466451920">
        <ele>2802.000</ele>
        <time>2017-01-13T21:47:08Z</time>
        <name>WPT.1589</name>
      </trkpt>
      <trkpt lat="17.084829310" lon="-96.466403620">
        <ele>2797.000</ele>
        <time>2017-01-13T21:47:09Z</time>
        <name>WPT.1590</name>
      </trkpt>
      <trkpt lat="17.084746590" lon="-96.466364710">
        <ele>2794.000</ele>
        <time>2017-01-13T21:47:10Z</time>
        <name>WPT.1591</name>
      </trkpt>
      <trkpt lat="17.084644840" lon="-96.466320530">
        <ele>2792.000</ele>
        <time>2017-01-13T21:47:11Z</time>
        <name>WPT.1592</name>
      </trkpt>
      <trkpt lat="17.084528130" lon="-96.466297020">
        <ele>2789.000</ele>
        <time>2017-01-13T21:47:12Z</time>
        <name>WPT.1593</name>
      </trkpt>
      <trkpt lat="17.084421450" lon="-96.466203150">
        <ele>2788.000</ele>
        <time>2017-01-13T21:47:13Z</time>
        <name>WPT.1594</name>
      </trkpt>
      <trkpt lat="17.084301410" lon="-96.466124870">
        <ele>2788.000</ele>
        <time>2017-01-13T21:47:14Z</time>
        <name>WPT.1595</name>
      </trkpt>
      <trkpt lat="17.084202630" lon="-96.466002560">
        <ele>2788.000</ele>
        <time>2017-01-13T21:47:15Z</time>
        <name>WPT.1596</name>
      </trkpt>
      <trkpt lat="17.084115780" lon="-96.465865600">
        <ele>2787.000</ele>
        <time>2017-01-13T21:47:16Z</time>
        <name>WPT.1597</name>
      </trkpt>
      <trkpt lat="17.084024300" lon="-96.465738120">
        <ele>2786.000</ele>
        <time>2017-01-13T21:47:17Z</time>
        <name>WPT.1598</name>
      </trkpt>
      <trkpt lat="17.083922720" lon="-96.465603510">
        <ele>2786.000</ele>
        <time>2017-01-13T21:47:18Z</time>
        <name>WPT.1599</name>
      </trkpt>
      <trkpt lat="17.083827880" lon="-96.465469710">
        <ele>2786.000</ele>
        <time>2017-01-13T21:47:19Z</time>
        <name>WPT.1600</name>
      </trkpt>
      <trkpt lat="17.083729830" lon="-96.465300260">
        <ele>2786.000</ele>
        <time>2017-01-13T21:47:20Z</time>
        <name>WPT.1601</name>
      </trkpt>
      <trkpt lat="17.083622210" lon="-96.465128440">
        <ele>2787.000</ele>
        <time>2017-01-13T21:47:21Z</time>
        <name>WPT.1602</name>
      </trkpt>
      <trkpt lat="17.083477830" lon="-96.464992330">
        <ele>2786.000</ele>
        <time>2017-01-13T21:47:22Z</time>
        <name>WPT.1603</name>
      </trkpt>
      <trkpt lat="17.083382980" lon="-96.464827620">
        <ele>2786.000</ele>
        <time>2017-01-13T21:47:23Z</time>
        <name>WPT.1604</name>
      </trkpt>
      <trkpt lat="17.083266230" lon="-96.464739830">
        <ele>2786.000</ele>
        <time>2017-01-13T21:47:24Z</time>
        <name>WPT.1605</name>
      </trkpt>
      <trkpt lat="17.083215270" lon="-96.464620860">
        <ele>2782.000</ele>
        <time>2017-01-13T21:47:25Z</time>
        <name>WPT.1606</name>
      </trkpt>
      <trkpt lat="17.083039940" lon="-96.464527020">
        <ele>2783.000</ele>
        <time>2017-01-13T21:47:26Z</time>
        <name>WPT.1607</name>
      </trkpt>
      <trkpt lat="17.082952650" lon="-96.464443310">
        <ele>2783.000</ele>
        <time>2017-01-13T21:47:27Z</time>
        <name>WPT.1608</name>
      </trkpt>
      <trkpt lat="17.082713520" lon="-96.464354900">
        <ele>2780.000</ele>
        <time>2017-01-13T21:47:28Z</time>
        <name>WPT.1609</name>
      </trkpt>
      <trkpt lat="17.082590000" lon="-96.464271510">
        <ele>2779.000</ele>
        <time>2017-01-13T21:47:29Z</time>
        <name>WPT.1610</name>
      </trkpt>
      <trkpt lat="17.082438400" lon="-96.464190150">
        <ele>2778.000</ele>
        <time>2017-01-13T21:47:30Z</time>
        <name>WPT.1611</name>
      </trkpt>
      <trkpt lat="17.082256230" lon="-96.464114620">
        <ele>2776.000</ele>
        <time>2017-01-13T21:47:31Z</time>
        <name>WPT.1612</name>
      </trkpt>
      <trkpt lat="17.082096480" lon="-96.464054730">
        <ele>2775.000</ele>
        <time>2017-01-13T21:47:32Z</time>
        <name>WPT.1613</name>
      </trkpt>
      <trkpt lat="17.081940580" lon="-96.463951440">
        <ele>2773.000</ele>
        <time>2017-01-13T21:47:33Z</time>
        <name>WPT.1614</name>
      </trkpt>
      <trkpt lat="17.081795960" lon="-96.463833230">
        <ele>2772.000</ele>
        <time>2017-01-13T21:47:34Z</time>
        <name>WPT.1615</name>
      </trkpt>
      <trkpt lat="17.081629130" lon="-96.463728730">
        <ele>2772.000</ele>
        <time>2017-01-13T21:47:35Z</time>
        <name>WPT.1616</name>
      </trkpt>
      <trkpt lat="17.081502610" lon="-96.463705770">
        <ele>2767.000</ele>
        <time>2017-01-13T21:47:36Z</time>
        <name>WPT.1617</name>
      </trkpt>
      <trkpt lat="17.081373040" lon="-96.463640610">
        <ele>2764.000</ele>
        <time>2017-01-13T21:47:37Z</time>
        <name>WPT.1618</name>
      </trkpt>
      <trkpt lat="17.081232440" lon="-96.463578250">
        <ele>2762.000</ele>
        <time>2017-01-13T21:47:38Z</time>
        <name>WPT.1619</name>
      </trkpt>
      <trkpt lat="17.081071770" lon="-96.463536020">
        <ele>2760.000</ele>
        <time>2017-01-13T21:47:39Z</time>
        <name>WPT.1620</name>
      </trkpt>
      <trkpt lat="17.080971550" lon="-96.463485280">
        <ele>2755.000</ele>
        <time>2017-01-13T21:47:40Z</time>
        <name>WPT.1621</name>
      </trkpt>
      <trkpt lat="17.080836000" lon="-96.463409570">
        <ele>2757.000</ele>
        <time>2017-01-13T21:47:41Z</time>
        <name>WPT.1622</name>
      </trkpt>
      <trkpt lat="17.080693620" lon="-96.463361150">
        <ele>2759.000</ele>
        <time>2017-01-13T21:47:42Z</time>
        <name>WPT.1623</name>
      </trkpt>
      <trkpt lat="17.080541490" lon="-96.463305910">
        <ele>2758.000</ele>
        <time>2017-01-13T21:47:43Z</time>
        <name>WPT.1624</name>
      </trkpt>
      <trkpt lat="17.080394480" lon="-96.463257340">
        <ele>2757.000</ele>
        <time>2017-01-13T21:47:44Z</time>
        <name>WPT.1625</name>
      </trkpt>
      <trkpt lat="17.080240840" lon="-96.463280460">
        <ele>2755.000</ele>
        <time>2017-01-13T21:47:45Z</time>
        <name>WPT.1626</name>
      </trkpt>
      <trkpt lat="17.080104570" lon="-96.463315320">
        <ele>2754.000</ele>
        <time>2017-01-13T21:47:46Z</time>
        <name>WPT.1627</name>
      </trkpt>
      <trkpt lat="17.079959820" lon="-96.463364710">
        <ele>2754.000</ele>
        <time>2017-01-13T21:47:47Z</time>
        <name>WPT.1628</name>
      </trkpt>
      <trkpt lat="17.079821750" lon="-96.463416920">
        <ele>2753.000</ele>
        <time>2017-01-13T21:47:48Z</time>
        <name>WPT.1629</name>
      </trkpt>
      <trkpt lat="17.079672940" lon="-96.463458960">
        <ele>2754.000</ele>
        <time>2017-01-13T21:47:49Z</time>
        <name>WPT.1630</name>
      </trkpt>
      <trkpt lat="17.079552220" lon="-96.463502150">
        <ele>2753.000</ele>
        <time>2017-01-13T21:47:50Z</time>
        <name>WPT.1631</name>
      </trkpt>
      <trkpt lat="17.079418930" lon="-96.463582940">
        <ele>2752.000</ele>
        <time>2017-01-13T21:47:51Z</time>
        <name>WPT.1632</name>
      </trkpt>
      <trkpt lat="17.079306190" lon="-96.463633400">
        <ele>2752.000</ele>
        <time>2017-01-13T21:47:52Z</time>
        <name>WPT.1633</name>
      </trkpt>
      <trkpt lat="17.079179710" lon="-96.463700670">
        <ele>2751.000</ele>
        <time>2017-01-13T21:47:53Z</time>
        <name>WPT.1634</name>
      </trkpt>
      <trkpt lat="17.079093250" lon="-96.463757700">
        <ele>2751.000</ele>
        <time>2017-01-13T21:47:54Z</time>
        <name>WPT.1635</name>
      </trkpt>
      <trkpt lat="17.079016120" lon="-96.463828120">
        <ele>2750.000</ele>
        <time>2017-01-13T21:47:55Z</time>
        <name>WPT.1636</name>
      </trkpt>
      <trkpt lat="17.078941270" lon="-96.463958060">
        <ele>2750.000</ele>
        <time>2017-01-13T21:47:56Z</time>
        <name>WPT.1637</name>
      </trkpt>
      <trkpt lat="17.078888960" lon="-96.464150420">
        <ele>2747.000</ele>
        <time>2017-01-13T21:47:57Z</time>
        <name>WPT.1638</name>
      </trkpt>
      <trkpt lat="17.078854480" lon="-96.464312680">
        <ele>2744.000</ele>
        <time>2017-01-13T21:47:58Z</time>
        <name>WPT.1639</name>
      </trkpt>
      <trkpt lat="17.078802840" lon="-96.464370790">
        <ele>2741.000</ele>
        <time>2017-01-13T21:47:59Z</time>
        <name>WPT.1640</name>
      </trkpt>
      <trkpt lat="17.078747110" lon="-96.464493330">
        <ele>2739.000</ele>
        <time>2017-01-13T21:48:00Z</time>
        <name>WPT.1641</name>
      </trkpt>
      <trkpt lat="17.078685550" lon="-96.464606380">
        <ele>2739.000</ele>
        <time>2017-01-13T21:48:01Z</time>
        <name>WPT.1642</name>
      </trkpt>
      <trkpt lat="17.078647870" lon="-96.464715490">
        <ele>2739.000</ele>
        <time>2017-01-13T21:48:02Z</time>
        <name>WPT.1643</name>
      </trkpt>
      <trkpt lat="17.078596000" lon="-96.464790320">
        <ele>2740.000</ele>
        <time>2017-01-13T21:48:03Z</time>
        <name>WPT.1644</name>
      </trkpt>
      <trkpt lat="17.078452100" lon="-96.464728770">
        <ele>2737.000</ele>
        <time>2017-01-13T21:48:04Z</time>
        <name>WPT.1645</name>
      </trkpt>
      <trkpt lat="17.078339740" lon="-96.464710930">
        <ele>2736.000</ele>
        <time>2017-01-13T21:48:05Z</time>
        <name>WPT.1646</name>
      </trkpt>
      <trkpt lat="17.078228570" lon="-96.464712480">
        <ele>2735.000</ele>
        <time>2017-01-13T21:48:06Z</time>
        <name>WPT.1647</name>
      </trkpt>
      <trkpt lat="17.078138540" lon="-96.464733460">
        <ele>2735.000</ele>
        <time>2017-01-13T21:48:07Z</time>
        <name>WPT.1648</name>
      </trkpt>
      <trkpt lat="17.078075180" lon="-96.464786990">
        <ele>2735.000</ele>
        <time>2017-01-13T21:48:08Z</time>
        <name>WPT.1649</name>
      </trkpt>
      <trkpt lat="17.078005510" lon="-96.464835530">
        <ele>2735.000</ele>
        <time>2017-01-13T21:48:09Z</time>
        <name>WPT.1650</name>
      </trkpt>
      <trkpt lat="17.077893590" lon="-96.464918270">
        <ele>2732.000</ele>
        <time>2017-01-13T21:48:10Z</time>
        <name>WPT.1651</name>
      </trkpt>
      <trkpt lat="17.077805020" lon="-96.464992330">
        <ele>2732.000</ele>
        <time>2017-01-13T21:48:11Z</time>
        <name>WPT.1652</name>
      </trkpt>
      <trkpt lat="17.077748070" lon="-96.465064220">
        <ele>2728.000</ele>
        <time>2017-01-13T21:48:12Z</time>
        <name>WPT.1653</name>
      </trkpt>
      <trkpt lat="17.077626010" lon="-96.465103100">
        <ele>2727.000</ele>
        <time>2017-01-13T21:48:13Z</time>
        <name>WPT.1654</name>
      </trkpt>
      <trkpt lat="17.077520030" lon="-96.465154370">
        <ele>2727.000</ele>
        <time>2017-01-13T21:48:14Z</time>
        <name>WPT.1655</name>
      </trkpt>
      <trkpt lat="17.077368280" lon="-96.465138450">
        <ele>2726.000</ele>
        <time>2017-01-13T21:48:15Z</time>
        <name>WPT.1656</name>
      </trkpt>
      <trkpt lat="17.077266680" lon="-96.465177900">
        <ele>2725.000</ele>
        <time>2017-01-13T21:48:16Z</time>
        <name>WPT.1657</name>
      </trkpt>
      <trkpt lat="17.077159280" lon="-96.465205440">
        <ele>2725.000</ele>
        <time>2017-01-13T21:48:17Z</time>
        <name>WPT.1658</name>
      </trkpt>
      <trkpt lat="17.077012980" lon="-96.465214320">
        <ele>2726.000</ele>
        <time>2017-01-13T21:48:18Z</time>
        <name>WPT.1659</name>
      </trkpt>
      <trkpt lat="17.076886720" lon="-96.465243840">
        <ele>2725.000</ele>
        <time>2017-01-13T21:48:19Z</time>
        <name>WPT.1660</name>
      </trkpt>
      <trkpt lat="17.076756030" lon="-96.465359170">
        <ele>2725.000</ele>
        <time>2017-01-13T21:48:20Z</time>
        <name>WPT.1661</name>
      </trkpt>
      <trkpt lat="17.076629910" lon="-96.465402870">
        <ele>2725.000</ele>
        <time>2017-01-13T21:48:21Z</time>
        <name>WPT.1662</name>
      </trkpt>
      <trkpt lat="17.076560260" lon="-96.465434900">
        <ele>2725.000</ele>
        <time>2017-01-13T21:48:22Z</time>
        <name>WPT.1663</name>
      </trkpt>
      <trkpt lat="17.076438850" lon="-96.465471940">
        <ele>2725.000</ele>
        <time>2017-01-13T21:48:24Z</time>
        <name>WPT.1664</name>
      </trkpt>
      <trkpt lat="17.076309250" lon="-96.465533880">
        <ele>2725.000</ele>
        <time>2017-01-13T21:48:25Z</time>
        <name>WPT.1665</name>
      </trkpt>
      <trkpt lat="17.076348410" lon="-96.465529310">
        <ele>2725.000</ele>
        <time>2017-01-13T21:48:26Z</time>
        <name>WPT.1666</name>
      </trkpt>
      <trkpt lat="17.076415830" lon="-96.465679710">
        <ele>2724.000</ele>
        <time>2017-01-13T21:48:27Z</time>
        <name>WPT.1667</name>
      </trkpt>
      <trkpt lat="17.076379670" lon="-96.465675560">
        <ele>2724.000</ele>
        <time>2017-01-13T21:48:28Z</time>
        <name>WPT.1668</name>
      </trkpt>
      <trkpt lat="17.076309990" lon="-96.465657720">
        <ele>2724.000</ele>
        <time>2017-01-13T21:48:29Z</time>
        <name>WPT.1669</name>
      </trkpt>
      <trkpt lat="17.076220480" lon="-96.465538220">
        <ele>2724.000</ele>
        <time>2017-01-13T21:48:30Z</time>
        <name>WPT.1670</name>
      </trkpt>
      <trkpt lat="17.076362340" lon="-96.465954130">
        <ele>2724.000</ele>
        <time>2017-01-13T21:48:31Z</time>
        <name>WPT.1671</name>
      </trkpt>
      <trkpt lat="17.076482960" lon="-96.466321910">
        <ele>2723.000</ele>
        <time>2017-01-13T21:48:34Z</time>
        <name>WPT.1672</name>
      </trkpt>
      <trkpt lat="17.076519680" lon="-96.466438420">
        <ele>2723.000</ele>
        <time>2017-01-13T21:48:35Z</time>
        <name>WPT.1673</name>
      </trkpt>
      <trkpt lat="17.076548820" lon="-96.466558910">
        <ele>2723.000</ele>
        <time>2017-01-13T21:48:36Z</time>
        <name>WPT.1674</name>
      </trkpt>
      <trkpt lat="17.076583230" lon="-96.466697750">
        <ele>2723.000</ele>
        <time>2017-01-13T21:48:37Z</time>
        <name>WPT.1675</name>
      </trkpt>
      <trkpt lat="17.076579940" lon="-96.466803430">
        <ele>2723.000</ele>
        <time>2017-01-13T21:48:38Z</time>
        <name>WPT.1676</name>
      </trkpt>
      <trkpt lat="17.076526030" lon="-96.466990130">
        <ele>2723.000</ele>
        <time>2017-01-13T21:48:39Z</time>
        <name>WPT.1677</name>
      </trkpt>
      <trkpt lat="17.076539040" lon="-96.467080210">
        <ele>2723.000</ele>
        <time>2017-01-13T21:48:40Z</time>
        <name>WPT.1678</name>
      </trkpt>
      <trkpt lat="17.076581350" lon="-96.467154640">
        <ele>2723.000</ele>
        <time>2017-01-13T21:48:41Z</time>
        <name>WPT.1679</name>
      </trkpt>
      <trkpt lat="17.076571110" lon="-96.467247610">
        <ele>2723.000</ele>
        <time>2017-01-13T21:48:42Z</time>
        <name>WPT.1680</name>
      </trkpt>
      <trkpt lat="17.076552780" lon="-96.467305850">
        <ele>2723.000</ele>
        <time>2017-01-13T21:48:43Z</time>
        <name>WPT.1681</name>
      </trkpt>
      <trkpt lat="17.076488180" lon="-96.467366110">
        <ele>2722.000</ele>
        <time>2017-01-13T21:48:44Z</time>
        <name>WPT.1682</name>
      </trkpt>
      <trkpt lat="17.076459590" lon="-96.467452150">
        <ele>2722.000</ele>
        <time>2017-01-13T21:48:45Z</time>
        <name>WPT.1683</name>
      </trkpt>
      <trkpt lat="17.076429440" lon="-96.467518280">
        <ele>2722.000</ele>
        <time>2017-01-13T21:48:46Z</time>
        <name>WPT.1684</name>
      </trkpt>
      <trkpt lat="17.076373600" lon="-96.467563960">
        <ele>2723.000</ele>
        <time>2017-01-13T21:48:47Z</time>
        <name>WPT.1685</name>
      </trkpt>
      <trkpt lat="17.076305590" lon="-96.467626700">
        <ele>2723.000</ele>
        <time>2017-01-13T21:48:48Z</time>
        <name>WPT.1686</name>
      </trkpt>
      <trkpt lat="17.076247260" lon="-96.467617030">
        <ele>2723.000</ele>
        <time>2017-01-13T21:48:49Z</time>
        <name>WPT.1687</name>
      </trkpt>
      <trkpt lat="17.076194190" lon="-96.467573060">
        <ele>2723.000</ele>
        <time>2017-01-13T21:48:50Z</time>
        <name>WPT.1688</name>
      </trkpt>
      <trkpt lat="17.076125410" lon="-96.467581370">
        <ele>2723.000</ele>
        <time>2017-01-13T21:48:51Z</time>
        <name>WPT.1689</name>
      </trkpt>
      <trkpt lat="17.076049020" lon="-96.467610980">
        <ele>2722.000</ele>
        <time>2017-01-13T21:48:52Z</time>
        <name>WPT.1690</name>
      </trkpt>
      <trkpt lat="17.075882120" lon="-96.467531070">
        <ele>2721.000</ele>
        <time>2017-01-13T21:48:53Z</time>
        <name>WPT.1691</name>
      </trkpt>
      <trkpt lat="17.075778410" lon="-96.467435410">
        <ele>2721.000</ele>
        <time>2017-01-13T21:48:54Z</time>
        <name>WPT.1692</name>
      </trkpt>
      <trkpt lat="17.075681890" lon="-96.467210180">
        <ele>2721.000</ele>
        <time>2017-01-13T21:48:55Z</time>
        <name>WPT.1693</name>
      </trkpt>
      <trkpt lat="17.075598150" lon="-96.467152300">
        <ele>2721.000</ele>
        <time>2017-01-13T21:48:56Z</time>
        <name>WPT.1694</name>
      </trkpt>
      <trkpt lat="17.075529840" lon="-96.467110820">
        <ele>2720.000</ele>
        <time>2017-01-13T21:48:57Z</time>
        <name>WPT.1695</name>
      </trkpt>
      <trkpt lat="17.075474030" lon="-96.467081550">
        <ele>2720.000</ele>
        <time>2017-01-13T21:48:58Z</time>
        <name>WPT.1696</name>
      </trkpt>
      <trkpt lat="17.075523650" lon="-96.467060940">
        <ele>2720.000</ele>
        <time>2017-01-13T21:48:59Z</time>
        <name>WPT.1697</name>
      </trkpt>
      <trkpt lat="17.075408930" lon="-96.467073440">
        <ele>2720.000</ele>
        <time>2017-01-13T21:49:00Z</time>
        <name>WPT.1698</name>
      </trkpt>
      <trkpt lat="17.075362960" lon="-96.467064610">
        <ele>2720.000</ele>
        <time>2017-01-13T21:49:01Z</time>
        <name>WPT.1699</name>
      </trkpt>
      <trkpt lat="17.075233170" lon="-96.467164140">
        <ele>2716.000</ele>
        <time>2017-01-13T21:49:02Z</time>
        <name>WPT.1700</name>
      </trkpt>
      <trkpt lat="17.075119640" lon="-96.467247460">
        <ele>2714.000</ele>
        <time>2017-01-13T21:49:03Z</time>
        <name>WPT.1701</name>
      </trkpt>
      <trkpt lat="17.075029510" lon="-96.467305150">
        <ele>2714.000</ele>
        <time>2017-01-13T21:49:04Z</time>
        <name>WPT.1702</name>
      </trkpt>
      <trkpt lat="17.074938110" lon="-96.467421380">
        <ele>2714.000</ele>
        <time>2017-01-13T21:49:05Z</time>
        <name>WPT.1703</name>
      </trkpt>
      <trkpt lat="17.074877820" lon="-96.467550150">
        <ele>2712.000</ele>
        <time>2017-01-13T21:49:06Z</time>
        <name>WPT.1704</name>
      </trkpt>
      <trkpt lat="17.074745050" lon="-96.467604780">
        <ele>2710.000</ele>
        <time>2017-01-13T21:49:07Z</time>
        <name>WPT.1705</name>
      </trkpt>
      <trkpt lat="17.074643950" lon="-96.467693950">
        <ele>2711.000</ele>
        <time>2017-01-13T21:49:08Z</time>
        <name>WPT.1706</name>
      </trkpt>
      <trkpt lat="17.074531550" lon="-96.467749000">
        <ele>2708.000</ele>
        <time>2017-01-13T21:49:09Z</time>
        <name>WPT.1707</name>
      </trkpt>
      <trkpt lat="17.074433610" lon="-96.467816060">
        <ele>2708.000</ele>
        <time>2017-01-13T21:49:10Z</time>
        <name>WPT.1708</name>
      </trkpt>
      <trkpt lat="17.074215540" lon="-96.467805070">
        <ele>2709.000</ele>
        <time>2017-01-13T21:49:11Z</time>
        <name>WPT.1709</name>
      </trkpt>
      <trkpt lat="17.074083030" lon="-96.467873740">
        <ele>2709.000</ele>
        <time>2017-01-13T21:49:12Z</time>
        <name>WPT.1710</name>
      </trkpt>
      <trkpt lat="17.074057220" lon="-96.468014100">
        <ele>2707.000</ele>
        <time>2017-01-13T21:49:13Z</time>
        <name>WPT.1711</name>
      </trkpt>
      <trkpt lat="17.074054210" lon="-96.468091650">
        <ele>2704.000</ele>
        <time>2017-01-13T21:49:14Z</time>
        <name>WPT.1712</name>
      </trkpt>
      <trkpt lat="17.074070100" lon="-96.468160470">
        <ele>2701.000</ele>
        <time>2017-01-13T21:49:15Z</time>
        <name>WPT.1713</name>
      </trkpt>
      <trkpt lat="17.073996830" lon="-96.468270590">
        <ele>2702.000</ele>
        <time>2017-01-13T21:49:16Z</time>
        <name>WPT.1714</name>
      </trkpt>
      <trkpt lat="17.073941000" lon="-96.468372750">
        <ele>2702.000</ele>
        <time>2017-01-13T21:49:17Z</time>
        <name>WPT.1715</name>
      </trkpt>
      <trkpt lat="17.073830160" lon="-96.468421620">
        <ele>2701.000</ele>
        <time>2017-01-13T21:49:18Z</time>
        <name>WPT.1716</name>
      </trkpt>
      <trkpt lat="17.073761620" lon="-96.468516630">
        <ele>2701.000</ele>
        <time>2017-01-13T21:49:19Z</time>
        <name>WPT.1717</name>
      </trkpt>
      <trkpt lat="17.073647450" lon="-96.468570500">
        <ele>2700.000</ele>
        <time>2017-01-13T21:49:20Z</time>
        <name>WPT.1718</name>
      </trkpt>
      <trkpt lat="17.073555300" lon="-96.468640110">
        <ele>2700.000</ele>
        <time>2017-01-13T21:49:21Z</time>
        <name>WPT.1719</name>
      </trkpt>
      <trkpt lat="17.073472540" lon="-96.468705230">
        <ele>2700.000</ele>
        <time>2017-01-13T21:49:22Z</time>
        <name>WPT.1720</name>
      </trkpt>
      <trkpt lat="17.073380320" lon="-96.468863780">
        <ele>2700.000</ele>
        <time>2017-01-13T21:49:23Z</time>
        <name>WPT.1721</name>
      </trkpt>
      <trkpt lat="17.073304160" lon="-96.468960810">
        <ele>2699.000</ele>
        <time>2017-01-13T21:49:24Z</time>
        <name>WPT.1722</name>
      </trkpt>
      <trkpt lat="17.073236250" lon="-96.469057610">
        <ele>2699.000</ele>
        <time>2017-01-13T21:49:25Z</time>
        <name>WPT.1723</name>
      </trkpt>
      <trkpt lat="17.073263790" lon="-96.469156660">
        <ele>2692.000</ele>
        <time>2017-01-13T21:49:26Z</time>
        <name>WPT.1724</name>
      </trkpt>
      <trkpt lat="17.073133840" lon="-96.469243430">
        <ele>2693.000</ele>
        <time>2017-01-13T21:49:27Z</time>
        <name>WPT.1725</name>
      </trkpt>
      <trkpt lat="17.072919460" lon="-96.469104830">
        <ele>2683.000</ele>
        <time>2017-01-13T21:49:28Z</time>
        <name>WPT.1726</name>
      </trkpt>
      <trkpt lat="17.072909480" lon="-96.469195850">
        <ele>2676.000</ele>
        <time>2017-01-13T21:49:29Z</time>
        <name>WPT.1727</name>
      </trkpt>
      <trkpt lat="17.072777600" lon="-96.469266280">
        <ele>2676.000</ele>
        <time>2017-01-13T21:49:30Z</time>
        <name>WPT.1728</name>
      </trkpt>
      <trkpt lat="17.072566800" lon="-96.469055780">
        <ele>2668.000</ele>
        <time>2017-01-13T21:49:31Z</time>
        <name>WPT.1729</name>
      </trkpt>
      <trkpt lat="17.072364120" lon="-96.469031590">
        <ele>2657.000</ele>
        <time>2017-01-13T21:49:32Z</time>
        <name>WPT.1730</name>
      </trkpt>
      <trkpt lat="17.072281010" lon="-96.469084350">
        <ele>2652.000</ele>
        <time>2017-01-13T21:49:33Z</time>
        <name>WPT.1731</name>
      </trkpt>
      <trkpt lat="17.072143300" lon="-96.469087160">
        <ele>2650.000</ele>
        <time>2017-01-13T21:49:34Z</time>
        <name>WPT.1732</name>
      </trkpt>
      <trkpt lat="17.072016940" lon="-96.469090610">
        <ele>2649.000</ele>
        <time>2017-01-13T21:49:35Z</time>
        <name>WPT.1733</name>
      </trkpt>
      <trkpt lat="17.071914900" lon="-96.469070740">
        <ele>2647.000</ele>
        <time>2017-01-13T21:49:36Z</time>
        <name>WPT.1734</name>
      </trkpt>
      <trkpt lat="17.071790420" lon="-96.469077520">
        <ele>2648.000</ele>
        <time>2017-01-13T21:49:37Z</time>
        <name>WPT.1735</name>
      </trkpt>
      <trkpt lat="17.071679340" lon="-96.469053770">
        <ele>2648.000</ele>
        <time>2017-01-13T21:49:38Z</time>
        <name>WPT.1736</name>
      </trkpt>
      <trkpt lat="17.071582180" lon="-96.468975890">
        <ele>2648.000</ele>
        <time>2017-01-13T21:49:39Z</time>
        <name>WPT.1737</name>
      </trkpt>
      <trkpt lat="17.071505470" lon="-96.468808310">
        <ele>2647.000</ele>
        <time>2017-01-13T21:49:40Z</time>
        <name>WPT.1738</name>
      </trkpt>
      <trkpt lat="17.071404600" lon="-96.468722490">
        <ele>2647.000</ele>
        <time>2017-01-13T21:49:41Z</time>
        <name>WPT.1739</name>
      </trkpt>
      <trkpt lat="17.071338000" lon="-96.468638270">
        <ele>2646.000</ele>
        <time>2017-01-13T21:49:42Z</time>
        <name>WPT.1740</name>
      </trkpt>
      <trkpt lat="17.071249240" lon="-96.468575310">
        <ele>2646.000</ele>
        <time>2017-01-13T21:49:43Z</time>
        <name>WPT.1741</name>
      </trkpt>
      <trkpt lat="17.071208830" lon="-96.468577020">
        <ele>2646.000</ele>
        <time>2017-01-13T21:49:44Z</time>
        <name>WPT.1742</name>
      </trkpt>
      <trkpt lat="17.071113830" lon="-96.468584660">
        <ele>2645.000</ele>
        <time>2017-01-13T21:49:45Z</time>
        <name>WPT.1743</name>
      </trkpt>
      <trkpt lat="17.071024860" lon="-96.468574600">
        <ele>2644.000</ele>
        <time>2017-01-13T21:49:46Z</time>
        <name>WPT.1744</name>
      </trkpt>
      <trkpt lat="17.070917300" lon="-96.468500510">
        <ele>2646.000</ele>
        <time>2017-01-13T21:49:47Z</time>
        <name>WPT.1745</name>
      </trkpt>
      <trkpt lat="17.070806090" lon="-96.468434580">
        <ele>2647.000</ele>
        <time>2017-01-13T21:49:48Z</time>
        <name>WPT.1746</name>
      </trkpt>
      <trkpt lat="17.070646290" lon="-96.468427330">
        <ele>2647.000</ele>
        <time>2017-01-13T21:49:49Z</time>
        <name>WPT.1747</name>
      </trkpt>
      <trkpt lat="17.070513290" lon="-96.468536470">
        <ele>2647.000</ele>
        <time>2017-01-13T21:49:50Z</time>
        <name>WPT.1748</name>
      </trkpt>
      <trkpt lat="17.070370060" lon="-96.468610280">
        <ele>2649.000</ele>
        <time>2017-01-13T21:49:51Z</time>
        <name>WPT.1749</name>
      </trkpt>
      <trkpt lat="17.070242470" lon="-96.468662250">
        <ele>2650.000</ele>
        <time>2017-01-13T21:49:52Z</time>
        <name>WPT.1750</name>
      </trkpt>
      <trkpt lat="17.070109500" lon="-96.468709540">
        <ele>2648.000</ele>
        <time>2017-01-13T21:49:53Z</time>
        <name>WPT.1751</name>
      </trkpt>
      <trkpt lat="17.069996880" lon="-96.468707200">
        <ele>2647.000</ele>
        <time>2017-01-13T21:49:54Z</time>
        <name>WPT.1752</name>
      </trkpt>
      <trkpt lat="17.069898670" lon="-96.468690570">
        <ele>2646.000</ele>
        <time>2017-01-13T21:49:55Z</time>
        <name>WPT.1753</name>
      </trkpt>
      <trkpt lat="17.069830760" lon="-96.468718220">
        <ele>2641.000</ele>
        <time>2017-01-13T21:49:56Z</time>
        <name>WPT.1754</name>
      </trkpt>
      <trkpt lat="17.069744140" lon="-96.468691540">
        <ele>2642.000</ele>
        <time>2017-01-13T21:49:57Z</time>
        <name>WPT.1755</name>
      </trkpt>
      <trkpt lat="17.069647370" lon="-96.468636030">
        <ele>2644.000</ele>
        <time>2017-01-13T21:49:58Z</time>
        <name>WPT.1756</name>
      </trkpt>
      <trkpt lat="17.069599460" lon="-96.468631310">
        <ele>2638.000</ele>
        <time>2017-01-13T21:49:59Z</time>
        <name>WPT.1757</name>
      </trkpt>
      <trkpt lat="17.069514710" lon="-96.468595360">
        <ele>2637.000</ele>
        <time>2017-01-13T21:50:00Z</time>
        <name>WPT.1758</name>
      </trkpt>
      <trkpt lat="17.069406020" lon="-96.468527870">
        <ele>2637.000</ele>
        <time>2017-01-13T21:50:01Z</time>
        <name>WPT.1759</name>
      </trkpt>
      <trkpt lat="17.069335140" lon="-96.468505780">
        <ele>2635.000</ele>
        <time>2017-01-13T21:50:02Z</time>
        <name>WPT.1760</name>
      </trkpt>
      <trkpt lat="17.069227620" lon="-96.468477440">
        <ele>2635.000</ele>
        <time>2017-01-13T21:50:03Z</time>
        <name>WPT.1761</name>
      </trkpt>
      <trkpt lat="17.069108300" lon="-96.468435860">
        <ele>2636.000</ele>
        <time>2017-01-13T21:50:04Z</time>
        <name>WPT.1762</name>
      </trkpt>
      <trkpt lat="17.068988740" lon="-96.468370580">
        <ele>2637.000</ele>
        <time>2017-01-13T21:50:05Z</time>
        <name>WPT.1763</name>
      </trkpt>
      <trkpt lat="17.068906930" lon="-96.468350520">
        <ele>2639.000</ele>
        <time>2017-01-13T21:50:06Z</time>
        <name>WPT.1764</name>
      </trkpt>
      <trkpt lat="17.068798810" lon="-96.468337150">
        <ele>2639.000</ele>
        <time>2017-01-13T21:50:07Z</time>
        <name>WPT.1765</name>
      </trkpt>
      <trkpt lat="17.068735130" lon="-96.468297150">
        <ele>2639.000</ele>
        <time>2017-01-13T21:50:08Z</time>
        <name>WPT.1766</name>
      </trkpt>
      <trkpt lat="17.068584040" lon="-96.468396890">
        <ele>2639.000</ele>
        <time>2017-01-13T21:50:09Z</time>
        <name>WPT.1767</name>
      </trkpt>
      <trkpt lat="17.068445280" lon="-96.468453980">
        <ele>2638.000</ele>
        <time>2017-01-13T21:50:10Z</time>
        <name>WPT.1768</name>
      </trkpt>
      <trkpt lat="17.068295610" lon="-96.468488570">
        <ele>2638.000</ele>
        <time>2017-01-13T21:50:11Z</time>
        <name>WPT.1769</name>
      </trkpt>
      <trkpt lat="17.068181170" lon="-96.468534180">
        <ele>2636.000</ele>
        <time>2017-01-13T21:50:12Z</time>
        <name>WPT.1770</name>
      </trkpt>
      <trkpt lat="17.067991050" lon="-96.468482680">
        <ele>2635.000</ele>
        <time>2017-01-13T21:50:13Z</time>
        <name>WPT.1771</name>
      </trkpt>
      <trkpt lat="17.067840410" lon="-96.468438540">
        <ele>2634.000</ele>
        <time>2017-01-13T21:50:14Z</time>
        <name>WPT.1772</name>
      </trkpt>
      <trkpt lat="17.067691290" lon="-96.468401910">
        <ele>2633.000</ele>
        <time>2017-01-13T21:50:15Z</time>
        <name>WPT.1773</name>
      </trkpt>
      <trkpt lat="17.067569020" lon="-96.468410270">
        <ele>2629.000</ele>
        <time>2017-01-13T21:50:16Z</time>
        <name>WPT.1774</name>
      </trkpt>
      <trkpt lat="17.067390600" lon="-96.468405860">
        <ele>2629.000</ele>
        <time>2017-01-13T21:50:17Z</time>
        <name>WPT.1775</name>
      </trkpt>
      <trkpt lat="17.067216390" lon="-96.468407040">
        <ele>2628.000</ele>
        <time>2017-01-13T21:50:18Z</time>
        <name>WPT.1776</name>
      </trkpt>
      <trkpt lat="17.067056740" lon="-96.468430710">
        <ele>2625.000</ele>
        <time>2017-01-13T21:50:19Z</time>
        <name>WPT.1777</name>
      </trkpt>
      <trkpt lat="17.066860930" lon="-96.468388920">
        <ele>2626.000</ele>
        <time>2017-01-13T21:50:20Z</time>
        <name>WPT.1778</name>
      </trkpt>
      <trkpt lat="17.066699640" lon="-96.468326810">
        <ele>2624.000</ele>
        <time>2017-01-13T21:50:21Z</time>
        <name>WPT.1779</name>
      </trkpt>
      <trkpt lat="17.066531040" lon="-96.468311270">
        <ele>2622.000</ele>
        <time>2017-01-13T21:50:22Z</time>
        <name>WPT.1780</name>
      </trkpt>
      <trkpt lat="17.066364990" lon="-96.468317850">
        <ele>2623.000</ele>
        <time>2017-01-13T21:50:23Z</time>
        <name>WPT.1781</name>
      </trkpt>
      <trkpt lat="17.066236910" lon="-96.468338350">
        <ele>2620.000</ele>
        <time>2017-01-13T21:50:24Z</time>
        <name>WPT.1782</name>
      </trkpt>
      <trkpt lat="17.066034830" lon="-96.468306350">
        <ele>2620.000</ele>
        <time>2017-01-13T21:50:25Z</time>
        <name>WPT.1783</name>
      </trkpt>
      <trkpt lat="17.065846550" lon="-96.468256550">
        <ele>2620.000</ele>
        <time>2017-01-13T21:50:26Z</time>
        <name>WPT.1784</name>
      </trkpt>
      <trkpt lat="17.065522380" lon="-96.468218140">
        <ele>2619.000</ele>
        <time>2017-01-13T21:50:28Z</time>
        <name>WPT.1785</name>
      </trkpt>
      <trkpt lat="17.065396970" lon="-96.468268720">
        <ele>2620.000</ele>
        <time>2017-01-13T21:50:29Z</time>
        <name>WPT.1786</name>
      </trkpt>
      <trkpt lat="17.065218810" lon="-96.468240180">
        <ele>2620.000</ele>
        <time>2017-01-13T21:50:30Z</time>
        <name>WPT.1787</name>
      </trkpt>
      <trkpt lat="17.065065200" lon="-96.468316560">
        <ele>2620.000</ele>
        <time>2017-01-13T21:50:31Z</time>
        <name>WPT.1788</name>
      </trkpt>
      <trkpt lat="17.064942960" lon="-96.468382200">
        <ele>2621.000</ele>
        <time>2017-01-13T21:50:32Z</time>
        <name>WPT.1789</name>
      </trkpt>
      <trkpt lat="17.064816850" lon="-96.468524940">
        <ele>2619.000</ele>
        <time>2017-01-13T21:50:33Z</time>
        <name>WPT.1790</name>
      </trkpt>
      <trkpt lat="17.064713150" lon="-96.468631950">
        <ele>2618.000</ele>
        <time>2017-01-13T21:50:34Z</time>
        <name>WPT.1791</name>
      </trkpt>
      <trkpt lat="17.064600170" lon="-96.468747610">
        <ele>2617.000</ele>
        <time>2017-01-13T21:50:35Z</time>
        <name>WPT.1792</name>
      </trkpt>
      <trkpt lat="17.064485850" lon="-96.468853420">
        <ele>2617.000</ele>
        <time>2017-01-13T21:50:36Z</time>
        <name>WPT.1793</name>
      </trkpt>
      <trkpt lat="17.064353800" lon="-96.468916170">
        <ele>2616.000</ele>
        <time>2017-01-13T21:50:37Z</time>
        <name>WPT.1794</name>
      </trkpt>
      <trkpt lat="17.064213080" lon="-96.468972580">
        <ele>2617.000</ele>
        <time>2017-01-13T21:50:38Z</time>
        <name>WPT.1795</name>
      </trkpt>
      <trkpt lat="17.064079320" lon="-96.469047580">
        <ele>2616.000</ele>
        <time>2017-01-13T21:50:39Z</time>
        <name>WPT.1796</name>
      </trkpt>
      <trkpt lat="17.063954520" lon="-96.469091810">
        <ele>2615.000</ele>
        <time>2017-01-13T21:50:40Z</time>
        <name>WPT.1797</name>
      </trkpt>
      <trkpt lat="17.063812810" lon="-96.469138400">
        <ele>2613.000</ele>
        <time>2017-01-13T21:50:41Z</time>
        <name>WPT.1798</name>
      </trkpt>
      <trkpt lat="17.063651030" lon="-96.469204440">
        <ele>2612.000</ele>
        <time>2017-01-13T21:50:42Z</time>
        <name>WPT.1799</name>
      </trkpt>
      <trkpt lat="17.063532480" lon="-96.469191870">
        <ele>2612.000</ele>
        <time>2017-01-13T21:50:43Z</time>
        <name>WPT.1800</name>
      </trkpt>
      <trkpt lat="17.063382820" lon="-96.469178490">
        <ele>2610.000</ele>
        <time>2017-01-13T21:50:44Z</time>
        <name>WPT.1801</name>
      </trkpt>
      <trkpt lat="17.063238570" lon="-96.469207540">
        <ele>2611.000</ele>
        <time>2017-01-13T21:50:45Z</time>
        <name>WPT.1802</name>
      </trkpt>
      <trkpt lat="17.063099360" lon="-96.469204550">
        <ele>2611.000</ele>
        <time>2017-01-13T21:50:46Z</time>
        <name>WPT.1803</name>
      </trkpt>
      <trkpt lat="17.062947430" lon="-96.469189020">
        <ele>2612.000</ele>
        <time>2017-01-13T21:50:47Z</time>
        <name>WPT.1804</name>
      </trkpt>
      <trkpt lat="17.062800970" lon="-96.469169640">
        <ele>2611.000</ele>
        <time>2017-01-13T21:50:48Z</time>
        <name>WPT.1805</name>
      </trkpt>
      <trkpt lat="17.062525000" lon="-96.469112270">
        <ele>2611.000</ele>
        <time>2017-01-13T21:50:50Z</time>
        <name>WPT.1806</name>
      </trkpt>
      <trkpt lat="17.062366380" lon="-96.469106510">
        <ele>2612.000</ele>
        <time>2017-01-13T21:50:51Z</time>
        <name>WPT.1807</name>
      </trkpt>
      <trkpt lat="17.062228760" lon="-96.469097260">
        <ele>2613.000</ele>
        <time>2017-01-13T21:50:52Z</time>
        <name>WPT.1808</name>
      </trkpt>
      <trkpt lat="17.062083930" lon="-96.469092580">
        <ele>2614.000</ele>
        <time>2017-01-13T21:50:53Z</time>
        <name>WPT.1809</name>
      </trkpt>
      <trkpt lat="17.061956420" lon="-96.469064310">
        <ele>2614.000</ele>
        <time>2017-01-13T21:50:54Z</time>
        <name>WPT.1810</name>
      </trkpt>
      <trkpt lat="17.061803330" lon="-96.469132670">
        <ele>2612.000</ele>
        <time>2017-01-13T21:50:55Z</time>
        <name>WPT.1811</name>
      </trkpt>
      <trkpt lat="17.061665720" lon="-96.469108610">
        <ele>2612.000</ele>
        <time>2017-01-13T21:50:56Z</time>
        <name>WPT.1812</name>
      </trkpt>
      <trkpt lat="17.061530430" lon="-96.469228340">
        <ele>2612.000</ele>
        <time>2017-01-13T21:50:57Z</time>
        <name>WPT.1813</name>
      </trkpt>
      <trkpt lat="17.061383670" lon="-96.469260100">
        <ele>2611.000</ele>
        <time>2017-01-13T21:50:58Z</time>
        <name>WPT.1814</name>
      </trkpt>
      <trkpt lat="17.061263230" lon="-96.469338490">
        <ele>2610.000</ele>
        <time>2017-01-13T21:50:59Z</time>
        <name>WPT.1815</name>
      </trkpt>
      <trkpt lat="17.061125310" lon="-96.469401650">
        <ele>2610.000</ele>
        <time>2017-01-13T21:51:00Z</time>
        <name>WPT.1816</name>
      </trkpt>
      <trkpt lat="17.061013580" lon="-96.469433110">
        <ele>2608.000</ele>
        <time>2017-01-13T21:51:01Z</time>
        <name>WPT.1817</name>
      </trkpt>
      <trkpt lat="17.060844110" lon="-96.469521880">
        <ele>2606.000</ele>
        <time>2017-01-13T21:51:02Z</time>
        <name>WPT.1818</name>
      </trkpt>
      <trkpt lat="17.060691890" lon="-96.469599840">
        <ele>2607.000</ele>
        <time>2017-01-13T21:51:03Z</time>
        <name>WPT.1819</name>
      </trkpt>
      <trkpt lat="17.060546870" lon="-96.469668740">
        <ele>2605.000</ele>
        <time>2017-01-13T21:51:04Z</time>
        <name>WPT.1820</name>
      </trkpt>
      <trkpt lat="17.060420390" lon="-96.469736670">
        <ele>2603.000</ele>
        <time>2017-01-13T21:51:05Z</time>
        <name>WPT.1821</name>
      </trkpt>
      <trkpt lat="17.060307350" lon="-96.469786520">
        <ele>2603.000</ele>
        <time>2017-01-13T21:51:06Z</time>
        <name>WPT.1822</name>
      </trkpt>
      <trkpt lat="17.060215310" lon="-96.469908000">
        <ele>2599.000</ele>
        <time>2017-01-13T21:51:07Z</time>
        <name>WPT.1823</name>
      </trkpt>
      <trkpt lat="17.060098650" lon="-96.470003790">
        <ele>2598.000</ele>
        <time>2017-01-13T21:51:08Z</time>
        <name>WPT.1824</name>
      </trkpt>
      <trkpt lat="17.059994160" lon="-96.470080020">
        <ele>2597.000</ele>
        <time>2017-01-13T21:51:09Z</time>
        <name>WPT.1825</name>
      </trkpt>
      <trkpt lat="17.059865720" lon="-96.470171110">
        <ele>2596.000</ele>
        <time>2017-01-13T21:51:10Z</time>
        <name>WPT.1826</name>
      </trkpt>
      <trkpt lat="17.059771480" lon="-96.470289950">
        <ele>2597.000</ele>
        <time>2017-01-13T21:51:11Z</time>
        <name>WPT.1827</name>
      </trkpt>
      <trkpt lat="17.059726310" lon="-96.470413840">
        <ele>2596.000</ele>
        <time>2017-01-13T21:51:12Z</time>
        <name>WPT.1828</name>
      </trkpt>
      <trkpt lat="17.059627540" lon="-96.470526200">
        <ele>2596.000</ele>
        <time>2017-01-13T21:51:13Z</time>
        <name>WPT.1829</name>
      </trkpt>
      <trkpt lat="17.059523220" lon="-96.470639720">
        <ele>2596.000</ele>
        <time>2017-01-13T21:51:14Z</time>
        <name>WPT.1830</name>
      </trkpt>
      <trkpt lat="17.059407430" lon="-96.470746920">
        <ele>2597.000</ele>
        <time>2017-01-13T21:51:15Z</time>
        <name>WPT.1831</name>
      </trkpt>
      <trkpt lat="17.059330440" lon="-96.470845190">
        <ele>2598.000</ele>
        <time>2017-01-13T21:51:16Z</time>
        <name>WPT.1832</name>
      </trkpt>
      <trkpt lat="17.059262740" lon="-96.470916770">
        <ele>2598.000</ele>
        <time>2017-01-13T21:51:17Z</time>
        <name>WPT.1833</name>
      </trkpt>
      <trkpt lat="17.059199650" lon="-96.471088810">
        <ele>2598.000</ele>
        <time>2017-01-13T21:51:18Z</time>
        <name>WPT.1834</name>
      </trkpt>
      <trkpt lat="17.059275040" lon="-96.471212230">
        <ele>2594.000</ele>
        <time>2017-01-13T21:51:19Z</time>
        <name>WPT.1835</name>
      </trkpt>
      <trkpt lat="17.059192810" lon="-96.471330840">
        <ele>2592.000</ele>
        <time>2017-01-13T21:51:20Z</time>
        <name>WPT.1836</name>
      </trkpt>
      <trkpt lat="17.059144770" lon="-96.471403370">
        <ele>2593.000</ele>
        <time>2017-01-13T21:51:21Z</time>
        <name>WPT.1837</name>
      </trkpt>
      <trkpt lat="17.059057200" lon="-96.471469410">
        <ele>2593.000</ele>
        <time>2017-01-13T21:51:22Z</time>
        <name>WPT.1838</name>
      </trkpt>
      <trkpt lat="17.058974380" lon="-96.471517840">
        <ele>2592.000</ele>
        <time>2017-01-13T21:51:23Z</time>
        <name>WPT.1839</name>
      </trkpt>
      <trkpt lat="17.058911930" lon="-96.471537080">
        <ele>2591.000</ele>
        <time>2017-01-13T21:51:24Z</time>
        <name>WPT.1840</name>
      </trkpt>
      <trkpt lat="17.058812350" lon="-96.471505990">
        <ele>2590.000</ele>
        <time>2017-01-13T21:51:25Z</time>
        <name>WPT.1841</name>
      </trkpt>
      <trkpt lat="17.058718880" lon="-96.471484220">
        <ele>2591.000</ele>
        <time>2017-01-13T21:51:26Z</time>
        <name>WPT.1842</name>
      </trkpt>
      <trkpt lat="17.058612740" lon="-96.471433460">
        <ele>2587.000</ele>
        <time>2017-01-13T21:51:27Z</time>
        <name>WPT.1843</name>
      </trkpt>
      <trkpt lat="17.058566500" lon="-96.471367250">
        <ele>2587.000</ele>
        <time>2017-01-13T21:51:28Z</time>
        <name>WPT.1844</name>
      </trkpt>
      <trkpt lat="17.058469540" lon="-96.471298990">
        <ele>2588.000</ele>
        <time>2017-01-13T21:51:29Z</time>
        <name>WPT.1845</name>
      </trkpt>
      <trkpt lat="17.058382910" lon="-96.471242010">
        <ele>2587.000</ele>
        <time>2017-01-13T21:51:30Z</time>
        <name>WPT.1846</name>
      </trkpt>
      <trkpt lat="17.058230530" lon="-96.471236980">
        <ele>2588.000</ele>
        <time>2017-01-13T21:51:31Z</time>
        <name>WPT.1847</name>
      </trkpt>
      <trkpt lat="17.058100510" lon="-96.471153730">
        <ele>2589.000</ele>
        <time>2017-01-13T21:51:32Z</time>
        <name>WPT.1848</name>
      </trkpt>
      <trkpt lat="17.058009830" lon="-96.471138920">
        <ele>2589.000</ele>
        <time>2017-01-13T21:51:33Z</time>
        <name>WPT.1849</name>
      </trkpt>
      <trkpt lat="17.057879700" lon="-96.471119870">
        <ele>2589.000</ele>
        <time>2017-01-13T21:51:34Z</time>
        <name>WPT.1850</name>
      </trkpt>
      <trkpt lat="17.057757070" lon="-96.470971790">
        <ele>2589.000</ele>
        <time>2017-01-13T21:51:35Z</time>
        <name>WPT.1851</name>
      </trkpt>
      <trkpt lat="17.057693720" lon="-96.470792140">
        <ele>2587.000</ele>
        <time>2017-01-13T21:51:36Z</time>
        <name>WPT.1852</name>
      </trkpt>
      <trkpt lat="17.057665080" lon="-96.470582690">
        <ele>2584.000</ele>
        <time>2017-01-13T21:51:37Z</time>
        <name>WPT.1853</name>
      </trkpt>
      <trkpt lat="17.057633640" lon="-96.470417210">
        <ele>2582.000</ele>
        <time>2017-01-13T21:51:38Z</time>
        <name>WPT.1854</name>
      </trkpt>
      <trkpt lat="17.057537150" lon="-96.470329740">
        <ele>2583.000</ele>
        <time>2017-01-13T21:51:39Z</time>
        <name>WPT.1855</name>
      </trkpt>
      <trkpt lat="17.057403790" lon="-96.470294120">
        <ele>2583.000</ele>
        <time>2017-01-13T21:51:40Z</time>
        <name>WPT.1856</name>
      </trkpt>
      <trkpt lat="17.057308890" lon="-96.470263810">
        <ele>2583.000</ele>
        <time>2017-01-13T21:51:41Z</time>
        <name>WPT.1857</name>
      </trkpt>
      <trkpt lat="17.057183170" lon="-96.470234250">
        <ele>2582.000</ele>
        <time>2017-01-13T21:51:42Z</time>
        <name>WPT.1858</name>
      </trkpt>
      <trkpt lat="17.057085900" lon="-96.470186630">
        <ele>2581.000</ele>
        <time>2017-01-13T21:51:43Z</time>
        <name>WPT.1859</name>
      </trkpt>
      <trkpt lat="17.057005760" lon="-96.470153550">
        <ele>2580.000</ele>
        <time>2017-01-13T21:51:44Z</time>
        <name>WPT.1860</name>
      </trkpt>
      <trkpt lat="17.056900970" lon="-96.470093660">
        <ele>2580.000</ele>
        <time>2017-01-13T21:51:45Z</time>
        <name>WPT.1861</name>
      </trkpt>
      <trkpt lat="17.056847010" lon="-96.470060620">
        <ele>2580.000</ele>
        <time>2017-01-13T21:51:46Z</time>
        <name>WPT.1862</name>
      </trkpt>
      <trkpt lat="17.056781040" lon="-96.469972220">
        <ele>2580.000</ele>
        <time>2017-01-13T21:51:47Z</time>
        <name>WPT.1863</name>
      </trkpt>
      <trkpt lat="17.056733550" lon="-96.469896860">
        <ele>2580.000</ele>
        <time>2017-01-13T21:51:48Z</time>
        <name>WPT.1864</name>
      </trkpt>
      <trkpt lat="17.056694110" lon="-96.469833690">
        <ele>2581.000</ele>
        <time>2017-01-13T21:51:49Z</time>
        <name>WPT.1865</name>
      </trkpt>
      <trkpt lat="17.056672320" lon="-96.469786620">
        <ele>2579.000</ele>
        <time>2017-01-13T21:51:50Z</time>
        <name>WPT.1866</name>
      </trkpt>
      <trkpt lat="17.056616240" lon="-96.469731570">
        <ele>2580.000</ele>
        <time>2017-01-13T21:51:51Z</time>
        <name>WPT.1867</name>
      </trkpt>
      <trkpt lat="17.056535490" lon="-96.469732900">
        <ele>2579.000</ele>
        <time>2017-01-13T21:51:52Z</time>
        <name>WPT.1868</name>
      </trkpt>
      <trkpt lat="17.056469170" lon="-96.469751350">
        <ele>2578.000</ele>
        <time>2017-01-13T21:51:53Z</time>
        <name>WPT.1869</name>
      </trkpt>
      <trkpt lat="17.056412340" lon="-96.469758790">
        <ele>2577.000</ele>
        <time>2017-01-13T21:51:54Z</time>
        <name>WPT.1870</name>
      </trkpt>
      <trkpt lat="17.056331930" lon="-96.469761350">
        <ele>2577.000</ele>
        <time>2017-01-13T21:51:55Z</time>
        <name>WPT.1871</name>
      </trkpt>
      <trkpt lat="17.056114780" lon="-96.469858520">
        <ele>2578.000</ele>
        <time>2017-01-13T21:51:56Z</time>
        <name>WPT.1872</name>
      </trkpt>
      <trkpt lat="17.056045120" lon="-96.469880540">
        <ele>2577.000</ele>
        <time>2017-01-13T21:51:57Z</time>
        <name>WPT.1873</name>
      </trkpt>
      <trkpt lat="17.055918300" lon="-96.469895660">
        <ele>2575.000</ele>
        <time>2017-01-13T21:51:58Z</time>
        <name>WPT.1874</name>
      </trkpt>
      <trkpt lat="17.055799180" lon="-96.469894000">
        <ele>2574.000</ele>
        <time>2017-01-13T21:51:59Z</time>
        <name>WPT.1875</name>
      </trkpt>
      <trkpt lat="17.055685400" lon="-96.469885580">
        <ele>2573.000</ele>
        <time>2017-01-13T21:52:00Z</time>
        <name>WPT.1876</name>
      </trkpt>
      <trkpt lat="17.055555770" lon="-96.469857880">
        <ele>2571.000</ele>
        <time>2017-01-13T21:52:01Z</time>
        <name>WPT.1877</name>
      </trkpt>
      <trkpt lat="17.055440810" lon="-96.469818250">
        <ele>2568.000</ele>
        <time>2017-01-13T21:52:02Z</time>
        <name>WPT.1878</name>
      </trkpt>
      <trkpt lat="17.055333630" lon="-96.469789350">
        <ele>2567.000</ele>
        <time>2017-01-13T21:52:03Z</time>
        <name>WPT.1879</name>
      </trkpt>
      <trkpt lat="17.055224930" lon="-96.469797380">
        <ele>2566.000</ele>
        <time>2017-01-13T21:52:04Z</time>
        <name>WPT.1880</name>
      </trkpt>
      <trkpt lat="17.055127990" lon="-96.469810820">
        <ele>2566.000</ele>
        <time>2017-01-13T21:52:05Z</time>
        <name>WPT.1881</name>
      </trkpt>
      <trkpt lat="17.054999440" lon="-96.469840790">
        <ele>2565.000</ele>
        <time>2017-01-13T21:52:06Z</time>
        <name>WPT.1882</name>
      </trkpt>
      <trkpt lat="17.054881710" lon="-96.469885660">
        <ele>2566.000</ele>
        <time>2017-01-13T21:52:07Z</time>
        <name>WPT.1883</name>
      </trkpt>
      <trkpt lat="17.054768420" lon="-96.469926000">
        <ele>2565.000</ele>
        <time>2017-01-13T21:52:08Z</time>
        <name>WPT.1884</name>
      </trkpt>
      <trkpt lat="17.054658690" lon="-96.469971040">
        <ele>2565.000</ele>
        <time>2017-01-13T21:52:09Z</time>
        <name>WPT.1885</name>
      </trkpt>
      <trkpt lat="17.054542590" lon="-96.470011580">
        <ele>2565.000</ele>
        <time>2017-01-13T21:52:10Z</time>
        <name>WPT.1886</name>
      </trkpt>
      <trkpt lat="17.054462010" lon="-96.470114380">
        <ele>2565.000</ele>
        <time>2017-01-13T21:52:11Z</time>
        <name>WPT.1887</name>
      </trkpt>
      <trkpt lat="17.054376780" lon="-96.470149430">
        <ele>2564.000</ele>
        <time>2017-01-13T21:52:12Z</time>
        <name>WPT.1888</name>
      </trkpt>
      <trkpt lat="17.054241360" lon="-96.470201700">
        <ele>2561.000</ele>
        <time>2017-01-13T21:52:13Z</time>
        <name>WPT.1889</name>
      </trkpt>
      <trkpt lat="17.054129340" lon="-96.470225470">
        <ele>2559.000</ele>
        <time>2017-01-13T21:52:14Z</time>
        <name>WPT.1890</name>
      </trkpt>
      <trkpt lat="17.054088030" lon="-96.470109870">
        <ele>2560.000</ele>
        <time>2017-01-13T21:52:15Z</time>
        <name>WPT.1891</name>
      </trkpt>
      <trkpt lat="17.054035450" lon="-96.470022280">
        <ele>2558.000</ele>
        <time>2017-01-13T21:52:16Z</time>
        <name>WPT.1892</name>
      </trkpt>
      <trkpt lat="17.053993030" lon="-96.469883290">
        <ele>2559.000</ele>
        <time>2017-01-13T21:52:17Z</time>
        <name>WPT.1893</name>
      </trkpt>
      <trkpt lat="17.053925910" lon="-96.469801450">
        <ele>2559.000</ele>
        <time>2017-01-13T21:52:18Z</time>
        <name>WPT.1894</name>
      </trkpt>
      <trkpt lat="17.053851240" lon="-96.469737440">
        <ele>2559.000</ele>
        <time>2017-01-13T21:52:19Z</time>
        <name>WPT.1895</name>
      </trkpt>
      <trkpt lat="17.053778490" lon="-96.469637640">
        <ele>2558.000</ele>
        <time>2017-01-13T21:52:20Z</time>
        <name>WPT.1896</name>
      </trkpt>
      <trkpt lat="17.053751970" lon="-96.469496180">
        <ele>2558.000</ele>
        <time>2017-01-13T21:52:21Z</time>
        <name>WPT.1897</name>
      </trkpt>
      <trkpt lat="17.053729020" lon="-96.469418860">
        <ele>2558.000</ele>
        <time>2017-01-13T21:52:22Z</time>
        <name>WPT.1898</name>
      </trkpt>
      <trkpt lat="17.053679460" lon="-96.469330380">
        <ele>2558.000</ele>
        <time>2017-01-13T21:52:23Z</time>
        <name>WPT.1899</name>
      </trkpt>
      <trkpt lat="17.053568510" lon="-96.469266140">
        <ele>2558.000</ele>
        <time>2017-01-13T21:52:24Z</time>
        <name>WPT.1900</name>
      </trkpt>
      <trkpt lat="17.053455510" lon="-96.469201360">
        <ele>2558.000</ele>
        <time>2017-01-13T21:52:25Z</time>
        <name>WPT.1901</name>
      </trkpt>
      <trkpt lat="17.053280420" lon="-96.469343000">
        <ele>2558.000</ele>
        <time>2017-01-13T21:52:26Z</time>
        <name>WPT.1902</name>
      </trkpt>
      <trkpt lat="17.053158800" lon="-96.469403390">
        <ele>2555.000</ele>
        <time>2017-01-13T21:52:27Z</time>
        <name>WPT.1903</name>
      </trkpt>
      <trkpt lat="17.053053120" lon="-96.469390510">
        <ele>2553.000</ele>
        <time>2017-01-13T21:52:28Z</time>
        <name>WPT.1904</name>
      </trkpt>
      <trkpt lat="17.052964850" lon="-96.469356110">
        <ele>2552.000</ele>
        <time>2017-01-13T21:52:29Z</time>
        <name>WPT.1905</name>
      </trkpt>
      <trkpt lat="17.052893400" lon="-96.469282630">
        <ele>2553.000</ele>
        <time>2017-01-13T21:52:30Z</time>
        <name>WPT.1906</name>
      </trkpt>
      <trkpt lat="17.052828160" lon="-96.469181820">
        <ele>2553.000</ele>
        <time>2017-01-13T21:52:31Z</time>
        <name>WPT.1907</name>
      </trkpt>
      <trkpt lat="17.052730910" lon="-96.469114550">
        <ele>2552.000</ele>
        <time>2017-01-13T21:52:32Z</time>
        <name>WPT.1908</name>
      </trkpt>
      <trkpt lat="17.052623880" lon="-96.469130470">
        <ele>2547.000</ele>
        <time>2017-01-13T21:52:33Z</time>
        <name>WPT.1909</name>
      </trkpt>
      <trkpt lat="17.052502580" lon="-96.469098370">
        <ele>2549.000</ele>
        <time>2017-01-13T21:52:34Z</time>
        <name>WPT.1910</name>
      </trkpt>
      <trkpt lat="17.052403420" lon="-96.469062880">
        <ele>2548.000</ele>
        <time>2017-01-13T21:52:35Z</time>
        <name>WPT.1911</name>
      </trkpt>
      <trkpt lat="17.052298260" lon="-96.468999450">
        <ele>2549.000</ele>
        <time>2017-01-13T21:52:36Z</time>
        <name>WPT.1912</name>
      </trkpt>
      <trkpt lat="17.052199120" lon="-96.468979660">
        <ele>2550.000</ele>
        <time>2017-01-13T21:52:37Z</time>
        <name>WPT.1913</name>
      </trkpt>
      <trkpt lat="17.052130240" lon="-96.468901870">
        <ele>2549.000</ele>
        <time>2017-01-13T21:52:38Z</time>
        <name>WPT.1914</name>
      </trkpt>
      <trkpt lat="17.052058480" lon="-96.468860390">
        <ele>2548.000</ele>
        <time>2017-01-13T21:52:39Z</time>
        <name>WPT.1915</name>
      </trkpt>
      <trkpt lat="17.051995770" lon="-96.468800450">
        <ele>2546.000</ele>
        <time>2017-01-13T21:52:40Z</time>
        <name>WPT.1916</name>
      </trkpt>
      <trkpt lat="17.051898480" lon="-96.468786420">
        <ele>2546.000</ele>
        <time>2017-01-13T21:52:41Z</time>
        <name>WPT.1917</name>
      </trkpt>
      <trkpt lat="17.051830070" lon="-96.468804900">
        <ele>2546.000</ele>
        <time>2017-01-13T21:52:42Z</time>
        <name>WPT.1918</name>
      </trkpt>
      <trkpt lat="17.051767770" lon="-96.468831090">
        <ele>2543.000</ele>
        <time>2017-01-13T21:52:43Z</time>
        <name>WPT.1919</name>
      </trkpt>
      <trkpt lat="17.051717890" lon="-96.468864770">
        <ele>2541.000</ele>
        <time>2017-01-13T21:52:44Z</time>
        <name>WPT.1920</name>
      </trkpt>
      <trkpt lat="17.051631830" lon="-96.468881380">
        <ele>2539.000</ele>
        <time>2017-01-13T21:52:45Z</time>
        <name>WPT.1921</name>
      </trkpt>
      <trkpt lat="17.051411940" lon="-96.468826100">
        <ele>2533.000</ele>
        <time>2017-01-13T21:52:48Z</time>
        <name>WPT.1922</name>
      </trkpt>
      <trkpt lat="17.051347050" lon="-96.468715250">
        <ele>2532.000</ele>
        <time>2017-01-13T21:52:49Z</time>
        <name>WPT.1923</name>
      </trkpt>
      <trkpt lat="17.051359460" lon="-96.468566110">
        <ele>2532.000</ele>
        <time>2017-01-13T21:52:50Z</time>
        <name>WPT.1924</name>
      </trkpt>
      <trkpt lat="17.051301900" lon="-96.468480680">
        <ele>2531.000</ele>
        <time>2017-01-13T21:52:51Z</time>
        <name>WPT.1925</name>
      </trkpt>
      <trkpt lat="17.051287690" lon="-96.468418160">
        <ele>2531.000</ele>
        <time>2017-01-13T21:52:52Z</time>
        <name>WPT.1926</name>
      </trkpt>
      <trkpt lat="17.051258040" lon="-96.468332780">
        <ele>2531.000</ele>
        <time>2017-01-13T21:52:53Z</time>
        <name>WPT.1927</name>
      </trkpt>
      <trkpt lat="17.051224410" lon="-96.468292480">
        <ele>2531.000</ele>
        <time>2017-01-13T21:52:54Z</time>
        <name>WPT.1928</name>
      </trkpt>
      <trkpt lat="17.051174090" lon="-96.468243650">
        <ele>2531.000</ele>
        <time>2017-01-13T21:52:55Z</time>
        <name>WPT.1929</name>
      </trkpt>
      <trkpt lat="17.051106260" lon="-96.468189030">
        <ele>2531.000</ele>
        <time>2017-01-13T21:52:56Z</time>
        <name>WPT.1930</name>
      </trkpt>
      <trkpt lat="17.051024640" lon="-96.468153480">
        <ele>2531.000</ele>
        <time>2017-01-13T21:52:57Z</time>
        <name>WPT.1931</name>
      </trkpt>
      <trkpt lat="17.050970060" lon="-96.468027110">
        <ele>2531.000</ele>
        <time>2017-01-13T21:52:58Z</time>
        <name>WPT.1932</name>
      </trkpt>
      <trkpt lat="17.050885490" lon="-96.467915020">
        <ele>2530.000</ele>
        <time>2017-01-13T21:52:59Z</time>
        <name>WPT.1933</name>
      </trkpt>
      <trkpt lat="17.050588790" lon="-96.467973690">
        <ele>2530.000</ele>
        <time>2017-01-13T21:53:01Z</time>
        <name>WPT.1934</name>
      </trkpt>
      <trkpt lat="17.050452260" lon="-96.467887610">
        <ele>2530.000</ele>
        <time>2017-01-13T21:53:02Z</time>
        <name>WPT.1935</name>
      </trkpt>
      <trkpt lat="17.050329660" lon="-96.467901850">
        <ele>2530.000</ele>
        <time>2017-01-13T21:53:03Z</time>
        <name>WPT.1936</name>
      </trkpt>
      <trkpt lat="17.050233810" lon="-96.467899210">
        <ele>2530.000</ele>
        <time>2017-01-13T21:53:04Z</time>
        <name>WPT.1937</name>
      </trkpt>
      <trkpt lat="17.050109960" lon="-96.467879250">
        <ele>2530.000</ele>
        <time>2017-01-13T21:53:05Z</time>
        <name>WPT.1938</name>
      </trkpt>
      <trkpt lat="17.050018930" lon="-96.467738000">
        <ele>2531.000</ele>
        <time>2017-01-13T21:53:06Z</time>
        <name>WPT.1939</name>
      </trkpt>
      <trkpt lat="17.049960810" lon="-96.467759630">
        <ele>2528.000</ele>
        <time>2017-01-13T21:53:07Z</time>
        <name>WPT.1940</name>
      </trkpt>
      <trkpt lat="17.049910550" lon="-96.467666530">
        <ele>2525.000</ele>
        <time>2017-01-13T21:53:08Z</time>
        <name>WPT.1941</name>
      </trkpt>
      <trkpt lat="17.049843700" lon="-96.467595510">
        <ele>2524.000</ele>
        <time>2017-01-13T21:53:09Z</time>
        <name>WPT.1942</name>
      </trkpt>
      <trkpt lat="17.049790200" lon="-96.467524890">
        <ele>2524.000</ele>
        <time>2017-01-13T21:53:10Z</time>
        <name>WPT.1943</name>
      </trkpt>
      <trkpt lat="17.049748090" lon="-96.467529960">
        <ele>2523.000</ele>
        <time>2017-01-13T21:53:11Z</time>
        <name>WPT.1944</name>
      </trkpt>
      <trkpt lat="17.049692930" lon="-96.467540270">
        <ele>2523.000</ele>
        <time>2017-01-13T21:53:12Z</time>
        <name>WPT.1945</name>
      </trkpt>
      <trkpt lat="17.049628840" lon="-96.467590350">
        <ele>2523.000</ele>
        <time>2017-01-13T21:53:13Z</time>
        <name>WPT.1946</name>
      </trkpt>
      <trkpt lat="17.049532650" lon="-96.467667290">
        <ele>2522.000</ele>
        <time>2017-01-13T21:53:14Z</time>
        <name>WPT.1947</name>
      </trkpt>
      <trkpt lat="17.049439180" lon="-96.467780190">
        <ele>2521.000</ele>
        <time>2017-01-13T21:53:15Z</time>
        <name>WPT.1948</name>
      </trkpt>
      <trkpt lat="17.049352030" lon="-96.467859320">
        <ele>2521.000</ele>
        <time>2017-01-13T21:53:16Z</time>
        <name>WPT.1949</name>
      </trkpt>
      <trkpt lat="17.049323640" lon="-96.467972680">
        <ele>2522.000</ele>
        <time>2017-01-13T21:53:17Z</time>
        <name>WPT.1950</name>
      </trkpt>
      <trkpt lat="17.049214130" lon="-96.468036360">
        <ele>2519.000</ele>
        <time>2017-01-13T21:53:18Z</time>
        <name>WPT.1951</name>
      </trkpt>
      <trkpt lat="17.049125810" lon="-96.468134050">
        <ele>2519.000</ele>
        <time>2017-01-13T21:53:19Z</time>
        <name>WPT.1952</name>
      </trkpt>
      <trkpt lat="17.049043140" lon="-96.468208170">
        <ele>2519.000</ele>
        <time>2017-01-13T21:53:20Z</time>
        <name>WPT.1953</name>
      </trkpt>
      <trkpt lat="17.048954680" lon="-96.468319100">
        <ele>2518.000</ele>
        <time>2017-01-13T21:53:21Z</time>
        <name>WPT.1954</name>
      </trkpt>
      <trkpt lat="17.048863850" lon="-96.468416580">
        <ele>2518.000</ele>
        <time>2017-01-13T21:53:22Z</time>
        <name>WPT.1955</name>
      </trkpt>
      <trkpt lat="17.048761920" lon="-96.468484230">
        <ele>2518.000</ele>
        <time>2017-01-13T21:53:23Z</time>
        <name>WPT.1956</name>
      </trkpt>
      <trkpt lat="17.048643680" lon="-96.468558520">
        <ele>2517.000</ele>
        <time>2017-01-13T21:53:24Z</time>
        <name>WPT.1957</name>
      </trkpt>
      <trkpt lat="17.048527760" lon="-96.468624220">
        <ele>2517.000</ele>
        <time>2017-01-13T21:53:25Z</time>
        <name>WPT.1958</name>
      </trkpt>
      <trkpt lat="17.048402180" lon="-96.468677650">
        <ele>2516.000</ele>
        <time>2017-01-13T21:53:26Z</time>
        <name>WPT.1959</name>
      </trkpt>
      <trkpt lat="17.048290510" lon="-96.468707590">
        <ele>2516.000</ele>
        <time>2017-01-13T21:53:27Z</time>
        <name>WPT.1960</name>
      </trkpt>
      <trkpt lat="17.047811830" lon="-96.468572980">
        <ele>2514.000</ele>
        <time>2017-01-13T21:53:32Z</time>
        <name>WPT.1961</name>
      </trkpt>
      <trkpt lat="17.047759170" lon="-96.468330940">
        <ele>2506.000</ele>
        <time>2017-01-13T21:53:33Z</time>
        <name>WPT.1962</name>
      </trkpt>
      <trkpt lat="17.047740540" lon="-96.468180670">
        <ele>2500.000</ele>
        <time>2017-01-13T21:53:34Z</time>
        <name>WPT.1963</name>
      </trkpt>
      <trkpt lat="17.047724990" lon="-96.468049100">
        <ele>2496.000</ele>
        <time>2017-01-13T21:53:35Z</time>
        <name>WPT.1964</name>
      </trkpt>
      <trkpt lat="17.047667010" lon="-96.467951730">
        <ele>2495.000</ele>
        <time>2017-01-13T21:53:36Z</time>
        <name>WPT.1965</name>
      </trkpt>
      <trkpt lat="17.047575930" lon="-96.467797690">
        <ele>2495.000</ele>
        <time>2017-01-13T21:53:37Z</time>
        <name>WPT.1966</name>
      </trkpt>
      <trkpt lat="17.047562950" lon="-96.467719360">
        <ele>2495.000</ele>
        <time>2017-01-13T21:53:38Z</time>
        <name>WPT.1967</name>
      </trkpt>
      <trkpt lat="17.047481850" lon="-96.467637010">
        <ele>2495.000</ele>
        <time>2017-01-13T21:53:39Z</time>
        <name>WPT.1968</name>
      </trkpt>
      <trkpt lat="17.047371590" lon="-96.467605240">
        <ele>2496.000</ele>
        <time>2017-01-13T21:53:40Z</time>
        <name>WPT.1969</name>
      </trkpt>
      <trkpt lat="17.047332260" lon="-96.467584320">
        <ele>2494.000</ele>
        <time>2017-01-13T21:53:41Z</time>
        <name>WPT.1970</name>
      </trkpt>
      <trkpt lat="17.047256780" lon="-96.467517230">
        <ele>2493.000</ele>
        <time>2017-01-13T21:53:42Z</time>
        <name>WPT.1971</name>
      </trkpt>
      <trkpt lat="17.047168120" lon="-96.467420010">
        <ele>2493.000</ele>
        <time>2017-01-13T21:53:43Z</time>
        <name>WPT.1972</name>
      </trkpt>
      <trkpt lat="17.046924210" lon="-96.467466120">
        <ele>2493.000</ele>
        <time>2017-01-13T21:53:44Z</time>
        <name>WPT.1973</name>
      </trkpt>
      <trkpt lat="17.046794350" lon="-96.467474100">
        <ele>2493.000</ele>
        <time>2017-01-13T21:53:45Z</time>
        <name>WPT.1974</name>
      </trkpt>
      <trkpt lat="17.046643890" lon="-96.467464060">
        <ele>2493.000</ele>
        <time>2017-01-13T21:53:46Z</time>
        <name>WPT.1975</name>
      </trkpt>
      <trkpt lat="17.046346490" lon="-96.468167480">
        <ele>2485.000</ele>
        <time>2017-01-13T21:53:49Z</time>
        <name>WPT.1976</name>
      </trkpt>
      <trkpt lat="17.046408420" lon="-96.468311860">
        <ele>2485.000</ele>
        <time>2017-01-13T21:53:50Z</time>
        <name>WPT.1977</name>
      </trkpt>
      <trkpt lat="17.046371730" lon="-96.468444060">
        <ele>2485.000</ele>
        <time>2017-01-13T21:53:51Z</time>
        <name>WPT.1978</name>
      </trkpt>
      <trkpt lat="17.046175130" lon="-96.468648890">
        <ele>2486.000</ele>
        <time>2017-01-13T21:53:53Z</time>
        <name>WPT.1979</name>
      </trkpt>
      <trkpt lat="17.046085540" lon="-96.468738000">
        <ele>2486.000</ele>
        <time>2017-01-13T21:53:54Z</time>
        <name>WPT.1980</name>
      </trkpt>
      <trkpt lat="17.046013810" lon="-96.468823970">
        <ele>2486.000</ele>
        <time>2017-01-13T21:53:55Z</time>
        <name>WPT.1981</name>
      </trkpt>
      <trkpt lat="17.045850820" lon="-96.468843370">
        <ele>2486.000</ele>
        <time>2017-01-13T21:53:56Z</time>
        <name>WPT.1982</name>
      </trkpt>
      <trkpt lat="17.045773800" lon="-96.468871450">
        <ele>2485.000</ele>
        <time>2017-01-13T21:53:57Z</time>
        <name>WPT.1983</name>
      </trkpt>
      <trkpt lat="17.045683980" lon="-96.468948130">
        <ele>2485.000</ele>
        <time>2017-01-13T21:53:58Z</time>
        <name>WPT.1984</name>
      </trkpt>
      <trkpt lat="17.045539940" lon="-96.468916300">
        <ele>2484.000</ele>
        <time>2017-01-13T21:53:59Z</time>
        <name>WPT.1985</name>
      </trkpt>
      <trkpt lat="17.045435920" lon="-96.468954070">
        <ele>2484.000</ele>
        <time>2017-01-13T21:54:00Z</time>
        <name>WPT.1986</name>
      </trkpt>
      <trkpt lat="17.045351910" lon="-96.469025430">
        <ele>2484.000</ele>
        <time>2017-01-13T21:54:01Z</time>
        <name>WPT.1987</name>
      </trkpt>
      <trkpt lat="17.045374800" lon="-96.469062520">
        <ele>2478.000</ele>
        <time>2017-01-13T21:54:02Z</time>
        <name>WPT.1988</name>
      </trkpt>
      <trkpt lat="17.045374600" lon="-96.469119850">
        <ele>2467.000</ele>
        <time>2017-01-13T21:54:04Z</time>
        <name>WPT.1989</name>
      </trkpt>
      <trkpt lat="17.045396130" lon="-96.469189670">
        <ele>2463.000</ele>
        <time>2017-01-13T21:54:05Z</time>
        <name>WPT.1990</name>
      </trkpt>
      <trkpt lat="17.045336830" lon="-96.469296470">
        <ele>2452.000</ele>
        <time>2017-01-13T21:54:06Z</time>
        <name>WPT.1991</name>
      </trkpt>
      <trkpt lat="17.045278740" lon="-96.469395780">
        <ele>2443.000</ele>
        <time>2017-01-13T21:54:07Z</time>
        <name>WPT.1992</name>
      </trkpt>
      <trkpt lat="17.045227940" lon="-96.469513090">
        <ele>2436.000</ele>
        <time>2017-01-13T21:54:08Z</time>
        <name>WPT.1993</name>
      </trkpt>
      <trkpt lat="17.045151470" lon="-96.469612960">
        <ele>2431.000</ele>
        <time>2017-01-13T21:54:09Z</time>
        <name>WPT.1994</name>
      </trkpt>
      <trkpt lat="17.045077440" lon="-96.469701360">
        <ele>2426.000</ele>
        <time>2017-01-13T21:54:10Z</time>
        <name>WPT.1995</name>
      </trkpt>
      <trkpt lat="17.045012290" lon="-96.469796330">
        <ele>2425.000</ele>
        <time>2017-01-13T21:54:11Z</time>
        <name>WPT.1996</name>
      </trkpt>
      <trkpt lat="17.044891730" lon="-96.469885400">
        <ele>2424.000</ele>
        <time>2017-01-13T21:54:12Z</time>
        <name>WPT.1997</name>
      </trkpt>
      <trkpt lat="17.044794410" lon="-96.469987070">
        <ele>2424.000</ele>
        <time>2017-01-13T21:54:13Z</time>
        <name>WPT.1998</name>
      </trkpt>
      <trkpt lat="17.044693780" lon="-96.470071290">
        <ele>2422.000</ele>
        <time>2017-01-13T21:54:14Z</time>
        <name>WPT.1999</name>
      </trkpt>
      <trkpt lat="17.044569630" lon="-96.470169360">
        <ele>2421.000</ele>
        <time>2017-01-13T21:54:15Z</time>
        <name>WPT.2000</name>
      </trkpt>
      <trkpt lat="17.044454400" lon="-96.470259580">
        <ele>2419.000</ele>
        <time>2017-01-13T21:54:16Z</time>
        <name>WPT.2001</name>
      </trkpt>
      <trkpt lat="17.044341080" lon="-96.470289140">
        <ele>2419.000</ele>
        <time>2017-01-13T21:54:17Z</time>
        <name>WPT.2002</name>
      </trkpt>
      <trkpt lat="17.044248650" lon="-96.470323610">
        <ele>2416.000</ele>
        <time>2017-01-13T21:54:18Z</time>
        <name>WPT.2003</name>
      </trkpt>
      <trkpt lat="17.044167630" lon="-96.470375510">
        <ele>2414.000</ele>
        <time>2017-01-13T21:54:19Z</time>
        <name>WPT.2004</name>
      </trkpt>
      <trkpt lat="17.044096940" lon="-96.470407120">
        <ele>2413.000</ele>
        <time>2017-01-13T21:54:20Z</time>
        <name>WPT.2005</name>
      </trkpt>
      <trkpt lat="17.044029640" lon="-96.470446190">
        <ele>2410.000</ele>
        <time>2017-01-13T21:54:21Z</time>
        <name>WPT.2006</name>
      </trkpt>
      <trkpt lat="17.043968030" lon="-96.470470760">
        <ele>2409.000</ele>
        <time>2017-01-13T21:54:22Z</time>
        <name>WPT.2007</name>
      </trkpt>
      <trkpt lat="17.043912990" lon="-96.470499230">
        <ele>2408.000</ele>
        <time>2017-01-13T21:54:23Z</time>
        <name>WPT.2008</name>
      </trkpt>
      <trkpt lat="17.043845130" lon="-96.470523850">
        <ele>2407.000</ele>
        <time>2017-01-13T21:54:24Z</time>
        <name>WPT.2009</name>
      </trkpt>
      <trkpt lat="17.043759460" lon="-96.470534080">
        <ele>2407.000</ele>
        <time>2017-01-13T21:54:25Z</time>
        <name>WPT.2010</name>
      </trkpt>
      <trkpt lat="17.043667580" lon="-96.470527780">
        <ele>2406.000</ele>
        <time>2017-01-13T21:54:26Z</time>
        <name>WPT.2011</name>
      </trkpt>
      <trkpt lat="17.043563420" lon="-96.470553600">
        <ele>2405.000</ele>
        <time>2017-01-13T21:54:27Z</time>
        <name>WPT.2012</name>
      </trkpt>
      <trkpt lat="17.043466460" lon="-96.470529510">
        <ele>2404.000</ele>
        <time>2017-01-13T21:54:28Z</time>
        <name>WPT.2013</name>
      </trkpt>
      <trkpt lat="17.043327420" lon="-96.470512010">
        <ele>2404.000</ele>
        <time>2017-01-13T21:54:29Z</time>
        <name>WPT.2014</name>
      </trkpt>
      <trkpt lat="17.043198650" lon="-96.470499600">
        <ele>2403.000</ele>
        <time>2017-01-13T21:54:30Z</time>
        <name>WPT.2015</name>
      </trkpt>
      <trkpt lat="17.043070790" lon="-96.470474420">
        <ele>2402.000</ele>
        <time>2017-01-13T21:54:31Z</time>
        <name>WPT.2016</name>
      </trkpt>
      <trkpt lat="17.042955160" lon="-96.470456250">
        <ele>2400.000</ele>
        <time>2017-01-13T21:54:32Z</time>
        <name>WPT.2017</name>
      </trkpt>
      <trkpt lat="17.042846030" lon="-96.470433710">
        <ele>2398.000</ele>
        <time>2017-01-13T21:54:33Z</time>
        <name>WPT.2018</name>
      </trkpt>
      <trkpt lat="17.042746850" lon="-96.470428080">
        <ele>2395.000</ele>
        <time>2017-01-13T21:54:34Z</time>
        <name>WPT.2019</name>
      </trkpt>
      <trkpt lat="17.042615530" lon="-96.470460220">
        <ele>2390.000</ele>
        <time>2017-01-13T21:54:35Z</time>
        <name>WPT.2020</name>
      </trkpt>
      <trkpt lat="17.042494070" lon="-96.470487580">
        <ele>2388.000</ele>
        <time>2017-01-13T21:54:36Z</time>
        <name>WPT.2021</name>
      </trkpt>
      <trkpt lat="17.042373960" lon="-96.470525920">
        <ele>2386.000</ele>
        <time>2017-01-13T21:54:37Z</time>
        <name>WPT.2022</name>
      </trkpt>
      <trkpt lat="17.042244290" lon="-96.470579860">
        <ele>2385.000</ele>
        <time>2017-01-13T21:54:38Z</time>
        <name>WPT.2023</name>
      </trkpt>
      <trkpt lat="17.042115930" lon="-96.470634050">
        <ele>2384.000</ele>
        <time>2017-01-13T21:54:39Z</time>
        <name>WPT.2024</name>
      </trkpt>
      <trkpt lat="17.041991640" lon="-96.470706680">
        <ele>2382.000</ele>
        <time>2017-01-13T21:54:40Z</time>
        <name>WPT.2025</name>
      </trkpt>
      <trkpt lat="17.041861570" lon="-96.470774470">
        <ele>2379.000</ele>
        <time>2017-01-13T21:54:41Z</time>
        <name>WPT.2026</name>
      </trkpt>
      <trkpt lat="17.041724090" lon="-96.470828050">
        <ele>2379.000</ele>
        <time>2017-01-13T21:54:42Z</time>
        <name>WPT.2027</name>
      </trkpt>
      <trkpt lat="17.041597440" lon="-96.470897700">
        <ele>2379.000</ele>
        <time>2017-01-13T21:54:43Z</time>
        <name>WPT.2028</name>
      </trkpt>
      <trkpt lat="17.041467570" lon="-96.470967600">
        <ele>2378.000</ele>
        <time>2017-01-13T21:54:44Z</time>
        <name>WPT.2029</name>
      </trkpt>
      <trkpt lat="17.041349700" lon="-96.471062750">
        <ele>2378.000</ele>
        <time>2017-01-13T21:54:45Z</time>
        <name>WPT.2030</name>
      </trkpt>
      <trkpt lat="17.041207100" lon="-96.471111210">
        <ele>2378.000</ele>
        <time>2017-01-13T21:54:46Z</time>
        <name>WPT.2031</name>
      </trkpt>
      <trkpt lat="17.041085450" lon="-96.471187480">
        <ele>2377.000</ele>
        <time>2017-01-13T21:54:47Z</time>
        <name>WPT.2032</name>
      </trkpt>
      <trkpt lat="17.040962760" lon="-96.471253760">
        <ele>2375.000</ele>
        <time>2017-01-13T21:54:48Z</time>
        <name>WPT.2033</name>
      </trkpt>
      <trkpt lat="17.040836030" lon="-96.471316190">
        <ele>2373.000</ele>
        <time>2017-01-13T21:54:49Z</time>
        <name>WPT.2034</name>
      </trkpt>
      <trkpt lat="17.040728980" lon="-96.471374280">
        <ele>2371.000</ele>
        <time>2017-01-13T21:54:50Z</time>
        <name>WPT.2035</name>
      </trkpt>
      <trkpt lat="17.040617020" lon="-96.471414690">
        <ele>2369.000</ele>
        <time>2017-01-13T21:54:51Z</time>
        <name>WPT.2036</name>
      </trkpt>
      <trkpt lat="17.040495150" lon="-96.471447350">
        <ele>2369.000</ele>
        <time>2017-01-13T21:54:52Z</time>
        <name>WPT.2037</name>
      </trkpt>
      <trkpt lat="17.040366500" lon="-96.471484550">
        <ele>2368.000</ele>
        <time>2017-01-13T21:54:53Z</time>
        <name>WPT.2038</name>
      </trkpt>
      <trkpt lat="17.040236660" lon="-96.471505520">
        <ele>2368.000</ele>
        <time>2017-01-13T21:54:54Z</time>
        <name>WPT.2039</name>
      </trkpt>
      <trkpt lat="17.040082340" lon="-96.471545750">
        <ele>2369.000</ele>
        <time>2017-01-13T21:54:55Z</time>
        <name>WPT.2040</name>
      </trkpt>
      <trkpt lat="17.039957310" lon="-96.471511070">
        <ele>2366.000</ele>
        <time>2017-01-13T21:54:56Z</time>
        <name>WPT.2041</name>
      </trkpt>
      <trkpt lat="17.039809960" lon="-96.471494950">
        <ele>2365.000</ele>
        <time>2017-01-13T21:54:57Z</time>
        <name>WPT.2042</name>
      </trkpt>
      <trkpt lat="17.039668830" lon="-96.471480600">
        <ele>2364.000</ele>
        <time>2017-01-13T21:54:58Z</time>
        <name>WPT.2043</name>
      </trkpt>
      <trkpt lat="17.039522170" lon="-96.471476570">
        <ele>2362.000</ele>
        <time>2017-01-13T21:54:59Z</time>
        <name>WPT.2044</name>
      </trkpt>
      <trkpt lat="17.039370950" lon="-96.471466600">
        <ele>2360.000</ele>
        <time>2017-01-13T21:55:00Z</time>
        <name>WPT.2045</name>
      </trkpt>
      <trkpt lat="17.039220340" lon="-96.471456090">
        <ele>2358.000</ele>
        <time>2017-01-13T21:55:01Z</time>
        <name>WPT.2046</name>
      </trkpt>
      <trkpt lat="17.039072700" lon="-96.471440300">
        <ele>2357.000</ele>
        <time>2017-01-13T21:55:02Z</time>
        <name>WPT.2047</name>
      </trkpt>
      <trkpt lat="17.038932250" lon="-96.471436580">
        <ele>2355.000</ele>
        <time>2017-01-13T21:55:03Z</time>
        <name>WPT.2048</name>
      </trkpt>
      <trkpt lat="17.038796360" lon="-96.471421830">
        <ele>2355.000</ele>
        <time>2017-01-13T21:55:04Z</time>
        <name>WPT.2049</name>
      </trkpt>
      <trkpt lat="17.038649800" lon="-96.471403830">
        <ele>2353.000</ele>
        <time>2017-01-13T21:55:05Z</time>
        <name>WPT.2050</name>
      </trkpt>
      <trkpt lat="17.038516400" lon="-96.471355990">
        <ele>2352.000</ele>
        <time>2017-01-13T21:55:06Z</time>
        <name>WPT.2051</name>
      </trkpt>
      <trkpt lat="17.038383990" lon="-96.471328700">
        <ele>2350.000</ele>
        <time>2017-01-13T21:55:07Z</time>
        <name>WPT.2052</name>
      </trkpt>
      <trkpt lat="17.038257320" lon="-96.471298660">
        <ele>2349.000</ele>
        <time>2017-01-13T21:55:08Z</time>
        <name>WPT.2053</name>
      </trkpt>
      <trkpt lat="17.038137300" lon="-96.471275720">
        <ele>2348.000</ele>
        <time>2017-01-13T21:55:09Z</time>
        <name>WPT.2054</name>
      </trkpt>
      <trkpt lat="17.038016000" lon="-96.471263200">
        <ele>2346.000</ele>
        <time>2017-01-13T21:55:10Z</time>
        <name>WPT.2055</name>
      </trkpt>
      <trkpt lat="17.037899890" lon="-96.471245470">
        <ele>2346.000</ele>
        <time>2017-01-13T21:55:11Z</time>
        <name>WPT.2056</name>
      </trkpt>
      <trkpt lat="17.037783880" lon="-96.471229380">
        <ele>2345.000</ele>
        <time>2017-01-13T21:55:12Z</time>
        <name>WPT.2057</name>
      </trkpt>
      <trkpt lat="17.037625830" lon="-96.471282430">
        <ele>2345.000</ele>
        <time>2017-01-13T21:55:13Z</time>
        <name>WPT.2058</name>
      </trkpt>
      <trkpt lat="17.037497580" lon="-96.471311760">
        <ele>2343.000</ele>
        <time>2017-01-13T21:55:14Z</time>
        <name>WPT.2059</name>
      </trkpt>
      <trkpt lat="17.037358410" lon="-96.471361170">
        <ele>2342.000</ele>
        <time>2017-01-13T21:55:15Z</time>
        <name>WPT.2060</name>
      </trkpt>
      <trkpt lat="17.037237390" lon="-96.471394730">
        <ele>2342.000</ele>
        <time>2017-01-13T21:55:16Z</time>
        <name>WPT.2061</name>
      </trkpt>
      <trkpt lat="17.037114820" lon="-96.471429660">
        <ele>2341.000</ele>
        <time>2017-01-13T21:55:17Z</time>
        <name>WPT.2062</name>
      </trkpt>
      <trkpt lat="17.036996670" lon="-96.471472990">
        <ele>2340.000</ele>
        <time>2017-01-13T21:55:18Z</time>
        <name>WPT.2063</name>
      </trkpt>
      <trkpt lat="17.036869650" lon="-96.471512020">
        <ele>2339.000</ele>
        <time>2017-01-13T21:55:19Z</time>
        <name>WPT.2064</name>
      </trkpt>
      <trkpt lat="17.036747260" lon="-96.471566900">
        <ele>2339.000</ele>
        <time>2017-01-13T21:55:20Z</time>
        <name>WPT.2065</name>
      </trkpt>
      <trkpt lat="17.036652220" lon="-96.471685600">
        <ele>2336.000</ele>
        <time>2017-01-13T21:55:21Z</time>
        <name>WPT.2066</name>
      </trkpt>
      <trkpt lat="17.036522130" lon="-96.471745180">
        <ele>2335.000</ele>
        <time>2017-01-13T21:55:22Z</time>
        <name>WPT.2067</name>
      </trkpt>
      <trkpt lat="17.036401660" lon="-96.471811100">
        <ele>2334.000</ele>
        <time>2017-01-13T21:55:23Z</time>
        <name>WPT.2068</name>
      </trkpt>
      <trkpt lat="17.036296050" lon="-96.471867340">
        <ele>2334.000</ele>
        <time>2017-01-13T21:55:24Z</time>
        <name>WPT.2069</name>
      </trkpt>
      <trkpt lat="17.036179680" lon="-96.471934070">
        <ele>2334.000</ele>
        <time>2017-01-13T21:55:25Z</time>
        <name>WPT.2070</name>
      </trkpt>
      <trkpt lat="17.036063100" lon="-96.471966590">
        <ele>2334.000</ele>
        <time>2017-01-13T21:55:26Z</time>
        <name>WPT.2071</name>
      </trkpt>
      <trkpt lat="17.035946740" lon="-96.471999950">
        <ele>2334.000</ele>
        <time>2017-01-13T21:55:27Z</time>
        <name>WPT.2072</name>
      </trkpt>
      <trkpt lat="17.035843100" lon="-96.471988440">
        <ele>2331.000</ele>
        <time>2017-01-13T21:55:28Z</time>
        <name>WPT.2073</name>
      </trkpt>
      <trkpt lat="17.035737050" lon="-96.471955960">
        <ele>2328.000</ele>
        <time>2017-01-13T21:55:29Z</time>
        <name>WPT.2074</name>
      </trkpt>
      <trkpt lat="17.035634390" lon="-96.471904920">
        <ele>2326.000</ele>
        <time>2017-01-13T21:55:30Z</time>
        <name>WPT.2075</name>
      </trkpt>
      <trkpt lat="17.035525590" lon="-96.471836100">
        <ele>2326.000</ele>
        <time>2017-01-13T21:55:31Z</time>
        <name>WPT.2076</name>
      </trkpt>
      <trkpt lat="17.035450080" lon="-96.471767780">
        <ele>2326.000</ele>
        <time>2017-01-13T21:55:32Z</time>
        <name>WPT.2077</name>
      </trkpt>
      <trkpt lat="17.035367250" lon="-96.471687620">
        <ele>2327.000</ele>
        <time>2017-01-13T21:55:33Z</time>
        <name>WPT.2078</name>
      </trkpt>
      <trkpt lat="17.035293890" lon="-96.471606210">
        <ele>2326.000</ele>
        <time>2017-01-13T21:55:34Z</time>
        <name>WPT.2079</name>
      </trkpt>
      <trkpt lat="17.035228190" lon="-96.471532830">
        <ele>2326.000</ele>
        <time>2017-01-13T21:55:35Z</time>
        <name>WPT.2080</name>
      </trkpt>
      <trkpt lat="17.035173140" lon="-96.471447460">
        <ele>2326.000</ele>
        <time>2017-01-13T21:55:36Z</time>
        <name>WPT.2081</name>
      </trkpt>
      <trkpt lat="17.035146600" lon="-96.471323320">
        <ele>2324.000</ele>
        <time>2017-01-13T21:55:37Z</time>
        <name>WPT.2082</name>
      </trkpt>
      <trkpt lat="17.035129900" lon="-96.471211270">
        <ele>2321.000</ele>
        <time>2017-01-13T21:55:38Z</time>
        <name>WPT.2083</name>
      </trkpt>
      <trkpt lat="17.035109790" lon="-96.471112770">
        <ele>2318.000</ele>
        <time>2017-01-13T21:55:39Z</time>
        <name>WPT.2084</name>
      </trkpt>
      <trkpt lat="17.035082130" lon="-96.471023030">
        <ele>2318.000</ele>
        <time>2017-01-13T21:55:40Z</time>
        <name>WPT.2085</name>
      </trkpt>
      <trkpt lat="17.035074510" lon="-96.470911080">
        <ele>2316.000</ele>
        <time>2017-01-13T21:55:41Z</time>
        <name>WPT.2086</name>
      </trkpt>
      <trkpt lat="17.035017010" lon="-96.470853220">
        <ele>2315.000</ele>
        <time>2017-01-13T21:55:42Z</time>
        <name>WPT.2087</name>
      </trkpt>
      <trkpt lat="17.034955060" lon="-96.470798790">
        <ele>2314.000</ele>
        <time>2017-01-13T21:55:43Z</time>
        <name>WPT.2088</name>
      </trkpt>
      <trkpt lat="17.034927230" lon="-96.470747590">
        <ele>2313.000</ele>
        <time>2017-01-13T21:55:44Z</time>
        <name>WPT.2089</name>
      </trkpt>
      <trkpt lat="17.034801970" lon="-96.470820520">
        <ele>2312.000</ele>
        <time>2017-01-13T21:55:45Z</time>
        <name>WPT.2090</name>
      </trkpt>
      <trkpt lat="17.034706120" lon="-96.470840500">
        <ele>2311.000</ele>
        <time>2017-01-13T21:55:46Z</time>
        <name>WPT.2091</name>
      </trkpt>
      <trkpt lat="17.034645160" lon="-96.470871610">
        <ele>2309.000</ele>
        <time>2017-01-13T21:55:47Z</time>
        <name>WPT.2092</name>
      </trkpt>
      <trkpt lat="17.034581770" lon="-96.470886770">
        <ele>2309.000</ele>
        <time>2017-01-13T21:55:48Z</time>
        <name>WPT.2093</name>
      </trkpt>
      <trkpt lat="17.034557850" lon="-96.471005920">
        <ele>2310.000</ele>
        <time>2017-01-13T21:55:49Z</time>
        <name>WPT.2094</name>
      </trkpt>
      <trkpt lat="17.034555370" lon="-96.471117010">
        <ele>2309.000</ele>
        <time>2017-01-13T21:55:50Z</time>
        <name>WPT.2095</name>
      </trkpt>
      <trkpt lat="17.034570730" lon="-96.471294150">
        <ele>2308.000</ele>
        <time>2017-01-13T21:55:51Z</time>
        <name>WPT.2096</name>
      </trkpt>
      <trkpt lat="17.034597700" lon="-96.471460010">
        <ele>2307.000</ele>
        <time>2017-01-13T21:55:52Z</time>
        <name>WPT.2097</name>
      </trkpt>
      <trkpt lat="17.034582500" lon="-96.471590500">
        <ele>2307.000</ele>
        <time>2017-01-13T21:55:53Z</time>
        <name>WPT.2098</name>
      </trkpt>
      <trkpt lat="17.034551470" lon="-96.471722900">
        <ele>2307.000</ele>
        <time>2017-01-13T21:55:54Z</time>
        <name>WPT.2099</name>
      </trkpt>
      <trkpt lat="17.034514840" lon="-96.471848720">
        <ele>2306.000</ele>
        <time>2017-01-13T21:55:55Z</time>
        <name>WPT.2100</name>
      </trkpt>
      <trkpt lat="17.034454540" lon="-96.471954320">
        <ele>2306.000</ele>
        <time>2017-01-13T21:55:56Z</time>
        <name>WPT.2101</name>
      </trkpt>
      <trkpt lat="17.034357530" lon="-96.472036380">
        <ele>2304.000</ele>
        <time>2017-01-13T21:55:57Z</time>
        <name>WPT.2102</name>
      </trkpt>
      <trkpt lat="17.034251390" lon="-96.472130460">
        <ele>2304.000</ele>
        <time>2017-01-13T21:55:58Z</time>
        <name>WPT.2103</name>
      </trkpt>
      <trkpt lat="17.034118180" lon="-96.472152150">
        <ele>2303.000</ele>
        <time>2017-01-13T21:55:59Z</time>
        <name>WPT.2104</name>
      </trkpt>
      <trkpt lat="17.034010000" lon="-96.472200400">
        <ele>2303.000</ele>
        <time>2017-01-13T21:56:00Z</time>
        <name>WPT.2105</name>
      </trkpt>
      <trkpt lat="17.033905760" lon="-96.472238620">
        <ele>2302.000</ele>
        <time>2017-01-13T21:56:01Z</time>
        <name>WPT.2106</name>
      </trkpt>
      <trkpt lat="17.033760240" lon="-96.472283580">
        <ele>2303.000</ele>
        <time>2017-01-13T21:56:02Z</time>
        <name>WPT.2107</name>
      </trkpt>
      <trkpt lat="17.033647940" lon="-96.472336840">
        <ele>2304.000</ele>
        <time>2017-01-13T21:56:03Z</time>
        <name>WPT.2108</name>
      </trkpt>
      <trkpt lat="17.033523130" lon="-96.472352120">
        <ele>2304.000</ele>
        <time>2017-01-13T21:56:04Z</time>
        <name>WPT.2109</name>
      </trkpt>
      <trkpt lat="17.033406380" lon="-96.472376190">
        <ele>2303.000</ele>
        <time>2017-01-13T21:56:05Z</time>
        <name>WPT.2110</name>
      </trkpt>
      <trkpt lat="17.033255310" lon="-96.472357680">
        <ele>2303.000</ele>
        <time>2017-01-13T21:56:06Z</time>
        <name>WPT.2111</name>
      </trkpt>
      <trkpt lat="17.033137020" lon="-96.472306700">
        <ele>2300.000</ele>
        <time>2017-01-13T21:56:07Z</time>
        <name>WPT.2112</name>
      </trkpt>
      <trkpt lat="17.033004920" lon="-96.472287390">
        <ele>2298.000</ele>
        <time>2017-01-13T21:56:08Z</time>
        <name>WPT.2113</name>
      </trkpt>
      <trkpt lat="17.032876220" lon="-96.472270010">
        <ele>2296.000</ele>
        <time>2017-01-13T21:56:09Z</time>
        <name>WPT.2114</name>
      </trkpt>
      <trkpt lat="17.032766360" lon="-96.472229220">
        <ele>2292.000</ele>
        <time>2017-01-13T21:56:10Z</time>
        <name>WPT.2115</name>
      </trkpt>
      <trkpt lat="17.032617750" lon="-96.472249530">
        <ele>2289.000</ele>
        <time>2017-01-13T21:56:11Z</time>
        <name>WPT.2116</name>
      </trkpt>
      <trkpt lat="17.032494020" lon="-96.472246970">
        <ele>2287.000</ele>
        <time>2017-01-13T21:56:12Z</time>
        <name>WPT.2117</name>
      </trkpt>
      <trkpt lat="17.032363170" lon="-96.472251410">
        <ele>2285.000</ele>
        <time>2017-01-13T21:56:13Z</time>
        <name>WPT.2118</name>
      </trkpt>
      <trkpt lat="17.032247180" lon="-96.472225290">
        <ele>2283.000</ele>
        <time>2017-01-13T21:56:14Z</time>
        <name>WPT.2119</name>
      </trkpt>
      <trkpt lat="17.032129010" lon="-96.472185720">
        <ele>2282.000</ele>
        <time>2017-01-13T21:56:15Z</time>
        <name>WPT.2120</name>
      </trkpt>
      <trkpt lat="17.032018210" lon="-96.472144240">
        <ele>2279.000</ele>
        <time>2017-01-13T21:56:16Z</time>
        <name>WPT.2121</name>
      </trkpt>
      <trkpt lat="17.031901770" lon="-96.472095490">
        <ele>2277.000</ele>
        <time>2017-01-13T21:56:17Z</time>
        <name>WPT.2122</name>
      </trkpt>
      <trkpt lat="17.031796990" lon="-96.472019600">
        <ele>2273.000</ele>
        <time>2017-01-13T21:56:18Z</time>
        <name>WPT.2123</name>
      </trkpt>
      <trkpt lat="17.031679380" lon="-96.471944980">
        <ele>2273.000</ele>
        <time>2017-01-13T21:56:19Z</time>
        <name>WPT.2124</name>
      </trkpt>
      <trkpt lat="17.031551220" lon="-96.471864030">
        <ele>2271.000</ele>
        <time>2017-01-13T21:56:20Z</time>
        <name>WPT.2125</name>
      </trkpt>
      <trkpt lat="17.031427180" lon="-96.471795020">
        <ele>2270.000</ele>
        <time>2017-01-13T21:56:21Z</time>
        <name>WPT.2126</name>
      </trkpt>
      <trkpt lat="17.031313100" lon="-96.471727010">
        <ele>2268.000</ele>
        <time>2017-01-13T21:56:22Z</time>
        <name>WPT.2127</name>
      </trkpt>
      <trkpt lat="17.031182880" lon="-96.471664140">
        <ele>2267.000</ele>
        <time>2017-01-13T21:56:23Z</time>
        <name>WPT.2128</name>
      </trkpt>
      <trkpt lat="17.031072650" lon="-96.471613700">
        <ele>2263.000</ele>
        <time>2017-01-13T21:56:24Z</time>
        <name>WPT.2129</name>
      </trkpt>
      <trkpt lat="17.030956170" lon="-96.471561800">
        <ele>2261.000</ele>
        <time>2017-01-13T21:56:25Z</time>
        <name>WPT.2130</name>
      </trkpt>
      <trkpt lat="17.030327120" lon="-96.471432170">
        <ele>2251.000</ele>
        <time>2017-01-13T21:56:30Z</time>
        <name>WPT.2131</name>
      </trkpt>
      <trkpt lat="17.030198380" lon="-96.471410780">
        <ele>2251.000</ele>
        <time>2017-01-13T21:56:31Z</time>
        <name>WPT.2132</name>
      </trkpt>
      <trkpt lat="17.030076390" lon="-96.471401440">
        <ele>2249.000</ele>
        <time>2017-01-13T21:56:32Z</time>
        <name>WPT.2133</name>
      </trkpt>
      <trkpt lat="17.029936130" lon="-96.471390570">
        <ele>2248.000</ele>
        <time>2017-01-13T21:56:33Z</time>
        <name>WPT.2134</name>
      </trkpt>
      <trkpt lat="17.029803560" lon="-96.471370040">
        <ele>2247.000</ele>
        <time>2017-01-13T21:56:34Z</time>
        <name>WPT.2135</name>
      </trkpt>
      <trkpt lat="17.029667330" lon="-96.471337900">
        <ele>2245.000</ele>
        <time>2017-01-13T21:56:35Z</time>
        <name>WPT.2136</name>
      </trkpt>
      <trkpt lat="17.029513320" lon="-96.471321850">
        <ele>2244.000</ele>
        <time>2017-01-13T21:56:36Z</time>
        <name>WPT.2137</name>
      </trkpt>
      <trkpt lat="17.029379000" lon="-96.471288720">
        <ele>2243.000</ele>
        <time>2017-01-13T21:56:37Z</time>
        <name>WPT.2138</name>
      </trkpt>
      <trkpt lat="17.029244640" lon="-96.471257980">
        <ele>2242.000</ele>
        <time>2017-01-13T21:56:38Z</time>
        <name>WPT.2139</name>
      </trkpt>
      <trkpt lat="17.029112800" lon="-96.471200790">
        <ele>2241.000</ele>
        <time>2017-01-13T21:56:39Z</time>
        <name>WPT.2140</name>
      </trkpt>
      <trkpt lat="17.028992480" lon="-96.471158530">
        <ele>2241.000</ele>
        <time>2017-01-13T21:56:40Z</time>
        <name>WPT.2141</name>
      </trkpt>
      <trkpt lat="17.028877550" lon="-96.471105810">
        <ele>2240.000</ele>
        <time>2017-01-13T21:56:41Z</time>
        <name>WPT.2142</name>
      </trkpt>
      <trkpt lat="17.028780770" lon="-96.471043470">
        <ele>2239.000</ele>
        <time>2017-01-13T21:56:42Z</time>
        <name>WPT.2143</name>
      </trkpt>
      <trkpt lat="17.028675100" lon="-96.471014910">
        <ele>2236.000</ele>
        <time>2017-01-13T21:56:43Z</time>
        <name>WPT.2144</name>
      </trkpt>
      <trkpt lat="17.028547090" lon="-96.471013140">
        <ele>2235.000</ele>
        <time>2017-01-13T21:56:44Z</time>
        <name>WPT.2145</name>
      </trkpt>
      <trkpt lat="17.028435220" lon="-96.471026980">
        <ele>2233.000</ele>
        <time>2017-01-13T21:56:45Z</time>
        <name>WPT.2146</name>
      </trkpt>
      <trkpt lat="17.028320330" lon="-96.471023580">
        <ele>2233.000</ele>
        <time>2017-01-13T21:56:46Z</time>
        <name>WPT.2147</name>
      </trkpt>
      <trkpt lat="17.027966850" lon="-96.471106650">
        <ele>2230.000</ele>
        <time>2017-01-13T21:56:49Z</time>
        <name>WPT.2148</name>
      </trkpt>
      <trkpt lat="17.027844410" lon="-96.471134090">
        <ele>2227.000</ele>
        <time>2017-01-13T21:56:50Z</time>
        <name>WPT.2149</name>
      </trkpt>
      <trkpt lat="17.027720460" lon="-96.471162690">
        <ele>2226.000</ele>
        <time>2017-01-13T21:56:51Z</time>
        <name>WPT.2150</name>
      </trkpt>
      <trkpt lat="17.027601590" lon="-96.471191840">
        <ele>2225.000</ele>
        <time>2017-01-13T21:56:52Z</time>
        <name>WPT.2151</name>
      </trkpt>
      <trkpt lat="17.027493940" lon="-96.471221140">
        <ele>2224.000</ele>
        <time>2017-01-13T21:56:53Z</time>
        <name>WPT.2152</name>
      </trkpt>
      <trkpt lat="17.027390820" lon="-96.471235020">
        <ele>2224.000</ele>
        <time>2017-01-13T21:56:54Z</time>
        <name>WPT.2153</name>
      </trkpt>
      <trkpt lat="17.027287330" lon="-96.471270850">
        <ele>2223.000</ele>
        <time>2017-01-13T21:56:55Z</time>
        <name>WPT.2154</name>
      </trkpt>
      <trkpt lat="17.027193720" lon="-96.471285370">
        <ele>2223.000</ele>
        <time>2017-01-13T21:56:56Z</time>
        <name>WPT.2155</name>
      </trkpt>
      <trkpt lat="17.027104310" lon="-96.471315470">
        <ele>2222.000</ele>
        <time>2017-01-13T21:56:57Z</time>
        <name>WPT.2156</name>
      </trkpt>
      <trkpt lat="17.027018260" lon="-96.471297200">
        <ele>2221.000</ele>
        <time>2017-01-13T21:56:58Z</time>
        <name>WPT.2157</name>
      </trkpt>
      <trkpt lat="17.026914800" lon="-96.471322110">
        <ele>2222.000</ele>
        <time>2017-01-13T21:56:59Z</time>
        <name>WPT.2158</name>
      </trkpt>
      <trkpt lat="17.026820910" lon="-96.471313340">
        <ele>2221.000</ele>
        <time>2017-01-13T21:57:00Z</time>
        <name>WPT.2159</name>
      </trkpt>
      <trkpt lat="17.026716120" lon="-96.471327310">
        <ele>2221.000</ele>
        <time>2017-01-13T21:57:01Z</time>
        <name>WPT.2160</name>
      </trkpt>
      <trkpt lat="17.026606470" lon="-96.471338860">
        <ele>2220.000</ele>
        <time>2017-01-13T21:57:02Z</time>
        <name>WPT.2161</name>
      </trkpt>
      <trkpt lat="17.026499200" lon="-96.471345400">
        <ele>2219.000</ele>
        <time>2017-01-13T21:57:03Z</time>
        <name>WPT.2162</name>
      </trkpt>
      <trkpt lat="17.026406500" lon="-96.471369710">
        <ele>2216.000</ele>
        <time>2017-01-13T21:57:04Z</time>
        <name>WPT.2163</name>
      </trkpt>
      <trkpt lat="17.026293010" lon="-96.471379680">
        <ele>2219.000</ele>
        <time>2017-01-13T21:57:05Z</time>
        <name>WPT.2164</name>
      </trkpt>
      <trkpt lat="17.026205540" lon="-96.471353940">
        <ele>2220.000</ele>
        <time>2017-01-13T21:57:06Z</time>
        <name>WPT.2165</name>
      </trkpt>
      <trkpt lat="17.026122480" lon="-96.471312030">
        <ele>2219.000</ele>
        <time>2017-01-13T21:57:07Z</time>
        <name>WPT.2166</name>
      </trkpt>
      <trkpt lat="17.026026140" lon="-96.471264060">
        <ele>2219.000</ele>
        <time>2017-01-13T21:57:08Z</time>
        <name>WPT.2167</name>
      </trkpt>
      <trkpt lat="17.025936690" lon="-96.471185950">
        <ele>2218.000</ele>
        <time>2017-01-13T21:57:09Z</time>
        <name>WPT.2168</name>
      </trkpt>
      <trkpt lat="17.025848630" lon="-96.471127060">
        <ele>2217.000</ele>
        <time>2017-01-13T21:57:10Z</time>
        <name>WPT.2169</name>
      </trkpt>
      <trkpt lat="17.025755470" lon="-96.471046930">
        <ele>2216.000</ele>
        <time>2017-01-13T21:57:11Z</time>
        <name>WPT.2170</name>
      </trkpt>
      <trkpt lat="17.025669730" lon="-96.470957820">
        <ele>2215.000</ele>
        <time>2017-01-13T21:57:12Z</time>
        <name>WPT.2171</name>
      </trkpt>
      <trkpt lat="17.025577320" lon="-96.470861430">
        <ele>2214.000</ele>
        <time>2017-01-13T21:57:13Z</time>
        <name>WPT.2172</name>
      </trkpt>
      <trkpt lat="17.025492950" lon="-96.470790200">
        <ele>2214.000</ele>
        <time>2017-01-13T21:57:14Z</time>
        <name>WPT.2173</name>
      </trkpt>
      <trkpt lat="17.025408640" lon="-96.470690650">
        <ele>2213.000</ele>
        <time>2017-01-13T21:57:15Z</time>
        <name>WPT.2174</name>
      </trkpt>
      <trkpt lat="17.025294250" lon="-96.470595600">
        <ele>2213.000</ele>
        <time>2017-01-13T21:57:16Z</time>
        <name>WPT.2175</name>
      </trkpt>
      <trkpt lat="17.025198830" lon="-96.470520320">
        <ele>2211.000</ele>
        <time>2017-01-13T21:57:17Z</time>
        <name>WPT.2176</name>
      </trkpt>
      <trkpt lat="17.025104800" lon="-96.470437450">
        <ele>2210.000</ele>
        <time>2017-01-13T21:57:18Z</time>
        <name>WPT.2177</name>
      </trkpt>
      <trkpt lat="17.025021870" lon="-96.470393740">
        <ele>2209.000</ele>
        <time>2017-01-13T21:57:19Z</time>
        <name>WPT.2178</name>
      </trkpt>
      <trkpt lat="17.024931960" lon="-96.470339260">
        <ele>2207.000</ele>
        <time>2017-01-13T21:57:20Z</time>
        <name>WPT.2179</name>
      </trkpt>
      <trkpt lat="17.024843650" lon="-96.470290070">
        <ele>2205.000</ele>
        <time>2017-01-13T21:57:21Z</time>
        <name>WPT.2180</name>
      </trkpt>
      <trkpt lat="17.024754100" lon="-96.470256480">
        <ele>2204.000</ele>
        <time>2017-01-13T21:57:22Z</time>
        <name>WPT.2181</name>
      </trkpt>
      <trkpt lat="17.024671200" lon="-96.470235980">
        <ele>2202.000</ele>
        <time>2017-01-13T21:57:23Z</time>
        <name>WPT.2182</name>
      </trkpt>
      <trkpt lat="17.024572740" lon="-96.470246550">
        <ele>2198.000</ele>
        <time>2017-01-13T21:57:24Z</time>
        <name>WPT.2183</name>
      </trkpt>
      <trkpt lat="17.024468750" lon="-96.470266060">
        <ele>2196.000</ele>
        <time>2017-01-13T21:57:25Z</time>
        <name>WPT.2184</name>
      </trkpt>
      <trkpt lat="17.024376240" lon="-96.470280690">
        <ele>2195.000</ele>
        <time>2017-01-13T21:57:26Z</time>
        <name>WPT.2185</name>
      </trkpt>
      <trkpt lat="17.024263160" lon="-96.470317710">
        <ele>2193.000</ele>
        <time>2017-01-13T21:57:27Z</time>
        <name>WPT.2186</name>
      </trkpt>
      <trkpt lat="17.024146900" lon="-96.470368670">
        <ele>2192.000</ele>
        <time>2017-01-13T21:57:28Z</time>
        <name>WPT.2187</name>
      </trkpt>
      <trkpt lat="17.024046350" lon="-96.470426220">
        <ele>2192.000</ele>
        <time>2017-01-13T21:57:29Z</time>
        <name>WPT.2188</name>
      </trkpt>
      <trkpt lat="17.023947490" lon="-96.470474790">
        <ele>2192.000</ele>
        <time>2017-01-13T21:57:30Z</time>
        <name>WPT.2189</name>
      </trkpt>
      <trkpt lat="17.023866510" lon="-96.470561870">
        <ele>2191.000</ele>
        <time>2017-01-13T21:57:31Z</time>
        <name>WPT.2190</name>
      </trkpt>
      <trkpt lat="17.023784730" lon="-96.470626580">
        <ele>2188.000</ele>
        <time>2017-01-13T21:57:32Z</time>
        <name>WPT.2191</name>
      </trkpt>
      <trkpt lat="17.023710540" lon="-96.470703200">
        <ele>2189.000</ele>
        <time>2017-01-13T21:57:33Z</time>
        <name>WPT.2192</name>
      </trkpt>
      <trkpt lat="17.023636020" lon="-96.470780640">
        <ele>2188.000</ele>
        <time>2017-01-13T21:57:34Z</time>
        <name>WPT.2193</name>
      </trkpt>
      <trkpt lat="17.023557600" lon="-96.470886170">
        <ele>2186.000</ele>
        <time>2017-01-13T21:57:35Z</time>
        <name>WPT.2194</name>
      </trkpt>
      <trkpt lat="17.023513040" lon="-96.470994710">
        <ele>2185.000</ele>
        <time>2017-01-13T21:57:36Z</time>
        <name>WPT.2195</name>
      </trkpt>
      <trkpt lat="17.023491130" lon="-96.471098180">
        <ele>2186.000</ele>
        <time>2017-01-13T21:57:37Z</time>
        <name>WPT.2196</name>
      </trkpt>
      <trkpt lat="17.023420980" lon="-96.471203830">
        <ele>2185.000</ele>
        <time>2017-01-13T21:57:38Z</time>
        <name>WPT.2197</name>
      </trkpt>
      <trkpt lat="17.023373480" lon="-96.471311750">
        <ele>2184.000</ele>
        <time>2017-01-13T21:57:39Z</time>
        <name>WPT.2198</name>
      </trkpt>
      <trkpt lat="17.023276930" lon="-96.471428980">
        <ele>2183.000</ele>
        <time>2017-01-13T21:57:40Z</time>
        <name>WPT.2199</name>
      </trkpt>
      <trkpt lat="17.023204690" lon="-96.471530860">
        <ele>2182.000</ele>
        <time>2017-01-13T21:57:41Z</time>
        <name>WPT.2200</name>
      </trkpt>
      <trkpt lat="17.023144180" lon="-96.471645430">
        <ele>2182.000</ele>
        <time>2017-01-13T21:57:42Z</time>
        <name>WPT.2201</name>
      </trkpt>
      <trkpt lat="17.023120970" lon="-96.471781090">
        <ele>2179.000</ele>
        <time>2017-01-13T21:57:43Z</time>
        <name>WPT.2202</name>
      </trkpt>
      <trkpt lat="17.023082190" lon="-96.471905090">
        <ele>2178.000</ele>
        <time>2017-01-13T21:57:44Z</time>
        <name>WPT.2203</name>
      </trkpt>
      <trkpt lat="17.023060370" lon="-96.472049090">
        <ele>2179.000</ele>
        <time>2017-01-13T21:57:45Z</time>
        <name>WPT.2204</name>
      </trkpt>
      <trkpt lat="17.023025400" lon="-96.472171030">
        <ele>2178.000</ele>
        <time>2017-01-13T21:57:46Z</time>
        <name>WPT.2205</name>
      </trkpt>
      <trkpt lat="17.022986970" lon="-96.472303090">
        <ele>2179.000</ele>
        <time>2017-01-13T21:57:47Z</time>
        <name>WPT.2206</name>
      </trkpt>
      <trkpt lat="17.022963190" lon="-96.472385340">
        <ele>2178.000</ele>
        <time>2017-01-13T21:57:48Z</time>
        <name>WPT.2207</name>
      </trkpt>
      <trkpt lat="17.022932890" lon="-96.472476000">
        <ele>2176.000</ele>
        <time>2017-01-13T21:57:49Z</time>
        <name>WPT.2208</name>
      </trkpt>
      <trkpt lat="17.022939880" lon="-96.472566020">
        <ele>2175.000</ele>
        <time>2017-01-13T21:57:50Z</time>
        <name>WPT.2209</name>
      </trkpt>
      <trkpt lat="17.022956870" lon="-96.472659510">
        <ele>2175.000</ele>
        <time>2017-01-13T21:57:51Z</time>
        <name>WPT.2210</name>
      </trkpt>
      <trkpt lat="17.022915140" lon="-96.472713520">
        <ele>2175.000</ele>
        <time>2017-01-13T21:57:52Z</time>
        <name>WPT.2211</name>
      </trkpt>
      <trkpt lat="17.022872840" lon="-96.472777720">
        <ele>2174.000</ele>
        <time>2017-01-13T21:57:53Z</time>
        <name>WPT.2212</name>
      </trkpt>
      <trkpt lat="17.022840370" lon="-96.472842370">
        <ele>2175.000</ele>
        <time>2017-01-13T21:57:54Z</time>
        <name>WPT.2213</name>
      </trkpt>
      <trkpt lat="17.022806550" lon="-96.472900550">
        <ele>2174.000</ele>
        <time>2017-01-13T21:57:55Z</time>
        <name>WPT.2214</name>
      </trkpt>
      <trkpt lat="17.022742620" lon="-96.472923390">
        <ele>2174.000</ele>
        <time>2017-01-13T21:57:56Z</time>
        <name>WPT.2215</name>
      </trkpt>
      <trkpt lat="17.022631080" lon="-96.472854790">
        <ele>2175.000</ele>
        <time>2017-01-13T21:57:57Z</time>
        <name>WPT.2216</name>
      </trkpt>
      <trkpt lat="17.022562150" lon="-96.472810510">
        <ele>2173.000</ele>
        <time>2017-01-13T21:57:58Z</time>
        <name>WPT.2217</name>
      </trkpt>
      <trkpt lat="17.022508460" lon="-96.472774100">
        <ele>2170.000</ele>
        <time>2017-01-13T21:57:59Z</time>
        <name>WPT.2218</name>
      </trkpt>
      <trkpt lat="17.022446790" lon="-96.472741180">
        <ele>2169.000</ele>
        <time>2017-01-13T21:58:00Z</time>
        <name>WPT.2219</name>
      </trkpt>
      <trkpt lat="17.022417640" lon="-96.472642410">
        <ele>2169.000</ele>
        <time>2017-01-13T21:58:01Z</time>
        <name>WPT.2220</name>
      </trkpt>
      <trkpt lat="17.022367200" lon="-96.472567050">
        <ele>2169.000</ele>
        <time>2017-01-13T21:58:02Z</time>
        <name>WPT.2221</name>
      </trkpt>
      <trkpt lat="17.022370790" lon="-96.472495020">
        <ele>2169.000</ele>
        <time>2017-01-13T21:58:03Z</time>
        <name>WPT.2222</name>
      </trkpt>
      <trkpt lat="17.022444720" lon="-96.472393600">
        <ele>2169.000</ele>
        <time>2017-01-13T21:58:04Z</time>
        <name>WPT.2223</name>
      </trkpt>
      <trkpt lat="17.022466280" lon="-96.472300320">
        <ele>2169.000</ele>
        <time>2017-01-13T21:58:05Z</time>
        <name>WPT.2224</name>
      </trkpt>
      <trkpt lat="17.022479390" lon="-96.472193620">
        <ele>2166.000</ele>
        <time>2017-01-13T21:58:06Z</time>
        <name>WPT.2225</name>
      </trkpt>
      <trkpt lat="17.022515310" lon="-96.472087720">
        <ele>2164.000</ele>
        <time>2017-01-13T21:58:07Z</time>
        <name>WPT.2226</name>
      </trkpt>
      <trkpt lat="17.022532200" lon="-96.471998610">
        <ele>2163.000</ele>
        <time>2017-01-13T21:58:08Z</time>
        <name>WPT.2227</name>
      </trkpt>
      <trkpt lat="17.022573240" lon="-96.471902960">
        <ele>2161.000</ele>
        <time>2017-01-13T21:58:09Z</time>
        <name>WPT.2228</name>
      </trkpt>
      <trkpt lat="17.022590910" lon="-96.471816850">
        <ele>2159.000</ele>
        <time>2017-01-13T21:58:10Z</time>
        <name>WPT.2229</name>
      </trkpt>
      <trkpt lat="17.022587780" lon="-96.471722880">
        <ele>2160.000</ele>
        <time>2017-01-13T21:58:11Z</time>
        <name>WPT.2230</name>
      </trkpt>
      <trkpt lat="17.022579760" lon="-96.471633400">
        <ele>2159.000</ele>
        <time>2017-01-13T21:58:12Z</time>
        <name>WPT.2231</name>
      </trkpt>
      <trkpt lat="17.022550650" lon="-96.471530400">
        <ele>2157.000</ele>
        <time>2017-01-13T21:58:13Z</time>
        <name>WPT.2232</name>
      </trkpt>
      <trkpt lat="17.022503720" lon="-96.471432540">
        <ele>2155.000</ele>
        <time>2017-01-13T21:58:14Z</time>
        <name>WPT.2233</name>
      </trkpt>
      <trkpt lat="17.022444360" lon="-96.471349850">
        <ele>2152.000</ele>
        <time>2017-01-13T21:58:15Z</time>
        <name>WPT.2234</name>
      </trkpt>
      <trkpt lat="17.022397050" lon="-96.471235800">
        <ele>2150.000</ele>
        <time>2017-01-13T21:58:16Z</time>
        <name>WPT.2235</name>
      </trkpt>
      <trkpt lat="17.022339260" lon="-96.471136250">
        <ele>2147.000</ele>
        <time>2017-01-13T21:58:17Z</time>
        <name>WPT.2236</name>
      </trkpt>
      <trkpt lat="17.022300980" lon="-96.471029010">
        <ele>2148.000</ele>
        <time>2017-01-13T21:58:18Z</time>
        <name>WPT.2237</name>
      </trkpt>
      <trkpt lat="17.022231260" lon="-96.470930810">
        <ele>2146.000</ele>
        <time>2017-01-13T21:58:19Z</time>
        <name>WPT.2238</name>
      </trkpt>
      <trkpt lat="17.022142150" lon="-96.470832510">
        <ele>2145.000</ele>
        <time>2017-01-13T21:58:20Z</time>
        <name>WPT.2239</name>
      </trkpt>
      <trkpt lat="17.022079140" lon="-96.470735690">
        <ele>2145.000</ele>
        <time>2017-01-13T21:58:21Z</time>
        <name>WPT.2240</name>
      </trkpt>
      <trkpt lat="17.022006170" lon="-96.470648370">
        <ele>2143.000</ele>
        <time>2017-01-13T21:58:22Z</time>
        <name>WPT.2241</name>
      </trkpt>
      <trkpt lat="17.021930970" lon="-96.470571940">
        <ele>2144.000</ele>
        <time>2017-01-13T21:58:23Z</time>
        <name>WPT.2242</name>
      </trkpt>
      <trkpt lat="17.021827060" lon="-96.470518910">
        <ele>2142.000</ele>
        <time>2017-01-13T21:58:24Z</time>
        <name>WPT.2243</name>
      </trkpt>
      <trkpt lat="17.021723750" lon="-96.470472180">
        <ele>2141.000</ele>
        <time>2017-01-13T21:58:25Z</time>
        <name>WPT.2244</name>
      </trkpt>
      <trkpt lat="17.021615280" lon="-96.470434840">
        <ele>2140.000</ele>
        <time>2017-01-13T21:58:26Z</time>
        <name>WPT.2245</name>
      </trkpt>
      <trkpt lat="17.021514060" lon="-96.470411790">
        <ele>2140.000</ele>
        <time>2017-01-13T21:58:27Z</time>
        <name>WPT.2246</name>
      </trkpt>
      <trkpt lat="17.021418750" lon="-96.470377980">
        <ele>2138.000</ele>
        <time>2017-01-13T21:58:28Z</time>
        <name>WPT.2247</name>
      </trkpt>
      <trkpt lat="17.021320690" lon="-96.470340970">
        <ele>2137.000</ele>
        <time>2017-01-13T21:58:29Z</time>
        <name>WPT.2248</name>
      </trkpt>
      <trkpt lat="17.021216650" lon="-96.470320110">
        <ele>2136.000</ele>
        <time>2017-01-13T21:58:30Z</time>
        <name>WPT.2249</name>
      </trkpt>
      <trkpt lat="17.021157160" lon="-96.470280710">
        <ele>2136.000</ele>
        <time>2017-01-13T21:58:31Z</time>
        <name>WPT.2250</name>
      </trkpt>
      <trkpt lat="17.021094190" lon="-96.470234160">
        <ele>2133.000</ele>
        <time>2017-01-13T21:58:32Z</time>
        <name>WPT.2251</name>
      </trkpt>
      <trkpt lat="17.021041970" lon="-96.470179830">
        <ele>2131.000</ele>
        <time>2017-01-13T21:58:33Z</time>
        <name>WPT.2252</name>
      </trkpt>
      <trkpt lat="17.021002340" lon="-96.470111040">
        <ele>2131.000</ele>
        <time>2017-01-13T21:58:34Z</time>
        <name>WPT.2253</name>
      </trkpt>
      <trkpt lat="17.020990770" lon="-96.470044800">
        <ele>2130.000</ele>
        <time>2017-01-13T21:58:35Z</time>
        <name>WPT.2254</name>
      </trkpt>
      <trkpt lat="17.021008700" lon="-96.469979250">
        <ele>2131.000</ele>
        <time>2017-01-13T21:58:36Z</time>
        <name>WPT.2255</name>
      </trkpt>
      <trkpt lat="17.021036740" lon="-96.469927720">
        <ele>2131.000</ele>
        <time>2017-01-13T21:58:37Z</time>
        <name>WPT.2256</name>
      </trkpt>
      <trkpt lat="17.021081400" lon="-96.469881660">
        <ele>2129.000</ele>
        <time>2017-01-13T21:58:38Z</time>
        <name>WPT.2257</name>
      </trkpt>
      <trkpt lat="17.021134180" lon="-96.469823540">
        <ele>2130.000</ele>
        <time>2017-01-13T21:58:39Z</time>
        <name>WPT.2258</name>
      </trkpt>
      <trkpt lat="17.021219590" lon="-96.469819930">
        <ele>2130.000</ele>
        <time>2017-01-13T21:58:40Z</time>
        <name>WPT.2259</name>
      </trkpt>
      <trkpt lat="17.021311090" lon="-96.469812310">
        <ele>2129.000</ele>
        <time>2017-01-13T21:58:41Z</time>
        <name>WPT.2260</name>
      </trkpt>
      <trkpt lat="17.021401000" lon="-96.469819900">
        <ele>2129.000</ele>
        <time>2017-01-13T21:58:42Z</time>
        <name>WPT.2261</name>
      </trkpt>
      <trkpt lat="17.021479870" lon="-96.469837830">
        <ele>2129.000</ele>
        <time>2017-01-13T21:58:43Z</time>
        <name>WPT.2262</name>
      </trkpt>
      <trkpt lat="17.021592050" lon="-96.469832480">
        <ele>2126.000</ele>
        <time>2017-01-13T21:58:44Z</time>
        <name>WPT.2263</name>
      </trkpt>
      <trkpt lat="17.021699050" lon="-96.469836830">
        <ele>2125.000</ele>
        <time>2017-01-13T21:58:45Z</time>
        <name>WPT.2264</name>
      </trkpt>
      <trkpt lat="17.021805710" lon="-96.469808300">
        <ele>2123.000</ele>
        <time>2017-01-13T21:58:46Z</time>
        <name>WPT.2265</name>
      </trkpt>
      <trkpt lat="17.021915960" lon="-96.469763960">
        <ele>2125.000</ele>
        <time>2017-01-13T21:58:47Z</time>
        <name>WPT.2266</name>
      </trkpt>
      <trkpt lat="17.022025900" lon="-96.469699090">
        <ele>2124.000</ele>
        <time>2017-01-13T21:58:48Z</time>
        <name>WPT.2267</name>
      </trkpt>
      <trkpt lat="17.022145650" lon="-96.469633600">
        <ele>2123.000</ele>
        <time>2017-01-13T21:58:49Z</time>
        <name>WPT.2268</name>
      </trkpt>
      <trkpt lat="17.022255270" lon="-96.469570230">
        <ele>2122.000</ele>
        <time>2017-01-13T21:58:50Z</time>
        <name>WPT.2269</name>
      </trkpt>
      <trkpt lat="17.022356430" lon="-96.469506480">
        <ele>2123.000</ele>
        <time>2017-01-13T21:58:51Z</time>
        <name>WPT.2270</name>
      </trkpt>
      <trkpt lat="17.022448150" lon="-96.469422510">
        <ele>2120.000</ele>
        <time>2017-01-13T21:58:52Z</time>
        <name>WPT.2271</name>
      </trkpt>
      <trkpt lat="17.022524070" lon="-96.469337930">
        <ele>2118.000</ele>
        <time>2017-01-13T21:58:53Z</time>
        <name>WPT.2272</name>
      </trkpt>
      <trkpt lat="17.022584790" lon="-96.469238500">
        <ele>2116.000</ele>
        <time>2017-01-13T21:58:54Z</time>
        <name>WPT.2273</name>
      </trkpt>
      <trkpt lat="17.022634170" lon="-96.469120230">
        <ele>2116.000</ele>
        <time>2017-01-13T21:58:55Z</time>
        <name>WPT.2274</name>
      </trkpt>
      <trkpt lat="17.022689290" lon="-96.469013790">
        <ele>2116.000</ele>
        <time>2017-01-13T21:58:56Z</time>
        <name>WPT.2275</name>
      </trkpt>
      <trkpt lat="17.022737960" lon="-96.468895830">
        <ele>2115.000</ele>
        <time>2017-01-13T21:58:57Z</time>
        <name>WPT.2276</name>
      </trkpt>
      <trkpt lat="17.022779580" lon="-96.468792250">
        <ele>2114.000</ele>
        <time>2017-01-13T21:58:58Z</time>
        <name>WPT.2277</name>
      </trkpt>
      <trkpt lat="17.022822820" lon="-96.468689690">
        <ele>2113.000</ele>
        <time>2017-01-13T21:58:59Z</time>
        <name>WPT.2278</name>
      </trkpt>
      <trkpt lat="17.022855080" lon="-96.468593410">
        <ele>2111.000</ele>
        <time>2017-01-13T21:59:00Z</time>
        <name>WPT.2279</name>
      </trkpt>
      <trkpt lat="17.022899910" lon="-96.468500420">
        <ele>2111.000</ele>
        <time>2017-01-13T21:59:01Z</time>
        <name>WPT.2280</name>
      </trkpt>
      <trkpt lat="17.022950360" lon="-96.468408230">
        <ele>2110.000</ele>
        <time>2017-01-13T21:59:02Z</time>
        <name>WPT.2281</name>
      </trkpt>
      <trkpt lat="17.022966250" lon="-96.468329970">
        <ele>2109.000</ele>
        <time>2017-01-13T21:59:03Z</time>
        <name>WPT.2282</name>
      </trkpt>
      <trkpt lat="17.022957170" lon="-96.468235750">
        <ele>2108.000</ele>
        <time>2017-01-13T21:59:04Z</time>
        <name>WPT.2283</name>
      </trkpt>
      <trkpt lat="17.022934150" lon="-96.468158820">
        <ele>2106.000</ele>
        <time>2017-01-13T21:59:05Z</time>
        <name>WPT.2284</name>
      </trkpt>
      <trkpt lat="17.022894140" lon="-96.468068560">
        <ele>2104.000</ele>
        <time>2017-01-13T21:59:06Z</time>
        <name>WPT.2285</name>
      </trkpt>
      <trkpt lat="17.022852760" lon="-96.467983980">
        <ele>2104.000</ele>
        <time>2017-01-13T21:59:07Z</time>
        <name>WPT.2286</name>
      </trkpt>
      <trkpt lat="17.022806020" lon="-96.467899950">
        <ele>2104.000</ele>
        <time>2017-01-13T21:59:08Z</time>
        <name>WPT.2287</name>
      </trkpt>
      <trkpt lat="17.022768270" lon="-96.467816290">
        <ele>2104.000</ele>
        <time>2017-01-13T21:59:09Z</time>
        <name>WPT.2288</name>
      </trkpt>
      <trkpt lat="17.022719290" lon="-96.467719360">
        <ele>2106.000</ele>
        <time>2017-01-13T21:59:10Z</time>
        <name>WPT.2289</name>
      </trkpt>
      <trkpt lat="17.022664160" lon="-96.467616300">
        <ele>2107.000</ele>
        <time>2017-01-13T21:59:11Z</time>
        <name>WPT.2290</name>
      </trkpt>
      <trkpt lat="17.022610430" lon="-96.467515990">
        <ele>2106.000</ele>
        <time>2017-01-13T21:59:12Z</time>
        <name>WPT.2291</name>
      </trkpt>
      <trkpt lat="17.022560770" lon="-96.467412890">
        <ele>2106.000</ele>
        <time>2017-01-13T21:59:13Z</time>
        <name>WPT.2292</name>
      </trkpt>
      <trkpt lat="17.022505660" lon="-96.467312220">
        <ele>2105.000</ele>
        <time>2017-01-13T21:59:14Z</time>
        <name>WPT.2293</name>
      </trkpt>
      <trkpt lat="17.022447850" lon="-96.467200480">
        <ele>2104.000</ele>
        <time>2017-01-13T21:59:15Z</time>
        <name>WPT.2294</name>
      </trkpt>
      <trkpt lat="17.022404580" lon="-96.467098020">
        <ele>2104.000</ele>
        <time>2017-01-13T21:59:16Z</time>
        <name>WPT.2295</name>
      </trkpt>
      <trkpt lat="17.022359140" lon="-96.466987660">
        <ele>2104.000</ele>
        <time>2017-01-13T21:59:17Z</time>
        <name>WPT.2296</name>
      </trkpt>
      <trkpt lat="17.022314890" lon="-96.466874730">
        <ele>2104.000</ele>
        <time>2017-01-13T21:59:18Z</time>
        <name>WPT.2297</name>
      </trkpt>
      <trkpt lat="17.022254020" lon="-96.466765040">
        <ele>2102.000</ele>
        <time>2017-01-13T21:59:19Z</time>
        <name>WPT.2298</name>
      </trkpt>
      <trkpt lat="17.022196500" lon="-96.466649420">
        <ele>2102.000</ele>
        <time>2017-01-13T21:59:20Z</time>
        <name>WPT.2299</name>
      </trkpt>
      <trkpt lat="17.022135180" lon="-96.466533300">
        <ele>2101.000</ele>
        <time>2017-01-13T21:59:21Z</time>
        <name>WPT.2300</name>
      </trkpt>
      <trkpt lat="17.022071630" lon="-96.466419040">
        <ele>2098.000</ele>
        <time>2017-01-13T21:59:22Z</time>
        <name>WPT.2301</name>
      </trkpt>
      <trkpt lat="17.021997720" lon="-96.466310430">
        <ele>2095.000</ele>
        <time>2017-01-13T21:59:23Z</time>
        <name>WPT.2302</name>
      </trkpt>
      <trkpt lat="17.021910750" lon="-96.466210340">
        <ele>2092.000</ele>
        <time>2017-01-13T21:59:24Z</time>
        <name>WPT.2303</name>
      </trkpt>
      <trkpt lat="17.021817500" lon="-96.466107920">
        <ele>2089.000</ele>
        <time>2017-01-13T21:59:25Z</time>
        <name>WPT.2304</name>
      </trkpt>
      <trkpt lat="17.021721890" lon="-96.466019040">
        <ele>2087.000</ele>
        <time>2017-01-13T21:59:26Z</time>
        <name>WPT.2305</name>
      </trkpt>
      <trkpt lat="17.021616620" lon="-96.465947000">
        <ele>2086.000</ele>
        <time>2017-01-13T21:59:27Z</time>
        <name>WPT.2306</name>
      </trkpt>
      <trkpt lat="17.021518400" lon="-96.465882290">
        <ele>2085.000</ele>
        <time>2017-01-13T21:59:28Z</time>
        <name>WPT.2307</name>
      </trkpt>
      <trkpt lat="17.021397090" lon="-96.465834660">
        <ele>2082.000</ele>
        <time>2017-01-13T21:59:29Z</time>
        <name>WPT.2308</name>
      </trkpt>
      <trkpt lat="17.021277450" lon="-96.465787400">
        <ele>2080.000</ele>
        <time>2017-01-13T21:59:30Z</time>
        <name>WPT.2309</name>
      </trkpt>
      <trkpt lat="17.021158570" lon="-96.465749250">
        <ele>2079.000</ele>
        <time>2017-01-13T21:59:31Z</time>
        <name>WPT.2310</name>
      </trkpt>
      <trkpt lat="17.021040450" lon="-96.465708930">
        <ele>2078.000</ele>
        <time>2017-01-13T21:59:32Z</time>
        <name>WPT.2311</name>
      </trkpt>
      <trkpt lat="17.020931490" lon="-96.465666670">
        <ele>2077.000</ele>
        <time>2017-01-13T21:59:33Z</time>
        <name>WPT.2312</name>
      </trkpt>
      <trkpt lat="17.020810100" lon="-96.465623940">
        <ele>2074.000</ele>
        <time>2017-01-13T21:59:34Z</time>
        <name>WPT.2313</name>
      </trkpt>
      <trkpt lat="17.020689450" lon="-96.465585090">
        <ele>2073.000</ele>
        <time>2017-01-13T21:59:35Z</time>
        <name>WPT.2314</name>
      </trkpt>
      <trkpt lat="17.020565850" lon="-96.465555050">
        <ele>2071.000</ele>
        <time>2017-01-13T21:59:36Z</time>
        <name>WPT.2315</name>
      </trkpt>
      <trkpt lat="17.020439040" lon="-96.465511690">
        <ele>2070.000</ele>
        <time>2017-01-13T21:59:37Z</time>
        <name>WPT.2316</name>
      </trkpt>
      <trkpt lat="17.020312060" lon="-96.465471290">
        <ele>2069.000</ele>
        <time>2017-01-13T21:59:38Z</time>
        <name>WPT.2317</name>
      </trkpt>
      <trkpt lat="17.020193390" lon="-96.465440330">
        <ele>2068.000</ele>
        <time>2017-01-13T21:59:39Z</time>
        <name>WPT.2318</name>
      </trkpt>
      <trkpt lat="17.020077950" lon="-96.465403310">
        <ele>2068.000</ele>
        <time>2017-01-13T21:59:40Z</time>
        <name>WPT.2319</name>
      </trkpt>
      <trkpt lat="17.019956540" lon="-96.465366780">
        <ele>2066.000</ele>
        <time>2017-01-13T21:59:41Z</time>
        <name>WPT.2320</name>
      </trkpt>
      <trkpt lat="17.019834340" lon="-96.465324380">
        <ele>2065.000</ele>
        <time>2017-01-13T21:59:42Z</time>
        <name>WPT.2321</name>
      </trkpt>
      <trkpt lat="17.019710450" lon="-96.465281110">
        <ele>2063.000</ele>
        <time>2017-01-13T21:59:43Z</time>
        <name>WPT.2322</name>
      </trkpt>
      <trkpt lat="17.019590870" lon="-96.465247190">
        <ele>2062.000</ele>
        <time>2017-01-13T21:59:44Z</time>
        <name>WPT.2323</name>
      </trkpt>
      <trkpt lat="17.019461730" lon="-96.465206030">
        <ele>2060.000</ele>
        <time>2017-01-13T21:59:45Z</time>
        <name>WPT.2324</name>
      </trkpt>
      <trkpt lat="17.019341790" lon="-96.465166410">
        <ele>2058.000</ele>
        <time>2017-01-13T21:59:46Z</time>
        <name>WPT.2325</name>
      </trkpt>
      <trkpt lat="17.019219990" lon="-96.465127660">
        <ele>2057.000</ele>
        <time>2017-01-13T21:59:47Z</time>
        <name>WPT.2326</name>
      </trkpt>
      <trkpt lat="17.019100180" lon="-96.465088380">
        <ele>2055.000</ele>
        <time>2017-01-13T21:59:48Z</time>
        <name>WPT.2327</name>
      </trkpt>
      <trkpt lat="17.018980900" lon="-96.465039050">
        <ele>2055.000</ele>
        <time>2017-01-13T21:59:49Z</time>
        <name>WPT.2328</name>
      </trkpt>
      <trkpt lat="17.018855900" lon="-96.464999420">
        <ele>2055.000</ele>
        <time>2017-01-13T21:59:50Z</time>
        <name>WPT.2329</name>
      </trkpt>
      <trkpt lat="17.018738730" lon="-96.464958490">
        <ele>2054.000</ele>
        <time>2017-01-13T21:59:51Z</time>
        <name>WPT.2330</name>
      </trkpt>
      <trkpt lat="17.018625420" lon="-96.464909650">
        <ele>2055.000</ele>
        <time>2017-01-13T21:59:52Z</time>
        <name>WPT.2331</name>
      </trkpt>
      <trkpt lat="17.018512860" lon="-96.464863120">
        <ele>2054.000</ele>
        <time>2017-01-13T21:59:53Z</time>
        <name>WPT.2332</name>
      </trkpt>
      <trkpt lat="17.018406590" lon="-96.464808280">
        <ele>2055.000</ele>
        <time>2017-01-13T21:59:54Z</time>
        <name>WPT.2333</name>
      </trkpt>
      <trkpt lat="17.018296610" lon="-96.464737270">
        <ele>2053.000</ele>
        <time>2017-01-13T21:59:55Z</time>
        <name>WPT.2334</name>
      </trkpt>
      <trkpt lat="17.018188110" lon="-96.464681080">
        <ele>2049.000</ele>
        <time>2017-01-13T21:59:56Z</time>
        <name>WPT.2335</name>
      </trkpt>
      <trkpt lat="17.018084870" lon="-96.464633970">
        <ele>2047.000</ele>
        <time>2017-01-13T21:59:57Z</time>
        <name>WPT.2336</name>
      </trkpt>
      <trkpt lat="17.017992930" lon="-96.464582450">
        <ele>2044.000</ele>
        <time>2017-01-13T21:59:58Z</time>
        <name>WPT.2337</name>
      </trkpt>
      <trkpt lat="17.017892540" lon="-96.464527470">
        <ele>2043.000</ele>
        <time>2017-01-13T21:59:59Z</time>
        <name>WPT.2338</name>
      </trkpt>
      <trkpt lat="17.017812070" lon="-96.464477690">
        <ele>2042.000</ele>
        <time>2017-01-13T22:00:00Z</time>
        <name>WPT.2339</name>
      </trkpt>
      <trkpt lat="17.017732260" lon="-96.464422090">
        <ele>2042.000</ele>
        <time>2017-01-13T22:00:01Z</time>
        <name>WPT.2340</name>
      </trkpt>
      <trkpt lat="17.017651510" lon="-96.464366730">
        <ele>2040.000</ele>
        <time>2017-01-13T22:00:02Z</time>
        <name>WPT.2341</name>
      </trkpt>
      <trkpt lat="17.017565480" lon="-96.464338650">
        <ele>2039.000</ele>
        <time>2017-01-13T22:00:03Z</time>
        <name>WPT.2342</name>
      </trkpt>
      <trkpt lat="17.017486610" lon="-96.464300040">
        <ele>2038.000</ele>
        <time>2017-01-13T22:00:04Z</time>
        <name>WPT.2343</name>
      </trkpt>
      <trkpt lat="17.017402360" lon="-96.464293320">
        <ele>2036.000</ele>
        <time>2017-01-13T22:00:05Z</time>
        <name>WPT.2344</name>
      </trkpt>
      <trkpt lat="17.017323640" lon="-96.464314060">
        <ele>2035.000</ele>
        <time>2017-01-13T22:00:06Z</time>
        <name>WPT.2345</name>
      </trkpt>
      <trkpt lat="17.017256030" lon="-96.464371860">
        <ele>2034.000</ele>
        <time>2017-01-13T22:00:07Z</time>
        <name>WPT.2346</name>
      </trkpt>
      <trkpt lat="17.017192230" lon="-96.464425190">
        <ele>2034.000</ele>
        <time>2017-01-13T22:00:08Z</time>
        <name>WPT.2347</name>
      </trkpt>
      <trkpt lat="17.017129410" lon="-96.464505220">
        <ele>2033.000</ele>
        <time>2017-01-13T22:00:09Z</time>
        <name>WPT.2348</name>
      </trkpt>
      <trkpt lat="17.017108680" lon="-96.464626580">
        <ele>2031.000</ele>
        <time>2017-01-13T22:00:10Z</time>
        <name>WPT.2349</name>
      </trkpt>
      <trkpt lat="17.017184300" lon="-96.464732620">
        <ele>2028.000</ele>
        <time>2017-01-13T22:00:11Z</time>
        <name>WPT.2350</name>
      </trkpt>
      <trkpt lat="17.017209140" lon="-96.464828220">
        <ele>2028.000</ele>
        <time>2017-01-13T22:00:12Z</time>
        <name>WPT.2351</name>
      </trkpt>
      <trkpt lat="17.017281830" lon="-96.464885000">
        <ele>2025.000</ele>
        <time>2017-01-13T22:00:13Z</time>
        <name>WPT.2352</name>
      </trkpt>
      <trkpt lat="17.017399900" lon="-96.464913120">
        <ele>2024.000</ele>
        <time>2017-01-13T22:00:14Z</time>
        <name>WPT.2353</name>
      </trkpt>
      <trkpt lat="17.017515170" lon="-96.464962350">
        <ele>2022.000</ele>
        <time>2017-01-13T22:00:15Z</time>
        <name>WPT.2354</name>
      </trkpt>
      <trkpt lat="17.017626400" lon="-96.465007740">
        <ele>2022.000</ele>
        <time>2017-01-13T22:00:16Z</time>
        <name>WPT.2355</name>
      </trkpt>
      <trkpt lat="17.017735430" lon="-96.465056170">
        <ele>2022.000</ele>
        <time>2017-01-13T22:00:17Z</time>
        <name>WPT.2356</name>
      </trkpt>
      <trkpt lat="17.017846980" lon="-96.465118520">
        <ele>2023.000</ele>
        <time>2017-01-13T22:00:18Z</time>
        <name>WPT.2357</name>
      </trkpt>
      <trkpt lat="17.017953430" lon="-96.465146320">
        <ele>2023.000</ele>
        <time>2017-01-13T22:00:19Z</time>
        <name>WPT.2358</name>
      </trkpt>
      <trkpt lat="17.018031900" lon="-96.465182390">
        <ele>2023.000</ele>
        <time>2017-01-13T22:00:20Z</time>
        <name>WPT.2359</name>
      </trkpt>
      <trkpt lat="17.018110920" lon="-96.465241000">
        <ele>2023.000</ele>
        <time>2017-01-13T22:00:21Z</time>
        <name>WPT.2360</name>
      </trkpt>
      <trkpt lat="17.018183200" lon="-96.465322790">
        <ele>2024.000</ele>
        <time>2017-01-13T22:00:22Z</time>
        <name>WPT.2361</name>
      </trkpt>
      <trkpt lat="17.018277580" lon="-96.465381230">
        <ele>2022.000</ele>
        <time>2017-01-13T22:00:23Z</time>
        <name>WPT.2362</name>
      </trkpt>
      <trkpt lat="17.018306740" lon="-96.465466460">
        <ele>2022.000</ele>
        <time>2017-01-13T22:00:24Z</time>
        <name>WPT.2363</name>
      </trkpt>
      <trkpt lat="17.018325660" lon="-96.465541950">
        <ele>2021.000</ele>
        <time>2017-01-13T22:00:25Z</time>
        <name>WPT.2364</name>
      </trkpt>
      <trkpt lat="17.018363400" lon="-96.465605580">
        <ele>2023.000</ele>
        <time>2017-01-13T22:00:26Z</time>
        <name>WPT.2365</name>
      </trkpt>
      <trkpt lat="17.018300550" lon="-96.465695830">
        <ele>2023.000</ele>
        <time>2017-01-13T22:00:27Z</time>
        <name>WPT.2366</name>
      </trkpt>
      <trkpt lat="17.018160840" lon="-96.465785920">
        <ele>2024.000</ele>
        <time>2017-01-13T22:00:28Z</time>
        <name>WPT.2367</name>
      </trkpt>
      <trkpt lat="17.018035490" lon="-96.465735050">
        <ele>2023.000</ele>
        <time>2017-01-13T22:00:29Z</time>
        <name>WPT.2368</name>
      </trkpt>
      <trkpt lat="17.017924030" lon="-96.465779600">
        <ele>2019.000</ele>
        <time>2017-01-13T22:00:30Z</time>
        <name>WPT.2369</name>
      </trkpt>
      <trkpt lat="17.017829040" lon="-96.465751430">
        <ele>2016.000</ele>
        <time>2017-01-13T22:00:31Z</time>
        <name>WPT.2370</name>
      </trkpt>
      <trkpt lat="17.017735590" lon="-96.465722560">
        <ele>2013.000</ele>
        <time>2017-01-13T22:00:32Z</time>
        <name>WPT.2371</name>
      </trkpt>
      <trkpt lat="17.017611550" lon="-96.465702820">
        <ele>2012.000</ele>
        <time>2017-01-13T22:00:33Z</time>
        <name>WPT.2372</name>
      </trkpt>
      <trkpt lat="17.017503040" lon="-96.465670830">
        <ele>2012.000</ele>
        <time>2017-01-13T22:00:34Z</time>
        <name>WPT.2373</name>
      </trkpt>
      <trkpt lat="17.017381190" lon="-96.465637480">
        <ele>2010.000</ele>
        <time>2017-01-13T22:00:35Z</time>
        <name>WPT.2374</name>
      </trkpt>
      <trkpt lat="17.017254010" lon="-96.465641390">
        <ele>2007.000</ele>
        <time>2017-01-13T22:00:36Z</time>
        <name>WPT.2375</name>
      </trkpt>
      <trkpt lat="17.017122720" lon="-96.465611890">
        <ele>2007.000</ele>
        <time>2017-01-13T22:00:37Z</time>
        <name>WPT.2376</name>
      </trkpt>
      <trkpt lat="17.016997300" lon="-96.465591250">
        <ele>2007.000</ele>
        <time>2017-01-13T22:00:38Z</time>
        <name>WPT.2377</name>
      </trkpt>
      <trkpt lat="17.016877390" lon="-96.465562780">
        <ele>2005.000</ele>
        <time>2017-01-13T22:00:39Z</time>
        <name>WPT.2378</name>
      </trkpt>
      <trkpt lat="17.016782720" lon="-96.465513160">
        <ele>2004.000</ele>
        <time>2017-01-13T22:00:40Z</time>
        <name>WPT.2379</name>
      </trkpt>
      <trkpt lat="17.016681310" lon="-96.465453570">
        <ele>2002.000</ele>
        <time>2017-01-13T22:00:41Z</time>
        <name>WPT.2380</name>
      </trkpt>
      <trkpt lat="17.016580310" lon="-96.465382550">
        <ele>2001.000</ele>
        <time>2017-01-13T22:00:42Z</time>
        <name>WPT.2381</name>
      </trkpt>
      <trkpt lat="17.016472730" lon="-96.465308700">
        <ele>2002.000</ele>
        <time>2017-01-13T22:00:43Z</time>
        <name>WPT.2382</name>
      </trkpt>
      <trkpt lat="17.016393280" lon="-96.465198910">
        <ele>2002.000</ele>
        <time>2017-01-13T22:00:44Z</time>
        <name>WPT.2383</name>
      </trkpt>
      <trkpt lat="17.016319020" lon="-96.465117340">
        <ele>2001.000</ele>
        <time>2017-01-13T22:00:45Z</time>
        <name>WPT.2384</name>
      </trkpt>
      <trkpt lat="17.016277860" lon="-96.464980440">
        <ele>2000.000</ele>
        <time>2017-01-13T22:00:46Z</time>
        <name>WPT.2385</name>
      </trkpt>
      <trkpt lat="17.016175980" lon="-96.464865200">
        <ele>1998.000</ele>
        <time>2017-01-13T22:00:47Z</time>
        <name>WPT.2386</name>
      </trkpt>
      <trkpt lat="17.016120280" lon="-96.464761930">
        <ele>1998.000</ele>
        <time>2017-01-13T22:00:48Z</time>
        <name>WPT.2387</name>
      </trkpt>
      <trkpt lat="17.016047830" lon="-96.464643910">
        <ele>1996.000</ele>
        <time>2017-01-13T22:00:49Z</time>
        <name>WPT.2388</name>
      </trkpt>
      <trkpt lat="17.015952950" lon="-96.464534380">
        <ele>1995.000</ele>
        <time>2017-01-13T22:00:50Z</time>
        <name>WPT.2389</name>
      </trkpt>
      <trkpt lat="17.015882190" lon="-96.464422150">
        <ele>1995.000</ele>
        <time>2017-01-13T22:00:51Z</time>
        <name>WPT.2390</name>
      </trkpt>
      <trkpt lat="17.015814720" lon="-96.464306670">
        <ele>1993.000</ele>
        <time>2017-01-13T22:00:52Z</time>
        <name>WPT.2391</name>
      </trkpt>
      <trkpt lat="17.015745710" lon="-96.464176020">
        <ele>1994.000</ele>
        <time>2017-01-13T22:00:53Z</time>
        <name>WPT.2392</name>
      </trkpt>
      <trkpt lat="17.015669550" lon="-96.464034350">
        <ele>1991.000</ele>
        <time>2017-01-13T22:00:54Z</time>
        <name>WPT.2393</name>
      </trkpt>
      <trkpt lat="17.015633490" lon="-96.463864380">
        <ele>1990.000</ele>
        <time>2017-01-13T22:00:55Z</time>
        <name>WPT.2394</name>
      </trkpt>
      <trkpt lat="17.015600250" lon="-96.463726860">
        <ele>1990.000</ele>
        <time>2017-01-13T22:00:56Z</time>
        <name>WPT.2395</name>
      </trkpt>
      <trkpt lat="17.015528760" lon="-96.463566890">
        <ele>1987.000</ele>
        <time>2017-01-13T22:00:57Z</time>
        <name>WPT.2396</name>
      </trkpt>
      <trkpt lat="17.015449690" lon="-96.463405530">
        <ele>1986.000</ele>
        <time>2017-01-13T22:00:58Z</time>
        <name>WPT.2397</name>
      </trkpt>
      <trkpt lat="17.015379290" lon="-96.463260110">
        <ele>1984.000</ele>
        <time>2017-01-13T22:00:59Z</time>
        <name>WPT.2398</name>
      </trkpt>
      <trkpt lat="17.015247680" lon="-96.463124760">
        <ele>1980.000</ele>
        <time>2017-01-13T22:01:00Z</time>
        <name>WPT.2399</name>
      </trkpt>
      <trkpt lat="17.015145470" lon="-96.462978250">
        <ele>1977.000</ele>
        <time>2017-01-13T22:01:01Z</time>
        <name>WPT.2400</name>
      </trkpt>
      <trkpt lat="17.015024790" lon="-96.462834420">
        <ele>1974.000</ele>
        <time>2017-01-13T22:01:02Z</time>
        <name>WPT.2401</name>
      </trkpt>
      <trkpt lat="17.014895910" lon="-96.462687430">
        <ele>1971.000</ele>
        <time>2017-01-13T22:01:03Z</time>
        <name>WPT.2402</name>
      </trkpt>
      <trkpt lat="17.014766240" lon="-96.462554400">
        <ele>1969.000</ele>
        <time>2017-01-13T22:01:04Z</time>
        <name>WPT.2403</name>
      </trkpt>
      <trkpt lat="17.014637040" lon="-96.462395780">
        <ele>1968.000</ele>
        <time>2017-01-13T22:01:05Z</time>
        <name>WPT.2404</name>
      </trkpt>
      <trkpt lat="17.014508160" lon="-96.462234980">
        <ele>1965.000</ele>
        <time>2017-01-13T22:01:06Z</time>
        <name>WPT.2405</name>
      </trkpt>
      <trkpt lat="17.014368750" lon="-96.462080170">
        <ele>1963.000</ele>
        <time>2017-01-13T22:01:07Z</time>
        <name>WPT.2406</name>
      </trkpt>
      <trkpt lat="17.014239880" lon="-96.461923390">
        <ele>1961.000</ele>
        <time>2017-01-13T22:01:08Z</time>
        <name>WPT.2407</name>
      </trkpt>
      <trkpt lat="17.014118920" lon="-96.461774390">
        <ele>1959.000</ele>
        <time>2017-01-13T22:01:09Z</time>
        <name>WPT.2408</name>
      </trkpt>
      <trkpt lat="17.013783110" lon="-96.461368220">
        <ele>1954.000</ele>
        <time>2017-01-13T22:01:12Z</time>
        <name>WPT.2409</name>
      </trkpt>
      <trkpt lat="17.013663160" lon="-96.461219930">
        <ele>1952.000</ele>
        <time>2017-01-13T22:01:13Z</time>
        <name>WPT.2410</name>
      </trkpt>
      <trkpt lat="17.013549750" lon="-96.461076240">
        <ele>1950.000</ele>
        <time>2017-01-13T22:01:14Z</time>
        <name>WPT.2411</name>
      </trkpt>
      <trkpt lat="17.013425380" lon="-96.460925980">
        <ele>1948.000</ele>
        <time>2017-01-13T22:01:15Z</time>
        <name>WPT.2412</name>
      </trkpt>
      <trkpt lat="17.013303030" lon="-96.460772660">
        <ele>1946.000</ele>
        <time>2017-01-13T22:01:16Z</time>
        <name>WPT.2413</name>
      </trkpt>
      <trkpt lat="17.013183690" lon="-96.460612980">
        <ele>1943.000</ele>
        <time>2017-01-13T22:01:17Z</time>
        <name>WPT.2414</name>
      </trkpt>
      <trkpt lat="17.013059960" lon="-96.460444740">
        <ele>1940.000</ele>
        <time>2017-01-13T22:01:18Z</time>
        <name>WPT.2415</name>
      </trkpt>
      <trkpt lat="17.012929410" lon="-96.460274980">
        <ele>1940.000</ele>
        <time>2017-01-13T22:01:19Z</time>
        <name>WPT.2416</name>
      </trkpt>
      <trkpt lat="17.012793750" lon="-96.460115550">
        <ele>1936.000</ele>
        <time>2017-01-13T22:01:20Z</time>
        <name>WPT.2417</name>
      </trkpt>
      <trkpt lat="17.012645850" lon="-96.459937040">
        <ele>1934.000</ele>
        <time>2017-01-13T22:01:21Z</time>
        <name>WPT.2418</name>
      </trkpt>
      <trkpt lat="17.012501840" lon="-96.459755800">
        <ele>1931.000</ele>
        <time>2017-01-13T22:01:22Z</time>
        <name>WPT.2419</name>
      </trkpt>
      <trkpt lat="17.012354450" lon="-96.459570510">
        <ele>1928.000</ele>
        <time>2017-01-13T22:01:23Z</time>
        <name>WPT.2420</name>
      </trkpt>
      <trkpt lat="17.012212350" lon="-96.459383130">
        <ele>1926.000</ele>
        <time>2017-01-13T22:01:24Z</time>
        <name>WPT.2421</name>
      </trkpt>
      <trkpt lat="17.012065710" lon="-96.459205450">
        <ele>1923.000</ele>
        <time>2017-01-13T22:01:25Z</time>
        <name>WPT.2422</name>
      </trkpt>
      <trkpt lat="17.011917740" lon="-96.459023500">
        <ele>1920.000</ele>
        <time>2017-01-13T22:01:26Z</time>
        <name>WPT.2423</name>
      </trkpt>
      <trkpt lat="17.011771600" lon="-96.458847960">
        <ele>1917.000</ele>
        <time>2017-01-13T22:01:27Z</time>
        <name>WPT.2424</name>
      </trkpt>
      <trkpt lat="17.011632310" lon="-96.458679440">
        <ele>1915.000</ele>
        <time>2017-01-13T22:01:28Z</time>
        <name>WPT.2425</name>
      </trkpt>
      <trkpt lat="17.011484650" lon="-96.458506200">
        <ele>1913.000</ele>
        <time>2017-01-13T22:01:29Z</time>
        <name>WPT.2426</name>
      </trkpt>
      <trkpt lat="17.011223660" lon="-96.458163510">
        <ele>1908.000</ele>
        <time>2017-01-13T22:01:31Z</time>
        <name>WPT.2427</name>
      </trkpt>
      <trkpt lat="17.011086250" lon="-96.457991190">
        <ele>1906.000</ele>
        <time>2017-01-13T22:01:32Z</time>
        <name>WPT.2428</name>
      </trkpt>
      <trkpt lat="17.010956470" lon="-96.457818870">
        <ele>1905.000</ele>
        <time>2017-01-13T22:01:33Z</time>
        <name>WPT.2429</name>
      </trkpt>
      <trkpt lat="17.010826290" lon="-96.457660430">
        <ele>1902.000</ele>
        <time>2017-01-13T22:01:34Z</time>
        <name>WPT.2430</name>
      </trkpt>
      <trkpt lat="17.010706730" lon="-96.457515690">
        <ele>1898.000</ele>
        <time>2017-01-13T22:01:35Z</time>
        <name>WPT.2431</name>
      </trkpt>
      <trkpt lat="17.010586600" lon="-96.457365280">
        <ele>1897.000</ele>
        <time>2017-01-13T22:01:36Z</time>
        <name>WPT.2432</name>
      </trkpt>
      <trkpt lat="17.010473990" lon="-96.457214990">
        <ele>1895.000</ele>
        <time>2017-01-13T22:01:37Z</time>
        <name>WPT.2433</name>
      </trkpt>
      <trkpt lat="17.010353670" lon="-96.457058270">
        <ele>1894.000</ele>
        <time>2017-01-13T22:01:38Z</time>
        <name>WPT.2434</name>
      </trkpt>
      <trkpt lat="17.010234520" lon="-96.456908030">
        <ele>1893.000</ele>
        <time>2017-01-13T22:01:39Z</time>
        <name>WPT.2435</name>
      </trkpt>
      <trkpt lat="17.010118480" lon="-96.456759140">
        <ele>1892.000</ele>
        <time>2017-01-13T22:01:40Z</time>
        <name>WPT.2436</name>
      </trkpt>
      <trkpt lat="17.009998990" lon="-96.456615270">
        <ele>1891.000</ele>
        <time>2017-01-13T22:01:41Z</time>
        <name>WPT.2437</name>
      </trkpt>
      <trkpt lat="17.009884580" lon="-96.456475910">
        <ele>1890.000</ele>
        <time>2017-01-13T22:01:42Z</time>
        <name>WPT.2438</name>
      </trkpt>
      <trkpt lat="17.009778660" lon="-96.456338380">
        <ele>1890.000</ele>
        <time>2017-01-13T22:01:43Z</time>
        <name>WPT.2439</name>
      </trkpt>
      <trkpt lat="17.009673000" lon="-96.456225910">
        <ele>1888.000</ele>
        <time>2017-01-13T22:01:44Z</time>
        <name>WPT.2440</name>
      </trkpt>
      <trkpt lat="17.009563880" lon="-96.456113050">
        <ele>1887.000</ele>
        <time>2017-01-13T22:01:45Z</time>
        <name>WPT.2441</name>
      </trkpt>
      <trkpt lat="17.009461710" lon="-96.456013220">
        <ele>1887.000</ele>
        <time>2017-01-13T22:01:46Z</time>
        <name>WPT.2442</name>
      </trkpt>
      <trkpt lat="17.009368390" lon="-96.455910570">
        <ele>1886.000</ele>
        <time>2017-01-13T22:01:47Z</time>
        <name>WPT.2443</name>
      </trkpt>
      <trkpt lat="17.009278060" lon="-96.455814610">
        <ele>1885.000</ele>
        <time>2017-01-13T22:01:48Z</time>
        <name>WPT.2444</name>
      </trkpt>
      <trkpt lat="17.009217690" lon="-96.455715800">
        <ele>1885.000</ele>
        <time>2017-01-13T22:01:49Z</time>
        <name>WPT.2445</name>
      </trkpt>
      <trkpt lat="17.009170760" lon="-96.455613250">
        <ele>1885.000</ele>
        <time>2017-01-13T22:01:50Z</time>
        <name>WPT.2446</name>
      </trkpt>
      <trkpt lat="17.009142290" lon="-96.455505580">
        <ele>1883.000</ele>
        <time>2017-01-13T22:01:51Z</time>
        <name>WPT.2447</name>
      </trkpt>
      <trkpt lat="17.009125840" lon="-96.455407750">
        <ele>1883.000</ele>
        <time>2017-01-13T22:01:52Z</time>
        <name>WPT.2448</name>
      </trkpt>
      <trkpt lat="17.009114140" lon="-96.455299990">
        <ele>1882.000</ele>
        <time>2017-01-13T22:01:53Z</time>
        <name>WPT.2449</name>
      </trkpt>
      <trkpt lat="17.009161010" lon="-96.455182220">
        <ele>1882.000</ele>
        <time>2017-01-13T22:01:54Z</time>
        <name>WPT.2450</name>
      </trkpt>
      <trkpt lat="17.009217410" lon="-96.455079050">
        <ele>1882.000</ele>
        <time>2017-01-13T22:01:55Z</time>
        <name>WPT.2451</name>
      </trkpt>
      <trkpt lat="17.009325190" lon="-96.454956060">
        <ele>1881.000</ele>
        <time>2017-01-13T22:01:56Z</time>
        <name>WPT.2452</name>
      </trkpt>
      <trkpt lat="17.009415880" lon="-96.454834690">
        <ele>1882.000</ele>
        <time>2017-01-13T22:01:57Z</time>
        <name>WPT.2453</name>
      </trkpt>
      <trkpt lat="17.009516280" lon="-96.454721410">
        <ele>1882.000</ele>
        <time>2017-01-13T22:01:58Z</time>
        <name>WPT.2454</name>
      </trkpt>
      <trkpt lat="17.009602630" lon="-96.454621100">
        <ele>1880.000</ele>
        <time>2017-01-13T22:01:59Z</time>
        <name>WPT.2455</name>
      </trkpt>
      <trkpt lat="17.009718990" lon="-96.454553140">
        <ele>1876.000</ele>
        <time>2017-01-13T22:02:00Z</time>
        <name>WPT.2456</name>
      </trkpt>
      <trkpt lat="17.009816060" lon="-96.454464640">
        <ele>1875.000</ele>
        <time>2017-01-13T22:02:01Z</time>
        <name>WPT.2457</name>
      </trkpt>
      <trkpt lat="17.009914470" lon="-96.454396180">
        <ele>1872.000</ele>
        <time>2017-01-13T22:02:02Z</time>
        <name>WPT.2458</name>
      </trkpt>
      <trkpt lat="17.010000050" lon="-96.454329460">
        <ele>1870.000</ele>
        <time>2017-01-13T22:02:03Z</time>
        <name>WPT.2459</name>
      </trkpt>
      <trkpt lat="17.010082660" lon="-96.454258730">
        <ele>1869.000</ele>
        <time>2017-01-13T22:02:04Z</time>
        <name>WPT.2460</name>
      </trkpt>
      <trkpt lat="17.010149330" lon="-96.454182580">
        <ele>1868.000</ele>
        <time>2017-01-13T22:02:05Z</time>
        <name>WPT.2461</name>
      </trkpt>
      <trkpt lat="17.010197390" lon="-96.454097740">
        <ele>1867.000</ele>
        <time>2017-01-13T22:02:06Z</time>
        <name>WPT.2462</name>
      </trkpt>
      <trkpt lat="17.010236160" lon="-96.454017710">
        <ele>1866.000</ele>
        <time>2017-01-13T22:02:07Z</time>
        <name>WPT.2463</name>
      </trkpt>
      <trkpt lat="17.010267770" lon="-96.453915290">
        <ele>1866.000</ele>
        <time>2017-01-13T22:02:08Z</time>
        <name>WPT.2464</name>
      </trkpt>
      <trkpt lat="17.010191050" lon="-96.453829370">
        <ele>1864.000</ele>
        <time>2017-01-13T22:02:09Z</time>
        <name>WPT.2465</name>
      </trkpt>
      <trkpt lat="17.010125960" lon="-96.453727210">
        <ele>1862.000</ele>
        <time>2017-01-13T22:02:10Z</time>
        <name>WPT.2466</name>
      </trkpt>
      <trkpt lat="17.010054080" lon="-96.453635180">
        <ele>1861.000</ele>
        <time>2017-01-13T22:02:11Z</time>
        <name>WPT.2467</name>
      </trkpt>
      <trkpt lat="17.009979410" lon="-96.453538980">
        <ele>1860.000</ele>
        <time>2017-01-13T22:02:12Z</time>
        <name>WPT.2468</name>
      </trkpt>
      <trkpt lat="17.009891930" lon="-96.453449420">
        <ele>1860.000</ele>
        <time>2017-01-13T22:02:13Z</time>
        <name>WPT.2469</name>
      </trkpt>
      <trkpt lat="17.009778350" lon="-96.453389620">
        <ele>1857.000</ele>
        <time>2017-01-13T22:02:14Z</time>
        <name>WPT.2470</name>
      </trkpt>
      <trkpt lat="17.009675270" lon="-96.453340980">
        <ele>1857.000</ele>
        <time>2017-01-13T22:02:15Z</time>
        <name>WPT.2471</name>
      </trkpt>
      <trkpt lat="17.009543070" lon="-96.453355070">
        <ele>1854.000</ele>
        <time>2017-01-13T22:02:16Z</time>
        <name>WPT.2472</name>
      </trkpt>
      <trkpt lat="17.009406390" lon="-96.453376350">
        <ele>1852.000</ele>
        <time>2017-01-13T22:02:17Z</time>
        <name>WPT.2473</name>
      </trkpt>
      <trkpt lat="17.009278970" lon="-96.453401450">
        <ele>1851.000</ele>
        <time>2017-01-13T22:02:18Z</time>
        <name>WPT.2474</name>
      </trkpt>
      <trkpt lat="17.009152770" lon="-96.453437090">
        <ele>1851.000</ele>
        <time>2017-01-13T22:02:19Z</time>
        <name>WPT.2475</name>
      </trkpt>
      <trkpt lat="17.009045210" lon="-96.453543280">
        <ele>1848.000</ele>
        <time>2017-01-13T22:02:20Z</time>
        <name>WPT.2476</name>
      </trkpt>
      <trkpt lat="17.008922060" lon="-96.453603440">
        <ele>1847.000</ele>
        <time>2017-01-13T22:02:21Z</time>
        <name>WPT.2477</name>
      </trkpt>
      <trkpt lat="17.008805260" lon="-96.453667250">
        <ele>1846.000</ele>
        <time>2017-01-13T22:02:22Z</time>
        <name>WPT.2478</name>
      </trkpt>
      <trkpt lat="17.008697470" lon="-96.453722570">
        <ele>1844.000</ele>
        <time>2017-01-13T22:02:23Z</time>
        <name>WPT.2479</name>
      </trkpt>
      <trkpt lat="17.008582590" lon="-96.453772590">
        <ele>1842.000</ele>
        <time>2017-01-13T22:02:24Z</time>
        <name>WPT.2480</name>
      </trkpt>
      <trkpt lat="17.008460630" lon="-96.453804940">
        <ele>1840.000</ele>
        <time>2017-01-13T22:02:25Z</time>
        <name>WPT.2481</name>
      </trkpt>
      <trkpt lat="17.008339140" lon="-96.453803380">
        <ele>1839.000</ele>
        <time>2017-01-13T22:02:26Z</time>
        <name>WPT.2482</name>
      </trkpt>
      <trkpt lat="17.008217540" lon="-96.453787520">
        <ele>1838.000</ele>
        <time>2017-01-13T22:02:27Z</time>
        <name>WPT.2483</name>
      </trkpt>
      <trkpt lat="17.008089700" lon="-96.453736340">
        <ele>1836.000</ele>
        <time>2017-01-13T22:02:28Z</time>
        <name>WPT.2484</name>
      </trkpt>
      <trkpt lat="17.007959100" lon="-96.453682190">
        <ele>1835.000</ele>
        <time>2017-01-13T22:02:29Z</time>
        <name>WPT.2485</name>
      </trkpt>
      <trkpt lat="17.007828710" lon="-96.453619280">
        <ele>1834.000</ele>
        <time>2017-01-13T22:02:30Z</time>
        <name>WPT.2486</name>
      </trkpt>
      <trkpt lat="17.007698870" lon="-96.453551320">
        <ele>1832.000</ele>
        <time>2017-01-13T22:02:31Z</time>
        <name>WPT.2487</name>
      </trkpt>
      <trkpt lat="17.007583020" lon="-96.453499670">
        <ele>1831.000</ele>
        <time>2017-01-13T22:02:32Z</time>
        <name>WPT.2488</name>
      </trkpt>
      <trkpt lat="17.007448120" lon="-96.453468640">
        <ele>1829.000</ele>
        <time>2017-01-13T22:02:33Z</time>
        <name>WPT.2489</name>
      </trkpt>
      <trkpt lat="17.007335860" lon="-96.453441690">
        <ele>1828.000</ele>
        <time>2017-01-13T22:02:34Z</time>
        <name>WPT.2490</name>
      </trkpt>
      <trkpt lat="17.007229210" lon="-96.453436940">
        <ele>1826.000</ele>
        <time>2017-01-13T22:02:35Z</time>
        <name>WPT.2491</name>
      </trkpt>
      <trkpt lat="17.007121820" lon="-96.453445500">
        <ele>1823.000</ele>
        <time>2017-01-13T22:02:36Z</time>
        <name>WPT.2492</name>
      </trkpt>
      <trkpt lat="17.007023000" lon="-96.453474130">
        <ele>1823.000</ele>
        <time>2017-01-13T22:02:37Z</time>
        <name>WPT.2493</name>
      </trkpt>
      <trkpt lat="17.006939520" lon="-96.453529400">
        <ele>1822.000</ele>
        <time>2017-01-13T22:02:38Z</time>
        <name>WPT.2494</name>
      </trkpt>
      <trkpt lat="17.006847980" lon="-96.453632450">
        <ele>1820.000</ele>
        <time>2017-01-13T22:02:39Z</time>
        <name>WPT.2495</name>
      </trkpt>
      <trkpt lat="17.006778030" lon="-96.453732580">
        <ele>1818.000</ele>
        <time>2017-01-13T22:02:40Z</time>
        <name>WPT.2496</name>
      </trkpt>
      <trkpt lat="17.006683290" lon="-96.453815900">
        <ele>1816.000</ele>
        <time>2017-01-13T22:02:41Z</time>
        <name>WPT.2497</name>
      </trkpt>
      <trkpt lat="17.006582880" lon="-96.453887460">
        <ele>1814.000</ele>
        <time>2017-01-13T22:02:42Z</time>
        <name>WPT.2498</name>
      </trkpt>
      <trkpt lat="17.006470830" lon="-96.453950840">
        <ele>1812.000</ele>
        <time>2017-01-13T22:02:43Z</time>
        <name>WPT.2499</name>
      </trkpt>
      <trkpt lat="17.006358900" lon="-96.453992370">
        <ele>1812.000</ele>
        <time>2017-01-13T22:02:44Z</time>
        <name>WPT.2500</name>
      </trkpt>
      <trkpt lat="17.006245460" lon="-96.454027490">
        <ele>1811.000</ele>
        <time>2017-01-13T22:02:45Z</time>
        <name>WPT.2501</name>
      </trkpt>
      <trkpt lat="17.006133500" lon="-96.454040940">
        <ele>1811.000</ele>
        <time>2017-01-13T22:02:46Z</time>
        <name>WPT.2502</name>
      </trkpt>
      <trkpt lat="17.006019980" lon="-96.454031050">
        <ele>1810.000</ele>
        <time>2017-01-13T22:02:47Z</time>
        <name>WPT.2503</name>
      </trkpt>
      <trkpt lat="17.005916960" lon="-96.453986790">
        <ele>1809.000</ele>
        <time>2017-01-13T22:02:48Z</time>
        <name>WPT.2504</name>
      </trkpt>
      <trkpt lat="17.005823470" lon="-96.453905440">
        <ele>1808.000</ele>
        <time>2017-01-13T22:02:49Z</time>
        <name>WPT.2505</name>
      </trkpt>
      <trkpt lat="17.005748260" lon="-96.453800120">
        <ele>1808.000</ele>
        <time>2017-01-13T22:02:50Z</time>
        <name>WPT.2506</name>
      </trkpt>
      <trkpt lat="17.005668910" lon="-96.453686400">
        <ele>1807.000</ele>
        <time>2017-01-13T22:02:51Z</time>
        <name>WPT.2507</name>
      </trkpt>
      <trkpt lat="17.005587870" lon="-96.453577190">
        <ele>1806.000</ele>
        <time>2017-01-13T22:02:52Z</time>
        <name>WPT.2508</name>
      </trkpt>
      <trkpt lat="17.005515390" lon="-96.453460750">
        <ele>1806.000</ele>
        <time>2017-01-13T22:02:53Z</time>
        <name>WPT.2509</name>
      </trkpt>
      <trkpt lat="17.005439180" lon="-96.453353010">
        <ele>1805.000</ele>
        <time>2017-01-13T22:02:54Z</time>
        <name>WPT.2510</name>
      </trkpt>
      <trkpt lat="17.005365650" lon="-96.453251200">
        <ele>1804.000</ele>
        <time>2017-01-13T22:02:55Z</time>
        <name>WPT.2511</name>
      </trkpt>
      <trkpt lat="17.005293140" lon="-96.453147860">
        <ele>1803.000</ele>
        <time>2017-01-13T22:02:56Z</time>
        <name>WPT.2512</name>
      </trkpt>
      <trkpt lat="17.005220780" lon="-96.453035390">
        <ele>1802.000</ele>
        <time>2017-01-13T22:02:57Z</time>
        <name>WPT.2513</name>
      </trkpt>
      <trkpt lat="17.005144290" lon="-96.452918490">
        <ele>1802.000</ele>
        <time>2017-01-13T22:02:58Z</time>
        <name>WPT.2514</name>
      </trkpt>
      <trkpt lat="17.005054280" lon="-96.452815780">
        <ele>1800.000</ele>
        <time>2017-01-13T22:02:59Z</time>
        <name>WPT.2515</name>
      </trkpt>
      <trkpt lat="17.004947110" lon="-96.452727430">
        <ele>1799.000</ele>
        <time>2017-01-13T22:03:00Z</time>
        <name>WPT.2516</name>
      </trkpt>
      <trkpt lat="17.004834500" lon="-96.452659780">
        <ele>1797.000</ele>
        <time>2017-01-13T22:03:01Z</time>
        <name>WPT.2517</name>
      </trkpt>
      <trkpt lat="17.004711910" lon="-96.452593380">
        <ele>1796.000</ele>
        <time>2017-01-13T22:03:02Z</time>
        <name>WPT.2518</name>
      </trkpt>
      <trkpt lat="17.004584660" lon="-96.452552380">
        <ele>1794.000</ele>
        <time>2017-01-13T22:03:03Z</time>
        <name>WPT.2519</name>
      </trkpt>
      <trkpt lat="17.004459870" lon="-96.452495730">
        <ele>1793.000</ele>
        <time>2017-01-13T22:03:04Z</time>
        <name>WPT.2520</name>
      </trkpt>
      <trkpt lat="17.004329290" lon="-96.452440440">
        <ele>1791.000</ele>
        <time>2017-01-13T22:03:05Z</time>
        <name>WPT.2521</name>
      </trkpt>
      <trkpt lat="17.004205300" lon="-96.452387610">
        <ele>1790.000</ele>
        <time>2017-01-13T22:03:06Z</time>
        <name>WPT.2522</name>
      </trkpt>
      <trkpt lat="17.004091440" lon="-96.452341980">
        <ele>1789.000</ele>
        <time>2017-01-13T22:03:07Z</time>
        <name>WPT.2523</name>
      </trkpt>
      <trkpt lat="17.003976700" lon="-96.452294970">
        <ele>1788.000</ele>
        <time>2017-01-13T22:03:08Z</time>
        <name>WPT.2524</name>
      </trkpt>
      <trkpt lat="17.003884220" lon="-96.452230750">
        <ele>1787.000</ele>
        <time>2017-01-13T22:03:09Z</time>
        <name>WPT.2525</name>
      </trkpt>
      <trkpt lat="17.003607990" lon="-96.451615510">
        <ele>1781.000</ele>
        <time>2017-01-13T22:03:14Z</time>
        <name>WPT.2526</name>
      </trkpt>
      <trkpt lat="17.003587170" lon="-96.451457230">
        <ele>1780.000</ele>
        <time>2017-01-13T22:03:15Z</time>
        <name>WPT.2527</name>
      </trkpt>
      <trkpt lat="17.003552010" lon="-96.451292040">
        <ele>1779.000</ele>
        <time>2017-01-13T22:03:16Z</time>
        <name>WPT.2528</name>
      </trkpt>
      <trkpt lat="17.003495590" lon="-96.451150250">
        <ele>1777.000</ele>
        <time>2017-01-13T22:03:17Z</time>
        <name>WPT.2529</name>
      </trkpt>
      <trkpt lat="17.003417630" lon="-96.450997170">
        <ele>1776.000</ele>
        <time>2017-01-13T22:03:18Z</time>
        <name>WPT.2530</name>
      </trkpt>
      <trkpt lat="17.003315920" lon="-96.450879750">
        <ele>1775.000</ele>
        <time>2017-01-13T22:03:19Z</time>
        <name>WPT.2531</name>
      </trkpt>
      <trkpt lat="17.003212380" lon="-96.450757370">
        <ele>1774.000</ele>
        <time>2017-01-13T22:03:20Z</time>
        <name>WPT.2532</name>
      </trkpt>
      <trkpt lat="17.003074390" lon="-96.450639950">
        <ele>1773.000</ele>
        <time>2017-01-13T22:03:21Z</time>
        <name>WPT.2533</name>
      </trkpt>
      <trkpt lat="17.002926860" lon="-96.450532380">
        <ele>1772.000</ele>
        <time>2017-01-13T22:03:22Z</time>
        <name>WPT.2534</name>
      </trkpt>
      <trkpt lat="17.002771080" lon="-96.450408710">
        <ele>1771.000</ele>
        <time>2017-01-13T22:03:23Z</time>
        <name>WPT.2535</name>
      </trkpt>
      <trkpt lat="17.002588460" lon="-96.450310840">
        <ele>1768.000</ele>
        <time>2017-01-13T22:03:24Z</time>
        <name>WPT.2536</name>
      </trkpt>
      <trkpt lat="17.002406920" lon="-96.450202940">
        <ele>1767.000</ele>
        <time>2017-01-13T22:03:25Z</time>
        <name>WPT.2537</name>
      </trkpt>
      <trkpt lat="17.002218960" lon="-96.450083520">
        <ele>1765.000</ele>
        <time>2017-01-13T22:03:26Z</time>
        <name>WPT.2538</name>
      </trkpt>
      <trkpt lat="17.002017960" lon="-96.449975560">
        <ele>1763.000</ele>
        <time>2017-01-13T22:03:27Z</time>
        <name>WPT.2539</name>
      </trkpt>
      <trkpt lat="17.001829010" lon="-96.449841910">
        <ele>1762.000</ele>
        <time>2017-01-13T22:03:28Z</time>
        <name>WPT.2540</name>
      </trkpt>
      <trkpt lat="17.001626270" lon="-96.449697050">
        <ele>1760.000</ele>
        <time>2017-01-13T22:03:29Z</time>
        <name>WPT.2541</name>
      </trkpt>
      <trkpt lat="17.001418900" lon="-96.449572310">
        <ele>1758.000</ele>
        <time>2017-01-13T22:03:30Z</time>
        <name>WPT.2542</name>
      </trkpt>
      <trkpt lat="17.001221590" lon="-96.449439400">
        <ele>1757.000</ele>
        <time>2017-01-13T22:03:31Z</time>
        <name>WPT.2543</name>
      </trkpt>
      <trkpt lat="17.001025500" lon="-96.449295910">
        <ele>1757.000</ele>
        <time>2017-01-13T22:03:32Z</time>
        <name>WPT.2544</name>
      </trkpt>
      <trkpt lat="17.000832290" lon="-96.449159840">
        <ele>1757.000</ele>
        <time>2017-01-13T22:03:33Z</time>
        <name>WPT.2545</name>
      </trkpt>
      <trkpt lat="17.000640560" lon="-96.449023240">
        <ele>1757.000</ele>
        <time>2017-01-13T22:03:34Z</time>
        <name>WPT.2546</name>
      </trkpt>
      <trkpt lat="17.000444960" lon="-96.448887210">
        <ele>1756.000</ele>
        <time>2017-01-13T22:03:35Z</time>
        <name>WPT.2547</name>
      </trkpt>
      <trkpt lat="17.000264610" lon="-96.448760700">
        <ele>1755.000</ele>
        <time>2017-01-13T22:03:36Z</time>
        <name>WPT.2548</name>
      </trkpt>
      <trkpt lat="17.000064430" lon="-96.448638610">
        <ele>1752.000</ele>
        <time>2017-01-13T22:03:37Z</time>
        <name>WPT.2549</name>
      </trkpt>
      <trkpt lat="16.999878170" lon="-96.448518670">
        <ele>1752.000</ele>
        <time>2017-01-13T22:03:38Z</time>
        <name>WPT.2550</name>
      </trkpt>
      <trkpt lat="16.999696950" lon="-96.448398960">
        <ele>1751.000</ele>
        <time>2017-01-13T22:03:39Z</time>
        <name>WPT.2551</name>
      </trkpt>
      <trkpt lat="16.999526500" lon="-96.448274560">
        <ele>1750.000</ele>
        <time>2017-01-13T22:03:40Z</time>
        <name>WPT.2552</name>
      </trkpt>
      <trkpt lat="16.999352620" lon="-96.448150880">
        <ele>1750.000</ele>
        <time>2017-01-13T22:03:41Z</time>
        <name>WPT.2553</name>
      </trkpt>
      <trkpt lat="16.999186210" lon="-96.448034460">
        <ele>1749.000</ele>
        <time>2017-01-13T22:03:42Z</time>
        <name>WPT.2554</name>
      </trkpt>
      <trkpt lat="16.999012000" lon="-96.447917070">
        <ele>1748.000</ele>
        <time>2017-01-13T22:03:43Z</time>
        <name>WPT.2555</name>
      </trkpt>
      <trkpt lat="16.998844140" lon="-96.447799200">
        <ele>1748.000</ele>
        <time>2017-01-13T22:03:44Z</time>
        <name>WPT.2556</name>
      </trkpt>
      <trkpt lat="16.998665460" lon="-96.447683560">
        <ele>1748.000</ele>
        <time>2017-01-13T22:03:45Z</time>
        <name>WPT.2557</name>
      </trkpt>
      <trkpt lat="16.998482890" lon="-96.447573780">
        <ele>1746.000</ele>
        <time>2017-01-13T22:03:46Z</time>
        <name>WPT.2558</name>
      </trkpt>
      <trkpt lat="16.998304450" lon="-96.447462090">
        <ele>1745.000</ele>
        <time>2017-01-13T22:03:47Z</time>
        <name>WPT.2559</name>
      </trkpt>
      <trkpt lat="16.998128490" lon="-96.447354680">
        <ele>1744.000</ele>
        <time>2017-01-13T22:03:48Z</time>
        <name>WPT.2560</name>
      </trkpt>
      <trkpt lat="16.997956570" lon="-96.447247730">
        <ele>1742.000</ele>
        <time>2017-01-13T22:03:49Z</time>
        <name>WPT.2561</name>
      </trkpt>
      <trkpt lat="16.997784540" lon="-96.447140620">
        <ele>1741.000</ele>
        <time>2017-01-13T22:03:50Z</time>
        <name>WPT.2562</name>
      </trkpt>
      <trkpt lat="16.997623990" lon="-96.447038350">
        <ele>1741.000</ele>
        <time>2017-01-13T22:03:51Z</time>
        <name>WPT.2563</name>
      </trkpt>
      <trkpt lat="16.997471190" lon="-96.446949490">
        <ele>1740.000</ele>
        <time>2017-01-13T22:03:52Z</time>
        <name>WPT.2564</name>
      </trkpt>
      <trkpt lat="16.997317910" lon="-96.446858870">
        <ele>1739.000</ele>
        <time>2017-01-13T22:03:53Z</time>
        <name>WPT.2565</name>
      </trkpt>
      <trkpt lat="16.997179990" lon="-96.446773490">
        <ele>1738.000</ele>
        <time>2017-01-13T22:03:54Z</time>
        <name>WPT.2566</name>
      </trkpt>
      <trkpt lat="16.997040920" lon="-96.446699780">
        <ele>1738.000</ele>
        <time>2017-01-13T22:03:55Z</time>
        <name>WPT.2567</name>
      </trkpt>
      <trkpt lat="16.996934190" lon="-96.446614080">
        <ele>1737.000</ele>
        <time>2017-01-13T22:03:56Z</time>
        <name>WPT.2568</name>
      </trkpt>
      <trkpt lat="16.996826830" lon="-96.446518620">
        <ele>1734.000</ele>
        <time>2017-01-13T22:03:57Z</time>
        <name>WPT.2569</name>
      </trkpt>
      <trkpt lat="16.996746300" lon="-96.446430400">
        <ele>1735.000</ele>
        <time>2017-01-13T22:03:58Z</time>
        <name>WPT.2570</name>
      </trkpt>
      <trkpt lat="16.996685580" lon="-96.446297580">
        <ele>1734.000</ele>
        <time>2017-01-13T22:03:59Z</time>
        <name>WPT.2571</name>
      </trkpt>
      <trkpt lat="16.996627110" lon="-96.446170510">
        <ele>1734.000</ele>
        <time>2017-01-13T22:04:00Z</time>
        <name>WPT.2572</name>
      </trkpt>
      <trkpt lat="16.996586920" lon="-96.446008640">
        <ele>1734.000</ele>
        <time>2017-01-13T22:04:01Z</time>
        <name>WPT.2573</name>
      </trkpt>
      <trkpt lat="16.996576260" lon="-96.445835160">
        <ele>1733.000</ele>
        <time>2017-01-13T22:04:02Z</time>
        <name>WPT.2574</name>
      </trkpt>
      <trkpt lat="16.996554110" lon="-96.445657180">
        <ele>1733.000</ele>
        <time>2017-01-13T22:04:03Z</time>
        <name>WPT.2575</name>
      </trkpt>
      <trkpt lat="16.996565010" lon="-96.445464680">
        <ele>1732.000</ele>
        <time>2017-01-13T22:04:04Z</time>
        <name>WPT.2576</name>
      </trkpt>
      <trkpt lat="16.996600800" lon="-96.445269680">
        <ele>1734.000</ele>
        <time>2017-01-13T22:04:05Z</time>
        <name>WPT.2577</name>
      </trkpt>
      <trkpt lat="16.996598460" lon="-96.445080100">
        <ele>1733.000</ele>
        <time>2017-01-13T22:04:06Z</time>
        <name>WPT.2578</name>
      </trkpt>
      <trkpt lat="16.996598510" lon="-96.444889070">
        <ele>1733.000</ele>
        <time>2017-01-13T22:04:07Z</time>
        <name>WPT.2579</name>
      </trkpt>
      <trkpt lat="16.996602180" lon="-96.444705980">
        <ele>1733.000</ele>
        <time>2017-01-13T22:04:08Z</time>
        <name>WPT.2580</name>
      </trkpt>
      <trkpt lat="16.996628540" lon="-96.444513980">
        <ele>1732.000</ele>
        <time>2017-01-13T22:04:09Z</time>
        <name>WPT.2581</name>
      </trkpt>
      <trkpt lat="16.996634420" lon="-96.444334670">
        <ele>1732.000</ele>
        <time>2017-01-13T22:04:10Z</time>
        <name>WPT.2582</name>
      </trkpt>
      <trkpt lat="16.996638190" lon="-96.444148380">
        <ele>1732.000</ele>
        <time>2017-01-13T22:04:11Z</time>
        <name>WPT.2583</name>
      </trkpt>
      <trkpt lat="16.996648590" lon="-96.443965830">
        <ele>1732.000</ele>
        <time>2017-01-13T22:04:12Z</time>
        <name>WPT.2584</name>
      </trkpt>
      <trkpt lat="16.996636330" lon="-96.443782210">
        <ele>1732.000</ele>
        <time>2017-01-13T22:04:13Z</time>
        <name>WPT.2585</name>
      </trkpt>
      <trkpt lat="16.996611170" lon="-96.443592280">
        <ele>1730.000</ele>
        <time>2017-01-13T22:04:14Z</time>
        <name>WPT.2586</name>
      </trkpt>
      <trkpt lat="16.996614950" lon="-96.443413290">
        <ele>1730.000</ele>
        <time>2017-01-13T22:04:15Z</time>
        <name>WPT.2587</name>
      </trkpt>
      <trkpt lat="16.996604600" lon="-96.443238740">
        <ele>1731.000</ele>
        <time>2017-01-13T22:04:16Z</time>
        <name>WPT.2588</name>
      </trkpt>
      <trkpt lat="16.996599610" lon="-96.443047060">
        <ele>1731.000</ele>
        <time>2017-01-13T22:04:17Z</time>
        <name>WPT.2589</name>
      </trkpt>
      <trkpt lat="16.996605670" lon="-96.442865050">
        <ele>1732.000</ele>
        <time>2017-01-13T22:04:18Z</time>
        <name>WPT.2590</name>
      </trkpt>
      <trkpt lat="16.996614810" lon="-96.442681960">
        <ele>1732.000</ele>
        <time>2017-01-13T22:04:19Z</time>
        <name>WPT.2591</name>
      </trkpt>
      <trkpt lat="16.996599560" lon="-96.442500520">
        <ele>1732.000</ele>
        <time>2017-01-13T22:04:20Z</time>
        <name>WPT.2592</name>
      </trkpt>
      <trkpt lat="16.996605950" lon="-96.442323430">
        <ele>1731.000</ele>
        <time>2017-01-13T22:04:21Z</time>
        <name>WPT.2593</name>
      </trkpt>
      <trkpt lat="16.996593470" lon="-96.442143390">
        <ele>1731.000</ele>
        <time>2017-01-13T22:04:22Z</time>
        <name>WPT.2594</name>
      </trkpt>
      <trkpt lat="16.996564040" lon="-96.441966080">
        <ele>1730.000</ele>
        <time>2017-01-13T22:04:23Z</time>
        <name>WPT.2595</name>
      </trkpt>
      <trkpt lat="16.996513470" lon="-96.441802340">
        <ele>1729.000</ele>
        <time>2017-01-13T22:04:24Z</time>
        <name>WPT.2596</name>
      </trkpt>
      <trkpt lat="16.996485050" lon="-96.441625420">
        <ele>1728.000</ele>
        <time>2017-01-13T22:04:25Z</time>
        <name>WPT.2597</name>
      </trkpt>
      <trkpt lat="16.996488190" lon="-96.441455750">
        <ele>1728.000</ele>
        <time>2017-01-13T22:04:26Z</time>
        <name>WPT.2598</name>
      </trkpt>
      <trkpt lat="16.996486650" lon="-96.441287270">
        <ele>1728.000</ele>
        <time>2017-01-13T22:04:27Z</time>
        <name>WPT.2599</name>
      </trkpt>
      <trkpt lat="16.996492560" lon="-96.441129710">
        <ele>1727.000</ele>
        <time>2017-01-13T22:04:28Z</time>
        <name>WPT.2600</name>
      </trkpt>
      <trkpt lat="16.996533260" lon="-96.440979060">
        <ele>1726.000</ele>
        <time>2017-01-13T22:04:29Z</time>
        <name>WPT.2601</name>
      </trkpt>
      <trkpt lat="16.996582560" lon="-96.440836540">
        <ele>1726.000</ele>
        <time>2017-01-13T22:04:30Z</time>
        <name>WPT.2602</name>
      </trkpt>
      <trkpt lat="16.996604430" lon="-96.440703480">
        <ele>1726.000</ele>
        <time>2017-01-13T22:04:31Z</time>
        <name>WPT.2603</name>
      </trkpt>
      <trkpt lat="16.996586650" lon="-96.440599710">
        <ele>1720.000</ele>
        <time>2017-01-13T22:04:32Z</time>
        <name>WPT.2604</name>
      </trkpt>
      <trkpt lat="16.996613780" lon="-96.440490790">
        <ele>1718.000</ele>
        <time>2017-01-13T22:04:33Z</time>
        <name>WPT.2605</name>
      </trkpt>
      <trkpt lat="16.996629840" lon="-96.440408900">
        <ele>1717.000</ele>
        <time>2017-01-13T22:04:34Z</time>
        <name>WPT.2606</name>
      </trkpt>
      <trkpt lat="16.996639310" lon="-96.440347260">
        <ele>1717.000</ele>
        <time>2017-01-13T22:04:35Z</time>
        <name>WPT.2607</name>
      </trkpt>
      <trkpt lat="16.996651860" lon="-96.440308770">
        <ele>1718.000</ele>
        <time>2017-01-13T22:04:36Z</time>
        <name>WPT.2608</name>
      </trkpt>
      <trkpt lat="16.996655970" lon="-96.440239070">
        <ele>1716.000</ele>
        <time>2017-01-13T22:04:38Z</time>
        <name>WPT.2609</name>
      </trkpt>
      <trkpt lat="16.996667740" lon="-96.440171240">
        <ele>1717.000</ele>
        <time>2017-01-13T22:04:40Z</time>
        <name>WPT.2610</name>
      </trkpt>
      <trkpt lat="16.996672490" lon="-96.440131510">
        <ele>1717.000</ele>
        <time>2017-01-13T22:04:41Z</time>
        <name>WPT.2611</name>
      </trkpt>
      <trkpt lat="16.996649020" lon="-96.440098070">
        <ele>1716.000</ele>
        <time>2017-01-13T22:04:42Z</time>
        <name>WPT.2612</name>
      </trkpt>
      <trkpt lat="16.996647320" lon="-96.440056550">
        <ele>1716.000</ele>
        <time>2017-01-13T22:04:43Z</time>
        <name>WPT.2613</name>
      </trkpt>
      <trkpt lat="16.996661160" lon="-96.439970300">
        <ele>1716.000</ele>
        <time>2017-01-13T22:04:45Z</time>
        <name>WPT.2614</name>
      </trkpt>
      <trkpt lat="16.996656360" lon="-96.439921490">
        <ele>1716.000</ele>
        <time>2017-01-13T22:04:46Z</time>
        <name>WPT.2615</name>
      </trkpt>
      <trkpt lat="16.996628220" lon="-96.439866780">
        <ele>1715.000</ele>
        <time>2017-01-13T22:04:47Z</time>
        <name>WPT.2616</name>
      </trkpt>
      <trkpt lat="16.996625490" lon="-96.439813040">
        <ele>1716.000</ele>
        <time>2017-01-13T22:04:48Z</time>
        <name>WPT.2617</name>
      </trkpt>
      <trkpt lat="16.996606440" lon="-96.439742740">
        <ele>1716.000</ele>
        <time>2017-01-13T22:04:49Z</time>
        <name>WPT.2618</name>
      </trkpt>
      <trkpt lat="16.996577500" lon="-96.439680870">
        <ele>1716.000</ele>
        <time>2017-01-13T22:04:50Z</time>
        <name>WPT.2619</name>
      </trkpt>
      <trkpt lat="16.996535840" lon="-96.439610290">
        <ele>1715.000</ele>
        <time>2017-01-13T22:04:51Z</time>
        <name>WPT.2620</name>
      </trkpt>
      <trkpt lat="16.996496810" lon="-96.439541150">
        <ele>1714.000</ele>
        <time>2017-01-13T22:04:52Z</time>
        <name>WPT.2621</name>
      </trkpt>
      <trkpt lat="16.996446100" lon="-96.439457880">
        <ele>1715.000</ele>
        <time>2017-01-13T22:04:53Z</time>
        <name>WPT.2622</name>
      </trkpt>
      <trkpt lat="16.996402280" lon="-96.439372940">
        <ele>1715.000</ele>
        <time>2017-01-13T22:04:54Z</time>
        <name>WPT.2623</name>
      </trkpt>
      <trkpt lat="16.996360980" lon="-96.439284300">
        <ele>1715.000</ele>
        <time>2017-01-13T22:04:55Z</time>
        <name>WPT.2624</name>
      </trkpt>
      <trkpt lat="16.996314050" lon="-96.439206290">
        <ele>1715.000</ele>
        <time>2017-01-13T22:04:56Z</time>
        <name>WPT.2625</name>
      </trkpt>
      <trkpt lat="16.996261070" lon="-96.439129920">
        <ele>1714.000</ele>
        <time>2017-01-13T22:04:57Z</time>
        <name>WPT.2626</name>
      </trkpt>
      <trkpt lat="16.996226100" lon="-96.439053020">
        <ele>1714.000</ele>
        <time>2017-01-13T22:04:58Z</time>
        <name>WPT.2627</name>
      </trkpt>
      <trkpt lat="16.996181500" lon="-96.438979270">
        <ele>1714.000</ele>
        <time>2017-01-13T22:04:59Z</time>
        <name>WPT.2628</name>
      </trkpt>
      <trkpt lat="16.996162690" lon="-96.438897050">
        <ele>1714.000</ele>
        <time>2017-01-13T22:05:00Z</time>
        <name>WPT.2629</name>
      </trkpt>
      <trkpt lat="16.996136000" lon="-96.438834590">
        <ele>1713.000</ele>
        <time>2017-01-13T22:05:01Z</time>
        <name>WPT.2630</name>
      </trkpt>
      <trkpt lat="16.996108340" lon="-96.438774600">
        <ele>1713.000</ele>
        <time>2017-01-13T22:05:02Z</time>
        <name>WPT.2631</name>
      </trkpt>
      <trkpt lat="16.996083820" lon="-96.438716690">
        <ele>1714.000</ele>
        <time>2017-01-13T22:05:03Z</time>
        <name>WPT.2632</name>
      </trkpt>
      <trkpt lat="16.996061930" lon="-96.438654280">
        <ele>1714.000</ele>
        <time>2017-01-13T22:05:04Z</time>
        <name>WPT.2633</name>
      </trkpt>
      <trkpt lat="16.996043660" lon="-96.438583670">
        <ele>1714.000</ele>
        <time>2017-01-13T22:05:05Z</time>
        <name>WPT.2634</name>
      </trkpt>
      <trkpt lat="16.996026420" lon="-96.438516400">
        <ele>1714.000</ele>
        <time>2017-01-13T22:05:06Z</time>
        <name>WPT.2635</name>
      </trkpt>
      <trkpt lat="16.996023960" lon="-96.438439250">
        <ele>1714.000</ele>
        <time>2017-01-13T22:05:07Z</time>
        <name>WPT.2636</name>
      </trkpt>
      <trkpt lat="16.996017850" lon="-96.438344480">
        <ele>1713.000</ele>
        <time>2017-01-13T22:05:08Z</time>
        <name>WPT.2637</name>
      </trkpt>
      <trkpt lat="16.996005100" lon="-96.438259640">
        <ele>1711.000</ele>
        <time>2017-01-13T22:05:09Z</time>
        <name>WPT.2638</name>
      </trkpt>
      <trkpt lat="16.995997360" lon="-96.438165210">
        <ele>1710.000</ele>
        <time>2017-01-13T22:05:10Z</time>
        <name>WPT.2639</name>
      </trkpt>
      <trkpt lat="16.996003810" lon="-96.438053930">
        <ele>1709.000</ele>
        <time>2017-01-13T22:05:11Z</time>
        <name>WPT.2640</name>
      </trkpt>
      <trkpt lat="16.995990360" lon="-96.437958750">
        <ele>1709.000</ele>
        <time>2017-01-13T22:05:12Z</time>
        <name>WPT.2641</name>
      </trkpt>
      <trkpt lat="16.995983140" lon="-96.437842230">
        <ele>1710.000</ele>
        <time>2017-01-13T22:05:13Z</time>
        <name>WPT.2642</name>
      </trkpt>
      <trkpt lat="16.995966030" lon="-96.437731500">
        <ele>1710.000</ele>
        <time>2017-01-13T22:05:14Z</time>
        <name>WPT.2643</name>
      </trkpt>
      <trkpt lat="16.995953040" lon="-96.437624170">
        <ele>1710.000</ele>
        <time>2017-01-13T22:05:15Z</time>
        <name>WPT.2644</name>
      </trkpt>
      <trkpt lat="16.995939960" lon="-96.437507830">
        <ele>1710.000</ele>
        <time>2017-01-13T22:05:16Z</time>
        <name>WPT.2645</name>
      </trkpt>
      <trkpt lat="16.995918850" lon="-96.437385130">
        <ele>1710.000</ele>
        <time>2017-01-13T22:05:17Z</time>
        <name>WPT.2646</name>
      </trkpt>
      <trkpt lat="16.995890260" lon="-96.437275800">
        <ele>1711.000</ele>
        <time>2017-01-13T22:05:18Z</time>
        <name>WPT.2647</name>
      </trkpt>
      <trkpt lat="16.995840620" lon="-96.437161790">
        <ele>1710.000</ele>
        <time>2017-01-13T22:05:19Z</time>
        <name>WPT.2648</name>
      </trkpt>
      <trkpt lat="16.995808130" lon="-96.437054800">
        <ele>1711.000</ele>
        <time>2017-01-13T22:05:20Z</time>
        <name>WPT.2649</name>
      </trkpt>
      <trkpt lat="16.995781090" lon="-96.436918600">
        <ele>1710.000</ele>
        <time>2017-01-13T22:05:21Z</time>
        <name>WPT.2650</name>
      </trkpt>
      <trkpt lat="16.995762830" lon="-96.436805510">
        <ele>1710.000</ele>
        <time>2017-01-13T22:05:22Z</time>
        <name>WPT.2651</name>
      </trkpt>
      <trkpt lat="16.995741370" lon="-96.436685630">
        <ele>1710.000</ele>
        <time>2017-01-13T22:05:23Z</time>
        <name>WPT.2652</name>
      </trkpt>
      <trkpt lat="16.995712320" lon="-96.436572670">
        <ele>1711.000</ele>
        <time>2017-01-13T22:05:24Z</time>
        <name>WPT.2653</name>
      </trkpt>
      <trkpt lat="16.995691200" lon="-96.436466040">
        <ele>1712.000</ele>
        <time>2017-01-13T22:05:25Z</time>
        <name>WPT.2654</name>
      </trkpt>
      <trkpt lat="16.995668240" lon="-96.436365890">
        <ele>1712.000</ele>
        <time>2017-01-13T22:05:26Z</time>
        <name>WPT.2655</name>
      </trkpt>
      <trkpt lat="16.995662660" lon="-96.436274750">
        <ele>1712.000</ele>
        <time>2017-01-13T22:05:27Z</time>
        <name>WPT.2656</name>
      </trkpt>
      <trkpt lat="16.995655410" lon="-96.436201430">
        <ele>1712.000</ele>
        <time>2017-01-13T22:05:28Z</time>
        <name>WPT.2657</name>
      </trkpt>
      <trkpt lat="16.995649580" lon="-96.436146200">
        <ele>1713.000</ele>
        <time>2017-01-13T22:05:29Z</time>
        <name>WPT.2658</name>
      </trkpt>
      <trkpt lat="16.995631650" lon="-96.436088690">
        <ele>1713.000</ele>
        <time>2017-01-13T22:05:30Z</time>
        <name>WPT.2659</name>
      </trkpt>
      <trkpt lat="16.995619170" lon="-96.436047320">
        <ele>1713.000</ele>
        <time>2017-01-13T22:05:31Z</time>
        <name>WPT.2660</name>
      </trkpt>
      <trkpt lat="16.995632460" lon="-96.435994910">
        <ele>1715.000</ele>
        <time>2017-01-13T22:05:33Z</time>
        <name>WPT.2661</name>
      </trkpt>
      <trkpt lat="16.995625810" lon="-96.435952700">
        <ele>1716.000</ele>
        <time>2017-01-13T22:05:34Z</time>
        <name>WPT.2662</name>
      </trkpt>
      <trkpt lat="16.995618750" lon="-96.435908460">
        <ele>1715.000</ele>
        <time>2017-01-13T22:05:35Z</time>
        <name>WPT.2663</name>
      </trkpt>
      <trkpt lat="16.995619200" lon="-96.435854550">
        <ele>1715.000</ele>
        <time>2017-01-13T22:05:36Z</time>
        <name>WPT.2664</name>
      </trkpt>
      <trkpt lat="16.995628390" lon="-96.435774560">
        <ele>1714.000</ele>
        <time>2017-01-13T22:05:37Z</time>
        <name>WPT.2665</name>
      </trkpt>
      <trkpt lat="16.995626440" lon="-96.435700480">
        <ele>1714.000</ele>
        <time>2017-01-13T22:05:38Z</time>
        <name>WPT.2666</name>
      </trkpt>
      <trkpt lat="16.995631210" lon="-96.435619820">
        <ele>1713.000</ele>
        <time>2017-01-13T22:05:39Z</time>
        <name>WPT.2667</name>
      </trkpt>
      <trkpt lat="16.995606690" lon="-96.435542240">
        <ele>1711.000</ele>
        <time>2017-01-13T22:05:40Z</time>
        <name>WPT.2668</name>
      </trkpt>
      <trkpt lat="16.995599010" lon="-96.435467050">
        <ele>1711.000</ele>
        <time>2017-01-13T22:05:41Z</time>
        <name>WPT.2669</name>
      </trkpt>
      <trkpt lat="16.995601240" lon="-96.435390950">
        <ele>1710.000</ele>
        <time>2017-01-13T22:05:42Z</time>
        <name>WPT.2670</name>
      </trkpt>
      <trkpt lat="16.995597500" lon="-96.435318620">
        <ele>1710.000</ele>
        <time>2017-01-13T22:05:43Z</time>
        <name>WPT.2671</name>
      </trkpt>
      <trkpt lat="16.995590700" lon="-96.435263160">
        <ele>1709.000</ele>
        <time>2017-01-13T22:05:44Z</time>
        <name>WPT.2672</name>
      </trkpt>
      <trkpt lat="16.995581610" lon="-96.435221210">
        <ele>1707.000</ele>
        <time>2017-01-13T22:05:45Z</time>
        <name>WPT.2673</name>
      </trkpt>
      <trkpt lat="16.995576360" lon="-96.435171360">
        <ele>1709.000</ele>
        <time>2017-01-13T22:05:49Z</time>
        <name>WPT.2674</name>
      </trkpt>
      <trkpt lat="16.995566460" lon="-96.435116260">
        <ele>1709.000</ele>
        <time>2017-01-13T22:05:51Z</time>
        <name>WPT.2675</name>
      </trkpt>
      <trkpt lat="16.995550900" lon="-96.435041430">
        <ele>1710.000</ele>
        <time>2017-01-13T22:05:53Z</time>
        <name>WPT.2676</name>
      </trkpt>
      <trkpt lat="16.995561920" lon="-96.434992850">
        <ele>1710.000</ele>
        <time>2017-01-13T22:05:54Z</time>
        <name>WPT.2677</name>
      </trkpt>
      <trkpt lat="16.995568470" lon="-96.434933060">
        <ele>1711.000</ele>
        <time>2017-01-13T22:05:55Z</time>
        <name>WPT.2678</name>
      </trkpt>
      <trkpt lat="16.995548030" lon="-96.434892960">
        <ele>1711.000</ele>
        <time>2017-01-13T22:05:56Z</time>
        <name>WPT.2679</name>
      </trkpt>
      <trkpt lat="16.995563070" lon="-96.434831830">
        <ele>1711.000</ele>
        <time>2017-01-13T22:05:57Z</time>
        <name>WPT.2680</name>
      </trkpt>
      <trkpt lat="16.995540100" lon="-96.434787290">
        <ele>1711.000</ele>
        <time>2017-01-13T22:05:58Z</time>
        <name>WPT.2681</name>
      </trkpt>
      <trkpt lat="16.995523330" lon="-96.434738660">
        <ele>1712.000</ele>
        <time>2017-01-13T22:05:59Z</time>
        <name>WPT.2682</name>
      </trkpt>
      <trkpt lat="16.995530190" lon="-96.434687290">
        <ele>1713.000</ele>
        <time>2017-01-13T22:06:00Z</time>
        <name>WPT.2683</name>
      </trkpt>
      <trkpt lat="16.995536290" lon="-96.434629010">
        <ele>1714.000</ele>
        <time>2017-01-13T22:06:01Z</time>
        <name>WPT.2684</name>
      </trkpt>
      <trkpt lat="16.995523450" lon="-96.434579530">
        <ele>1714.000</ele>
        <time>2017-01-13T22:06:02Z</time>
        <name>WPT.2685</name>
      </trkpt>
      <trkpt lat="16.995501460" lon="-96.434533480">
        <ele>1713.000</ele>
        <time>2017-01-13T22:06:03Z</time>
        <name>WPT.2686</name>
      </trkpt>
      <trkpt lat="16.995482160" lon="-96.434485090">
        <ele>1714.000</ele>
        <time>2017-01-13T22:06:04Z</time>
        <name>WPT.2687</name>
      </trkpt>
      <trkpt lat="16.995478080" lon="-96.434447590">
        <ele>1714.000</ele>
        <time>2017-01-13T22:06:05Z</time>
        <name>WPT.2688</name>
      </trkpt>
      <trkpt lat="16.995474820" lon="-96.434394320">
        <ele>1713.000</ele>
        <time>2017-01-13T22:06:06Z</time>
        <name>WPT.2689</name>
      </trkpt>
      <trkpt lat="16.995462800" lon="-96.434358770">
        <ele>1714.000</ele>
        <time>2017-01-13T22:06:07Z</time>
        <name>WPT.2690</name>
      </trkpt>
      <trkpt lat="16.995438490" lon="-96.434326380">
        <ele>1713.000</ele>
        <time>2017-01-13T22:06:08Z</time>
        <name>WPT.2691</name>
      </trkpt>
      <trkpt lat="16.995426230" lon="-96.434253470">
        <ele>1714.000</ele>
        <time>2017-01-13T22:06:10Z</time>
        <name>WPT.2692</name>
      </trkpt>
      <trkpt lat="16.995416900" lon="-96.434214100">
        <ele>1712.000</ele>
        <time>2017-01-13T22:06:11Z</time>
        <name>WPT.2693</name>
      </trkpt>
      <trkpt lat="16.995406850" lon="-96.434165260">
        <ele>1713.000</ele>
        <time>2017-01-13T22:06:13Z</time>
        <name>WPT.2694</name>
      </trkpt>
      <trkpt lat="16.995399780" lon="-96.434120560">
        <ele>1712.000</ele>
        <time>2017-01-13T22:06:16Z</time>
        <name>WPT.2695</name>
      </trkpt>
      <trkpt lat="16.995395150" lon="-96.434064250">
        <ele>1714.000</ele>
        <time>2017-01-13T22:06:18Z</time>
        <name>WPT.2696</name>
      </trkpt>
      <trkpt lat="16.995377110" lon="-96.434030130">
        <ele>1713.000</ele>
        <time>2017-01-13T22:06:19Z</time>
        <name>WPT.2697</name>
      </trkpt>
      <trkpt lat="16.995371180" lon="-96.433981410">
        <ele>1712.000</ele>
        <time>2017-01-13T22:06:20Z</time>
        <name>WPT.2698</name>
      </trkpt>
      <trkpt lat="16.995362220" lon="-96.433923000">
        <ele>1713.000</ele>
        <time>2017-01-13T22:06:21Z</time>
        <name>WPT.2699</name>
      </trkpt>
      <trkpt lat="16.995351250" lon="-96.433857640">
        <ele>1712.000</ele>
        <time>2017-01-13T22:06:22Z</time>
        <name>WPT.2700</name>
      </trkpt>
      <trkpt lat="16.995343840" lon="-96.433790740">
        <ele>1712.000</ele>
        <time>2017-01-13T22:06:23Z</time>
        <name>WPT.2701</name>
      </trkpt>
      <trkpt lat="16.995331220" lon="-96.433727450">
        <ele>1711.000</ele>
        <time>2017-01-13T22:06:24Z</time>
        <name>WPT.2702</name>
      </trkpt>
      <trkpt lat="16.995315680" lon="-96.433668860">
        <ele>1709.000</ele>
        <time>2017-01-13T22:06:25Z</time>
        <name>WPT.2703</name>
      </trkpt>
      <trkpt lat="16.995309050" lon="-96.433610450">
        <ele>1710.000</ele>
        <time>2017-01-13T22:06:26Z</time>
        <name>WPT.2704</name>
      </trkpt>
      <trkpt lat="16.995298570" lon="-96.433544930">
        <ele>1708.000</ele>
        <time>2017-01-13T22:06:27Z</time>
        <name>WPT.2705</name>
      </trkpt>
      <trkpt lat="16.995284710" lon="-96.433480010">
        <ele>1709.000</ele>
        <time>2017-01-13T22:06:28Z</time>
        <name>WPT.2706</name>
      </trkpt>
      <trkpt lat="16.995272580" lon="-96.433422510">
        <ele>1708.000</ele>
        <time>2017-01-13T22:06:29Z</time>
        <name>WPT.2707</name>
      </trkpt>
      <trkpt lat="16.995269700" lon="-96.433372860">
        <ele>1708.000</ele>
        <time>2017-01-13T22:06:30Z</time>
        <name>WPT.2708</name>
      </trkpt>
      <trkpt lat="16.995261170" lon="-96.433249430">
        <ele>1708.000</ele>
        <time>2017-01-13T22:06:33Z</time>
        <name>WPT.2709</name>
      </trkpt>
      <trkpt lat="16.995230770" lon="-96.433220210">
        <ele>1708.000</ele>
        <time>2017-01-13T22:06:34Z</time>
        <name>WPT.2710</name>
      </trkpt>
      <trkpt lat="16.995189020" lon="-96.433186400">
        <ele>1708.000</ele>
        <time>2017-01-13T22:06:36Z</time>
        <name>WPT.2711</name>
      </trkpt>
      <trkpt lat="16.995148740" lon="-96.433174560">
        <ele>1707.000</ele>
        <time>2017-01-13T22:06:37Z</time>
        <name>WPT.2712</name>
      </trkpt>
      <trkpt lat="16.995080020" lon="-96.433241680">
        <ele>1707.000</ele>
        <time>2017-01-13T22:06:38Z</time>
        <name>WPT.2713</name>
      </trkpt>
      <trkpt lat="16.995030710" lon="-96.433264440">
        <ele>1707.000</ele>
        <time>2017-01-13T22:06:39Z</time>
        <name>WPT.2714</name>
      </trkpt>
      <trkpt lat="16.994969710" lon="-96.433289920">
        <ele>1708.000</ele>
        <time>2017-01-13T22:06:40Z</time>
        <name>WPT.2715</name>
      </trkpt>
      <trkpt lat="16.994915430" lon="-96.433316860">
        <ele>1709.000</ele>
        <time>2017-01-13T22:06:41Z</time>
        <name>WPT.2716</name>
      </trkpt>
      <trkpt lat="16.994867400" lon="-96.433354730">
        <ele>1709.000</ele>
        <time>2017-01-13T22:06:42Z</time>
        <name>WPT.2717</name>
      </trkpt>
      <trkpt lat="16.994824900" lon="-96.433374080">
        <ele>1709.000</ele>
        <time>2017-01-13T22:06:43Z</time>
        <name>WPT.2718</name>
      </trkpt>
      <trkpt lat="16.994790080" lon="-96.433395380">
        <ele>1708.000</ele>
        <time>2017-01-13T22:06:45Z</time>
        <name>WPT.2719</name>
      </trkpt>
      <trkpt lat="16.994741020" lon="-96.433409650">
        <ele>1707.000</ele>
        <time>2017-01-13T22:06:48Z</time>
        <name>WPT.2720</name>
      </trkpt>
      <trkpt lat="16.994685630" lon="-96.433425120">
        <ele>1707.000</ele>
        <time>2017-01-13T22:06:50Z</time>
        <name>WPT.2721</name>
      </trkpt>
      <trkpt lat="16.994644920" lon="-96.433438350">
        <ele>1708.000</ele>
        <time>2017-01-13T22:06:51Z</time>
        <name>WPT.2722</name>
      </trkpt>
      <trkpt lat="16.994473340" lon="-96.433509080">
        <ele>1705.000</ele>
        <time>2017-01-13T22:06:54Z</time>
        <name>WPT.2723</name>
      </trkpt>
      <trkpt lat="16.994408220" lon="-96.433541250">
        <ele>1705.000</ele>
        <time>2017-01-13T22:06:55Z</time>
        <name>WPT.2724</name>
      </trkpt>
      <trkpt lat="16.994338540" lon="-96.433561280">
        <ele>1704.000</ele>
        <time>2017-01-13T22:06:56Z</time>
        <name>WPT.2725</name>
      </trkpt>
      <trkpt lat="16.994268000" lon="-96.433595390">
        <ele>1704.000</ele>
        <time>2017-01-13T22:06:57Z</time>
        <name>WPT.2726</name>
      </trkpt>
      <trkpt lat="16.994201660" lon="-96.433616360">
        <ele>1704.000</ele>
        <time>2017-01-13T22:06:58Z</time>
        <name>WPT.2727</name>
      </trkpt>
      <trkpt lat="16.994138960" lon="-96.433636920">
        <ele>1704.000</ele>
        <time>2017-01-13T22:06:59Z</time>
        <name>WPT.2728</name>
      </trkpt>
      <trkpt lat="16.994091150" lon="-96.433644630">
        <ele>1704.000</ele>
        <time>2017-01-13T22:07:00Z</time>
        <name>WPT.2729</name>
      </trkpt>
      <trkpt lat="16.994049470" lon="-96.433670540">
        <ele>1704.000</ele>
        <time>2017-01-13T22:07:01Z</time>
        <name>WPT.2730</name>
      </trkpt>
      <trkpt lat="16.994000320" lon="-96.433660430">
        <ele>1703.000</ele>
        <time>2017-01-13T22:07:03Z</time>
        <name>WPT.2731</name>
      </trkpt>
      <trkpt lat="16.993960210" lon="-96.433673020">
        <ele>1702.000</ele>
        <time>2017-01-13T22:07:06Z</time>
        <name>WPT.2732</name>
      </trkpt>
      <trkpt lat="16.993908750" lon="-96.433689330">
        <ele>1702.000</ele>
        <time>2017-01-13T22:07:08Z</time>
        <name>WPT.2733</name>
      </trkpt>
      <trkpt lat="16.993848290" lon="-96.433706000">
        <ele>1702.000</ele>
        <time>2017-01-13T22:07:10Z</time>
        <name>WPT.2734</name>
      </trkpt>
      <trkpt lat="16.993801810" lon="-96.433713130">
        <ele>1702.000</ele>
        <time>2017-01-13T22:07:11Z</time>
        <name>WPT.2735</name>
      </trkpt>
      <trkpt lat="16.993748220" lon="-96.433706120">
        <ele>1702.000</ele>
        <time>2017-01-13T22:07:12Z</time>
        <name>WPT.2736</name>
      </trkpt>
      <trkpt lat="16.993688290" lon="-96.433724240">
        <ele>1703.000</ele>
        <time>2017-01-13T22:07:13Z</time>
        <name>WPT.2737</name>
      </trkpt>
      <trkpt lat="16.993623630" lon="-96.433756380">
        <ele>1704.000</ele>
        <time>2017-01-13T22:07:14Z</time>
        <name>WPT.2738</name>
      </trkpt>
      <trkpt lat="16.993563060" lon="-96.433804810">
        <ele>1703.000</ele>
        <time>2017-01-13T22:07:15Z</time>
        <name>WPT.2739</name>
      </trkpt>
      <trkpt lat="16.993500140" lon="-96.433854640">
        <ele>1703.000</ele>
        <time>2017-01-13T22:07:16Z</time>
        <name>WPT.2740</name>
      </trkpt>
      <trkpt lat="16.993425890" lon="-96.433916730">
        <ele>1702.000</ele>
        <time>2017-01-13T22:07:17Z</time>
        <name>WPT.2741</name>
      </trkpt>
      <trkpt lat="16.993359500" lon="-96.433986260">
        <ele>1702.000</ele>
        <time>2017-01-13T22:07:18Z</time>
        <name>WPT.2742</name>
      </trkpt>
      <trkpt lat="16.993279600" lon="-96.434048730">
        <ele>1702.000</ele>
        <time>2017-01-13T22:07:19Z</time>
        <name>WPT.2743</name>
      </trkpt>
      <trkpt lat="16.993195970" lon="-96.434127460">
        <ele>1704.000</ele>
        <time>2017-01-13T22:07:20Z</time>
        <name>WPT.2744</name>
      </trkpt>
      <trkpt lat="16.993084170" lon="-96.434193890">
        <ele>1703.000</ele>
        <time>2017-01-13T22:07:21Z</time>
        <name>WPT.2745</name>
      </trkpt>
      <trkpt lat="16.992985770" lon="-96.434247880">
        <ele>1703.000</ele>
        <time>2017-01-13T22:07:22Z</time>
        <name>WPT.2746</name>
      </trkpt>
      <trkpt lat="16.992879140" lon="-96.434312970">
        <ele>1703.000</ele>
        <time>2017-01-13T22:07:23Z</time>
        <name>WPT.2747</name>
      </trkpt>
      <trkpt lat="16.992764300" lon="-96.434386460">
        <ele>1702.000</ele>
        <time>2017-01-13T22:07:24Z</time>
        <name>WPT.2748</name>
      </trkpt>
      <trkpt lat="16.992657380" lon="-96.434484220">
        <ele>1701.000</ele>
        <time>2017-01-13T22:07:25Z</time>
        <name>WPT.2749</name>
      </trkpt>
      <trkpt lat="16.992553680" lon="-96.434562790">
        <ele>1700.000</ele>
        <time>2017-01-13T22:07:26Z</time>
        <name>WPT.2750</name>
      </trkpt>
      <trkpt lat="16.992464020" lon="-96.434646770">
        <ele>1700.000</ele>
        <time>2017-01-13T22:07:27Z</time>
        <name>WPT.2751</name>
      </trkpt>
      <trkpt lat="16.992373260" lon="-96.434721990">
        <ele>1698.000</ele>
        <time>2017-01-13T22:07:28Z</time>
        <name>WPT.2752</name>
      </trkpt>
      <trkpt lat="16.992273490" lon="-96.434795160">
        <ele>1697.000</ele>
        <time>2017-01-13T22:07:29Z</time>
        <name>WPT.2753</name>
      </trkpt>
      <trkpt lat="16.992171790" lon="-96.434870540">
        <ele>1696.000</ele>
        <time>2017-01-13T22:07:30Z</time>
        <name>WPT.2754</name>
      </trkpt>
      <trkpt lat="16.992089390" lon="-96.434928220">
        <ele>1696.000</ele>
        <time>2017-01-13T22:07:31Z</time>
        <name>WPT.2755</name>
      </trkpt>
      <trkpt lat="16.992007080" lon="-96.434993870">
        <ele>1697.000</ele>
        <time>2017-01-13T22:07:32Z</time>
        <name>WPT.2756</name>
      </trkpt>
      <trkpt lat="16.991927790" lon="-96.435045550">
        <ele>1697.000</ele>
        <time>2017-01-13T22:07:33Z</time>
        <name>WPT.2757</name>
      </trkpt>
      <trkpt lat="16.991855100" lon="-96.435099220">
        <ele>1697.000</ele>
        <time>2017-01-13T22:07:34Z</time>
        <name>WPT.2758</name>
      </trkpt>
      <trkpt lat="16.991802600" lon="-96.435146330">
        <ele>1696.000</ele>
        <time>2017-01-13T22:07:35Z</time>
        <name>WPT.2759</name>
      </trkpt>
      <trkpt lat="16.991756630" lon="-96.435172370">
        <ele>1696.000</ele>
        <time>2017-01-13T22:07:36Z</time>
        <name>WPT.2760</name>
      </trkpt>
      <trkpt lat="16.991720130" lon="-96.435199360">
        <ele>1696.000</ele>
        <time>2017-01-13T22:07:37Z</time>
        <name>WPT.2761</name>
      </trkpt>
      <trkpt lat="16.991689210" lon="-96.435226610">
        <ele>1697.000</ele>
        <time>2017-01-13T22:07:39Z</time>
        <name>WPT.2762</name>
      </trkpt>
      <trkpt lat="16.991658540" lon="-96.435251730">
        <ele>1696.000</ele>
        <time>2017-01-13T22:07:41Z</time>
        <name>WPT.2763</name>
      </trkpt>
      <trkpt lat="16.991616190" lon="-96.435282050">
        <ele>1696.000</ele>
        <time>2017-01-13T22:07:43Z</time>
        <name>WPT.2764</name>
      </trkpt>
      <trkpt lat="16.991560800" lon="-96.435311040">
        <ele>1696.000</ele>
        <time>2017-01-13T22:07:45Z</time>
        <name>WPT.2765</name>
      </trkpt>
      <trkpt lat="16.991526910" lon="-96.435331480">
        <ele>1695.000</ele>
        <time>2017-01-13T22:07:47Z</time>
        <name>WPT.2766</name>
      </trkpt>
      <trkpt lat="16.991491780" lon="-96.435351830">
        <ele>1695.000</ele>
        <time>2017-01-13T22:07:49Z</time>
        <name>WPT.2767</name>
      </trkpt>
      <trkpt lat="16.991448220" lon="-96.435388080">
        <ele>1695.000</ele>
        <time>2017-01-13T22:07:51Z</time>
        <name>WPT.2768</name>
      </trkpt>
      <trkpt lat="16.991408030" lon="-96.435410740">
        <ele>1695.000</ele>
        <time>2017-01-13T22:07:52Z</time>
        <name>WPT.2769</name>
      </trkpt>
      <trkpt lat="16.991370510" lon="-96.435442540">
        <ele>1695.000</ele>
        <time>2017-01-13T22:07:53Z</time>
        <name>WPT.2770</name>
      </trkpt>
      <trkpt lat="16.991324260" lon="-96.435481550">
        <ele>1695.000</ele>
        <time>2017-01-13T22:07:54Z</time>
        <name>WPT.2771</name>
      </trkpt>
      <trkpt lat="16.991266090" lon="-96.435523440">
        <ele>1695.000</ele>
        <time>2017-01-13T22:07:55Z</time>
        <name>WPT.2772</name>
      </trkpt>
      <trkpt lat="16.991218740" lon="-96.435553500">
        <ele>1695.000</ele>
        <time>2017-01-13T22:07:56Z</time>
        <name>WPT.2773</name>
      </trkpt>
      <trkpt lat="16.991161970" lon="-96.435596070">
        <ele>1694.000</ele>
        <time>2017-01-13T22:07:57Z</time>
        <name>WPT.2774</name>
      </trkpt>
      <trkpt lat="16.991111630" lon="-96.435636180">
        <ele>1694.000</ele>
        <time>2017-01-13T22:07:58Z</time>
        <name>WPT.2775</name>
      </trkpt>
      <trkpt lat="16.991074450" lon="-96.435679390">
        <ele>1693.000</ele>
        <time>2017-01-13T22:07:59Z</time>
        <name>WPT.2776</name>
      </trkpt>
      <trkpt lat="16.991038040" lon="-96.435708810">
        <ele>1693.000</ele>
        <time>2017-01-13T22:08:00Z</time>
        <name>WPT.2777</name>
      </trkpt>
      <trkpt lat="16.991003920" lon="-96.435741140">
        <ele>1692.000</ele>
        <time>2017-01-13T22:08:02Z</time>
        <name>WPT.2778</name>
      </trkpt>
      <trkpt lat="16.990966490" lon="-96.435754780">
        <ele>1694.000</ele>
        <time>2017-01-13T22:08:04Z</time>
        <name>WPT.2779</name>
      </trkpt>
      <trkpt lat="16.990922390" lon="-96.435792000">
        <ele>1694.000</ele>
        <time>2017-01-13T22:08:06Z</time>
        <name>WPT.2780</name>
      </trkpt>
      <trkpt lat="16.990890600" lon="-96.435817780">
        <ele>1693.000</ele>
        <time>2017-01-13T22:08:07Z</time>
        <name>WPT.2781</name>
      </trkpt>
      <trkpt lat="16.990856270" lon="-96.435837350">
        <ele>1695.000</ele>
        <time>2017-01-13T22:08:08Z</time>
        <name>WPT.2782</name>
      </trkpt>
      <trkpt lat="16.990803130" lon="-96.435866110">
        <ele>1695.000</ele>
        <time>2017-01-13T22:08:09Z</time>
        <name>WPT.2783</name>
      </trkpt>
      <trkpt lat="16.990743110" lon="-96.435909490">
        <ele>1694.000</ele>
        <time>2017-01-13T22:08:10Z</time>
        <name>WPT.2784</name>
      </trkpt>
      <trkpt lat="16.990693770" lon="-96.435953170">
        <ele>1694.000</ele>
        <time>2017-01-13T22:08:11Z</time>
        <name>WPT.2785</name>
      </trkpt>
      <trkpt lat="16.990623980" lon="-96.436003130">
        <ele>1694.000</ele>
        <time>2017-01-13T22:08:12Z</time>
        <name>WPT.2786</name>
      </trkpt>
      <trkpt lat="16.990555670" lon="-96.436068090">
        <ele>1693.000</ele>
        <time>2017-01-13T22:08:13Z</time>
        <name>WPT.2787</name>
      </trkpt>
      <trkpt lat="16.990469700" lon="-96.436127960">
        <ele>1693.000</ele>
        <time>2017-01-13T22:08:14Z</time>
        <name>WPT.2788</name>
      </trkpt>
      <trkpt lat="16.990379680" lon="-96.436202070">
        <ele>1693.000</ele>
        <time>2017-01-13T22:08:15Z</time>
        <name>WPT.2789</name>
      </trkpt>
      <trkpt lat="16.990287610" lon="-96.436274850">
        <ele>1693.000</ele>
        <time>2017-01-13T22:08:16Z</time>
        <name>WPT.2790</name>
      </trkpt>
      <trkpt lat="16.990175980" lon="-96.436338330">
        <ele>1693.000</ele>
        <time>2017-01-13T22:08:17Z</time>
        <name>WPT.2791</name>
      </trkpt>
      <trkpt lat="16.990074560" lon="-96.436420010">
        <ele>1692.000</ele>
        <time>2017-01-13T22:08:18Z</time>
        <name>WPT.2792</name>
      </trkpt>
      <trkpt lat="16.989969190" lon="-96.436494850">
        <ele>1692.000</ele>
        <time>2017-01-13T22:08:19Z</time>
        <name>WPT.2793</name>
      </trkpt>
      <trkpt lat="16.989853950" lon="-96.436571790">
        <ele>1692.000</ele>
        <time>2017-01-13T22:08:20Z</time>
        <name>WPT.2794</name>
      </trkpt>
      <trkpt lat="16.989736770" lon="-96.436660830">
        <ele>1691.000</ele>
        <time>2017-01-13T22:08:21Z</time>
        <name>WPT.2795</name>
      </trkpt>
      <trkpt lat="16.989613000" lon="-96.436754030">
        <ele>1692.000</ele>
        <time>2017-01-13T22:08:22Z</time>
        <name>WPT.2796</name>
      </trkpt>
      <trkpt lat="16.989491140" lon="-96.436855130">
        <ele>1690.000</ele>
        <time>2017-01-13T22:08:23Z</time>
        <name>WPT.2797</name>
      </trkpt>
      <trkpt lat="16.989362570" lon="-96.436952700">
        <ele>1690.000</ele>
        <time>2017-01-13T22:08:24Z</time>
        <name>WPT.2798</name>
      </trkpt>
      <trkpt lat="16.989215020" lon="-96.437056800">
        <ele>1690.000</ele>
        <time>2017-01-13T22:08:25Z</time>
        <name>WPT.2799</name>
      </trkpt>
      <trkpt lat="16.989078520" lon="-96.437151740">
        <ele>1690.000</ele>
        <time>2017-01-13T22:08:26Z</time>
        <name>WPT.2800</name>
      </trkpt>
      <trkpt lat="16.988940600" lon="-96.437250920">
        <ele>1690.000</ele>
        <time>2017-01-13T22:08:27Z</time>
        <name>WPT.2801</name>
      </trkpt>
      <trkpt lat="16.988800210" lon="-96.437349200">
        <ele>1690.000</ele>
        <time>2017-01-13T22:08:28Z</time>
        <name>WPT.2802</name>
      </trkpt>
      <trkpt lat="16.988661590" lon="-96.437454710">
        <ele>1690.000</ele>
        <time>2017-01-13T22:08:29Z</time>
        <name>WPT.2803</name>
      </trkpt>
      <trkpt lat="16.988527610" lon="-96.437558070">
        <ele>1689.000</ele>
        <time>2017-01-13T22:08:30Z</time>
        <name>WPT.2804</name>
      </trkpt>
      <trkpt lat="16.988386910" lon="-96.437653150">
        <ele>1689.000</ele>
        <time>2017-01-13T22:08:31Z</time>
        <name>WPT.2805</name>
      </trkpt>
      <trkpt lat="16.988251440" lon="-96.437754640">
        <ele>1688.000</ele>
        <time>2017-01-13T22:08:32Z</time>
        <name>WPT.2806</name>
      </trkpt>
      <trkpt lat="16.988112250" lon="-96.437855780">
        <ele>1688.000</ele>
        <time>2017-01-13T22:08:33Z</time>
        <name>WPT.2807</name>
      </trkpt>
      <trkpt lat="16.987984650" lon="-96.437947880">
        <ele>1687.000</ele>
        <time>2017-01-13T22:08:34Z</time>
        <name>WPT.2808</name>
      </trkpt>
      <trkpt lat="16.987881800" lon="-96.438023750">
        <ele>1687.000</ele>
        <time>2017-01-13T22:08:35Z</time>
        <name>WPT.2809</name>
      </trkpt>
      <trkpt lat="16.987801410" lon="-96.438083890">
        <ele>1687.000</ele>
        <time>2017-01-13T22:08:36Z</time>
        <name>WPT.2810</name>
      </trkpt>
      <trkpt lat="16.987748500" lon="-96.438148670">
        <ele>1685.000</ele>
        <time>2017-01-13T22:08:37Z</time>
        <name>WPT.2811</name>
      </trkpt>
      <trkpt lat="16.987705690" lon="-96.438174020">
        <ele>1685.000</ele>
        <time>2017-01-13T22:08:38Z</time>
        <name>WPT.2812</name>
      </trkpt>
      <trkpt lat="16.987652180" lon="-96.438189770">
        <ele>1686.000</ele>
        <time>2017-01-13T22:08:40Z</time>
        <name>WPT.2813</name>
      </trkpt>
      <trkpt lat="16.987597860" lon="-96.438216900">
        <ele>1687.000</ele>
        <time>2017-01-13T22:08:42Z</time>
        <name>WPT.2814</name>
      </trkpt>
      <trkpt lat="16.987558880" lon="-96.438238130">
        <ele>1687.000</ele>
        <time>2017-01-13T22:08:43Z</time>
        <name>WPT.2815</name>
      </trkpt>
      <trkpt lat="16.987518970" lon="-96.438276020">
        <ele>1687.000</ele>
        <time>2017-01-13T22:08:44Z</time>
        <name>WPT.2816</name>
      </trkpt>
      <trkpt lat="16.987460660" lon="-96.438318190">
        <ele>1687.000</ele>
        <time>2017-01-13T22:08:45Z</time>
        <name>WPT.2817</name>
      </trkpt>
      <trkpt lat="16.987392200" lon="-96.438356710">
        <ele>1687.000</ele>
        <time>2017-01-13T22:08:46Z</time>
        <name>WPT.2818</name>
      </trkpt>
      <trkpt lat="16.987330030" lon="-96.438409570">
        <ele>1687.000</ele>
        <time>2017-01-13T22:08:47Z</time>
        <name>WPT.2819</name>
      </trkpt>
      <trkpt lat="16.987259180" lon="-96.438464200">
        <ele>1687.000</ele>
        <time>2017-01-13T22:08:48Z</time>
        <name>WPT.2820</name>
      </trkpt>
      <trkpt lat="16.987180010" lon="-96.438520590">
        <ele>1686.000</ele>
        <time>2017-01-13T22:08:49Z</time>
        <name>WPT.2821</name>
      </trkpt>
      <trkpt lat="16.987084770" lon="-96.438587100">
        <ele>1686.000</ele>
        <time>2017-01-13T22:08:50Z</time>
        <name>WPT.2822</name>
      </trkpt>
      <trkpt lat="16.986986200" lon="-96.438656580">
        <ele>1685.000</ele>
        <time>2017-01-13T22:08:51Z</time>
        <name>WPT.2823</name>
      </trkpt>
      <trkpt lat="16.986881870" lon="-96.438730210">
        <ele>1685.000</ele>
        <time>2017-01-13T22:08:52Z</time>
        <name>WPT.2824</name>
      </trkpt>
      <trkpt lat="16.986773050" lon="-96.438806410">
        <ele>1686.000</ele>
        <time>2017-01-13T22:08:53Z</time>
        <name>WPT.2825</name>
      </trkpt>
      <trkpt lat="16.986663940" lon="-96.438892700">
        <ele>1685.000</ele>
        <time>2017-01-13T22:08:54Z</time>
        <name>WPT.2826</name>
      </trkpt>
      <trkpt lat="16.986546440" lon="-96.438976110">
        <ele>1685.000</ele>
        <time>2017-01-13T22:08:55Z</time>
        <name>WPT.2827</name>
      </trkpt>
      <trkpt lat="16.986422010" lon="-96.439067790">
        <ele>1686.000</ele>
        <time>2017-01-13T22:08:56Z</time>
        <name>WPT.2828</name>
      </trkpt>
      <trkpt lat="16.986288550" lon="-96.439164680">
        <ele>1686.000</ele>
        <time>2017-01-13T22:08:57Z</time>
        <name>WPT.2829</name>
      </trkpt>
      <trkpt lat="16.986153310" lon="-96.439264210">
        <ele>1685.000</ele>
        <time>2017-01-13T22:08:58Z</time>
        <name>WPT.2830</name>
      </trkpt>
      <trkpt lat="16.986025570" lon="-96.439381650">
        <ele>1684.000</ele>
        <time>2017-01-13T22:08:59Z</time>
        <name>WPT.2831</name>
      </trkpt>
      <trkpt lat="16.985886340" lon="-96.439491430">
        <ele>1683.000</ele>
        <time>2017-01-13T22:09:00Z</time>
        <name>WPT.2832</name>
      </trkpt>
      <trkpt lat="16.985735300" lon="-96.439591460">
        <ele>1684.000</ele>
        <time>2017-01-13T22:09:01Z</time>
        <name>WPT.2833</name>
      </trkpt>
      <trkpt lat="16.985585610" lon="-96.439699740">
        <ele>1682.000</ele>
        <time>2017-01-13T22:09:02Z</time>
        <name>WPT.2834</name>
      </trkpt>
      <trkpt lat="16.985432530" lon="-96.439810740">
        <ele>1682.000</ele>
        <time>2017-01-13T22:09:03Z</time>
        <name>WPT.2835</name>
      </trkpt>
      <trkpt lat="16.985287360" lon="-96.439915560">
        <ele>1682.000</ele>
        <time>2017-01-13T22:09:04Z</time>
        <name>WPT.2836</name>
      </trkpt>
      <trkpt lat="16.985147510" lon="-96.440027280">
        <ele>1681.000</ele>
        <time>2017-01-13T22:09:05Z</time>
        <name>WPT.2837</name>
      </trkpt>
      <trkpt lat="16.985010800" lon="-96.440129180">
        <ele>1681.000</ele>
        <time>2017-01-13T22:09:06Z</time>
        <name>WPT.2838</name>
      </trkpt>
      <trkpt lat="16.984883940" lon="-96.440223510">
        <ele>1681.000</ele>
        <time>2017-01-13T22:09:07Z</time>
        <name>WPT.2839</name>
      </trkpt>
      <trkpt lat="16.984771860" lon="-96.440312870">
        <ele>1681.000</ele>
        <time>2017-01-13T22:09:08Z</time>
        <name>WPT.2840</name>
      </trkpt>
      <trkpt lat="16.984681490" lon="-96.440391910">
        <ele>1681.000</ele>
        <time>2017-01-13T22:09:09Z</time>
        <name>WPT.2841</name>
      </trkpt>
      <trkpt lat="16.984606340" lon="-96.440461360">
        <ele>1680.000</ele>
        <time>2017-01-13T22:09:10Z</time>
        <name>WPT.2842</name>
      </trkpt>
      <trkpt lat="16.984535070" lon="-96.440515270">
        <ele>1681.000</ele>
        <time>2017-01-13T22:09:11Z</time>
        <name>WPT.2843</name>
      </trkpt>
      <trkpt lat="16.984486670" lon="-96.440558610">
        <ele>1681.000</ele>
        <time>2017-01-13T22:09:12Z</time>
        <name>WPT.2844</name>
      </trkpt>
      <trkpt lat="16.984446280" lon="-96.440589580">
        <ele>1681.000</ele>
        <time>2017-01-13T22:09:13Z</time>
        <name>WPT.2845</name>
      </trkpt>
      <trkpt lat="16.984414230" lon="-96.440615350">
        <ele>1681.000</ele>
        <time>2017-01-13T22:09:14Z</time>
        <name>WPT.2846</name>
      </trkpt>
      <trkpt lat="16.984377540" lon="-96.440639510">
        <ele>1681.000</ele>
        <time>2017-01-13T22:09:15Z</time>
        <name>WPT.2847</name>
      </trkpt>
      <trkpt lat="16.984341110" lon="-96.440665120">
        <ele>1681.000</ele>
        <time>2017-01-13T22:09:16Z</time>
        <name>WPT.2848</name>
      </trkpt>
      <trkpt lat="16.984297250" lon="-96.440692860">
        <ele>1681.000</ele>
        <time>2017-01-13T22:09:17Z</time>
        <name>WPT.2849</name>
      </trkpt>
      <trkpt lat="16.984244250" lon="-96.440722310">
        <ele>1681.000</ele>
        <time>2017-01-13T22:09:18Z</time>
        <name>WPT.2850</name>
      </trkpt>
      <trkpt lat="16.984184090" lon="-96.440757090">
        <ele>1681.000</ele>
        <time>2017-01-13T22:09:19Z</time>
        <name>WPT.2851</name>
      </trkpt>
      <trkpt lat="16.984133510" lon="-96.440800640">
        <ele>1681.000</ele>
        <time>2017-01-13T22:09:20Z</time>
        <name>WPT.2852</name>
      </trkpt>
      <trkpt lat="16.984064790" lon="-96.440847470">
        <ele>1681.000</ele>
        <time>2017-01-13T22:09:21Z</time>
        <name>WPT.2853</name>
      </trkpt>
      <trkpt lat="16.983991010" lon="-96.440902510">
        <ele>1681.000</ele>
        <time>2017-01-13T22:09:22Z</time>
        <name>WPT.2854</name>
      </trkpt>
      <trkpt lat="16.983914920" lon="-96.440973550">
        <ele>1681.000</ele>
        <time>2017-01-13T22:09:23Z</time>
        <name>WPT.2855</name>
      </trkpt>
      <trkpt lat="16.983829830" lon="-96.441042040">
        <ele>1680.000</ele>
        <time>2017-01-13T22:09:24Z</time>
        <name>WPT.2856</name>
      </trkpt>
      <trkpt lat="16.983734610" lon="-96.441118720">
        <ele>1680.000</ele>
        <time>2017-01-13T22:09:25Z</time>
        <name>WPT.2857</name>
      </trkpt>
      <trkpt lat="16.983623800" lon="-96.441199530">
        <ele>1681.000</ele>
        <time>2017-01-13T22:09:26Z</time>
        <name>WPT.2858</name>
      </trkpt>
      <trkpt lat="16.983515730" lon="-96.441281080">
        <ele>1682.000</ele>
        <time>2017-01-13T22:09:27Z</time>
        <name>WPT.2859</name>
      </trkpt>
      <trkpt lat="16.983412130" lon="-96.441368470">
        <ele>1682.000</ele>
        <time>2017-01-13T22:09:28Z</time>
        <name>WPT.2860</name>
      </trkpt>
      <trkpt lat="16.983306500" lon="-96.441477230">
        <ele>1682.000</ele>
        <time>2017-01-13T22:09:29Z</time>
        <name>WPT.2861</name>
      </trkpt>
      <trkpt lat="16.983215960" lon="-96.441599100">
        <ele>1682.000</ele>
        <time>2017-01-13T22:09:30Z</time>
        <name>WPT.2862</name>
      </trkpt>
      <trkpt lat="16.983113700" lon="-96.441723640">
        <ele>1681.000</ele>
        <time>2017-01-13T22:09:31Z</time>
        <name>WPT.2863</name>
      </trkpt>
      <trkpt lat="16.983015950" lon="-96.441856430">
        <ele>1682.000</ele>
        <time>2017-01-13T22:09:32Z</time>
        <name>WPT.2864</name>
      </trkpt>
      <trkpt lat="16.982932710" lon="-96.441989540">
        <ele>1683.000</ele>
        <time>2017-01-13T22:09:33Z</time>
        <name>WPT.2865</name>
      </trkpt>
      <trkpt lat="16.982857840" lon="-96.442147310">
        <ele>1683.000</ele>
        <time>2017-01-13T22:09:34Z</time>
        <name>WPT.2866</name>
      </trkpt>
      <trkpt lat="16.982784410" lon="-96.442304870">
        <ele>1683.000</ele>
        <time>2017-01-13T22:09:35Z</time>
        <name>WPT.2867</name>
      </trkpt>
      <trkpt lat="16.982716700" lon="-96.442466820">
        <ele>1683.000</ele>
        <time>2017-01-13T22:09:36Z</time>
        <name>WPT.2868</name>
      </trkpt>
      <trkpt lat="16.982646950" lon="-96.442643340">
        <ele>1684.000</ele>
        <time>2017-01-13T22:09:37Z</time>
        <name>WPT.2869</name>
      </trkpt>
      <trkpt lat="16.982573560" lon="-96.442816730">
        <ele>1684.000</ele>
        <time>2017-01-13T22:09:38Z</time>
        <name>WPT.2870</name>
      </trkpt>
      <trkpt lat="16.982538700" lon="-96.443009320">
        <ele>1683.000</ele>
        <time>2017-01-13T22:09:39Z</time>
        <name>WPT.2871</name>
      </trkpt>
      <trkpt lat="16.982462720" lon="-96.443192610">
        <ele>1683.000</ele>
        <time>2017-01-13T22:09:40Z</time>
        <name>WPT.2872</name>
      </trkpt>
      <trkpt lat="16.982383560" lon="-96.443383210">
        <ele>1683.000</ele>
        <time>2017-01-13T22:09:41Z</time>
        <name>WPT.2873</name>
      </trkpt>
      <trkpt lat="16.982299080" lon="-96.443578240">
        <ele>1684.000</ele>
        <time>2017-01-13T22:09:42Z</time>
        <name>WPT.2874</name>
      </trkpt>
      <trkpt lat="16.982223590" lon="-96.443767750">
        <ele>1685.000</ele>
        <time>2017-01-13T22:09:43Z</time>
        <name>WPT.2875</name>
      </trkpt>
      <trkpt lat="16.982147990" lon="-96.443953800">
        <ele>1685.000</ele>
        <time>2017-01-13T22:09:44Z</time>
        <name>WPT.2876</name>
      </trkpt>
      <trkpt lat="16.982068820" lon="-96.444152870">
        <ele>1685.000</ele>
        <time>2017-01-13T22:09:45Z</time>
        <name>WPT.2877</name>
      </trkpt>
      <trkpt lat="16.981986770" lon="-96.444349410">
        <ele>1685.000</ele>
        <time>2017-01-13T22:09:46Z</time>
        <name>WPT.2878</name>
      </trkpt>
      <trkpt lat="16.981883670" lon="-96.444546110">
        <ele>1686.000</ele>
        <time>2017-01-13T22:09:47Z</time>
        <name>WPT.2879</name>
      </trkpt>
      <trkpt lat="16.981803000" lon="-96.444751820">
        <ele>1686.000</ele>
        <time>2017-01-13T22:09:48Z</time>
        <name>WPT.2880</name>
      </trkpt>
      <trkpt lat="16.981720170" lon="-96.444960480">
        <ele>1686.000</ele>
        <time>2017-01-13T22:09:49Z</time>
        <name>WPT.2881</name>
      </trkpt>
      <trkpt lat="16.981637360" lon="-96.445178700">
        <ele>1686.000</ele>
        <time>2017-01-13T22:09:50Z</time>
        <name>WPT.2882</name>
      </trkpt>
      <trkpt lat="16.981556120" lon="-96.445392560">
        <ele>1686.000</ele>
        <time>2017-01-13T22:09:51Z</time>
        <name>WPT.2883</name>
      </trkpt>
      <trkpt lat="16.981466150" lon="-96.445602740">
        <ele>1686.000</ele>
        <time>2017-01-13T22:09:52Z</time>
        <name>WPT.2884</name>
      </trkpt>
      <trkpt lat="16.981369880" lon="-96.445813230">
        <ele>1687.000</ele>
        <time>2017-01-13T22:09:53Z</time>
        <name>WPT.2885</name>
      </trkpt>
      <trkpt lat="16.981312180" lon="-96.446035970">
        <ele>1687.000</ele>
        <time>2017-01-13T22:09:54Z</time>
        <name>WPT.2886</name>
      </trkpt>
      <trkpt lat="16.981239540" lon="-96.446246430">
        <ele>1687.000</ele>
        <time>2017-01-13T22:09:55Z</time>
        <name>WPT.2887</name>
      </trkpt>
      <trkpt lat="16.981170760" lon="-96.446454630">
        <ele>1688.000</ele>
        <time>2017-01-13T22:09:56Z</time>
        <name>WPT.2888</name>
      </trkpt>
      <trkpt lat="16.981090490" lon="-96.446657370">
        <ele>1688.000</ele>
        <time>2017-01-13T22:09:57Z</time>
        <name>WPT.2889</name>
      </trkpt>
      <trkpt lat="16.980969630" lon="-96.446855700">
        <ele>1689.000</ele>
        <time>2017-01-13T22:09:58Z</time>
        <name>WPT.2890</name>
      </trkpt>
      <trkpt lat="16.980881630" lon="-96.447059460">
        <ele>1690.000</ele>
        <time>2017-01-13T22:09:59Z</time>
        <name>WPT.2891</name>
      </trkpt>
      <trkpt lat="16.980798870" lon="-96.447254200">
        <ele>1690.000</ele>
        <time>2017-01-13T22:10:00Z</time>
        <name>WPT.2892</name>
      </trkpt>
      <trkpt lat="16.980711370" lon="-96.447456350">
        <ele>1688.000</ele>
        <time>2017-01-13T22:10:01Z</time>
        <name>WPT.2893</name>
      </trkpt>
      <trkpt lat="16.980616640" lon="-96.447661300">
        <ele>1688.000</ele>
        <time>2017-01-13T22:10:02Z</time>
        <name>WPT.2894</name>
      </trkpt>
      <trkpt lat="16.980517430" lon="-96.447865170">
        <ele>1687.000</ele>
        <time>2017-01-13T22:10:03Z</time>
        <name>WPT.2895</name>
      </trkpt>
      <trkpt lat="16.980408470" lon="-96.448066700">
        <ele>1687.000</ele>
        <time>2017-01-13T22:10:04Z</time>
        <name>WPT.2896</name>
      </trkpt>
      <trkpt lat="16.980264680" lon="-96.448259610">
        <ele>1688.000</ele>
        <time>2017-01-13T22:10:05Z</time>
        <name>WPT.2897</name>
      </trkpt>
      <trkpt lat="16.980146600" lon="-96.448462210">
        <ele>1686.000</ele>
        <time>2017-01-13T22:10:06Z</time>
        <name>WPT.2898</name>
      </trkpt>
      <trkpt lat="16.980020570" lon="-96.448655660">
        <ele>1686.000</ele>
        <time>2017-01-13T22:10:07Z</time>
        <name>WPT.2899</name>
      </trkpt>
      <trkpt lat="16.979889710" lon="-96.448851520">
        <ele>1686.000</ele>
        <time>2017-01-13T22:10:08Z</time>
        <name>WPT.2900</name>
      </trkpt>
      <trkpt lat="16.979751740" lon="-96.449057600">
        <ele>1686.000</ele>
        <time>2017-01-13T22:10:09Z</time>
        <name>WPT.2901</name>
      </trkpt>
      <trkpt lat="16.979618010" lon="-96.449263100">
        <ele>1686.000</ele>
        <time>2017-01-13T22:10:10Z</time>
        <name>WPT.2902</name>
      </trkpt>
      <trkpt lat="16.979469600" lon="-96.449443300">
        <ele>1685.000</ele>
        <time>2017-01-13T22:10:11Z</time>
        <name>WPT.2903</name>
      </trkpt>
      <trkpt lat="16.979325510" lon="-96.449636150">
        <ele>1684.000</ele>
        <time>2017-01-13T22:10:12Z</time>
        <name>WPT.2904</name>
      </trkpt>
      <trkpt lat="16.979196310" lon="-96.449835590">
        <ele>1684.000</ele>
        <time>2017-01-13T22:10:13Z</time>
        <name>WPT.2905</name>
      </trkpt>
      <trkpt lat="16.979060520" lon="-96.450038540">
        <ele>1683.000</ele>
        <time>2017-01-13T22:10:14Z</time>
        <name>WPT.2906</name>
      </trkpt>
      <trkpt lat="16.978922710" lon="-96.450236510">
        <ele>1682.000</ele>
        <time>2017-01-13T22:10:15Z</time>
        <name>WPT.2907</name>
      </trkpt>
      <trkpt lat="16.978790440" lon="-96.450427980">
        <ele>1682.000</ele>
        <time>2017-01-13T22:10:16Z</time>
        <name>WPT.2908</name>
      </trkpt>
      <trkpt lat="16.978657750" lon="-96.450629160">
        <ele>1683.000</ele>
        <time>2017-01-13T22:10:17Z</time>
        <name>WPT.2909</name>
      </trkpt>
      <trkpt lat="16.978518770" lon="-96.450827790">
        <ele>1682.000</ele>
        <time>2017-01-13T22:10:18Z</time>
        <name>WPT.2910</name>
      </trkpt>
      <trkpt lat="16.978396390" lon="-96.451034670">
        <ele>1681.000</ele>
        <time>2017-01-13T22:10:19Z</time>
        <name>WPT.2911</name>
      </trkpt>
      <trkpt lat="16.978267080" lon="-96.451226470">
        <ele>1680.000</ele>
        <time>2017-01-13T22:10:20Z</time>
        <name>WPT.2912</name>
      </trkpt>
      <trkpt lat="16.978148860" lon="-96.451441850">
        <ele>1679.000</ele>
        <time>2017-01-13T22:10:21Z</time>
        <name>WPT.2913</name>
      </trkpt>
      <trkpt lat="16.978014830" lon="-96.451636610">
        <ele>1678.000</ele>
        <time>2017-01-13T22:10:22Z</time>
        <name>WPT.2914</name>
      </trkpt>
      <trkpt lat="16.977882390" lon="-96.451827000">
        <ele>1677.000</ele>
        <time>2017-01-13T22:10:23Z</time>
        <name>WPT.2915</name>
      </trkpt>
      <trkpt lat="16.977760640" lon="-96.452024840">
        <ele>1677.000</ele>
        <time>2017-01-13T22:10:24Z</time>
        <name>WPT.2916</name>
      </trkpt>
      <trkpt lat="16.977639520" lon="-96.452230910">
        <ele>1676.000</ele>
        <time>2017-01-13T22:10:25Z</time>
        <name>WPT.2917</name>
      </trkpt>
      <trkpt lat="16.977512030" lon="-96.452435600">
        <ele>1676.000</ele>
        <time>2017-01-13T22:10:26Z</time>
        <name>WPT.2918</name>
      </trkpt>
      <trkpt lat="16.977414910" lon="-96.452656180">
        <ele>1674.000</ele>
        <time>2017-01-13T22:10:27Z</time>
        <name>WPT.2919</name>
      </trkpt>
      <trkpt lat="16.977323940" lon="-96.452877570">
        <ele>1673.000</ele>
        <time>2017-01-13T22:10:28Z</time>
        <name>WPT.2920</name>
      </trkpt>
      <trkpt lat="16.977233920" lon="-96.453093970">
        <ele>1673.000</ele>
        <time>2017-01-13T22:10:29Z</time>
        <name>WPT.2921</name>
      </trkpt>
      <trkpt lat="16.977152920" lon="-96.453324940">
        <ele>1673.000</ele>
        <time>2017-01-13T22:10:30Z</time>
        <name>WPT.2922</name>
      </trkpt>
      <trkpt lat="16.977077750" lon="-96.453551430">
        <ele>1672.000</ele>
        <time>2017-01-13T22:10:31Z</time>
        <name>WPT.2923</name>
      </trkpt>
      <trkpt lat="16.977019550" lon="-96.453764680">
        <ele>1672.000</ele>
        <time>2017-01-13T22:10:32Z</time>
        <name>WPT.2924</name>
      </trkpt>
      <trkpt lat="16.976965360" lon="-96.453992260">
        <ele>1672.000</ele>
        <time>2017-01-13T22:10:33Z</time>
        <name>WPT.2925</name>
      </trkpt>
      <trkpt lat="16.976899350" lon="-96.454212650">
        <ele>1672.000</ele>
        <time>2017-01-13T22:10:34Z</time>
        <name>WPT.2926</name>
      </trkpt>
      <trkpt lat="16.976829270" lon="-96.454433290">
        <ele>1672.000</ele>
        <time>2017-01-13T22:10:35Z</time>
        <name>WPT.2927</name>
      </trkpt>
      <trkpt lat="16.976757340" lon="-96.454642310">
        <ele>1671.000</ele>
        <time>2017-01-13T22:10:36Z</time>
        <name>WPT.2928</name>
      </trkpt>
      <trkpt lat="16.976687780" lon="-96.454853100">
        <ele>1671.000</ele>
        <time>2017-01-13T22:10:37Z</time>
        <name>WPT.2929</name>
      </trkpt>
      <trkpt lat="16.976618930" lon="-96.455055580">
        <ele>1671.000</ele>
        <time>2017-01-13T22:10:38Z</time>
        <name>WPT.2930</name>
      </trkpt>
      <trkpt lat="16.976557680" lon="-96.455244020">
        <ele>1670.000</ele>
        <time>2017-01-13T22:10:39Z</time>
        <name>WPT.2931</name>
      </trkpt>
      <trkpt lat="16.976506760" lon="-96.455416570">
        <ele>1670.000</ele>
        <time>2017-01-13T22:10:40Z</time>
        <name>WPT.2932</name>
      </trkpt>
      <trkpt lat="16.976452380" lon="-96.455589480">
        <ele>1670.000</ele>
        <time>2017-01-13T22:10:41Z</time>
        <name>WPT.2933</name>
      </trkpt>
      <trkpt lat="16.976388400" lon="-96.455756580">
        <ele>1671.000</ele>
        <time>2017-01-13T22:10:42Z</time>
        <name>WPT.2934</name>
      </trkpt>
      <trkpt lat="16.976330740" lon="-96.455918360">
        <ele>1672.000</ele>
        <time>2017-01-13T22:10:43Z</time>
        <name>WPT.2935</name>
      </trkpt>
      <trkpt lat="16.976279590" lon="-96.456083870">
        <ele>1673.000</ele>
        <time>2017-01-13T22:10:44Z</time>
        <name>WPT.2936</name>
      </trkpt>
      <trkpt lat="16.976226280" lon="-96.456250940">
        <ele>1673.000</ele>
        <time>2017-01-13T22:10:45Z</time>
        <name>WPT.2937</name>
      </trkpt>
      <trkpt lat="16.976173380" lon="-96.456414470">
        <ele>1671.000</ele>
        <time>2017-01-13T22:10:46Z</time>
        <name>WPT.2938</name>
      </trkpt>
      <trkpt lat="16.976127750" lon="-96.456576910">
        <ele>1672.000</ele>
        <time>2017-01-13T22:10:47Z</time>
        <name>WPT.2939</name>
      </trkpt>
      <trkpt lat="16.976089070" lon="-96.456742250">
        <ele>1670.000</ele>
        <time>2017-01-13T22:10:48Z</time>
        <name>WPT.2940</name>
      </trkpt>
      <trkpt lat="16.976027940" lon="-96.456915170">
        <ele>1668.000</ele>
        <time>2017-01-13T22:10:49Z</time>
        <name>WPT.2941</name>
      </trkpt>
      <trkpt lat="16.975972650" lon="-96.457066260">
        <ele>1667.000</ele>
        <time>2017-01-13T22:10:50Z</time>
        <name>WPT.2942</name>
      </trkpt>
      <trkpt lat="16.975915410" lon="-96.457229310">
        <ele>1667.000</ele>
        <time>2017-01-13T22:10:51Z</time>
        <name>WPT.2943</name>
      </trkpt>
      <trkpt lat="16.975874580" lon="-96.457378820">
        <ele>1667.000</ele>
        <time>2017-01-13T22:10:52Z</time>
        <name>WPT.2944</name>
      </trkpt>
      <trkpt lat="16.975826830" lon="-96.457513990">
        <ele>1666.000</ele>
        <time>2017-01-13T22:10:53Z</time>
        <name>WPT.2945</name>
      </trkpt>
      <trkpt lat="16.975775470" lon="-96.457643660">
        <ele>1664.000</ele>
        <time>2017-01-13T22:10:54Z</time>
        <name>WPT.2946</name>
      </trkpt>
      <trkpt lat="16.975724180" lon="-96.457773790">
        <ele>1665.000</ele>
        <time>2017-01-13T22:10:55Z</time>
        <name>WPT.2947</name>
      </trkpt>
      <trkpt lat="16.975687480" lon="-96.457910250">
        <ele>1663.000</ele>
        <time>2017-01-13T22:10:56Z</time>
        <name>WPT.2948</name>
      </trkpt>
      <trkpt lat="16.975640290" lon="-96.458049410">
        <ele>1663.000</ele>
        <time>2017-01-13T22:10:57Z</time>
        <name>WPT.2949</name>
      </trkpt>
      <trkpt lat="16.975602160" lon="-96.458187070">
        <ele>1664.000</ele>
        <time>2017-01-13T22:10:58Z</time>
        <name>WPT.2950</name>
      </trkpt>
      <trkpt lat="16.975571880" lon="-96.458344640">
        <ele>1663.000</ele>
        <time>2017-01-13T22:10:59Z</time>
        <name>WPT.2951</name>
      </trkpt>
      <trkpt lat="16.975540650" lon="-96.458503120">
        <ele>1663.000</ele>
        <time>2017-01-13T22:11:00Z</time>
        <name>WPT.2952</name>
      </trkpt>
      <trkpt lat="16.975483350" lon="-96.458662690">
        <ele>1662.000</ele>
        <time>2017-01-13T22:11:01Z</time>
        <name>WPT.2953</name>
      </trkpt>
      <trkpt lat="16.975454670" lon="-96.458825330">
        <ele>1660.000</ele>
        <time>2017-01-13T22:11:02Z</time>
        <name>WPT.2954</name>
      </trkpt>
      <trkpt lat="16.975395210" lon="-96.458990050">
        <ele>1659.000</ele>
        <time>2017-01-13T22:11:03Z</time>
        <name>WPT.2955</name>
      </trkpt>
      <trkpt lat="16.975342950" lon="-96.459148770">
        <ele>1657.000</ele>
        <time>2017-01-13T22:11:04Z</time>
        <name>WPT.2956</name>
      </trkpt>
      <trkpt lat="16.975264540" lon="-96.459332310">
        <ele>1657.000</ele>
        <time>2017-01-13T22:11:05Z</time>
        <name>WPT.2957</name>
      </trkpt>
      <trkpt lat="16.975202390" lon="-96.459503170">
        <ele>1656.000</ele>
        <time>2017-01-13T22:11:06Z</time>
        <name>WPT.2958</name>
      </trkpt>
      <trkpt lat="16.975144510" lon="-96.459683920">
        <ele>1655.000</ele>
        <time>2017-01-13T22:11:07Z</time>
        <name>WPT.2959</name>
      </trkpt>
      <trkpt lat="16.975077290" lon="-96.459865340">
        <ele>1654.000</ele>
        <time>2017-01-13T22:11:08Z</time>
        <name>WPT.2960</name>
      </trkpt>
      <trkpt lat="16.975015380" lon="-96.460047510">
        <ele>1652.000</ele>
        <time>2017-01-13T22:11:09Z</time>
        <name>WPT.2961</name>
      </trkpt>
      <trkpt lat="16.974942120" lon="-96.460228040">
        <ele>1652.000</ele>
        <time>2017-01-13T22:11:10Z</time>
        <name>WPT.2962</name>
      </trkpt>
      <trkpt lat="16.974885330" lon="-96.460413890">
        <ele>1651.000</ele>
        <time>2017-01-13T22:11:11Z</time>
        <name>WPT.2963</name>
      </trkpt>
      <trkpt lat="16.974832040" lon="-96.460591950">
        <ele>1649.000</ele>
        <time>2017-01-13T22:11:12Z</time>
        <name>WPT.2964</name>
      </trkpt>
      <trkpt lat="16.974764250" lon="-96.460786430">
        <ele>1649.000</ele>
        <time>2017-01-13T22:11:13Z</time>
        <name>WPT.2965</name>
      </trkpt>
      <trkpt lat="16.974715430" lon="-96.460973300">
        <ele>1649.000</ele>
        <time>2017-01-13T22:11:14Z</time>
        <name>WPT.2966</name>
      </trkpt>
      <trkpt lat="16.974653220" lon="-96.461163420">
        <ele>1648.000</ele>
        <time>2017-01-13T22:11:15Z</time>
        <name>WPT.2967</name>
      </trkpt>
      <trkpt lat="16.974596750" lon="-96.461367170">
        <ele>1648.000</ele>
        <time>2017-01-13T22:11:16Z</time>
        <name>WPT.2968</name>
      </trkpt>
      <trkpt lat="16.974537680" lon="-96.461564190">
        <ele>1649.000</ele>
        <time>2017-01-13T22:11:17Z</time>
        <name>WPT.2969</name>
      </trkpt>
      <trkpt lat="16.974477110" lon="-96.461767530">
        <ele>1648.000</ele>
        <time>2017-01-13T22:11:18Z</time>
        <name>WPT.2970</name>
      </trkpt>
      <trkpt lat="16.974408720" lon="-96.461959370">
        <ele>1649.000</ele>
        <time>2017-01-13T22:11:19Z</time>
        <name>WPT.2971</name>
      </trkpt>
      <trkpt lat="16.974335160" lon="-96.462148840">
        <ele>1649.000</ele>
        <time>2017-01-13T22:11:20Z</time>
        <name>WPT.2972</name>
      </trkpt>
      <trkpt lat="16.974281610" lon="-96.462355470">
        <ele>1647.000</ele>
        <time>2017-01-13T22:11:21Z</time>
        <name>WPT.2973</name>
      </trkpt>
      <trkpt lat="16.974224470" lon="-96.462554080">
        <ele>1646.000</ele>
        <time>2017-01-13T22:11:22Z</time>
        <name>WPT.2974</name>
      </trkpt>
      <trkpt lat="16.974154180" lon="-96.462747500">
        <ele>1645.000</ele>
        <time>2017-01-13T22:11:23Z</time>
        <name>WPT.2975</name>
      </trkpt>
      <trkpt lat="16.974089630" lon="-96.462950190">
        <ele>1645.000</ele>
        <time>2017-01-13T22:11:24Z</time>
        <name>WPT.2976</name>
      </trkpt>
      <trkpt lat="16.974027970" lon="-96.463149640">
        <ele>1645.000</ele>
        <time>2017-01-13T22:11:25Z</time>
        <name>WPT.2977</name>
      </trkpt>
      <trkpt lat="16.973966640" lon="-96.463350250">
        <ele>1644.000</ele>
        <time>2017-01-13T22:11:26Z</time>
        <name>WPT.2978</name>
      </trkpt>
      <trkpt lat="16.973902410" lon="-96.463548860">
        <ele>1644.000</ele>
        <time>2017-01-13T22:11:27Z</time>
        <name>WPT.2979</name>
      </trkpt>
      <trkpt lat="16.973868470" lon="-96.463758370">
        <ele>1643.000</ele>
        <time>2017-01-13T22:11:28Z</time>
        <name>WPT.2980</name>
      </trkpt>
      <trkpt lat="16.973807860" lon="-96.463970020">
        <ele>1642.000</ele>
        <time>2017-01-13T22:11:29Z</time>
        <name>WPT.2981</name>
      </trkpt>
      <trkpt lat="16.973751000" lon="-96.464168650">
        <ele>1641.000</ele>
        <time>2017-01-13T22:11:30Z</time>
        <name>WPT.2982</name>
      </trkpt>
      <trkpt lat="16.973688820" lon="-96.464366240">
        <ele>1642.000</ele>
        <time>2017-01-13T22:11:31Z</time>
        <name>WPT.2983</name>
      </trkpt>
      <trkpt lat="16.973627890" lon="-96.464567780">
        <ele>1643.000</ele>
        <time>2017-01-13T22:11:32Z</time>
        <name>WPT.2984</name>
      </trkpt>
      <trkpt lat="16.973557870" lon="-96.464764200">
        <ele>1643.000</ele>
        <time>2017-01-13T22:11:33Z</time>
        <name>WPT.2985</name>
      </trkpt>
      <trkpt lat="16.973504480" lon="-96.464964230">
        <ele>1644.000</ele>
        <time>2017-01-13T22:11:34Z</time>
        <name>WPT.2986</name>
      </trkpt>
      <trkpt lat="16.973437230" lon="-96.465163080">
        <ele>1644.000</ele>
        <time>2017-01-13T22:11:35Z</time>
        <name>WPT.2987</name>
      </trkpt>
      <trkpt lat="16.973362930" lon="-96.465342420">
        <ele>1645.000</ele>
        <time>2017-01-13T22:11:36Z</time>
        <name>WPT.2988</name>
      </trkpt>
      <trkpt lat="16.973297350" lon="-96.465538030">
        <ele>1645.000</ele>
        <time>2017-01-13T22:11:37Z</time>
        <name>WPT.2989</name>
      </trkpt>
      <trkpt lat="16.973243360" lon="-96.465723650">
        <ele>1645.000</ele>
        <time>2017-01-13T22:11:38Z</time>
        <name>WPT.2990</name>
      </trkpt>
      <trkpt lat="16.973180010" lon="-96.465911050">
        <ele>1645.000</ele>
        <time>2017-01-13T22:11:39Z</time>
        <name>WPT.2991</name>
      </trkpt>
      <trkpt lat="16.973138110" lon="-96.466085320">
        <ele>1646.000</ele>
        <time>2017-01-13T22:11:40Z</time>
        <name>WPT.2992</name>
      </trkpt>
      <trkpt lat="16.973087000" lon="-96.466262420">
        <ele>1645.000</ele>
        <time>2017-01-13T22:11:41Z</time>
        <name>WPT.2993</name>
      </trkpt>
      <trkpt lat="16.973035930" lon="-96.466444620">
        <ele>1645.000</ele>
        <time>2017-01-13T22:11:42Z</time>
        <name>WPT.2994</name>
      </trkpt>
      <trkpt lat="16.972996530" lon="-96.466620860">
        <ele>1644.000</ele>
        <time>2017-01-13T22:11:43Z</time>
        <name>WPT.2995</name>
      </trkpt>
      <trkpt lat="16.972941850" lon="-96.466776340">
        <ele>1644.000</ele>
        <time>2017-01-13T22:11:44Z</time>
        <name>WPT.2996</name>
      </trkpt>
      <trkpt lat="16.972887270" lon="-96.466954880">
        <ele>1644.000</ele>
        <time>2017-01-13T22:11:45Z</time>
        <name>WPT.2997</name>
      </trkpt>
      <trkpt lat="16.972824380" lon="-96.467125790">
        <ele>1643.000</ele>
        <time>2017-01-13T22:11:46Z</time>
        <name>WPT.2998</name>
      </trkpt>
      <trkpt lat="16.972768770" lon="-96.467298050">
        <ele>1643.000</ele>
        <time>2017-01-13T22:11:47Z</time>
        <name>WPT.2999</name>
      </trkpt>
      <trkpt lat="16.972707940" lon="-96.467465540">
        <ele>1642.000</ele>
        <time>2017-01-13T22:11:48Z</time>
        <name>WPT.3000</name>
      </trkpt>
      <trkpt lat="16.972664770" lon="-96.467633390">
        <ele>1642.000</ele>
        <time>2017-01-13T22:11:49Z</time>
        <name>WPT.3001</name>
      </trkpt>
      <trkpt lat="16.972618100" lon="-96.467799440">
        <ele>1641.000</ele>
        <time>2017-01-13T22:11:50Z</time>
        <name>WPT.3002</name>
      </trkpt>
      <trkpt lat="16.972558180" lon="-96.467969730">
        <ele>1641.000</ele>
        <time>2017-01-13T22:11:51Z</time>
        <name>WPT.3003</name>
      </trkpt>
      <trkpt lat="16.972505880" lon="-96.468140360">
        <ele>1641.000</ele>
        <time>2017-01-13T22:11:52Z</time>
        <name>WPT.3004</name>
      </trkpt>
      <trkpt lat="16.972435540" lon="-96.468316960">
        <ele>1641.000</ele>
        <time>2017-01-13T22:11:53Z</time>
        <name>WPT.3005</name>
      </trkpt>
      <trkpt lat="16.972365020" lon="-96.468484800">
        <ele>1640.000</ele>
        <time>2017-01-13T22:11:54Z</time>
        <name>WPT.3006</name>
      </trkpt>
      <trkpt lat="16.972282860" lon="-96.468653020">
        <ele>1640.000</ele>
        <time>2017-01-13T22:11:55Z</time>
        <name>WPT.3007</name>
      </trkpt>
      <trkpt lat="16.972202070" lon="-96.468822270">
        <ele>1640.000</ele>
        <time>2017-01-13T22:11:56Z</time>
        <name>WPT.3008</name>
      </trkpt>
      <trkpt lat="16.972104640" lon="-96.468986810">
        <ele>1640.000</ele>
        <time>2017-01-13T22:11:57Z</time>
        <name>WPT.3009</name>
      </trkpt>
      <trkpt lat="16.971988010" lon="-96.469147070">
        <ele>1642.000</ele>
        <time>2017-01-13T22:11:58Z</time>
        <name>WPT.3010</name>
      </trkpt>
      <trkpt lat="16.971915980" lon="-96.469318930">
        <ele>1641.000</ele>
        <time>2017-01-13T22:11:59Z</time>
        <name>WPT.3011</name>
      </trkpt>
      <trkpt lat="16.971827010" lon="-96.469485980">
        <ele>1640.000</ele>
        <time>2017-01-13T22:12:00Z</time>
        <name>WPT.3012</name>
      </trkpt>
      <trkpt lat="16.971732320" lon="-96.469662310">
        <ele>1639.000</ele>
        <time>2017-01-13T22:12:01Z</time>
        <name>WPT.3013</name>
      </trkpt>
      <trkpt lat="16.971636260" lon="-96.469824230">
        <ele>1638.000</ele>
        <time>2017-01-13T22:12:02Z</time>
        <name>WPT.3014</name>
      </trkpt>
      <trkpt lat="16.971549010" lon="-96.469996640">
        <ele>1638.000</ele>
        <time>2017-01-13T22:12:03Z</time>
        <name>WPT.3015</name>
      </trkpt>
      <trkpt lat="16.971457670" lon="-96.470155550">
        <ele>1637.000</ele>
        <time>2017-01-13T22:12:04Z</time>
        <name>WPT.3016</name>
      </trkpt>
      <trkpt lat="16.971357640" lon="-96.470314020">
        <ele>1637.000</ele>
        <time>2017-01-13T22:12:05Z</time>
        <name>WPT.3017</name>
      </trkpt>
      <trkpt lat="16.971255380" lon="-96.470474030">
        <ele>1638.000</ele>
        <time>2017-01-13T22:12:06Z</time>
        <name>WPT.3018</name>
      </trkpt>
      <trkpt lat="16.971176790" lon="-96.470635490">
        <ele>1638.000</ele>
        <time>2017-01-13T22:12:07Z</time>
        <name>WPT.3019</name>
      </trkpt>
      <trkpt lat="16.971085010" lon="-96.470792230">
        <ele>1638.000</ele>
        <time>2017-01-13T22:12:08Z</time>
        <name>WPT.3020</name>
      </trkpt>
      <trkpt lat="16.970981130" lon="-96.470963340">
        <ele>1638.000</ele>
        <time>2017-01-13T22:12:09Z</time>
        <name>WPT.3021</name>
      </trkpt>
      <trkpt lat="16.970907360" lon="-96.471148830">
        <ele>1638.000</ele>
        <time>2017-01-13T22:12:10Z</time>
        <name>WPT.3022</name>
      </trkpt>
      <trkpt lat="16.970810050" lon="-96.471313160">
        <ele>1639.000</ele>
        <time>2017-01-13T22:12:11Z</time>
        <name>WPT.3023</name>
      </trkpt>
      <trkpt lat="16.970719760" lon="-96.471466710">
        <ele>1640.000</ele>
        <time>2017-01-13T22:12:12Z</time>
        <name>WPT.3024</name>
      </trkpt>
      <trkpt lat="16.970615820" lon="-96.471620340">
        <ele>1641.000</ele>
        <time>2017-01-13T22:12:13Z</time>
        <name>WPT.3025</name>
      </trkpt>
      <trkpt lat="16.970510930" lon="-96.471780560">
        <ele>1642.000</ele>
        <time>2017-01-13T22:12:14Z</time>
        <name>WPT.3026</name>
      </trkpt>
      <trkpt lat="16.970433600" lon="-96.471940970">
        <ele>1642.000</ele>
        <time>2017-01-13T22:12:15Z</time>
        <name>WPT.3027</name>
      </trkpt>
      <trkpt lat="16.970343340" lon="-96.472090620">
        <ele>1641.000</ele>
        <time>2017-01-13T22:12:16Z</time>
        <name>WPT.3028</name>
      </trkpt>
      <trkpt lat="16.970260480" lon="-96.472243610">
        <ele>1641.000</ele>
        <time>2017-01-13T22:12:17Z</time>
        <name>WPT.3029</name>
      </trkpt>
      <trkpt lat="16.970167090" lon="-96.472380390">
        <ele>1641.000</ele>
        <time>2017-01-13T22:12:18Z</time>
        <name>WPT.3030</name>
      </trkpt>
      <trkpt lat="16.970084540" lon="-96.472527010">
        <ele>1641.000</ele>
        <time>2017-01-13T22:12:19Z</time>
        <name>WPT.3031</name>
      </trkpt>
      <trkpt lat="16.970013560" lon="-96.472665090">
        <ele>1640.000</ele>
        <time>2017-01-13T22:12:20Z</time>
        <name>WPT.3032</name>
      </trkpt>
      <trkpt lat="16.969944330" lon="-96.472810930">
        <ele>1638.000</ele>
        <time>2017-01-13T22:12:21Z</time>
        <name>WPT.3033</name>
      </trkpt>
      <trkpt lat="16.969860450" lon="-96.472939410">
        <ele>1637.000</ele>
        <time>2017-01-13T22:12:22Z</time>
        <name>WPT.3034</name>
      </trkpt>
      <trkpt lat="16.969775500" lon="-96.473072790">
        <ele>1636.000</ele>
        <time>2017-01-13T22:12:23Z</time>
        <name>WPT.3035</name>
      </trkpt>
      <trkpt lat="16.969706360" lon="-96.473203850">
        <ele>1636.000</ele>
        <time>2017-01-13T22:12:24Z</time>
        <name>WPT.3036</name>
      </trkpt>
      <trkpt lat="16.969608070" lon="-96.473340860">
        <ele>1636.000</ele>
        <time>2017-01-13T22:12:25Z</time>
        <name>WPT.3037</name>
      </trkpt>
      <trkpt lat="16.969542720" lon="-96.473486660">
        <ele>1634.000</ele>
        <time>2017-01-13T22:12:26Z</time>
        <name>WPT.3038</name>
      </trkpt>
      <trkpt lat="16.969478570" lon="-96.473608130">
        <ele>1633.000</ele>
        <time>2017-01-13T22:12:27Z</time>
        <name>WPT.3039</name>
      </trkpt>
      <trkpt lat="16.969412880" lon="-96.473720360">
        <ele>1632.000</ele>
        <time>2017-01-13T22:12:28Z</time>
        <name>WPT.3040</name>
      </trkpt>
      <trkpt lat="16.969353430" lon="-96.473810400">
        <ele>1632.000</ele>
        <time>2017-01-13T22:12:29Z</time>
        <name>WPT.3041</name>
      </trkpt>
      <trkpt lat="16.969291820" lon="-96.473894800">
        <ele>1630.000</ele>
        <time>2017-01-13T22:12:30Z</time>
        <name>WPT.3042</name>
      </trkpt>
      <trkpt lat="16.969244420" lon="-96.473977760">
        <ele>1631.000</ele>
        <time>2017-01-13T22:12:31Z</time>
        <name>WPT.3043</name>
      </trkpt>
      <trkpt lat="16.969183620" lon="-96.474064180">
        <ele>1632.000</ele>
        <time>2017-01-13T22:12:32Z</time>
        <name>WPT.3044</name>
      </trkpt>
      <trkpt lat="16.969117890" lon="-96.474148050">
        <ele>1632.000</ele>
        <time>2017-01-13T22:12:33Z</time>
        <name>WPT.3045</name>
      </trkpt>
      <trkpt lat="16.969065630" lon="-96.474235380">
        <ele>1631.000</ele>
        <time>2017-01-13T22:12:34Z</time>
        <name>WPT.3046</name>
      </trkpt>
      <trkpt lat="16.969001210" lon="-96.474308940">
        <ele>1630.000</ele>
        <time>2017-01-13T22:12:35Z</time>
        <name>WPT.3047</name>
      </trkpt>
      <trkpt lat="16.968944070" lon="-96.474375680">
        <ele>1630.000</ele>
        <time>2017-01-13T22:12:36Z</time>
        <name>WPT.3048</name>
      </trkpt>
      <trkpt lat="16.968909820" lon="-96.474428110">
        <ele>1631.000</ele>
        <time>2017-01-13T22:12:37Z</time>
        <name>WPT.3049</name>
      </trkpt>
      <trkpt lat="16.968862010" lon="-96.474470720">
        <ele>1631.000</ele>
        <time>2017-01-13T22:12:39Z</time>
        <name>WPT.3050</name>
      </trkpt>
      <trkpt lat="16.968822280" lon="-96.474487410">
        <ele>1632.000</ele>
        <time>2017-01-13T22:12:41Z</time>
        <name>WPT.3051</name>
      </trkpt>
      <trkpt lat="16.968786010" lon="-96.474531190">
        <ele>1632.000</ele>
        <time>2017-01-13T22:12:43Z</time>
        <name>WPT.3052</name>
      </trkpt>
      <trkpt lat="16.968761240" lon="-96.474563240">
        <ele>1632.000</ele>
        <time>2017-01-13T22:12:44Z</time>
        <name>WPT.3053</name>
      </trkpt>
      <trkpt lat="16.968736040" lon="-96.474604570">
        <ele>1632.000</ele>
        <time>2017-01-13T22:12:45Z</time>
        <name>WPT.3054</name>
      </trkpt>
      <trkpt lat="16.968691160" lon="-96.474656240">
        <ele>1631.000</ele>
        <time>2017-01-13T22:12:46Z</time>
        <name>WPT.3055</name>
      </trkpt>
      <trkpt lat="16.968646400" lon="-96.474717030">
        <ele>1632.000</ele>
        <time>2017-01-13T22:12:47Z</time>
        <name>WPT.3056</name>
      </trkpt>
      <trkpt lat="16.968581140" lon="-96.474760060">
        <ele>1631.000</ele>
        <time>2017-01-13T22:12:48Z</time>
        <name>WPT.3057</name>
      </trkpt>
      <trkpt lat="16.968512430" lon="-96.474821730">
        <ele>1630.000</ele>
        <time>2017-01-13T22:12:49Z</time>
        <name>WPT.3058</name>
      </trkpt>
      <trkpt lat="16.968421690" lon="-96.474881870">
        <ele>1632.000</ele>
        <time>2017-01-13T22:12:50Z</time>
        <name>WPT.3059</name>
      </trkpt>
      <trkpt lat="16.968334850" lon="-96.474945180">
        <ele>1634.000</ele>
        <time>2017-01-13T22:12:51Z</time>
        <name>WPT.3060</name>
      </trkpt>
      <trkpt lat="16.968233240" lon="-96.474995840">
        <ele>1634.000</ele>
        <time>2017-01-13T22:12:52Z</time>
        <name>WPT.3061</name>
      </trkpt>
      <trkpt lat="16.968144340" lon="-96.475058600">
        <ele>1635.000</ele>
        <time>2017-01-13T22:12:53Z</time>
        <name>WPT.3062</name>
      </trkpt>
      <trkpt lat="16.968053130" lon="-96.475109860">
        <ele>1634.000</ele>
        <time>2017-01-13T22:12:54Z</time>
        <name>WPT.3063</name>
      </trkpt>
      <trkpt lat="16.967983190" lon="-96.475163000">
        <ele>1633.000</ele>
        <time>2017-01-13T22:12:55Z</time>
        <name>WPT.3064</name>
      </trkpt>
      <trkpt lat="16.967891480" lon="-96.475207450">
        <ele>1631.000</ele>
        <time>2017-01-13T22:12:56Z</time>
        <name>WPT.3065</name>
      </trkpt>
      <trkpt lat="16.967805850" lon="-96.475257480">
        <ele>1628.000</ele>
        <time>2017-01-13T22:12:57Z</time>
        <name>WPT.3066</name>
      </trkpt>
      <trkpt lat="16.967740210" lon="-96.475284460">
        <ele>1628.000</ele>
        <time>2017-01-13T22:12:58Z</time>
        <name>WPT.3067</name>
      </trkpt>
      <trkpt lat="16.967671030" lon="-96.475311420">
        <ele>1629.000</ele>
        <time>2017-01-13T22:12:59Z</time>
        <name>WPT.3068</name>
      </trkpt>
      <trkpt lat="16.967627860" lon="-96.475340180">
        <ele>1627.000</ele>
        <time>2017-01-13T22:13:00Z</time>
        <name>WPT.3069</name>
      </trkpt>
      <trkpt lat="16.967580400" lon="-96.475371150">
        <ele>1626.000</ele>
        <time>2017-01-13T22:13:01Z</time>
        <name>WPT.3070</name>
      </trkpt>
      <trkpt lat="16.967521220" lon="-96.475387050">
        <ele>1626.000</ele>
        <time>2017-01-13T22:13:02Z</time>
        <name>WPT.3071</name>
      </trkpt>
      <trkpt lat="16.967451090" lon="-96.475406050">
        <ele>1626.000</ele>
        <time>2017-01-13T22:13:03Z</time>
        <name>WPT.3072</name>
      </trkpt>
      <trkpt lat="16.967374260" lon="-96.475415350">
        <ele>1626.000</ele>
        <time>2017-01-13T22:13:04Z</time>
        <name>WPT.3073</name>
      </trkpt>
      <trkpt lat="16.967287220" lon="-96.475441900">
        <ele>1626.000</ele>
        <time>2017-01-13T22:13:05Z</time>
        <name>WPT.3074</name>
      </trkpt>
      <trkpt lat="16.967220050" lon="-96.475469500">
        <ele>1626.000</ele>
        <time>2017-01-13T22:13:06Z</time>
        <name>WPT.3075</name>
      </trkpt>
      <trkpt lat="16.967144820" lon="-96.475484420">
        <ele>1626.000</ele>
        <time>2017-01-13T22:13:07Z</time>
        <name>WPT.3076</name>
      </trkpt>
      <trkpt lat="16.967060500" lon="-96.475497980">
        <ele>1627.000</ele>
        <time>2017-01-13T22:13:08Z</time>
        <name>WPT.3077</name>
      </trkpt>
      <trkpt lat="16.966972250" lon="-96.475525020">
        <ele>1626.000</ele>
        <time>2017-01-13T22:13:09Z</time>
        <name>WPT.3078</name>
      </trkpt>
      <trkpt lat="16.966879400" lon="-96.475541710">
        <ele>1626.000</ele>
        <time>2017-01-13T22:13:10Z</time>
        <name>WPT.3079</name>
      </trkpt>
      <trkpt lat="16.966802030" lon="-96.475567700">
        <ele>1624.000</ele>
        <time>2017-01-13T22:13:11Z</time>
        <name>WPT.3080</name>
      </trkpt>
      <trkpt lat="16.966725380" lon="-96.475591100">
        <ele>1623.000</ele>
        <time>2017-01-13T22:13:12Z</time>
        <name>WPT.3081</name>
      </trkpt>
      <trkpt lat="16.966638480" lon="-96.475622620">
        <ele>1623.000</ele>
        <time>2017-01-13T22:13:13Z</time>
        <name>WPT.3082</name>
      </trkpt>
      <trkpt lat="16.966544700" lon="-96.475652840">
        <ele>1622.000</ele>
        <time>2017-01-13T22:13:14Z</time>
        <name>WPT.3083</name>
      </trkpt>
      <trkpt lat="16.966460620" lon="-96.475680020">
        <ele>1621.000</ele>
        <time>2017-01-13T22:13:15Z</time>
        <name>WPT.3084</name>
      </trkpt>
      <trkpt lat="16.966380110" lon="-96.475698940">
        <ele>1621.000</ele>
        <time>2017-01-13T22:13:16Z</time>
        <name>WPT.3085</name>
      </trkpt>
      <trkpt lat="16.966301980" lon="-96.475733650">
        <ele>1620.000</ele>
        <time>2017-01-13T22:13:17Z</time>
        <name>WPT.3086</name>
      </trkpt>
      <trkpt lat="16.966233340" lon="-96.475755190">
        <ele>1619.000</ele>
        <time>2017-01-13T22:13:18Z</time>
        <name>WPT.3087</name>
      </trkpt>
      <trkpt lat="16.966172610" lon="-96.475767250">
        <ele>1619.000</ele>
        <time>2017-01-13T22:13:19Z</time>
        <name>WPT.3088</name>
      </trkpt>
      <trkpt lat="16.966130370" lon="-96.475777700">
        <ele>1618.000</ele>
        <time>2017-01-13T22:13:20Z</time>
        <name>WPT.3089</name>
      </trkpt>
      <trkpt lat="16.966080650" lon="-96.475791400">
        <ele>1619.000</ele>
        <time>2017-01-13T22:13:22Z</time>
        <name>WPT.3090</name>
      </trkpt>
      <trkpt lat="16.966037410" lon="-96.475795310">
        <ele>1619.000</ele>
        <time>2017-01-13T22:13:25Z</time>
        <name>WPT.3091</name>
      </trkpt>
      <trkpt lat="16.965999190" lon="-96.475813470">
        <ele>1619.000</ele>
        <time>2017-01-13T22:13:28Z</time>
        <name>WPT.3092</name>
      </trkpt>
      <trkpt lat="16.965948790" lon="-96.475828260">
        <ele>1620.000</ele>
        <time>2017-01-13T22:13:30Z</time>
        <name>WPT.3093</name>
      </trkpt>
      <trkpt lat="16.965911640" lon="-96.475836550">
        <ele>1619.000</ele>
        <time>2017-01-13T22:13:31Z</time>
        <name>WPT.3094</name>
      </trkpt>
      <trkpt lat="16.965871130" lon="-96.475856560">
        <ele>1619.000</ele>
        <time>2017-01-13T22:13:32Z</time>
        <name>WPT.3095</name>
      </trkpt>
      <trkpt lat="16.965816680" lon="-96.475871940">
        <ele>1620.000</ele>
        <time>2017-01-13T22:13:33Z</time>
        <name>WPT.3096</name>
      </trkpt>
      <trkpt lat="16.965743160" lon="-96.475892720">
        <ele>1620.000</ele>
        <time>2017-01-13T22:13:34Z</time>
        <name>WPT.3097</name>
      </trkpt>
      <trkpt lat="16.965666540" lon="-96.475921740">
        <ele>1619.000</ele>
        <time>2017-01-13T22:13:35Z</time>
        <name>WPT.3098</name>
      </trkpt>
      <trkpt lat="16.965587970" lon="-96.475943770">
        <ele>1618.000</ele>
        <time>2017-01-13T22:13:36Z</time>
        <name>WPT.3099</name>
      </trkpt>
      <trkpt lat="16.965478690" lon="-96.475972420">
        <ele>1619.000</ele>
        <time>2017-01-13T22:13:37Z</time>
        <name>WPT.3100</name>
      </trkpt>
      <trkpt lat="16.965392340" lon="-96.475994850">
        <ele>1619.000</ele>
        <time>2017-01-13T22:13:38Z</time>
        <name>WPT.3101</name>
      </trkpt>
      <trkpt lat="16.965306620" lon="-96.476009830">
        <ele>1619.000</ele>
        <time>2017-01-13T22:13:39Z</time>
        <name>WPT.3102</name>
      </trkpt>
      <trkpt lat="16.965218060" lon="-96.476039010">
        <ele>1619.000</ele>
        <time>2017-01-13T22:13:40Z</time>
        <name>WPT.3103</name>
      </trkpt>
      <trkpt lat="16.965124110" lon="-96.476062010">
        <ele>1617.000</ele>
        <time>2017-01-13T22:13:41Z</time>
        <name>WPT.3104</name>
      </trkpt>
      <trkpt lat="16.965040100" lon="-96.476087080">
        <ele>1617.000</ele>
        <time>2017-01-13T22:13:42Z</time>
        <name>WPT.3105</name>
      </trkpt>
      <trkpt lat="16.964954720" lon="-96.476111790">
        <ele>1617.000</ele>
        <time>2017-01-13T22:13:43Z</time>
        <name>WPT.3106</name>
      </trkpt>
      <trkpt lat="16.964875030" lon="-96.476137060">
        <ele>1616.000</ele>
        <time>2017-01-13T22:13:44Z</time>
        <name>WPT.3107</name>
      </trkpt>
      <trkpt lat="16.964789370" lon="-96.476167520">
        <ele>1616.000</ele>
        <time>2017-01-13T22:13:45Z</time>
        <name>WPT.3108</name>
      </trkpt>
      <trkpt lat="16.964714940" lon="-96.476192250">
        <ele>1616.000</ele>
        <time>2017-01-13T22:13:46Z</time>
        <name>WPT.3109</name>
      </trkpt>
      <trkpt lat="16.964656380" lon="-96.476208910">
        <ele>1615.000</ele>
        <time>2017-01-13T22:13:47Z</time>
        <name>WPT.3110</name>
      </trkpt>
      <trkpt lat="16.964607250" lon="-96.476219570">
        <ele>1615.000</ele>
        <time>2017-01-13T22:13:48Z</time>
        <name>WPT.3111</name>
      </trkpt>
      <trkpt lat="16.964565260" lon="-96.476228040">
        <ele>1615.000</ele>
        <time>2017-01-13T22:13:49Z</time>
        <name>WPT.3112</name>
      </trkpt>
      <trkpt lat="16.964500860" lon="-96.476257380">
        <ele>1614.000</ele>
        <time>2017-01-13T22:13:51Z</time>
        <name>WPT.3113</name>
      </trkpt>
      <trkpt lat="16.964464030" lon="-96.476271790">
        <ele>1614.000</ele>
        <time>2017-01-13T22:13:52Z</time>
        <name>WPT.3114</name>
      </trkpt>
      <trkpt lat="16.964418060" lon="-96.476281320">
        <ele>1614.000</ele>
        <time>2017-01-13T22:13:53Z</time>
        <name>WPT.3115</name>
      </trkpt>
      <trkpt lat="16.964362280" lon="-96.476293480">
        <ele>1615.000</ele>
        <time>2017-01-13T22:13:54Z</time>
        <name>WPT.3116</name>
      </trkpt>
      <trkpt lat="16.964308220" lon="-96.476306930">
        <ele>1615.000</ele>
        <time>2017-01-13T22:13:55Z</time>
        <name>WPT.3117</name>
      </trkpt>
      <trkpt lat="16.964243900" lon="-96.476320500">
        <ele>1616.000</ele>
        <time>2017-01-13T22:13:56Z</time>
        <name>WPT.3118</name>
      </trkpt>
      <trkpt lat="16.964174770" lon="-96.476336870">
        <ele>1616.000</ele>
        <time>2017-01-13T22:13:57Z</time>
        <name>WPT.3119</name>
      </trkpt>
      <trkpt lat="16.964098870" lon="-96.476354490">
        <ele>1615.000</ele>
        <time>2017-01-13T22:13:58Z</time>
        <name>WPT.3120</name>
      </trkpt>
      <trkpt lat="16.964025170" lon="-96.476375660">
        <ele>1615.000</ele>
        <time>2017-01-13T22:13:59Z</time>
        <name>WPT.3121</name>
      </trkpt>
      <trkpt lat="16.963940220" lon="-96.476394370">
        <ele>1615.000</ele>
        <time>2017-01-13T22:14:00Z</time>
        <name>WPT.3122</name>
      </trkpt>
      <trkpt lat="16.963854810" lon="-96.476425760">
        <ele>1615.000</ele>
        <time>2017-01-13T22:14:01Z</time>
        <name>WPT.3123</name>
      </trkpt>
      <trkpt lat="16.963767690" lon="-96.476459630">
        <ele>1615.000</ele>
        <time>2017-01-13T22:14:02Z</time>
        <name>WPT.3124</name>
      </trkpt>
      <trkpt lat="16.963677280" lon="-96.476490880">
        <ele>1615.000</ele>
        <time>2017-01-13T22:14:03Z</time>
        <name>WPT.3125</name>
      </trkpt>
      <trkpt lat="16.963588580" lon="-96.476513550">
        <ele>1615.000</ele>
        <time>2017-01-13T22:14:04Z</time>
        <name>WPT.3126</name>
      </trkpt>
      <trkpt lat="16.963510120" lon="-96.476536740">
        <ele>1614.000</ele>
        <time>2017-01-13T22:14:05Z</time>
        <name>WPT.3127</name>
      </trkpt>
      <trkpt lat="16.963443070" lon="-96.476562670">
        <ele>1614.000</ele>
        <time>2017-01-13T22:14:06Z</time>
        <name>WPT.3128</name>
      </trkpt>
      <trkpt lat="16.963389310" lon="-96.476575630">
        <ele>1613.000</ele>
        <time>2017-01-13T22:14:07Z</time>
        <name>WPT.3129</name>
      </trkpt>
      <trkpt lat="16.963343770" lon="-96.476582010">
        <ele>1614.000</ele>
        <time>2017-01-13T22:14:08Z</time>
        <name>WPT.3130</name>
      </trkpt>
      <trkpt lat="16.963283720" lon="-96.476589960">
        <ele>1618.000</ele>
        <time>2017-01-13T22:14:10Z</time>
        <name>WPT.3131</name>
      </trkpt>
      <trkpt lat="16.963230760" lon="-96.476732620">
        <ele>1618.000</ele>
        <time>2017-01-13T22:14:14Z</time>
        <name>WPT.3132</name>
      </trkpt>
      <trkpt lat="16.963230540" lon="-96.476774720">
        <ele>1618.000</ele>
        <time>2017-01-13T22:14:15Z</time>
        <name>WPT.3133</name>
      </trkpt>
      <trkpt lat="16.963230330" lon="-96.476832130">
        <ele>1617.000</ele>
        <time>2017-01-13T22:14:16Z</time>
        <name>WPT.3134</name>
      </trkpt>
      <trkpt lat="16.963254320" lon="-96.476880430">
        <ele>1618.000</ele>
        <time>2017-01-13T22:14:17Z</time>
        <name>WPT.3135</name>
      </trkpt>
      <trkpt lat="16.963288440" lon="-96.476919080">
        <ele>1618.000</ele>
        <time>2017-01-13T22:14:18Z</time>
        <name>WPT.3136</name>
      </trkpt>
      <trkpt lat="16.963299450" lon="-96.476976270">
        <ele>1619.000</ele>
        <time>2017-01-13T22:14:19Z</time>
        <name>WPT.3137</name>
      </trkpt>
      <trkpt lat="16.963299030" lon="-96.477047380">
        <ele>1618.000</ele>
        <time>2017-01-13T22:14:20Z</time>
        <name>WPT.3138</name>
      </trkpt>
      <trkpt lat="16.963319690" lon="-96.477121000">
        <ele>1617.000</ele>
        <time>2017-01-13T22:14:21Z</time>
        <name>WPT.3139</name>
      </trkpt>
      <trkpt lat="16.963342120" lon="-96.477193130">
        <ele>1617.000</ele>
        <time>2017-01-13T22:14:22Z</time>
        <name>WPT.3140</name>
      </trkpt>
      <trkpt lat="16.963350930" lon="-96.477270780">
        <ele>1616.000</ele>
        <time>2017-01-13T22:14:23Z</time>
        <name>WPT.3141</name>
      </trkpt>
      <trkpt lat="16.963360440" lon="-96.477338640">
        <ele>1615.000</ele>
        <time>2017-01-13T22:14:24Z</time>
        <name>WPT.3142</name>
      </trkpt>
      <trkpt lat="16.963366800" lon="-96.477408310">
        <ele>1615.000</ele>
        <time>2017-01-13T22:14:25Z</time>
        <name>WPT.3143</name>
      </trkpt>
      <trkpt lat="16.963378600" lon="-96.477472170">
        <ele>1615.000</ele>
        <time>2017-01-13T22:14:26Z</time>
        <name>WPT.3144</name>
      </trkpt>
      <trkpt lat="16.963398490" lon="-96.477542170">
        <ele>1614.000</ele>
        <time>2017-01-13T22:14:27Z</time>
        <name>WPT.3145</name>
      </trkpt>
      <trkpt lat="16.963447900" lon="-96.477589650">
        <ele>1614.000</ele>
        <time>2017-01-13T22:14:29Z</time>
        <name>WPT.3146</name>
      </trkpt>
      <trkpt lat="16.963431750" lon="-96.477669490">
        <ele>1616.000</ele>
        <time>2017-01-13T22:14:33Z</time>
        <name>WPT.3147</name>
      </trkpt>
      <trkpt lat="16.963429860" lon="-96.477715490">
        <ele>1621.000</ele>
        <time>2017-01-13T22:14:36Z</time>
        <name>WPT.3148</name>
      </trkpt>
      <trkpt lat="16.963437460" lon="-96.477760150">
        <ele>1622.000</ele>
        <time>2017-01-13T22:14:38Z</time>
        <name>WPT.3149</name>
      </trkpt>
      <trkpt lat="16.963478190" lon="-96.477806490">
        <ele>1619.000</ele>
        <time>2017-01-13T22:14:40Z</time>
        <name>WPT.3150</name>
      </trkpt>
      <trkpt lat="16.963485770" lon="-96.477860600">
        <ele>1619.000</ele>
        <time>2017-01-13T22:14:42Z</time>
        <name>WPT.3151</name>
      </trkpt>
      <trkpt lat="16.963469660" lon="-96.477904050">
        <ele>1620.000</ele>
        <time>2017-01-13T22:14:43Z</time>
        <name>WPT.3152</name>
      </trkpt>
      <trkpt lat="16.963496730" lon="-96.477932190">
        <ele>1620.000</ele>
        <time>2017-01-13T22:14:44Z</time>
        <name>WPT.3153</name>
      </trkpt>
      <trkpt lat="16.963508390" lon="-96.477987210">
        <ele>1621.000</ele>
        <time>2017-01-13T22:14:46Z</time>
        <name>WPT.3154</name>
      </trkpt>
      <trkpt lat="16.963516910" lon="-96.478047530">
        <ele>1617.000</ele>
        <time>2017-01-13T22:14:48Z</time>
        <name>WPT.3155</name>
      </trkpt>
      <trkpt lat="16.963545550" lon="-96.478112050">
        <ele>1616.000</ele>
        <time>2017-01-13T22:14:49Z</time>
        <name>WPT.3156</name>
      </trkpt>
      <trkpt lat="16.963577640" lon="-96.478163760">
        <ele>1616.000</ele>
        <time>2017-01-13T22:14:50Z</time>
        <name>WPT.3157</name>
      </trkpt>
      <trkpt lat="16.963588130" lon="-96.478223070">
        <ele>1615.000</ele>
        <time>2017-01-13T22:14:51Z</time>
        <name>WPT.3158</name>
      </trkpt>
      <trkpt lat="16.963605580" lon="-96.478299020">
        <ele>1615.000</ele>
        <time>2017-01-13T22:14:53Z</time>
        <name>WPT.3159</name>
      </trkpt>
      <trkpt lat="16.963609810" lon="-96.478336930">
        <ele>1615.000</ele>
        <time>2017-01-13T22:14:54Z</time>
        <name>WPT.3160</name>
      </trkpt>
      <trkpt lat="16.963624900" lon="-96.478384000">
        <ele>1615.000</ele>
        <time>2017-01-13T22:14:56Z</time>
        <name>WPT.3161</name>
      </trkpt>
      <trkpt lat="16.963638190" lon="-96.478433890">
        <ele>1618.000</ele>
        <time>2017-01-13T22:15:00Z</time>
        <name>WPT.3162</name>
      </trkpt>
      <trkpt lat="16.963649010" lon="-96.478502250">
        <ele>1617.000</ele>
        <time>2017-01-13T22:15:02Z</time>
        <name>WPT.3163</name>
      </trkpt>
      <trkpt lat="16.963653870" lon="-96.478540490">
        <ele>1617.000</ele>
        <time>2017-01-13T22:15:03Z</time>
        <name>WPT.3164</name>
      </trkpt>
      <trkpt lat="16.963674660" lon="-96.478609580">
        <ele>1615.000</ele>
        <time>2017-01-13T22:15:05Z</time>
        <name>WPT.3165</name>
      </trkpt>
      <trkpt lat="16.963665460" lon="-96.478669730">
        <ele>1616.000</ele>
        <time>2017-01-13T22:15:07Z</time>
        <name>WPT.3166</name>
      </trkpt>
      <trkpt lat="16.963673830" lon="-96.478711750">
        <ele>1615.000</ele>
        <time>2017-01-13T22:15:09Z</time>
        <name>WPT.3167</name>
      </trkpt>
      <trkpt lat="16.963687160" lon="-96.478764520">
        <ele>1610.000</ele>
        <time>2017-01-13T22:15:12Z</time>
        <name>WPT.3168</name>
      </trkpt>
      <trkpt lat="16.963699780" lon="-96.478806260">
        <ele>1612.000</ele>
        <time>2017-01-13T22:15:14Z</time>
        <name>WPT.3169</name>
      </trkpt>
      <trkpt lat="16.963698260" lon="-96.478865540">
        <ele>1611.000</ele>
        <time>2017-01-13T22:15:16Z</time>
        <name>WPT.3170</name>
      </trkpt>
      <trkpt lat="16.963742810" lon="-96.478924570">
        <ele>1608.000</ele>
        <time>2017-01-13T22:15:18Z</time>
        <name>WPT.3171</name>
      </trkpt>
      <trkpt lat="16.963771060" lon="-96.478976410">
        <ele>1607.000</ele>
        <time>2017-01-13T22:15:20Z</time>
        <name>WPT.3172</name>
      </trkpt>
      <trkpt lat="16.963812400" lon="-96.479040120">
        <ele>1606.000</ele>
        <time>2017-01-13T22:15:22Z</time>
        <name>WPT.3173</name>
      </trkpt>
      <trkpt lat="16.963819950" lon="-96.479080060">
        <ele>1607.000</ele>
        <time>2017-01-13T22:15:23Z</time>
        <name>WPT.3174</name>
      </trkpt>
      <trkpt lat="16.963836700" lon="-96.479116280">
        <ele>1607.000</ele>
        <time>2017-01-13T22:15:24Z</time>
        <name>WPT.3175</name>
      </trkpt>
      <trkpt lat="16.963856560" lon="-96.479156990">
        <ele>1608.000</ele>
        <time>2017-01-13T22:15:25Z</time>
        <name>WPT.3176</name>
      </trkpt>
      <trkpt lat="16.963877700" lon="-96.479197150">
        <ele>1609.000</ele>
        <time>2017-01-13T22:15:26Z</time>
        <name>WPT.3177</name>
      </trkpt>
      <trkpt lat="16.963920270" lon="-96.479246980">
        <ele>1608.000</ele>
        <time>2017-01-13T22:15:27Z</time>
        <name>WPT.3178</name>
      </trkpt>
      <trkpt lat="16.963957140" lon="-96.479303530">
        <ele>1609.000</ele>
        <time>2017-01-13T22:15:28Z</time>
        <name>WPT.3179</name>
      </trkpt>
      <trkpt lat="16.964007560" lon="-96.479364100">
        <ele>1607.000</ele>
        <time>2017-01-13T22:15:29Z</time>
        <name>WPT.3180</name>
      </trkpt>
      <trkpt lat="16.964056830" lon="-96.479433790">
        <ele>1608.000</ele>
        <time>2017-01-13T22:15:30Z</time>
        <name>WPT.3181</name>
      </trkpt>
      <trkpt lat="16.964121570" lon="-96.479499080">
        <ele>1609.000</ele>
        <time>2017-01-13T22:15:31Z</time>
        <name>WPT.3182</name>
      </trkpt>
      <trkpt lat="16.964165140" lon="-96.479556910">
        <ele>1609.000</ele>
        <time>2017-01-13T22:15:32Z</time>
        <name>WPT.3183</name>
      </trkpt>
      <trkpt lat="16.964211570" lon="-96.479607950">
        <ele>1610.000</ele>
        <time>2017-01-13T22:15:33Z</time>
        <name>WPT.3184</name>
      </trkpt>
      <trkpt lat="16.964283850" lon="-96.479668710">
        <ele>1609.000</ele>
        <time>2017-01-13T22:15:34Z</time>
        <name>WPT.3185</name>
      </trkpt>
      <trkpt lat="16.964338340" lon="-96.479715470">
        <ele>1609.000</ele>
        <time>2017-01-13T22:15:35Z</time>
        <name>WPT.3186</name>
      </trkpt>
      <trkpt lat="16.964373290" lon="-96.479792150">
        <ele>1609.000</ele>
        <time>2017-01-13T22:15:36Z</time>
        <name>WPT.3187</name>
      </trkpt>
      <trkpt lat="16.964418690" lon="-96.479876140">
        <ele>1610.000</ele>
        <time>2017-01-13T22:15:37Z</time>
        <name>WPT.3188</name>
      </trkpt>
      <trkpt lat="16.964453280" lon="-96.479947070">
        <ele>1612.000</ele>
        <time>2017-01-13T22:15:38Z</time>
        <name>WPT.3189</name>
      </trkpt>
      <trkpt lat="16.964504240" lon="-96.480014600">
        <ele>1611.000</ele>
        <time>2017-01-13T22:15:39Z</time>
        <name>WPT.3190</name>
      </trkpt>
      <trkpt lat="16.964546970" lon="-96.480076560">
        <ele>1612.000</ele>
        <time>2017-01-13T22:15:40Z</time>
        <name>WPT.3191</name>
      </trkpt>
      <trkpt lat="16.964610650" lon="-96.480130390">
        <ele>1610.000</ele>
        <time>2017-01-13T22:15:41Z</time>
        <name>WPT.3192</name>
      </trkpt>
      <trkpt lat="16.964642590" lon="-96.480176930">
        <ele>1613.000</ele>
        <time>2017-01-13T22:15:44Z</time>
        <name>WPT.3193</name>
      </trkpt>
      <trkpt lat="16.964663470" lon="-96.480254800">
        <ele>1616.000</ele>
        <time>2017-01-13T22:15:46Z</time>
        <name>WPT.3194</name>
      </trkpt>
      <trkpt lat="16.964691690" lon="-96.480303040">
        <ele>1615.000</ele>
        <time>2017-01-13T22:15:47Z</time>
        <name>WPT.3195</name>
      </trkpt>
      <trkpt lat="16.964711270" lon="-96.480344560">
        <ele>1617.000</ele>
        <time>2017-01-13T22:15:48Z</time>
        <name>WPT.3196</name>
      </trkpt>
      <trkpt lat="16.964755860" lon="-96.480391720">
        <ele>1617.000</ele>
        <time>2017-01-13T22:15:49Z</time>
        <name>WPT.3197</name>
      </trkpt>
      <trkpt lat="16.964803320" lon="-96.480443760">
        <ele>1617.000</ele>
        <time>2017-01-13T22:15:50Z</time>
        <name>WPT.3198</name>
      </trkpt>
      <trkpt lat="16.964845370" lon="-96.480504000">
        <ele>1616.000</ele>
        <time>2017-01-13T22:15:51Z</time>
        <name>WPT.3199</name>
      </trkpt>
      <trkpt lat="16.964909730" lon="-96.480562280">
        <ele>1615.000</ele>
        <time>2017-01-13T22:15:52Z</time>
        <name>WPT.3200</name>
      </trkpt>
      <trkpt lat="16.964951440" lon="-96.480632440">
        <ele>1615.000</ele>
        <time>2017-01-13T22:15:53Z</time>
        <name>WPT.3201</name>
      </trkpt>
      <trkpt lat="16.965004950" lon="-96.480701320">
        <ele>1615.000</ele>
        <time>2017-01-13T22:15:54Z</time>
        <name>WPT.3202</name>
      </trkpt>
      <trkpt lat="16.965060450" lon="-96.480767730">
        <ele>1616.000</ele>
        <time>2017-01-13T22:15:55Z</time>
        <name>WPT.3203</name>
      </trkpt>
      <trkpt lat="16.965118240" lon="-96.480854730">
        <ele>1616.000</ele>
        <time>2017-01-13T22:15:56Z</time>
        <name>WPT.3204</name>
      </trkpt>
      <trkpt lat="16.965185720" lon="-96.480954860">
        <ele>1615.000</ele>
        <time>2017-01-13T22:15:57Z</time>
        <name>WPT.3205</name>
      </trkpt>
      <trkpt lat="16.965248220" lon="-96.481045210">
        <ele>1614.000</ele>
        <time>2017-01-13T22:15:58Z</time>
        <name>WPT.3206</name>
      </trkpt>
      <trkpt lat="16.965318820" lon="-96.481134950">
        <ele>1614.000</ele>
        <time>2017-01-13T22:15:59Z</time>
        <name>WPT.3207</name>
      </trkpt>
      <trkpt lat="16.965372290" lon="-96.481219310">
        <ele>1614.000</ele>
        <time>2017-01-13T22:16:00Z</time>
        <name>WPT.3208</name>
      </trkpt>
      <trkpt lat="16.965436290" lon="-96.481323670">
        <ele>1614.000</ele>
        <time>2017-01-13T22:16:01Z</time>
        <name>WPT.3209</name>
      </trkpt>
      <trkpt lat="16.965507210" lon="-96.481431350">
        <ele>1614.000</ele>
        <time>2017-01-13T22:16:02Z</time>
        <name>WPT.3210</name>
      </trkpt>
      <trkpt lat="16.965582890" lon="-96.481549250">
        <ele>1613.000</ele>
        <time>2017-01-13T22:16:03Z</time>
        <name>WPT.3211</name>
      </trkpt>
      <trkpt lat="16.965660150" lon="-96.481666280">
        <ele>1613.000</ele>
        <time>2017-01-13T22:16:04Z</time>
        <name>WPT.3212</name>
      </trkpt>
      <trkpt lat="16.965740240" lon="-96.481789410">
        <ele>1614.000</ele>
        <time>2017-01-13T22:16:05Z</time>
        <name>WPT.3213</name>
      </trkpt>
      <trkpt lat="16.965815700" lon="-96.481920670">
        <ele>1614.000</ele>
        <time>2017-01-13T22:16:06Z</time>
        <name>WPT.3214</name>
      </trkpt>
      <trkpt lat="16.965895000" lon="-96.482063740">
        <ele>1614.000</ele>
        <time>2017-01-13T22:16:07Z</time>
        <name>WPT.3215</name>
      </trkpt>
      <trkpt lat="16.965970620" lon="-96.482206430">
        <ele>1614.000</ele>
        <time>2017-01-13T22:16:08Z</time>
        <name>WPT.3216</name>
      </trkpt>
      <trkpt lat="16.966059600" lon="-96.482354310">
        <ele>1614.000</ele>
        <time>2017-01-13T22:16:09Z</time>
        <name>WPT.3217</name>
      </trkpt>
      <trkpt lat="16.966151990" lon="-96.482495690">
        <ele>1614.000</ele>
        <time>2017-01-13T22:16:10Z</time>
        <name>WPT.3218</name>
      </trkpt>
      <trkpt lat="16.966251460" lon="-96.482651570">
        <ele>1615.000</ele>
        <time>2017-01-13T22:16:11Z</time>
        <name>WPT.3219</name>
      </trkpt>
      <trkpt lat="16.966353720" lon="-96.482806680">
        <ele>1615.000</ele>
        <time>2017-01-13T22:16:12Z</time>
        <name>WPT.3220</name>
      </trkpt>
      <trkpt lat="16.966457000" lon="-96.482967340">
        <ele>1615.000</ele>
        <time>2017-01-13T22:16:13Z</time>
        <name>WPT.3221</name>
      </trkpt>
      <trkpt lat="16.966569420" lon="-96.483133350">
        <ele>1615.000</ele>
        <time>2017-01-13T22:16:14Z</time>
        <name>WPT.3222</name>
      </trkpt>
      <trkpt lat="16.966683940" lon="-96.483298460">
        <ele>1615.000</ele>
        <time>2017-01-13T22:16:15Z</time>
        <name>WPT.3223</name>
      </trkpt>
      <trkpt lat="16.966801840" lon="-96.483456070">
        <ele>1614.000</ele>
        <time>2017-01-13T22:16:16Z</time>
        <name>WPT.3224</name>
      </trkpt>
      <trkpt lat="16.966925860" lon="-96.483637250">
        <ele>1613.000</ele>
        <time>2017-01-13T22:16:17Z</time>
        <name>WPT.3225</name>
      </trkpt>
      <trkpt lat="16.967040440" lon="-96.483807930">
        <ele>1612.000</ele>
        <time>2017-01-13T22:16:18Z</time>
        <name>WPT.3226</name>
      </trkpt>
      <trkpt lat="16.967154170" lon="-96.483981920">
        <ele>1613.000</ele>
        <time>2017-01-13T22:16:19Z</time>
        <name>WPT.3227</name>
      </trkpt>
      <trkpt lat="16.967261150" lon="-96.484149700">
        <ele>1614.000</ele>
        <time>2017-01-13T22:16:20Z</time>
        <name>WPT.3228</name>
      </trkpt>
      <trkpt lat="16.967373120" lon="-96.484322010">
        <ele>1613.000</ele>
        <time>2017-01-13T22:16:21Z</time>
        <name>WPT.3229</name>
      </trkpt>
      <trkpt lat="16.967498380" lon="-96.484492220">
        <ele>1613.000</ele>
        <time>2017-01-13T22:16:22Z</time>
        <name>WPT.3230</name>
      </trkpt>
      <trkpt lat="16.967620830" lon="-96.484657800">
        <ele>1613.000</ele>
        <time>2017-01-13T22:16:23Z</time>
        <name>WPT.3231</name>
      </trkpt>
      <trkpt lat="16.967729330" lon="-96.484828530">
        <ele>1613.000</ele>
        <time>2017-01-13T22:16:24Z</time>
        <name>WPT.3232</name>
      </trkpt>
      <trkpt lat="16.967846280" lon="-96.485007720">
        <ele>1613.000</ele>
        <time>2017-01-13T22:16:25Z</time>
        <name>WPT.3233</name>
      </trkpt>
      <trkpt lat="16.967967790" lon="-96.485176230">
        <ele>1613.000</ele>
        <time>2017-01-13T22:16:26Z</time>
        <name>WPT.3234</name>
      </trkpt>
      <trkpt lat="16.968083510" lon="-96.485360200">
        <ele>1613.000</ele>
        <time>2017-01-13T22:16:27Z</time>
        <name>WPT.3235</name>
      </trkpt>
      <trkpt lat="16.968197910" lon="-96.485538550">
        <ele>1612.000</ele>
        <time>2017-01-13T22:16:28Z</time>
        <name>WPT.3236</name>
      </trkpt>
      <trkpt lat="16.968310300" lon="-96.485714600">
        <ele>1613.000</ele>
        <time>2017-01-13T22:16:29Z</time>
        <name>WPT.3237</name>
      </trkpt>
      <trkpt lat="16.968423040" lon="-96.485892200">
        <ele>1613.000</ele>
        <time>2017-01-13T22:16:30Z</time>
        <name>WPT.3238</name>
      </trkpt>
      <trkpt lat="16.968537620" lon="-96.486069630">
        <ele>1613.000</ele>
        <time>2017-01-13T22:16:31Z</time>
        <name>WPT.3239</name>
      </trkpt>
      <trkpt lat="16.968636980" lon="-96.486245460">
        <ele>1613.000</ele>
        <time>2017-01-13T22:16:32Z</time>
        <name>WPT.3240</name>
      </trkpt>
      <trkpt lat="16.968761330" lon="-96.486434700">
        <ele>1613.000</ele>
        <time>2017-01-13T22:16:33Z</time>
        <name>WPT.3241</name>
      </trkpt>
      <trkpt lat="16.968879980" lon="-96.486621310">
        <ele>1613.000</ele>
        <time>2017-01-13T22:16:34Z</time>
        <name>WPT.3242</name>
      </trkpt>
      <trkpt lat="16.968998730" lon="-96.486811900">
        <ele>1613.000</ele>
        <time>2017-01-13T22:16:35Z</time>
        <name>WPT.3243</name>
      </trkpt>
      <trkpt lat="16.969116070" lon="-96.487003020">
        <ele>1614.000</ele>
        <time>2017-01-13T22:16:36Z</time>
        <name>WPT.3244</name>
      </trkpt>
      <trkpt lat="16.969249240" lon="-96.487177130">
        <ele>1612.000</ele>
        <time>2017-01-13T22:16:37Z</time>
        <name>WPT.3245</name>
      </trkpt>
      <trkpt lat="16.969352760" lon="-96.487352060">
        <ele>1612.000</ele>
        <time>2017-01-13T22:16:38Z</time>
        <name>WPT.3246</name>
      </trkpt>
      <trkpt lat="16.969465070" lon="-96.487545100">
        <ele>1612.000</ele>
        <time>2017-01-13T22:16:39Z</time>
        <name>WPT.3247</name>
      </trkpt>
      <trkpt lat="16.969582370" lon="-96.487732360">
        <ele>1612.000</ele>
        <time>2017-01-13T22:16:40Z</time>
        <name>WPT.3248</name>
      </trkpt>
      <trkpt lat="16.969727150" lon="-96.487930420">
        <ele>1611.000</ele>
        <time>2017-01-13T22:16:41Z</time>
        <name>WPT.3249</name>
      </trkpt>
      <trkpt lat="16.969850090" lon="-96.488126740">
        <ele>1611.000</ele>
        <time>2017-01-13T22:16:42Z</time>
        <name>WPT.3250</name>
      </trkpt>
      <trkpt lat="16.969986450" lon="-96.488338670">
        <ele>1611.000</ele>
        <time>2017-01-13T22:16:43Z</time>
        <name>WPT.3251</name>
      </trkpt>
      <trkpt lat="16.970114660" lon="-96.488549080">
        <ele>1611.000</ele>
        <time>2017-01-13T22:16:44Z</time>
        <name>WPT.3252</name>
      </trkpt>
      <trkpt lat="16.970248630" lon="-96.488755880">
        <ele>1610.000</ele>
        <time>2017-01-13T22:16:45Z</time>
        <name>WPT.3253</name>
      </trkpt>
      <trkpt lat="16.970389100" lon="-96.488969490">
        <ele>1611.000</ele>
        <time>2017-01-13T22:16:46Z</time>
        <name>WPT.3254</name>
      </trkpt>
      <trkpt lat="16.970506990" lon="-96.489177200">
        <ele>1611.000</ele>
        <time>2017-01-13T22:16:47Z</time>
        <name>WPT.3255</name>
      </trkpt>
      <trkpt lat="16.970659220" lon="-96.489373840">
        <ele>1610.000</ele>
        <time>2017-01-13T22:16:48Z</time>
        <name>WPT.3256</name>
      </trkpt>
      <trkpt lat="16.970814660" lon="-96.489589590">
        <ele>1609.000</ele>
        <time>2017-01-13T22:16:49Z</time>
        <name>WPT.3257</name>
      </trkpt>
      <trkpt lat="16.970950170" lon="-96.489797460">
        <ele>1609.000</ele>
        <time>2017-01-13T22:16:50Z</time>
        <name>WPT.3258</name>
      </trkpt>
      <trkpt lat="16.971080450" lon="-96.490019620">
        <ele>1610.000</ele>
        <time>2017-01-13T22:16:51Z</time>
        <name>WPT.3259</name>
      </trkpt>
      <trkpt lat="16.971227800" lon="-96.490193800">
        <ele>1610.000</ele>
        <time>2017-01-13T22:16:52Z</time>
        <name>WPT.3260</name>
      </trkpt>
      <trkpt lat="16.971349070" lon="-96.490394700">
        <ele>1610.000</ele>
        <time>2017-01-13T22:16:53Z</time>
        <name>WPT.3261</name>
      </trkpt>
      <trkpt lat="16.971521130" lon="-96.490610340">
        <ele>1611.000</ele>
        <time>2017-01-13T22:16:54Z</time>
        <name>WPT.3262</name>
      </trkpt>
      <trkpt lat="16.971687780" lon="-96.490837010">
        <ele>1612.000</ele>
        <time>2017-01-13T22:16:55Z</time>
        <name>WPT.3263</name>
      </trkpt>
      <trkpt lat="16.971834850" lon="-96.491049170">
        <ele>1611.000</ele>
        <time>2017-01-13T22:16:56Z</time>
        <name>WPT.3264</name>
      </trkpt>
      <trkpt lat="16.971988190" lon="-96.491275940">
        <ele>1611.000</ele>
        <time>2017-01-13T22:16:57Z</time>
        <name>WPT.3265</name>
      </trkpt>
      <trkpt lat="16.972152810" lon="-96.491508010">
        <ele>1611.000</ele>
        <time>2017-01-13T22:16:58Z</time>
        <name>WPT.3266</name>
      </trkpt>
      <trkpt lat="16.972293150" lon="-96.491737110">
        <ele>1611.000</ele>
        <time>2017-01-13T22:16:59Z</time>
        <name>WPT.3267</name>
      </trkpt>
      <trkpt lat="16.972442440" lon="-96.491965450">
        <ele>1612.000</ele>
        <time>2017-01-13T22:17:00Z</time>
        <name>WPT.3268</name>
      </trkpt>
      <trkpt lat="16.972592070" lon="-96.492193710">
        <ele>1613.000</ele>
        <time>2017-01-13T22:17:01Z</time>
        <name>WPT.3269</name>
      </trkpt>
      <trkpt lat="16.972743080" lon="-96.492411490">
        <ele>1613.000</ele>
        <time>2017-01-13T22:17:02Z</time>
        <name>WPT.3270</name>
      </trkpt>
      <trkpt lat="16.972901320" lon="-96.492628690">
        <ele>1614.000</ele>
        <time>2017-01-13T22:17:03Z</time>
        <name>WPT.3271</name>
      </trkpt>
      <trkpt lat="16.973050620" lon="-96.492845930">
        <ele>1615.000</ele>
        <time>2017-01-13T22:17:04Z</time>
        <name>WPT.3272</name>
      </trkpt>
      <trkpt lat="16.973205860" lon="-96.493074110">
        <ele>1614.000</ele>
        <time>2017-01-13T22:17:05Z</time>
        <name>WPT.3273</name>
      </trkpt>
      <trkpt lat="16.973354040" lon="-96.493291110">
        <ele>1614.000</ele>
        <time>2017-01-13T22:17:06Z</time>
        <name>WPT.3274</name>
      </trkpt>
      <trkpt lat="16.973493730" lon="-96.493500360">
        <ele>1613.000</ele>
        <time>2017-01-13T22:17:07Z</time>
        <name>WPT.3275</name>
      </trkpt>
      <trkpt lat="16.973639480" lon="-96.493713660">
        <ele>1612.000</ele>
        <time>2017-01-13T22:17:08Z</time>
        <name>WPT.3276</name>
      </trkpt>
      <trkpt lat="16.973787040" lon="-96.493931220">
        <ele>1612.000</ele>
        <time>2017-01-13T22:17:09Z</time>
        <name>WPT.3277</name>
      </trkpt>
      <trkpt lat="16.973936930" lon="-96.494140260">
        <ele>1611.000</ele>
        <time>2017-01-13T22:17:10Z</time>
        <name>WPT.3278</name>
      </trkpt>
      <trkpt lat="16.974080930" lon="-96.494352420">
        <ele>1611.000</ele>
        <time>2017-01-13T22:17:11Z</time>
        <name>WPT.3279</name>
      </trkpt>
      <trkpt lat="16.974225470" lon="-96.494562900">
        <ele>1611.000</ele>
        <time>2017-01-13T22:17:12Z</time>
        <name>WPT.3280</name>
      </trkpt>
      <trkpt lat="16.974372840" lon="-96.494786760">
        <ele>1610.000</ele>
        <time>2017-01-13T22:17:13Z</time>
        <name>WPT.3281</name>
      </trkpt>
      <trkpt lat="16.974518400" lon="-96.495001890">
        <ele>1611.000</ele>
        <time>2017-01-13T22:17:14Z</time>
        <name>WPT.3282</name>
      </trkpt>
      <trkpt lat="16.974663470" lon="-96.495217170">
        <ele>1611.000</ele>
        <time>2017-01-13T22:17:15Z</time>
        <name>WPT.3283</name>
      </trkpt>
      <trkpt lat="16.974811650" lon="-96.495440930">
        <ele>1611.000</ele>
        <time>2017-01-13T22:17:16Z</time>
        <name>WPT.3284</name>
      </trkpt>
      <trkpt lat="16.974961300" lon="-96.495661180">
        <ele>1611.000</ele>
        <time>2017-01-13T22:17:17Z</time>
        <name>WPT.3285</name>
      </trkpt>
      <trkpt lat="16.975106010" lon="-96.495875940">
        <ele>1611.000</ele>
        <time>2017-01-13T22:17:18Z</time>
        <name>WPT.3286</name>
      </trkpt>
      <trkpt lat="16.975247560" lon="-96.496098090">
        <ele>1611.000</ele>
        <time>2017-01-13T22:17:19Z</time>
        <name>WPT.3287</name>
      </trkpt>
      <trkpt lat="16.975387000" lon="-96.496303340">
        <ele>1611.000</ele>
        <time>2017-01-13T22:17:20Z</time>
        <name>WPT.3288</name>
      </trkpt>
      <trkpt lat="16.975536070" lon="-96.496528180">
        <ele>1610.000</ele>
        <time>2017-01-13T22:17:21Z</time>
        <name>WPT.3289</name>
      </trkpt>
      <trkpt lat="16.975676560" lon="-96.496752440">
        <ele>1611.000</ele>
        <time>2017-01-13T22:17:22Z</time>
        <name>WPT.3290</name>
      </trkpt>
      <trkpt lat="16.975843790" lon="-96.496960740">
        <ele>1610.000</ele>
        <time>2017-01-13T22:17:23Z</time>
        <name>WPT.3291</name>
      </trkpt>
      <trkpt lat="16.975985420" lon="-96.497174190">
        <ele>1610.000</ele>
        <time>2017-01-13T22:17:24Z</time>
        <name>WPT.3292</name>
      </trkpt>
      <trkpt lat="16.976115910" lon="-96.497391300">
        <ele>1612.000</ele>
        <time>2017-01-13T22:17:25Z</time>
        <name>WPT.3293</name>
      </trkpt>
      <trkpt lat="16.976242260" lon="-96.497597890">
        <ele>1612.000</ele>
        <time>2017-01-13T22:17:26Z</time>
        <name>WPT.3294</name>
      </trkpt>
      <trkpt lat="16.976395550" lon="-96.497815940">
        <ele>1612.000</ele>
        <time>2017-01-13T22:17:27Z</time>
        <name>WPT.3295</name>
      </trkpt>
      <trkpt lat="16.976530680" lon="-96.498015150">
        <ele>1613.000</ele>
        <time>2017-01-13T22:17:28Z</time>
        <name>WPT.3296</name>
      </trkpt>
      <trkpt lat="16.976681440" lon="-96.498244540">
        <ele>1613.000</ele>
        <time>2017-01-13T22:17:29Z</time>
        <name>WPT.3297</name>
      </trkpt>
      <trkpt lat="16.976830420" lon="-96.498461100">
        <ele>1613.000</ele>
        <time>2017-01-13T22:17:30Z</time>
        <name>WPT.3298</name>
      </trkpt>
      <trkpt lat="16.976955280" lon="-96.498675680">
        <ele>1614.000</ele>
        <time>2017-01-13T22:17:31Z</time>
        <name>WPT.3299</name>
      </trkpt>
      <trkpt lat="16.977107700" lon="-96.498888640">
        <ele>1613.000</ele>
        <time>2017-01-13T22:17:32Z</time>
        <name>WPT.3300</name>
      </trkpt>
      <trkpt lat="16.977247680" lon="-96.499105910">
        <ele>1613.000</ele>
        <time>2017-01-13T22:17:33Z</time>
        <name>WPT.3301</name>
      </trkpt>
      <trkpt lat="16.977401570" lon="-96.499322120">
        <ele>1611.000</ele>
        <time>2017-01-13T22:17:34Z</time>
        <name>WPT.3302</name>
      </trkpt>
      <trkpt lat="16.977545430" lon="-96.499534800">
        <ele>1610.000</ele>
        <time>2017-01-13T22:17:35Z</time>
        <name>WPT.3303</name>
      </trkpt>
      <trkpt lat="16.977690440" lon="-96.499740930">
        <ele>1609.000</ele>
        <time>2017-01-13T22:17:36Z</time>
        <name>WPT.3304</name>
      </trkpt>
      <trkpt lat="16.977839760" lon="-96.499959580">
        <ele>1609.000</ele>
        <time>2017-01-13T22:17:37Z</time>
        <name>WPT.3305</name>
      </trkpt>
      <trkpt lat="16.977991050" lon="-96.500165400">
        <ele>1607.000</ele>
        <time>2017-01-13T22:17:38Z</time>
        <name>WPT.3306</name>
      </trkpt>
      <trkpt lat="16.978128480" lon="-96.500362750">
        <ele>1607.000</ele>
        <time>2017-01-13T22:17:39Z</time>
        <name>WPT.3307</name>
      </trkpt>
      <trkpt lat="16.978257440" lon="-96.500559330">
        <ele>1607.000</ele>
        <time>2017-01-13T22:17:40Z</time>
        <name>WPT.3308</name>
      </trkpt>
      <trkpt lat="16.978393010" lon="-96.500767990">
        <ele>1607.000</ele>
        <time>2017-01-13T22:17:41Z</time>
        <name>WPT.3309</name>
      </trkpt>
      <trkpt lat="16.978531620" lon="-96.500989020">
        <ele>1608.000</ele>
        <time>2017-01-13T22:17:42Z</time>
        <name>WPT.3310</name>
      </trkpt>
      <trkpt lat="16.978678360" lon="-96.501222590">
        <ele>1608.000</ele>
        <time>2017-01-13T22:17:43Z</time>
        <name>WPT.3311</name>
      </trkpt>
      <trkpt lat="16.978822610" lon="-96.501413190">
        <ele>1607.000</ele>
        <time>2017-01-13T22:17:44Z</time>
        <name>WPT.3312</name>
      </trkpt>
      <trkpt lat="16.978970940" lon="-96.501652990">
        <ele>1606.000</ele>
        <time>2017-01-13T22:17:45Z</time>
        <name>WPT.3313</name>
      </trkpt>
      <trkpt lat="16.979127810" lon="-96.501876500">
        <ele>1606.000</ele>
        <time>2017-01-13T22:17:46Z</time>
        <name>WPT.3314</name>
      </trkpt>
      <trkpt lat="16.979275380" lon="-96.502095700">
        <ele>1606.000</ele>
        <time>2017-01-13T22:17:47Z</time>
        <name>WPT.3315</name>
      </trkpt>
      <trkpt lat="16.979432580" lon="-96.502313640">
        <ele>1604.000</ele>
        <time>2017-01-13T22:17:48Z</time>
        <name>WPT.3316</name>
      </trkpt>
      <trkpt lat="16.979588570" lon="-96.502538230">
        <ele>1604.000</ele>
        <time>2017-01-13T22:17:49Z</time>
        <name>WPT.3317</name>
      </trkpt>
      <trkpt lat="16.979736330" lon="-96.502762670">
        <ele>1604.000</ele>
        <time>2017-01-13T22:17:50Z</time>
        <name>WPT.3318</name>
      </trkpt>
      <trkpt lat="16.979890840" lon="-96.502999590">
        <ele>1604.000</ele>
        <time>2017-01-13T22:17:51Z</time>
        <name>WPT.3319</name>
      </trkpt>
      <trkpt lat="16.980031540" lon="-96.503226710">
        <ele>1604.000</ele>
        <time>2017-01-13T22:17:52Z</time>
        <name>WPT.3320</name>
      </trkpt>
      <trkpt lat="16.980188900" lon="-96.503469720">
        <ele>1604.000</ele>
        <time>2017-01-13T22:17:53Z</time>
        <name>WPT.3321</name>
      </trkpt>
      <trkpt lat="16.980335240" lon="-96.503680010">
        <ele>1605.000</ele>
        <time>2017-01-13T22:17:54Z</time>
        <name>WPT.3322</name>
      </trkpt>
      <trkpt lat="16.980499470" lon="-96.503923940">
        <ele>1605.000</ele>
        <time>2017-01-13T22:17:55Z</time>
        <name>WPT.3323</name>
      </trkpt>
      <trkpt lat="16.980645650" lon="-96.504168700">
        <ele>1607.000</ele>
        <time>2017-01-13T22:17:56Z</time>
        <name>WPT.3324</name>
      </trkpt>
      <trkpt lat="16.980801070" lon="-96.504401340">
        <ele>1606.000</ele>
        <time>2017-01-13T22:17:57Z</time>
        <name>WPT.3325</name>
      </trkpt>
      <trkpt lat="16.980962570" lon="-96.504627030">
        <ele>1605.000</ele>
        <time>2017-01-13T22:17:58Z</time>
        <name>WPT.3326</name>
      </trkpt>
      <trkpt lat="16.981127210" lon="-96.504852170">
        <ele>1604.000</ele>
        <time>2017-01-13T22:17:59Z</time>
        <name>WPT.3327</name>
      </trkpt>
      <trkpt lat="16.981278160" lon="-96.505077060">
        <ele>1604.000</ele>
        <time>2017-01-13T22:18:00Z</time>
        <name>WPT.3328</name>
      </trkpt>
      <trkpt lat="16.981433200" lon="-96.505322490">
        <ele>1605.000</ele>
        <time>2017-01-13T22:18:01Z</time>
        <name>WPT.3329</name>
      </trkpt>
      <trkpt lat="16.981621540" lon="-96.505545430">
        <ele>1602.000</ele>
        <time>2017-01-13T22:18:02Z</time>
        <name>WPT.3330</name>
      </trkpt>
      <trkpt lat="16.981777060" lon="-96.505774440">
        <ele>1601.000</ele>
        <time>2017-01-13T22:18:03Z</time>
        <name>WPT.3331</name>
      </trkpt>
      <trkpt lat="16.981926570" lon="-96.506011850">
        <ele>1602.000</ele>
        <time>2017-01-13T22:18:04Z</time>
        <name>WPT.3332</name>
      </trkpt>
      <trkpt lat="16.982073740" lon="-96.506242390">
        <ele>1603.000</ele>
        <time>2017-01-13T22:18:05Z</time>
        <name>WPT.3333</name>
      </trkpt>
      <trkpt lat="16.982229490" lon="-96.506467710">
        <ele>1603.000</ele>
        <time>2017-01-13T22:18:06Z</time>
        <name>WPT.3334</name>
      </trkpt>
      <trkpt lat="16.982385690" lon="-96.506693560">
        <ele>1603.000</ele>
        <time>2017-01-13T22:18:07Z</time>
        <name>WPT.3335</name>
      </trkpt>
      <trkpt lat="16.982547880" lon="-96.506917960">
        <ele>1604.000</ele>
        <time>2017-01-13T22:18:08Z</time>
        <name>WPT.3336</name>
      </trkpt>
      <trkpt lat="16.982696230" lon="-96.507151980">
        <ele>1605.000</ele>
        <time>2017-01-13T22:18:09Z</time>
        <name>WPT.3337</name>
      </trkpt>
      <trkpt lat="16.982854020" lon="-96.507384070">
        <ele>1605.000</ele>
        <time>2017-01-13T22:18:10Z</time>
        <name>WPT.3338</name>
      </trkpt>
      <trkpt lat="16.983008460" lon="-96.507612980">
        <ele>1606.000</ele>
        <time>2017-01-13T22:18:11Z</time>
        <name>WPT.3339</name>
      </trkpt>
      <trkpt lat="16.983165260" lon="-96.507839020">
        <ele>1605.000</ele>
        <time>2017-01-13T22:18:12Z</time>
        <name>WPT.3340</name>
      </trkpt>
      <trkpt lat="16.983317070" lon="-96.508068720">
        <ele>1605.000</ele>
        <time>2017-01-13T22:18:13Z</time>
        <name>WPT.3341</name>
      </trkpt>
      <trkpt lat="16.983469650" lon="-96.508297760">
        <ele>1606.000</ele>
        <time>2017-01-13T22:18:14Z</time>
        <name>WPT.3342</name>
      </trkpt>
      <trkpt lat="16.983611420" lon="-96.508534350">
        <ele>1606.000</ele>
        <time>2017-01-13T22:18:15Z</time>
        <name>WPT.3343</name>
      </trkpt>
      <trkpt lat="16.983736150" lon="-96.508763460">
        <ele>1607.000</ele>
        <time>2017-01-13T22:18:16Z</time>
        <name>WPT.3344</name>
      </trkpt>
      <trkpt lat="16.983903810" lon="-96.508986760">
        <ele>1607.000</ele>
        <time>2017-01-13T22:18:17Z</time>
        <name>WPT.3345</name>
      </trkpt>
      <trkpt lat="16.984050440" lon="-96.509215150">
        <ele>1606.000</ele>
        <time>2017-01-13T22:18:18Z</time>
        <name>WPT.3346</name>
      </trkpt>
      <trkpt lat="16.984193790" lon="-96.509447460">
        <ele>1607.000</ele>
        <time>2017-01-13T22:18:19Z</time>
        <name>WPT.3347</name>
      </trkpt>
      <trkpt lat="16.984339860" lon="-96.509675970">
        <ele>1607.000</ele>
        <time>2017-01-13T22:18:20Z</time>
        <name>WPT.3348</name>
      </trkpt>
      <trkpt lat="16.984491680" lon="-96.509913900">
        <ele>1609.000</ele>
        <time>2017-01-13T22:18:21Z</time>
        <name>WPT.3349</name>
      </trkpt>
      <trkpt lat="16.984641430" lon="-96.510138770">
        <ele>1609.000</ele>
        <time>2017-01-13T22:18:22Z</time>
        <name>WPT.3350</name>
      </trkpt>
      <trkpt lat="16.984788810" lon="-96.510369330">
        <ele>1609.000</ele>
        <time>2017-01-13T22:18:23Z</time>
        <name>WPT.3351</name>
      </trkpt>
      <trkpt lat="16.984936110" lon="-96.510590880">
        <ele>1608.000</ele>
        <time>2017-01-13T22:18:24Z</time>
        <name>WPT.3352</name>
      </trkpt>
      <trkpt lat="16.985091260" lon="-96.510818090">
        <ele>1607.000</ele>
        <time>2017-01-13T22:18:25Z</time>
        <name>WPT.3353</name>
      </trkpt>
      <trkpt lat="16.985239790" lon="-96.511052430">
        <ele>1607.000</ele>
        <time>2017-01-13T22:18:26Z</time>
        <name>WPT.3354</name>
      </trkpt>
      <trkpt lat="16.985398570" lon="-96.511290100">
        <ele>1607.000</ele>
        <time>2017-01-13T22:18:27Z</time>
        <name>WPT.3355</name>
      </trkpt>
      <trkpt lat="16.985548040" lon="-96.511531000">
        <ele>1607.000</ele>
        <time>2017-01-13T22:18:28Z</time>
        <name>WPT.3356</name>
      </trkpt>
      <trkpt lat="16.985721940" lon="-96.511767270">
        <ele>1605.000</ele>
        <time>2017-01-13T22:18:29Z</time>
        <name>WPT.3357</name>
      </trkpt>
      <trkpt lat="16.985865200" lon="-96.511987510">
        <ele>1606.000</ele>
        <time>2017-01-13T22:18:30Z</time>
        <name>WPT.3358</name>
      </trkpt>
      <trkpt lat="16.986030470" lon="-96.512213220">
        <ele>1608.000</ele>
        <time>2017-01-13T22:18:31Z</time>
        <name>WPT.3359</name>
      </trkpt>
      <trkpt lat="16.986173540" lon="-96.512422930">
        <ele>1607.000</ele>
        <time>2017-01-13T22:18:32Z</time>
        <name>WPT.3360</name>
      </trkpt>
      <trkpt lat="16.986318110" lon="-96.512632340">
        <ele>1607.000</ele>
        <time>2017-01-13T22:18:33Z</time>
        <name>WPT.3361</name>
      </trkpt>
      <trkpt lat="16.986464670" lon="-96.512832970">
        <ele>1607.000</ele>
        <time>2017-01-13T22:18:34Z</time>
        <name>WPT.3362</name>
      </trkpt>
      <trkpt lat="16.986594570" lon="-96.513028990">
        <ele>1607.000</ele>
        <time>2017-01-13T22:18:35Z</time>
        <name>WPT.3363</name>
      </trkpt>
      <trkpt lat="16.986731960" lon="-96.513199600">
        <ele>1607.000</ele>
        <time>2017-01-13T22:18:36Z</time>
        <name>WPT.3364</name>
      </trkpt>
      <trkpt lat="16.986862190" lon="-96.513390010">
        <ele>1607.000</ele>
        <time>2017-01-13T22:18:37Z</time>
        <name>WPT.3365</name>
      </trkpt>
      <trkpt lat="16.986985170" lon="-96.513567180">
        <ele>1607.000</ele>
        <time>2017-01-13T22:18:38Z</time>
        <name>WPT.3366</name>
      </trkpt>
      <trkpt lat="16.987103940" lon="-96.513749520">
        <ele>1607.000</ele>
        <time>2017-01-13T22:18:39Z</time>
        <name>WPT.3367</name>
      </trkpt>
      <trkpt lat="16.987217450" lon="-96.513926630">
        <ele>1607.000</ele>
        <time>2017-01-13T22:18:40Z</time>
        <name>WPT.3368</name>
      </trkpt>
      <trkpt lat="16.987334200" lon="-96.514115290">
        <ele>1607.000</ele>
        <time>2017-01-13T22:18:41Z</time>
        <name>WPT.3369</name>
      </trkpt>
      <trkpt lat="16.987457530" lon="-96.514286300">
        <ele>1607.000</ele>
        <time>2017-01-13T22:18:42Z</time>
        <name>WPT.3370</name>
      </trkpt>
      <trkpt lat="16.987577290" lon="-96.514477350">
        <ele>1607.000</ele>
        <time>2017-01-13T22:18:43Z</time>
        <name>WPT.3371</name>
      </trkpt>
      <trkpt lat="16.987708200" lon="-96.514662720">
        <ele>1606.000</ele>
        <time>2017-01-13T22:18:44Z</time>
        <name>WPT.3372</name>
      </trkpt>
      <trkpt lat="16.987838040" lon="-96.514853640">
        <ele>1606.000</ele>
        <time>2017-01-13T22:18:45Z</time>
        <name>WPT.3373</name>
      </trkpt>
      <trkpt lat="16.987955130" lon="-96.515045870">
        <ele>1605.000</ele>
        <time>2017-01-13T22:18:46Z</time>
        <name>WPT.3374</name>
      </trkpt>
      <trkpt lat="16.988077510" lon="-96.515239750">
        <ele>1604.000</ele>
        <time>2017-01-13T22:18:47Z</time>
        <name>WPT.3375</name>
      </trkpt>
      <trkpt lat="16.988188030" lon="-96.515437300">
        <ele>1604.000</ele>
        <time>2017-01-13T22:18:48Z</time>
        <name>WPT.3376</name>
      </trkpt>
      <trkpt lat="16.988316350" lon="-96.515650140">
        <ele>1604.000</ele>
        <time>2017-01-13T22:18:49Z</time>
        <name>WPT.3377</name>
      </trkpt>
      <trkpt lat="16.988444050" lon="-96.515835940">
        <ele>1605.000</ele>
        <time>2017-01-13T22:18:50Z</time>
        <name>WPT.3378</name>
      </trkpt>
      <trkpt lat="16.988625160" lon="-96.516054720">
        <ele>1604.000</ele>
        <time>2017-01-13T22:18:51Z</time>
        <name>WPT.3379</name>
      </trkpt>
      <trkpt lat="16.988722000" lon="-96.516253100">
        <ele>1605.000</ele>
        <time>2017-01-13T22:18:52Z</time>
        <name>WPT.3380</name>
      </trkpt>
      <trkpt lat="16.988874230" lon="-96.516465710">
        <ele>1604.000</ele>
        <time>2017-01-13T22:18:53Z</time>
        <name>WPT.3381</name>
      </trkpt>
      <trkpt lat="16.989041410" lon="-96.516696070">
        <ele>1606.000</ele>
        <time>2017-01-13T22:18:54Z</time>
        <name>WPT.3382</name>
      </trkpt>
      <trkpt lat="16.989202240" lon="-96.516921950">
        <ele>1603.000</ele>
        <time>2017-01-13T22:18:55Z</time>
        <name>WPT.3383</name>
      </trkpt>
      <trkpt lat="16.989356470" lon="-96.517128220">
        <ele>1602.000</ele>
        <time>2017-01-13T22:18:56Z</time>
        <name>WPT.3384</name>
      </trkpt>
      <trkpt lat="16.989511020" lon="-96.517356030">
        <ele>1601.000</ele>
        <time>2017-01-13T22:18:57Z</time>
        <name>WPT.3385</name>
      </trkpt>
      <trkpt lat="16.989665660" lon="-96.517577400">
        <ele>1602.000</ele>
        <time>2017-01-13T22:18:58Z</time>
        <name>WPT.3386</name>
      </trkpt>
      <trkpt lat="16.989808380" lon="-96.517799120">
        <ele>1603.000</ele>
        <time>2017-01-13T22:18:59Z</time>
        <name>WPT.3387</name>
      </trkpt>
      <trkpt lat="16.989968690" lon="-96.518021630">
        <ele>1602.000</ele>
        <time>2017-01-13T22:19:00Z</time>
        <name>WPT.3388</name>
      </trkpt>
      <trkpt lat="16.990110750" lon="-96.518234500">
        <ele>1601.000</ele>
        <time>2017-01-13T22:19:01Z</time>
        <name>WPT.3389</name>
      </trkpt>
      <trkpt lat="16.990249240" lon="-96.518450630">
        <ele>1600.000</ele>
        <time>2017-01-13T22:19:02Z</time>
        <name>WPT.3390</name>
      </trkpt>
      <trkpt lat="16.990399710" lon="-96.518673440">
        <ele>1598.000</ele>
        <time>2017-01-13T22:19:03Z</time>
        <name>WPT.3391</name>
      </trkpt>
      <trkpt lat="16.990529280" lon="-96.518881140">
        <ele>1599.000</ele>
        <time>2017-01-13T22:19:04Z</time>
        <name>WPT.3392</name>
      </trkpt>
      <trkpt lat="16.990676660" lon="-96.519118710">
        <ele>1601.000</ele>
        <time>2017-01-13T22:19:05Z</time>
        <name>WPT.3393</name>
      </trkpt>
      <trkpt lat="16.990813330" lon="-96.519344030">
        <ele>1601.000</ele>
        <time>2017-01-13T22:19:06Z</time>
        <name>WPT.3394</name>
      </trkpt>
      <trkpt lat="16.990947690" lon="-96.519569380">
        <ele>1601.000</ele>
        <time>2017-01-13T22:19:07Z</time>
        <name>WPT.3395</name>
      </trkpt>
      <trkpt lat="16.991092570" lon="-96.519795830">
        <ele>1600.000</ele>
        <time>2017-01-13T22:19:08Z</time>
        <name>WPT.3396</name>
      </trkpt>
      <trkpt lat="16.991231590" lon="-96.520020980">
        <ele>1602.000</ele>
        <time>2017-01-13T22:19:09Z</time>
        <name>WPT.3397</name>
      </trkpt>
      <trkpt lat="16.991371550" lon="-96.520242600">
        <ele>1603.000</ele>
        <time>2017-01-13T22:19:10Z</time>
        <name>WPT.3398</name>
      </trkpt>
      <trkpt lat="16.991501680" lon="-96.520460780">
        <ele>1606.000</ele>
        <time>2017-01-13T22:19:11Z</time>
        <name>WPT.3399</name>
      </trkpt>
      <trkpt lat="16.991632930" lon="-96.520660590">
        <ele>1607.000</ele>
        <time>2017-01-13T22:19:12Z</time>
        <name>WPT.3400</name>
      </trkpt>
      <trkpt lat="16.991779440" lon="-96.520902420">
        <ele>1607.000</ele>
        <time>2017-01-13T22:19:13Z</time>
        <name>WPT.3401</name>
      </trkpt>
      <trkpt lat="16.991933410" lon="-96.521108910">
        <ele>1606.000</ele>
        <time>2017-01-13T22:19:14Z</time>
        <name>WPT.3402</name>
      </trkpt>
      <trkpt lat="16.992076390" lon="-96.521323630">
        <ele>1606.000</ele>
        <time>2017-01-13T22:19:15Z</time>
        <name>WPT.3403</name>
      </trkpt>
      <trkpt lat="16.992210200" lon="-96.521530020">
        <ele>1607.000</ele>
        <time>2017-01-13T22:19:16Z</time>
        <name>WPT.3404</name>
      </trkpt>
      <trkpt lat="16.992335220" lon="-96.521728170">
        <ele>1607.000</ele>
        <time>2017-01-13T22:19:17Z</time>
        <name>WPT.3405</name>
      </trkpt>
      <trkpt lat="16.992463390" lon="-96.521931570">
        <ele>1607.000</ele>
        <time>2017-01-13T22:19:18Z</time>
        <name>WPT.3406</name>
      </trkpt>
      <trkpt lat="16.992583410" lon="-96.522134600">
        <ele>1606.000</ele>
        <time>2017-01-13T22:19:19Z</time>
        <name>WPT.3407</name>
      </trkpt>
      <trkpt lat="16.992724680" lon="-96.522314170">
        <ele>1608.000</ele>
        <time>2017-01-13T22:19:20Z</time>
        <name>WPT.3408</name>
      </trkpt>
      <trkpt lat="16.992863190" lon="-96.522537540">
        <ele>1607.000</ele>
        <time>2017-01-13T22:19:21Z</time>
        <name>WPT.3409</name>
      </trkpt>
      <trkpt lat="16.993002530" lon="-96.522724440">
        <ele>1608.000</ele>
        <time>2017-01-13T22:19:22Z</time>
        <name>WPT.3410</name>
      </trkpt>
      <trkpt lat="16.993141660" lon="-96.522952910">
        <ele>1607.000</ele>
        <time>2017-01-13T22:19:23Z</time>
        <name>WPT.3411</name>
      </trkpt>
      <trkpt lat="16.993272440" lon="-96.523173190">
        <ele>1608.000</ele>
        <time>2017-01-13T22:19:24Z</time>
        <name>WPT.3412</name>
      </trkpt>
      <trkpt lat="16.993416900" lon="-96.523391040">
        <ele>1607.000</ele>
        <time>2017-01-13T22:19:25Z</time>
        <name>WPT.3413</name>
      </trkpt>
      <trkpt lat="16.993563760" lon="-96.523597470">
        <ele>1606.000</ele>
        <time>2017-01-13T22:19:26Z</time>
        <name>WPT.3414</name>
      </trkpt>
      <trkpt lat="16.993705700" lon="-96.523807790">
        <ele>1606.000</ele>
        <time>2017-01-13T22:19:27Z</time>
        <name>WPT.3415</name>
      </trkpt>
      <trkpt lat="16.993820790" lon="-96.524004560">
        <ele>1607.000</ele>
        <time>2017-01-13T22:19:28Z</time>
        <name>WPT.3416</name>
      </trkpt>
      <trkpt lat="16.993923000" lon="-96.524168090">
        <ele>1609.000</ele>
        <time>2017-01-13T22:19:29Z</time>
        <name>WPT.3417</name>
      </trkpt>
      <trkpt lat="16.994055150" lon="-96.524342560">
        <ele>1609.000</ele>
        <time>2017-01-13T22:19:30Z</time>
        <name>WPT.3418</name>
      </trkpt>
      <trkpt lat="16.994173910" lon="-96.524530120">
        <ele>1609.000</ele>
        <time>2017-01-13T22:19:31Z</time>
        <name>WPT.3419</name>
      </trkpt>
      <trkpt lat="16.994303570" lon="-96.524717760">
        <ele>1607.000</ele>
        <time>2017-01-13T22:19:32Z</time>
        <name>WPT.3420</name>
      </trkpt>
      <trkpt lat="16.994412730" lon="-96.524886290">
        <ele>1609.000</ele>
        <time>2017-01-13T22:19:33Z</time>
        <name>WPT.3421</name>
      </trkpt>
      <trkpt lat="16.994539330" lon="-96.525071650">
        <ele>1608.000</ele>
        <time>2017-01-13T22:19:34Z</time>
        <name>WPT.3422</name>
      </trkpt>
      <trkpt lat="16.994657860" lon="-96.525257250">
        <ele>1608.000</ele>
        <time>2017-01-13T22:19:35Z</time>
        <name>WPT.3423</name>
      </trkpt>
      <trkpt lat="16.994775650" lon="-96.525448460">
        <ele>1608.000</ele>
        <time>2017-01-13T22:19:36Z</time>
        <name>WPT.3424</name>
      </trkpt>
      <trkpt lat="16.994901540" lon="-96.525646320">
        <ele>1610.000</ele>
        <time>2017-01-13T22:19:37Z</time>
        <name>WPT.3425</name>
      </trkpt>
      <trkpt lat="16.995030000" lon="-96.525845060">
        <ele>1610.000</ele>
        <time>2017-01-13T22:19:38Z</time>
        <name>WPT.3426</name>
      </trkpt>
      <trkpt lat="16.995152440" lon="-96.526064980">
        <ele>1610.000</ele>
        <time>2017-01-13T22:19:39Z</time>
        <name>WPT.3427</name>
      </trkpt>
      <trkpt lat="16.995292010" lon="-96.526290110">
        <ele>1609.000</ele>
        <time>2017-01-13T22:19:40Z</time>
        <name>WPT.3428</name>
      </trkpt>
      <trkpt lat="16.995425320" lon="-96.526495650">
        <ele>1609.000</ele>
        <time>2017-01-13T22:19:41Z</time>
        <name>WPT.3429</name>
      </trkpt>
      <trkpt lat="16.995565010" lon="-96.526705910">
        <ele>1609.000</ele>
        <time>2017-01-13T22:19:42Z</time>
        <name>WPT.3430</name>
      </trkpt>
      <trkpt lat="16.995684070" lon="-96.526904680">
        <ele>1609.000</ele>
        <time>2017-01-13T22:19:43Z</time>
        <name>WPT.3431</name>
      </trkpt>
      <trkpt lat="16.995819010" lon="-96.527119300">
        <ele>1609.000</ele>
        <time>2017-01-13T22:19:44Z</time>
        <name>WPT.3432</name>
      </trkpt>
      <trkpt lat="16.995968300" lon="-96.527361470">
        <ele>1609.000</ele>
        <time>2017-01-13T22:19:45Z</time>
        <name>WPT.3433</name>
      </trkpt>
      <trkpt lat="16.996102740" lon="-96.527539510">
        <ele>1609.000</ele>
        <time>2017-01-13T22:19:46Z</time>
        <name>WPT.3434</name>
      </trkpt>
      <trkpt lat="16.996265790" lon="-96.527772150">
        <ele>1610.000</ele>
        <time>2017-01-13T22:19:47Z</time>
        <name>WPT.3435</name>
      </trkpt>
      <trkpt lat="16.996414340" lon="-96.527989510">
        <ele>1610.000</ele>
        <time>2017-01-13T22:19:48Z</time>
        <name>WPT.3436</name>
      </trkpt>
      <trkpt lat="16.996552470" lon="-96.528191120">
        <ele>1610.000</ele>
        <time>2017-01-13T22:19:49Z</time>
        <name>WPT.3437</name>
      </trkpt>
      <trkpt lat="16.996684150" lon="-96.528397870">
        <ele>1611.000</ele>
        <time>2017-01-13T22:19:50Z</time>
        <name>WPT.3438</name>
      </trkpt>
      <trkpt lat="16.996813670" lon="-96.528622220">
        <ele>1613.000</ele>
        <time>2017-01-13T22:19:51Z</time>
        <name>WPT.3439</name>
      </trkpt>
      <trkpt lat="16.996994200" lon="-96.528843350">
        <ele>1611.000</ele>
        <time>2017-01-13T22:19:52Z</time>
        <name>WPT.3440</name>
      </trkpt>
      <trkpt lat="16.997116470" lon="-96.529084740">
        <ele>1612.000</ele>
        <time>2017-01-13T22:19:53Z</time>
        <name>WPT.3441</name>
      </trkpt>
      <trkpt lat="16.997262560" lon="-96.529315200">
        <ele>1613.000</ele>
        <time>2017-01-13T22:19:54Z</time>
        <name>WPT.3442</name>
      </trkpt>
      <trkpt lat="16.997426150" lon="-96.529543080">
        <ele>1613.000</ele>
        <time>2017-01-13T22:19:55Z</time>
        <name>WPT.3443</name>
      </trkpt>
      <trkpt lat="16.997570990" lon="-96.529780990">
        <ele>1613.000</ele>
        <time>2017-01-13T22:19:56Z</time>
        <name>WPT.3444</name>
      </trkpt>
      <trkpt lat="16.997713630" lon="-96.530001160">
        <ele>1613.000</ele>
        <time>2017-01-13T22:19:57Z</time>
        <name>WPT.3445</name>
      </trkpt>
      <trkpt lat="16.997852920" lon="-96.530227950">
        <ele>1613.000</ele>
        <time>2017-01-13T22:19:58Z</time>
        <name>WPT.3446</name>
      </trkpt>
      <trkpt lat="16.998005020" lon="-96.530471260">
        <ele>1613.000</ele>
        <time>2017-01-13T22:19:59Z</time>
        <name>WPT.3447</name>
      </trkpt>
      <trkpt lat="16.998174260" lon="-96.530676550">
        <ele>1610.000</ele>
        <time>2017-01-13T22:20:00Z</time>
        <name>WPT.3448</name>
      </trkpt>
      <trkpt lat="16.998332420" lon="-96.530912530">
        <ele>1610.000</ele>
        <time>2017-01-13T22:20:01Z</time>
        <name>WPT.3449</name>
      </trkpt>
      <trkpt lat="16.998475780" lon="-96.531147910">
        <ele>1611.000</ele>
        <time>2017-01-13T22:20:02Z</time>
        <name>WPT.3450</name>
      </trkpt>
      <trkpt lat="16.998636880" lon="-96.531391930">
        <ele>1610.000</ele>
        <time>2017-01-13T22:20:03Z</time>
        <name>WPT.3451</name>
      </trkpt>
      <trkpt lat="16.998792880" lon="-96.531627710">
        <ele>1609.000</ele>
        <time>2017-01-13T22:20:04Z</time>
        <name>WPT.3452</name>
      </trkpt>
      <trkpt lat="16.998966550" lon="-96.531823550">
        <ele>1606.000</ele>
        <time>2017-01-13T22:20:05Z</time>
        <name>WPT.3453</name>
      </trkpt>
      <trkpt lat="16.999135890" lon="-96.532081380">
        <ele>1605.000</ele>
        <time>2017-01-13T22:20:06Z</time>
        <name>WPT.3454</name>
      </trkpt>
      <trkpt lat="16.999288230" lon="-96.532339380">
        <ele>1606.000</ele>
        <time>2017-01-13T22:20:07Z</time>
        <name>WPT.3455</name>
      </trkpt>
      <trkpt lat="16.999430630" lon="-96.532554400">
        <ele>1606.000</ele>
        <time>2017-01-13T22:20:08Z</time>
        <name>WPT.3456</name>
      </trkpt>
      <trkpt lat="16.999602070" lon="-96.532811460">
        <ele>1607.000</ele>
        <time>2017-01-13T22:20:09Z</time>
        <name>WPT.3457</name>
      </trkpt>
      <trkpt lat="16.999764320" lon="-96.533040040">
        <ele>1608.000</ele>
        <time>2017-01-13T22:20:10Z</time>
        <name>WPT.3458</name>
      </trkpt>
      <trkpt lat="16.999923300" lon="-96.533300490">
        <ele>1607.000</ele>
        <time>2017-01-13T22:20:11Z</time>
        <name>WPT.3459</name>
      </trkpt>
      <trkpt lat="17.000085050" lon="-96.533547030">
        <ele>1607.000</ele>
        <time>2017-01-13T22:20:12Z</time>
        <name>WPT.3460</name>
      </trkpt>
      <trkpt lat="17.000235040" lon="-96.533780470">
        <ele>1607.000</ele>
        <time>2017-01-13T22:20:13Z</time>
        <name>WPT.3461</name>
      </trkpt>
      <trkpt lat="17.000394650" lon="-96.534022380">
        <ele>1607.000</ele>
        <time>2017-01-13T22:20:14Z</time>
        <name>WPT.3462</name>
      </trkpt>
      <trkpt lat="17.000547120" lon="-96.534273600">
        <ele>1607.000</ele>
        <time>2017-01-13T22:20:15Z</time>
        <name>WPT.3463</name>
      </trkpt>
      <trkpt lat="17.000693120" lon="-96.534513840">
        <ele>1609.000</ele>
        <time>2017-01-13T22:20:16Z</time>
        <name>WPT.3464</name>
      </trkpt>
      <trkpt lat="17.000843370" lon="-96.534752020">
        <ele>1609.000</ele>
        <time>2017-01-13T22:20:17Z</time>
        <name>WPT.3465</name>
      </trkpt>
      <trkpt lat="17.000995260" lon="-96.534980640">
        <ele>1609.000</ele>
        <time>2017-01-13T22:20:18Z</time>
        <name>WPT.3466</name>
      </trkpt>
      <trkpt lat="17.001141210" lon="-96.535208380">
        <ele>1610.000</ele>
        <time>2017-01-13T22:20:19Z</time>
        <name>WPT.3467</name>
      </trkpt>
      <trkpt lat="17.001302370" lon="-96.535430620">
        <ele>1609.000</ele>
        <time>2017-01-13T22:20:20Z</time>
        <name>WPT.3468</name>
      </trkpt>
      <trkpt lat="17.001451080" lon="-96.535673260">
        <ele>1610.000</ele>
        <time>2017-01-13T22:20:21Z</time>
        <name>WPT.3469</name>
      </trkpt>
      <trkpt lat="17.001597770" lon="-96.535904380">
        <ele>1610.000</ele>
        <time>2017-01-13T22:20:22Z</time>
        <name>WPT.3470</name>
      </trkpt>
      <trkpt lat="17.001751100" lon="-96.536130960">
        <ele>1613.000</ele>
        <time>2017-01-13T22:20:23Z</time>
        <name>WPT.3471</name>
      </trkpt>
      <trkpt lat="17.001895780" lon="-96.536357780">
        <ele>1614.000</ele>
        <time>2017-01-13T22:20:24Z</time>
        <name>WPT.3472</name>
      </trkpt>
      <trkpt lat="17.002044110" lon="-96.536602150">
        <ele>1616.000</ele>
        <time>2017-01-13T22:20:25Z</time>
        <name>WPT.3473</name>
      </trkpt>
      <trkpt lat="17.002182900" lon="-96.536817170">
        <ele>1616.000</ele>
        <time>2017-01-13T22:20:26Z</time>
        <name>WPT.3474</name>
      </trkpt>
      <trkpt lat="17.002326110" lon="-96.537046130">
        <ele>1617.000</ele>
        <time>2017-01-13T22:20:27Z</time>
        <name>WPT.3475</name>
      </trkpt>
      <trkpt lat="17.002752800" lon="-96.537738800">
        <ele>1617.000</ele>
        <time>2017-01-13T22:20:30Z</time>
        <name>WPT.3476</name>
      </trkpt>
      <trkpt lat="17.002902730" lon="-96.537975060">
        <ele>1617.000</ele>
        <time>2017-01-13T22:20:31Z</time>
        <name>WPT.3477</name>
      </trkpt>
      <trkpt lat="17.003056870" lon="-96.538202450">
        <ele>1616.000</ele>
        <time>2017-01-13T22:20:32Z</time>
        <name>WPT.3478</name>
      </trkpt>
      <trkpt lat="17.003209700" lon="-96.538455400">
        <ele>1615.000</ele>
        <time>2017-01-13T22:20:33Z</time>
        <name>WPT.3479</name>
      </trkpt>
      <trkpt lat="17.003392380" lon="-96.538682290">
        <ele>1613.000</ele>
        <time>2017-01-13T22:20:34Z</time>
        <name>WPT.3480</name>
      </trkpt>
      <trkpt lat="17.003538670" lon="-96.538919620">
        <ele>1613.000</ele>
        <time>2017-01-13T22:20:35Z</time>
        <name>WPT.3481</name>
      </trkpt>
      <trkpt lat="17.003682530" lon="-96.539154380">
        <ele>1614.000</ele>
        <time>2017-01-13T22:20:36Z</time>
        <name>WPT.3482</name>
      </trkpt>
      <trkpt lat="17.003830070" lon="-96.539391310">
        <ele>1614.000</ele>
        <time>2017-01-13T22:20:37Z</time>
        <name>WPT.3483</name>
      </trkpt>
      <trkpt lat="17.003985840" lon="-96.539632640">
        <ele>1614.000</ele>
        <time>2017-01-13T22:20:38Z</time>
        <name>WPT.3484</name>
      </trkpt>
      <trkpt lat="17.004132670" lon="-96.539870680">
        <ele>1614.000</ele>
        <time>2017-01-13T22:20:39Z</time>
        <name>WPT.3485</name>
      </trkpt>
      <trkpt lat="17.004299340" lon="-96.540097850">
        <ele>1613.000</ele>
        <time>2017-01-13T22:20:40Z</time>
        <name>WPT.3486</name>
      </trkpt>
      <trkpt lat="17.004446990" lon="-96.540339780">
        <ele>1613.000</ele>
        <time>2017-01-13T22:20:41Z</time>
        <name>WPT.3487</name>
      </trkpt>
      <trkpt lat="17.004598340" lon="-96.540568250">
        <ele>1613.000</ele>
        <time>2017-01-13T22:20:42Z</time>
        <name>WPT.3488</name>
      </trkpt>
      <trkpt lat="17.004733170" lon="-96.540801920">
        <ele>1613.000</ele>
        <time>2017-01-13T22:20:43Z</time>
        <name>WPT.3489</name>
      </trkpt>
      <trkpt lat="17.004885810" lon="-96.541033190">
        <ele>1613.000</ele>
        <time>2017-01-13T22:20:44Z</time>
        <name>WPT.3490</name>
      </trkpt>
      <trkpt lat="17.005082550" lon="-96.541251290">
        <ele>1607.000</ele>
        <time>2017-01-13T22:20:45Z</time>
        <name>WPT.3491</name>
      </trkpt>
      <trkpt lat="17.005238930" lon="-96.541480720">
        <ele>1606.000</ele>
        <time>2017-01-13T22:20:46Z</time>
        <name>WPT.3492</name>
      </trkpt>
      <trkpt lat="17.005390880" lon="-96.541716040">
        <ele>1606.000</ele>
        <time>2017-01-13T22:20:47Z</time>
        <name>WPT.3493</name>
      </trkpt>
      <trkpt lat="17.005516860" lon="-96.541942630">
        <ele>1607.000</ele>
        <time>2017-01-13T22:20:48Z</time>
        <name>WPT.3494</name>
      </trkpt>
      <trkpt lat="17.005684300" lon="-96.542177570">
        <ele>1606.000</ele>
        <time>2017-01-13T22:20:49Z</time>
        <name>WPT.3495</name>
      </trkpt>
      <trkpt lat="17.005833820" lon="-96.542406300">
        <ele>1607.000</ele>
        <time>2017-01-13T22:20:50Z</time>
        <name>WPT.3496</name>
      </trkpt>
      <trkpt lat="17.005977860" lon="-96.542639630">
        <ele>1606.000</ele>
        <time>2017-01-13T22:20:51Z</time>
        <name>WPT.3497</name>
      </trkpt>
      <trkpt lat="17.006129900" lon="-96.542876350">
        <ele>1606.000</ele>
        <time>2017-01-13T22:20:52Z</time>
        <name>WPT.3498</name>
      </trkpt>
      <trkpt lat="17.006436510" lon="-96.543362070">
        <ele>1607.000</ele>
        <time>2017-01-13T22:20:54Z</time>
        <name>WPT.3499</name>
      </trkpt>
      <trkpt lat="17.006592760" lon="-96.543590770">
        <ele>1607.000</ele>
        <time>2017-01-13T22:20:55Z</time>
        <name>WPT.3500</name>
      </trkpt>
      <trkpt lat="17.006734150" lon="-96.543815620">
        <ele>1608.000</ele>
        <time>2017-01-13T22:20:56Z</time>
        <name>WPT.3501</name>
      </trkpt>
      <trkpt lat="17.006886150" lon="-96.544058670">
        <ele>1609.000</ele>
        <time>2017-01-13T22:20:57Z</time>
        <name>WPT.3502</name>
      </trkpt>
      <trkpt lat="17.007033520" lon="-96.544286880">
        <ele>1611.000</ele>
        <time>2017-01-13T22:20:58Z</time>
        <name>WPT.3503</name>
      </trkpt>
      <trkpt lat="17.007184590" lon="-96.544519530">
        <ele>1611.000</ele>
        <time>2017-01-13T22:20:59Z</time>
        <name>WPT.3504</name>
      </trkpt>
      <trkpt lat="17.007340780" lon="-96.544740740">
        <ele>1611.000</ele>
        <time>2017-01-13T22:21:00Z</time>
        <name>WPT.3505</name>
      </trkpt>
      <trkpt lat="17.007480100" lon="-96.544982830">
        <ele>1610.000</ele>
        <time>2017-01-13T22:21:01Z</time>
        <name>WPT.3506</name>
      </trkpt>
      <trkpt lat="17.007620800" lon="-96.545220970">
        <ele>1609.000</ele>
        <time>2017-01-13T22:21:02Z</time>
        <name>WPT.3507</name>
      </trkpt>
      <trkpt lat="17.007771100" lon="-96.545459390">
        <ele>1609.000</ele>
        <time>2017-01-13T22:21:03Z</time>
        <name>WPT.3508</name>
      </trkpt>
      <trkpt lat="17.007913800" lon="-96.545691910">
        <ele>1609.000</ele>
        <time>2017-01-13T22:21:04Z</time>
        <name>WPT.3509</name>
      </trkpt>
      <trkpt lat="17.008097200" lon="-96.545913050">
        <ele>1606.000</ele>
        <time>2017-01-13T22:21:05Z</time>
        <name>WPT.3510</name>
      </trkpt>
      <trkpt lat="17.008259130" lon="-96.546146170">
        <ele>1605.000</ele>
        <time>2017-01-13T22:21:06Z</time>
        <name>WPT.3511</name>
      </trkpt>
      <trkpt lat="17.008398750" lon="-96.546385980">
        <ele>1607.000</ele>
        <time>2017-01-13T22:21:07Z</time>
        <name>WPT.3512</name>
      </trkpt>
      <trkpt lat="17.008528830" lon="-96.546614860">
        <ele>1607.000</ele>
        <time>2017-01-13T22:21:08Z</time>
        <name>WPT.3513</name>
      </trkpt>
      <trkpt lat="17.008678930" lon="-96.546855950">
        <ele>1606.000</ele>
        <time>2017-01-13T22:21:09Z</time>
        <name>WPT.3514</name>
      </trkpt>
      <trkpt lat="17.008810160" lon="-96.547112410">
        <ele>1607.000</ele>
        <time>2017-01-13T22:21:10Z</time>
        <name>WPT.3515</name>
      </trkpt>
      <trkpt lat="17.008937960" lon="-96.547363180">
        <ele>1606.000</ele>
        <time>2017-01-13T22:21:11Z</time>
        <name>WPT.3516</name>
      </trkpt>
      <trkpt lat="17.009057350" lon="-96.547604020">
        <ele>1606.000</ele>
        <time>2017-01-13T22:21:12Z</time>
        <name>WPT.3517</name>
      </trkpt>
      <trkpt lat="17.009189040" lon="-96.547845170">
        <ele>1606.000</ele>
        <time>2017-01-13T22:21:13Z</time>
        <name>WPT.3518</name>
      </trkpt>
      <trkpt lat="17.009310130" lon="-96.548086800">
        <ele>1606.000</ele>
        <time>2017-01-13T22:21:14Z</time>
        <name>WPT.3519</name>
      </trkpt>
      <trkpt lat="17.009438390" lon="-96.548328810">
        <ele>1606.000</ele>
        <time>2017-01-13T22:21:15Z</time>
        <name>WPT.3520</name>
      </trkpt>
      <trkpt lat="17.009568350" lon="-96.548560130">
        <ele>1606.000</ele>
        <time>2017-01-13T22:21:16Z</time>
        <name>WPT.3521</name>
      </trkpt>
      <trkpt lat="17.009686960" lon="-96.548794820">
        <ele>1606.000</ele>
        <time>2017-01-13T22:21:17Z</time>
        <name>WPT.3522</name>
      </trkpt>
      <trkpt lat="17.009830280" lon="-96.549022420">
        <ele>1607.000</ele>
        <time>2017-01-13T22:21:18Z</time>
        <name>WPT.3523</name>
      </trkpt>
      <trkpt lat="17.009960990" lon="-96.549244800">
        <ele>1606.000</ele>
        <time>2017-01-13T22:21:19Z</time>
        <name>WPT.3524</name>
      </trkpt>
      <trkpt lat="17.010073420" lon="-96.549454200">
        <ele>1607.000</ele>
        <time>2017-01-13T22:21:20Z</time>
        <name>WPT.3525</name>
      </trkpt>
      <trkpt lat="17.010199720" lon="-96.549687890">
        <ele>1607.000</ele>
        <time>2017-01-13T22:21:21Z</time>
        <name>WPT.3526</name>
      </trkpt>
      <trkpt lat="17.010336380" lon="-96.549910860">
        <ele>1607.000</ele>
        <time>2017-01-13T22:21:22Z</time>
        <name>WPT.3527</name>
      </trkpt>
      <trkpt lat="17.010463080" lon="-96.550139350">
        <ele>1608.000</ele>
        <time>2017-01-13T22:21:23Z</time>
        <name>WPT.3528</name>
      </trkpt>
      <trkpt lat="17.010580840" lon="-96.550363360">
        <ele>1608.000</ele>
        <time>2017-01-13T22:21:24Z</time>
        <name>WPT.3529</name>
      </trkpt>
      <trkpt lat="17.010694030" lon="-96.550588720">
        <ele>1609.000</ele>
        <time>2017-01-13T22:21:25Z</time>
        <name>WPT.3530</name>
      </trkpt>
      <trkpt lat="17.010817130" lon="-96.550813520">
        <ele>1609.000</ele>
        <time>2017-01-13T22:21:26Z</time>
        <name>WPT.3531</name>
      </trkpt>
      <trkpt lat="17.010934250" lon="-96.551036350">
        <ele>1608.000</ele>
        <time>2017-01-13T22:21:27Z</time>
        <name>WPT.3532</name>
      </trkpt>
      <trkpt lat="17.011062860" lon="-96.551263290">
        <ele>1609.000</ele>
        <time>2017-01-13T22:21:28Z</time>
        <name>WPT.3533</name>
      </trkpt>
      <trkpt lat="17.011192200" lon="-96.551499400">
        <ele>1610.000</ele>
        <time>2017-01-13T22:21:29Z</time>
        <name>WPT.3534</name>
      </trkpt>
      <trkpt lat="17.011305770" lon="-96.551719980">
        <ele>1612.000</ele>
        <time>2017-01-13T22:21:30Z</time>
        <name>WPT.3535</name>
      </trkpt>
      <trkpt lat="17.011463030" lon="-96.551951130">
        <ele>1611.000</ele>
        <time>2017-01-13T22:21:31Z</time>
        <name>WPT.3536</name>
      </trkpt>
      <trkpt lat="17.011583010" lon="-96.552181460">
        <ele>1611.000</ele>
        <time>2017-01-13T22:21:32Z</time>
        <name>WPT.3537</name>
      </trkpt>
      <trkpt lat="17.011702870" lon="-96.552418060">
        <ele>1612.000</ele>
        <time>2017-01-13T22:21:33Z</time>
        <name>WPT.3538</name>
      </trkpt>
      <trkpt lat="17.011835670" lon="-96.552658110">
        <ele>1612.000</ele>
        <time>2017-01-13T22:21:34Z</time>
        <name>WPT.3539</name>
      </trkpt>
      <trkpt lat="17.011968570" lon="-96.552904010">
        <ele>1611.000</ele>
        <time>2017-01-13T22:21:35Z</time>
        <name>WPT.3540</name>
      </trkpt>
      <trkpt lat="17.012088060" lon="-96.553136050">
        <ele>1611.000</ele>
        <time>2017-01-13T22:21:36Z</time>
        <name>WPT.3541</name>
      </trkpt>
      <trkpt lat="17.012224030" lon="-96.553391320">
        <ele>1612.000</ele>
        <time>2017-01-13T22:21:37Z</time>
        <name>WPT.3542</name>
      </trkpt>
      <trkpt lat="17.012369180" lon="-96.553638950">
        <ele>1612.000</ele>
        <time>2017-01-13T22:21:38Z</time>
        <name>WPT.3543</name>
      </trkpt>
      <trkpt lat="17.012492420" lon="-96.553890850">
        <ele>1612.000</ele>
        <time>2017-01-13T22:21:39Z</time>
        <name>WPT.3544</name>
      </trkpt>
      <trkpt lat="17.012631060" lon="-96.554138770">
        <ele>1611.000</ele>
        <time>2017-01-13T22:21:40Z</time>
        <name>WPT.3545</name>
      </trkpt>
      <trkpt lat="17.012770880" lon="-96.554393930">
        <ele>1610.000</ele>
        <time>2017-01-13T22:21:41Z</time>
        <name>WPT.3546</name>
      </trkpt>
      <trkpt lat="17.012905990" lon="-96.554649530">
        <ele>1610.000</ele>
        <time>2017-01-13T22:21:42Z</time>
        <name>WPT.3547</name>
      </trkpt>
      <trkpt lat="17.013044480" lon="-96.554901640">
        <ele>1610.000</ele>
        <time>2017-01-13T22:21:43Z</time>
        <name>WPT.3548</name>
      </trkpt>
      <trkpt lat="17.013178240" lon="-96.555132110">
        <ele>1610.000</ele>
        <time>2017-01-13T22:21:44Z</time>
        <name>WPT.3549</name>
      </trkpt>
      <trkpt lat="17.013301230" lon="-96.555394650">
        <ele>1610.000</ele>
        <time>2017-01-13T22:21:45Z</time>
        <name>WPT.3550</name>
      </trkpt>
      <trkpt lat="17.013448000" lon="-96.555658830">
        <ele>1609.000</ele>
        <time>2017-01-13T22:21:46Z</time>
        <name>WPT.3551</name>
      </trkpt>
      <trkpt lat="17.013604630" lon="-96.555902830">
        <ele>1609.000</ele>
        <time>2017-01-13T22:21:47Z</time>
        <name>WPT.3552</name>
      </trkpt>
      <trkpt lat="17.013737240" lon="-96.556156440">
        <ele>1609.000</ele>
        <time>2017-01-13T22:21:48Z</time>
        <name>WPT.3553</name>
      </trkpt>
      <trkpt lat="17.013871950" lon="-96.556404200">
        <ele>1610.000</ele>
        <time>2017-01-13T22:21:49Z</time>
        <name>WPT.3554</name>
      </trkpt>
      <trkpt lat="17.014006930" lon="-96.556666760">
        <ele>1610.000</ele>
        <time>2017-01-13T22:21:50Z</time>
        <name>WPT.3555</name>
      </trkpt>
      <trkpt lat="17.014142370" lon="-96.556924220">
        <ele>1610.000</ele>
        <time>2017-01-13T22:21:51Z</time>
        <name>WPT.3556</name>
      </trkpt>
      <trkpt lat="17.014279040" lon="-96.557180210">
        <ele>1609.000</ele>
        <time>2017-01-13T22:21:52Z</time>
        <name>WPT.3557</name>
      </trkpt>
      <trkpt lat="17.014415580" lon="-96.557446710">
        <ele>1610.000</ele>
        <time>2017-01-13T22:21:53Z</time>
        <name>WPT.3558</name>
      </trkpt>
      <trkpt lat="17.014543910" lon="-96.557699600">
        <ele>1610.000</ele>
        <time>2017-01-13T22:21:54Z</time>
        <name>WPT.3559</name>
      </trkpt>
      <trkpt lat="17.014697990" lon="-96.557928660">
        <ele>1608.000</ele>
        <time>2017-01-13T22:21:55Z</time>
        <name>WPT.3560</name>
      </trkpt>
      <trkpt lat="17.014832860" lon="-96.558179520">
        <ele>1609.000</ele>
        <time>2017-01-13T22:21:56Z</time>
        <name>WPT.3561</name>
      </trkpt>
      <trkpt lat="17.014961450" lon="-96.558441170">
        <ele>1609.000</ele>
        <time>2017-01-13T22:21:57Z</time>
        <name>WPT.3562</name>
      </trkpt>
      <trkpt lat="17.015082940" lon="-96.558701270">
        <ele>1610.000</ele>
        <time>2017-01-13T22:21:58Z</time>
        <name>WPT.3563</name>
      </trkpt>
      <trkpt lat="17.015208540" lon="-96.558963980">
        <ele>1610.000</ele>
        <time>2017-01-13T22:21:59Z</time>
        <name>WPT.3564</name>
      </trkpt>
      <trkpt lat="17.015328720" lon="-96.559209900">
        <ele>1612.000</ele>
        <time>2017-01-13T22:22:00Z</time>
        <name>WPT.3565</name>
      </trkpt>
      <trkpt lat="17.015471010" lon="-96.559465840">
        <ele>1611.000</ele>
        <time>2017-01-13T22:22:01Z</time>
        <name>WPT.3566</name>
      </trkpt>
      <trkpt lat="17.015608720" lon="-96.559721630">
        <ele>1612.000</ele>
        <time>2017-01-13T22:22:02Z</time>
        <name>WPT.3567</name>
      </trkpt>
      <trkpt lat="17.015758410" lon="-96.559971590">
        <ele>1611.000</ele>
        <time>2017-01-13T22:22:03Z</time>
        <name>WPT.3568</name>
      </trkpt>
      <trkpt lat="17.015906470" lon="-96.560227000">
        <ele>1611.000</ele>
        <time>2017-01-13T22:22:04Z</time>
        <name>WPT.3569</name>
      </trkpt>
      <trkpt lat="17.016030960" lon="-96.560485690">
        <ele>1613.000</ele>
        <time>2017-01-13T22:22:05Z</time>
        <name>WPT.3570</name>
      </trkpt>
      <trkpt lat="17.016174930" lon="-96.560717320">
        <ele>1613.000</ele>
        <time>2017-01-13T22:22:06Z</time>
        <name>WPT.3571</name>
      </trkpt>
      <trkpt lat="17.016328650" lon="-96.560965290">
        <ele>1609.000</ele>
        <time>2017-01-13T22:22:07Z</time>
        <name>WPT.3572</name>
      </trkpt>
      <trkpt lat="17.016450870" lon="-96.561211420">
        <ele>1612.000</ele>
        <time>2017-01-13T22:22:08Z</time>
        <name>WPT.3573</name>
      </trkpt>
      <trkpt lat="17.016619340" lon="-96.561465170">
        <ele>1610.000</ele>
        <time>2017-01-13T22:22:09Z</time>
        <name>WPT.3574</name>
      </trkpt>
      <trkpt lat="17.016759730" lon="-96.561724790">
        <ele>1610.000</ele>
        <time>2017-01-13T22:22:10Z</time>
        <name>WPT.3575</name>
      </trkpt>
      <trkpt lat="17.016889870" lon="-96.561981880">
        <ele>1612.000</ele>
        <time>2017-01-13T22:22:11Z</time>
        <name>WPT.3576</name>
      </trkpt>
      <trkpt lat="17.017035720" lon="-96.562231370">
        <ele>1614.000</ele>
        <time>2017-01-13T22:22:12Z</time>
        <name>WPT.3577</name>
      </trkpt>
      <trkpt lat="17.017164270" lon="-96.562499310">
        <ele>1614.000</ele>
        <time>2017-01-13T22:22:13Z</time>
        <name>WPT.3578</name>
      </trkpt>
      <trkpt lat="17.017297090" lon="-96.562772820">
        <ele>1615.000</ele>
        <time>2017-01-13T22:22:14Z</time>
        <name>WPT.3579</name>
      </trkpt>
      <trkpt lat="17.017420170" lon="-96.563048120">
        <ele>1615.000</ele>
        <time>2017-01-13T22:22:15Z</time>
        <name>WPT.3580</name>
      </trkpt>
      <trkpt lat="17.017522840" lon="-96.563314060">
        <ele>1614.000</ele>
        <time>2017-01-13T22:22:16Z</time>
        <name>WPT.3581</name>
      </trkpt>
      <trkpt lat="17.017619250" lon="-96.563600430">
        <ele>1614.000</ele>
        <time>2017-01-13T22:22:17Z</time>
        <name>WPT.3582</name>
      </trkpt>
      <trkpt lat="17.017702610" lon="-96.563886930">
        <ele>1614.000</ele>
        <time>2017-01-13T22:22:18Z</time>
        <name>WPT.3583</name>
      </trkpt>
      <trkpt lat="17.017795790" lon="-96.564177780">
        <ele>1612.000</ele>
        <time>2017-01-13T22:22:19Z</time>
        <name>WPT.3584</name>
      </trkpt>
      <trkpt lat="17.017875530" lon="-96.564474330">
        <ele>1613.000</ele>
        <time>2017-01-13T22:22:20Z</time>
        <name>WPT.3585</name>
      </trkpt>
      <trkpt lat="17.017957810" lon="-96.564774410">
        <ele>1613.000</ele>
        <time>2017-01-13T22:22:21Z</time>
        <name>WPT.3586</name>
      </trkpt>
      <trkpt lat="17.018037380" lon="-96.565075090">
        <ele>1614.000</ele>
        <time>2017-01-13T22:22:22Z</time>
        <name>WPT.3587</name>
      </trkpt>
      <trkpt lat="17.018109180" lon="-96.565371490">
        <ele>1614.000</ele>
        <time>2017-01-13T22:22:23Z</time>
        <name>WPT.3588</name>
      </trkpt>
      <trkpt lat="17.018186730" lon="-96.565661910">
        <ele>1615.000</ele>
        <time>2017-01-13T22:22:24Z</time>
        <name>WPT.3589</name>
      </trkpt>
      <trkpt lat="17.018267660" lon="-96.565972200">
        <ele>1615.000</ele>
        <time>2017-01-13T22:22:25Z</time>
        <name>WPT.3590</name>
      </trkpt>
      <trkpt lat="17.018348870" lon="-96.566264600">
        <ele>1615.000</ele>
        <time>2017-01-13T22:22:26Z</time>
        <name>WPT.3591</name>
      </trkpt>
      <trkpt lat="17.018429160" lon="-96.566559490">
        <ele>1616.000</ele>
        <time>2017-01-13T22:22:27Z</time>
        <name>WPT.3592</name>
      </trkpt>
      <trkpt lat="17.018511290" lon="-96.566851670">
        <ele>1616.000</ele>
        <time>2017-01-13T22:22:28Z</time>
        <name>WPT.3593</name>
      </trkpt>
      <trkpt lat="17.018595430" lon="-96.567143580">
        <ele>1616.000</ele>
        <time>2017-01-13T22:22:29Z</time>
        <name>WPT.3594</name>
      </trkpt>
      <trkpt lat="17.018681690" lon="-96.567437480">
        <ele>1616.000</ele>
        <time>2017-01-13T22:22:30Z</time>
        <name>WPT.3595</name>
      </trkpt>
      <trkpt lat="17.018764190" lon="-96.567723370">
        <ele>1616.000</ele>
        <time>2017-01-13T22:22:31Z</time>
        <name>WPT.3596</name>
      </trkpt>
      <trkpt lat="17.018845620" lon="-96.568007960">
        <ele>1617.000</ele>
        <time>2017-01-13T22:22:32Z</time>
        <name>WPT.3597</name>
      </trkpt>
      <trkpt lat="17.018925600" lon="-96.568305110">
        <ele>1617.000</ele>
        <time>2017-01-13T22:22:33Z</time>
        <name>WPT.3598</name>
      </trkpt>
      <trkpt lat="17.019007680" lon="-96.568588210">
        <ele>1617.000</ele>
        <time>2017-01-13T22:22:34Z</time>
        <name>WPT.3599</name>
      </trkpt>
      <trkpt lat="17.019102170" lon="-96.568867900">
        <ele>1617.000</ele>
        <time>2017-01-13T22:22:35Z</time>
        <name>WPT.3600</name>
      </trkpt>
      <trkpt lat="17.019180530" lon="-96.569147330">
        <ele>1618.000</ele>
        <time>2017-01-13T22:22:36Z</time>
        <name>WPT.3601</name>
      </trkpt>
      <trkpt lat="17.019257480" lon="-96.569425240">
        <ele>1618.000</ele>
        <time>2017-01-13T22:22:37Z</time>
        <name>WPT.3602</name>
      </trkpt>
      <trkpt lat="17.019327110" lon="-96.569697860">
        <ele>1618.000</ele>
        <time>2017-01-13T22:22:38Z</time>
        <name>WPT.3603</name>
      </trkpt>
      <trkpt lat="17.019405390" lon="-96.569967970">
        <ele>1619.000</ele>
        <time>2017-01-13T22:22:39Z</time>
        <name>WPT.3604</name>
      </trkpt>
      <trkpt lat="17.019472250" lon="-96.570242390">
        <ele>1619.000</ele>
        <time>2017-01-13T22:22:40Z</time>
        <name>WPT.3605</name>
      </trkpt>
      <trkpt lat="17.019563700" lon="-96.570513520">
        <ele>1619.000</ele>
        <time>2017-01-13T22:22:41Z</time>
        <name>WPT.3606</name>
      </trkpt>
      <trkpt lat="17.019648140" lon="-96.570778620">
        <ele>1619.000</ele>
        <time>2017-01-13T22:22:42Z</time>
        <name>WPT.3607</name>
      </trkpt>
      <trkpt lat="17.019706870" lon="-96.571049860">
        <ele>1620.000</ele>
        <time>2017-01-13T22:22:43Z</time>
        <name>WPT.3608</name>
      </trkpt>
      <trkpt lat="17.019808170" lon="-96.571293490">
        <ele>1622.000</ele>
        <time>2017-01-13T22:22:44Z</time>
        <name>WPT.3609</name>
      </trkpt>
      <trkpt lat="17.019890140" lon="-96.571579740">
        <ele>1622.000</ele>
        <time>2017-01-13T22:22:45Z</time>
        <name>WPT.3610</name>
      </trkpt>
      <trkpt lat="17.019931480" lon="-96.571862540">
        <ele>1623.000</ele>
        <time>2017-01-13T22:22:46Z</time>
        <name>WPT.3611</name>
      </trkpt>
      <trkpt lat="17.020026610" lon="-96.572116290">
        <ele>1625.000</ele>
        <time>2017-01-13T22:22:47Z</time>
        <name>WPT.3612</name>
      </trkpt>
      <trkpt lat="17.020097710" lon="-96.572372040">
        <ele>1625.000</ele>
        <time>2017-01-13T22:22:48Z</time>
        <name>WPT.3613</name>
      </trkpt>
      <trkpt lat="17.020160120" lon="-96.572645780">
        <ele>1625.000</ele>
        <time>2017-01-13T22:22:49Z</time>
        <name>WPT.3614</name>
      </trkpt>
      <trkpt lat="17.020228450" lon="-96.572910820">
        <ele>1625.000</ele>
        <time>2017-01-13T22:22:50Z</time>
        <name>WPT.3615</name>
      </trkpt>
      <trkpt lat="17.020313390" lon="-96.573203620">
        <ele>1625.000</ele>
        <time>2017-01-13T22:22:51Z</time>
        <name>WPT.3616</name>
      </trkpt>
      <trkpt lat="17.020365900" lon="-96.573461090">
        <ele>1625.000</ele>
        <time>2017-01-13T22:22:52Z</time>
        <name>WPT.3617</name>
      </trkpt>
      <trkpt lat="17.020440410" lon="-96.573701710">
        <ele>1626.000</ele>
        <time>2017-01-13T22:22:53Z</time>
        <name>WPT.3618</name>
      </trkpt>
      <trkpt lat="17.020504850" lon="-96.573942020">
        <ele>1626.000</ele>
        <time>2017-01-13T22:22:54Z</time>
        <name>WPT.3619</name>
      </trkpt>
      <trkpt lat="17.020577400" lon="-96.574180610">
        <ele>1625.000</ele>
        <time>2017-01-13T22:22:55Z</time>
        <name>WPT.3620</name>
      </trkpt>
      <trkpt lat="17.020643260" lon="-96.574419330">
        <ele>1624.000</ele>
        <time>2017-01-13T22:22:56Z</time>
        <name>WPT.3621</name>
      </trkpt>
      <trkpt lat="17.020708130" lon="-96.574666750">
        <ele>1624.000</ele>
        <time>2017-01-13T22:22:57Z</time>
        <name>WPT.3622</name>
      </trkpt>
      <trkpt lat="17.020765370" lon="-96.574924450">
        <ele>1626.000</ele>
        <time>2017-01-13T22:22:58Z</time>
        <name>WPT.3623</name>
      </trkpt>
      <trkpt lat="17.020832330" lon="-96.575152170">
        <ele>1625.000</ele>
        <time>2017-01-13T22:22:59Z</time>
        <name>WPT.3624</name>
      </trkpt>
      <trkpt lat="17.020898240" lon="-96.575387180">
        <ele>1626.000</ele>
        <time>2017-01-13T22:23:00Z</time>
        <name>WPT.3625</name>
      </trkpt>
      <trkpt lat="17.020974500" lon="-96.575597840">
        <ele>1626.000</ele>
        <time>2017-01-13T22:23:01Z</time>
        <name>WPT.3626</name>
      </trkpt>
      <trkpt lat="17.021041220" lon="-96.575833360">
        <ele>1629.000</ele>
        <time>2017-01-13T22:23:02Z</time>
        <name>WPT.3627</name>
      </trkpt>
      <trkpt lat="17.021104310" lon="-96.576043150">
        <ele>1628.000</ele>
        <time>2017-01-13T22:23:03Z</time>
        <name>WPT.3628</name>
      </trkpt>
      <trkpt lat="17.021155400" lon="-96.576245140">
        <ele>1628.000</ele>
        <time>2017-01-13T22:23:04Z</time>
        <name>WPT.3629</name>
      </trkpt>
      <trkpt lat="17.021221410" lon="-96.576470570">
        <ele>1629.000</ele>
        <time>2017-01-13T22:23:05Z</time>
        <name>WPT.3630</name>
      </trkpt>
      <trkpt lat="17.021278910" lon="-96.576687380">
        <ele>1629.000</ele>
        <time>2017-01-13T22:23:06Z</time>
        <name>WPT.3631</name>
      </trkpt>
      <trkpt lat="17.021340390" lon="-96.576887500">
        <ele>1629.000</ele>
        <time>2017-01-13T22:23:07Z</time>
        <name>WPT.3632</name>
      </trkpt>
      <trkpt lat="17.021393830" lon="-96.577081460">
        <ele>1629.000</ele>
        <time>2017-01-13T22:23:08Z</time>
        <name>WPT.3633</name>
      </trkpt>
      <trkpt lat="17.021446850" lon="-96.577272380">
        <ele>1628.000</ele>
        <time>2017-01-13T22:23:09Z</time>
        <name>WPT.3634</name>
      </trkpt>
      <trkpt lat="17.021513670" lon="-96.577467690">
        <ele>1629.000</ele>
        <time>2017-01-13T22:23:10Z</time>
        <name>WPT.3635</name>
      </trkpt>
      <trkpt lat="17.021556740" lon="-96.577651580">
        <ele>1630.000</ele>
        <time>2017-01-13T22:23:11Z</time>
        <name>WPT.3636</name>
      </trkpt>
      <trkpt lat="17.021603010" lon="-96.577836420">
        <ele>1632.000</ele>
        <time>2017-01-13T22:23:12Z</time>
        <name>WPT.3637</name>
      </trkpt>
      <trkpt lat="17.021658320" lon="-96.578009050">
        <ele>1630.000</ele>
        <time>2017-01-13T22:23:13Z</time>
        <name>WPT.3638</name>
      </trkpt>
      <trkpt lat="17.021691500" lon="-96.578174030">
        <ele>1630.000</ele>
        <time>2017-01-13T22:23:14Z</time>
        <name>WPT.3639</name>
      </trkpt>
      <trkpt lat="17.021754300" lon="-96.578354040">
        <ele>1628.000</ele>
        <time>2017-01-13T22:23:15Z</time>
        <name>WPT.3640</name>
      </trkpt>
      <trkpt lat="17.021804730" lon="-96.578536330">
        <ele>1627.000</ele>
        <time>2017-01-13T22:23:16Z</time>
        <name>WPT.3641</name>
      </trkpt>
      <trkpt lat="17.021850740" lon="-96.578732030">
        <ele>1627.000</ele>
        <time>2017-01-13T22:23:17Z</time>
        <name>WPT.3642</name>
      </trkpt>
      <trkpt lat="17.021910050" lon="-96.578915810">
        <ele>1627.000</ele>
        <time>2017-01-13T22:23:18Z</time>
        <name>WPT.3643</name>
      </trkpt>
      <trkpt lat="17.021970090" lon="-96.579112990">
        <ele>1625.000</ele>
        <time>2017-01-13T22:23:19Z</time>
        <name>WPT.3644</name>
      </trkpt>
      <trkpt lat="17.022023530" lon="-96.579310630">
        <ele>1624.000</ele>
        <time>2017-01-13T22:23:20Z</time>
        <name>WPT.3645</name>
      </trkpt>
      <trkpt lat="17.022072920" lon="-96.579519970">
        <ele>1624.000</ele>
        <time>2017-01-13T22:23:21Z</time>
        <name>WPT.3646</name>
      </trkpt>
      <trkpt lat="17.022133310" lon="-96.579729830">
        <ele>1624.000</ele>
        <time>2017-01-13T22:23:22Z</time>
        <name>WPT.3647</name>
      </trkpt>
      <trkpt lat="17.022183180" lon="-96.579946540">
        <ele>1624.000</ele>
        <time>2017-01-13T22:23:23Z</time>
        <name>WPT.3648</name>
      </trkpt>
      <trkpt lat="17.022229380" lon="-96.580168620">
        <ele>1624.000</ele>
        <time>2017-01-13T22:23:24Z</time>
        <name>WPT.3649</name>
      </trkpt>
      <trkpt lat="17.022282510" lon="-96.580391030">
        <ele>1624.000</ele>
        <time>2017-01-13T22:23:25Z</time>
        <name>WPT.3650</name>
      </trkpt>
      <trkpt lat="17.022349660" lon="-96.580620620">
        <ele>1623.000</ele>
        <time>2017-01-13T22:23:26Z</time>
        <name>WPT.3651</name>
      </trkpt>
      <trkpt lat="17.022411100" lon="-96.580852230">
        <ele>1621.000</ele>
        <time>2017-01-13T22:23:27Z</time>
        <name>WPT.3652</name>
      </trkpt>
      <trkpt lat="17.022474100" lon="-96.581070940">
        <ele>1621.000</ele>
        <time>2017-01-13T22:23:28Z</time>
        <name>WPT.3653</name>
      </trkpt>
      <trkpt lat="17.022536500" lon="-96.581334010">
        <ele>1621.000</ele>
        <time>2017-01-13T22:23:29Z</time>
        <name>WPT.3654</name>
      </trkpt>
      <trkpt lat="17.022609530" lon="-96.581584340">
        <ele>1620.000</ele>
        <time>2017-01-13T22:23:30Z</time>
        <name>WPT.3655</name>
      </trkpt>
      <trkpt lat="17.022680820" lon="-96.581832180">
        <ele>1618.000</ele>
        <time>2017-01-13T22:23:31Z</time>
        <name>WPT.3656</name>
      </trkpt>
      <trkpt lat="17.022752600" lon="-96.582086500">
        <ele>1617.000</ele>
        <time>2017-01-13T22:23:32Z</time>
        <name>WPT.3657</name>
      </trkpt>
      <trkpt lat="17.022826070" lon="-96.582338600">
        <ele>1616.000</ele>
        <time>2017-01-13T22:23:33Z</time>
        <name>WPT.3658</name>
      </trkpt>
      <trkpt lat="17.022901670" lon="-96.582585670">
        <ele>1615.000</ele>
        <time>2017-01-13T22:23:34Z</time>
        <name>WPT.3659</name>
      </trkpt>
      <trkpt lat="17.022976130" lon="-96.582834800">
        <ele>1614.000</ele>
        <time>2017-01-13T22:23:35Z</time>
        <name>WPT.3660</name>
      </trkpt>
      <trkpt lat="17.023043230" lon="-96.583076420">
        <ele>1614.000</ele>
        <time>2017-01-13T22:23:36Z</time>
        <name>WPT.3661</name>
      </trkpt>
      <trkpt lat="17.023112540" lon="-96.583336090">
        <ele>1613.000</ele>
        <time>2017-01-13T22:23:37Z</time>
        <name>WPT.3662</name>
      </trkpt>
      <trkpt lat="17.023180250" lon="-96.583583730">
        <ele>1612.000</ele>
        <time>2017-01-13T22:23:38Z</time>
        <name>WPT.3663</name>
      </trkpt>
      <trkpt lat="17.023249950" lon="-96.583836590">
        <ele>1611.000</ele>
        <time>2017-01-13T22:23:39Z</time>
        <name>WPT.3664</name>
      </trkpt>
      <trkpt lat="17.023333280" lon="-96.584076250">
        <ele>1608.000</ele>
        <time>2017-01-13T22:23:40Z</time>
        <name>WPT.3665</name>
      </trkpt>
      <trkpt lat="17.023399810" lon="-96.584323260">
        <ele>1607.000</ele>
        <time>2017-01-13T22:23:41Z</time>
        <name>WPT.3666</name>
      </trkpt>
      <trkpt lat="17.023467610" lon="-96.584576190">
        <ele>1606.000</ele>
        <time>2017-01-13T22:23:42Z</time>
        <name>WPT.3667</name>
      </trkpt>
      <trkpt lat="17.023542710" lon="-96.584823480">
        <ele>1604.000</ele>
        <time>2017-01-13T22:23:43Z</time>
        <name>WPT.3668</name>
      </trkpt>
      <trkpt lat="17.023604180" lon="-96.585058590">
        <ele>1603.000</ele>
        <time>2017-01-13T22:23:44Z</time>
        <name>WPT.3669</name>
      </trkpt>
      <trkpt lat="17.023667810" lon="-96.585301990">
        <ele>1602.000</ele>
        <time>2017-01-13T22:23:45Z</time>
        <name>WPT.3670</name>
      </trkpt>
      <trkpt lat="17.023732390" lon="-96.585536530">
        <ele>1601.000</ele>
        <time>2017-01-13T22:23:46Z</time>
        <name>WPT.3671</name>
      </trkpt>
      <trkpt lat="17.023808070" lon="-96.585773930">
        <ele>1600.000</ele>
        <time>2017-01-13T22:23:47Z</time>
        <name>WPT.3672</name>
      </trkpt>
      <trkpt lat="17.023863900" lon="-96.586013530">
        <ele>1600.000</ele>
        <time>2017-01-13T22:23:48Z</time>
        <name>WPT.3673</name>
      </trkpt>
      <trkpt lat="17.023934170" lon="-96.586245770">
        <ele>1600.000</ele>
        <time>2017-01-13T22:23:49Z</time>
        <name>WPT.3674</name>
      </trkpt>
      <trkpt lat="17.023994090" lon="-96.586483920">
        <ele>1600.000</ele>
        <time>2017-01-13T22:23:50Z</time>
        <name>WPT.3675</name>
      </trkpt>
      <trkpt lat="17.024065900" lon="-96.586720040">
        <ele>1599.000</ele>
        <time>2017-01-13T22:23:51Z</time>
        <name>WPT.3676</name>
      </trkpt>
      <trkpt lat="17.024132380" lon="-96.586952290">
        <ele>1600.000</ele>
        <time>2017-01-13T22:23:52Z</time>
        <name>WPT.3677</name>
      </trkpt>
      <trkpt lat="17.024201380" lon="-96.587203240">
        <ele>1600.000</ele>
        <time>2017-01-13T22:23:53Z</time>
        <name>WPT.3678</name>
      </trkpt>
      <trkpt lat="17.024265120" lon="-96.587447850">
        <ele>1601.000</ele>
        <time>2017-01-13T22:23:54Z</time>
        <name>WPT.3679</name>
      </trkpt>
      <trkpt lat="17.024333250" lon="-96.587696960">
        <ele>1601.000</ele>
        <time>2017-01-13T22:23:55Z</time>
        <name>WPT.3680</name>
      </trkpt>
      <trkpt lat="17.024404660" lon="-96.587945180">
        <ele>1601.000</ele>
        <time>2017-01-13T22:23:56Z</time>
        <name>WPT.3681</name>
      </trkpt>
      <trkpt lat="17.024472540" lon="-96.588194380">
        <ele>1601.000</ele>
        <time>2017-01-13T22:23:57Z</time>
        <name>WPT.3682</name>
      </trkpt>
      <trkpt lat="17.024544520" lon="-96.588447770">
        <ele>1601.000</ele>
        <time>2017-01-13T22:23:58Z</time>
        <name>WPT.3683</name>
      </trkpt>
      <trkpt lat="17.024615670" lon="-96.588697660">
        <ele>1600.000</ele>
        <time>2017-01-13T22:23:59Z</time>
        <name>WPT.3684</name>
      </trkpt>
      <trkpt lat="17.024685570" lon="-96.588941160">
        <ele>1600.000</ele>
        <time>2017-01-13T22:24:00Z</time>
        <name>WPT.3685</name>
      </trkpt>
      <trkpt lat="17.024761080" lon="-96.589204620">
        <ele>1600.000</ele>
        <time>2017-01-13T22:24:01Z</time>
        <name>WPT.3686</name>
      </trkpt>
      <trkpt lat="17.024838300" lon="-96.589458830">
        <ele>1599.000</ele>
        <time>2017-01-13T22:24:02Z</time>
        <name>WPT.3687</name>
      </trkpt>
      <trkpt lat="17.024903060" lon="-96.589716390">
        <ele>1600.000</ele>
        <time>2017-01-13T22:24:03Z</time>
        <name>WPT.3688</name>
      </trkpt>
      <trkpt lat="17.024975700" lon="-96.589970220">
        <ele>1599.000</ele>
        <time>2017-01-13T22:24:04Z</time>
        <name>WPT.3689</name>
      </trkpt>
      <trkpt lat="17.025061850" lon="-96.590223390">
        <ele>1597.000</ele>
        <time>2017-01-13T22:24:05Z</time>
        <name>WPT.3690</name>
      </trkpt>
      <trkpt lat="17.025129820" lon="-96.590483700">
        <ele>1597.000</ele>
        <time>2017-01-13T22:24:06Z</time>
        <name>WPT.3691</name>
      </trkpt>
      <trkpt lat="17.025198280" lon="-96.590738720">
        <ele>1597.000</ele>
        <time>2017-01-13T22:24:07Z</time>
        <name>WPT.3692</name>
      </trkpt>
      <trkpt lat="17.025266190" lon="-96.590988840">
        <ele>1597.000</ele>
        <time>2017-01-13T22:24:08Z</time>
        <name>WPT.3693</name>
      </trkpt>
      <trkpt lat="17.025338870" lon="-96.591252220">
        <ele>1597.000</ele>
        <time>2017-01-13T22:24:09Z</time>
        <name>WPT.3694</name>
      </trkpt>
      <trkpt lat="17.025410590" lon="-96.591510420">
        <ele>1596.000</ele>
        <time>2017-01-13T22:24:10Z</time>
        <name>WPT.3695</name>
      </trkpt>
      <trkpt lat="17.025480320" lon="-96.591763170">
        <ele>1596.000</ele>
        <time>2017-01-13T22:24:11Z</time>
        <name>WPT.3696</name>
      </trkpt>
      <trkpt lat="17.025548740" lon="-96.592021140">
        <ele>1595.000</ele>
        <time>2017-01-13T22:24:12Z</time>
        <name>WPT.3697</name>
      </trkpt>
      <trkpt lat="17.025622430" lon="-96.592277940">
        <ele>1594.000</ele>
        <time>2017-01-13T22:24:13Z</time>
        <name>WPT.3698</name>
      </trkpt>
      <trkpt lat="17.025697600" lon="-96.592535150">
        <ele>1594.000</ele>
        <time>2017-01-13T22:24:14Z</time>
        <name>WPT.3699</name>
      </trkpt>
      <trkpt lat="17.025774450" lon="-96.592795460">
        <ele>1593.000</ele>
        <time>2017-01-13T22:24:15Z</time>
        <name>WPT.3700</name>
      </trkpt>
      <trkpt lat="17.025850770" lon="-96.593052430">
        <ele>1593.000</ele>
        <time>2017-01-13T22:24:16Z</time>
        <name>WPT.3701</name>
      </trkpt>
      <trkpt lat="17.025925850" lon="-96.593319930">
        <ele>1593.000</ele>
        <time>2017-01-13T22:24:17Z</time>
        <name>WPT.3702</name>
      </trkpt>
      <trkpt lat="17.026000800" lon="-96.593583510">
        <ele>1593.000</ele>
        <time>2017-01-13T22:24:18Z</time>
        <name>WPT.3703</name>
      </trkpt>
      <trkpt lat="17.026079210" lon="-96.593845260">
        <ele>1593.000</ele>
        <time>2017-01-13T22:24:19Z</time>
        <name>WPT.3704</name>
      </trkpt>
      <trkpt lat="17.026154530" lon="-96.594108360">
        <ele>1593.000</ele>
        <time>2017-01-13T22:24:20Z</time>
        <name>WPT.3705</name>
      </trkpt>
      <trkpt lat="17.026227780" lon="-96.594367490">
        <ele>1594.000</ele>
        <time>2017-01-13T22:24:21Z</time>
        <name>WPT.3706</name>
      </trkpt>
      <trkpt lat="17.026301540" lon="-96.594625690">
        <ele>1594.000</ele>
        <time>2017-01-13T22:24:22Z</time>
        <name>WPT.3707</name>
      </trkpt>
      <trkpt lat="17.026373550" lon="-96.594881400">
        <ele>1594.000</ele>
        <time>2017-01-13T22:24:23Z</time>
        <name>WPT.3708</name>
      </trkpt>
      <trkpt lat="17.026442220" lon="-96.595131720">
        <ele>1595.000</ele>
        <time>2017-01-13T22:24:24Z</time>
        <name>WPT.3709</name>
      </trkpt>
      <trkpt lat="17.026517980" lon="-96.595398850">
        <ele>1594.000</ele>
        <time>2017-01-13T22:24:25Z</time>
        <name>WPT.3710</name>
      </trkpt>
      <trkpt lat="17.026591720" lon="-96.595656300">
        <ele>1595.000</ele>
        <time>2017-01-13T22:24:26Z</time>
        <name>WPT.3711</name>
      </trkpt>
      <trkpt lat="17.026661830" lon="-96.595906240">
        <ele>1594.000</ele>
        <time>2017-01-13T22:24:27Z</time>
        <name>WPT.3712</name>
      </trkpt>
      <trkpt lat="17.026736860" lon="-96.596161240">
        <ele>1593.000</ele>
        <time>2017-01-13T22:24:28Z</time>
        <name>WPT.3713</name>
      </trkpt>
      <trkpt lat="17.026807710" lon="-96.596413140">
        <ele>1593.000</ele>
        <time>2017-01-13T22:24:29Z</time>
        <name>WPT.3714</name>
      </trkpt>
      <trkpt lat="17.026877950" lon="-96.596664410">
        <ele>1593.000</ele>
        <time>2017-01-13T22:24:30Z</time>
        <name>WPT.3715</name>
      </trkpt>
      <trkpt lat="17.026955070" lon="-96.596913380">
        <ele>1592.000</ele>
        <time>2017-01-13T22:24:31Z</time>
        <name>WPT.3716</name>
      </trkpt>
      <trkpt lat="17.027022530" lon="-96.597166100">
        <ele>1592.000</ele>
        <time>2017-01-13T22:24:32Z</time>
        <name>WPT.3717</name>
      </trkpt>
      <trkpt lat="17.027094820" lon="-96.597423490">
        <ele>1592.000</ele>
        <time>2017-01-13T22:24:33Z</time>
        <name>WPT.3718</name>
      </trkpt>
      <trkpt lat="17.027166400" lon="-96.597668290">
        <ele>1592.000</ele>
        <time>2017-01-13T22:24:34Z</time>
        <name>WPT.3719</name>
      </trkpt>
      <trkpt lat="17.027235630" lon="-96.597913280">
        <ele>1592.000</ele>
        <time>2017-01-13T22:24:35Z</time>
        <name>WPT.3720</name>
      </trkpt>
      <trkpt lat="17.027314740" lon="-96.598156440">
        <ele>1592.000</ele>
        <time>2017-01-13T22:24:36Z</time>
        <name>WPT.3721</name>
      </trkpt>
      <trkpt lat="17.027378760" lon="-96.598398270">
        <ele>1592.000</ele>
        <time>2017-01-13T22:24:37Z</time>
        <name>WPT.3722</name>
      </trkpt>
      <trkpt lat="17.027464970" lon="-96.598635920">
        <ele>1592.000</ele>
        <time>2017-01-13T22:24:38Z</time>
        <name>WPT.3723</name>
      </trkpt>
      <trkpt lat="17.027554470" lon="-96.598883280">
        <ele>1593.000</ele>
        <time>2017-01-13T22:24:39Z</time>
        <name>WPT.3724</name>
      </trkpt>
      <trkpt lat="17.027641320" lon="-96.599130420">
        <ele>1594.000</ele>
        <time>2017-01-13T22:24:40Z</time>
        <name>WPT.3725</name>
      </trkpt>
      <trkpt lat="17.027750020" lon="-96.599368710">
        <ele>1594.000</ele>
        <time>2017-01-13T22:24:41Z</time>
        <name>WPT.3726</name>
      </trkpt>
      <trkpt lat="17.027852740" lon="-96.599600450">
        <ele>1594.000</ele>
        <time>2017-01-13T22:24:42Z</time>
        <name>WPT.3727</name>
      </trkpt>
      <trkpt lat="17.027970300" lon="-96.599831730">
        <ele>1594.000</ele>
        <time>2017-01-13T22:24:43Z</time>
        <name>WPT.3728</name>
      </trkpt>
      <trkpt lat="17.028083840" lon="-96.600057900">
        <ele>1594.000</ele>
        <time>2017-01-13T22:24:44Z</time>
        <name>WPT.3729</name>
      </trkpt>
      <trkpt lat="17.028208360" lon="-96.600262410">
        <ele>1593.000</ele>
        <time>2017-01-13T22:24:45Z</time>
        <name>WPT.3730</name>
      </trkpt>
      <trkpt lat="17.028324910" lon="-96.600487910">
        <ele>1593.000</ele>
        <time>2017-01-13T22:24:46Z</time>
        <name>WPT.3731</name>
      </trkpt>
      <trkpt lat="17.028450170" lon="-96.600706870">
        <ele>1592.000</ele>
        <time>2017-01-13T22:24:47Z</time>
        <name>WPT.3732</name>
      </trkpt>
      <trkpt lat="17.028569440" lon="-96.600916780">
        <ele>1593.000</ele>
        <time>2017-01-13T22:24:48Z</time>
        <name>WPT.3733</name>
      </trkpt>
      <trkpt lat="17.028683250" lon="-96.601140880">
        <ele>1593.000</ele>
        <time>2017-01-13T22:24:49Z</time>
        <name>WPT.3734</name>
      </trkpt>
      <trkpt lat="17.028790110" lon="-96.601355820">
        <ele>1593.000</ele>
        <time>2017-01-13T22:24:50Z</time>
        <name>WPT.3735</name>
      </trkpt>
      <trkpt lat="17.028902720" lon="-96.601559390">
        <ele>1592.000</ele>
        <time>2017-01-13T22:24:51Z</time>
        <name>WPT.3736</name>
      </trkpt>
      <trkpt lat="17.029008010" lon="-96.601768270">
        <ele>1591.000</ele>
        <time>2017-01-13T22:24:52Z</time>
        <name>WPT.3737</name>
      </trkpt>
      <trkpt lat="17.029112320" lon="-96.601966290">
        <ele>1591.000</ele>
        <time>2017-01-13T22:24:53Z</time>
        <name>WPT.3738</name>
      </trkpt>
      <trkpt lat="17.029217380" lon="-96.602174930">
        <ele>1591.000</ele>
        <time>2017-01-13T22:24:54Z</time>
        <name>WPT.3739</name>
      </trkpt>
      <trkpt lat="17.029326920" lon="-96.602388520">
        <ele>1592.000</ele>
        <time>2017-01-13T22:24:55Z</time>
        <name>WPT.3740</name>
      </trkpt>
      <trkpt lat="17.029431250" lon="-96.602587080">
        <ele>1591.000</ele>
        <time>2017-01-13T22:24:56Z</time>
        <name>WPT.3741</name>
      </trkpt>
      <trkpt lat="17.029540080" lon="-96.602809560">
        <ele>1591.000</ele>
        <time>2017-01-13T22:24:57Z</time>
        <name>WPT.3742</name>
      </trkpt>
      <trkpt lat="17.029639460" lon="-96.603005550">
        <ele>1591.000</ele>
        <time>2017-01-13T22:24:58Z</time>
        <name>WPT.3743</name>
      </trkpt>
      <trkpt lat="17.029757360" lon="-96.603211990">
        <ele>1591.000</ele>
        <time>2017-01-13T22:24:59Z</time>
        <name>WPT.3744</name>
      </trkpt>
      <trkpt lat="17.029878850" lon="-96.603417300">
        <ele>1590.000</ele>
        <time>2017-01-13T22:25:00Z</time>
        <name>WPT.3745</name>
      </trkpt>
      <trkpt lat="17.029982530" lon="-96.603627170">
        <ele>1589.000</ele>
        <time>2017-01-13T22:25:01Z</time>
        <name>WPT.3746</name>
      </trkpt>
      <trkpt lat="17.030088790" lon="-96.603840970">
        <ele>1591.000</ele>
        <time>2017-01-13T22:25:02Z</time>
        <name>WPT.3747</name>
      </trkpt>
      <trkpt lat="17.030203570" lon="-96.604052430">
        <ele>1590.000</ele>
        <time>2017-01-13T22:25:03Z</time>
        <name>WPT.3748</name>
      </trkpt>
      <trkpt lat="17.030320470" lon="-96.604265410">
        <ele>1589.000</ele>
        <time>2017-01-13T22:25:04Z</time>
        <name>WPT.3749</name>
      </trkpt>
      <trkpt lat="17.030433910" lon="-96.604484900">
        <ele>1589.000</ele>
        <time>2017-01-13T22:25:05Z</time>
        <name>WPT.3750</name>
      </trkpt>
      <trkpt lat="17.030548050" lon="-96.604676090">
        <ele>1587.000</ele>
        <time>2017-01-13T22:25:06Z</time>
        <name>WPT.3751</name>
      </trkpt>
      <trkpt lat="17.030660200" lon="-96.604897290">
        <ele>1587.000</ele>
        <time>2017-01-13T22:25:07Z</time>
        <name>WPT.3752</name>
      </trkpt>
      <trkpt lat="17.030768580" lon="-96.605123430">
        <ele>1588.000</ele>
        <time>2017-01-13T22:25:08Z</time>
        <name>WPT.3753</name>
      </trkpt>
      <trkpt lat="17.030877160" lon="-96.605342080">
        <ele>1587.000</ele>
        <time>2017-01-13T22:25:09Z</time>
        <name>WPT.3754</name>
      </trkpt>
      <trkpt lat="17.030983640" lon="-96.605566110">
        <ele>1587.000</ele>
        <time>2017-01-13T22:25:10Z</time>
        <name>WPT.3755</name>
      </trkpt>
      <trkpt lat="17.031102010" lon="-96.605779790">
        <ele>1587.000</ele>
        <time>2017-01-13T22:25:11Z</time>
        <name>WPT.3756</name>
      </trkpt>
      <trkpt lat="17.031213550" lon="-96.605987670">
        <ele>1586.000</ele>
        <time>2017-01-13T22:25:12Z</time>
        <name>WPT.3757</name>
      </trkpt>
      <trkpt lat="17.031337250" lon="-96.606225270">
        <ele>1585.000</ele>
        <time>2017-01-13T22:25:13Z</time>
        <name>WPT.3758</name>
      </trkpt>
      <trkpt lat="17.031459070" lon="-96.606444660">
        <ele>1583.000</ele>
        <time>2017-01-13T22:25:14Z</time>
        <name>WPT.3759</name>
      </trkpt>
      <trkpt lat="17.031571450" lon="-96.606657680">
        <ele>1584.000</ele>
        <time>2017-01-13T22:25:15Z</time>
        <name>WPT.3760</name>
      </trkpt>
      <trkpt lat="17.031676860" lon="-96.606886950">
        <ele>1584.000</ele>
        <time>2017-01-13T22:25:16Z</time>
        <name>WPT.3761</name>
      </trkpt>
      <trkpt lat="17.031798470" lon="-96.607085370">
        <ele>1582.000</ele>
        <time>2017-01-13T22:25:17Z</time>
        <name>WPT.3762</name>
      </trkpt>
      <trkpt lat="17.031901910" lon="-96.607304700">
        <ele>1583.000</ele>
        <time>2017-01-13T22:25:18Z</time>
        <name>WPT.3763</name>
      </trkpt>
      <trkpt lat="17.032015580" lon="-96.607500610">
        <ele>1581.000</ele>
        <time>2017-01-13T22:25:19Z</time>
        <name>WPT.3764</name>
      </trkpt>
      <trkpt lat="17.032112740" lon="-96.607699160">
        <ele>1582.000</ele>
        <time>2017-01-13T22:25:20Z</time>
        <name>WPT.3765</name>
      </trkpt>
      <trkpt lat="17.032549700" lon="-96.608503530">
        <ele>1577.000</ele>
        <time>2017-01-13T22:25:24Z</time>
        <name>WPT.3766</name>
      </trkpt>
      <trkpt lat="17.032650130" lon="-96.608714820">
        <ele>1576.000</ele>
        <time>2017-01-13T22:25:25Z</time>
        <name>WPT.3767</name>
      </trkpt>
      <trkpt lat="17.032758320" lon="-96.608921920">
        <ele>1576.000</ele>
        <time>2017-01-13T22:25:26Z</time>
        <name>WPT.3768</name>
      </trkpt>
      <trkpt lat="17.032870330" lon="-96.609126660">
        <ele>1576.000</ele>
        <time>2017-01-13T22:25:27Z</time>
        <name>WPT.3769</name>
      </trkpt>
      <trkpt lat="17.032975890" lon="-96.609313910">
        <ele>1576.000</ele>
        <time>2017-01-13T22:25:28Z</time>
        <name>WPT.3770</name>
      </trkpt>
      <trkpt lat="17.033087810" lon="-96.609518930">
        <ele>1576.000</ele>
        <time>2017-01-13T22:25:29Z</time>
        <name>WPT.3771</name>
      </trkpt>
      <trkpt lat="17.033199010" lon="-96.609723650">
        <ele>1576.000</ele>
        <time>2017-01-13T22:25:30Z</time>
        <name>WPT.3772</name>
      </trkpt>
      <trkpt lat="17.033301390" lon="-96.609929950">
        <ele>1578.000</ele>
        <time>2017-01-13T22:25:31Z</time>
        <name>WPT.3773</name>
      </trkpt>
      <trkpt lat="17.033396650" lon="-96.610115090">
        <ele>1578.000</ele>
        <time>2017-01-13T22:25:32Z</time>
        <name>WPT.3774</name>
      </trkpt>
      <trkpt lat="17.033503220" lon="-96.610298730">
        <ele>1578.000</ele>
        <time>2017-01-13T22:25:33Z</time>
        <name>WPT.3775</name>
      </trkpt>
      <trkpt lat="17.033590600" lon="-96.610480370">
        <ele>1579.000</ele>
        <time>2017-01-13T22:25:34Z</time>
        <name>WPT.3776</name>
      </trkpt>
      <trkpt lat="17.033683310" lon="-96.610666460">
        <ele>1579.000</ele>
        <time>2017-01-13T22:25:35Z</time>
        <name>WPT.3777</name>
      </trkpt>
      <trkpt lat="17.033766610" lon="-96.610837950">
        <ele>1579.000</ele>
        <time>2017-01-13T22:25:36Z</time>
        <name>WPT.3778</name>
      </trkpt>
      <trkpt lat="17.033853820" lon="-96.611021390">
        <ele>1580.000</ele>
        <time>2017-01-13T22:25:37Z</time>
        <name>WPT.3779</name>
      </trkpt>
      <trkpt lat="17.033946570" lon="-96.611200680">
        <ele>1580.000</ele>
        <time>2017-01-13T22:25:38Z</time>
        <name>WPT.3780</name>
      </trkpt>
      <trkpt lat="17.034039550" lon="-96.611371580">
        <ele>1580.000</ele>
        <time>2017-01-13T22:25:39Z</time>
        <name>WPT.3781</name>
      </trkpt>
      <trkpt lat="17.034133720" lon="-96.611542260">
        <ele>1579.000</ele>
        <time>2017-01-13T22:25:40Z</time>
        <name>WPT.3782</name>
      </trkpt>
      <trkpt lat="17.034233810" lon="-96.611721220">
        <ele>1579.000</ele>
        <time>2017-01-13T22:25:41Z</time>
        <name>WPT.3783</name>
      </trkpt>
      <trkpt lat="17.034327510" lon="-96.611912290">
        <ele>1578.000</ele>
        <time>2017-01-13T22:25:42Z</time>
        <name>WPT.3784</name>
      </trkpt>
      <trkpt lat="17.034504060" lon="-96.612265150">
        <ele>1579.000</ele>
        <time>2017-01-13T22:25:44Z</time>
        <name>WPT.3785</name>
      </trkpt>
      <trkpt lat="17.034609570" lon="-96.612454640">
        <ele>1576.000</ele>
        <time>2017-01-13T22:25:45Z</time>
        <name>WPT.3786</name>
      </trkpt>
      <trkpt lat="17.034721750" lon="-96.612644560">
        <ele>1575.000</ele>
        <time>2017-01-13T22:25:46Z</time>
        <name>WPT.3787</name>
      </trkpt>
      <trkpt lat="17.034838970" lon="-96.612820200">
        <ele>1573.000</ele>
        <time>2017-01-13T22:25:47Z</time>
        <name>WPT.3788</name>
      </trkpt>
      <trkpt lat="17.034919680" lon="-96.612982030">
        <ele>1574.000</ele>
        <time>2017-01-13T22:25:48Z</time>
        <name>WPT.3789</name>
      </trkpt>
      <trkpt lat="17.035004870" lon="-96.613146450">
        <ele>1574.000</ele>
        <time>2017-01-13T22:25:49Z</time>
        <name>WPT.3790</name>
      </trkpt>
      <trkpt lat="17.035078210" lon="-96.613305560">
        <ele>1574.000</ele>
        <time>2017-01-13T22:25:50Z</time>
        <name>WPT.3791</name>
      </trkpt>
      <trkpt lat="17.035179280" lon="-96.613453240">
        <ele>1574.000</ele>
        <time>2017-01-13T22:25:51Z</time>
        <name>WPT.3792</name>
      </trkpt>
      <trkpt lat="17.035254740" lon="-96.613599790">
        <ele>1573.000</ele>
        <time>2017-01-13T22:25:52Z</time>
        <name>WPT.3793</name>
      </trkpt>
      <trkpt lat="17.035339980" lon="-96.613754640">
        <ele>1572.000</ele>
        <time>2017-01-13T22:25:53Z</time>
        <name>WPT.3794</name>
      </trkpt>
      <trkpt lat="17.035425890" lon="-96.613915790">
        <ele>1570.000</ele>
        <time>2017-01-13T22:25:54Z</time>
        <name>WPT.3795</name>
      </trkpt>
      <trkpt lat="17.035509690" lon="-96.614081930">
        <ele>1570.000</ele>
        <time>2017-01-13T22:25:55Z</time>
        <name>WPT.3796</name>
      </trkpt>
      <trkpt lat="17.035610440" lon="-96.614242300">
        <ele>1569.000</ele>
        <time>2017-01-13T22:25:56Z</time>
        <name>WPT.3797</name>
      </trkpt>
      <trkpt lat="17.035688380" lon="-96.614422820">
        <ele>1569.000</ele>
        <time>2017-01-13T22:25:57Z</time>
        <name>WPT.3798</name>
      </trkpt>
      <trkpt lat="17.035783390" lon="-96.614585020">
        <ele>1568.000</ele>
        <time>2017-01-13T22:25:58Z</time>
        <name>WPT.3799</name>
      </trkpt>
      <trkpt lat="17.035871660" lon="-96.614756680">
        <ele>1569.000</ele>
        <time>2017-01-13T22:25:59Z</time>
        <name>WPT.3800</name>
      </trkpt>
      <trkpt lat="17.035964360" lon="-96.614921060">
        <ele>1568.000</ele>
        <time>2017-01-13T22:26:00Z</time>
        <name>WPT.3801</name>
      </trkpt>
      <trkpt lat="17.036064960" lon="-96.615086250">
        <ele>1569.000</ele>
        <time>2017-01-13T22:26:01Z</time>
        <name>WPT.3802</name>
      </trkpt>
      <trkpt lat="17.036158840" lon="-96.615272080">
        <ele>1569.000</ele>
        <time>2017-01-13T22:26:02Z</time>
        <name>WPT.3803</name>
      </trkpt>
      <trkpt lat="17.036262670" lon="-96.615454870">
        <ele>1569.000</ele>
        <time>2017-01-13T22:26:03Z</time>
        <name>WPT.3804</name>
      </trkpt>
      <trkpt lat="17.036388430" lon="-96.615617470">
        <ele>1565.000</ele>
        <time>2017-01-13T22:26:04Z</time>
        <name>WPT.3805</name>
      </trkpt>
      <trkpt lat="17.036488180" lon="-96.615787170">
        <ele>1565.000</ele>
        <time>2017-01-13T22:26:05Z</time>
        <name>WPT.3806</name>
      </trkpt>
      <trkpt lat="17.036588680" lon="-96.615961350">
        <ele>1565.000</ele>
        <time>2017-01-13T22:26:06Z</time>
        <name>WPT.3807</name>
      </trkpt>
      <trkpt lat="17.036695330" lon="-96.616112610">
        <ele>1564.000</ele>
        <time>2017-01-13T22:26:07Z</time>
        <name>WPT.3808</name>
      </trkpt>
      <trkpt lat="17.036793430" lon="-96.616268750">
        <ele>1563.000</ele>
        <time>2017-01-13T22:26:08Z</time>
        <name>WPT.3809</name>
      </trkpt>
      <trkpt lat="17.036896250" lon="-96.616435100">
        <ele>1563.000</ele>
        <time>2017-01-13T22:26:09Z</time>
        <name>WPT.3810</name>
      </trkpt>
      <trkpt lat="17.036998000" lon="-96.616592390">
        <ele>1563.000</ele>
        <time>2017-01-13T22:26:10Z</time>
        <name>WPT.3811</name>
      </trkpt>
      <trkpt lat="17.037101960" lon="-96.616759350">
        <ele>1563.000</ele>
        <time>2017-01-13T22:26:11Z</time>
        <name>WPT.3812</name>
      </trkpt>
      <trkpt lat="17.037218000" lon="-96.616904200">
        <ele>1562.000</ele>
        <time>2017-01-13T22:26:12Z</time>
        <name>WPT.3813</name>
      </trkpt>
      <trkpt lat="17.037339250" lon="-96.617066530">
        <ele>1561.000</ele>
        <time>2017-01-13T22:26:13Z</time>
        <name>WPT.3814</name>
      </trkpt>
      <trkpt lat="17.037454960" lon="-96.617235660">
        <ele>1561.000</ele>
        <time>2017-01-13T22:26:14Z</time>
        <name>WPT.3815</name>
      </trkpt>
      <trkpt lat="17.037558990" lon="-96.617432570">
        <ele>1561.000</ele>
        <time>2017-01-13T22:26:15Z</time>
        <name>WPT.3816</name>
      </trkpt>
      <trkpt lat="17.037642880" lon="-96.617629940">
        <ele>1560.000</ele>
        <time>2017-01-13T22:26:16Z</time>
        <name>WPT.3817</name>
      </trkpt>
      <trkpt lat="17.037726900" lon="-96.617831700">
        <ele>1561.000</ele>
        <time>2017-01-13T22:26:17Z</time>
        <name>WPT.3818</name>
      </trkpt>
      <trkpt lat="17.037811190" lon="-96.618020220">
        <ele>1562.000</ele>
        <time>2017-01-13T22:26:18Z</time>
        <name>WPT.3819</name>
      </trkpt>
      <trkpt lat="17.037878650" lon="-96.618224920">
        <ele>1562.000</ele>
        <time>2017-01-13T22:26:19Z</time>
        <name>WPT.3820</name>
      </trkpt>
      <trkpt lat="17.037888570" lon="-96.618433110">
        <ele>1562.000</ele>
        <time>2017-01-13T22:26:20Z</time>
        <name>WPT.3821</name>
      </trkpt>
      <trkpt lat="17.037931530" lon="-96.618638400">
        <ele>1562.000</ele>
        <time>2017-01-13T22:26:21Z</time>
        <name>WPT.3822</name>
      </trkpt>
      <trkpt lat="17.037915380" lon="-96.618839310">
        <ele>1560.000</ele>
        <time>2017-01-13T22:26:22Z</time>
        <name>WPT.3823</name>
      </trkpt>
      <trkpt lat="17.037883960" lon="-96.619041370">
        <ele>1559.000</ele>
        <time>2017-01-13T22:26:23Z</time>
        <name>WPT.3824</name>
      </trkpt>
      <trkpt lat="17.037852880" lon="-96.619256330">
        <ele>1558.000</ele>
        <time>2017-01-13T22:26:24Z</time>
        <name>WPT.3825</name>
      </trkpt>
      <trkpt lat="17.037824140" lon="-96.619461500">
        <ele>1559.000</ele>
        <time>2017-01-13T22:26:25Z</time>
        <name>WPT.3826</name>
      </trkpt>
      <trkpt lat="17.037761430" lon="-96.619632350">
        <ele>1558.000</ele>
        <time>2017-01-13T22:26:26Z</time>
        <name>WPT.3827</name>
      </trkpt>
      <trkpt lat="17.037679710" lon="-96.619801310">
        <ele>1558.000</ele>
        <time>2017-01-13T22:26:27Z</time>
        <name>WPT.3828</name>
      </trkpt>
      <trkpt lat="17.037623510" lon="-96.620004780">
        <ele>1557.000</ele>
        <time>2017-01-13T22:26:28Z</time>
        <name>WPT.3829</name>
      </trkpt>
      <trkpt lat="17.037553390" lon="-96.620198520">
        <ele>1557.000</ele>
        <time>2017-01-13T22:26:29Z</time>
        <name>WPT.3830</name>
      </trkpt>
      <trkpt lat="17.037482990" lon="-96.620389460">
        <ele>1557.000</ele>
        <time>2017-01-13T22:26:30Z</time>
        <name>WPT.3831</name>
      </trkpt>
      <trkpt lat="17.037414960" lon="-96.620593630">
        <ele>1556.000</ele>
        <time>2017-01-13T22:26:31Z</time>
        <name>WPT.3832</name>
      </trkpt>
      <trkpt lat="17.037311880" lon="-96.620795470">
        <ele>1556.000</ele>
        <time>2017-01-13T22:26:32Z</time>
        <name>WPT.3833</name>
      </trkpt>
      <trkpt lat="17.037263570" lon="-96.621018630">
        <ele>1557.000</ele>
        <time>2017-01-13T22:26:33Z</time>
        <name>WPT.3834</name>
      </trkpt>
      <trkpt lat="17.037202930" lon="-96.621234580">
        <ele>1559.000</ele>
        <time>2017-01-13T22:26:34Z</time>
        <name>WPT.3835</name>
      </trkpt>
      <trkpt lat="17.037147950" lon="-96.621463140">
        <ele>1558.000</ele>
        <time>2017-01-13T22:26:35Z</time>
        <name>WPT.3836</name>
      </trkpt>
      <trkpt lat="17.037090270" lon="-96.621681750">
        <ele>1558.000</ele>
        <time>2017-01-13T22:26:36Z</time>
        <name>WPT.3837</name>
      </trkpt>
      <trkpt lat="17.037043410" lon="-96.621906560">
        <ele>1558.000</ele>
        <time>2017-01-13T22:26:37Z</time>
        <name>WPT.3838</name>
      </trkpt>
      <trkpt lat="17.037012760" lon="-96.622140700">
        <ele>1558.000</ele>
        <time>2017-01-13T22:26:38Z</time>
        <name>WPT.3839</name>
      </trkpt>
      <trkpt lat="17.036984650" lon="-96.622360690">
        <ele>1558.000</ele>
        <time>2017-01-13T22:26:39Z</time>
        <name>WPT.3840</name>
      </trkpt>
      <trkpt lat="17.036974020" lon="-96.622585670">
        <ele>1557.000</ele>
        <time>2017-01-13T22:26:40Z</time>
        <name>WPT.3841</name>
      </trkpt>
      <trkpt lat="17.036954220" lon="-96.622843650">
        <ele>1556.000</ele>
        <time>2017-01-13T22:26:41Z</time>
        <name>WPT.3842</name>
      </trkpt>
      <trkpt lat="17.036944920" lon="-96.623086280">
        <ele>1554.000</ele>
        <time>2017-01-13T22:26:42Z</time>
        <name>WPT.3843</name>
      </trkpt>
      <trkpt lat="17.036921790" lon="-96.623322120">
        <ele>1556.000</ele>
        <time>2017-01-13T22:26:43Z</time>
        <name>WPT.3844</name>
      </trkpt>
      <trkpt lat="17.036884610" lon="-96.623570110">
        <ele>1557.000</ele>
        <time>2017-01-13T22:26:44Z</time>
        <name>WPT.3845</name>
      </trkpt>
      <trkpt lat="17.036861090" lon="-96.623809830">
        <ele>1556.000</ele>
        <time>2017-01-13T22:26:45Z</time>
        <name>WPT.3846</name>
      </trkpt>
      <trkpt lat="17.036866140" lon="-96.624045740">
        <ele>1554.000</ele>
        <time>2017-01-13T22:26:46Z</time>
        <name>WPT.3847</name>
      </trkpt>
      <trkpt lat="17.036833500" lon="-96.624304280">
        <ele>1553.000</ele>
        <time>2017-01-13T22:26:47Z</time>
        <name>WPT.3848</name>
      </trkpt>
      <trkpt lat="17.036841040" lon="-96.624542440">
        <ele>1552.000</ele>
        <time>2017-01-13T22:26:48Z</time>
        <name>WPT.3849</name>
      </trkpt>
      <trkpt lat="17.036825200" lon="-96.624801060">
        <ele>1552.000</ele>
        <time>2017-01-13T22:26:49Z</time>
        <name>WPT.3850</name>
      </trkpt>
      <trkpt lat="17.036794760" lon="-96.625063190">
        <ele>1551.000</ele>
        <time>2017-01-13T22:26:50Z</time>
        <name>WPT.3851</name>
      </trkpt>
      <trkpt lat="17.036749150" lon="-96.625327140">
        <ele>1552.000</ele>
        <time>2017-01-13T22:26:51Z</time>
        <name>WPT.3852</name>
      </trkpt>
      <trkpt lat="17.036712040" lon="-96.625598000">
        <ele>1553.000</ele>
        <time>2017-01-13T22:26:52Z</time>
        <name>WPT.3853</name>
      </trkpt>
      <trkpt lat="17.036669480" lon="-96.625840670">
        <ele>1552.000</ele>
        <time>2017-01-13T22:26:53Z</time>
        <name>WPT.3854</name>
      </trkpt>
      <trkpt lat="17.036656370" lon="-96.626124540">
        <ele>1552.000</ele>
        <time>2017-01-13T22:26:54Z</time>
        <name>WPT.3855</name>
      </trkpt>
      <trkpt lat="17.036637940" lon="-96.626390540">
        <ele>1550.000</ele>
        <time>2017-01-13T22:26:55Z</time>
        <name>WPT.3856</name>
      </trkpt>
      <trkpt lat="17.036612150" lon="-96.626637860">
        <ele>1550.000</ele>
        <time>2017-01-13T22:26:56Z</time>
        <name>WPT.3857</name>
      </trkpt>
      <trkpt lat="17.036572070" lon="-96.626900380">
        <ele>1551.000</ele>
        <time>2017-01-13T22:26:57Z</time>
        <name>WPT.3858</name>
      </trkpt>
      <trkpt lat="17.036531320" lon="-96.627113010">
        <ele>1552.000</ele>
        <time>2017-01-13T22:26:58Z</time>
        <name>WPT.3859</name>
      </trkpt>
      <trkpt lat="17.036499750" lon="-96.627354270">
        <ele>1550.000</ele>
        <time>2017-01-13T22:26:59Z</time>
        <name>WPT.3860</name>
      </trkpt>
      <trkpt lat="17.036476330" lon="-96.627641330">
        <ele>1550.000</ele>
        <time>2017-01-13T22:27:00Z</time>
        <name>WPT.3861</name>
      </trkpt>
      <trkpt lat="17.036465000" lon="-96.627912050">
        <ele>1549.000</ele>
        <time>2017-01-13T22:27:01Z</time>
        <name>WPT.3862</name>
      </trkpt>
      <trkpt lat="17.036452150" lon="-96.628174010">
        <ele>1550.000</ele>
        <time>2017-01-13T22:27:02Z</time>
        <name>WPT.3863</name>
      </trkpt>
      <trkpt lat="17.036439430" lon="-96.628434730">
        <ele>1549.000</ele>
        <time>2017-01-13T22:27:03Z</time>
        <name>WPT.3864</name>
      </trkpt>
      <trkpt lat="17.036444720" lon="-96.628711320">
        <ele>1549.000</ele>
        <time>2017-01-13T22:27:04Z</time>
        <name>WPT.3865</name>
      </trkpt>
      <trkpt lat="17.036452590" lon="-96.628993030">
        <ele>1548.000</ele>
        <time>2017-01-13T22:27:05Z</time>
        <name>WPT.3866</name>
      </trkpt>
      <trkpt lat="17.036465780" lon="-96.629264420">
        <ele>1548.000</ele>
        <time>2017-01-13T22:27:06Z</time>
        <name>WPT.3867</name>
      </trkpt>
      <trkpt lat="17.036495620" lon="-96.629532580">
        <ele>1549.000</ele>
        <time>2017-01-13T22:27:07Z</time>
        <name>WPT.3868</name>
      </trkpt>
      <trkpt lat="17.036531170" lon="-96.629800020">
        <ele>1550.000</ele>
        <time>2017-01-13T22:27:08Z</time>
        <name>WPT.3869</name>
      </trkpt>
      <trkpt lat="17.036559710" lon="-96.630062490">
        <ele>1550.000</ele>
        <time>2017-01-13T22:27:09Z</time>
        <name>WPT.3870</name>
      </trkpt>
      <trkpt lat="17.036602600" lon="-96.630315450">
        <ele>1550.000</ele>
        <time>2017-01-13T22:27:10Z</time>
        <name>WPT.3871</name>
      </trkpt>
      <trkpt lat="17.036653530" lon="-96.630571610">
        <ele>1550.000</ele>
        <time>2017-01-13T22:27:11Z</time>
        <name>WPT.3872</name>
      </trkpt>
      <trkpt lat="17.036709070" lon="-96.630813660">
        <ele>1549.000</ele>
        <time>2017-01-13T22:27:12Z</time>
        <name>WPT.3873</name>
      </trkpt>
      <trkpt lat="17.036774200" lon="-96.631063420">
        <ele>1550.000</ele>
        <time>2017-01-13T22:27:13Z</time>
        <name>WPT.3874</name>
      </trkpt>
      <trkpt lat="17.036839520" lon="-96.631300350">
        <ele>1550.000</ele>
        <time>2017-01-13T22:27:14Z</time>
        <name>WPT.3875</name>
      </trkpt>
      <trkpt lat="17.036906710" lon="-96.631536320">
        <ele>1551.000</ele>
        <time>2017-01-13T22:27:15Z</time>
        <name>WPT.3876</name>
      </trkpt>
      <trkpt lat="17.036981720" lon="-96.631759180">
        <ele>1552.000</ele>
        <time>2017-01-13T22:27:16Z</time>
        <name>WPT.3877</name>
      </trkpt>
      <trkpt lat="17.037065260" lon="-96.631982840">
        <ele>1552.000</ele>
        <time>2017-01-13T22:27:17Z</time>
        <name>WPT.3878</name>
      </trkpt>
      <trkpt lat="17.037155910" lon="-96.632195440">
        <ele>1551.000</ele>
        <time>2017-01-13T22:27:18Z</time>
        <name>WPT.3879</name>
      </trkpt>
      <trkpt lat="17.037251390" lon="-96.632405430">
        <ele>1551.000</ele>
        <time>2017-01-13T22:27:19Z</time>
        <name>WPT.3880</name>
      </trkpt>
      <trkpt lat="17.037349960" lon="-96.632617060">
        <ele>1551.000</ele>
        <time>2017-01-13T22:27:20Z</time>
        <name>WPT.3881</name>
      </trkpt>
      <trkpt lat="17.037469070" lon="-96.632851720">
        <ele>1552.000</ele>
        <time>2017-01-13T22:27:21Z</time>
        <name>WPT.3882</name>
      </trkpt>
      <trkpt lat="17.037568970" lon="-96.633071060">
        <ele>1551.000</ele>
        <time>2017-01-13T22:27:22Z</time>
        <name>WPT.3883</name>
      </trkpt>
      <trkpt lat="17.037649090" lon="-96.633272780">
        <ele>1550.000</ele>
        <time>2017-01-13T22:27:23Z</time>
        <name>WPT.3884</name>
      </trkpt>
      <trkpt lat="17.037747810" lon="-96.633477650">
        <ele>1550.000</ele>
        <time>2017-01-13T22:27:24Z</time>
        <name>WPT.3885</name>
      </trkpt>
      <trkpt lat="17.037835160" lon="-96.633687120">
        <ele>1550.000</ele>
        <time>2017-01-13T22:27:25Z</time>
        <name>WPT.3886</name>
      </trkpt>
      <trkpt lat="17.037922740" lon="-96.633898860">
        <ele>1549.000</ele>
        <time>2017-01-13T22:27:26Z</time>
        <name>WPT.3887</name>
      </trkpt>
      <trkpt lat="17.038004690" lon="-96.634113980">
        <ele>1550.000</ele>
        <time>2017-01-13T22:27:27Z</time>
        <name>WPT.3888</name>
      </trkpt>
      <trkpt lat="17.038089640" lon="-96.634307790">
        <ele>1548.000</ele>
        <time>2017-01-13T22:27:28Z</time>
        <name>WPT.3889</name>
      </trkpt>
      <trkpt lat="17.038198670" lon="-96.634520520">
        <ele>1548.000</ele>
        <time>2017-01-13T22:27:29Z</time>
        <name>WPT.3890</name>
      </trkpt>
      <trkpt lat="17.038301810" lon="-96.634719040">
        <ele>1547.000</ele>
        <time>2017-01-13T22:27:30Z</time>
        <name>WPT.3891</name>
      </trkpt>
      <trkpt lat="17.038391420" lon="-96.634923500">
        <ele>1546.000</ele>
        <time>2017-01-13T22:27:31Z</time>
        <name>WPT.3892</name>
      </trkpt>
      <trkpt lat="17.038491420" lon="-96.635124970">
        <ele>1546.000</ele>
        <time>2017-01-13T22:27:32Z</time>
        <name>WPT.3893</name>
      </trkpt>
      <trkpt lat="17.038581330" lon="-96.635326700">
        <ele>1545.000</ele>
        <time>2017-01-13T22:27:33Z</time>
        <name>WPT.3894</name>
      </trkpt>
      <trkpt lat="17.038660500" lon="-96.635520520">
        <ele>1545.000</ele>
        <time>2017-01-13T22:27:34Z</time>
        <name>WPT.3895</name>
      </trkpt>
      <trkpt lat="17.038754510" lon="-96.635703870">
        <ele>1545.000</ele>
        <time>2017-01-13T22:27:35Z</time>
        <name>WPT.3896</name>
      </trkpt>
      <trkpt lat="17.038831650" lon="-96.635884680">
        <ele>1545.000</ele>
        <time>2017-01-13T22:27:36Z</time>
        <name>WPT.3897</name>
      </trkpt>
      <trkpt lat="17.038916280" lon="-96.636063910">
        <ele>1545.000</ele>
        <time>2017-01-13T22:27:37Z</time>
        <name>WPT.3898</name>
      </trkpt>
      <trkpt lat="17.038989740" lon="-96.636230260">
        <ele>1547.000</ele>
        <time>2017-01-13T22:27:38Z</time>
        <name>WPT.3899</name>
      </trkpt>
      <trkpt lat="17.039072160" lon="-96.636399740">
        <ele>1546.000</ele>
        <time>2017-01-13T22:27:39Z</time>
        <name>WPT.3900</name>
      </trkpt>
      <trkpt lat="17.039151440" lon="-96.636569340">
        <ele>1545.000</ele>
        <time>2017-01-13T22:27:40Z</time>
        <name>WPT.3901</name>
      </trkpt>
      <trkpt lat="17.039221160" lon="-96.636734950">
        <ele>1547.000</ele>
        <time>2017-01-13T22:27:41Z</time>
        <name>WPT.3902</name>
      </trkpt>
      <trkpt lat="17.039294640" lon="-96.636905550">
        <ele>1548.000</ele>
        <time>2017-01-13T22:27:42Z</time>
        <name>WPT.3903</name>
      </trkpt>
      <trkpt lat="17.039376010" lon="-96.637071590">
        <ele>1549.000</ele>
        <time>2017-01-13T22:27:43Z</time>
        <name>WPT.3904</name>
      </trkpt>
      <trkpt lat="17.039441970" lon="-96.637232360">
        <ele>1550.000</ele>
        <time>2017-01-13T22:27:44Z</time>
        <name>WPT.3905</name>
      </trkpt>
      <trkpt lat="17.039534960" lon="-96.637422370">
        <ele>1550.000</ele>
        <time>2017-01-13T22:27:45Z</time>
        <name>WPT.3906</name>
      </trkpt>
      <trkpt lat="17.039620150" lon="-96.637595800">
        <ele>1549.000</ele>
        <time>2017-01-13T22:27:46Z</time>
        <name>WPT.3907</name>
      </trkpt>
      <trkpt lat="17.039701840" lon="-96.637778610">
        <ele>1551.000</ele>
        <time>2017-01-13T22:27:47Z</time>
        <name>WPT.3908</name>
      </trkpt>
      <trkpt lat="17.039795060" lon="-96.637961270">
        <ele>1550.000</ele>
        <time>2017-01-13T22:27:48Z</time>
        <name>WPT.3909</name>
      </trkpt>
      <trkpt lat="17.039882130" lon="-96.638161190">
        <ele>1551.000</ele>
        <time>2017-01-13T22:27:49Z</time>
        <name>WPT.3910</name>
      </trkpt>
      <trkpt lat="17.039959970" lon="-96.638348100">
        <ele>1551.000</ele>
        <time>2017-01-13T22:27:50Z</time>
        <name>WPT.3911</name>
      </trkpt>
      <trkpt lat="17.040035360" lon="-96.638536560">
        <ele>1552.000</ele>
        <time>2017-01-13T22:27:51Z</time>
        <name>WPT.3912</name>
      </trkpt>
      <trkpt lat="17.040119270" lon="-96.638731700">
        <ele>1552.000</ele>
        <time>2017-01-13T22:27:52Z</time>
        <name>WPT.3913</name>
      </trkpt>
      <trkpt lat="17.040202830" lon="-96.638935450">
        <ele>1552.000</ele>
        <time>2017-01-13T22:27:53Z</time>
        <name>WPT.3914</name>
      </trkpt>
      <trkpt lat="17.040294320" lon="-96.639131420">
        <ele>1552.000</ele>
        <time>2017-01-13T22:27:54Z</time>
        <name>WPT.3915</name>
      </trkpt>
      <trkpt lat="17.040370940" lon="-96.639336420">
        <ele>1554.000</ele>
        <time>2017-01-13T22:27:55Z</time>
        <name>WPT.3916</name>
      </trkpt>
      <trkpt lat="17.040460130" lon="-96.639538630">
        <ele>1552.000</ele>
        <time>2017-01-13T22:27:56Z</time>
        <name>WPT.3917</name>
      </trkpt>
      <trkpt lat="17.040539780" lon="-96.639745350">
        <ele>1552.000</ele>
        <time>2017-01-13T22:27:57Z</time>
        <name>WPT.3918</name>
      </trkpt>
      <trkpt lat="17.040631830" lon="-96.639956070">
        <ele>1554.000</ele>
        <time>2017-01-13T22:27:58Z</time>
        <name>WPT.3919</name>
      </trkpt>
      <trkpt lat="17.040712010" lon="-96.640169840">
        <ele>1554.000</ele>
        <time>2017-01-13T22:27:59Z</time>
        <name>WPT.3920</name>
      </trkpt>
      <trkpt lat="17.040796550" lon="-96.640374530">
        <ele>1554.000</ele>
        <time>2017-01-13T22:28:00Z</time>
        <name>WPT.3921</name>
      </trkpt>
      <trkpt lat="17.040885520" lon="-96.640604240">
        <ele>1555.000</ele>
        <time>2017-01-13T22:28:01Z</time>
        <name>WPT.3922</name>
      </trkpt>
      <trkpt lat="17.040962990" lon="-96.640822390">
        <ele>1555.000</ele>
        <time>2017-01-13T22:28:02Z</time>
        <name>WPT.3923</name>
      </trkpt>
      <trkpt lat="17.041035190" lon="-96.641048970">
        <ele>1556.000</ele>
        <time>2017-01-13T22:28:03Z</time>
        <name>WPT.3924</name>
      </trkpt>
      <trkpt lat="17.041094380" lon="-96.641267600">
        <ele>1556.000</ele>
        <time>2017-01-13T22:28:04Z</time>
        <name>WPT.3925</name>
      </trkpt>
      <trkpt lat="17.041187250" lon="-96.641477670">
        <ele>1556.000</ele>
        <time>2017-01-13T22:28:05Z</time>
        <name>WPT.3926</name>
      </trkpt>
      <trkpt lat="17.041278640" lon="-96.641711340">
        <ele>1554.000</ele>
        <time>2017-01-13T22:28:06Z</time>
        <name>WPT.3927</name>
      </trkpt>
      <trkpt lat="17.041357050" lon="-96.641970850">
        <ele>1552.000</ele>
        <time>2017-01-13T22:28:07Z</time>
        <name>WPT.3928</name>
      </trkpt>
      <trkpt lat="17.041436410" lon="-96.642217400">
        <ele>1553.000</ele>
        <time>2017-01-13T22:28:08Z</time>
        <name>WPT.3929</name>
      </trkpt>
      <trkpt lat="17.041521660" lon="-96.642476060">
        <ele>1553.000</ele>
        <time>2017-01-13T22:28:09Z</time>
        <name>WPT.3930</name>
      </trkpt>
      <trkpt lat="17.041598230" lon="-96.642723450">
        <ele>1553.000</ele>
        <time>2017-01-13T22:28:10Z</time>
        <name>WPT.3931</name>
      </trkpt>
      <trkpt lat="17.041677110" lon="-96.642969780">
        <ele>1553.000</ele>
        <time>2017-01-13T22:28:11Z</time>
        <name>WPT.3932</name>
      </trkpt>
      <trkpt lat="17.041772310" lon="-96.643225430">
        <ele>1553.000</ele>
        <time>2017-01-13T22:28:12Z</time>
        <name>WPT.3933</name>
      </trkpt>
      <trkpt lat="17.041855740" lon="-96.643478140">
        <ele>1553.000</ele>
        <time>2017-01-13T22:28:13Z</time>
        <name>WPT.3934</name>
      </trkpt>
      <trkpt lat="17.041943260" lon="-96.643725020">
        <ele>1552.000</ele>
        <time>2017-01-13T22:28:14Z</time>
        <name>WPT.3935</name>
      </trkpt>
      <trkpt lat="17.042035200" lon="-96.643984220">
        <ele>1552.000</ele>
        <time>2017-01-13T22:28:15Z</time>
        <name>WPT.3936</name>
      </trkpt>
      <trkpt lat="17.042087260" lon="-96.644245800">
        <ele>1552.000</ele>
        <time>2017-01-13T22:28:16Z</time>
        <name>WPT.3937</name>
      </trkpt>
      <trkpt lat="17.042142170" lon="-96.644508110">
        <ele>1552.000</ele>
        <time>2017-01-13T22:28:17Z</time>
        <name>WPT.3938</name>
      </trkpt>
      <trkpt lat="17.042218340" lon="-96.644789350">
        <ele>1553.000</ele>
        <time>2017-01-13T22:28:18Z</time>
        <name>WPT.3939</name>
      </trkpt>
      <trkpt lat="17.042292400" lon="-96.645071470">
        <ele>1553.000</ele>
        <time>2017-01-13T22:28:19Z</time>
        <name>WPT.3940</name>
      </trkpt>
      <trkpt lat="17.042381500" lon="-96.645342330">
        <ele>1550.000</ele>
        <time>2017-01-13T22:28:20Z</time>
        <name>WPT.3941</name>
      </trkpt>
      <trkpt lat="17.042449690" lon="-96.645627650">
        <ele>1550.000</ele>
        <time>2017-01-13T22:28:21Z</time>
        <name>WPT.3942</name>
      </trkpt>
      <trkpt lat="17.042526090" lon="-96.645908500">
        <ele>1550.000</ele>
        <time>2017-01-13T22:28:22Z</time>
        <name>WPT.3943</name>
      </trkpt>
      <trkpt lat="17.042603840" lon="-96.646167670">
        <ele>1550.000</ele>
        <time>2017-01-13T22:28:23Z</time>
        <name>WPT.3944</name>
      </trkpt>
      <trkpt lat="17.042682430" lon="-96.646418340">
        <ele>1550.000</ele>
        <time>2017-01-13T22:28:24Z</time>
        <name>WPT.3945</name>
      </trkpt>
      <trkpt lat="17.042759170" lon="-96.646686430">
        <ele>1551.000</ele>
        <time>2017-01-13T22:28:25Z</time>
        <name>WPT.3946</name>
      </trkpt>
      <trkpt lat="17.042806650" lon="-96.646967220">
        <ele>1550.000</ele>
        <time>2017-01-13T22:28:26Z</time>
        <name>WPT.3947</name>
      </trkpt>
      <trkpt lat="17.042905380" lon="-96.647245310">
        <ele>1551.000</ele>
        <time>2017-01-13T22:28:27Z</time>
        <name>WPT.3948</name>
      </trkpt>
      <trkpt lat="17.042984460" lon="-96.647494200">
        <ele>1550.000</ele>
        <time>2017-01-13T22:28:28Z</time>
        <name>WPT.3949</name>
      </trkpt>
      <trkpt lat="17.043063480" lon="-96.647766280">
        <ele>1550.000</ele>
        <time>2017-01-13T22:28:29Z</time>
        <name>WPT.3950</name>
      </trkpt>
      <trkpt lat="17.043140640" lon="-96.648035070">
        <ele>1550.000</ele>
        <time>2017-01-13T22:28:30Z</time>
        <name>WPT.3951</name>
      </trkpt>
      <trkpt lat="17.043286910" lon="-96.648276310">
        <ele>1547.000</ele>
        <time>2017-01-13T22:28:31Z</time>
        <name>WPT.3952</name>
      </trkpt>
      <trkpt lat="17.043385310" lon="-96.648515150">
        <ele>1548.000</ele>
        <time>2017-01-13T22:28:32Z</time>
        <name>WPT.3953</name>
      </trkpt>
      <trkpt lat="17.043543620" lon="-96.648766940">
        <ele>1548.000</ele>
        <time>2017-01-13T22:28:33Z</time>
        <name>WPT.3954</name>
      </trkpt>
      <trkpt lat="17.043662710" lon="-96.649018280">
        <ele>1549.000</ele>
        <time>2017-01-13T22:28:34Z</time>
        <name>WPT.3955</name>
      </trkpt>
      <trkpt lat="17.043775770" lon="-96.649264140">
        <ele>1550.000</ele>
        <time>2017-01-13T22:28:35Z</time>
        <name>WPT.3956</name>
      </trkpt>
      <trkpt lat="17.043918500" lon="-96.649530350">
        <ele>1549.000</ele>
        <time>2017-01-13T22:28:36Z</time>
        <name>WPT.3957</name>
      </trkpt>
      <trkpt lat="17.044075520" lon="-96.649739780">
        <ele>1550.000</ele>
        <time>2017-01-13T22:28:37Z</time>
        <name>WPT.3958</name>
      </trkpt>
      <trkpt lat="17.044234190" lon="-96.649954290">
        <ele>1550.000</ele>
        <time>2017-01-13T22:28:38Z</time>
        <name>WPT.3959</name>
      </trkpt>
      <trkpt lat="17.044366430" lon="-96.650157570">
        <ele>1550.000</ele>
        <time>2017-01-13T22:28:39Z</time>
        <name>WPT.3960</name>
      </trkpt>
      <trkpt lat="17.044521300" lon="-96.650360620">
        <ele>1550.000</ele>
        <time>2017-01-13T22:28:40Z</time>
        <name>WPT.3961</name>
      </trkpt>
      <trkpt lat="17.044691130" lon="-96.650559560">
        <ele>1549.000</ele>
        <time>2017-01-13T22:28:41Z</time>
        <name>WPT.3962</name>
      </trkpt>
      <trkpt lat="17.044854990" lon="-96.650753830">
        <ele>1550.000</ele>
        <time>2017-01-13T22:28:42Z</time>
        <name>WPT.3963</name>
      </trkpt>
      <trkpt lat="17.045020570" lon="-96.650932680">
        <ele>1549.000</ele>
        <time>2017-01-13T22:28:43Z</time>
        <name>WPT.3964</name>
      </trkpt>
      <trkpt lat="17.045187240" lon="-96.651128690">
        <ele>1550.000</ele>
        <time>2017-01-13T22:28:44Z</time>
        <name>WPT.3965</name>
      </trkpt>
      <trkpt lat="17.045875860" lon="-96.651865010">
        <ele>1551.000</ele>
        <time>2017-01-13T22:28:48Z</time>
        <name>WPT.3966</name>
      </trkpt>
      <trkpt lat="17.046075610" lon="-96.652057220">
        <ele>1551.000</ele>
        <time>2017-01-13T22:28:49Z</time>
        <name>WPT.3967</name>
      </trkpt>
      <trkpt lat="17.046256960" lon="-96.652242070">
        <ele>1552.000</ele>
        <time>2017-01-13T22:28:50Z</time>
        <name>WPT.3968</name>
      </trkpt>
      <trkpt lat="17.046445390" lon="-96.652421240">
        <ele>1552.000</ele>
        <time>2017-01-13T22:28:51Z</time>
        <name>WPT.3969</name>
      </trkpt>
      <trkpt lat="17.046631080" lon="-96.652611480">
        <ele>1551.000</ele>
        <time>2017-01-13T22:28:52Z</time>
        <name>WPT.3970</name>
      </trkpt>
      <trkpt lat="17.046816010" lon="-96.652795190">
        <ele>1552.000</ele>
        <time>2017-01-13T22:28:53Z</time>
        <name>WPT.3971</name>
      </trkpt>
      <trkpt lat="17.046998880" lon="-96.652972490">
        <ele>1551.000</ele>
        <time>2017-01-13T22:28:54Z</time>
        <name>WPT.3972</name>
      </trkpt>
      <trkpt lat="17.047189450" lon="-96.653144150">
        <ele>1552.000</ele>
        <time>2017-01-13T22:28:55Z</time>
        <name>WPT.3973</name>
      </trkpt>
      <trkpt lat="17.047351240" lon="-96.653308840">
        <ele>1552.000</ele>
        <time>2017-01-13T22:28:56Z</time>
        <name>WPT.3974</name>
      </trkpt>
      <trkpt lat="17.047543000" lon="-96.653496360">
        <ele>1553.000</ele>
        <time>2017-01-13T22:28:57Z</time>
        <name>WPT.3975</name>
      </trkpt>
      <trkpt lat="17.047731810" lon="-96.653676590">
        <ele>1552.000</ele>
        <time>2017-01-13T22:28:58Z</time>
        <name>WPT.3976</name>
      </trkpt>
      <trkpt lat="17.047906170" lon="-96.653863490">
        <ele>1552.000</ele>
        <time>2017-01-13T22:28:59Z</time>
        <name>WPT.3977</name>
      </trkpt>
      <trkpt lat="17.048094070" lon="-96.654043570">
        <ele>1551.000</ele>
        <time>2017-01-13T22:29:00Z</time>
        <name>WPT.3978</name>
      </trkpt>
      <trkpt lat="17.048278370" lon="-96.654225760">
        <ele>1550.000</ele>
        <time>2017-01-13T22:29:01Z</time>
        <name>WPT.3979</name>
      </trkpt>
      <trkpt lat="17.048441970" lon="-96.654402360">
        <ele>1549.000</ele>
        <time>2017-01-13T22:29:02Z</time>
        <name>WPT.3980</name>
      </trkpt>
      <trkpt lat="17.048619550" lon="-96.654579460">
        <ele>1548.000</ele>
        <time>2017-01-13T22:29:03Z</time>
        <name>WPT.3981</name>
      </trkpt>
      <trkpt lat="17.048777980" lon="-96.654737960">
        <ele>1547.000</ele>
        <time>2017-01-13T22:29:04Z</time>
        <name>WPT.3982</name>
      </trkpt>
      <trkpt lat="17.048979520" lon="-96.654933990">
        <ele>1547.000</ele>
        <time>2017-01-13T22:29:05Z</time>
        <name>WPT.3983</name>
      </trkpt>
      <trkpt lat="17.049161710" lon="-96.655119830">
        <ele>1547.000</ele>
        <time>2017-01-13T22:29:06Z</time>
        <name>WPT.3984</name>
      </trkpt>
      <trkpt lat="17.049335820" lon="-96.655293670">
        <ele>1546.000</ele>
        <time>2017-01-13T22:29:07Z</time>
        <name>WPT.3985</name>
      </trkpt>
      <trkpt lat="17.049506320" lon="-96.655473480">
        <ele>1544.000</ele>
        <time>2017-01-13T22:29:08Z</time>
        <name>WPT.3986</name>
      </trkpt>
      <trkpt lat="17.049689200" lon="-96.655649790">
        <ele>1545.000</ele>
        <time>2017-01-13T22:29:09Z</time>
        <name>WPT.3987</name>
      </trkpt>
      <trkpt lat="17.049869590" lon="-96.655826980">
        <ele>1544.000</ele>
        <time>2017-01-13T22:29:10Z</time>
        <name>WPT.3988</name>
      </trkpt>
      <trkpt lat="17.050052690" lon="-96.655998550">
        <ele>1543.000</ele>
        <time>2017-01-13T22:29:11Z</time>
        <name>WPT.3989</name>
      </trkpt>
      <trkpt lat="17.050214890" lon="-96.656154590">
        <ele>1544.000</ele>
        <time>2017-01-13T22:29:12Z</time>
        <name>WPT.3990</name>
      </trkpt>
      <trkpt lat="17.050385360" lon="-96.656313600">
        <ele>1543.000</ele>
        <time>2017-01-13T22:29:13Z</time>
        <name>WPT.3991</name>
      </trkpt>
      <trkpt lat="17.050576050" lon="-96.656475940">
        <ele>1545.000</ele>
        <time>2017-01-13T22:29:14Z</time>
        <name>WPT.3992</name>
      </trkpt>
      <trkpt lat="17.050761470" lon="-96.656645600">
        <ele>1543.000</ele>
        <time>2017-01-13T22:29:15Z</time>
        <name>WPT.3993</name>
      </trkpt>
      <trkpt lat="17.050950680" lon="-96.656806210">
        <ele>1542.000</ele>
        <time>2017-01-13T22:29:16Z</time>
        <name>WPT.3994</name>
      </trkpt>
      <trkpt lat="17.051146630" lon="-96.656972040">
        <ele>1541.000</ele>
        <time>2017-01-13T22:29:17Z</time>
        <name>WPT.3995</name>
      </trkpt>
      <trkpt lat="17.051344840" lon="-96.657118960">
        <ele>1542.000</ele>
        <time>2017-01-13T22:29:18Z</time>
        <name>WPT.3996</name>
      </trkpt>
      <trkpt lat="17.051539400" lon="-96.657283190">
        <ele>1542.000</ele>
        <time>2017-01-13T22:29:19Z</time>
        <name>WPT.3997</name>
      </trkpt>
      <trkpt lat="17.052140790" lon="-96.657702330">
        <ele>1541.000</ele>
        <time>2017-01-13T22:29:22Z</time>
        <name>WPT.3998</name>
      </trkpt>
      <trkpt lat="17.052362820" lon="-96.657845210">
        <ele>1542.000</ele>
        <time>2017-01-13T22:29:23Z</time>
        <name>WPT.3999</name>
      </trkpt>
      <trkpt lat="17.052585850" lon="-96.658000100">
        <ele>1541.000</ele>
        <time>2017-01-13T22:29:24Z</time>
        <name>WPT.4000</name>
      </trkpt>
      <trkpt lat="17.052798520" lon="-96.658166540">
        <ele>1541.000</ele>
        <time>2017-01-13T22:29:25Z</time>
        <name>WPT.4001</name>
      </trkpt>
      <trkpt lat="17.053013620" lon="-96.658316510">
        <ele>1542.000</ele>
        <time>2017-01-13T22:29:26Z</time>
        <name>WPT.4002</name>
      </trkpt>
      <trkpt lat="17.053211560" lon="-96.658473640">
        <ele>1541.000</ele>
        <time>2017-01-13T22:29:27Z</time>
        <name>WPT.4003</name>
      </trkpt>
      <trkpt lat="17.053438200" lon="-96.658604300">
        <ele>1542.000</ele>
        <time>2017-01-13T22:29:28Z</time>
        <name>WPT.4004</name>
      </trkpt>
      <trkpt lat="17.053694810" lon="-96.658759870">
        <ele>1542.000</ele>
        <time>2017-01-13T22:29:29Z</time>
        <name>WPT.4005</name>
      </trkpt>
      <trkpt lat="17.053891420" lon="-96.658901230">
        <ele>1543.000</ele>
        <time>2017-01-13T22:29:30Z</time>
        <name>WPT.4006</name>
      </trkpt>
      <trkpt lat="17.054055030" lon="-96.659054770">
        <ele>1543.000</ele>
        <time>2017-01-13T22:29:31Z</time>
        <name>WPT.4007</name>
      </trkpt>
      <trkpt lat="17.054288010" lon="-96.659212610">
        <ele>1541.000</ele>
        <time>2017-01-13T22:29:32Z</time>
        <name>WPT.4008</name>
      </trkpt>
      <trkpt lat="17.054515920" lon="-96.659353200">
        <ele>1540.000</ele>
        <time>2017-01-13T22:29:33Z</time>
        <name>WPT.4009</name>
      </trkpt>
      <trkpt lat="17.054740480" lon="-96.659472160">
        <ele>1542.000</ele>
        <time>2017-01-13T22:29:34Z</time>
        <name>WPT.4010</name>
      </trkpt>
      <trkpt lat="17.054932690" lon="-96.659605030">
        <ele>1542.000</ele>
        <time>2017-01-13T22:29:35Z</time>
        <name>WPT.4011</name>
      </trkpt>
      <trkpt lat="17.055120570" lon="-96.659718890">
        <ele>1543.000</ele>
        <time>2017-01-13T22:29:36Z</time>
        <name>WPT.4012</name>
      </trkpt>
      <trkpt lat="17.055300540" lon="-96.659825090">
        <ele>1546.000</ele>
        <time>2017-01-13T22:29:37Z</time>
        <name>WPT.4013</name>
      </trkpt>
      <trkpt lat="17.055505190" lon="-96.659950120">
        <ele>1545.000</ele>
        <time>2017-01-13T22:29:38Z</time>
        <name>WPT.4014</name>
      </trkpt>
      <trkpt lat="17.055693940" lon="-96.660056970">
        <ele>1546.000</ele>
        <time>2017-01-13T22:29:39Z</time>
        <name>WPT.4015</name>
      </trkpt>
      <trkpt lat="17.055890780" lon="-96.660169030">
        <ele>1546.000</ele>
        <time>2017-01-13T22:29:40Z</time>
        <name>WPT.4016</name>
      </trkpt>
      <trkpt lat="17.056069690" lon="-96.660261130">
        <ele>1549.000</ele>
        <time>2017-01-13T22:29:41Z</time>
        <name>WPT.4017</name>
      </trkpt>
      <trkpt lat="17.056263670" lon="-96.660353740">
        <ele>1549.000</ele>
        <time>2017-01-13T22:29:42Z</time>
        <name>WPT.4018</name>
      </trkpt>
      <trkpt lat="17.056449300" lon="-96.660435340">
        <ele>1549.000</ele>
        <time>2017-01-13T22:29:43Z</time>
        <name>WPT.4019</name>
      </trkpt>
      <trkpt lat="17.056638700" lon="-96.660509230">
        <ele>1550.000</ele>
        <time>2017-01-13T22:29:44Z</time>
        <name>WPT.4020</name>
      </trkpt>
      <trkpt lat="17.056834760" lon="-96.660598730">
        <ele>1550.000</ele>
        <time>2017-01-13T22:29:45Z</time>
        <name>WPT.4021</name>
      </trkpt>
      <trkpt lat="17.057029170" lon="-96.660698070">
        <ele>1550.000</ele>
        <time>2017-01-13T22:29:46Z</time>
        <name>WPT.4022</name>
      </trkpt>
      <trkpt lat="17.057221710" lon="-96.660762840">
        <ele>1551.000</ele>
        <time>2017-01-13T22:29:47Z</time>
        <name>WPT.4023</name>
      </trkpt>
      <trkpt lat="17.057421750" lon="-96.660838630">
        <ele>1552.000</ele>
        <time>2017-01-13T22:29:48Z</time>
        <name>WPT.4024</name>
      </trkpt>
      <trkpt lat="17.057627640" lon="-96.660929000">
        <ele>1553.000</ele>
        <time>2017-01-13T22:29:49Z</time>
        <name>WPT.4025</name>
      </trkpt>
      <trkpt lat="17.057820820" lon="-96.660996060">
        <ele>1553.000</ele>
        <time>2017-01-13T22:29:50Z</time>
        <name>WPT.4026</name>
      </trkpt>
      <trkpt lat="17.058006370" lon="-96.661067710">
        <ele>1553.000</ele>
        <time>2017-01-13T22:29:51Z</time>
        <name>WPT.4027</name>
      </trkpt>
      <trkpt lat="17.058188590" lon="-96.661156730">
        <ele>1552.000</ele>
        <time>2017-01-13T22:29:52Z</time>
        <name>WPT.4028</name>
      </trkpt>
      <trkpt lat="17.058364830" lon="-96.661214300">
        <ele>1551.000</ele>
        <time>2017-01-13T22:29:53Z</time>
        <name>WPT.4029</name>
      </trkpt>
      <trkpt lat="17.058530030" lon="-96.661284660">
        <ele>1551.000</ele>
        <time>2017-01-13T22:29:54Z</time>
        <name>WPT.4030</name>
      </trkpt>
      <trkpt lat="17.058703900" lon="-96.661353350">
        <ele>1553.000</ele>
        <time>2017-01-13T22:29:55Z</time>
        <name>WPT.4031</name>
      </trkpt>
      <trkpt lat="17.058866590" lon="-96.661410750">
        <ele>1553.000</ele>
        <time>2017-01-13T22:29:56Z</time>
        <name>WPT.4032</name>
      </trkpt>
      <trkpt lat="17.059011520" lon="-96.661483780">
        <ele>1552.000</ele>
        <time>2017-01-13T22:29:57Z</time>
        <name>WPT.4033</name>
      </trkpt>
      <trkpt lat="17.059176490" lon="-96.661557180">
        <ele>1553.000</ele>
        <time>2017-01-13T22:29:58Z</time>
        <name>WPT.4034</name>
      </trkpt>
      <trkpt lat="17.059337630" lon="-96.661628100">
        <ele>1552.000</ele>
        <time>2017-01-13T22:29:59Z</time>
        <name>WPT.4035</name>
      </trkpt>
      <trkpt lat="17.059484770" lon="-96.661704820">
        <ele>1551.000</ele>
        <time>2017-01-13T22:30:00Z</time>
        <name>WPT.4036</name>
      </trkpt>
      <trkpt lat="17.059650700" lon="-96.661822500">
        <ele>1550.000</ele>
        <time>2017-01-13T22:30:01Z</time>
        <name>WPT.4037</name>
      </trkpt>
      <trkpt lat="17.059786770" lon="-96.661913740">
        <ele>1550.000</ele>
        <time>2017-01-13T22:30:02Z</time>
        <name>WPT.4038</name>
      </trkpt>
      <trkpt lat="17.059903880" lon="-96.662048390">
        <ele>1549.000</ele>
        <time>2017-01-13T22:30:03Z</time>
        <name>WPT.4039</name>
      </trkpt>
      <trkpt lat="17.060036890" lon="-96.662175060">
        <ele>1550.000</ele>
        <time>2017-01-13T22:30:04Z</time>
        <name>WPT.4040</name>
      </trkpt>
      <trkpt lat="17.060145890" lon="-96.662328070">
        <ele>1551.000</ele>
        <time>2017-01-13T22:30:05Z</time>
        <name>WPT.4041</name>
      </trkpt>
      <trkpt lat="17.060237640" lon="-96.662512990">
        <ele>1551.000</ele>
        <time>2017-01-13T22:30:06Z</time>
        <name>WPT.4042</name>
      </trkpt>
      <trkpt lat="17.060334100" lon="-96.662710630">
        <ele>1551.000</ele>
        <time>2017-01-13T22:30:07Z</time>
        <name>WPT.4043</name>
      </trkpt>
      <trkpt lat="17.060397160" lon="-96.662890370">
        <ele>1550.000</ele>
        <time>2017-01-13T22:30:08Z</time>
        <name>WPT.4044</name>
      </trkpt>
      <trkpt lat="17.060474950" lon="-96.663091610">
        <ele>1550.000</ele>
        <time>2017-01-13T22:30:09Z</time>
        <name>WPT.4045</name>
      </trkpt>
      <trkpt lat="17.060552440" lon="-96.663279430">
        <ele>1551.000</ele>
        <time>2017-01-13T22:30:10Z</time>
        <name>WPT.4046</name>
      </trkpt>
      <trkpt lat="17.060599490" lon="-96.663486570">
        <ele>1551.000</ele>
        <time>2017-01-13T22:30:11Z</time>
        <name>WPT.4047</name>
      </trkpt>
      <trkpt lat="17.060652800" lon="-96.663691610">
        <ele>1550.000</ele>
        <time>2017-01-13T22:30:12Z</time>
        <name>WPT.4048</name>
      </trkpt>
      <trkpt lat="17.060719870" lon="-96.663895240">
        <ele>1551.000</ele>
        <time>2017-01-13T22:30:13Z</time>
        <name>WPT.4049</name>
      </trkpt>
      <trkpt lat="17.060787160" lon="-96.664070200">
        <ele>1553.000</ele>
        <time>2017-01-13T22:30:14Z</time>
        <name>WPT.4050</name>
      </trkpt>
      <trkpt lat="17.060856390" lon="-96.664259390">
        <ele>1552.000</ele>
        <time>2017-01-13T22:30:15Z</time>
        <name>WPT.4051</name>
      </trkpt>
      <trkpt lat="17.060926950" lon="-96.664449630">
        <ele>1551.000</ele>
        <time>2017-01-13T22:30:16Z</time>
        <name>WPT.4052</name>
      </trkpt>
      <trkpt lat="17.061013990" lon="-96.664637630">
        <ele>1549.000</ele>
        <time>2017-01-13T22:30:17Z</time>
        <name>WPT.4053</name>
      </trkpt>
      <trkpt lat="17.061069650" lon="-96.664822350">
        <ele>1549.000</ele>
        <time>2017-01-13T22:30:18Z</time>
        <name>WPT.4054</name>
      </trkpt>
      <trkpt lat="17.061114610" lon="-96.665006310">
        <ele>1549.000</ele>
        <time>2017-01-13T22:30:19Z</time>
        <name>WPT.4055</name>
      </trkpt>
      <trkpt lat="17.061167310" lon="-96.665178890">
        <ele>1548.000</ele>
        <time>2017-01-13T22:30:20Z</time>
        <name>WPT.4056</name>
      </trkpt>
      <trkpt lat="17.061221090" lon="-96.665319820">
        <ele>1550.000</ele>
        <time>2017-01-13T22:30:21Z</time>
        <name>WPT.4057</name>
      </trkpt>
      <trkpt lat="17.061260370" lon="-96.665457940">
        <ele>1549.000</ele>
        <time>2017-01-13T22:30:22Z</time>
        <name>WPT.4058</name>
      </trkpt>
      <trkpt lat="17.061309450" lon="-96.665579750">
        <ele>1549.000</ele>
        <time>2017-01-13T22:30:23Z</time>
        <name>WPT.4059</name>
      </trkpt>
      <trkpt lat="17.061351390" lon="-96.665687040">
        <ele>1549.000</ele>
        <time>2017-01-13T22:30:24Z</time>
        <name>WPT.4060</name>
      </trkpt>
      <trkpt lat="17.061396950" lon="-96.665810200">
        <ele>1550.000</ele>
        <time>2017-01-13T22:30:25Z</time>
        <name>WPT.4061</name>
      </trkpt>
      <trkpt lat="17.061415180" lon="-96.665903410">
        <ele>1549.000</ele>
        <time>2017-01-13T22:30:26Z</time>
        <name>WPT.4062</name>
      </trkpt>
      <trkpt lat="17.061433510" lon="-96.665988000">
        <ele>1551.000</ele>
        <time>2017-01-13T22:30:27Z</time>
        <name>WPT.4063</name>
      </trkpt>
      <trkpt lat="17.061445350" lon="-96.666062690">
        <ele>1551.000</ele>
        <time>2017-01-13T22:30:28Z</time>
        <name>WPT.4064</name>
      </trkpt>
      <trkpt lat="17.061456820" lon="-96.666116800">
        <ele>1551.000</ele>
        <time>2017-01-13T22:30:29Z</time>
        <name>WPT.4065</name>
      </trkpt>
      <trkpt lat="17.061458020" lon="-96.666166430">
        <ele>1551.000</ele>
        <time>2017-01-13T22:30:30Z</time>
        <name>WPT.4066</name>
      </trkpt>
      <trkpt lat="17.061483140" lon="-96.666202990">
        <ele>1550.000</ele>
        <time>2017-01-13T22:30:31Z</time>
        <name>WPT.4067</name>
      </trkpt>
      <trkpt lat="17.061522860" lon="-96.666307430">
        <ele>1552.000</ele>
        <time>2017-01-13T22:30:45Z</time>
        <name>WPT.4068</name>
      </trkpt>
      <trkpt lat="17.061560520" lon="-96.666405220">
        <ele>1551.000</ele>
        <time>2017-01-13T22:30:46Z</time>
        <name>WPT.4069</name>
      </trkpt>
      <trkpt lat="17.061580530" lon="-96.666477310">
        <ele>1551.000</ele>
        <time>2017-01-13T22:30:47Z</time>
        <name>WPT.4070</name>
      </trkpt>
      <trkpt lat="17.061589320" lon="-96.666551100">
        <ele>1552.000</ele>
        <time>2017-01-13T22:30:48Z</time>
        <name>WPT.4071</name>
      </trkpt>
      <trkpt lat="17.061617890" lon="-96.666624420">
        <ele>1551.000</ele>
        <time>2017-01-13T22:30:49Z</time>
        <name>WPT.4072</name>
      </trkpt>
      <trkpt lat="17.061632210" lon="-96.666697870">
        <ele>1550.000</ele>
        <time>2017-01-13T22:30:50Z</time>
        <name>WPT.4073</name>
      </trkpt>
      <trkpt lat="17.061643990" lon="-96.666751220">
        <ele>1548.000</ele>
        <time>2017-01-13T22:30:51Z</time>
        <name>WPT.4074</name>
      </trkpt>
      <trkpt lat="17.061657510" lon="-96.666793190">
        <ele>1548.000</ele>
        <time>2017-01-13T22:30:52Z</time>
        <name>WPT.4075</name>
      </trkpt>
      <trkpt lat="17.061658440" lon="-96.666834450">
        <ele>1548.000</ele>
        <time>2017-01-13T22:30:53Z</time>
        <name>WPT.4076</name>
      </trkpt>
      <trkpt lat="17.061666190" lon="-96.666888370">
        <ele>1549.000</ele>
        <time>2017-01-13T22:30:54Z</time>
        <name>WPT.4077</name>
      </trkpt>
      <trkpt lat="17.061676780" lon="-96.666942490">
        <ele>1549.000</ele>
        <time>2017-01-13T22:30:55Z</time>
        <name>WPT.4078</name>
      </trkpt>
      <trkpt lat="17.061694590" lon="-96.666992940">
        <ele>1549.000</ele>
        <time>2017-01-13T22:30:56Z</time>
        <name>WPT.4079</name>
      </trkpt>
      <trkpt lat="17.061708760" lon="-96.667069690">
        <ele>1550.000</ele>
        <time>2017-01-13T22:30:57Z</time>
        <name>WPT.4080</name>
      </trkpt>
      <trkpt lat="17.061723660" lon="-96.667152270">
        <ele>1551.000</ele>
        <time>2017-01-13T22:30:58Z</time>
        <name>WPT.4081</name>
      </trkpt>
      <trkpt lat="17.061745670" lon="-96.667248980">
        <ele>1549.000</ele>
        <time>2017-01-13T22:30:59Z</time>
        <name>WPT.4082</name>
      </trkpt>
      <trkpt lat="17.061778020" lon="-96.667346800">
        <ele>1549.000</ele>
        <time>2017-01-13T22:31:00Z</time>
        <name>WPT.4083</name>
      </trkpt>
      <trkpt lat="17.061812180" lon="-96.667456440">
        <ele>1550.000</ele>
        <time>2017-01-13T22:31:01Z</time>
        <name>WPT.4084</name>
      </trkpt>
      <trkpt lat="17.061849250" lon="-96.667568660">
        <ele>1550.000</ele>
        <time>2017-01-13T22:31:02Z</time>
        <name>WPT.4085</name>
      </trkpt>
      <trkpt lat="17.061875590" lon="-96.667696340">
        <ele>1550.000</ele>
        <time>2017-01-13T22:31:03Z</time>
        <name>WPT.4086</name>
      </trkpt>
      <trkpt lat="17.061919220" lon="-96.667815860">
        <ele>1550.000</ele>
        <time>2017-01-13T22:31:04Z</time>
        <name>WPT.4087</name>
      </trkpt>
      <trkpt lat="17.061958480" lon="-96.667950760">
        <ele>1550.000</ele>
        <time>2017-01-13T22:31:05Z</time>
        <name>WPT.4088</name>
      </trkpt>
      <trkpt lat="17.062001610" lon="-96.668087640">
        <ele>1550.000</ele>
        <time>2017-01-13T22:31:06Z</time>
        <name>WPT.4089</name>
      </trkpt>
      <trkpt lat="17.062045760" lon="-96.668225480">
        <ele>1550.000</ele>
        <time>2017-01-13T22:31:07Z</time>
        <name>WPT.4090</name>
      </trkpt>
      <trkpt lat="17.062084030" lon="-96.668374420">
        <ele>1551.000</ele>
        <time>2017-01-13T22:31:08Z</time>
        <name>WPT.4091</name>
      </trkpt>
      <trkpt lat="17.062131640" lon="-96.668520390">
        <ele>1550.000</ele>
        <time>2017-01-13T22:31:09Z</time>
        <name>WPT.4092</name>
      </trkpt>
      <trkpt lat="17.062183200" lon="-96.668661540">
        <ele>1550.000</ele>
        <time>2017-01-13T22:31:10Z</time>
        <name>WPT.4093</name>
      </trkpt>
      <trkpt lat="17.062225950" lon="-96.668806640">
        <ele>1550.000</ele>
        <time>2017-01-13T22:31:11Z</time>
        <name>WPT.4094</name>
      </trkpt>
      <trkpt lat="17.062263780" lon="-96.668943120">
        <ele>1550.000</ele>
        <time>2017-01-13T22:31:12Z</time>
        <name>WPT.4095</name>
      </trkpt>
      <trkpt lat="17.062298480" lon="-96.669087230">
        <ele>1550.000</ele>
        <time>2017-01-13T22:31:13Z</time>
        <name>WPT.4096</name>
      </trkpt>
      <trkpt lat="17.062332690" lon="-96.669212130">
        <ele>1551.000</ele>
        <time>2017-01-13T22:31:14Z</time>
        <name>WPT.4097</name>
      </trkpt>
      <trkpt lat="17.062365460" lon="-96.669329910">
        <ele>1551.000</ele>
        <time>2017-01-13T22:31:15Z</time>
        <name>WPT.4098</name>
      </trkpt>
      <trkpt lat="17.062399540" lon="-96.669443670">
        <ele>1550.000</ele>
        <time>2017-01-13T22:31:16Z</time>
        <name>WPT.4099</name>
      </trkpt>
      <trkpt lat="17.062433540" lon="-96.669554750">
        <ele>1549.000</ele>
        <time>2017-01-13T22:31:17Z</time>
        <name>WPT.4100</name>
      </trkpt>
      <trkpt lat="17.062458030" lon="-96.669648520">
        <ele>1549.000</ele>
        <time>2017-01-13T22:31:18Z</time>
        <name>WPT.4101</name>
      </trkpt>
      <trkpt lat="17.062486000" lon="-96.669729520">
        <ele>1550.000</ele>
        <time>2017-01-13T22:31:19Z</time>
        <name>WPT.4102</name>
      </trkpt>
      <trkpt lat="17.062509000" lon="-96.669790150">
        <ele>1550.000</ele>
        <time>2017-01-13T22:31:20Z</time>
        <name>WPT.4103</name>
      </trkpt>
      <trkpt lat="17.062519960" lon="-96.669841160">
        <ele>1550.000</ele>
        <time>2017-01-13T22:31:21Z</time>
        <name>WPT.4104</name>
      </trkpt>
      <trkpt lat="17.062526500" lon="-96.669890590">
        <ele>1551.000</ele>
        <time>2017-01-13T22:31:22Z</time>
        <name>WPT.4105</name>
      </trkpt>
      <trkpt lat="17.062539030" lon="-96.669939140">
        <ele>1551.000</ele>
        <time>2017-01-13T22:31:23Z</time>
        <name>WPT.4106</name>
      </trkpt>
      <trkpt lat="17.062557270" lon="-96.669993590">
        <ele>1552.000</ele>
        <time>2017-01-13T22:31:24Z</time>
        <name>WPT.4107</name>
      </trkpt>
      <trkpt lat="17.062575370" lon="-96.670051240">
        <ele>1552.000</ele>
        <time>2017-01-13T22:31:25Z</time>
        <name>WPT.4108</name>
      </trkpt>
      <trkpt lat="17.062582460" lon="-96.670111280">
        <ele>1553.000</ele>
        <time>2017-01-13T22:31:26Z</time>
        <name>WPT.4109</name>
      </trkpt>
      <trkpt lat="17.062609450" lon="-96.670174720">
        <ele>1551.000</ele>
        <time>2017-01-13T22:31:27Z</time>
        <name>WPT.4110</name>
      </trkpt>
      <trkpt lat="17.062626410" lon="-96.670231800">
        <ele>1551.000</ele>
        <time>2017-01-13T22:31:28Z</time>
        <name>WPT.4111</name>
      </trkpt>
      <trkpt lat="17.062644070" lon="-96.670292310">
        <ele>1552.000</ele>
        <time>2017-01-13T22:31:29Z</time>
        <name>WPT.4112</name>
      </trkpt>
      <trkpt lat="17.062658720" lon="-96.670348670">
        <ele>1552.000</ele>
        <time>2017-01-13T22:31:30Z</time>
        <name>WPT.4113</name>
      </trkpt>
      <trkpt lat="17.062671380" lon="-96.670396350">
        <ele>1553.000</ele>
        <time>2017-01-13T22:31:31Z</time>
        <name>WPT.4114</name>
      </trkpt>
      <trkpt lat="17.062691270" lon="-96.670445180">
        <ele>1553.000</ele>
        <time>2017-01-13T22:31:32Z</time>
        <name>WPT.4115</name>
      </trkpt>
      <trkpt lat="17.062700000" lon="-96.670489280">
        <ele>1554.000</ele>
        <time>2017-01-13T22:31:33Z</time>
        <name>WPT.4116</name>
      </trkpt>
      <trkpt lat="17.062704370" lon="-96.670543740">
        <ele>1554.000</ele>
        <time>2017-01-13T22:31:35Z</time>
        <name>WPT.4117</name>
      </trkpt>
      <trkpt lat="17.062721450" lon="-96.670599050">
        <ele>1553.000</ele>
        <time>2017-01-13T22:31:58Z</time>
        <name>WPT.4118</name>
      </trkpt>
      <trkpt lat="17.062734090" lon="-96.670637680">
        <ele>1552.000</ele>
        <time>2017-01-13T22:31:59Z</time>
        <name>WPT.4119</name>
      </trkpt>
      <trkpt lat="17.062741380" lon="-96.670689540">
        <ele>1553.000</ele>
        <time>2017-01-13T22:32:00Z</time>
        <name>WPT.4120</name>
      </trkpt>
      <trkpt lat="17.062761450" lon="-96.670737130">
        <ele>1553.000</ele>
        <time>2017-01-13T22:32:01Z</time>
        <name>WPT.4121</name>
      </trkpt>
      <trkpt lat="17.062781610" lon="-96.670789190">
        <ele>1553.000</ele>
        <time>2017-01-13T22:32:02Z</time>
        <name>WPT.4122</name>
      </trkpt>
      <trkpt lat="17.062798530" lon="-96.670864930">
        <ele>1553.000</ele>
        <time>2017-01-13T22:32:03Z</time>
        <name>WPT.4123</name>
      </trkpt>
      <trkpt lat="17.062820650" lon="-96.670945180">
        <ele>1553.000</ele>
        <time>2017-01-13T22:32:04Z</time>
        <name>WPT.4124</name>
      </trkpt>
      <trkpt lat="17.062855160" lon="-96.671025410">
        <ele>1552.000</ele>
        <time>2017-01-13T22:32:05Z</time>
        <name>WPT.4125</name>
      </trkpt>
      <trkpt lat="17.062891370" lon="-96.671112590">
        <ele>1551.000</ele>
        <time>2017-01-13T22:32:06Z</time>
        <name>WPT.4126</name>
      </trkpt>
      <trkpt lat="17.062920780" lon="-96.671215790">
        <ele>1551.000</ele>
        <time>2017-01-13T22:32:07Z</time>
        <name>WPT.4127</name>
      </trkpt>
      <trkpt lat="17.062953590" lon="-96.671305360">
        <ele>1552.000</ele>
        <time>2017-01-13T22:32:08Z</time>
        <name>WPT.4128</name>
      </trkpt>
      <trkpt lat="17.062992450" lon="-96.671413800">
        <ele>1552.000</ele>
        <time>2017-01-13T22:32:09Z</time>
        <name>WPT.4129</name>
      </trkpt>
      <trkpt lat="17.063031530" lon="-96.671514800">
        <ele>1552.000</ele>
        <time>2017-01-13T22:32:10Z</time>
        <name>WPT.4130</name>
      </trkpt>
      <trkpt lat="17.063065260" lon="-96.671627240">
        <ele>1553.000</ele>
        <time>2017-01-13T22:32:11Z</time>
        <name>WPT.4131</name>
      </trkpt>
      <trkpt lat="17.063097950" lon="-96.671741250">
        <ele>1552.000</ele>
        <time>2017-01-13T22:32:12Z</time>
        <name>WPT.4132</name>
      </trkpt>
      <trkpt lat="17.063125760" lon="-96.671858010">
        <ele>1552.000</ele>
        <time>2017-01-13T22:32:13Z</time>
        <name>WPT.4133</name>
      </trkpt>
      <trkpt lat="17.063155930" lon="-96.671968180">
        <ele>1552.000</ele>
        <time>2017-01-13T22:32:14Z</time>
        <name>WPT.4134</name>
      </trkpt>
      <trkpt lat="17.063191790" lon="-96.672078170">
        <ele>1551.000</ele>
        <time>2017-01-13T22:32:15Z</time>
        <name>WPT.4135</name>
      </trkpt>
      <trkpt lat="17.063221220" lon="-96.672175330">
        <ele>1551.000</ele>
        <time>2017-01-13T22:32:16Z</time>
        <name>WPT.4136</name>
      </trkpt>
      <trkpt lat="17.063258980" lon="-96.672290650">
        <ele>1550.000</ele>
        <time>2017-01-13T22:32:17Z</time>
        <name>WPT.4137</name>
      </trkpt>
      <trkpt lat="17.063293450" lon="-96.672405480">
        <ele>1550.000</ele>
        <time>2017-01-13T22:32:18Z</time>
        <name>WPT.4138</name>
      </trkpt>
      <trkpt lat="17.063328810" lon="-96.672508430">
        <ele>1549.000</ele>
        <time>2017-01-13T22:32:19Z</time>
        <name>WPT.4139</name>
      </trkpt>
      <trkpt lat="17.063358970" lon="-96.672611540">
        <ele>1549.000</ele>
        <time>2017-01-13T22:32:20Z</time>
        <name>WPT.4140</name>
      </trkpt>
      <trkpt lat="17.063390920" lon="-96.672719080">
        <ele>1549.000</ele>
        <time>2017-01-13T22:32:21Z</time>
        <name>WPT.4141</name>
      </trkpt>
      <trkpt lat="17.063421750" lon="-96.672822330">
        <ele>1549.000</ele>
        <time>2017-01-13T22:32:22Z</time>
        <name>WPT.4142</name>
      </trkpt>
      <trkpt lat="17.063454030" lon="-96.672923780">
        <ele>1548.000</ele>
        <time>2017-01-13T22:32:23Z</time>
        <name>WPT.4143</name>
      </trkpt>
      <trkpt lat="17.063477990" lon="-96.673017310">
        <ele>1550.000</ele>
        <time>2017-01-13T22:32:24Z</time>
        <name>WPT.4144</name>
      </trkpt>
      <trkpt lat="17.063512420" lon="-96.673124920">
        <ele>1550.000</ele>
        <time>2017-01-13T22:32:25Z</time>
        <name>WPT.4145</name>
      </trkpt>
      <trkpt lat="17.063537330" lon="-96.673208020">
        <ele>1550.000</ele>
        <time>2017-01-13T22:32:26Z</time>
        <name>WPT.4146</name>
      </trkpt>
      <trkpt lat="17.063580880" lon="-96.673267520">
        <ele>1549.000</ele>
        <time>2017-01-13T22:32:27Z</time>
        <name>WPT.4147</name>
      </trkpt>
      <trkpt lat="17.063603010" lon="-96.673320950">
        <ele>1549.000</ele>
        <time>2017-01-13T22:32:28Z</time>
        <name>WPT.4148</name>
      </trkpt>
      <trkpt lat="17.063623720" lon="-96.673395740">
        <ele>1548.000</ele>
        <time>2017-01-13T22:32:29Z</time>
        <name>WPT.4149</name>
      </trkpt>
      <trkpt lat="17.063633580" lon="-96.673458590">
        <ele>1549.000</ele>
        <time>2017-01-13T22:32:30Z</time>
        <name>WPT.4150</name>
      </trkpt>
      <trkpt lat="17.063639240" lon="-96.673557400">
        <ele>1547.000</ele>
        <time>2017-01-13T22:32:31Z</time>
        <name>WPT.4151</name>
      </trkpt>
      <trkpt lat="17.063670270" lon="-96.673618320">
        <ele>1549.000</ele>
        <time>2017-01-13T22:32:33Z</time>
        <name>WPT.4152</name>
      </trkpt>
      <trkpt lat="17.063668530" lon="-96.673669820">
        <ele>1549.000</ele>
        <time>2017-01-13T22:32:34Z</time>
        <name>WPT.4153</name>
      </trkpt>
      <trkpt lat="17.063680400" lon="-96.673735300">
        <ele>1550.000</ele>
        <time>2017-01-13T22:32:35Z</time>
        <name>WPT.4154</name>
      </trkpt>
      <trkpt lat="17.063705870" lon="-96.673829410">
        <ele>1549.000</ele>
        <time>2017-01-13T22:32:36Z</time>
        <name>WPT.4155</name>
      </trkpt>
      <trkpt lat="17.063733830" lon="-96.673922080">
        <ele>1548.000</ele>
        <time>2017-01-13T22:32:37Z</time>
        <name>WPT.4156</name>
      </trkpt>
      <trkpt lat="17.063766950" lon="-96.674037700">
        <ele>1549.000</ele>
        <time>2017-01-13T22:32:38Z</time>
        <name>WPT.4157</name>
      </trkpt>
      <trkpt lat="17.063803200" lon="-96.674128220">
        <ele>1548.000</ele>
        <time>2017-01-13T22:32:39Z</time>
        <name>WPT.4158</name>
      </trkpt>
      <trkpt lat="17.063843120" lon="-96.674234080">
        <ele>1548.000</ele>
        <time>2017-01-13T22:32:40Z</time>
        <name>WPT.4159</name>
      </trkpt>
      <trkpt lat="17.063877500" lon="-96.674363010">
        <ele>1549.000</ele>
        <time>2017-01-13T22:32:41Z</time>
        <name>WPT.4160</name>
      </trkpt>
      <trkpt lat="17.063917160" lon="-96.674493370">
        <ele>1549.000</ele>
        <time>2017-01-13T22:32:42Z</time>
        <name>WPT.4161</name>
      </trkpt>
      <trkpt lat="17.063952660" lon="-96.674624580">
        <ele>1549.000</ele>
        <time>2017-01-13T22:32:43Z</time>
        <name>WPT.4162</name>
      </trkpt>
      <trkpt lat="17.063990030" lon="-96.674754230">
        <ele>1548.000</ele>
        <time>2017-01-13T22:32:44Z</time>
        <name>WPT.4163</name>
      </trkpt>
      <trkpt lat="17.064029710" lon="-96.674889500">
        <ele>1549.000</ele>
        <time>2017-01-13T22:32:45Z</time>
        <name>WPT.4164</name>
      </trkpt>
      <trkpt lat="17.064068720" lon="-96.675039360">
        <ele>1549.000</ele>
        <time>2017-01-13T22:32:46Z</time>
        <name>WPT.4165</name>
      </trkpt>
      <trkpt lat="17.064107010" lon="-96.675181440">
        <ele>1550.000</ele>
        <time>2017-01-13T22:32:47Z</time>
        <name>WPT.4166</name>
      </trkpt>
      <trkpt lat="17.064149150" lon="-96.675326740">
        <ele>1550.000</ele>
        <time>2017-01-13T22:32:48Z</time>
        <name>WPT.4167</name>
      </trkpt>
      <trkpt lat="17.064204140" lon="-96.675467690">
        <ele>1549.000</ele>
        <time>2017-01-13T22:32:49Z</time>
        <name>WPT.4168</name>
      </trkpt>
      <trkpt lat="17.064249350" lon="-96.675609200">
        <ele>1549.000</ele>
        <time>2017-01-13T22:32:50Z</time>
        <name>WPT.4169</name>
      </trkpt>
      <trkpt lat="17.064294010" lon="-96.675766340">
        <ele>1549.000</ele>
        <time>2017-01-13T22:32:51Z</time>
        <name>WPT.4170</name>
      </trkpt>
      <trkpt lat="17.064335920" lon="-96.675906340">
        <ele>1550.000</ele>
        <time>2017-01-13T22:32:52Z</time>
        <name>WPT.4171</name>
      </trkpt>
      <trkpt lat="17.064378290" lon="-96.676056450">
        <ele>1551.000</ele>
        <time>2017-01-13T22:32:53Z</time>
        <name>WPT.4172</name>
      </trkpt>
      <trkpt lat="17.064424360" lon="-96.676207920">
        <ele>1550.000</ele>
        <time>2017-01-13T22:32:54Z</time>
        <name>WPT.4173</name>
      </trkpt>
      <trkpt lat="17.064471540" lon="-96.676359280">
        <ele>1550.000</ele>
        <time>2017-01-13T22:32:55Z</time>
        <name>WPT.4174</name>
      </trkpt>
      <trkpt lat="17.064526480" lon="-96.676483940">
        <ele>1550.000</ele>
        <time>2017-01-13T22:32:56Z</time>
        <name>WPT.4175</name>
      </trkpt>
      <trkpt lat="17.064565020" lon="-96.676631200">
        <ele>1550.000</ele>
        <time>2017-01-13T22:32:57Z</time>
        <name>WPT.4176</name>
      </trkpt>
      <trkpt lat="17.064608350" lon="-96.676772160">
        <ele>1550.000</ele>
        <time>2017-01-13T22:32:58Z</time>
        <name>WPT.4177</name>
      </trkpt>
      <trkpt lat="17.064645050" lon="-96.676918410">
        <ele>1549.000</ele>
        <time>2017-01-13T22:32:59Z</time>
        <name>WPT.4178</name>
      </trkpt>
      <trkpt lat="17.064695480" lon="-96.677057590">
        <ele>1549.000</ele>
        <time>2017-01-13T22:33:00Z</time>
        <name>WPT.4179</name>
      </trkpt>
      <trkpt lat="17.064729060" lon="-96.677195940">
        <ele>1549.000</ele>
        <time>2017-01-13T22:33:01Z</time>
        <name>WPT.4180</name>
      </trkpt>
      <trkpt lat="17.064772120" lon="-96.677340850">
        <ele>1548.000</ele>
        <time>2017-01-13T22:33:02Z</time>
        <name>WPT.4181</name>
      </trkpt>
      <trkpt lat="17.064815370" lon="-96.677469200">
        <ele>1548.000</ele>
        <time>2017-01-13T22:33:03Z</time>
        <name>WPT.4182</name>
      </trkpt>
      <trkpt lat="17.064844290" lon="-96.677591530">
        <ele>1548.000</ele>
        <time>2017-01-13T22:33:04Z</time>
        <name>WPT.4183</name>
      </trkpt>
      <trkpt lat="17.064881620" lon="-96.677719230">
        <ele>1547.000</ele>
        <time>2017-01-13T22:33:05Z</time>
        <name>WPT.4184</name>
      </trkpt>
      <trkpt lat="17.064918390" lon="-96.677838370">
        <ele>1548.000</ele>
        <time>2017-01-13T22:33:06Z</time>
        <name>WPT.4185</name>
      </trkpt>
      <trkpt lat="17.064944620" lon="-96.677950960">
        <ele>1547.000</ele>
        <time>2017-01-13T22:33:07Z</time>
        <name>WPT.4186</name>
      </trkpt>
      <trkpt lat="17.064987690" lon="-96.678063670">
        <ele>1545.000</ele>
        <time>2017-01-13T22:33:08Z</time>
        <name>WPT.4187</name>
      </trkpt>
      <trkpt lat="17.065015540" lon="-96.678170940">
        <ele>1546.000</ele>
        <time>2017-01-13T22:33:09Z</time>
        <name>WPT.4188</name>
      </trkpt>
      <trkpt lat="17.065036670" lon="-96.678264420">
        <ele>1548.000</ele>
        <time>2017-01-13T22:33:10Z</time>
        <name>WPT.4189</name>
      </trkpt>
      <trkpt lat="17.065065450" lon="-96.678359100">
        <ele>1547.000</ele>
        <time>2017-01-13T22:33:11Z</time>
        <name>WPT.4190</name>
      </trkpt>
      <trkpt lat="17.065091750" lon="-96.678433150">
        <ele>1547.000</ele>
        <time>2017-01-13T22:33:12Z</time>
        <name>WPT.4191</name>
      </trkpt>
      <trkpt lat="17.065104370" lon="-96.678504190">
        <ele>1548.000</ele>
        <time>2017-01-13T22:33:13Z</time>
        <name>WPT.4192</name>
      </trkpt>
      <trkpt lat="17.065114700" lon="-96.678558760">
        <ele>1547.000</ele>
        <time>2017-01-13T22:33:14Z</time>
        <name>WPT.4193</name>
      </trkpt>
      <trkpt lat="17.065120320" lon="-96.678610760">
        <ele>1548.000</ele>
        <time>2017-01-13T22:33:15Z</time>
        <name>WPT.4194</name>
      </trkpt>
      <trkpt lat="17.065126390" lon="-96.678651160">
        <ele>1548.000</ele>
        <time>2017-01-13T22:33:16Z</time>
        <name>WPT.4195</name>
      </trkpt>
      <trkpt lat="17.065148640" lon="-96.678710430">
        <ele>1549.000</ele>
        <time>2017-01-13T22:33:18Z</time>
        <name>WPT.4196</name>
      </trkpt>
      <trkpt lat="17.065122990" lon="-96.678739990">
        <ele>1552.000</ele>
        <time>2017-01-13T22:33:29Z</time>
        <name>WPT.4197</name>
      </trkpt>
      <trkpt lat="17.065109520" lon="-96.678793440">
        <ele>1553.000</ele>
        <time>2017-01-13T22:34:03Z</time>
        <name>WPT.4198</name>
      </trkpt>
      <trkpt lat="17.065118730" lon="-96.678830480">
        <ele>1553.000</ele>
        <time>2017-01-13T22:34:04Z</time>
        <name>WPT.4199</name>
      </trkpt>
      <trkpt lat="17.065145860" lon="-96.678868240">
        <ele>1552.000</ele>
        <time>2017-01-13T22:34:05Z</time>
        <name>WPT.4200</name>
      </trkpt>
      <trkpt lat="17.065150590" lon="-96.678910060">
        <ele>1552.000</ele>
        <time>2017-01-13T22:34:06Z</time>
        <name>WPT.4201</name>
      </trkpt>
      <trkpt lat="17.065177030" lon="-96.678955700">
        <ele>1551.000</ele>
        <time>2017-01-13T22:34:07Z</time>
        <name>WPT.4202</name>
      </trkpt>
      <trkpt lat="17.065196900" lon="-96.679016480">
        <ele>1551.000</ele>
        <time>2017-01-13T22:34:08Z</time>
        <name>WPT.4203</name>
      </trkpt>
      <trkpt lat="17.065222140" lon="-96.679089790">
        <ele>1550.000</ele>
        <time>2017-01-13T22:34:09Z</time>
        <name>WPT.4204</name>
      </trkpt>
      <trkpt lat="17.065241870" lon="-96.679162670">
        <ele>1549.000</ele>
        <time>2017-01-13T22:34:10Z</time>
        <name>WPT.4205</name>
      </trkpt>
      <trkpt lat="17.065281430" lon="-96.679233710">
        <ele>1548.000</ele>
        <time>2017-01-13T22:34:11Z</time>
        <name>WPT.4206</name>
      </trkpt>
      <trkpt lat="17.065307240" lon="-96.679307050">
        <ele>1548.000</ele>
        <time>2017-01-13T22:34:12Z</time>
        <name>WPT.4207</name>
      </trkpt>
      <trkpt lat="17.065338760" lon="-96.679376350">
        <ele>1548.000</ele>
        <time>2017-01-13T22:34:13Z</time>
        <name>WPT.4208</name>
      </trkpt>
      <trkpt lat="17.065363130" lon="-96.679477580">
        <ele>1548.000</ele>
        <time>2017-01-13T22:34:14Z</time>
        <name>WPT.4209</name>
      </trkpt>
      <trkpt lat="17.065400010" lon="-96.679554460">
        <ele>1547.000</ele>
        <time>2017-01-13T22:34:15Z</time>
        <name>WPT.4210</name>
      </trkpt>
      <trkpt lat="17.065425460" lon="-96.679643950">
        <ele>1548.000</ele>
        <time>2017-01-13T22:34:16Z</time>
        <name>WPT.4211</name>
      </trkpt>
      <trkpt lat="17.065450750" lon="-96.679742370">
        <ele>1548.000</ele>
        <time>2017-01-13T22:34:17Z</time>
        <name>WPT.4212</name>
      </trkpt>
      <trkpt lat="17.065474780" lon="-96.679813820">
        <ele>1547.000</ele>
        <time>2017-01-13T22:34:18Z</time>
        <name>WPT.4213</name>
      </trkpt>
      <trkpt lat="17.065504640" lon="-96.679911810">
        <ele>1548.000</ele>
        <time>2017-01-13T22:34:19Z</time>
        <name>WPT.4214</name>
      </trkpt>
      <trkpt lat="17.065538170" lon="-96.680039380">
        <ele>1547.000</ele>
        <time>2017-01-13T22:34:20Z</time>
        <name>WPT.4215</name>
      </trkpt>
      <trkpt lat="17.065576000" lon="-96.680146400">
        <ele>1549.000</ele>
        <time>2017-01-13T22:34:21Z</time>
        <name>WPT.4216</name>
      </trkpt>
      <trkpt lat="17.065609440" lon="-96.680271780">
        <ele>1549.000</ele>
        <time>2017-01-13T22:34:22Z</time>
        <name>WPT.4217</name>
      </trkpt>
      <trkpt lat="17.065653870" lon="-96.680399200">
        <ele>1549.000</ele>
        <time>2017-01-13T22:34:23Z</time>
        <name>WPT.4218</name>
      </trkpt>
      <trkpt lat="17.065683300" lon="-96.680519410">
        <ele>1550.000</ele>
        <time>2017-01-13T22:34:24Z</time>
        <name>WPT.4219</name>
      </trkpt>
      <trkpt lat="17.065720280" lon="-96.680634910">
        <ele>1550.000</ele>
        <time>2017-01-13T22:34:25Z</time>
        <name>WPT.4220</name>
      </trkpt>
      <trkpt lat="17.065755920" lon="-96.680793290">
        <ele>1550.000</ele>
        <time>2017-01-13T22:34:26Z</time>
        <name>WPT.4221</name>
      </trkpt>
      <trkpt lat="17.065798970" lon="-96.680940280">
        <ele>1551.000</ele>
        <time>2017-01-13T22:34:27Z</time>
        <name>WPT.4222</name>
      </trkpt>
      <trkpt lat="17.065854610" lon="-96.681069220">
        <ele>1550.000</ele>
        <time>2017-01-13T22:34:28Z</time>
        <name>WPT.4223</name>
      </trkpt>
      <trkpt lat="17.065887600" lon="-96.681205520">
        <ele>1551.000</ele>
        <time>2017-01-13T22:34:29Z</time>
        <name>WPT.4224</name>
      </trkpt>
      <trkpt lat="17.065935450" lon="-96.681342280">
        <ele>1550.000</ele>
        <time>2017-01-13T22:34:30Z</time>
        <name>WPT.4225</name>
      </trkpt>
      <trkpt lat="17.065979170" lon="-96.681464610">
        <ele>1551.000</ele>
        <time>2017-01-13T22:34:31Z</time>
        <name>WPT.4226</name>
      </trkpt>
      <trkpt lat="17.066023310" lon="-96.681594980">
        <ele>1553.000</ele>
        <time>2017-01-13T22:34:32Z</time>
        <name>WPT.4227</name>
      </trkpt>
      <trkpt lat="17.066071340" lon="-96.681729440">
        <ele>1553.000</ele>
        <time>2017-01-13T22:34:33Z</time>
        <name>WPT.4228</name>
      </trkpt>
      <trkpt lat="17.066124510" lon="-96.681869060">
        <ele>1551.000</ele>
        <time>2017-01-13T22:34:34Z</time>
        <name>WPT.4229</name>
      </trkpt>
      <trkpt lat="17.066180950" lon="-96.682004060">
        <ele>1550.000</ele>
        <time>2017-01-13T22:34:35Z</time>
        <name>WPT.4230</name>
      </trkpt>
      <trkpt lat="17.066231560" lon="-96.682152020">
        <ele>1551.000</ele>
        <time>2017-01-13T22:34:36Z</time>
        <name>WPT.4231</name>
      </trkpt>
      <trkpt lat="17.066267040" lon="-96.682312960">
        <ele>1549.000</ele>
        <time>2017-01-13T22:34:37Z</time>
        <name>WPT.4232</name>
      </trkpt>
      <trkpt lat="17.066315270" lon="-96.682460790">
        <ele>1549.000</ele>
        <time>2017-01-13T22:34:38Z</time>
        <name>WPT.4233</name>
      </trkpt>
      <trkpt lat="17.066356120" lon="-96.682601520">
        <ele>1548.000</ele>
        <time>2017-01-13T22:34:39Z</time>
        <name>WPT.4234</name>
      </trkpt>
      <trkpt lat="17.066416710" lon="-96.682739550">
        <ele>1548.000</ele>
        <time>2017-01-13T22:34:40Z</time>
        <name>WPT.4235</name>
      </trkpt>
      <trkpt lat="17.066456380" lon="-96.682896500">
        <ele>1547.000</ele>
        <time>2017-01-13T22:34:41Z</time>
        <name>WPT.4236</name>
      </trkpt>
      <trkpt lat="17.066509380" lon="-96.683036210">
        <ele>1546.000</ele>
        <time>2017-01-13T22:34:42Z</time>
        <name>WPT.4237</name>
      </trkpt>
      <trkpt lat="17.066559010" lon="-96.683175620">
        <ele>1546.000</ele>
        <time>2017-01-13T22:34:43Z</time>
        <name>WPT.4238</name>
      </trkpt>
      <trkpt lat="17.066586000" lon="-96.683335530">
        <ele>1547.000</ele>
        <time>2017-01-13T22:34:44Z</time>
        <name>WPT.4239</name>
      </trkpt>
      <trkpt lat="17.066615210" lon="-96.683484180">
        <ele>1548.000</ele>
        <time>2017-01-13T22:34:45Z</time>
        <name>WPT.4240</name>
      </trkpt>
      <trkpt lat="17.066681730" lon="-96.683642060">
        <ele>1546.000</ele>
        <time>2017-01-13T22:34:46Z</time>
        <name>WPT.4241</name>
      </trkpt>
      <trkpt lat="17.066730590" lon="-96.683791910">
        <ele>1545.000</ele>
        <time>2017-01-13T22:34:47Z</time>
        <name>WPT.4242</name>
      </trkpt>
      <trkpt lat="17.066760420" lon="-96.683913990">
        <ele>1547.000</ele>
        <time>2017-01-13T22:34:48Z</time>
        <name>WPT.4243</name>
      </trkpt>
      <trkpt lat="17.066800300" lon="-96.684071650">
        <ele>1546.000</ele>
        <time>2017-01-13T22:34:49Z</time>
        <name>WPT.4244</name>
      </trkpt>
      <trkpt lat="17.066857190" lon="-96.684199410">
        <ele>1546.000</ele>
        <time>2017-01-13T22:34:50Z</time>
        <name>WPT.4245</name>
      </trkpt>
      <trkpt lat="17.066894500" lon="-96.684362300">
        <ele>1545.000</ele>
        <time>2017-01-13T22:34:51Z</time>
        <name>WPT.4246</name>
      </trkpt>
      <trkpt lat="17.066924440" lon="-96.684503460">
        <ele>1545.000</ele>
        <time>2017-01-13T22:34:52Z</time>
        <name>WPT.4247</name>
      </trkpt>
      <trkpt lat="17.066961970" lon="-96.684665390">
        <ele>1545.000</ele>
        <time>2017-01-13T22:34:53Z</time>
        <name>WPT.4248</name>
      </trkpt>
      <trkpt lat="17.066983260" lon="-96.684802630">
        <ele>1546.000</ele>
        <time>2017-01-13T22:34:54Z</time>
        <name>WPT.4249</name>
      </trkpt>
      <trkpt lat="17.067019450" lon="-96.684930100">
        <ele>1545.000</ele>
        <time>2017-01-13T22:34:55Z</time>
        <name>WPT.4250</name>
      </trkpt>
      <trkpt lat="17.067048460" lon="-96.685044060">
        <ele>1544.000</ele>
        <time>2017-01-13T22:34:56Z</time>
        <name>WPT.4251</name>
      </trkpt>
      <trkpt lat="17.067069260" lon="-96.685113220">
        <ele>1545.000</ele>
        <time>2017-01-13T22:34:57Z</time>
        <name>WPT.4252</name>
      </trkpt>
      <trkpt lat="17.067083380" lon="-96.685181280">
        <ele>1545.000</ele>
        <time>2017-01-13T22:34:58Z</time>
        <name>WPT.4253</name>
      </trkpt>
      <trkpt lat="17.067097890" lon="-96.685252460">
        <ele>1547.000</ele>
        <time>2017-01-13T22:35:01Z</time>
        <name>WPT.4254</name>
      </trkpt>
      <trkpt lat="17.067117710" lon="-96.685300770">
        <ele>1548.000</ele>
        <time>2017-01-13T22:35:02Z</time>
        <name>WPT.4255</name>
      </trkpt>
      <trkpt lat="17.067144090" lon="-96.685344460">
        <ele>1547.000</ele>
        <time>2017-01-13T22:35:03Z</time>
        <name>WPT.4256</name>
      </trkpt>
      <trkpt lat="17.067159720" lon="-96.685420320">
        <ele>1547.000</ele>
        <time>2017-01-13T22:35:04Z</time>
        <name>WPT.4257</name>
      </trkpt>
      <trkpt lat="17.067189210" lon="-96.685485680">
        <ele>1547.000</ele>
        <time>2017-01-13T22:35:05Z</time>
        <name>WPT.4258</name>
      </trkpt>
      <trkpt lat="17.067213540" lon="-96.685572570">
        <ele>1546.000</ele>
        <time>2017-01-13T22:35:06Z</time>
        <name>WPT.4259</name>
      </trkpt>
      <trkpt lat="17.067232430" lon="-96.685662900">
        <ele>1548.000</ele>
        <time>2017-01-13T22:35:07Z</time>
        <name>WPT.4260</name>
      </trkpt>
      <trkpt lat="17.067268070" lon="-96.685755410">
        <ele>1546.000</ele>
        <time>2017-01-13T22:35:08Z</time>
        <name>WPT.4261</name>
      </trkpt>
      <trkpt lat="17.067289820" lon="-96.685850010">
        <ele>1547.000</ele>
        <time>2017-01-13T22:35:09Z</time>
        <name>WPT.4262</name>
      </trkpt>
      <trkpt lat="17.067314130" lon="-96.685944640">
        <ele>1548.000</ele>
        <time>2017-01-13T22:35:10Z</time>
        <name>WPT.4263</name>
      </trkpt>
      <trkpt lat="17.067342330" lon="-96.686059670">
        <ele>1550.000</ele>
        <time>2017-01-13T22:35:11Z</time>
        <name>WPT.4264</name>
      </trkpt>
      <trkpt lat="17.067383130" lon="-96.686176140">
        <ele>1550.000</ele>
        <time>2017-01-13T22:35:12Z</time>
        <name>WPT.4265</name>
      </trkpt>
      <trkpt lat="17.067443480" lon="-96.686306220">
        <ele>1550.000</ele>
        <time>2017-01-13T22:35:13Z</time>
        <name>WPT.4266</name>
      </trkpt>
      <trkpt lat="17.067479680" lon="-96.686456270">
        <ele>1549.000</ele>
        <time>2017-01-13T22:35:14Z</time>
        <name>WPT.4267</name>
      </trkpt>
      <trkpt lat="17.067535420" lon="-96.686614500">
        <ele>1548.000</ele>
        <time>2017-01-13T22:35:15Z</time>
        <name>WPT.4268</name>
      </trkpt>
      <trkpt lat="17.067580460" lon="-96.686778110">
        <ele>1547.000</ele>
        <time>2017-01-13T22:35:16Z</time>
        <name>WPT.4269</name>
      </trkpt>
      <trkpt lat="17.067626190" lon="-96.686926550">
        <ele>1547.000</ele>
        <time>2017-01-13T22:35:17Z</time>
        <name>WPT.4270</name>
      </trkpt>
      <trkpt lat="17.067661090" lon="-96.687063230">
        <ele>1546.000</ele>
        <time>2017-01-13T22:35:18Z</time>
        <name>WPT.4271</name>
      </trkpt>
      <trkpt lat="17.067732060" lon="-96.687211000">
        <ele>1546.000</ele>
        <time>2017-01-13T22:35:19Z</time>
        <name>WPT.4272</name>
      </trkpt>
      <trkpt lat="17.067769660" lon="-96.687349450">
        <ele>1546.000</ele>
        <time>2017-01-13T22:35:20Z</time>
        <name>WPT.4273</name>
      </trkpt>
      <trkpt lat="17.067822230" lon="-96.687492520">
        <ele>1546.000</ele>
        <time>2017-01-13T22:35:21Z</time>
        <name>WPT.4274</name>
      </trkpt>
      <trkpt lat="17.067865910" lon="-96.687636370">
        <ele>1547.000</ele>
        <time>2017-01-13T22:35:22Z</time>
        <name>WPT.4275</name>
      </trkpt>
      <trkpt lat="17.067889190" lon="-96.687795070">
        <ele>1548.000</ele>
        <time>2017-01-13T22:35:23Z</time>
        <name>WPT.4276</name>
      </trkpt>
      <trkpt lat="17.067924020" lon="-96.687925610">
        <ele>1548.000</ele>
        <time>2017-01-13T22:35:24Z</time>
        <name>WPT.4277</name>
      </trkpt>
      <trkpt lat="17.067956520" lon="-96.688057210">
        <ele>1548.000</ele>
        <time>2017-01-13T22:35:25Z</time>
        <name>WPT.4278</name>
      </trkpt>
      <trkpt lat="17.068008830" lon="-96.688117340">
        <ele>1548.000</ele>
        <time>2017-01-13T22:35:26Z</time>
        <name>WPT.4279</name>
      </trkpt>
      <trkpt lat="17.068048210" lon="-96.688250860">
        <ele>1546.000</ele>
        <time>2017-01-13T22:35:27Z</time>
        <name>WPT.4280</name>
      </trkpt>
      <trkpt lat="17.068079000" lon="-96.688349620">
        <ele>1547.000</ele>
        <time>2017-01-13T22:35:28Z</time>
        <name>WPT.4281</name>
      </trkpt>
      <trkpt lat="17.068108730" lon="-96.688441760">
        <ele>1546.000</ele>
        <time>2017-01-13T22:35:29Z</time>
        <name>WPT.4282</name>
      </trkpt>
      <trkpt lat="17.068126780" lon="-96.688527390">
        <ele>1546.000</ele>
        <time>2017-01-13T22:35:30Z</time>
        <name>WPT.4283</name>
      </trkpt>
      <trkpt lat="17.068134550" lon="-96.688571370">
        <ele>1548.000</ele>
        <time>2017-01-13T22:35:31Z</time>
        <name>WPT.4284</name>
      </trkpt>
      <trkpt lat="17.068148240" lon="-96.688632210">
        <ele>1548.000</ele>
        <time>2017-01-13T22:35:32Z</time>
        <name>WPT.4285</name>
      </trkpt>
      <trkpt lat="17.068153560" lon="-96.688682710">
        <ele>1549.000</ele>
        <time>2017-01-13T22:35:33Z</time>
        <name>WPT.4286</name>
      </trkpt>
      <trkpt lat="17.068132380" lon="-96.688721320">
        <ele>1551.000</ele>
        <time>2017-01-13T22:35:36Z</time>
        <name>WPT.4287</name>
      </trkpt>
      <trkpt lat="17.068151230" lon="-96.688757810">
        <ele>1551.000</ele>
        <time>2017-01-13T22:35:47Z</time>
        <name>WPT.4288</name>
      </trkpt>
      <trkpt lat="17.068160110" lon="-96.688806570">
        <ele>1551.000</ele>
        <time>2017-01-13T22:35:48Z</time>
        <name>WPT.4289</name>
      </trkpt>
      <trkpt lat="17.068163380" lon="-96.688844160">
        <ele>1550.000</ele>
        <time>2017-01-13T22:35:49Z</time>
        <name>WPT.4290</name>
      </trkpt>
      <trkpt lat="17.068182570" lon="-96.688909780">
        <ele>1550.000</ele>
        <time>2017-01-13T22:35:51Z</time>
        <name>WPT.4291</name>
      </trkpt>
      <trkpt lat="17.068200770" lon="-96.688969970">
        <ele>1548.000</ele>
        <time>2017-01-13T22:35:52Z</time>
        <name>WPT.4292</name>
      </trkpt>
      <trkpt lat="17.068209770" lon="-96.689038130">
        <ele>1546.000</ele>
        <time>2017-01-13T22:35:53Z</time>
        <name>WPT.4293</name>
      </trkpt>
      <trkpt lat="17.068225160" lon="-96.689104880">
        <ele>1546.000</ele>
        <time>2017-01-13T22:35:54Z</time>
        <name>WPT.4294</name>
      </trkpt>
      <trkpt lat="17.068244800" lon="-96.689194890">
        <ele>1546.000</ele>
        <time>2017-01-13T22:35:55Z</time>
        <name>WPT.4295</name>
      </trkpt>
      <trkpt lat="17.068260470" lon="-96.689283090">
        <ele>1545.000</ele>
        <time>2017-01-13T22:35:56Z</time>
        <name>WPT.4296</name>
      </trkpt>
      <trkpt lat="17.068281580" lon="-96.689375570">
        <ele>1546.000</ele>
        <time>2017-01-13T22:35:57Z</time>
        <name>WPT.4297</name>
      </trkpt>
      <trkpt lat="17.068321540" lon="-96.689465830">
        <ele>1546.000</ele>
        <time>2017-01-13T22:35:58Z</time>
        <name>WPT.4298</name>
      </trkpt>
      <trkpt lat="17.068339140" lon="-96.689568630">
        <ele>1546.000</ele>
        <time>2017-01-13T22:35:59Z</time>
        <name>WPT.4299</name>
      </trkpt>
      <trkpt lat="17.068356190" lon="-96.689684090">
        <ele>1547.000</ele>
        <time>2017-01-13T22:36:00Z</time>
        <name>WPT.4300</name>
      </trkpt>
      <trkpt lat="17.068364040" lon="-96.689815860">
        <ele>1548.000</ele>
        <time>2017-01-13T22:36:01Z</time>
        <name>WPT.4301</name>
      </trkpt>
      <trkpt lat="17.068372430" lon="-96.689945520">
        <ele>1548.000</ele>
        <time>2017-01-13T22:36:02Z</time>
        <name>WPT.4302</name>
      </trkpt>
      <trkpt lat="17.068415540" lon="-96.690073080">
        <ele>1548.000</ele>
        <time>2017-01-13T22:36:03Z</time>
        <name>WPT.4303</name>
      </trkpt>
      <trkpt lat="17.068426380" lon="-96.690192560">
        <ele>1549.000</ele>
        <time>2017-01-13T22:36:04Z</time>
        <name>WPT.4304</name>
      </trkpt>
      <trkpt lat="17.068443620" lon="-96.690324830">
        <ele>1548.000</ele>
        <time>2017-01-13T22:36:05Z</time>
        <name>WPT.4305</name>
      </trkpt>
      <trkpt lat="17.068461160" lon="-96.690450510">
        <ele>1547.000</ele>
        <time>2017-01-13T22:36:06Z</time>
        <name>WPT.4306</name>
      </trkpt>
      <trkpt lat="17.068479200" lon="-96.690580450">
        <ele>1548.000</ele>
        <time>2017-01-13T22:36:07Z</time>
        <name>WPT.4307</name>
      </trkpt>
      <trkpt lat="17.068485500" lon="-96.690709980">
        <ele>1549.000</ele>
        <time>2017-01-13T22:36:08Z</time>
        <name>WPT.4308</name>
      </trkpt>
      <trkpt lat="17.068488280" lon="-96.690840860">
        <ele>1551.000</ele>
        <time>2017-01-13T22:36:09Z</time>
        <name>WPT.4309</name>
      </trkpt>
      <trkpt lat="17.068482220" lon="-96.690967460">
        <ele>1551.000</ele>
        <time>2017-01-13T22:36:10Z</time>
        <name>WPT.4310</name>
      </trkpt>
      <trkpt lat="17.068503160" lon="-96.691101400">
        <ele>1550.000</ele>
        <time>2017-01-13T22:36:11Z</time>
        <name>WPT.4311</name>
      </trkpt>
      <trkpt lat="17.068536310" lon="-96.691229340">
        <ele>1551.000</ele>
        <time>2017-01-13T22:36:12Z</time>
        <name>WPT.4312</name>
      </trkpt>
      <trkpt lat="17.068525700" lon="-96.691374810">
        <ele>1551.000</ele>
        <time>2017-01-13T22:36:13Z</time>
        <name>WPT.4313</name>
      </trkpt>
      <trkpt lat="17.068543880" lon="-96.691509860">
        <ele>1551.000</ele>
        <time>2017-01-13T22:36:14Z</time>
        <name>WPT.4314</name>
      </trkpt>
      <trkpt lat="17.068540020" lon="-96.691676240">
        <ele>1552.000</ele>
        <time>2017-01-13T22:36:15Z</time>
        <name>WPT.4315</name>
      </trkpt>
      <trkpt lat="17.068538860" lon="-96.691831590">
        <ele>1552.000</ele>
        <time>2017-01-13T22:36:16Z</time>
        <name>WPT.4316</name>
      </trkpt>
      <trkpt lat="17.068548590" lon="-96.691978210">
        <ele>1552.000</ele>
        <time>2017-01-13T22:36:17Z</time>
        <name>WPT.4317</name>
      </trkpt>
      <trkpt lat="17.068551850" lon="-96.692105810">
        <ele>1552.000</ele>
        <time>2017-01-13T22:36:18Z</time>
        <name>WPT.4318</name>
      </trkpt>
      <trkpt lat="17.068611710" lon="-96.692218890">
        <ele>1550.000</ele>
        <time>2017-01-13T22:36:19Z</time>
        <name>WPT.4319</name>
      </trkpt>
      <trkpt lat="17.068611030" lon="-96.692353490">
        <ele>1549.000</ele>
        <time>2017-01-13T22:36:20Z</time>
        <name>WPT.4320</name>
      </trkpt>
      <trkpt lat="17.068608900" lon="-96.692433400">
        <ele>1550.000</ele>
        <time>2017-01-13T22:36:21Z</time>
        <name>WPT.4321</name>
      </trkpt>
      <trkpt lat="17.068620700" lon="-96.692578990">
        <ele>1550.000</ele>
        <time>2017-01-13T22:36:22Z</time>
        <name>WPT.4322</name>
      </trkpt>
      <trkpt lat="17.068648070" lon="-96.692695920">
        <ele>1550.000</ele>
        <time>2017-01-13T22:36:23Z</time>
        <name>WPT.4323</name>
      </trkpt>
      <trkpt lat="17.068641140" lon="-96.692757920">
        <ele>1552.000</ele>
        <time>2017-01-13T22:36:24Z</time>
        <name>WPT.4324</name>
      </trkpt>
      <trkpt lat="17.068638810" lon="-96.692863590">
        <ele>1552.000</ele>
        <time>2017-01-13T22:36:25Z</time>
        <name>WPT.4325</name>
      </trkpt>
      <trkpt lat="17.068631610" lon="-96.692970240">
        <ele>1552.000</ele>
        <time>2017-01-13T22:36:26Z</time>
        <name>WPT.4326</name>
      </trkpt>
      <trkpt lat="17.068651160" lon="-96.693050370">
        <ele>1550.000</ele>
        <time>2017-01-13T22:36:27Z</time>
        <name>WPT.4327</name>
      </trkpt>
      <trkpt lat="17.068681310" lon="-96.693132970">
        <ele>1549.000</ele>
        <time>2017-01-13T22:36:28Z</time>
        <name>WPT.4328</name>
      </trkpt>
      <trkpt lat="17.068710430" lon="-96.693225750">
        <ele>1547.000</ele>
        <time>2017-01-13T22:36:29Z</time>
        <name>WPT.4329</name>
      </trkpt>
      <trkpt lat="17.068725210" lon="-96.693341140">
        <ele>1546.000</ele>
        <time>2017-01-13T22:36:30Z</time>
        <name>WPT.4330</name>
      </trkpt>
      <trkpt lat="17.068732030" lon="-96.693440120">
        <ele>1545.000</ele>
        <time>2017-01-13T22:36:31Z</time>
        <name>WPT.4331</name>
      </trkpt>
      <trkpt lat="17.068754610" lon="-96.693529050">
        <ele>1542.000</ele>
        <time>2017-01-13T22:36:32Z</time>
        <name>WPT.4332</name>
      </trkpt>
      <trkpt lat="17.068754360" lon="-96.693624560">
        <ele>1544.000</ele>
        <time>2017-01-13T22:36:33Z</time>
        <name>WPT.4333</name>
      </trkpt>
      <trkpt lat="17.068764390" lon="-96.693715540">
        <ele>1544.000</ele>
        <time>2017-01-13T22:36:34Z</time>
        <name>WPT.4334</name>
      </trkpt>
      <trkpt lat="17.068767760" lon="-96.693808940">
        <ele>1545.000</ele>
        <time>2017-01-13T22:36:35Z</time>
        <name>WPT.4335</name>
      </trkpt>
      <trkpt lat="17.068779400" lon="-96.693914520">
        <ele>1545.000</ele>
        <time>2017-01-13T22:36:36Z</time>
        <name>WPT.4336</name>
      </trkpt>
      <trkpt lat="17.068787540" lon="-96.694015010">
        <ele>1544.000</ele>
        <time>2017-01-13T22:36:37Z</time>
        <name>WPT.4337</name>
      </trkpt>
      <trkpt lat="17.068794000" lon="-96.694101180">
        <ele>1544.000</ele>
        <time>2017-01-13T22:36:38Z</time>
        <name>WPT.4338</name>
      </trkpt>
      <trkpt lat="17.068803190" lon="-96.694217310">
        <ele>1544.000</ele>
        <time>2017-01-13T22:36:39Z</time>
        <name>WPT.4339</name>
      </trkpt>
      <trkpt lat="17.068810470" lon="-96.694292280">
        <ele>1543.000</ele>
        <time>2017-01-13T22:36:40Z</time>
        <name>WPT.4340</name>
      </trkpt>
      <trkpt lat="17.068812760" lon="-96.694373960">
        <ele>1544.000</ele>
        <time>2017-01-13T22:36:41Z</time>
        <name>WPT.4341</name>
      </trkpt>
      <trkpt lat="17.068809130" lon="-96.694448720">
        <ele>1545.000</ele>
        <time>2017-01-13T22:36:42Z</time>
        <name>WPT.4342</name>
      </trkpt>
      <trkpt lat="17.068810480" lon="-96.694528480">
        <ele>1545.000</ele>
        <time>2017-01-13T22:36:43Z</time>
        <name>WPT.4343</name>
      </trkpt>
      <trkpt lat="17.068789720" lon="-96.694597030">
        <ele>1547.000</ele>
        <time>2017-01-13T22:36:46Z</time>
        <name>WPT.4344</name>
      </trkpt>
      <trkpt lat="17.068774880" lon="-96.694652910">
        <ele>1547.000</ele>
        <time>2017-01-13T22:36:47Z</time>
        <name>WPT.4345</name>
      </trkpt>
      <trkpt lat="17.068766760" lon="-96.694731850">
        <ele>1547.000</ele>
        <time>2017-01-13T22:36:48Z</time>
        <name>WPT.4346</name>
      </trkpt>
      <trkpt lat="17.068758990" lon="-96.694800110">
        <ele>1549.000</ele>
        <time>2017-01-13T22:36:49Z</time>
        <name>WPT.4347</name>
      </trkpt>
      <trkpt lat="17.068750160" lon="-96.694861000">
        <ele>1549.000</ele>
        <time>2017-01-13T22:36:50Z</time>
        <name>WPT.4348</name>
      </trkpt>
      <trkpt lat="17.068749230" lon="-96.694930180">
        <ele>1550.000</ele>
        <time>2017-01-13T22:36:51Z</time>
        <name>WPT.4349</name>
      </trkpt>
      <trkpt lat="17.068781850" lon="-96.695044330">
        <ele>1549.000</ele>
        <time>2017-01-13T22:36:52Z</time>
        <name>WPT.4350</name>
      </trkpt>
      <trkpt lat="17.068800540" lon="-96.695196300">
        <ele>1550.000</ele>
        <time>2017-01-13T22:36:53Z</time>
        <name>WPT.4351</name>
      </trkpt>
      <trkpt lat="17.068816300" lon="-96.695358600">
        <ele>1551.000</ele>
        <time>2017-01-13T22:36:54Z</time>
        <name>WPT.4352</name>
      </trkpt>
      <trkpt lat="17.068824660" lon="-96.695431680">
        <ele>1552.000</ele>
        <time>2017-01-13T22:36:55Z</time>
        <name>WPT.4353</name>
      </trkpt>
      <trkpt lat="17.068820530" lon="-96.695532650">
        <ele>1552.000</ele>
        <time>2017-01-13T22:36:56Z</time>
        <name>WPT.4354</name>
      </trkpt>
      <trkpt lat="17.068832600" lon="-96.695671830">
        <ele>1551.000</ele>
        <time>2017-01-13T22:36:57Z</time>
        <name>WPT.4355</name>
      </trkpt>
      <trkpt lat="17.068844310" lon="-96.695800480">
        <ele>1551.000</ele>
        <time>2017-01-13T22:36:58Z</time>
        <name>WPT.4356</name>
      </trkpt>
      <trkpt lat="17.068882180" lon="-96.695944260">
        <ele>1552.000</ele>
        <time>2017-01-13T22:36:59Z</time>
        <name>WPT.4357</name>
      </trkpt>
      <trkpt lat="17.068880120" lon="-96.696076800">
        <ele>1551.000</ele>
        <time>2017-01-13T22:37:00Z</time>
        <name>WPT.4358</name>
      </trkpt>
      <trkpt lat="17.068893550" lon="-96.696205420">
        <ele>1552.000</ele>
        <time>2017-01-13T22:37:01Z</time>
        <name>WPT.4359</name>
      </trkpt>
      <trkpt lat="17.068909130" lon="-96.696366120">
        <ele>1551.000</ele>
        <time>2017-01-13T22:37:02Z</time>
        <name>WPT.4360</name>
      </trkpt>
      <trkpt lat="17.068919010" lon="-96.696520620">
        <ele>1551.000</ele>
        <time>2017-01-13T22:37:03Z</time>
        <name>WPT.4361</name>
      </trkpt>
      <trkpt lat="17.068921180" lon="-96.696661490">
        <ele>1551.000</ele>
        <time>2017-01-13T22:37:04Z</time>
        <name>WPT.4362</name>
      </trkpt>
      <trkpt lat="17.068938140" lon="-96.696826500">
        <ele>1553.000</ele>
        <time>2017-01-13T22:37:05Z</time>
        <name>WPT.4363</name>
      </trkpt>
      <trkpt lat="17.068964880" lon="-96.696969480">
        <ele>1553.000</ele>
        <time>2017-01-13T22:37:06Z</time>
        <name>WPT.4364</name>
      </trkpt>
      <trkpt lat="17.068976970" lon="-96.697093860">
        <ele>1553.000</ele>
        <time>2017-01-13T22:37:07Z</time>
        <name>WPT.4365</name>
      </trkpt>
      <trkpt lat="17.069008420" lon="-96.697191310">
        <ele>1553.000</ele>
        <time>2017-01-13T22:37:08Z</time>
        <name>WPT.4366</name>
      </trkpt>
      <trkpt lat="17.069025790" lon="-96.697299130">
        <ele>1550.000</ele>
        <time>2017-01-13T22:37:09Z</time>
        <name>WPT.4367</name>
      </trkpt>
      <trkpt lat="17.069065120" lon="-96.697393820">
        <ele>1549.000</ele>
        <time>2017-01-13T22:37:10Z</time>
        <name>WPT.4368</name>
      </trkpt>
      <trkpt lat="17.069070010" lon="-96.697462680">
        <ele>1548.000</ele>
        <time>2017-01-13T22:37:11Z</time>
        <name>WPT.4369</name>
      </trkpt>
      <trkpt lat="17.069069400" lon="-96.697545510">
        <ele>1549.000</ele>
        <time>2017-01-13T22:37:12Z</time>
        <name>WPT.4370</name>
      </trkpt>
      <trkpt lat="17.069075780" lon="-96.697638890">
        <ele>1549.000</ele>
        <time>2017-01-13T22:37:13Z</time>
        <name>WPT.4371</name>
      </trkpt>
      <trkpt lat="17.069082430" lon="-96.697725160">
        <ele>1549.000</ele>
        <time>2017-01-13T22:37:14Z</time>
        <name>WPT.4372</name>
      </trkpt>
      <trkpt lat="17.069111210" lon="-96.697818050">
        <ele>1549.000</ele>
        <time>2017-01-13T22:37:15Z</time>
        <name>WPT.4373</name>
      </trkpt>
      <trkpt lat="17.069104260" lon="-96.697915760">
        <ele>1549.000</ele>
        <time>2017-01-13T22:37:16Z</time>
        <name>WPT.4374</name>
      </trkpt>
      <trkpt lat="17.069090850" lon="-96.698000970">
        <ele>1549.000</ele>
        <time>2017-01-13T22:37:17Z</time>
        <name>WPT.4375</name>
      </trkpt>
      <trkpt lat="17.069086670" lon="-96.698108220">
        <ele>1549.000</ele>
        <time>2017-01-13T22:37:18Z</time>
        <name>WPT.4376</name>
      </trkpt>
      <trkpt lat="17.069086580" lon="-96.698204280">
        <ele>1549.000</ele>
        <time>2017-01-13T22:37:19Z</time>
        <name>WPT.4377</name>
      </trkpt>
      <trkpt lat="17.069092630" lon="-96.698309530">
        <ele>1548.000</ele>
        <time>2017-01-13T22:37:20Z</time>
        <name>WPT.4378</name>
      </trkpt>
      <trkpt lat="17.069102920" lon="-96.698417270">
        <ele>1549.000</ele>
        <time>2017-01-13T22:37:21Z</time>
        <name>WPT.4379</name>
      </trkpt>
      <trkpt lat="17.069106700" lon="-96.698519540">
        <ele>1550.000</ele>
        <time>2017-01-13T22:37:22Z</time>
        <name>WPT.4380</name>
      </trkpt>
      <trkpt lat="17.069132460" lon="-96.698598870">
        <ele>1548.000</ele>
        <time>2017-01-13T22:37:23Z</time>
        <name>WPT.4381</name>
      </trkpt>
      <trkpt lat="17.069146210" lon="-96.698676150">
        <ele>1548.000</ele>
        <time>2017-01-13T22:37:24Z</time>
        <name>WPT.4382</name>
      </trkpt>
      <trkpt lat="17.069166870" lon="-96.698733630">
        <ele>1549.000</ele>
        <time>2017-01-13T22:37:25Z</time>
        <name>WPT.4383</name>
      </trkpt>
      <trkpt lat="17.069189690" lon="-96.698779350">
        <ele>1549.000</ele>
        <time>2017-01-13T22:37:26Z</time>
        <name>WPT.4384</name>
      </trkpt>
      <trkpt lat="17.069199700" lon="-96.698845090">
        <ele>1547.000</ele>
        <time>2017-01-13T22:37:27Z</time>
        <name>WPT.4385</name>
      </trkpt>
      <trkpt lat="17.069208880" lon="-96.698899230">
        <ele>1548.000</ele>
        <time>2017-01-13T22:37:28Z</time>
        <name>WPT.4386</name>
      </trkpt>
      <trkpt lat="17.069219010" lon="-96.698947400">
        <ele>1548.000</ele>
        <time>2017-01-13T22:37:29Z</time>
        <name>WPT.4387</name>
      </trkpt>
      <trkpt lat="17.069215650" lon="-96.699009260">
        <ele>1548.000</ele>
        <time>2017-01-13T22:37:31Z</time>
        <name>WPT.4388</name>
      </trkpt>
      <trkpt lat="17.069224650" lon="-96.699051080">
        <ele>1549.000</ele>
        <time>2017-01-13T22:37:33Z</time>
        <name>WPT.4389</name>
      </trkpt>
      <trkpt lat="17.069219020" lon="-96.699099600">
        <ele>1549.000</ele>
        <time>2017-01-13T22:37:36Z</time>
        <name>WPT.4390</name>
      </trkpt>
      <trkpt lat="17.069228740" lon="-96.699141350">
        <ele>1549.000</ele>
        <time>2017-01-13T22:38:10Z</time>
        <name>WPT.4391</name>
      </trkpt>
      <trkpt lat="17.069244980" lon="-96.699184280">
        <ele>1549.000</ele>
        <time>2017-01-13T22:38:12Z</time>
        <name>WPT.4392</name>
      </trkpt>
      <trkpt lat="17.069243010" lon="-96.699234480">
        <ele>1549.000</ele>
        <time>2017-01-13T22:38:13Z</time>
        <name>WPT.4393</name>
      </trkpt>
      <trkpt lat="17.069279450" lon="-96.699319370">
        <ele>1548.000</ele>
        <time>2017-01-13T22:38:15Z</time>
        <name>WPT.4394</name>
      </trkpt>
      <trkpt lat="17.069283810" lon="-96.699388660">
        <ele>1548.000</ele>
        <time>2017-01-13T22:38:16Z</time>
        <name>WPT.4395</name>
      </trkpt>
      <trkpt lat="17.069284040" lon="-96.699464390">
        <ele>1548.000</ele>
        <time>2017-01-13T22:38:17Z</time>
        <name>WPT.4396</name>
      </trkpt>
      <trkpt lat="17.069300580" lon="-96.699532460">
        <ele>1548.000</ele>
        <time>2017-01-13T22:38:18Z</time>
        <name>WPT.4397</name>
      </trkpt>
      <trkpt lat="17.069296700" lon="-96.699629920">
        <ele>1547.000</ele>
        <time>2017-01-13T22:38:19Z</time>
        <name>WPT.4398</name>
      </trkpt>
      <trkpt lat="17.069298290" lon="-96.699727220">
        <ele>1545.000</ele>
        <time>2017-01-13T22:38:20Z</time>
        <name>WPT.4399</name>
      </trkpt>
      <trkpt lat="17.069310350" lon="-96.699831250">
        <ele>1544.000</ele>
        <time>2017-01-13T22:38:21Z</time>
        <name>WPT.4400</name>
      </trkpt>
      <trkpt lat="17.069313270" lon="-96.699925630">
        <ele>1544.000</ele>
        <time>2017-01-13T22:38:22Z</time>
        <name>WPT.4401</name>
      </trkpt>
      <trkpt lat="17.069313610" lon="-96.700022150">
        <ele>1545.000</ele>
        <time>2017-01-13T22:38:23Z</time>
        <name>WPT.4402</name>
      </trkpt>
      <trkpt lat="17.069313540" lon="-96.700119120">
        <ele>1545.000</ele>
        <time>2017-01-13T22:38:24Z</time>
        <name>WPT.4403</name>
      </trkpt>
      <trkpt lat="17.069319430" lon="-96.700232730">
        <ele>1545.000</ele>
        <time>2017-01-13T22:38:25Z</time>
        <name>WPT.4404</name>
      </trkpt>
      <trkpt lat="17.069321340" lon="-96.700328080">
        <ele>1546.000</ele>
        <time>2017-01-13T22:38:26Z</time>
        <name>WPT.4405</name>
      </trkpt>
      <trkpt lat="17.069329150" lon="-96.700433580">
        <ele>1547.000</ele>
        <time>2017-01-13T22:38:27Z</time>
        <name>WPT.4406</name>
      </trkpt>
      <trkpt lat="17.069339470" lon="-96.700534220">
        <ele>1546.000</ele>
        <time>2017-01-13T22:38:28Z</time>
        <name>WPT.4407</name>
      </trkpt>
      <trkpt lat="17.069338340" lon="-96.700648730">
        <ele>1546.000</ele>
        <time>2017-01-13T22:38:29Z</time>
        <name>WPT.4408</name>
      </trkpt>
      <trkpt lat="17.069324360" lon="-96.700756790">
        <ele>1547.000</ele>
        <time>2017-01-13T22:38:30Z</time>
        <name>WPT.4409</name>
      </trkpt>
      <trkpt lat="17.069343260" lon="-96.700828340">
        <ele>1548.000</ele>
        <time>2017-01-13T22:38:31Z</time>
        <name>WPT.4410</name>
      </trkpt>
      <trkpt lat="17.069331680" lon="-96.700906010">
        <ele>1550.000</ele>
        <time>2017-01-13T22:38:32Z</time>
        <name>WPT.4411</name>
      </trkpt>
      <trkpt lat="17.069357570" lon="-96.700995880">
        <ele>1550.000</ele>
        <time>2017-01-13T22:38:33Z</time>
        <name>WPT.4412</name>
      </trkpt>
      <trkpt lat="17.069374970" lon="-96.701093460">
        <ele>1548.000</ele>
        <time>2017-01-13T22:38:34Z</time>
        <name>WPT.4413</name>
      </trkpt>
      <trkpt lat="17.069375220" lon="-96.701188450">
        <ele>1548.000</ele>
        <time>2017-01-13T22:38:35Z</time>
        <name>WPT.4414</name>
      </trkpt>
      <trkpt lat="17.069384180" lon="-96.701258780">
        <ele>1548.000</ele>
        <time>2017-01-13T22:38:36Z</time>
        <name>WPT.4415</name>
      </trkpt>
      <trkpt lat="17.069389860" lon="-96.701340450">
        <ele>1550.000</ele>
        <time>2017-01-13T22:38:37Z</time>
        <name>WPT.4416</name>
      </trkpt>
      <trkpt lat="17.069398250" lon="-96.701417340">
        <ele>1551.000</ele>
        <time>2017-01-13T22:38:38Z</time>
        <name>WPT.4417</name>
      </trkpt>
      <trkpt lat="17.069410570" lon="-96.701475770">
        <ele>1551.000</ele>
        <time>2017-01-13T22:38:39Z</time>
        <name>WPT.4418</name>
      </trkpt>
      <trkpt lat="17.069415700" lon="-96.701523630">
        <ele>1552.000</ele>
        <time>2017-01-13T22:38:40Z</time>
        <name>WPT.4419</name>
      </trkpt>
      <trkpt lat="17.069448150" lon="-96.701567530">
        <ele>1549.000</ele>
        <time>2017-01-13T22:38:41Z</time>
        <name>WPT.4420</name>
      </trkpt>
      <trkpt lat="17.069448580" lon="-96.701638620">
        <ele>1549.000</ele>
        <time>2017-01-13T22:38:43Z</time>
        <name>WPT.4421</name>
      </trkpt>
      <trkpt lat="17.069421930" lon="-96.701691950">
        <ele>1552.000</ele>
        <time>2017-01-13T22:38:46Z</time>
        <name>WPT.4422</name>
      </trkpt>
      <trkpt lat="17.069400420" lon="-96.701723670">
        <ele>1551.000</ele>
        <time>2017-01-13T22:38:52Z</time>
        <name>WPT.4423</name>
      </trkpt>
      <trkpt lat="17.069389350" lon="-96.701763390">
        <ele>1554.000</ele>
        <time>2017-01-13T22:39:38Z</time>
        <name>WPT.4424</name>
      </trkpt>
      <trkpt lat="17.069387480" lon="-96.701807550">
        <ele>1556.000</ele>
        <time>2017-01-13T22:39:40Z</time>
        <name>WPT.4425</name>
      </trkpt>
      <trkpt lat="17.069393320" lon="-96.701847560">
        <ele>1556.000</ele>
        <time>2017-01-13T22:39:41Z</time>
        <name>WPT.4426</name>
      </trkpt>
      <trkpt lat="17.069401510" lon="-96.701892650">
        <ele>1555.000</ele>
        <time>2017-01-13T22:39:42Z</time>
        <name>WPT.4427</name>
      </trkpt>
      <trkpt lat="17.069405540" lon="-96.701931270">
        <ele>1555.000</ele>
        <time>2017-01-13T22:39:43Z</time>
        <name>WPT.4428</name>
      </trkpt>
      <trkpt lat="17.069420720" lon="-96.701971770">
        <ele>1554.000</ele>
        <time>2017-01-13T22:39:44Z</time>
        <name>WPT.4429</name>
      </trkpt>
      <trkpt lat="17.069421590" lon="-96.702024130">
        <ele>1554.000</ele>
        <time>2017-01-13T22:39:45Z</time>
        <name>WPT.4430</name>
      </trkpt>
      <trkpt lat="17.069428660" lon="-96.702093300">
        <ele>1554.000</ele>
        <time>2017-01-13T22:39:46Z</time>
        <name>WPT.4431</name>
      </trkpt>
      <trkpt lat="17.069443680" lon="-96.702161620">
        <ele>1554.000</ele>
        <time>2017-01-13T22:39:47Z</time>
        <name>WPT.4432</name>
      </trkpt>
      <trkpt lat="17.069449110" lon="-96.702240700">
        <ele>1554.000</ele>
        <time>2017-01-13T22:39:48Z</time>
        <name>WPT.4433</name>
      </trkpt>
      <trkpt lat="17.069448440" lon="-96.702333420">
        <ele>1554.000</ele>
        <time>2017-01-13T22:39:49Z</time>
        <name>WPT.4434</name>
      </trkpt>
      <trkpt lat="17.069461190" lon="-96.702411070">
        <ele>1554.000</ele>
        <time>2017-01-13T22:39:50Z</time>
        <name>WPT.4435</name>
      </trkpt>
      <trkpt lat="17.069469820" lon="-96.702498840">
        <ele>1554.000</ele>
        <time>2017-01-13T22:39:51Z</time>
        <name>WPT.4436</name>
      </trkpt>
      <trkpt lat="17.069483310" lon="-96.702596860">
        <ele>1554.000</ele>
        <time>2017-01-13T22:39:52Z</time>
        <name>WPT.4437</name>
      </trkpt>
      <trkpt lat="17.069492750" lon="-96.702692220">
        <ele>1555.000</ele>
        <time>2017-01-13T22:39:53Z</time>
        <name>WPT.4438</name>
      </trkpt>
      <trkpt lat="17.069500050" lon="-96.702796530">
        <ele>1555.000</ele>
        <time>2017-01-13T22:39:54Z</time>
        <name>WPT.4439</name>
      </trkpt>
      <trkpt lat="17.069511410" lon="-96.702890330">
        <ele>1556.000</ele>
        <time>2017-01-13T22:39:55Z</time>
        <name>WPT.4440</name>
      </trkpt>
      <trkpt lat="17.069519310" lon="-96.702984380">
        <ele>1557.000</ele>
        <time>2017-01-13T22:39:56Z</time>
        <name>WPT.4441</name>
      </trkpt>
      <trkpt lat="17.069527830" lon="-96.703076080">
        <ele>1557.000</ele>
        <time>2017-01-13T22:39:57Z</time>
        <name>WPT.4442</name>
      </trkpt>
      <trkpt lat="17.069540270" lon="-96.703170880">
        <ele>1558.000</ele>
        <time>2017-01-13T22:39:58Z</time>
        <name>WPT.4443</name>
      </trkpt>
      <trkpt lat="17.069547040" lon="-96.703269030">
        <ele>1559.000</ele>
        <time>2017-01-13T22:39:59Z</time>
        <name>WPT.4444</name>
      </trkpt>
      <trkpt lat="17.069550360" lon="-96.703349670">
        <ele>1559.000</ele>
        <time>2017-01-13T22:40:00Z</time>
        <name>WPT.4445</name>
      </trkpt>
      <trkpt lat="17.069551490" lon="-96.703444050">
        <ele>1560.000</ele>
        <time>2017-01-13T22:40:01Z</time>
        <name>WPT.4446</name>
      </trkpt>
      <trkpt lat="17.069558170" lon="-96.703520640">
        <ele>1560.000</ele>
        <time>2017-01-13T22:40:02Z</time>
        <name>WPT.4447</name>
      </trkpt>
      <trkpt lat="17.069594450" lon="-96.703652070">
        <ele>1558.000</ele>
        <time>2017-01-13T22:40:03Z</time>
        <name>WPT.4448</name>
      </trkpt>
      <trkpt lat="17.069598550" lon="-96.703765890">
        <ele>1559.000</ele>
        <time>2017-01-13T22:40:04Z</time>
        <name>WPT.4449</name>
      </trkpt>
      <trkpt lat="17.069612130" lon="-96.703898360">
        <ele>1559.000</ele>
        <time>2017-01-13T22:40:05Z</time>
        <name>WPT.4450</name>
      </trkpt>
      <trkpt lat="17.069630240" lon="-96.704005690">
        <ele>1557.000</ele>
        <time>2017-01-13T22:40:06Z</time>
        <name>WPT.4451</name>
      </trkpt>
      <trkpt lat="17.069643430" lon="-96.704115090">
        <ele>1558.000</ele>
        <time>2017-01-13T22:40:07Z</time>
        <name>WPT.4452</name>
      </trkpt>
      <trkpt lat="17.069611160" lon="-96.704203550">
        <ele>1559.000</ele>
        <time>2017-01-13T22:40:08Z</time>
        <name>WPT.4453</name>
      </trkpt>
      <trkpt lat="17.069622640" lon="-96.704311550">
        <ele>1559.000</ele>
        <time>2017-01-13T22:40:09Z</time>
        <name>WPT.4454</name>
      </trkpt>
      <trkpt lat="17.069645470" lon="-96.704436650">
        <ele>1560.000</ele>
        <time>2017-01-13T22:40:10Z</time>
        <name>WPT.4455</name>
      </trkpt>
      <trkpt lat="17.069654840" lon="-96.704579140">
        <ele>1559.000</ele>
        <time>2017-01-13T22:40:11Z</time>
        <name>WPT.4456</name>
      </trkpt>
      <trkpt lat="17.069667280" lon="-96.704721320">
        <ele>1557.000</ele>
        <time>2017-01-13T22:40:12Z</time>
        <name>WPT.4457</name>
      </trkpt>
      <trkpt lat="17.069680700" lon="-96.704872770">
        <ele>1553.000</ele>
        <time>2017-01-13T22:40:13Z</time>
        <name>WPT.4458</name>
      </trkpt>
      <trkpt lat="17.069688020" lon="-96.705023570">
        <ele>1552.000</ele>
        <time>2017-01-13T22:40:14Z</time>
        <name>WPT.4459</name>
      </trkpt>
      <trkpt lat="17.069691600" lon="-96.705158940">
        <ele>1552.000</ele>
        <time>2017-01-13T22:40:15Z</time>
        <name>WPT.4460</name>
      </trkpt>
      <trkpt lat="17.069692850" lon="-96.705299390">
        <ele>1552.000</ele>
        <time>2017-01-13T22:40:16Z</time>
        <name>WPT.4461</name>
      </trkpt>
      <trkpt lat="17.069700840" lon="-96.705439430">
        <ele>1553.000</ele>
        <time>2017-01-13T22:40:17Z</time>
        <name>WPT.4462</name>
      </trkpt>
      <trkpt lat="17.069699470" lon="-96.705580980">
        <ele>1553.000</ele>
        <time>2017-01-13T22:40:18Z</time>
        <name>WPT.4463</name>
      </trkpt>
      <trkpt lat="17.069703470" lon="-96.705719450">
        <ele>1552.000</ele>
        <time>2017-01-13T22:40:19Z</time>
        <name>WPT.4464</name>
      </trkpt>
      <trkpt lat="17.069720240" lon="-96.705866480">
        <ele>1550.000</ele>
        <time>2017-01-13T22:40:20Z</time>
        <name>WPT.4465</name>
      </trkpt>
      <trkpt lat="17.069739360" lon="-96.706007670">
        <ele>1551.000</ele>
        <time>2017-01-13T22:40:21Z</time>
        <name>WPT.4466</name>
      </trkpt>
      <trkpt lat="17.069760300" lon="-96.706136310">
        <ele>1552.000</ele>
        <time>2017-01-13T22:40:22Z</time>
        <name>WPT.4467</name>
      </trkpt>
      <trkpt lat="17.069791400" lon="-96.706280790">
        <ele>1550.000</ele>
        <time>2017-01-13T22:40:23Z</time>
        <name>WPT.4468</name>
      </trkpt>
      <trkpt lat="17.069813580" lon="-96.706402870">
        <ele>1549.000</ele>
        <time>2017-01-13T22:40:24Z</time>
        <name>WPT.4469</name>
      </trkpt>
      <trkpt lat="17.069832000" lon="-96.706533580">
        <ele>1548.000</ele>
        <time>2017-01-13T22:40:25Z</time>
        <name>WPT.4470</name>
      </trkpt>
      <trkpt lat="17.069850280" lon="-96.706648710">
        <ele>1547.000</ele>
        <time>2017-01-13T22:40:26Z</time>
        <name>WPT.4471</name>
      </trkpt>
      <trkpt lat="17.069872970" lon="-96.706769190">
        <ele>1544.000</ele>
        <time>2017-01-13T22:40:27Z</time>
        <name>WPT.4472</name>
      </trkpt>
      <trkpt lat="17.069882060" lon="-96.706891210">
        <ele>1545.000</ele>
        <time>2017-01-13T22:40:28Z</time>
        <name>WPT.4473</name>
      </trkpt>
      <trkpt lat="17.069890400" lon="-96.707008090">
        <ele>1544.000</ele>
        <time>2017-01-13T22:40:29Z</time>
        <name>WPT.4474</name>
      </trkpt>
      <trkpt lat="17.069905610" lon="-96.707117440">
        <ele>1544.000</ele>
        <time>2017-01-13T22:40:30Z</time>
        <name>WPT.4475</name>
      </trkpt>
      <trkpt lat="17.069909000" lon="-96.707216930">
        <ele>1544.000</ele>
        <time>2017-01-13T22:40:31Z</time>
        <name>WPT.4476</name>
      </trkpt>
      <trkpt lat="17.069913730" lon="-96.707291880">
        <ele>1544.000</ele>
        <time>2017-01-13T22:40:32Z</time>
        <name>WPT.4477</name>
      </trkpt>
      <trkpt lat="17.069919170" lon="-96.707358670">
        <ele>1544.000</ele>
        <time>2017-01-13T22:40:33Z</time>
        <name>WPT.4478</name>
      </trkpt>
      <trkpt lat="17.069922290" lon="-96.707411060">
        <ele>1545.000</ele>
        <time>2017-01-13T22:40:34Z</time>
        <name>WPT.4479</name>
      </trkpt>
      <trkpt lat="17.069925630" lon="-96.707449160">
        <ele>1545.000</ele>
        <time>2017-01-13T22:40:35Z</time>
        <name>WPT.4480</name>
      </trkpt>
      <trkpt lat="17.069941280" lon="-96.707495950">
        <ele>1545.000</ele>
        <time>2017-01-13T22:40:37Z</time>
        <name>WPT.4481</name>
      </trkpt>
      <trkpt lat="17.069937770" lon="-96.707540230">
        <ele>1546.000</ele>
        <time>2017-01-13T22:40:38Z</time>
        <name>WPT.4482</name>
      </trkpt>
      <trkpt lat="17.069936710" lon="-96.707581900">
        <ele>1547.000</ele>
        <time>2017-01-13T22:40:39Z</time>
        <name>WPT.4483</name>
      </trkpt>
      <trkpt lat="17.069935410" lon="-96.707633960">
        <ele>1546.000</ele>
        <time>2017-01-13T22:40:40Z</time>
        <name>WPT.4484</name>
      </trkpt>
      <trkpt lat="17.069946180" lon="-96.707696420">
        <ele>1546.000</ele>
        <time>2017-01-13T22:40:41Z</time>
        <name>WPT.4485</name>
      </trkpt>
      <trkpt lat="17.069948700" lon="-96.707789450">
        <ele>1546.000</ele>
        <time>2017-01-13T22:40:42Z</time>
        <name>WPT.4486</name>
      </trkpt>
      <trkpt lat="17.069951310" lon="-96.707875130">
        <ele>1547.000</ele>
        <time>2017-01-13T22:40:43Z</time>
        <name>WPT.4487</name>
      </trkpt>
      <trkpt lat="17.069971160" lon="-96.707969800">
        <ele>1546.000</ele>
        <time>2017-01-13T22:40:44Z</time>
        <name>WPT.4488</name>
      </trkpt>
      <trkpt lat="17.069980060" lon="-96.708069690">
        <ele>1545.000</ele>
        <time>2017-01-13T22:40:45Z</time>
        <name>WPT.4489</name>
      </trkpt>
      <trkpt lat="17.069995310" lon="-96.708182340">
        <ele>1545.000</ele>
        <time>2017-01-13T22:40:46Z</time>
        <name>WPT.4490</name>
      </trkpt>
      <trkpt lat="17.070010400" lon="-96.708301080">
        <ele>1544.000</ele>
        <time>2017-01-13T22:40:47Z</time>
        <name>WPT.4491</name>
      </trkpt>
      <trkpt lat="17.070022870" lon="-96.708431250">
        <ele>1545.000</ele>
        <time>2017-01-13T22:40:48Z</time>
        <name>WPT.4492</name>
      </trkpt>
      <trkpt lat="17.070041990" lon="-96.708564970">
        <ele>1544.000</ele>
        <time>2017-01-13T22:40:49Z</time>
        <name>WPT.4493</name>
      </trkpt>
      <trkpt lat="17.070051280" lon="-96.708693040">
        <ele>1545.000</ele>
        <time>2017-01-13T22:40:50Z</time>
        <name>WPT.4494</name>
      </trkpt>
      <trkpt lat="17.070060090" lon="-96.708819360">
        <ele>1546.000</ele>
        <time>2017-01-13T22:40:51Z</time>
        <name>WPT.4495</name>
      </trkpt>
      <trkpt lat="17.070072350" lon="-96.708940550">
        <ele>1546.000</ele>
        <time>2017-01-13T22:40:52Z</time>
        <name>WPT.4496</name>
      </trkpt>
      <trkpt lat="17.070081320" lon="-96.709055520">
        <ele>1547.000</ele>
        <time>2017-01-13T22:40:53Z</time>
        <name>WPT.4497</name>
      </trkpt>
      <trkpt lat="17.070090480" lon="-96.709168230">
        <ele>1548.000</ele>
        <time>2017-01-13T22:40:54Z</time>
        <name>WPT.4498</name>
      </trkpt>
      <trkpt lat="17.070102570" lon="-96.709274470">
        <ele>1548.000</ele>
        <time>2017-01-13T22:40:55Z</time>
        <name>WPT.4499</name>
      </trkpt>
      <trkpt lat="17.070120310" lon="-96.709375200">
        <ele>1548.000</ele>
        <time>2017-01-13T22:40:56Z</time>
        <name>WPT.4500</name>
      </trkpt>
      <trkpt lat="17.070135390" lon="-96.709480770">
        <ele>1548.000</ele>
        <time>2017-01-13T22:40:57Z</time>
        <name>WPT.4501</name>
      </trkpt>
      <trkpt lat="17.070142770" lon="-96.709584750">
        <ele>1549.000</ele>
        <time>2017-01-13T22:40:58Z</time>
        <name>WPT.4502</name>
      </trkpt>
      <trkpt lat="17.070144830" lon="-96.709689600">
        <ele>1548.000</ele>
        <time>2017-01-13T22:40:59Z</time>
        <name>WPT.4503</name>
      </trkpt>
      <trkpt lat="17.070155810" lon="-96.709793350">
        <ele>1549.000</ele>
        <time>2017-01-13T22:41:00Z</time>
        <name>WPT.4504</name>
      </trkpt>
      <trkpt lat="17.070166860" lon="-96.709901580">
        <ele>1549.000</ele>
        <time>2017-01-13T22:41:01Z</time>
        <name>WPT.4505</name>
      </trkpt>
      <trkpt lat="17.070180680" lon="-96.710007580">
        <ele>1550.000</ele>
        <time>2017-01-13T22:41:02Z</time>
        <name>WPT.4506</name>
      </trkpt>
      <trkpt lat="17.070189140" lon="-96.710126450">
        <ele>1551.000</ele>
        <time>2017-01-13T22:41:03Z</time>
        <name>WPT.4507</name>
      </trkpt>
      <trkpt lat="17.070202370" lon="-96.710234820">
        <ele>1552.000</ele>
        <time>2017-01-13T22:41:04Z</time>
        <name>WPT.4508</name>
      </trkpt>
      <trkpt lat="17.070204610" lon="-96.710342960">
        <ele>1553.000</ele>
        <time>2017-01-13T22:41:05Z</time>
        <name>WPT.4509</name>
      </trkpt>
      <trkpt lat="17.070213930" lon="-96.710437850">
        <ele>1554.000</ele>
        <time>2017-01-13T22:41:06Z</time>
        <name>WPT.4510</name>
      </trkpt>
      <trkpt lat="17.070217750" lon="-96.710529380">
        <ele>1553.000</ele>
        <time>2017-01-13T22:41:07Z</time>
        <name>WPT.4511</name>
      </trkpt>
      <trkpt lat="17.070219470" lon="-96.710613230">
        <ele>1554.000</ele>
        <time>2017-01-13T22:41:08Z</time>
        <name>WPT.4512</name>
      </trkpt>
      <trkpt lat="17.070218730" lon="-96.710684690">
        <ele>1554.000</ele>
        <time>2017-01-13T22:41:09Z</time>
        <name>WPT.4513</name>
      </trkpt>
      <trkpt lat="17.070224270" lon="-96.710757930">
        <ele>1554.000</ele>
        <time>2017-01-13T22:41:10Z</time>
        <name>WPT.4514</name>
      </trkpt>
      <trkpt lat="17.070233440" lon="-96.710833930">
        <ele>1555.000</ele>
        <time>2017-01-13T22:41:11Z</time>
        <name>WPT.4515</name>
      </trkpt>
      <trkpt lat="17.070235020" lon="-96.710902470">
        <ele>1556.000</ele>
        <time>2017-01-13T22:41:12Z</time>
        <name>WPT.4516</name>
      </trkpt>
      <trkpt lat="17.070260630" lon="-96.710959900">
        <ele>1556.000</ele>
        <time>2017-01-13T22:41:13Z</time>
        <name>WPT.4517</name>
      </trkpt>
      <trkpt lat="17.070261770" lon="-96.711025780">
        <ele>1556.000</ele>
        <time>2017-01-13T22:41:14Z</time>
        <name>WPT.4518</name>
      </trkpt>
      <trkpt lat="17.070266040" lon="-96.711080470">
        <ele>1556.000</ele>
        <time>2017-01-13T22:41:15Z</time>
        <name>WPT.4519</name>
      </trkpt>
      <trkpt lat="17.070270300" lon="-96.711154350">
        <ele>1558.000</ele>
        <time>2017-01-13T22:41:17Z</time>
        <name>WPT.4520</name>
      </trkpt>
      <trkpt lat="17.070278990" lon="-96.711229900">
        <ele>1560.000</ele>
        <time>2017-01-13T22:41:19Z</time>
        <name>WPT.4521</name>
      </trkpt>
      <trkpt lat="17.070279530" lon="-96.711287470">
        <ele>1560.000</ele>
        <time>2017-01-13T22:41:21Z</time>
        <name>WPT.4522</name>
      </trkpt>
      <trkpt lat="17.070266630" lon="-96.711336730">
        <ele>1564.000</ele>
        <time>2017-01-13T22:42:13Z</time>
        <name>WPT.4523</name>
      </trkpt>
      <trkpt lat="17.070260540" lon="-96.711376310">
        <ele>1564.000</ele>
        <time>2017-01-13T22:42:14Z</time>
        <name>WPT.4524</name>
      </trkpt>
      <trkpt lat="17.070263180" lon="-96.711461820">
        <ele>1564.000</ele>
        <time>2017-01-13T22:42:16Z</time>
        <name>WPT.4525</name>
      </trkpt>
      <trkpt lat="17.070268590" lon="-96.711519660">
        <ele>1565.000</ele>
        <time>2017-01-13T22:42:17Z</time>
        <name>WPT.4526</name>
      </trkpt>
      <trkpt lat="17.070268950" lon="-96.711596550">
        <ele>1564.000</ele>
        <time>2017-01-13T22:42:18Z</time>
        <name>WPT.4527</name>
      </trkpt>
      <trkpt lat="17.070272720" lon="-96.711680530">
        <ele>1565.000</ele>
        <time>2017-01-13T22:42:19Z</time>
        <name>WPT.4528</name>
      </trkpt>
      <trkpt lat="17.070267890" lon="-96.711766130">
        <ele>1564.000</ele>
        <time>2017-01-13T22:42:20Z</time>
        <name>WPT.4529</name>
      </trkpt>
      <trkpt lat="17.070277840" lon="-96.711856590">
        <ele>1565.000</ele>
        <time>2017-01-13T22:42:21Z</time>
        <name>WPT.4530</name>
      </trkpt>
      <trkpt lat="17.070286350" lon="-96.711958580">
        <ele>1565.000</ele>
        <time>2017-01-13T22:42:22Z</time>
        <name>WPT.4531</name>
      </trkpt>
      <trkpt lat="17.070300180" lon="-96.712061710">
        <ele>1566.000</ele>
        <time>2017-01-13T22:42:23Z</time>
        <name>WPT.4532</name>
      </trkpt>
      <trkpt lat="17.070301960" lon="-96.712173460">
        <ele>1566.000</ele>
        <time>2017-01-13T22:42:24Z</time>
        <name>WPT.4533</name>
      </trkpt>
      <trkpt lat="17.070303830" lon="-96.712294050">
        <ele>1566.000</ele>
        <time>2017-01-13T22:42:25Z</time>
        <name>WPT.4534</name>
      </trkpt>
      <trkpt lat="17.070309890" lon="-96.712412850">
        <ele>1567.000</ele>
        <time>2017-01-13T22:42:26Z</time>
        <name>WPT.4535</name>
      </trkpt>
      <trkpt lat="17.070328360" lon="-96.712538970">
        <ele>1566.000</ele>
        <time>2017-01-13T22:42:27Z</time>
        <name>WPT.4536</name>
      </trkpt>
      <trkpt lat="17.070347690" lon="-96.712665550">
        <ele>1565.000</ele>
        <time>2017-01-13T22:42:28Z</time>
        <name>WPT.4537</name>
      </trkpt>
      <trkpt lat="17.070373210" lon="-96.712789440">
        <ele>1563.000</ele>
        <time>2017-01-13T22:42:29Z</time>
        <name>WPT.4538</name>
      </trkpt>
      <trkpt lat="17.070382390" lon="-96.712892170">
        <ele>1565.000</ele>
        <time>2017-01-13T22:42:30Z</time>
        <name>WPT.4539</name>
      </trkpt>
      <trkpt lat="17.070388890" lon="-96.712993720">
        <ele>1566.000</ele>
        <time>2017-01-13T22:42:31Z</time>
        <name>WPT.4540</name>
      </trkpt>
      <trkpt lat="17.070426280" lon="-96.713244690">
        <ele>1569.000</ele>
        <time>2017-01-13T22:42:34Z</time>
        <name>WPT.4541</name>
      </trkpt>
      <trkpt lat="17.070431700" lon="-96.713303380">
        <ele>1570.000</ele>
        <time>2017-01-13T22:42:35Z</time>
        <name>WPT.4542</name>
      </trkpt>
      <trkpt lat="17.070425460" lon="-96.713346240">
        <ele>1571.000</ele>
        <time>2017-01-13T22:42:36Z</time>
        <name>WPT.4543</name>
      </trkpt>
      <trkpt lat="17.070425530" lon="-96.713393220">
        <ele>1572.000</ele>
        <time>2017-01-13T22:42:37Z</time>
        <name>WPT.4544</name>
      </trkpt>
      <trkpt lat="17.070425680" lon="-96.713436600">
        <ele>1571.000</ele>
        <time>2017-01-13T22:42:38Z</time>
        <name>WPT.4545</name>
      </trkpt>
      <trkpt lat="17.070422940" lon="-96.713490360">
        <ele>1569.000</ele>
        <time>2017-01-13T22:42:39Z</time>
        <name>WPT.4546</name>
      </trkpt>
      <trkpt lat="17.070421620" lon="-96.713541920">
        <ele>1569.000</ele>
        <time>2017-01-13T22:42:40Z</time>
        <name>WPT.4547</name>
      </trkpt>
      <trkpt lat="17.070412480" lon="-96.713601290">
        <ele>1570.000</ele>
        <time>2017-01-13T22:42:41Z</time>
        <name>WPT.4548</name>
      </trkpt>
      <trkpt lat="17.070404760" lon="-96.713665580">
        <ele>1570.000</ele>
        <time>2017-01-13T22:42:42Z</time>
        <name>WPT.4549</name>
      </trkpt>
      <trkpt lat="17.070396070" lon="-96.713737720">
        <ele>1570.000</ele>
        <time>2017-01-13T22:42:43Z</time>
        <name>WPT.4550</name>
      </trkpt>
      <trkpt lat="17.070403400" lon="-96.713812930">
        <ele>1571.000</ele>
        <time>2017-01-13T22:42:44Z</time>
        <name>WPT.4551</name>
      </trkpt>
      <trkpt lat="17.070408800" lon="-96.713893910">
        <ele>1572.000</ele>
        <time>2017-01-13T22:42:45Z</time>
        <name>WPT.4552</name>
      </trkpt>
      <trkpt lat="17.070423010" lon="-96.713989030">
        <ele>1573.000</ele>
        <time>2017-01-13T22:42:46Z</time>
        <name>WPT.4553</name>
      </trkpt>
      <trkpt lat="17.070426210" lon="-96.714094780">
        <ele>1573.000</ele>
        <time>2017-01-13T22:42:47Z</time>
        <name>WPT.4554</name>
      </trkpt>
      <trkpt lat="17.070431630" lon="-96.714191900">
        <ele>1572.000</ele>
        <time>2017-01-13T22:42:48Z</time>
        <name>WPT.4555</name>
      </trkpt>
      <trkpt lat="17.070445530" lon="-96.714302390">
        <ele>1570.000</ele>
        <time>2017-01-13T22:42:49Z</time>
        <name>WPT.4556</name>
      </trkpt>
      <trkpt lat="17.070448800" lon="-96.714389770">
        <ele>1569.000</ele>
        <time>2017-01-13T22:42:50Z</time>
        <name>WPT.4557</name>
      </trkpt>
      <trkpt lat="17.070463620" lon="-96.714472120">
        <ele>1568.000</ele>
        <time>2017-01-13T22:42:51Z</time>
        <name>WPT.4558</name>
      </trkpt>
      <trkpt lat="17.070472990" lon="-96.714544220">
        <ele>1568.000</ele>
        <time>2017-01-13T22:42:52Z</time>
        <name>WPT.4559</name>
      </trkpt>
      <trkpt lat="17.070474370" lon="-96.714602090">
        <ele>1569.000</ele>
        <time>2017-01-13T22:42:53Z</time>
        <name>WPT.4560</name>
      </trkpt>
      <trkpt lat="17.070478150" lon="-96.714641850">
        <ele>1569.000</ele>
        <time>2017-01-13T22:42:54Z</time>
        <name>WPT.4561</name>
      </trkpt>
      <trkpt lat="17.070480000" lon="-96.714688980">
        <ele>1569.000</ele>
        <time>2017-01-13T22:42:56Z</time>
        <name>WPT.4562</name>
      </trkpt>
      <trkpt lat="17.070450040" lon="-96.714714090">
        <ele>1570.000</ele>
        <time>2017-01-13T22:43:19Z</time>
        <name>WPT.4563</name>
      </trkpt>
      <trkpt lat="17.070458400" lon="-96.714756380">
        <ele>1571.000</ele>
        <time>2017-01-13T22:43:30Z</time>
        <name>WPT.4564</name>
      </trkpt>
      <trkpt lat="17.070478910" lon="-96.714825540">
        <ele>1571.000</ele>
        <time>2017-01-13T22:43:32Z</time>
        <name>WPT.4565</name>
      </trkpt>
      <trkpt lat="17.070498680" lon="-96.714876180">
        <ele>1569.000</ele>
        <time>2017-01-13T22:43:33Z</time>
        <name>WPT.4566</name>
      </trkpt>
      <trkpt lat="17.070511710" lon="-96.714937730">
        <ele>1568.000</ele>
        <time>2017-01-13T22:43:34Z</time>
        <name>WPT.4567</name>
      </trkpt>
      <trkpt lat="17.070527680" lon="-96.715007050">
        <ele>1568.000</ele>
        <time>2017-01-13T22:43:35Z</time>
        <name>WPT.4568</name>
      </trkpt>
      <trkpt lat="17.070540540" lon="-96.715082650">
        <ele>1567.000</ele>
        <time>2017-01-13T22:43:36Z</time>
        <name>WPT.4569</name>
      </trkpt>
      <trkpt lat="17.070551840" lon="-96.715168620">
        <ele>1566.000</ele>
        <time>2017-01-13T22:43:37Z</time>
        <name>WPT.4570</name>
      </trkpt>
      <trkpt lat="17.070569910" lon="-96.715259130">
        <ele>1566.000</ele>
        <time>2017-01-13T22:43:38Z</time>
        <name>WPT.4571</name>
      </trkpt>
      <trkpt lat="17.070591380" lon="-96.715341770">
        <ele>1565.000</ele>
        <time>2017-01-13T22:43:39Z</time>
        <name>WPT.4572</name>
      </trkpt>
      <trkpt lat="17.070605460" lon="-96.715454240">
        <ele>1565.000</ele>
        <time>2017-01-13T22:43:40Z</time>
        <name>WPT.4573</name>
      </trkpt>
      <trkpt lat="17.070621310" lon="-96.715553800">
        <ele>1565.000</ele>
        <time>2017-01-13T22:43:41Z</time>
        <name>WPT.4574</name>
      </trkpt>
      <trkpt lat="17.070656010" lon="-96.715652990">
        <ele>1565.000</ele>
        <time>2017-01-13T22:43:42Z</time>
        <name>WPT.4575</name>
      </trkpt>
      <trkpt lat="17.070675190" lon="-96.715757070">
        <ele>1565.000</ele>
        <time>2017-01-13T22:43:43Z</time>
        <name>WPT.4576</name>
      </trkpt>
      <trkpt lat="17.070698300" lon="-96.715847990">
        <ele>1565.000</ele>
        <time>2017-01-13T22:43:44Z</time>
        <name>WPT.4577</name>
      </trkpt>
      <trkpt lat="17.070719790" lon="-96.715955490">
        <ele>1564.000</ele>
        <time>2017-01-13T22:43:45Z</time>
        <name>WPT.4578</name>
      </trkpt>
      <trkpt lat="17.070744740" lon="-96.716056390">
        <ele>1564.000</ele>
        <time>2017-01-13T22:43:46Z</time>
        <name>WPT.4579</name>
      </trkpt>
      <trkpt lat="17.070780910" lon="-96.716163940">
        <ele>1563.000</ele>
        <time>2017-01-13T22:43:47Z</time>
        <name>WPT.4580</name>
      </trkpt>
      <trkpt lat="17.070797380" lon="-96.716248340">
        <ele>1563.000</ele>
        <time>2017-01-13T22:43:48Z</time>
        <name>WPT.4581</name>
      </trkpt>
      <trkpt lat="17.070822680" lon="-96.716314670">
        <ele>1563.000</ele>
        <time>2017-01-13T22:43:49Z</time>
        <name>WPT.4582</name>
      </trkpt>
      <trkpt lat="17.070832470" lon="-96.716384390">
        <ele>1563.000</ele>
        <time>2017-01-13T22:43:50Z</time>
        <name>WPT.4583</name>
      </trkpt>
      <trkpt lat="17.070843030" lon="-96.716422990">
        <ele>1563.000</ele>
        <time>2017-01-13T22:43:51Z</time>
        <name>WPT.4584</name>
      </trkpt>
      <trkpt lat="17.070847110" lon="-96.716461550">
        <ele>1563.000</ele>
        <time>2017-01-13T22:43:52Z</time>
        <name>WPT.4585</name>
      </trkpt>
      <trkpt lat="17.070838780" lon="-96.716498700">
        <ele>1564.000</ele>
        <time>2017-01-13T22:43:55Z</time>
        <name>WPT.4586</name>
      </trkpt>
      <trkpt lat="17.070848290" lon="-96.716539860">
        <ele>1568.000</ele>
        <time>2017-01-13T22:44:29Z</time>
        <name>WPT.4587</name>
      </trkpt>
      <trkpt lat="17.070860650" lon="-96.716579460">
        <ele>1567.000</ele>
        <time>2017-01-13T22:44:30Z</time>
        <name>WPT.4588</name>
      </trkpt>
      <trkpt lat="17.070876110" lon="-96.716622160">
        <ele>1567.000</ele>
        <time>2017-01-13T22:44:31Z</time>
        <name>WPT.4589</name>
      </trkpt>
      <trkpt lat="17.070884790" lon="-96.716677810">
        <ele>1568.000</ele>
        <time>2017-01-13T22:44:32Z</time>
        <name>WPT.4590</name>
      </trkpt>
      <trkpt lat="17.070894090" lon="-96.716740340">
        <ele>1568.000</ele>
        <time>2017-01-13T22:44:33Z</time>
        <name>WPT.4591</name>
      </trkpt>
      <trkpt lat="17.070913930" lon="-96.716805190">
        <ele>1567.000</ele>
        <time>2017-01-13T22:44:34Z</time>
        <name>WPT.4592</name>
      </trkpt>
      <trkpt lat="17.070923630" lon="-96.716888420">
        <ele>1568.000</ele>
        <time>2017-01-13T22:44:35Z</time>
        <name>WPT.4593</name>
      </trkpt>
      <trkpt lat="17.070947150" lon="-96.716987560">
        <ele>1566.000</ele>
        <time>2017-01-13T22:44:36Z</time>
        <name>WPT.4594</name>
      </trkpt>
      <trkpt lat="17.070971520" lon="-96.717073200">
        <ele>1566.000</ele>
        <time>2017-01-13T22:44:37Z</time>
        <name>WPT.4595</name>
      </trkpt>
      <trkpt lat="17.070989830" lon="-96.717155320">
        <ele>1565.000</ele>
        <time>2017-01-13T22:44:38Z</time>
        <name>WPT.4596</name>
      </trkpt>
      <trkpt lat="17.071007450" lon="-96.717234250">
        <ele>1565.000</ele>
        <time>2017-01-13T22:44:39Z</time>
        <name>WPT.4597</name>
      </trkpt>
      <trkpt lat="17.071029030" lon="-96.717309810">
        <ele>1565.000</ele>
        <time>2017-01-13T22:44:40Z</time>
        <name>WPT.4598</name>
      </trkpt>
      <trkpt lat="17.071038520" lon="-96.717360050">
        <ele>1566.000</ele>
        <time>2017-01-13T22:44:41Z</time>
        <name>WPT.4599</name>
      </trkpt>
      <trkpt lat="17.071062910" lon="-96.717404920">
        <ele>1565.000</ele>
        <time>2017-01-13T22:44:42Z</time>
        <name>WPT.4600</name>
      </trkpt>
      <trkpt lat="17.071062680" lon="-96.717447160">
        <ele>1565.000</ele>
        <time>2017-01-13T22:44:44Z</time>
        <name>WPT.4601</name>
      </trkpt>
      <trkpt lat="17.071098930" lon="-96.717446730">
        <ele>1564.000</ele>
        <time>2017-01-13T22:44:50Z</time>
        <name>WPT.4602</name>
      </trkpt>
      <trkpt lat="17.071116640" lon="-96.717497280">
        <ele>1561.000</ele>
        <time>2017-01-13T22:45:07Z</time>
        <name>WPT.4603</name>
      </trkpt>
      <trkpt lat="17.071151380" lon="-96.717685760">
        <ele>1558.000</ele>
        <time>2017-01-13T22:45:08Z</time>
        <name>WPT.4604</name>
      </trkpt>
      <trkpt lat="17.071176720" lon="-96.717860640">
        <ele>1556.000</ele>
        <time>2017-01-13T22:45:09Z</time>
        <name>WPT.4605</name>
      </trkpt>
      <trkpt lat="17.071196690" lon="-96.717952140">
        <ele>1556.000</ele>
        <time>2017-01-13T22:45:10Z</time>
        <name>WPT.4606</name>
      </trkpt>
      <trkpt lat="17.071218510" lon="-96.718052120">
        <ele>1556.000</ele>
        <time>2017-01-13T22:45:11Z</time>
        <name>WPT.4607</name>
      </trkpt>
      <trkpt lat="17.071261170" lon="-96.718114510">
        <ele>1556.000</ele>
        <time>2017-01-13T22:45:12Z</time>
        <name>WPT.4608</name>
      </trkpt>
      <trkpt lat="17.071273310" lon="-96.718188000">
        <ele>1556.000</ele>
        <time>2017-01-13T22:45:13Z</time>
        <name>WPT.4609</name>
      </trkpt>
      <trkpt lat="17.071306740" lon="-96.718254910">
        <ele>1556.000</ele>
        <time>2017-01-13T22:45:15Z</time>
        <name>WPT.4610</name>
      </trkpt>
      <trkpt lat="17.071289260" lon="-96.718289600">
        <ele>1556.000</ele>
        <time>2017-01-13T22:45:16Z</time>
        <name>WPT.4611</name>
      </trkpt>
      <trkpt lat="17.071277870" lon="-96.718330230">
        <ele>1556.000</ele>
        <time>2017-01-13T22:45:17Z</time>
        <name>WPT.4612</name>
      </trkpt>
      <trkpt lat="17.071286370" lon="-96.718374580">
        <ele>1556.000</ele>
        <time>2017-01-13T22:45:18Z</time>
        <name>WPT.4613</name>
      </trkpt>
      <trkpt lat="17.071294630" lon="-96.718416840">
        <ele>1556.000</ele>
        <time>2017-01-13T22:45:19Z</time>
        <name>WPT.4614</name>
      </trkpt>
      <trkpt lat="17.071244480" lon="-96.718252360">
        <ele>1555.000</ele>
        <time>2017-01-13T22:45:20Z</time>
        <name>WPT.4615</name>
      </trkpt>
      <trkpt lat="17.071219610" lon="-96.718197090">
        <ele>1556.000</ele>
        <time>2017-01-13T22:45:21Z</time>
        <name>WPT.4616</name>
      </trkpt>
      <trkpt lat="17.071292540" lon="-96.718301080">
        <ele>1556.000</ele>
        <time>2017-01-13T22:45:23Z</time>
        <name>WPT.4617</name>
      </trkpt>
      <trkpt lat="17.071317770" lon="-96.718339870">
        <ele>1556.000</ele>
        <time>2017-01-13T22:45:24Z</time>
        <name>WPT.4618</name>
      </trkpt>
      <trkpt lat="17.071300250" lon="-96.718384010">
        <ele>1556.000</ele>
        <time>2017-01-13T22:45:26Z</time>
        <name>WPT.4619</name>
      </trkpt>
      <trkpt lat="17.071337010" lon="-96.718378600">
        <ele>1559.000</ele>
        <time>2017-01-13T22:45:30Z</time>
        <name>WPT.4620</name>
      </trkpt>
      <trkpt lat="17.071309180" lon="-96.718406590">
        <ele>1559.000</ele>
        <time>2017-01-13T22:45:34Z</time>
        <name>WPT.4621</name>
      </trkpt>
      <trkpt lat="17.071254350" lon="-96.718426060">
        <ele>1560.000</ele>
        <time>2017-01-13T22:45:37Z</time>
        <name>WPT.4622</name>
      </trkpt>
      <trkpt lat="17.071274140" lon="-96.718368410">
        <ele>1561.000</ele>
        <time>2017-01-13T22:45:39Z</time>
        <name>WPT.4623</name>
      </trkpt>
      <trkpt lat="17.071266300" lon="-96.718419410">
        <ele>1561.000</ele>
        <time>2017-01-13T22:45:41Z</time>
        <name>WPT.4624</name>
      </trkpt>
      <trkpt lat="17.071264980" lon="-96.718381710">
        <ele>1561.000</ele>
        <time>2017-01-13T22:45:43Z</time>
        <name>WPT.4625</name>
      </trkpt>
      <trkpt lat="17.071228820" lon="-96.718385320">
        <ele>1562.000</ele>
        <time>2017-01-13T22:45:45Z</time>
        <name>WPT.4626</name>
      </trkpt>
      <trkpt lat="17.071197960" lon="-96.718414830">
        <ele>1563.000</ele>
        <time>2017-01-13T22:45:47Z</time>
        <name>WPT.4627</name>
      </trkpt>
      <trkpt lat="17.071208300" lon="-96.718499180">
        <ele>1562.000</ele>
        <time>2017-01-13T22:45:50Z</time>
        <name>WPT.4628</name>
      </trkpt>
      <trkpt lat="17.071260800" lon="-96.718506530">
        <ele>1561.000</ele>
        <time>2017-01-13T22:45:52Z</time>
        <name>WPT.4629</name>
      </trkpt>
      <trkpt lat="17.071314760" lon="-96.718633510">
        <ele>1562.000</ele>
        <time>2017-01-13T22:45:53Z</time>
        <name>WPT.4630</name>
      </trkpt>
      <trkpt lat="17.071322010" lon="-96.718678980">
        <ele>1562.000</ele>
        <time>2017-01-13T22:45:55Z</time>
        <name>WPT.4631</name>
      </trkpt>
      <trkpt lat="17.071351030" lon="-96.718732320">
        <ele>1562.000</ele>
        <time>2017-01-13T22:45:57Z</time>
        <name>WPT.4632</name>
      </trkpt>
      <trkpt lat="17.071453270" lon="-96.719324580">
        <ele>1563.000</ele>
        <time>2017-01-13T22:46:08Z</time>
        <name>WPT.4633</name>
      </trkpt>
      <trkpt lat="17.071457430" lon="-96.719363340">
        <ele>1564.000</ele>
        <time>2017-01-13T22:46:10Z</time>
        <name>WPT.4634</name>
      </trkpt>
      <trkpt lat="17.071443660" lon="-96.719459440">
        <ele>1565.000</ele>
        <time>2017-01-13T22:46:12Z</time>
        <name>WPT.4635</name>
      </trkpt>
      <trkpt lat="17.071408100" lon="-96.719447860">
        <ele>1567.000</ele>
        <time>2017-01-13T22:46:16Z</time>
        <name>WPT.4636</name>
      </trkpt>
      <trkpt lat="17.071449580" lon="-96.719458450">
        <ele>1564.000</ele>
        <time>2017-01-13T22:46:17Z</time>
        <name>WPT.4637</name>
      </trkpt>
      <trkpt lat="17.071463420" lon="-96.719493280">
        <ele>1565.000</ele>
        <time>2017-01-13T22:46:18Z</time>
        <name>WPT.4638</name>
      </trkpt>
      <trkpt lat="17.071525950" lon="-96.719517290">
        <ele>1565.000</ele>
        <time>2017-01-13T22:46:22Z</time>
        <name>WPT.4639</name>
      </trkpt>
      <trkpt lat="17.071452930" lon="-96.719546930">
        <ele>1564.000</ele>
        <time>2017-01-13T22:46:24Z</time>
        <name>WPT.4640</name>
      </trkpt>
      <trkpt lat="17.071391200" lon="-96.719537970">
        <ele>1564.000</ele>
        <time>2017-01-13T22:46:26Z</time>
        <name>WPT.4641</name>
      </trkpt>
      <trkpt lat="17.071387520" lon="-96.719582700">
        <ele>1563.000</ele>
        <time>2017-01-13T22:46:27Z</time>
        <name>WPT.4642</name>
      </trkpt>
      <trkpt lat="17.071362190" lon="-96.719615130">
        <ele>1563.000</ele>
        <time>2017-01-13T22:46:28Z</time>
        <name>WPT.4643</name>
      </trkpt>
      <trkpt lat="17.071322690" lon="-96.719683520">
        <ele>1562.000</ele>
        <time>2017-01-13T22:46:29Z</time>
        <name>WPT.4644</name>
      </trkpt>
      <trkpt lat="17.071241860" lon="-96.719778920">
        <ele>1562.000</ele>
        <time>2017-01-13T22:46:31Z</time>
        <name>WPT.4645</name>
      </trkpt>
      <trkpt lat="17.071192910" lon="-96.719868300">
        <ele>1561.000</ele>
        <time>2017-01-13T22:46:33Z</time>
        <name>WPT.4646</name>
      </trkpt>
      <trkpt lat="17.071150930" lon="-96.719885170">
        <ele>1561.000</ele>
        <time>2017-01-13T22:46:34Z</time>
        <name>WPT.4647</name>
      </trkpt>
      <trkpt lat="17.071119680" lon="-96.719940690">
        <ele>1560.000</ele>
        <time>2017-01-13T22:46:35Z</time>
        <name>WPT.4648</name>
      </trkpt>
      <trkpt lat="17.070926740" lon="-96.719907060">
        <ele>1560.000</ele>
        <time>2017-01-13T22:46:36Z</time>
        <name>WPT.4649</name>
      </trkpt>
      <trkpt lat="17.070794170" lon="-96.719848130">
        <ele>1560.000</ele>
        <time>2017-01-13T22:46:37Z</time>
        <name>WPT.4650</name>
      </trkpt>
      <trkpt lat="17.070687470" lon="-96.719845650">
        <ele>1560.000</ele>
        <time>2017-01-13T22:46:38Z</time>
        <name>WPT.4651</name>
      </trkpt>
      <trkpt lat="17.070633900" lon="-96.719856750">
        <ele>1560.000</ele>
        <time>2017-01-13T22:46:39Z</time>
        <name>WPT.4652</name>
      </trkpt>
      <trkpt lat="17.070589720" lon="-96.719863020">
        <ele>1560.000</ele>
        <time>2017-01-13T22:46:40Z</time>
        <name>WPT.4653</name>
      </trkpt>
      <trkpt lat="17.070521590" lon="-96.719871810">
        <ele>1560.000</ele>
        <time>2017-01-13T22:46:41Z</time>
        <name>WPT.4654</name>
      </trkpt>
      <trkpt lat="17.070473060" lon="-96.719888150">
        <ele>1560.000</ele>
        <time>2017-01-13T22:46:42Z</time>
        <name>WPT.4655</name>
      </trkpt>
      <trkpt lat="17.070426720" lon="-96.719905570">
        <ele>1560.000</ele>
        <time>2017-01-13T22:46:43Z</time>
        <name>WPT.4656</name>
      </trkpt>
      <trkpt lat="17.070392540" lon="-96.719925270">
        <ele>1560.000</ele>
        <time>2017-01-13T22:46:44Z</time>
        <name>WPT.4657</name>
      </trkpt>
      <trkpt lat="17.070350410" lon="-96.719942510">
        <ele>1560.000</ele>
        <time>2017-01-13T22:46:45Z</time>
        <name>WPT.4658</name>
      </trkpt>
      <trkpt lat="17.070339450" lon="-96.720001690">
        <ele>1559.000</ele>
        <time>2017-01-13T22:46:47Z</time>
        <name>WPT.4659</name>
      </trkpt>
      <trkpt lat="17.070301030" lon="-96.720015420">
        <ele>1559.000</ele>
        <time>2017-01-13T22:46:48Z</time>
        <name>WPT.4660</name>
      </trkpt>
      <trkpt lat="17.070264500" lon="-96.720055110">
        <ele>1558.000</ele>
        <time>2017-01-13T22:46:49Z</time>
        <name>WPT.4661</name>
      </trkpt>
      <trkpt lat="17.070207380" lon="-96.719968060">
        <ele>1561.000</ele>
        <time>2017-01-13T22:46:50Z</time>
        <name>WPT.4662</name>
      </trkpt>
      <trkpt lat="17.070170130" lon="-96.719943680">
        <ele>1561.000</ele>
        <time>2017-01-13T22:46:51Z</time>
        <name>WPT.4663</name>
      </trkpt>
      <trkpt lat="17.070131470" lon="-96.719973360">
        <ele>1562.000</ele>
        <time>2017-01-13T22:46:52Z</time>
        <name>WPT.4664</name>
      </trkpt>
      <trkpt lat="17.070081930" lon="-96.719991740">
        <ele>1561.000</ele>
        <time>2017-01-13T22:46:54Z</time>
        <name>WPT.4665</name>
      </trkpt>
      <trkpt lat="17.070063260" lon="-96.719952440">
        <ele>1561.000</ele>
        <time>2017-01-13T22:46:55Z</time>
        <name>WPT.4666</name>
      </trkpt>
      <trkpt lat="17.070095250" lon="-96.719877200">
        <ele>1562.000</ele>
        <time>2017-01-13T22:46:56Z</time>
        <name>WPT.4667</name>
      </trkpt>
      <trkpt lat="17.070234530" lon="-96.719643770">
        <ele>1564.000</ele>
        <time>2017-01-13T22:46:57Z</time>
        <name>WPT.4668</name>
      </trkpt>
      <trkpt lat="17.070288330" lon="-96.719494530">
        <ele>1565.000</ele>
        <time>2017-01-13T22:46:58Z</time>
        <name>WPT.4669</name>
      </trkpt>
      <trkpt lat="17.070298770" lon="-96.719436990">
        <ele>1565.000</ele>
        <time>2017-01-13T22:46:59Z</time>
        <name>WPT.4670</name>
      </trkpt>
      <trkpt lat="17.070296690" lon="-96.719353280">
        <ele>1565.000</ele>
        <time>2017-01-13T22:47:03Z</time>
        <name>WPT.4671</name>
      </trkpt>
      <trkpt lat="17.070282940" lon="-96.719296850">
        <ele>1564.000</ele>
        <time>2017-01-13T22:47:05Z</time>
        <name>WPT.4672</name>
      </trkpt>
      <trkpt lat="17.070298360" lon="-96.719243270">
        <ele>1564.000</ele>
        <time>2017-01-13T22:47:06Z</time>
        <name>WPT.4673</name>
      </trkpt>
      <trkpt lat="17.070293780" lon="-96.719288850">
        <ele>1564.000</ele>
        <time>2017-01-13T22:47:07Z</time>
        <name>WPT.4674</name>
      </trkpt>
      <trkpt lat="17.070340560" lon="-96.718871480">
        <ele>1564.000</ele>
        <time>2017-01-13T22:47:15Z</time>
        <name>WPT.4675</name>
      </trkpt>
      <trkpt lat="17.070316480" lon="-96.718988410">
        <ele>1563.000</ele>
        <time>2017-01-13T22:47:16Z</time>
        <name>WPT.4676</name>
      </trkpt>
      <trkpt lat="17.070304600" lon="-96.719043890">
        <ele>1563.000</ele>
        <time>2017-01-13T22:47:17Z</time>
        <name>WPT.4677</name>
      </trkpt>
      <trkpt lat="17.070277100" lon="-96.719126440">
        <ele>1563.000</ele>
        <time>2017-01-13T22:47:20Z</time>
        <name>WPT.4678</name>
      </trkpt>
      <trkpt lat="17.070283000" lon="-96.719174740">
        <ele>1562.000</ele>
        <time>2017-01-13T22:47:22Z</time>
        <name>WPT.4679</name>
      </trkpt>
      <trkpt lat="17.070266240" lon="-96.719265540">
        <ele>1565.000</ele>
        <time>2017-01-13T22:47:23Z</time>
        <name>WPT.4680</name>
      </trkpt>
      <trkpt lat="17.070254130" lon="-96.719409800">
        <ele>1564.000</ele>
        <time>2017-01-13T22:47:24Z</time>
        <name>WPT.4681</name>
      </trkpt>
      <trkpt lat="17.070263550" lon="-96.719640420">
        <ele>1559.000</ele>
        <time>2017-01-13T22:47:25Z</time>
        <name>WPT.4682</name>
      </trkpt>
      <trkpt lat="17.070275290" lon="-96.719559220">
        <ele>1558.000</ele>
        <time>2017-01-13T22:47:26Z</time>
        <name>WPT.4683</name>
      </trkpt>
      <trkpt lat="17.070223770" lon="-96.719620200">
        <ele>1561.000</ele>
        <time>2017-01-13T22:47:28Z</time>
        <name>WPT.4684</name>
      </trkpt>
      <trkpt lat="17.070174690" lon="-96.719671990">
        <ele>1556.000</ele>
        <time>2017-01-13T22:47:30Z</time>
        <name>WPT.4685</name>
      </trkpt>
      <trkpt lat="17.070163930" lon="-96.719713000">
        <ele>1557.000</ele>
        <time>2017-01-13T22:47:35Z</time>
        <name>WPT.4686</name>
      </trkpt>
      <trkpt lat="17.070112070" lon="-96.719766100">
        <ele>1556.000</ele>
        <time>2017-01-13T22:47:39Z</time>
        <name>WPT.4687</name>
      </trkpt>
      <trkpt lat="17.070049030" lon="-96.719806460">
        <ele>1554.000</ele>
        <time>2017-01-13T22:47:41Z</time>
        <name>WPT.4688</name>
      </trkpt>
      <trkpt lat="17.069986600" lon="-96.719837520">
        <ele>1557.000</ele>
        <time>2017-01-13T22:47:43Z</time>
        <name>WPT.4689</name>
      </trkpt>
      <trkpt lat="17.069932950" lon="-96.719860730">
        <ele>1560.000</ele>
        <time>2017-01-13T22:47:45Z</time>
        <name>WPT.4690</name>
      </trkpt>
      <trkpt lat="17.069885300" lon="-96.719810930">
        <ele>1560.000</ele>
        <time>2017-01-13T22:47:48Z</time>
        <name>WPT.4691</name>
      </trkpt>
      <trkpt lat="17.069844420" lon="-96.719818360">
        <ele>1559.000</ele>
        <time>2017-01-13T22:47:49Z</time>
        <name>WPT.4692</name>
      </trkpt>
      <trkpt lat="17.069783690" lon="-96.719818660">
        <ele>1558.000</ele>
        <time>2017-01-13T22:47:51Z</time>
        <name>WPT.4693</name>
      </trkpt>
      <trkpt lat="17.069739670" lon="-96.719825090">
        <ele>1558.000</ele>
        <time>2017-01-13T22:47:53Z</time>
        <name>WPT.4694</name>
      </trkpt>
      <trkpt lat="17.069708630" lon="-96.719797050">
        <ele>1554.000</ele>
        <time>2017-01-13T22:47:55Z</time>
        <name>WPT.4695</name>
      </trkpt>
      <trkpt lat="17.069675670" lon="-96.719855770">
        <ele>1554.000</ele>
        <time>2017-01-13T22:47:56Z</time>
        <name>WPT.4696</name>
      </trkpt>
      <trkpt lat="17.069636930" lon="-96.719844870">
        <ele>1556.000</ele>
        <time>2017-01-13T22:47:57Z</time>
        <name>WPT.4697</name>
      </trkpt>
      <trkpt lat="17.069596510" lon="-96.719860500">
        <ele>1556.000</ele>
        <time>2017-01-13T22:47:58Z</time>
        <name>WPT.4698</name>
      </trkpt>
      <trkpt lat="17.069500600" lon="-96.719916560">
        <ele>1558.000</ele>
        <time>2017-01-13T22:48:00Z</time>
        <name>WPT.4699</name>
      </trkpt>
      <trkpt lat="17.069449960" lon="-96.719902160">
        <ele>1558.000</ele>
        <time>2017-01-13T22:48:01Z</time>
        <name>WPT.4700</name>
      </trkpt>
      <trkpt lat="17.069338010" lon="-96.719906510">
        <ele>1558.000</ele>
        <time>2017-01-13T22:48:02Z</time>
        <name>WPT.4701</name>
      </trkpt>
      <trkpt lat="17.069374510" lon="-96.719925500">
        <ele>1559.000</ele>
        <time>2017-01-13T22:48:03Z</time>
        <name>WPT.4702</name>
      </trkpt>
      <trkpt lat="17.069344000" lon="-96.719871930">
        <ele>1561.000</ele>
        <time>2017-01-13T22:48:04Z</time>
        <name>WPT.4703</name>
      </trkpt>
      <trkpt lat="17.069313250" lon="-96.719900590">
        <ele>1559.000</ele>
        <time>2017-01-13T22:48:05Z</time>
        <name>WPT.4704</name>
      </trkpt>
      <trkpt lat="17.069341500" lon="-96.719954550">
        <ele>1557.000</ele>
        <time>2017-01-13T22:48:07Z</time>
        <name>WPT.4705</name>
      </trkpt>
      <trkpt lat="17.069297160" lon="-96.719983660">
        <ele>1552.000</ele>
        <time>2017-01-13T22:48:10Z</time>
        <name>WPT.4706</name>
      </trkpt>
      <trkpt lat="17.069197580" lon="-96.719971250">
        <ele>1555.000</ele>
        <time>2017-01-13T22:48:12Z</time>
        <name>WPT.4707</name>
      </trkpt>
      <trkpt lat="17.069135730" lon="-96.719963860">
        <ele>1554.000</ele>
        <time>2017-01-13T22:48:13Z</time>
        <name>WPT.4708</name>
      </trkpt>
      <trkpt lat="17.069084280" lon="-96.719974190">
        <ele>1556.000</ele>
        <time>2017-01-13T22:48:14Z</time>
        <name>WPT.4709</name>
      </trkpt>
      <trkpt lat="17.069039570" lon="-96.719999860">
        <ele>1557.000</ele>
        <time>2017-01-13T22:48:15Z</time>
        <name>WPT.4710</name>
      </trkpt>
      <trkpt lat="17.068985800" lon="-96.720015950">
        <ele>1556.000</ele>
        <time>2017-01-13T22:48:16Z</time>
        <name>WPT.4711</name>
      </trkpt>
      <trkpt lat="17.068930750" lon="-96.720025280">
        <ele>1553.000</ele>
        <time>2017-01-13T22:48:17Z</time>
        <name>WPT.4712</name>
      </trkpt>
      <trkpt lat="17.068858110" lon="-96.720041730">
        <ele>1553.000</ele>
        <time>2017-01-13T22:48:18Z</time>
        <name>WPT.4713</name>
      </trkpt>
      <trkpt lat="17.068782710" lon="-96.720051360">
        <ele>1552.000</ele>
        <time>2017-01-13T22:48:19Z</time>
        <name>WPT.4714</name>
      </trkpt>
      <trkpt lat="17.068718730" lon="-96.720091650">
        <ele>1551.000</ele>
        <time>2017-01-13T22:48:20Z</time>
        <name>WPT.4715</name>
      </trkpt>
      <trkpt lat="17.068651830" lon="-96.720108760">
        <ele>1550.000</ele>
        <time>2017-01-13T22:48:21Z</time>
        <name>WPT.4716</name>
      </trkpt>
      <trkpt lat="17.068583460" lon="-96.720142020">
        <ele>1551.000</ele>
        <time>2017-01-13T22:48:22Z</time>
        <name>WPT.4717</name>
      </trkpt>
      <trkpt lat="17.068471610" lon="-96.720160840">
        <ele>1551.000</ele>
        <time>2017-01-13T22:48:23Z</time>
        <name>WPT.4718</name>
      </trkpt>
      <trkpt lat="17.068441580" lon="-96.720121440">
        <ele>1551.000</ele>
        <time>2017-01-13T22:48:24Z</time>
        <name>WPT.4719</name>
      </trkpt>
      <trkpt lat="17.068334200" lon="-96.720141080">
        <ele>1551.000</ele>
        <time>2017-01-13T22:48:25Z</time>
        <name>WPT.4720</name>
      </trkpt>
      <trkpt lat="17.068246180" lon="-96.720115110">
        <ele>1551.000</ele>
        <time>2017-01-13T22:48:26Z</time>
        <name>WPT.4721</name>
      </trkpt>
      <trkpt lat="17.068184300" lon="-96.720130490">
        <ele>1551.000</ele>
        <time>2017-01-13T22:48:28Z</time>
        <name>WPT.4722</name>
      </trkpt>
      <trkpt lat="17.068126680" lon="-96.720142910">
        <ele>1550.000</ele>
        <time>2017-01-13T22:48:29Z</time>
        <name>WPT.4723</name>
      </trkpt>
      <trkpt lat="17.068082220" lon="-96.720123330">
        <ele>1550.000</ele>
        <time>2017-01-13T22:48:30Z</time>
        <name>WPT.4724</name>
      </trkpt>
      <trkpt lat="17.068039610" lon="-96.720129150">
        <ele>1551.000</ele>
        <time>2017-01-13T22:48:31Z</time>
        <name>WPT.4725</name>
      </trkpt>
      <trkpt lat="17.067990570" lon="-96.720139800">
        <ele>1551.000</ele>
        <time>2017-01-13T22:48:32Z</time>
        <name>WPT.4726</name>
      </trkpt>
      <trkpt lat="17.068023600" lon="-96.720123480">
        <ele>1549.000</ele>
        <time>2017-01-13T22:48:34Z</time>
        <name>WPT.4727</name>
      </trkpt>
      <trkpt lat="17.068017110" lon="-96.720163630">
        <ele>1554.000</ele>
        <time>2017-01-13T22:48:39Z</time>
        <name>WPT.4728</name>
      </trkpt>
      <trkpt lat="17.067985080" lon="-96.720181620">
        <ele>1559.000</ele>
        <time>2017-01-13T22:48:42Z</time>
        <name>WPT.4729</name>
      </trkpt>
      <trkpt lat="17.068016530" lon="-96.720201230">
        <ele>1558.000</ele>
        <time>2017-01-13T22:48:44Z</time>
        <name>WPT.4730</name>
      </trkpt>
      <trkpt lat="17.067998830" lon="-96.720246580">
        <ele>1555.000</ele>
        <time>2017-01-13T22:48:45Z</time>
        <name>WPT.4731</name>
      </trkpt>
      <trkpt lat="17.067955050" lon="-96.720240400">
        <ele>1555.000</ele>
        <time>2017-01-13T22:48:57Z</time>
        <name>WPT.4732</name>
      </trkpt>
      <trkpt lat="17.067881910" lon="-96.720232910">
        <ele>1551.000</ele>
        <time>2017-01-13T22:48:59Z</time>
        <name>WPT.4733</name>
      </trkpt>
      <trkpt lat="17.067823480" lon="-96.720263540">
        <ele>1547.000</ele>
        <time>2017-01-13T22:49:01Z</time>
        <name>WPT.4734</name>
      </trkpt>
      <trkpt lat="17.067774330" lon="-96.720281280">
        <ele>1547.000</ele>
        <time>2017-01-13T22:49:02Z</time>
        <name>WPT.4735</name>
      </trkpt>
      <trkpt lat="17.067735760" lon="-96.720295260">
        <ele>1546.000</ele>
        <time>2017-01-13T22:49:03Z</time>
        <name>WPT.4736</name>
      </trkpt>
      <trkpt lat="17.067687110" lon="-96.720298540">
        <ele>1544.000</ele>
        <time>2017-01-13T22:49:04Z</time>
        <name>WPT.4737</name>
      </trkpt>
      <trkpt lat="17.067650110" lon="-96.720304750">
        <ele>1543.000</ele>
        <time>2017-01-13T22:49:05Z</time>
        <name>WPT.4738</name>
      </trkpt>
      <trkpt lat="17.067606490" lon="-96.720313900">
        <ele>1541.000</ele>
        <time>2017-01-13T22:49:07Z</time>
        <name>WPT.4739</name>
      </trkpt>
      <trkpt lat="17.067564570" lon="-96.720298220">
        <ele>1541.000</ele>
        <time>2017-01-13T22:49:12Z</time>
        <name>WPT.4740</name>
      </trkpt>
      <trkpt lat="17.067543920" lon="-96.720335760">
        <ele>1539.000</ele>
        <time>2017-01-13T22:49:18Z</time>
        <name>WPT.4741</name>
      </trkpt>
      <trkpt lat="17.067540810" lon="-96.720313640">
        <ele>1545.000</ele>
        <time>2017-01-13T22:53:45Z</time>
        <name>WPT.4742</name>
      </trkpt>
    </trkseg>
  </trk>
</gpx>
